<?xml version="1.0" encoding="UTF-8" standalone="no" ?>
<gpx xmlns="http://www.topografix.com/GPX/1/1" xmlns:xsi="http://www.w3.org/2001/XMLSchema-instance" xsi:schemaLocation="http://www.topografix.com/GPX/1/1 http://www.topografix.com/GPX/1/1/gpx.xsd" version="1.1" creator="VisuGPX - https://www.visugpx.com">
  <metadata>
    <name>MONT AUSSELIER A PARTIR DE St SAUVEUR</name>
    <desc><![CDATA[ANCIENNE TRACE FAITE EN 2017 avec une navette.
editée en vue, de la refaire sans navette.
env 50km pour D entre 1800 et 2000m ?]]></desc>
  </metadata>
  <trk>
    <name><![CDATA[20180716213257-HVMxL]]></name>
    <trkseg>
      <trkpt lat="44.09885" lon="7.0947">
        <ele>1054</ele>
        <time>2017-05-25T07:58:14.000Z</time>
      </trkpt>
      <trkpt lat="44.09885" lon="7.0947">
        <ele>1054</ele>
        <time>2017-05-25T07:58:21.000Z</time>
      </trkpt>
      <trkpt lat="44.09887" lon="7.09468">
        <ele>1055</ele>
        <time>2017-05-25T07:58:23.000Z</time>
      </trkpt>
      <trkpt lat="44.09887" lon="7.09466">
        <ele>1055</ele>
        <time>2017-05-25T07:58:25.000Z</time>
      </trkpt>
      <trkpt lat="44.09887" lon="7.09466">
        <ele>1055</ele>
        <time>2017-05-25T07:58:31.000Z</time>
      </trkpt>
      <trkpt lat="44.09885" lon="7.09466">
        <ele>1055</ele>
        <time>2017-05-25T07:58:37.000Z</time>
      </trkpt>
      <trkpt lat="44.09876" lon="7.09466">
        <ele>1056</ele>
        <time>2017-05-25T07:58:43.000Z</time>
      </trkpt>
      <trkpt lat="44.09864" lon="7.09469">
        <ele>1055</ele>
        <time>2017-05-25T07:58:50.000Z</time>
      </trkpt>
      <trkpt lat="44.09856" lon="7.09476">
        <ele>1053</ele>
        <time>2017-05-25T07:58:56.000Z</time>
      </trkpt>
      <trkpt lat="44.09855" lon="7.09477">
        <ele>1053</ele>
        <time>2017-05-25T07:58:57.000Z</time>
      </trkpt>
      <trkpt lat="44.09845" lon="7.09484">
        <ele>1050</ele>
        <time>2017-05-25T07:59:03.000Z</time>
      </trkpt>
      <trkpt lat="44.09839" lon="7.09489">
        <ele>1047</ele>
        <time>2017-05-25T07:59:07.000Z</time>
      </trkpt>
      <trkpt lat="44.09832" lon="7.09492">
        <ele>1047</ele>
        <time>2017-05-25T07:59:11.000Z</time>
      </trkpt>
      <trkpt lat="44.09827" lon="7.0949">
        <ele>1050</ele>
        <time>2017-05-25T07:59:14.000Z</time>
      </trkpt>
      <trkpt lat="44.09821" lon="7.09486">
        <ele>1054</ele>
        <time>2017-05-25T07:59:18.000Z</time>
      </trkpt>
      <trkpt lat="44.09816" lon="7.09483">
        <ele>1056</ele>
        <time>2017-05-25T07:59:21.000Z</time>
      </trkpt>
      <trkpt lat="44.09811" lon="7.09486">
        <ele>1057</ele>
        <time>2017-05-25T07:59:24.000Z</time>
      </trkpt>
      <trkpt lat="44.09804" lon="7.09497">
        <ele>1057</ele>
        <time>2017-05-25T07:59:29.000Z</time>
      </trkpt>
      <trkpt lat="44.09802" lon="7.09499">
        <ele>1057</ele>
        <time>2017-05-25T07:59:30.000Z</time>
      </trkpt>
      <trkpt lat="44.09787" lon="7.09508">
        <ele>1036</ele>
        <time>2017-05-25T07:59:38.000Z</time>
      </trkpt>
      <trkpt lat="44.09785" lon="7.09509">
        <ele>1037</ele>
        <time>2017-05-25T07:59:39.000Z</time>
      </trkpt>
      <trkpt lat="44.0977" lon="7.09507">
        <ele>1041</ele>
        <time>2017-05-25T07:59:46.000Z</time>
      </trkpt>
      <trkpt lat="44.09763" lon="7.09505">
        <ele>1044</ele>
        <time>2017-05-25T07:59:49.000Z</time>
      </trkpt>
      <trkpt lat="44.09752" lon="7.09495">
        <ele>1057</ele>
        <time>2017-05-25T07:59:55.000Z</time>
      </trkpt>
      <trkpt lat="44.09746" lon="7.09492">
        <ele>1063</ele>
        <time>2017-05-25T07:59:58.000Z</time>
      </trkpt>
      <trkpt lat="44.09735" lon="7.09491">
        <ele>1068</ele>
        <time>2017-05-25T08:00:03.000Z</time>
      </trkpt>
      <trkpt lat="44.09731" lon="7.09491">
        <ele>1069</ele>
        <time>2017-05-25T08:00:05.000Z</time>
      </trkpt>
      <trkpt lat="44.09723" lon="7.09493">
        <ele>1071</ele>
        <time>2017-05-25T08:00:09.000Z</time>
      </trkpt>
      <trkpt lat="44.09712" lon="7.09493">
        <ele>1074</ele>
        <time>2017-05-25T08:00:14.000Z</time>
      </trkpt>
      <trkpt lat="44.09707" lon="7.09492">
        <ele>1074</ele>
        <time>2017-05-25T08:00:16.000Z</time>
      </trkpt>
      <trkpt lat="44.09691" lon="7.09488">
        <ele>1076</ele>
        <time>2017-05-25T08:00:23.000Z</time>
      </trkpt>
      <trkpt lat="44.09685" lon="7.09487">
        <ele>1076</ele>
        <time>2017-05-25T08:00:26.000Z</time>
      </trkpt>
      <trkpt lat="44.09672" lon="7.09492">
        <ele>1073</ele>
        <time>2017-05-25T08:00:32.000Z</time>
      </trkpt>
      <trkpt lat="44.09669" lon="7.09494">
        <ele>1072</ele>
        <time>2017-05-25T08:00:34.000Z</time>
      </trkpt>
      <trkpt lat="44.09659" lon="7.095">
        <ele>1076</ele>
        <time>2017-05-25T08:00:39.000Z</time>
      </trkpt>
      <trkpt lat="44.09653" lon="7.09504">
        <ele>1063</ele>
        <time>2017-05-25T08:00:42.000Z</time>
      </trkpt>
      <trkpt lat="44.09643" lon="7.09509">
        <ele>1060</ele>
        <time>2017-05-25T08:00:47.000Z</time>
      </trkpt>
      <trkpt lat="44.09642" lon="7.0951">
        <ele>1060</ele>
        <time>2017-05-25T08:00:48.000Z</time>
      </trkpt>
      <trkpt lat="44.0963" lon="7.09522">
        <ele>1057</ele>
        <time>2017-05-25T08:00:55.000Z</time>
      </trkpt>
      <trkpt lat="44.09628" lon="7.09524">
        <ele>1057</ele>
        <time>2017-05-25T08:00:56.000Z</time>
      </trkpt>
      <trkpt lat="44.09615" lon="7.0953">
        <ele>1057</ele>
        <time>2017-05-25T08:01:02.000Z</time>
      </trkpt>
      <trkpt lat="44.09609" lon="7.09532">
        <ele>1057</ele>
        <time>2017-05-25T08:01:05.000Z</time>
      </trkpt>
      <trkpt lat="44.096" lon="7.09531">
        <ele>1059</ele>
        <time>2017-05-25T08:01:09.000Z</time>
      </trkpt>
      <trkpt lat="44.09586" lon="7.09527">
        <ele>1062</ele>
        <time>2017-05-25T08:01:15.000Z</time>
      </trkpt>
      <trkpt lat="44.09582" lon="7.09526">
        <ele>1070</ele>
        <time>2017-05-25T08:01:17.000Z</time>
      </trkpt>
      <trkpt lat="44.0957" lon="7.09524">
        <ele>1070</ele>
        <time>2017-05-25T08:01:23.000Z</time>
      </trkpt>
      <trkpt lat="44.09565" lon="7.09524">
        <ele>1070</ele>
        <time>2017-05-25T08:01:25.000Z</time>
      </trkpt>
      <trkpt lat="44.09553" lon="7.09524">
        <ele>1070</ele>
        <time>2017-05-25T08:01:31.000Z</time>
      </trkpt>
      <trkpt lat="44.09551" lon="7.09524">
        <ele>1070</ele>
        <time>2017-05-25T08:01:32.000Z</time>
      </trkpt>
      <trkpt lat="44.09534" lon="7.09527">
        <ele>1071</ele>
        <time>2017-05-25T08:01:39.000Z</time>
      </trkpt>
      <trkpt lat="44.09527" lon="7.09529">
        <ele>1072</ele>
        <time>2017-05-25T08:01:42.000Z</time>
      </trkpt>
      <trkpt lat="44.09513" lon="7.09536">
        <ele>1071</ele>
        <time>2017-05-25T08:01:48.000Z</time>
      </trkpt>
      <trkpt lat="44.09502" lon="7.09542">
        <ele>1069</ele>
        <time>2017-05-25T08:01:53.000Z</time>
      </trkpt>
      <trkpt lat="44.09491" lon="7.09546">
        <ele>1069</ele>
        <time>2017-05-25T08:01:58.000Z</time>
      </trkpt>
      <trkpt lat="44.09479" lon="7.09549">
        <ele>1068</ele>
        <time>2017-05-25T08:02:03.000Z</time>
      </trkpt>
      <trkpt lat="44.09473" lon="7.0955">
        <ele>1068</ele>
        <time>2017-05-25T08:02:06.000Z</time>
      </trkpt>
      <trkpt lat="44.0946" lon="7.09554">
        <ele>1067</ele>
        <time>2017-05-25T08:02:12.000Z</time>
      </trkpt>
      <trkpt lat="44.09454" lon="7.09556">
        <ele>1066</ele>
        <time>2017-05-25T08:02:15.000Z</time>
      </trkpt>
      <trkpt lat="44.09441" lon="7.09555">
        <ele>1065</ele>
        <time>2017-05-25T08:02:21.000Z</time>
      </trkpt>
      <trkpt lat="44.09437" lon="7.09554">
        <ele>1065</ele>
        <time>2017-05-25T08:02:23.000Z</time>
      </trkpt>
      <trkpt lat="44.09423" lon="7.09546">
        <ele>1067</ele>
        <time>2017-05-25T08:02:30.000Z</time>
      </trkpt>
      <trkpt lat="44.09405" lon="7.0953">
        <ele>1055</ele>
        <time>2017-05-25T08:02:40.000Z</time>
      </trkpt>
      <trkpt lat="44.09394" lon="7.09515">
        <ele>1057</ele>
        <time>2017-05-25T08:02:47.000Z</time>
      </trkpt>
      <trkpt lat="44.09393" lon="7.09508">
        <ele>1058</ele>
        <time>2017-05-25T08:02:49.000Z</time>
      </trkpt>
      <trkpt lat="44.09391" lon="7.0949">
        <ele>1072</ele>
        <time>2017-05-25T08:02:55.000Z</time>
      </trkpt>
      <trkpt lat="44.0939" lon="7.09484">
        <ele>1071</ele>
        <time>2017-05-25T08:02:57.000Z</time>
      </trkpt>
      <trkpt lat="44.09386" lon="7.09468">
        <ele>1071</ele>
        <time>2017-05-25T08:03:03.000Z</time>
      </trkpt>
      <trkpt lat="44.09383" lon="7.09457">
        <ele>1071</ele>
        <time>2017-05-25T08:03:07.000Z</time>
      </trkpt>
      <trkpt lat="44.09382" lon="7.09444">
        <ele>1073</ele>
        <time>2017-05-25T08:03:11.000Z</time>
      </trkpt>
      <trkpt lat="44.09383" lon="7.09432">
        <ele>1075</ele>
        <time>2017-05-25T08:03:15.000Z</time>
      </trkpt>
      <trkpt lat="44.09386" lon="7.0942">
        <ele>1077</ele>
        <time>2017-05-25T08:03:19.000Z</time>
      </trkpt>
      <trkpt lat="44.09389" lon="7.09403">
        <ele>1092</ele>
        <time>2017-05-25T08:03:25.000Z</time>
      </trkpt>
      <trkpt lat="44.09389" lon="7.094">
        <ele>1092</ele>
        <time>2017-05-25T08:03:26.000Z</time>
      </trkpt>
      <trkpt lat="44.09388" lon="7.09376">
        <ele>1094</ele>
        <time>2017-05-25T08:03:34.000Z</time>
      </trkpt>
      <trkpt lat="44.09384" lon="7.09354">
        <ele>1097</ele>
        <time>2017-05-25T08:03:42.000Z</time>
      </trkpt>
      <trkpt lat="44.09382" lon="7.09348">
        <ele>1097</ele>
        <time>2017-05-25T08:03:44.000Z</time>
      </trkpt>
      <trkpt lat="44.09378" lon="7.09336">
        <ele>1097</ele>
        <time>2017-05-25T08:03:49.000Z</time>
      </trkpt>
      <trkpt lat="44.09378" lon="7.09336">
        <ele>1097</ele>
        <time>2017-05-25T08:03:51.000Z</time>
      </trkpt>
      <trkpt lat="44.09378" lon="7.09333">
        <ele>1113</ele>
        <time>2017-05-25T08:03:57.000Z</time>
      </trkpt>
      <trkpt lat="44.09378" lon="7.09333">
        <ele>1113</ele>
        <time>2017-05-25T08:04:01.000Z</time>
      </trkpt>
      <trkpt lat="44.09378" lon="7.09334">
        <ele>1097</ele>
        <time>2017-05-25T08:04:07.000Z</time>
      </trkpt>
      <trkpt lat="44.09379" lon="7.09336">
        <ele>1097</ele>
        <time>2017-05-25T08:04:27.000Z</time>
      </trkpt>
      <trkpt lat="44.09378" lon="7.09335">
        <ele>1097</ele>
        <time>2017-05-25T08:04:43.000Z</time>
      </trkpt>
      <trkpt lat="44.09371" lon="7.09332">
        <ele>1110</ele>
        <time>2017-05-25T08:04:48.000Z</time>
      </trkpt>
      <trkpt lat="44.09365" lon="7.0933">
        <ele>1109</ele>
        <time>2017-05-25T08:04:52.000Z</time>
      </trkpt>
      <trkpt lat="44.09362" lon="7.0933">
        <ele>1107</ele>
        <time>2017-05-25T08:04:54.000Z</time>
      </trkpt>
      <trkpt lat="44.09352" lon="7.0933">
        <ele>1102</ele>
        <time>2017-05-25T08:05:00.000Z</time>
      </trkpt>
      <trkpt lat="44.0935" lon="7.0933">
        <ele>1101</ele>
        <time>2017-05-25T08:05:01.000Z</time>
      </trkpt>
      <trkpt lat="44.09343" lon="7.0933">
        <ele>1096</ele>
        <time>2017-05-25T08:05:05.000Z</time>
      </trkpt>
      <trkpt lat="44.0934" lon="7.09329">
        <ele>1094</ele>
        <time>2017-05-25T08:05:07.000Z</time>
      </trkpt>
      <trkpt lat="44.09334" lon="7.09327">
        <ele>1093</ele>
        <time>2017-05-25T08:05:10.000Z</time>
      </trkpt>
      <trkpt lat="44.09324" lon="7.09322">
        <ele>1088</ele>
        <time>2017-05-25T08:05:16.000Z</time>
      </trkpt>
      <trkpt lat="44.09317" lon="7.09312">
        <ele>1089</ele>
        <time>2017-05-25T08:05:22.000Z</time>
      </trkpt>
      <trkpt lat="44.09315" lon="7.0931">
        <ele>1089</ele>
        <time>2017-05-25T08:05:23.000Z</time>
      </trkpt>
      <trkpt lat="44.09309" lon="7.09298">
        <ele>1091</ele>
        <time>2017-05-25T08:05:29.000Z</time>
      </trkpt>
      <trkpt lat="44.09306" lon="7.09294">
        <ele>1091</ele>
        <time>2017-05-25T08:05:31.000Z</time>
      </trkpt>
      <trkpt lat="44.093" lon="7.09284">
        <ele>1092</ele>
        <time>2017-05-25T08:05:36.000Z</time>
      </trkpt>
      <trkpt lat="44.09296" lon="7.09275">
        <ele>1093</ele>
        <time>2017-05-25T08:05:40.000Z</time>
      </trkpt>
      <trkpt lat="44.09293" lon="7.09268">
        <ele>1094</ele>
        <time>2017-05-25T08:05:43.000Z</time>
      </trkpt>
      <trkpt lat="44.09289" lon="7.09256">
        <ele>1094</ele>
        <time>2017-05-25T08:05:48.000Z</time>
      </trkpt>
      <trkpt lat="44.09286" lon="7.09252">
        <ele>1094</ele>
        <time>2017-05-25T08:05:50.000Z</time>
      </trkpt>
      <trkpt lat="44.0928" lon="7.09242">
        <ele>1109</ele>
        <time>2017-05-25T08:05:55.000Z</time>
      </trkpt>
      <trkpt lat="44.09274" lon="7.09236">
        <ele>1108</ele>
        <time>2017-05-25T08:05:59.000Z</time>
      </trkpt>
      <trkpt lat="44.09272" lon="7.09232">
        <ele>1108</ele>
        <time>2017-05-25T08:06:01.000Z</time>
      </trkpt>
      <trkpt lat="44.09264" lon="7.0922">
        <ele>1110</ele>
        <time>2017-05-25T08:06:07.000Z</time>
      </trkpt>
      <trkpt lat="44.09258" lon="7.0921">
        <ele>1112</ele>
        <time>2017-05-25T08:06:12.000Z</time>
      </trkpt>
      <trkpt lat="44.09253" lon="7.09204">
        <ele>1113</ele>
        <time>2017-05-25T08:06:16.000Z</time>
      </trkpt>
      <trkpt lat="44.09248" lon="7.09201">
        <ele>1102</ele>
        <time>2017-05-25T08:06:19.000Z</time>
      </trkpt>
      <trkpt lat="44.09241" lon="7.09199">
        <ele>1102</ele>
        <time>2017-05-25T08:06:23.000Z</time>
      </trkpt>
      <trkpt lat="44.09238" lon="7.09199">
        <ele>1102</ele>
        <time>2017-05-25T08:06:25.000Z</time>
      </trkpt>
      <trkpt lat="44.09232" lon="7.09197">
        <ele>1101</ele>
        <time>2017-05-25T08:06:29.000Z</time>
      </trkpt>
      <trkpt lat="44.09228" lon="7.09195">
        <ele>1101</ele>
        <time>2017-05-25T08:06:31.000Z</time>
      </trkpt>
      <trkpt lat="44.09221" lon="7.09192">
        <ele>1101</ele>
        <time>2017-05-25T08:06:35.000Z</time>
      </trkpt>
      <trkpt lat="44.0922" lon="7.09191">
        <ele>1101</ele>
        <time>2017-05-25T08:06:36.000Z</time>
      </trkpt>
      <trkpt lat="44.09214" lon="7.09184">
        <ele>1101</ele>
        <time>2017-05-25T08:06:39.000Z</time>
      </trkpt>
      <trkpt lat="44.09208" lon="7.09177">
        <ele>1101</ele>
        <time>2017-05-25T08:06:43.000Z</time>
      </trkpt>
      <trkpt lat="44.09204" lon="7.09173">
        <ele>1101</ele>
        <time>2017-05-25T08:06:45.000Z</time>
      </trkpt>
      <trkpt lat="44.09201" lon="7.09169">
        <ele>1101</ele>
        <time>2017-05-25T08:06:47.000Z</time>
      </trkpt>
      <trkpt lat="44.09193" lon="7.09161">
        <ele>1114</ele>
        <time>2017-05-25T08:06:52.000Z</time>
      </trkpt>
      <trkpt lat="44.09187" lon="7.09156">
        <ele>1113</ele>
        <time>2017-05-25T08:06:55.000Z</time>
      </trkpt>
      <trkpt lat="44.09184" lon="7.09153">
        <ele>1113</ele>
        <time>2017-05-25T08:06:57.000Z</time>
      </trkpt>
      <trkpt lat="44.09174" lon="7.09142">
        <ele>1114</ele>
        <time>2017-05-25T08:07:03.000Z</time>
      </trkpt>
      <trkpt lat="44.09173" lon="7.0914">
        <ele>1114</ele>
        <time>2017-05-25T08:07:04.000Z</time>
      </trkpt>
      <trkpt lat="44.09165" lon="7.09123">
        <ele>1098</ele>
        <time>2017-05-25T08:07:11.000Z</time>
      </trkpt>
      <trkpt lat="44.09162" lon="7.09106">
        <ele>1103</ele>
        <time>2017-05-25T08:07:17.000Z</time>
      </trkpt>
      <trkpt lat="44.09165" lon="7.09103">
        <ele>1105</ele>
        <time>2017-05-25T08:07:18.000Z</time>
      </trkpt>
      <trkpt lat="44.09169" lon="7.09106">
        <ele>1120</ele>
        <time>2017-05-25T08:07:20.000Z</time>
      </trkpt>
      <trkpt lat="44.09173" lon="7.09114">
        <ele>1120</ele>
        <time>2017-05-25T08:07:23.000Z</time>
      </trkpt>
      <trkpt lat="44.09176" lon="7.09118">
        <ele>1119</ele>
        <time>2017-05-25T08:07:25.000Z</time>
      </trkpt>
      <trkpt lat="44.09185" lon="7.09131">
        <ele>1118</ele>
        <time>2017-05-25T08:07:31.000Z</time>
      </trkpt>
      <trkpt lat="44.09186" lon="7.09132">
        <ele>1118</ele>
        <time>2017-05-25T08:07:32.000Z</time>
      </trkpt>
      <trkpt lat="44.09196" lon="7.09138">
        <ele>1118</ele>
        <time>2017-05-25T08:07:37.000Z</time>
      </trkpt>
      <trkpt lat="44.09203" lon="7.0914">
        <ele>1119</ele>
        <time>2017-05-25T08:07:40.000Z</time>
      </trkpt>
      <trkpt lat="44.09209" lon="7.09143">
        <ele>1119</ele>
        <time>2017-05-25T08:07:43.000Z</time>
      </trkpt>
      <trkpt lat="44.09221" lon="7.09147">
        <ele>1120</ele>
        <time>2017-05-25T08:07:49.000Z</time>
      </trkpt>
      <trkpt lat="44.09227" lon="7.09149">
        <ele>1120</ele>
        <time>2017-05-25T08:07:52.000Z</time>
      </trkpt>
      <trkpt lat="44.09231" lon="7.0915">
        <ele>1121</ele>
        <time>2017-05-25T08:07:54.000Z</time>
      </trkpt>
      <trkpt lat="44.09239" lon="7.09152">
        <ele>1121</ele>
        <time>2017-05-25T08:07:58.000Z</time>
      </trkpt>
      <trkpt lat="44.09245" lon="7.09152">
        <ele>1121</ele>
        <time>2017-05-25T08:08:01.000Z</time>
      </trkpt>
      <trkpt lat="44.0925" lon="7.09153">
        <ele>1129</ele>
        <time>2017-05-25T08:08:04.000Z</time>
      </trkpt>
      <trkpt lat="44.09258" lon="7.09153">
        <ele>1130</ele>
        <time>2017-05-25T08:08:08.000Z</time>
      </trkpt>
      <trkpt lat="44.09268" lon="7.09152">
        <ele>1133</ele>
        <time>2017-05-25T08:08:13.000Z</time>
      </trkpt>
      <trkpt lat="44.09272" lon="7.09152">
        <ele>1134</ele>
        <time>2017-05-25T08:08:15.000Z</time>
      </trkpt>
      <trkpt lat="44.09284" lon="7.09154">
        <ele>1136</ele>
        <time>2017-05-25T08:08:21.000Z</time>
      </trkpt>
      <trkpt lat="44.09296" lon="7.09157">
        <ele>1138</ele>
        <time>2017-05-25T08:08:27.000Z</time>
      </trkpt>
      <trkpt lat="44.09304" lon="7.09158">
        <ele>1139</ele>
        <time>2017-05-25T08:08:31.000Z</time>
      </trkpt>
      <trkpt lat="44.09309" lon="7.0916">
        <ele>1139</ele>
        <time>2017-05-25T08:08:33.000Z</time>
      </trkpt>
      <trkpt lat="44.09321" lon="7.09164">
        <ele>1139</ele>
        <time>2017-05-25T08:08:39.000Z</time>
      </trkpt>
      <trkpt lat="44.09329" lon="7.09168">
        <ele>1134</ele>
        <time>2017-05-25T08:08:43.000Z</time>
      </trkpt>
      <trkpt lat="44.09338" lon="7.09175">
        <ele>1139</ele>
        <time>2017-05-25T08:08:48.000Z</time>
      </trkpt>
      <trkpt lat="44.09339" lon="7.09177">
        <ele>1139</ele>
        <time>2017-05-25T08:08:49.000Z</time>
      </trkpt>
      <trkpt lat="44.09345" lon="7.09182">
        <ele>1139</ele>
        <time>2017-05-25T08:08:53.000Z</time>
      </trkpt>
      <trkpt lat="44.0935" lon="7.09182">
        <ele>1140</ele>
        <time>2017-05-25T08:08:56.000Z</time>
      </trkpt>
      <trkpt lat="44.09352" lon="7.09181">
        <ele>1140</ele>
        <time>2017-05-25T08:08:57.000Z</time>
      </trkpt>
      <trkpt lat="44.09353" lon="7.09176">
        <ele>1140</ele>
        <time>2017-05-25T08:08:59.000Z</time>
      </trkpt>
      <trkpt lat="44.09351" lon="7.09171">
        <ele>1140</ele>
        <time>2017-05-25T08:09:01.000Z</time>
      </trkpt>
      <trkpt lat="44.09348" lon="7.09168">
        <ele>1140</ele>
        <time>2017-05-25T08:09:03.000Z</time>
      </trkpt>
      <trkpt lat="44.09345" lon="7.09164">
        <ele>1148</ele>
        <time>2017-05-25T08:09:05.000Z</time>
      </trkpt>
      <trkpt lat="44.09342" lon="7.09161">
        <ele>1147</ele>
        <time>2017-05-25T08:09:07.000Z</time>
      </trkpt>
      <trkpt lat="44.09338" lon="7.09156">
        <ele>1148</ele>
        <time>2017-05-25T08:09:10.000Z</time>
      </trkpt>
      <trkpt lat="44.0933" lon="7.09148">
        <ele>1141</ele>
        <time>2017-05-25T08:09:15.000Z</time>
      </trkpt>
      <trkpt lat="44.09329" lon="7.09146">
        <ele>1141</ele>
        <time>2017-05-25T08:09:16.000Z</time>
      </trkpt>
      <trkpt lat="44.09325" lon="7.09141">
        <ele>1142</ele>
        <time>2017-05-25T08:09:19.000Z</time>
      </trkpt>
      <trkpt lat="44.09316" lon="7.09132">
        <ele>1143</ele>
        <time>2017-05-25T08:09:25.000Z</time>
      </trkpt>
      <trkpt lat="44.09309" lon="7.09124">
        <ele>1144</ele>
        <time>2017-05-25T08:09:30.000Z</time>
      </trkpt>
      <trkpt lat="44.09301" lon="7.09115">
        <ele>1145</ele>
        <time>2017-05-25T08:09:35.000Z</time>
      </trkpt>
      <trkpt lat="44.09299" lon="7.09111">
        <ele>1145</ele>
        <time>2017-05-25T08:09:37.000Z</time>
      </trkpt>
      <trkpt lat="44.09294" lon="7.09106">
        <ele>1145</ele>
        <time>2017-05-25T08:09:40.000Z</time>
      </trkpt>
      <trkpt lat="44.09283" lon="7.091">
        <ele>1145</ele>
        <time>2017-05-25T08:09:46.000Z</time>
      </trkpt>
      <trkpt lat="44.09273" lon="7.09093">
        <ele>1144</ele>
        <time>2017-05-25T08:09:52.000Z</time>
      </trkpt>
      <trkpt lat="44.09264" lon="7.09086">
        <ele>1144</ele>
        <time>2017-05-25T08:09:57.000Z</time>
      </trkpt>
      <trkpt lat="44.09254" lon="7.09075">
        <ele>1151</ele>
        <time>2017-05-25T08:10:03.000Z</time>
      </trkpt>
      <trkpt lat="44.09249" lon="7.0907">
        <ele>1144</ele>
        <time>2017-05-25T08:10:06.000Z</time>
      </trkpt>
      <trkpt lat="44.09246" lon="7.09066">
        <ele>1144</ele>
        <time>2017-05-25T08:10:08.000Z</time>
      </trkpt>
      <trkpt lat="44.09239" lon="7.09056">
        <ele>1144</ele>
        <time>2017-05-25T08:10:13.000Z</time>
      </trkpt>
      <trkpt lat="44.09237" lon="7.09054">
        <ele>1144</ele>
        <time>2017-05-25T08:10:14.000Z</time>
      </trkpt>
      <trkpt lat="44.09232" lon="7.09043">
        <ele>1144</ele>
        <time>2017-05-25T08:10:19.000Z</time>
      </trkpt>
      <trkpt lat="44.09233" lon="7.09041">
        <ele>1145</ele>
        <time>2017-05-25T08:10:20.000Z</time>
      </trkpt>
      <trkpt lat="44.09235" lon="7.09039">
        <ele>1145</ele>
        <time>2017-05-25T08:10:21.000Z</time>
      </trkpt>
      <trkpt lat="44.09241" lon="7.09043">
        <ele>1145</ele>
        <time>2017-05-25T08:10:25.000Z</time>
      </trkpt>
      <trkpt lat="44.09244" lon="7.09046">
        <ele>1145</ele>
        <time>2017-05-25T08:10:27.000Z</time>
      </trkpt>
      <trkpt lat="44.09254" lon="7.09056">
        <ele>1159</ele>
        <time>2017-05-25T08:10:33.000Z</time>
      </trkpt>
      <trkpt lat="44.09267" lon="7.09065">
        <ele>1158</ele>
        <time>2017-05-25T08:10:40.000Z</time>
      </trkpt>
      <trkpt lat="44.09274" lon="7.09066">
        <ele>1159</ele>
        <time>2017-05-25T08:10:43.000Z</time>
      </trkpt>
      <trkpt lat="44.0928" lon="7.09067">
        <ele>1161</ele>
        <time>2017-05-25T08:10:46.000Z</time>
      </trkpt>
      <trkpt lat="44.09288" lon="7.09066">
        <ele>1162</ele>
        <time>2017-05-25T08:10:50.000Z</time>
      </trkpt>
      <trkpt lat="44.09292" lon="7.09066">
        <ele>1163</ele>
        <time>2017-05-25T08:10:52.000Z</time>
      </trkpt>
      <trkpt lat="44.09301" lon="7.09065">
        <ele>1164</ele>
        <time>2017-05-25T08:10:56.000Z</time>
      </trkpt>
      <trkpt lat="44.09308" lon="7.09067">
        <ele>1165</ele>
        <time>2017-05-25T08:10:59.000Z</time>
      </trkpt>
      <trkpt lat="44.09316" lon="7.09072">
        <ele>1165</ele>
        <time>2017-05-25T08:11:03.000Z</time>
      </trkpt>
      <trkpt lat="44.09327" lon="7.09078">
        <ele>1166</ele>
        <time>2017-05-25T08:11:08.000Z</time>
      </trkpt>
      <trkpt lat="44.09333" lon="7.09083">
        <ele>1166</ele>
        <time>2017-05-25T08:11:11.000Z</time>
      </trkpt>
      <trkpt lat="44.09346" lon="7.09092">
        <ele>1165</ele>
        <time>2017-05-25T08:11:17.000Z</time>
      </trkpt>
      <trkpt lat="44.09348" lon="7.09093">
        <ele>1165</ele>
        <time>2017-05-25T08:11:18.000Z</time>
      </trkpt>
      <trkpt lat="44.0936" lon="7.09103">
        <ele>1166</ele>
        <time>2017-05-25T08:11:24.000Z</time>
      </trkpt>
      <trkpt lat="44.09367" lon="7.09109">
        <ele>1166</ele>
        <time>2017-05-25T08:11:28.000Z</time>
      </trkpt>
      <trkpt lat="44.09369" lon="7.09111">
        <ele>1166</ele>
        <time>2017-05-25T08:11:29.000Z</time>
      </trkpt>
      <trkpt lat="44.09376" lon="7.09111">
        <ele>1167</ele>
        <time>2017-05-25T08:11:33.000Z</time>
      </trkpt>
      <trkpt lat="44.09377" lon="7.09109">
        <ele>1167</ele>
        <time>2017-05-25T08:11:34.000Z</time>
      </trkpt>
      <trkpt lat="44.09376" lon="7.09101">
        <ele>1168</ele>
        <time>2017-05-25T08:11:37.000Z</time>
      </trkpt>
      <trkpt lat="44.09371" lon="7.09094">
        <ele>1168</ele>
        <time>2017-05-25T08:11:40.000Z</time>
      </trkpt>
      <trkpt lat="44.09369" lon="7.09092">
        <ele>1168</ele>
        <time>2017-05-25T08:11:41.000Z</time>
      </trkpt>
      <trkpt lat="44.09364" lon="7.09085">
        <ele>1167</ele>
        <time>2017-05-25T08:11:44.000Z</time>
      </trkpt>
      <trkpt lat="44.09357" lon="7.09075">
        <ele>1180</ele>
        <time>2017-05-25T08:11:48.000Z</time>
      </trkpt>
      <trkpt lat="44.09347" lon="7.09062">
        <ele>1180</ele>
        <time>2017-05-25T08:11:54.000Z</time>
      </trkpt>
      <trkpt lat="44.09345" lon="7.0906">
        <ele>1180</ele>
        <time>2017-05-25T08:11:55.000Z</time>
      </trkpt>
      <trkpt lat="44.09335" lon="7.09047">
        <ele>1182</ele>
        <time>2017-05-25T08:12:01.000Z</time>
      </trkpt>
      <trkpt lat="44.09326" lon="7.09035">
        <ele>1170</ele>
        <time>2017-05-25T08:12:06.000Z</time>
      </trkpt>
      <trkpt lat="44.09325" lon="7.09033">
        <ele>1170</ele>
        <time>2017-05-25T08:12:07.000Z</time>
      </trkpt>
      <trkpt lat="44.09315" lon="7.09019">
        <ele>1172</ele>
        <time>2017-05-25T08:12:13.000Z</time>
      </trkpt>
      <trkpt lat="44.09309" lon="7.09013">
        <ele>1172</ele>
        <time>2017-05-25T08:12:16.000Z</time>
      </trkpt>
      <trkpt lat="44.09304" lon="7.09006">
        <ele>1172</ele>
        <time>2017-05-25T08:12:19.000Z</time>
      </trkpt>
      <trkpt lat="44.09295" lon="7.08996">
        <ele>1183</ele>
        <time>2017-05-25T08:12:24.000Z</time>
      </trkpt>
      <trkpt lat="44.0929" lon="7.08987">
        <ele>1182</ele>
        <time>2017-05-25T08:12:28.000Z</time>
      </trkpt>
      <trkpt lat="44.09285" lon="7.08982">
        <ele>1182</ele>
        <time>2017-05-25T08:12:31.000Z</time>
      </trkpt>
      <trkpt lat="44.09284" lon="7.0898">
        <ele>1182</ele>
        <time>2017-05-25T08:12:32.000Z</time>
      </trkpt>
      <trkpt lat="44.09278" lon="7.08968">
        <ele>1183</ele>
        <time>2017-05-25T08:12:37.000Z</time>
      </trkpt>
      <trkpt lat="44.09274" lon="7.0896">
        <ele>1183</ele>
        <time>2017-05-25T08:12:40.000Z</time>
      </trkpt>
      <trkpt lat="44.09271" lon="7.08956">
        <ele>1184</ele>
        <time>2017-05-25T08:12:42.000Z</time>
      </trkpt>
      <trkpt lat="44.09268" lon="7.08944">
        <ele>1185</ele>
        <time>2017-05-25T08:12:47.000Z</time>
      </trkpt>
      <trkpt lat="44.09269" lon="7.08941">
        <ele>1185</ele>
        <time>2017-05-25T08:12:48.000Z</time>
      </trkpt>
      <trkpt lat="44.09275" lon="7.0894">
        <ele>1186</ele>
        <time>2017-05-25T08:12:51.000Z</time>
      </trkpt>
      <trkpt lat="44.09277" lon="7.0894">
        <ele>1186</ele>
        <time>2017-05-25T08:12:52.000Z</time>
      </trkpt>
      <trkpt lat="44.09283" lon="7.08945">
        <ele>1186</ele>
        <time>2017-05-25T08:12:55.000Z</time>
      </trkpt>
      <trkpt lat="44.09286" lon="7.08948">
        <ele>1186</ele>
        <time>2017-05-25T08:12:57.000Z</time>
      </trkpt>
      <trkpt lat="44.09287" lon="7.08949">
        <ele>1186</ele>
        <time>2017-05-25T08:12:58.000Z</time>
      </trkpt>
      <trkpt lat="44.09299" lon="7.08959">
        <ele>1186</ele>
        <time>2017-05-25T08:13:03.000Z</time>
      </trkpt>
      <trkpt lat="44.09308" lon="7.08965">
        <ele>1187</ele>
        <time>2017-05-25T08:13:07.000Z</time>
      </trkpt>
      <trkpt lat="44.09312" lon="7.08967">
        <ele>1187</ele>
        <time>2017-05-25T08:13:09.000Z</time>
      </trkpt>
      <trkpt lat="44.09329" lon="7.08974">
        <ele>1187</ele>
        <time>2017-05-25T08:13:16.000Z</time>
      </trkpt>
      <trkpt lat="44.09347" lon="7.08982">
        <ele>1201</ele>
        <time>2017-05-25T08:13:24.000Z</time>
      </trkpt>
      <trkpt lat="44.09349" lon="7.08982">
        <ele>1201</ele>
        <time>2017-05-25T08:13:25.000Z</time>
      </trkpt>
      <trkpt lat="44.09361" lon="7.0899">
        <ele>1203</ele>
        <time>2017-05-25T08:13:30.000Z</time>
      </trkpt>
      <trkpt lat="44.09364" lon="7.08993">
        <ele>1204</ele>
        <time>2017-05-25T08:13:32.000Z</time>
      </trkpt>
      <trkpt lat="44.09372" lon="7.09002">
        <ele>1192</ele>
        <time>2017-05-25T08:13:36.000Z</time>
      </trkpt>
      <trkpt lat="44.09382" lon="7.09015">
        <ele>1193</ele>
        <time>2017-05-25T08:13:42.000Z</time>
      </trkpt>
      <trkpt lat="44.09386" lon="7.09019">
        <ele>1193</ele>
        <time>2017-05-25T08:13:44.000Z</time>
      </trkpt>
      <trkpt lat="44.09395" lon="7.0903">
        <ele>1193</ele>
        <time>2017-05-25T08:13:49.000Z</time>
      </trkpt>
      <trkpt lat="44.09396" lon="7.09032">
        <ele>1193</ele>
        <time>2017-05-25T08:13:50.000Z</time>
      </trkpt>
      <trkpt lat="44.09406" lon="7.09042">
        <ele>1192</ele>
        <time>2017-05-25T08:13:55.000Z</time>
      </trkpt>
      <trkpt lat="44.09414" lon="7.09049">
        <ele>1191</ele>
        <time>2017-05-25T08:13:59.000Z</time>
      </trkpt>
      <trkpt lat="44.09416" lon="7.09051">
        <ele>1191</ele>
        <time>2017-05-25T08:14:00.000Z</time>
      </trkpt>
      <trkpt lat="44.09426" lon="7.09059">
        <ele>1210</ele>
        <time>2017-05-25T08:14:05.000Z</time>
      </trkpt>
      <trkpt lat="44.09433" lon="7.09067">
        <ele>1209</ele>
        <time>2017-05-25T08:14:09.000Z</time>
      </trkpt>
      <trkpt lat="44.09435" lon="7.09069">
        <ele>1210</ele>
        <time>2017-05-25T08:14:10.000Z</time>
      </trkpt>
      <trkpt lat="44.09445" lon="7.09078">
        <ele>1212</ele>
        <time>2017-05-25T08:14:15.000Z</time>
      </trkpt>
      <trkpt lat="44.09451" lon="7.09084">
        <ele>1199</ele>
        <time>2017-05-25T08:14:18.000Z</time>
      </trkpt>
      <trkpt lat="44.09457" lon="7.0909">
        <ele>1201</ele>
        <time>2017-05-25T08:14:21.000Z</time>
      </trkpt>
      <trkpt lat="44.09467" lon="7.09105">
        <ele>1202</ele>
        <time>2017-05-25T08:14:27.000Z</time>
      </trkpt>
      <trkpt lat="44.0947" lon="7.09111">
        <ele>1202</ele>
        <time>2017-05-25T08:14:29.000Z</time>
      </trkpt>
      <trkpt lat="44.0948" lon="7.09131">
        <ele>1200</ele>
        <time>2017-05-25T08:14:36.000Z</time>
      </trkpt>
      <trkpt lat="44.09481" lon="7.09134">
        <ele>1200</ele>
        <time>2017-05-25T08:14:37.000Z</time>
      </trkpt>
      <trkpt lat="44.0949" lon="7.09143">
        <ele>1200</ele>
        <time>2017-05-25T08:14:42.000Z</time>
      </trkpt>
      <trkpt lat="44.09494" lon="7.09146">
        <ele>1200</ele>
        <time>2017-05-25T08:14:44.000Z</time>
      </trkpt>
      <trkpt lat="44.09502" lon="7.09151">
        <ele>1214</ele>
        <time>2017-05-25T08:14:48.000Z</time>
      </trkpt>
      <trkpt lat="44.09511" lon="7.09158">
        <ele>1213</ele>
        <time>2017-05-25T08:14:53.000Z</time>
      </trkpt>
      <trkpt lat="44.09512" lon="7.0916">
        <ele>1213</ele>
        <time>2017-05-25T08:14:54.000Z</time>
      </trkpt>
      <trkpt lat="44.09516" lon="7.09166">
        <ele>1214</ele>
        <time>2017-05-25T08:14:57.000Z</time>
      </trkpt>
      <trkpt lat="44.0952" lon="7.09174">
        <ele>1203</ele>
        <time>2017-05-25T08:15:01.000Z</time>
      </trkpt>
      <trkpt lat="44.0952" lon="7.09176">
        <ele>1203</ele>
        <time>2017-05-25T08:15:02.000Z</time>
      </trkpt>
      <trkpt lat="44.09526" lon="7.09183">
        <ele>1204</ele>
        <time>2017-05-25T08:15:06.000Z</time>
      </trkpt>
      <trkpt lat="44.09529" lon="7.09184">
        <ele>1204</ele>
        <time>2017-05-25T08:15:08.000Z</time>
      </trkpt>
      <trkpt lat="44.09535" lon="7.09184">
        <ele>1205</ele>
        <time>2017-05-25T08:15:11.000Z</time>
      </trkpt>
      <trkpt lat="44.09543" lon="7.09185">
        <ele>1206</ele>
        <time>2017-05-25T08:15:16.000Z</time>
      </trkpt>
      <trkpt lat="44.09549" lon="7.09194">
        <ele>1206</ele>
        <time>2017-05-25T08:15:21.000Z</time>
      </trkpt>
      <trkpt lat="44.0955" lon="7.09197">
        <ele>1206</ele>
        <time>2017-05-25T08:15:22.000Z</time>
      </trkpt>
      <trkpt lat="44.0955" lon="7.09203">
        <ele>1205</ele>
        <time>2017-05-25T08:15:25.000Z</time>
      </trkpt>
      <trkpt lat="44.0955" lon="7.09205">
        <ele>1205</ele>
        <time>2017-05-25T08:15:26.000Z</time>
      </trkpt>
      <trkpt lat="44.09554" lon="7.09209">
        <ele>1204</ele>
        <time>2017-05-25T08:15:29.000Z</time>
      </trkpt>
      <trkpt lat="44.09557" lon="7.09211">
        <ele>1204</ele>
        <time>2017-05-25T08:15:31.000Z</time>
      </trkpt>
      <trkpt lat="44.09561" lon="7.09212">
        <ele>1205</ele>
        <time>2017-05-25T08:15:34.000Z</time>
      </trkpt>
      <trkpt lat="44.09567" lon="7.09211">
        <ele>1205</ele>
        <time>2017-05-25T08:15:38.000Z</time>
      </trkpt>
      <trkpt lat="44.09569" lon="7.09211">
        <ele>1205</ele>
        <time>2017-05-25T08:15:39.000Z</time>
      </trkpt>
      <trkpt lat="44.0958" lon="7.09209">
        <ele>1207</ele>
        <time>2017-05-25T08:15:46.000Z</time>
      </trkpt>
      <trkpt lat="44.09583" lon="7.09209">
        <ele>1207</ele>
        <time>2017-05-25T08:15:48.000Z</time>
      </trkpt>
      <trkpt lat="44.09587" lon="7.09208">
        <ele>1212</ele>
        <time>2017-05-25T08:15:51.000Z</time>
      </trkpt>
      <trkpt lat="44.09597" lon="7.09206">
        <ele>1212</ele>
        <time>2017-05-25T08:15:57.000Z</time>
      </trkpt>
      <trkpt lat="44.09606" lon="7.09203">
        <ele>1213</ele>
        <time>2017-05-25T08:16:03.000Z</time>
      </trkpt>
      <trkpt lat="44.09607" lon="7.09202">
        <ele>1213</ele>
        <time>2017-05-25T08:16:04.000Z</time>
      </trkpt>
      <trkpt lat="44.09613" lon="7.092">
        <ele>1213</ele>
        <time>2017-05-25T08:16:08.000Z</time>
      </trkpt>
      <trkpt lat="44.0962" lon="7.09197">
        <ele>1213</ele>
        <time>2017-05-25T08:16:12.000Z</time>
      </trkpt>
      <trkpt lat="44.09621" lon="7.09197">
        <ele>1213</ele>
        <time>2017-05-25T08:16:13.000Z</time>
      </trkpt>
      <trkpt lat="44.0963" lon="7.09193">
        <ele>1214</ele>
        <time>2017-05-25T08:16:19.000Z</time>
      </trkpt>
      <trkpt lat="44.09633" lon="7.09192">
        <ele>1214</ele>
        <time>2017-05-25T08:16:21.000Z</time>
      </trkpt>
      <trkpt lat="44.09638" lon="7.09189">
        <ele>1214</ele>
        <time>2017-05-25T08:16:24.000Z</time>
      </trkpt>
      <trkpt lat="44.09646" lon="7.09184">
        <ele>1216</ele>
        <time>2017-05-25T08:16:29.000Z</time>
      </trkpt>
      <trkpt lat="44.09654" lon="7.09179">
        <ele>1218</ele>
        <time>2017-05-25T08:16:35.000Z</time>
      </trkpt>
      <trkpt lat="44.09656" lon="7.09178">
        <ele>1219</ele>
        <time>2017-05-25T08:16:36.000Z</time>
      </trkpt>
      <trkpt lat="44.09663" lon="7.09173">
        <ele>1222</ele>
        <time>2017-05-25T08:16:41.000Z</time>
      </trkpt>
      <trkpt lat="44.0967" lon="7.09168">
        <ele>1223</ele>
        <time>2017-05-25T08:16:45.000Z</time>
      </trkpt>
      <trkpt lat="44.09673" lon="7.09166">
        <ele>1228</ele>
        <time>2017-05-25T08:16:47.000Z</time>
      </trkpt>
      <trkpt lat="44.09683" lon="7.09158">
        <ele>1231</ele>
        <time>2017-05-25T08:16:53.000Z</time>
      </trkpt>
      <trkpt lat="44.09686" lon="7.09155">
        <ele>1231</ele>
        <time>2017-05-25T08:16:55.000Z</time>
      </trkpt>
      <trkpt lat="44.09693" lon="7.09149">
        <ele>1232</ele>
        <time>2017-05-25T08:16:59.000Z</time>
      </trkpt>
      <trkpt lat="44.09703" lon="7.09141">
        <ele>1233</ele>
        <time>2017-05-25T08:17:05.000Z</time>
      </trkpt>
      <trkpt lat="44.09705" lon="7.0914">
        <ele>1233</ele>
        <time>2017-05-25T08:17:06.000Z</time>
      </trkpt>
      <trkpt lat="44.09713" lon="7.09135">
        <ele>1234</ele>
        <time>2017-05-25T08:17:11.000Z</time>
      </trkpt>
      <trkpt lat="44.0972" lon="7.09131">
        <ele>1234</ele>
        <time>2017-05-25T08:17:15.000Z</time>
      </trkpt>
      <trkpt lat="44.09723" lon="7.09129">
        <ele>1234</ele>
        <time>2017-05-25T08:17:17.000Z</time>
      </trkpt>
      <trkpt lat="44.09733" lon="7.09123">
        <ele>1235</ele>
        <time>2017-05-25T08:17:23.000Z</time>
      </trkpt>
      <trkpt lat="44.09734" lon="7.09122">
        <ele>1235</ele>
        <time>2017-05-25T08:17:24.000Z</time>
      </trkpt>
      <trkpt lat="44.09738" lon="7.09111">
        <ele>1238</ele>
        <time>2017-05-25T08:17:29.000Z</time>
      </trkpt>
      <trkpt lat="44.09736" lon="7.09109">
        <ele>1238</ele>
        <time>2017-05-25T08:17:30.000Z</time>
      </trkpt>
      <trkpt lat="44.0973" lon="7.09108">
        <ele>1238</ele>
        <time>2017-05-25T08:17:33.000Z</time>
      </trkpt>
      <trkpt lat="44.09724" lon="7.09112">
        <ele>1238</ele>
        <time>2017-05-25T08:17:36.000Z</time>
      </trkpt>
      <trkpt lat="44.0972" lon="7.09114">
        <ele>1237</ele>
        <time>2017-05-25T08:17:38.000Z</time>
      </trkpt>
      <trkpt lat="44.09716" lon="7.09116">
        <ele>1237</ele>
        <time>2017-05-25T08:17:40.000Z</time>
      </trkpt>
      <trkpt lat="44.09708" lon="7.09118">
        <ele>1238</ele>
        <time>2017-05-25T08:17:44.000Z</time>
      </trkpt>
      <trkpt lat="44.097" lon="7.09119">
        <ele>1238</ele>
        <time>2017-05-25T08:17:48.000Z</time>
      </trkpt>
      <trkpt lat="44.09695" lon="7.0912">
        <ele>1238</ele>
        <time>2017-05-25T08:17:50.000Z</time>
      </trkpt>
      <trkpt lat="44.0968" lon="7.09124">
        <ele>1238</ele>
        <time>2017-05-25T08:17:57.000Z</time>
      </trkpt>
      <trkpt lat="44.09677" lon="7.09125">
        <ele>1238</ele>
        <time>2017-05-25T08:17:58.000Z</time>
      </trkpt>
      <trkpt lat="44.09659" lon="7.09133">
        <ele>1241</ele>
        <time>2017-05-25T08:18:05.000Z</time>
      </trkpt>
      <trkpt lat="44.09657" lon="7.09133">
        <ele>1241</ele>
        <time>2017-05-25T08:18:06.000Z</time>
      </trkpt>
      <trkpt lat="44.09643" lon="7.09139">
        <ele>1240</ele>
        <time>2017-05-25T08:18:11.000Z</time>
      </trkpt>
      <trkpt lat="44.09628" lon="7.09144">
        <ele>1240</ele>
        <time>2017-05-25T08:18:16.000Z</time>
      </trkpt>
      <trkpt lat="44.09612" lon="7.09149">
        <ele>1239</ele>
        <time>2017-05-25T08:18:22.000Z</time>
      </trkpt>
      <trkpt lat="44.0961" lon="7.09147">
        <ele>1239</ele>
        <time>2017-05-25T08:18:23.000Z</time>
      </trkpt>
      <trkpt lat="44.0961" lon="7.09138">
        <ele>1240</ele>
        <time>2017-05-25T08:18:26.000Z</time>
      </trkpt>
      <trkpt lat="44.09615" lon="7.09137">
        <ele>1241</ele>
        <time>2017-05-25T08:18:28.000Z</time>
      </trkpt>
      <trkpt lat="44.09621" lon="7.09136">
        <ele>1241</ele>
        <time>2017-05-25T08:18:31.000Z</time>
      </trkpt>
      <trkpt lat="44.09623" lon="7.09136">
        <ele>1241</ele>
        <time>2017-05-25T08:18:32.000Z</time>
      </trkpt>
      <trkpt lat="44.09626" lon="7.09136">
        <ele>1241</ele>
        <time>2017-05-25T08:18:33.000Z</time>
      </trkpt>
      <trkpt lat="44.09641" lon="7.0913">
        <ele>1242</ele>
        <time>2017-05-25T08:18:40.000Z</time>
      </trkpt>
      <trkpt lat="44.09643" lon="7.09128">
        <ele>1242</ele>
        <time>2017-05-25T08:18:41.000Z</time>
      </trkpt>
      <trkpt lat="44.09659" lon="7.09118">
        <ele>1245</ele>
        <time>2017-05-25T08:18:49.000Z</time>
      </trkpt>
      <trkpt lat="44.09663" lon="7.09115">
        <ele>1246</ele>
        <time>2017-05-25T08:18:51.000Z</time>
      </trkpt>
      <trkpt lat="44.09677" lon="7.09099">
        <ele>1247</ele>
        <time>2017-05-25T08:18:59.000Z</time>
      </trkpt>
      <trkpt lat="44.09685" lon="7.09088">
        <ele>1248</ele>
        <time>2017-05-25T08:19:04.000Z</time>
      </trkpt>
      <trkpt lat="44.09691" lon="7.09082">
        <ele>1263</ele>
        <time>2017-05-25T08:19:07.000Z</time>
      </trkpt>
      <trkpt lat="44.09697" lon="7.09079">
        <ele>1263</ele>
        <time>2017-05-25T08:19:10.000Z</time>
      </trkpt>
      <trkpt lat="44.09705" lon="7.09075">
        <ele>1263</ele>
        <time>2017-05-25T08:19:14.000Z</time>
      </trkpt>
      <trkpt lat="44.09707" lon="7.09074">
        <ele>1263</ele>
        <time>2017-05-25T08:19:15.000Z</time>
      </trkpt>
      <trkpt lat="44.09715" lon="7.0907">
        <ele>1262</ele>
        <time>2017-05-25T08:19:19.000Z</time>
      </trkpt>
      <trkpt lat="44.0972" lon="7.09068">
        <ele>1262</ele>
        <time>2017-05-25T08:19:22.000Z</time>
      </trkpt>
      <trkpt lat="44.09727" lon="7.09062">
        <ele>1262</ele>
        <time>2017-05-25T08:19:25.000Z</time>
      </trkpt>
      <trkpt lat="44.09735" lon="7.09054">
        <ele>1262</ele>
        <time>2017-05-25T08:19:30.000Z</time>
      </trkpt>
      <trkpt lat="44.09739" lon="7.09052">
        <ele>1263</ele>
        <time>2017-05-25T08:19:32.000Z</time>
      </trkpt>
      <trkpt lat="44.09746" lon="7.09046">
        <ele>1264</ele>
        <time>2017-05-25T08:19:36.000Z</time>
      </trkpt>
      <trkpt lat="44.09755" lon="7.09036">
        <ele>1256</ele>
        <time>2017-05-25T08:19:41.000Z</time>
      </trkpt>
      <trkpt lat="44.09761" lon="7.09031">
        <ele>1257</ele>
        <time>2017-05-25T08:19:44.000Z</time>
      </trkpt>
      <trkpt lat="44.0977" lon="7.09023">
        <ele>1258</ele>
        <time>2017-05-25T08:19:49.000Z</time>
      </trkpt>
      <trkpt lat="44.09766" lon="7.09015">
        <ele>1261</ele>
        <time>2017-05-25T08:19:53.000Z</time>
      </trkpt>
      <trkpt lat="44.09759" lon="7.09021">
        <ele>1261</ele>
        <time>2017-05-25T08:19:57.000Z</time>
      </trkpt>
      <trkpt lat="44.09755" lon="7.09025">
        <ele>1260</ele>
        <time>2017-05-25T08:19:59.000Z</time>
      </trkpt>
      <trkpt lat="44.09747" lon="7.0903">
        <ele>1268</ele>
        <time>2017-05-25T08:20:03.000Z</time>
      </trkpt>
      <trkpt lat="44.09745" lon="7.09031">
        <ele>1268</ele>
        <time>2017-05-25T08:20:04.000Z</time>
      </trkpt>
      <trkpt lat="44.09735" lon="7.09034">
        <ele>1268</ele>
        <time>2017-05-25T08:20:09.000Z</time>
      </trkpt>
      <trkpt lat="44.0973" lon="7.09035">
        <ele>1268</ele>
        <time>2017-05-25T08:20:12.000Z</time>
      </trkpt>
      <trkpt lat="44.09724" lon="7.09035">
        <ele>1268</ele>
        <time>2017-05-25T08:20:15.000Z</time>
      </trkpt>
      <trkpt lat="44.09712" lon="7.09038">
        <ele>1268</ele>
        <time>2017-05-25T08:20:21.000Z</time>
      </trkpt>
      <trkpt lat="44.0971" lon="7.09039">
        <ele>1268</ele>
        <time>2017-05-25T08:20:22.000Z</time>
      </trkpt>
      <trkpt lat="44.09702" lon="7.09041">
        <ele>1268</ele>
        <time>2017-05-25T08:20:26.000Z</time>
      </trkpt>
      <trkpt lat="44.09692" lon="7.09044">
        <ele>1268</ele>
        <time>2017-05-25T08:20:31.000Z</time>
      </trkpt>
      <trkpt lat="44.09688" lon="7.09045">
        <ele>1268</ele>
        <time>2017-05-25T08:20:33.000Z</time>
      </trkpt>
      <trkpt lat="44.0968" lon="7.09047">
        <ele>1268</ele>
        <time>2017-05-25T08:20:37.000Z</time>
      </trkpt>
      <trkpt lat="44.09669" lon="7.09053">
        <ele>1267</ele>
        <time>2017-05-25T08:20:43.000Z</time>
      </trkpt>
      <trkpt lat="44.09667" lon="7.09054">
        <ele>1267</ele>
        <time>2017-05-25T08:20:44.000Z</time>
      </trkpt>
      <trkpt lat="44.09658" lon="7.09051">
        <ele>1270</ele>
        <time>2017-05-25T08:20:49.000Z</time>
      </trkpt>
      <trkpt lat="44.09657" lon="7.09051">
        <ele>1270</ele>
        <time>2017-05-25T08:20:50.000Z</time>
      </trkpt>
      <trkpt lat="44.09653" lon="7.09043">
        <ele>1272</ele>
        <time>2017-05-25T08:20:53.000Z</time>
      </trkpt>
      <trkpt lat="44.09651" lon="7.09037">
        <ele>1273</ele>
        <time>2017-05-25T08:20:56.000Z</time>
      </trkpt>
      <trkpt lat="44.09649" lon="7.09035">
        <ele>1274</ele>
        <time>2017-05-25T08:20:57.000Z</time>
      </trkpt>
      <trkpt lat="44.09641" lon="7.09031">
        <ele>1274</ele>
        <time>2017-05-25T08:21:02.000Z</time>
      </trkpt>
      <trkpt lat="44.09629" lon="7.09032">
        <ele>1273</ele>
        <time>2017-05-25T08:21:08.000Z</time>
      </trkpt>
      <trkpt lat="44.09627" lon="7.09031">
        <ele>1273</ele>
        <time>2017-05-25T08:21:09.000Z</time>
      </trkpt>
      <trkpt lat="44.09619" lon="7.09026">
        <ele>1274</ele>
        <time>2017-05-25T08:21:13.000Z</time>
      </trkpt>
      <trkpt lat="44.09617" lon="7.09026">
        <ele>1274</ele>
        <time>2017-05-25T08:21:14.000Z</time>
      </trkpt>
      <trkpt lat="44.09609" lon="7.09022">
        <ele>1275</ele>
        <time>2017-05-25T08:21:19.000Z</time>
      </trkpt>
      <trkpt lat="44.096" lon="7.09017">
        <ele>1276</ele>
        <time>2017-05-25T08:21:24.000Z</time>
      </trkpt>
      <trkpt lat="44.09598" lon="7.09016">
        <ele>1276</ele>
        <time>2017-05-25T08:21:25.000Z</time>
      </trkpt>
      <trkpt lat="44.09589" lon="7.09007">
        <ele>1280</ele>
        <time>2017-05-25T08:21:31.000Z</time>
      </trkpt>
      <trkpt lat="44.09586" lon="7.09004">
        <ele>1281</ele>
        <time>2017-05-25T08:21:33.000Z</time>
      </trkpt>
      <trkpt lat="44.0958" lon="7.08998">
        <ele>1283</ele>
        <time>2017-05-25T08:21:37.000Z</time>
      </trkpt>
      <trkpt lat="44.09574" lon="7.08992">
        <ele>1283</ele>
        <time>2017-05-25T08:21:41.000Z</time>
      </trkpt>
      <trkpt lat="44.09573" lon="7.08991">
        <ele>1283</ele>
        <time>2017-05-25T08:21:42.000Z</time>
      </trkpt>
      <trkpt lat="44.09566" lon="7.08983">
        <ele>1283</ele>
        <time>2017-05-25T08:21:47.000Z</time>
      </trkpt>
      <trkpt lat="44.09562" lon="7.08981">
        <ele>1283</ele>
        <time>2017-05-25T08:21:49.000Z</time>
      </trkpt>
      <trkpt lat="44.09556" lon="7.08976">
        <ele>1283</ele>
        <time>2017-05-25T08:21:53.000Z</time>
      </trkpt>
      <trkpt lat="44.09549" lon="7.08973">
        <ele>1282</ele>
        <time>2017-05-25T08:21:57.000Z</time>
      </trkpt>
      <trkpt lat="44.09543" lon="7.08968">
        <ele>1282</ele>
        <time>2017-05-25T08:22:01.000Z</time>
      </trkpt>
      <trkpt lat="44.09543" lon="7.08966">
        <ele>1282</ele>
        <time>2017-05-25T08:22:02.000Z</time>
      </trkpt>
      <trkpt lat="44.09545" lon="7.08962">
        <ele>1283</ele>
        <time>2017-05-25T08:22:04.000Z</time>
      </trkpt>
      <trkpt lat="44.09551" lon="7.08963">
        <ele>1284</ele>
        <time>2017-05-25T08:22:08.000Z</time>
      </trkpt>
      <trkpt lat="44.09557" lon="7.08966">
        <ele>1284</ele>
        <time>2017-05-25T08:22:11.000Z</time>
      </trkpt>
      <trkpt lat="44.09566" lon="7.0897">
        <ele>1285</ele>
        <time>2017-05-25T08:22:16.000Z</time>
      </trkpt>
      <trkpt lat="44.09576" lon="7.08971">
        <ele>1285</ele>
        <time>2017-05-25T08:22:21.000Z</time>
      </trkpt>
      <trkpt lat="44.0958" lon="7.0897">
        <ele>1286</ele>
        <time>2017-05-25T08:22:24.000Z</time>
      </trkpt>
      <trkpt lat="44.09585" lon="7.08969">
        <ele>1295</ele>
        <time>2017-05-25T08:22:27.000Z</time>
      </trkpt>
      <trkpt lat="44.09592" lon="7.08968">
        <ele>1295</ele>
        <time>2017-05-25T08:22:31.000Z</time>
      </trkpt>
      <trkpt lat="44.09597" lon="7.08968">
        <ele>1296</ele>
        <time>2017-05-25T08:22:34.000Z</time>
      </trkpt>
      <trkpt lat="44.09605" lon="7.08967">
        <ele>1296</ele>
        <time>2017-05-25T08:22:39.000Z</time>
      </trkpt>
      <trkpt lat="44.09607" lon="7.08967">
        <ele>1296</ele>
        <time>2017-05-25T08:22:40.000Z</time>
      </trkpt>
      <trkpt lat="44.09616" lon="7.08964">
        <ele>1297</ele>
        <time>2017-05-25T08:22:45.000Z</time>
      </trkpt>
      <trkpt lat="44.09624" lon="7.08961">
        <ele>1298</ele>
        <time>2017-05-25T08:22:50.000Z</time>
      </trkpt>
      <trkpt lat="44.09627" lon="7.08959">
        <ele>1298</ele>
        <time>2017-05-25T08:22:52.000Z</time>
      </trkpt>
      <trkpt lat="44.09631" lon="7.08957">
        <ele>1299</ele>
        <time>2017-05-25T08:22:55.000Z</time>
      </trkpt>
      <trkpt lat="44.09636" lon="7.08955">
        <ele>1299</ele>
        <time>2017-05-25T08:22:59.000Z</time>
      </trkpt>
      <trkpt lat="44.09638" lon="7.08954">
        <ele>1299</ele>
        <time>2017-05-25T08:23:00.000Z</time>
      </trkpt>
      <trkpt lat="44.09646" lon="7.08948">
        <ele>1301</ele>
        <time>2017-05-25T08:23:06.000Z</time>
      </trkpt>
      <trkpt lat="44.09654" lon="7.08944">
        <ele>1302</ele>
        <time>2017-05-25T08:23:11.000Z</time>
      </trkpt>
      <trkpt lat="44.09658" lon="7.08943">
        <ele>1303</ele>
        <time>2017-05-25T08:23:14.000Z</time>
      </trkpt>
      <trkpt lat="44.09661" lon="7.08941">
        <ele>1303</ele>
        <time>2017-05-25T08:23:16.000Z</time>
      </trkpt>
      <trkpt lat="44.09668" lon="7.08938">
        <ele>1303</ele>
        <time>2017-05-25T08:23:21.000Z</time>
      </trkpt>
      <trkpt lat="44.0967" lon="7.08938">
        <ele>1303</ele>
        <time>2017-05-25T08:23:22.000Z</time>
      </trkpt>
      <trkpt lat="44.09681" lon="7.08935">
        <ele>1303</ele>
        <time>2017-05-25T08:23:29.000Z</time>
      </trkpt>
      <trkpt lat="44.09685" lon="7.08935">
        <ele>1302</ele>
        <time>2017-05-25T08:23:31.000Z</time>
      </trkpt>
      <trkpt lat="44.0969" lon="7.08934">
        <ele>1302</ele>
        <time>2017-05-25T08:23:34.000Z</time>
      </trkpt>
      <trkpt lat="44.09699" lon="7.08931">
        <ele>1301</ele>
        <time>2017-05-25T08:23:40.000Z</time>
      </trkpt>
      <trkpt lat="44.09701" lon="7.0893">
        <ele>1301</ele>
        <time>2017-05-25T08:23:41.000Z</time>
      </trkpt>
      <trkpt lat="44.0971" lon="7.08928">
        <ele>1301</ele>
        <time>2017-05-25T08:23:46.000Z</time>
      </trkpt>
      <trkpt lat="44.09716" lon="7.08925">
        <ele>1301</ele>
        <time>2017-05-25T08:23:50.000Z</time>
      </trkpt>
      <trkpt lat="44.09717" lon="7.08925">
        <ele>1301</ele>
        <time>2017-05-25T08:23:51.000Z</time>
      </trkpt>
      <trkpt lat="44.09727" lon="7.0892">
        <ele>1302</ele>
        <time>2017-05-25T08:23:57.000Z</time>
      </trkpt>
      <trkpt lat="44.09734" lon="7.08916">
        <ele>1316</ele>
        <time>2017-05-25T08:24:01.000Z</time>
      </trkpt>
      <trkpt lat="44.09737" lon="7.08915">
        <ele>1315</ele>
        <time>2017-05-25T08:24:03.000Z</time>
      </trkpt>
      <trkpt lat="44.09746" lon="7.0891">
        <ele>1313</ele>
        <time>2017-05-25T08:24:09.000Z</time>
      </trkpt>
      <trkpt lat="44.09751" lon="7.08907">
        <ele>1312</ele>
        <time>2017-05-25T08:24:12.000Z</time>
      </trkpt>
      <trkpt lat="44.09753" lon="7.08905">
        <ele>1313</ele>
        <time>2017-05-25T08:24:14.000Z</time>
      </trkpt>
      <trkpt lat="44.09761" lon="7.089">
        <ele>1315</ele>
        <time>2017-05-25T08:24:19.000Z</time>
      </trkpt>
      <trkpt lat="44.09764" lon="7.08899">
        <ele>1316</ele>
        <time>2017-05-25T08:24:21.000Z</time>
      </trkpt>
      <trkpt lat="44.09771" lon="7.08893">
        <ele>1317</ele>
        <time>2017-05-25T08:24:25.000Z</time>
      </trkpt>
      <trkpt lat="44.09773" lon="7.08892">
        <ele>1318</ele>
        <time>2017-05-25T08:24:26.000Z</time>
      </trkpt>
      <trkpt lat="44.09781" lon="7.08886">
        <ele>1319</ele>
        <time>2017-05-25T08:24:31.000Z</time>
      </trkpt>
      <trkpt lat="44.09784" lon="7.08884">
        <ele>1319</ele>
        <time>2017-05-25T08:24:33.000Z</time>
      </trkpt>
      <trkpt lat="44.09789" lon="7.08879">
        <ele>1320</ele>
        <time>2017-05-25T08:24:37.000Z</time>
      </trkpt>
      <trkpt lat="44.09796" lon="7.08873">
        <ele>1321</ele>
        <time>2017-05-25T08:24:42.000Z</time>
      </trkpt>
      <trkpt lat="44.09801" lon="7.08868">
        <ele>1322</ele>
        <time>2017-05-25T08:24:46.000Z</time>
      </trkpt>
      <trkpt lat="44.09805" lon="7.08867">
        <ele>1322</ele>
        <time>2017-05-25T08:24:49.000Z</time>
      </trkpt>
      <trkpt lat="44.09808" lon="7.08867">
        <ele>1322</ele>
        <time>2017-05-25T08:24:51.000Z</time>
      </trkpt>
      <trkpt lat="44.09816" lon="7.08868">
        <ele>1322</ele>
        <time>2017-05-25T08:24:57.000Z</time>
      </trkpt>
      <trkpt lat="44.09818" lon="7.08869">
        <ele>1322</ele>
        <time>2017-05-25T08:24:59.000Z</time>
      </trkpt>
      <trkpt lat="44.09821" lon="7.0887">
        <ele>1321</ele>
        <time>2017-05-25T08:25:01.000Z</time>
      </trkpt>
      <trkpt lat="44.09824" lon="7.08871">
        <ele>1321</ele>
        <time>2017-05-25T08:25:03.000Z</time>
      </trkpt>
      <trkpt lat="44.09826" lon="7.08872">
        <ele>1321</ele>
        <time>2017-05-25T08:25:05.000Z</time>
      </trkpt>
      <trkpt lat="44.09829" lon="7.08872">
        <ele>1321</ele>
        <time>2017-05-25T08:25:07.000Z</time>
      </trkpt>
      <trkpt lat="44.09833" lon="7.08872">
        <ele>1320</ele>
        <time>2017-05-25T08:25:10.000Z</time>
      </trkpt>
      <trkpt lat="44.09837" lon="7.08872">
        <ele>1321</ele>
        <time>2017-05-25T08:25:13.000Z</time>
      </trkpt>
      <trkpt lat="44.09843" lon="7.08872">
        <ele>1321</ele>
        <time>2017-05-25T08:25:17.000Z</time>
      </trkpt>
      <trkpt lat="44.09849" lon="7.08871">
        <ele>1321</ele>
        <time>2017-05-25T08:25:22.000Z</time>
      </trkpt>
      <trkpt lat="44.09851" lon="7.08871">
        <ele>1321</ele>
        <time>2017-05-25T08:25:23.000Z</time>
      </trkpt>
      <trkpt lat="44.09859" lon="7.0887">
        <ele>1322</ele>
        <time>2017-05-25T08:25:29.000Z</time>
      </trkpt>
      <trkpt lat="44.09863" lon="7.0887">
        <ele>1322</ele>
        <time>2017-05-25T08:25:32.000Z</time>
      </trkpt>
      <trkpt lat="44.09868" lon="7.08869">
        <ele>1323</ele>
        <time>2017-05-25T08:25:36.000Z</time>
      </trkpt>
      <trkpt lat="44.09875" lon="7.08867">
        <ele>1323</ele>
        <time>2017-05-25T08:25:41.000Z</time>
      </trkpt>
      <trkpt lat="44.09877" lon="7.08866">
        <ele>1324</ele>
        <time>2017-05-25T08:25:42.000Z</time>
      </trkpt>
      <trkpt lat="44.09885" lon="7.08863">
        <ele>1325</ele>
        <time>2017-05-25T08:25:48.000Z</time>
      </trkpt>
      <trkpt lat="44.09887" lon="7.08861">
        <ele>1325</ele>
        <time>2017-05-25T08:25:50.000Z</time>
      </trkpt>
      <trkpt lat="44.09892" lon="7.08858">
        <ele>1327</ele>
        <time>2017-05-25T08:25:54.000Z</time>
      </trkpt>
      <trkpt lat="44.09896" lon="7.08854">
        <ele>1329</ele>
        <time>2017-05-25T08:25:58.000Z</time>
      </trkpt>
      <trkpt lat="44.09899" lon="7.08852">
        <ele>1329</ele>
        <time>2017-05-25T08:26:00.000Z</time>
      </trkpt>
      <trkpt lat="44.09905" lon="7.08848">
        <ele>1332</ele>
        <time>2017-05-25T08:26:05.000Z</time>
      </trkpt>
      <trkpt lat="44.09907" lon="7.08847">
        <ele>1333</ele>
        <time>2017-05-25T08:26:07.000Z</time>
      </trkpt>
      <trkpt lat="44.09912" lon="7.08844">
        <ele>1336</ele>
        <time>2017-05-25T08:26:11.000Z</time>
      </trkpt>
      <trkpt lat="44.09918" lon="7.08842">
        <ele>1340</ele>
        <time>2017-05-25T08:26:16.000Z</time>
      </trkpt>
      <trkpt lat="44.0992" lon="7.08843">
        <ele>1339</ele>
        <time>2017-05-25T08:26:18.000Z</time>
      </trkpt>
      <trkpt lat="44.09927" lon="7.08849">
        <ele>1337</ele>
        <time>2017-05-25T08:26:24.000Z</time>
      </trkpt>
      <trkpt lat="44.09935" lon="7.08856">
        <ele>1334</ele>
        <time>2017-05-25T08:26:31.000Z</time>
      </trkpt>
      <trkpt lat="44.09937" lon="7.08858">
        <ele>1334</ele>
        <time>2017-05-25T08:26:33.000Z</time>
      </trkpt>
      <trkpt lat="44.09942" lon="7.08862">
        <ele>1333</ele>
        <time>2017-05-25T08:26:37.000Z</time>
      </trkpt>
      <trkpt lat="44.0995" lon="7.08865">
        <ele>1333</ele>
        <time>2017-05-25T08:26:43.000Z</time>
      </trkpt>
      <trkpt lat="44.09952" lon="7.08865">
        <ele>1333</ele>
        <time>2017-05-25T08:26:44.000Z</time>
      </trkpt>
      <trkpt lat="44.09961" lon="7.08864">
        <ele>1333</ele>
        <time>2017-05-25T08:26:50.000Z</time>
      </trkpt>
      <trkpt lat="44.09972" lon="7.08861">
        <ele>1335</ele>
        <time>2017-05-25T08:26:57.000Z</time>
      </trkpt>
      <trkpt lat="44.09974" lon="7.08861">
        <ele>1335</ele>
        <time>2017-05-25T08:26:58.000Z</time>
      </trkpt>
      <trkpt lat="44.09983" lon="7.08859">
        <ele>1337</ele>
        <time>2017-05-25T08:27:04.000Z</time>
      </trkpt>
      <trkpt lat="44.09986" lon="7.08858">
        <ele>1338</ele>
        <time>2017-05-25T08:27:06.000Z</time>
      </trkpt>
      <trkpt lat="44.09993" lon="7.08856">
        <ele>1340</ele>
        <time>2017-05-25T08:27:10.000Z</time>
      </trkpt>
      <trkpt lat="44.09999" lon="7.08852">
        <ele>1342</ele>
        <time>2017-05-25T08:27:14.000Z</time>
      </trkpt>
      <trkpt lat="44.10002" lon="7.0885">
        <ele>1347</ele>
        <time>2017-05-25T08:27:16.000Z</time>
      </trkpt>
      <trkpt lat="44.10008" lon="7.08846">
        <ele>1348</ele>
        <time>2017-05-25T08:27:21.000Z</time>
      </trkpt>
      <trkpt lat="44.10009" lon="7.08845">
        <ele>1348</ele>
        <time>2017-05-25T08:27:22.000Z</time>
      </trkpt>
      <trkpt lat="44.10014" lon="7.08842">
        <ele>1347</ele>
        <time>2017-05-25T08:27:26.000Z</time>
      </trkpt>
      <trkpt lat="44.10019" lon="7.08839">
        <ele>1347</ele>
        <time>2017-05-25T08:27:30.000Z</time>
      </trkpt>
      <trkpt lat="44.10023" lon="7.08836">
        <ele>1347</ele>
        <time>2017-05-25T08:27:33.000Z</time>
      </trkpt>
      <trkpt lat="44.1003" lon="7.0883">
        <ele>1366</ele>
        <time>2017-05-25T08:27:39.000Z</time>
      </trkpt>
      <trkpt lat="44.10036" lon="7.08826">
        <ele>1367</ele>
        <time>2017-05-25T08:27:44.000Z</time>
      </trkpt>
      <trkpt lat="44.1004" lon="7.08822">
        <ele>1368</ele>
        <time>2017-05-25T08:27:48.000Z</time>
      </trkpt>
      <trkpt lat="44.10042" lon="7.08821">
        <ele>1368</ele>
        <time>2017-05-25T08:27:50.000Z</time>
      </trkpt>
      <trkpt lat="44.10049" lon="7.08817">
        <ele>1368</ele>
        <time>2017-05-25T08:27:55.000Z</time>
      </trkpt>
      <trkpt lat="44.1005" lon="7.08816">
        <ele>1368</ele>
        <time>2017-05-25T08:27:56.000Z</time>
      </trkpt>
      <trkpt lat="44.10057" lon="7.08811">
        <ele>1369</ele>
        <time>2017-05-25T08:28:02.000Z</time>
      </trkpt>
      <trkpt lat="44.10059" lon="7.08809">
        <ele>1369</ele>
        <time>2017-05-25T08:28:03.000Z</time>
      </trkpt>
      <trkpt lat="44.10065" lon="7.08804">
        <ele>1370</ele>
        <time>2017-05-25T08:28:08.000Z</time>
      </trkpt>
      <trkpt lat="44.10066" lon="7.08804">
        <ele>1370</ele>
        <time>2017-05-25T08:28:09.000Z</time>
      </trkpt>
      <trkpt lat="44.10075" lon="7.08799">
        <ele>1371</ele>
        <time>2017-05-25T08:28:16.000Z</time>
      </trkpt>
      <trkpt lat="44.10077" lon="7.08798">
        <ele>1371</ele>
        <time>2017-05-25T08:28:17.000Z</time>
      </trkpt>
      <trkpt lat="44.10084" lon="7.08799">
        <ele>1371</ele>
        <time>2017-05-25T08:28:22.000Z</time>
      </trkpt>
      <trkpt lat="44.10089" lon="7.08799">
        <ele>1371</ele>
        <time>2017-05-25T08:28:26.000Z</time>
      </trkpt>
      <trkpt lat="44.10092" lon="7.08799">
        <ele>1371</ele>
        <time>2017-05-25T08:28:29.000Z</time>
      </trkpt>
      <trkpt lat="44.10098" lon="7.08799">
        <ele>1371</ele>
        <time>2017-05-25T08:28:33.000Z</time>
      </trkpt>
      <trkpt lat="44.101" lon="7.08799">
        <ele>1371</ele>
        <time>2017-05-25T08:28:34.000Z</time>
      </trkpt>
      <trkpt lat="44.10108" lon="7.088">
        <ele>1371</ele>
        <time>2017-05-25T08:28:40.000Z</time>
      </trkpt>
      <trkpt lat="44.10109" lon="7.08801">
        <ele>1371</ele>
        <time>2017-05-25T08:28:41.000Z</time>
      </trkpt>
      <trkpt lat="44.10116" lon="7.08803">
        <ele>1371</ele>
        <time>2017-05-25T08:28:46.000Z</time>
      </trkpt>
      <trkpt lat="44.10121" lon="7.08805">
        <ele>1371</ele>
        <time>2017-05-25T08:28:49.000Z</time>
      </trkpt>
      <trkpt lat="44.10126" lon="7.08806">
        <ele>1371</ele>
        <time>2017-05-25T08:28:52.000Z</time>
      </trkpt>
      <trkpt lat="44.10132" lon="7.08808">
        <ele>1371</ele>
        <time>2017-05-25T08:28:56.000Z</time>
      </trkpt>
      <trkpt lat="44.10135" lon="7.08809">
        <ele>1371</ele>
        <time>2017-05-25T08:28:58.000Z</time>
      </trkpt>
      <trkpt lat="44.10141" lon="7.08808">
        <ele>1371</ele>
        <time>2017-05-25T08:29:02.000Z</time>
      </trkpt>
      <trkpt lat="44.10145" lon="7.08808">
        <ele>1371</ele>
        <time>2017-05-25T08:29:04.000Z</time>
      </trkpt>
      <trkpt lat="44.10154" lon="7.08804">
        <ele>1371</ele>
        <time>2017-05-25T08:29:10.000Z</time>
      </trkpt>
      <trkpt lat="44.10155" lon="7.08803">
        <ele>1371</ele>
        <time>2017-05-25T08:29:11.000Z</time>
      </trkpt>
      <trkpt lat="44.10163" lon="7.08797">
        <ele>1372</ele>
        <time>2017-05-25T08:29:17.000Z</time>
      </trkpt>
      <trkpt lat="44.10167" lon="7.08794">
        <ele>1368</ele>
        <time>2017-05-25T08:29:20.000Z</time>
      </trkpt>
      <trkpt lat="44.10174" lon="7.08785">
        <ele>1369</ele>
        <time>2017-05-25T08:29:26.000Z</time>
      </trkpt>
      <trkpt lat="44.10178" lon="7.08781">
        <ele>1370</ele>
        <time>2017-05-25T08:29:29.000Z</time>
      </trkpt>
      <trkpt lat="44.10184" lon="7.08771">
        <ele>1371</ele>
        <time>2017-05-25T08:29:36.000Z</time>
      </trkpt>
      <trkpt lat="44.10185" lon="7.08771">
        <ele>1371</ele>
        <time>2017-05-25T08:29:42.000Z</time>
      </trkpt>
      <trkpt lat="44.10186" lon="7.08771">
        <ele>1371</ele>
        <time>2017-05-25T08:29:43.000Z</time>
      </trkpt>
      <trkpt lat="44.10186" lon="7.08772">
        <ele>1370</ele>
        <time>2017-05-25T08:29:47.000Z</time>
      </trkpt>
      <trkpt lat="44.10187" lon="7.08772">
        <ele>1370</ele>
        <time>2017-05-25T08:29:53.000Z</time>
      </trkpt>
      <trkpt lat="44.10188" lon="7.08772">
        <ele>1370</ele>
        <time>2017-05-25T08:29:58.000Z</time>
      </trkpt>
      <trkpt lat="44.10188" lon="7.08772">
        <ele>1370</ele>
        <time>2017-05-25T08:30:07.000Z</time>
      </trkpt>
      <trkpt lat="44.10187" lon="7.08771">
        <ele>1370</ele>
        <time>2017-05-25T08:30:17.000Z</time>
      </trkpt>
      <trkpt lat="44.10187" lon="7.08771">
        <ele>1370</ele>
        <time>2017-05-25T08:30:27.000Z</time>
      </trkpt>
      <trkpt lat="44.10187" lon="7.08771">
        <ele>1370</ele>
        <time>2017-05-25T08:30:34.000Z</time>
      </trkpt>
      <trkpt lat="44.10187" lon="7.08771">
        <ele>1371</ele>
        <time>2017-05-25T08:30:45.000Z</time>
      </trkpt>
      <trkpt lat="44.10186" lon="7.08771">
        <ele>1371</ele>
        <time>2017-05-25T08:30:51.000Z</time>
      </trkpt>
      <trkpt lat="44.10187" lon="7.08771">
        <ele>1371</ele>
        <time>2017-05-25T08:30:59.000Z</time>
      </trkpt>
      <trkpt lat="44.10187" lon="7.0877">
        <ele>1371</ele>
        <time>2017-05-25T08:31:04.000Z</time>
      </trkpt>
      <trkpt lat="44.10188" lon="7.0877">
        <ele>1371</ele>
        <time>2017-05-25T08:31:08.000Z</time>
      </trkpt>
      <trkpt lat="44.10187" lon="7.08769">
        <ele>1371</ele>
        <time>2017-05-25T08:31:13.000Z</time>
      </trkpt>
      <trkpt lat="44.10187" lon="7.08769">
        <ele>1371</ele>
        <time>2017-05-25T08:31:17.000Z</time>
      </trkpt>
      <trkpt lat="44.10187" lon="7.08769">
        <ele>1371</ele>
        <time>2017-05-25T08:31:18.000Z</time>
      </trkpt>
      <trkpt lat="44.10188" lon="7.08769">
        <ele>1371</ele>
        <time>2017-05-25T08:31:24.000Z</time>
      </trkpt>
      <trkpt lat="44.10188" lon="7.08768">
        <ele>1371</ele>
        <time>2017-05-25T08:31:29.000Z</time>
      </trkpt>
      <trkpt lat="44.10187" lon="7.08768">
        <ele>1371</ele>
        <time>2017-05-25T08:31:31.000Z</time>
      </trkpt>
      <trkpt lat="44.10187" lon="7.08767">
        <ele>1371</ele>
        <time>2017-05-25T08:31:40.000Z</time>
      </trkpt>
      <trkpt lat="44.10187" lon="7.08766">
        <ele>1371</ele>
        <time>2017-05-25T08:31:54.000Z</time>
      </trkpt>
      <trkpt lat="44.10187" lon="7.08766">
        <ele>1372</ele>
        <time>2017-05-25T08:32:05.000Z</time>
      </trkpt>
      <trkpt lat="44.10187" lon="7.08765">
        <ele>1372</ele>
        <time>2017-05-25T08:32:12.000Z</time>
      </trkpt>
      <trkpt lat="44.10186" lon="7.08765">
        <ele>1372</ele>
        <time>2017-05-25T08:32:22.000Z</time>
      </trkpt>
      <trkpt lat="44.10186" lon="7.08765">
        <ele>1372</ele>
        <time>2017-05-25T08:32:36.000Z</time>
      </trkpt>
      <trkpt lat="44.10186" lon="7.08765">
        <ele>1372</ele>
        <time>2017-05-25T08:32:52.000Z</time>
      </trkpt>
      <trkpt lat="44.10185" lon="7.08764">
        <ele>1372</ele>
        <time>2017-05-25T08:32:58.000Z</time>
      </trkpt>
      <trkpt lat="44.10185" lon="7.08763">
        <ele>1373</ele>
        <time>2017-05-25T08:33:03.000Z</time>
      </trkpt>
      <trkpt lat="44.10185" lon="7.08763">
        <ele>1372</ele>
        <time>2017-05-25T08:33:08.000Z</time>
      </trkpt>
      <trkpt lat="44.10188" lon="7.08758">
        <ele>1372</ele>
        <time>2017-05-25T08:33:14.000Z</time>
      </trkpt>
      <trkpt lat="44.10194" lon="7.08744">
        <ele>1383</ele>
        <time>2017-05-25T08:33:21.000Z</time>
      </trkpt>
      <trkpt lat="44.10196" lon="7.08741">
        <ele>1383</ele>
        <time>2017-05-25T08:33:23.000Z</time>
      </trkpt>
      <trkpt lat="44.10202" lon="7.08733">
        <ele>1383</ele>
        <time>2017-05-25T08:33:28.000Z</time>
      </trkpt>
      <trkpt lat="44.10203" lon="7.08731">
        <ele>1383</ele>
        <time>2017-05-25T08:33:29.000Z</time>
      </trkpt>
      <trkpt lat="44.10204" lon="7.0873">
        <ele>1383</ele>
        <time>2017-05-25T08:33:30.000Z</time>
      </trkpt>
      <trkpt lat="44.10208" lon="7.08723">
        <ele>1383</ele>
        <time>2017-05-25T08:33:34.000Z</time>
      </trkpt>
      <trkpt lat="44.1021" lon="7.0872">
        <ele>1383</ele>
        <time>2017-05-25T08:33:36.000Z</time>
      </trkpt>
      <trkpt lat="44.10211" lon="7.08717">
        <ele>1383</ele>
        <time>2017-05-25T08:33:38.000Z</time>
      </trkpt>
      <trkpt lat="44.10216" lon="7.0871">
        <ele>1384</ele>
        <time>2017-05-25T08:33:42.000Z</time>
      </trkpt>
      <trkpt lat="44.10216" lon="7.08708">
        <ele>1384</ele>
        <time>2017-05-25T08:33:43.000Z</time>
      </trkpt>
      <trkpt lat="44.10221" lon="7.087">
        <ele>1384</ele>
        <time>2017-05-25T08:33:48.000Z</time>
      </trkpt>
      <trkpt lat="44.10223" lon="7.08699">
        <ele>1384</ele>
        <time>2017-05-25T08:33:49.000Z</time>
      </trkpt>
      <trkpt lat="44.10227" lon="7.08691">
        <ele>1384</ele>
        <time>2017-05-25T08:33:54.000Z</time>
      </trkpt>
      <trkpt lat="44.10229" lon="7.0869">
        <ele>1384</ele>
        <time>2017-05-25T08:33:55.000Z</time>
      </trkpt>
      <trkpt lat="44.1023" lon="7.08688">
        <ele>1384</ele>
        <time>2017-05-25T08:33:56.000Z</time>
      </trkpt>
      <trkpt lat="44.10234" lon="7.08681">
        <ele>1384</ele>
        <time>2017-05-25T08:34:00.000Z</time>
      </trkpt>
      <trkpt lat="44.10236" lon="7.08676">
        <ele>1384</ele>
        <time>2017-05-25T08:34:03.000Z</time>
      </trkpt>
      <trkpt lat="44.10238" lon="7.08673">
        <ele>1384</ele>
        <time>2017-05-25T08:34:05.000Z</time>
      </trkpt>
      <trkpt lat="44.10241" lon="7.08666">
        <ele>1390</ele>
        <time>2017-05-25T08:34:09.000Z</time>
      </trkpt>
      <trkpt lat="44.10244" lon="7.0866">
        <ele>1390</ele>
        <time>2017-05-25T08:34:12.000Z</time>
      </trkpt>
      <trkpt lat="44.10247" lon="7.08655">
        <ele>1392</ele>
        <time>2017-05-25T08:34:15.000Z</time>
      </trkpt>
      <trkpt lat="44.10253" lon="7.08642">
        <ele>1388</ele>
        <time>2017-05-25T08:34:21.000Z</time>
      </trkpt>
      <trkpt lat="44.10255" lon="7.08638">
        <ele>1389</ele>
        <time>2017-05-25T08:34:23.000Z</time>
      </trkpt>
      <trkpt lat="44.10258" lon="7.08632">
        <ele>1390</ele>
        <time>2017-05-25T08:34:26.000Z</time>
      </trkpt>
      <trkpt lat="44.10261" lon="7.08625">
        <ele>1392</ele>
        <time>2017-05-25T08:34:29.000Z</time>
      </trkpt>
      <trkpt lat="44.10266" lon="7.08621">
        <ele>1393</ele>
        <time>2017-05-25T08:34:32.000Z</time>
      </trkpt>
      <trkpt lat="44.10272" lon="7.08618">
        <ele>1393</ele>
        <time>2017-05-25T08:34:36.000Z</time>
      </trkpt>
      <trkpt lat="44.10275" lon="7.08617">
        <ele>1393</ele>
        <time>2017-05-25T08:34:38.000Z</time>
      </trkpt>
      <trkpt lat="44.10282" lon="7.08614">
        <ele>1393</ele>
        <time>2017-05-25T08:34:42.000Z</time>
      </trkpt>
      <trkpt lat="44.10287" lon="7.08613">
        <ele>1393</ele>
        <time>2017-05-25T08:34:45.000Z</time>
      </trkpt>
      <trkpt lat="44.10297" lon="7.0861">
        <ele>1392</ele>
        <time>2017-05-25T08:34:51.000Z</time>
      </trkpt>
      <trkpt lat="44.10298" lon="7.0861">
        <ele>1392</ele>
        <time>2017-05-25T08:34:52.000Z</time>
      </trkpt>
      <trkpt lat="44.10307" lon="7.08604">
        <ele>1393</ele>
        <time>2017-05-25T08:34:58.000Z</time>
      </trkpt>
      <trkpt lat="44.10309" lon="7.08603">
        <ele>1393</ele>
        <time>2017-05-25T08:34:59.000Z</time>
      </trkpt>
      <trkpt lat="44.10317" lon="7.08596">
        <ele>1394</ele>
        <time>2017-05-25T08:35:05.000Z</time>
      </trkpt>
      <trkpt lat="44.10318" lon="7.08595">
        <ele>1395</ele>
        <time>2017-05-25T08:35:06.000Z</time>
      </trkpt>
      <trkpt lat="44.10326" lon="7.08588">
        <ele>1397</ele>
        <time>2017-05-25T08:35:11.000Z</time>
      </trkpt>
      <trkpt lat="44.1033" lon="7.08586">
        <ele>1398</ele>
        <time>2017-05-25T08:35:13.000Z</time>
      </trkpt>
      <trkpt lat="44.10337" lon="7.08582">
        <ele>1401</ele>
        <time>2017-05-25T08:35:17.000Z</time>
      </trkpt>
      <trkpt lat="44.10342" lon="7.0858">
        <ele>1401</ele>
        <time>2017-05-25T08:35:19.000Z</time>
      </trkpt>
      <trkpt lat="44.1035" lon="7.08576">
        <ele>1402</ele>
        <time>2017-05-25T08:35:23.000Z</time>
      </trkpt>
      <trkpt lat="44.10356" lon="7.08569">
        <ele>1403</ele>
        <time>2017-05-25T08:35:27.000Z</time>
      </trkpt>
      <trkpt lat="44.10361" lon="7.08564">
        <ele>1403</ele>
        <time>2017-05-25T08:35:30.000Z</time>
      </trkpt>
      <trkpt lat="44.10364" lon="7.08561">
        <ele>1403</ele>
        <time>2017-05-25T08:35:32.000Z</time>
      </trkpt>
      <trkpt lat="44.10373" lon="7.08553">
        <ele>1404</ele>
        <time>2017-05-25T08:35:37.000Z</time>
      </trkpt>
      <trkpt lat="44.10374" lon="7.08552">
        <ele>1404</ele>
        <time>2017-05-25T08:35:38.000Z</time>
      </trkpt>
      <trkpt lat="44.10381" lon="7.08545">
        <ele>1404</ele>
        <time>2017-05-25T08:35:42.000Z</time>
      </trkpt>
      <trkpt lat="44.10385" lon="7.08542">
        <ele>1404</ele>
        <time>2017-05-25T08:35:44.000Z</time>
      </trkpt>
      <trkpt lat="44.10393" lon="7.08537">
        <ele>1404</ele>
        <time>2017-05-25T08:35:48.000Z</time>
      </trkpt>
      <trkpt lat="44.10395" lon="7.08535">
        <ele>1404</ele>
        <time>2017-05-25T08:35:49.000Z</time>
      </trkpt>
      <trkpt lat="44.10402" lon="7.08528">
        <ele>1405</ele>
        <time>2017-05-25T08:35:53.000Z</time>
      </trkpt>
      <trkpt lat="44.10408" lon="7.08521">
        <ele>1405</ele>
        <time>2017-05-25T08:35:57.000Z</time>
      </trkpt>
      <trkpt lat="44.1041" lon="7.08519">
        <ele>1405</ele>
        <time>2017-05-25T08:35:58.000Z</time>
      </trkpt>
      <trkpt lat="44.10417" lon="7.08509">
        <ele>1400</ele>
        <time>2017-05-25T08:36:03.000Z</time>
      </trkpt>
      <trkpt lat="44.10419" lon="7.08507">
        <ele>1401</ele>
        <time>2017-05-25T08:36:04.000Z</time>
      </trkpt>
      <trkpt lat="44.10426" lon="7.08497">
        <ele>1407</ele>
        <time>2017-05-25T08:36:09.000Z</time>
      </trkpt>
      <trkpt lat="44.10436" lon="7.08483">
        <ele>1407</ele>
        <time>2017-05-25T08:36:16.000Z</time>
      </trkpt>
      <trkpt lat="44.10443" lon="7.08472">
        <ele>1407</ele>
        <time>2017-05-25T08:36:21.000Z</time>
      </trkpt>
      <trkpt lat="44.10445" lon="7.08468">
        <ele>1407</ele>
        <time>2017-05-25T08:36:23.000Z</time>
      </trkpt>
      <trkpt lat="44.1045" lon="7.08459">
        <ele>1408</ele>
        <time>2017-05-25T08:36:27.000Z</time>
      </trkpt>
      <trkpt lat="44.10453" lon="7.08452">
        <ele>1408</ele>
        <time>2017-05-25T08:36:30.000Z</time>
      </trkpt>
      <trkpt lat="44.10457" lon="7.08445">
        <ele>1409</ele>
        <time>2017-05-25T08:36:33.000Z</time>
      </trkpt>
      <trkpt lat="44.10462" lon="7.08431">
        <ele>1409</ele>
        <time>2017-05-25T08:36:39.000Z</time>
      </trkpt>
      <trkpt lat="44.10466" lon="7.08423">
        <ele>1409</ele>
        <time>2017-05-25T08:36:43.000Z</time>
      </trkpt>
      <trkpt lat="44.10469" lon="7.08415">
        <ele>1423</ele>
        <time>2017-05-25T08:36:47.000Z</time>
      </trkpt>
      <trkpt lat="44.10472" lon="7.08409">
        <ele>1423</ele>
        <time>2017-05-25T08:36:50.000Z</time>
      </trkpt>
      <trkpt lat="44.10476" lon="7.084">
        <ele>1423</ele>
        <time>2017-05-25T08:36:55.000Z</time>
      </trkpt>
      <trkpt lat="44.10479" lon="7.08388">
        <ele>1425</ele>
        <time>2017-05-25T08:37:01.000Z</time>
      </trkpt>
      <trkpt lat="44.10481" lon="7.08382">
        <ele>1427</ele>
        <time>2017-05-25T08:37:04.000Z</time>
      </trkpt>
      <trkpt lat="44.10485" lon="7.08374">
        <ele>1428</ele>
        <time>2017-05-25T08:37:08.000Z</time>
      </trkpt>
      <trkpt lat="44.10489" lon="7.08367">
        <ele>1429</ele>
        <time>2017-05-25T08:37:12.000Z</time>
      </trkpt>
      <trkpt lat="44.1049" lon="7.08363">
        <ele>1429</ele>
        <time>2017-05-25T08:37:14.000Z</time>
      </trkpt>
      <trkpt lat="44.10497" lon="7.08354">
        <ele>1430</ele>
        <time>2017-05-25T08:37:20.000Z</time>
      </trkpt>
      <trkpt lat="44.10498" lon="7.08352">
        <ele>1430</ele>
        <time>2017-05-25T08:37:21.000Z</time>
      </trkpt>
      <trkpt lat="44.10504" lon="7.08344">
        <ele>1419</ele>
        <time>2017-05-25T08:37:26.000Z</time>
      </trkpt>
      <trkpt lat="44.10513" lon="7.08334">
        <ele>1419</ele>
        <time>2017-05-25T08:37:33.000Z</time>
      </trkpt>
      <trkpt lat="44.10516" lon="7.08332">
        <ele>1429</ele>
        <time>2017-05-25T08:37:35.000Z</time>
      </trkpt>
      <trkpt lat="44.10521" lon="7.08327">
        <ele>1429</ele>
        <time>2017-05-25T08:37:39.000Z</time>
      </trkpt>
      <trkpt lat="44.10528" lon="7.08317">
        <ele>1429</ele>
        <time>2017-05-25T08:37:45.000Z</time>
      </trkpt>
      <trkpt lat="44.1053" lon="7.08314">
        <ele>1429</ele>
        <time>2017-05-25T08:37:47.000Z</time>
      </trkpt>
      <trkpt lat="44.10533" lon="7.0831">
        <ele>1429</ele>
        <time>2017-05-25T08:37:50.000Z</time>
      </trkpt>
      <trkpt lat="44.1054" lon="7.083">
        <ele>1430</ele>
        <time>2017-05-25T08:37:56.000Z</time>
      </trkpt>
      <trkpt lat="44.10543" lon="7.08297">
        <ele>1430</ele>
        <time>2017-05-25T08:37:58.000Z</time>
      </trkpt>
      <trkpt lat="44.10547" lon="7.08289">
        <ele>1430</ele>
        <time>2017-05-25T08:38:02.000Z</time>
      </trkpt>
      <trkpt lat="44.10548" lon="7.08288">
        <ele>1430</ele>
        <time>2017-05-25T08:38:03.000Z</time>
      </trkpt>
      <trkpt lat="44.10551" lon="7.08286">
        <ele>1430</ele>
        <time>2017-05-25T08:38:05.000Z</time>
      </trkpt>
      <trkpt lat="44.10553" lon="7.08283">
        <ele>1430</ele>
        <time>2017-05-25T08:38:07.000Z</time>
      </trkpt>
      <trkpt lat="44.10557" lon="7.08276">
        <ele>1431</ele>
        <time>2017-05-25T08:38:11.000Z</time>
      </trkpt>
      <trkpt lat="44.10559" lon="7.08271">
        <ele>1431</ele>
        <time>2017-05-25T08:38:14.000Z</time>
      </trkpt>
      <trkpt lat="44.10563" lon="7.08264">
        <ele>1431</ele>
        <time>2017-05-25T08:38:19.000Z</time>
      </trkpt>
      <trkpt lat="44.10564" lon="7.08262">
        <ele>1431</ele>
        <time>2017-05-25T08:38:20.000Z</time>
      </trkpt>
      <trkpt lat="44.10567" lon="7.08253">
        <ele>1431</ele>
        <time>2017-05-25T08:38:24.000Z</time>
      </trkpt>
      <trkpt lat="44.10568" lon="7.08249">
        <ele>1443</ele>
        <time>2017-05-25T08:38:26.000Z</time>
      </trkpt>
      <trkpt lat="44.10571" lon="7.08242">
        <ele>1442</ele>
        <time>2017-05-25T08:38:30.000Z</time>
      </trkpt>
      <trkpt lat="44.10574" lon="7.08235">
        <ele>1444</ele>
        <time>2017-05-25T08:38:33.000Z</time>
      </trkpt>
      <trkpt lat="44.10579" lon="7.08221">
        <ele>1448</ele>
        <time>2017-05-25T08:38:39.000Z</time>
      </trkpt>
      <trkpt lat="44.1058" lon="7.08218">
        <ele>1449</ele>
        <time>2017-05-25T08:38:40.000Z</time>
      </trkpt>
      <trkpt lat="44.10582" lon="7.08211">
        <ele>1451</ele>
        <time>2017-05-25T08:38:43.000Z</time>
      </trkpt>
      <trkpt lat="44.10584" lon="7.08206">
        <ele>1430</ele>
        <time>2017-05-25T08:38:45.000Z</time>
      </trkpt>
      <trkpt lat="44.10584" lon="7.08203">
        <ele>1431</ele>
        <time>2017-05-25T08:38:46.000Z</time>
      </trkpt>
      <trkpt lat="44.10588" lon="7.08199">
        <ele>1432</ele>
        <time>2017-05-25T08:38:49.000Z</time>
      </trkpt>
      <trkpt lat="44.10589" lon="7.08196">
        <ele>1432</ele>
        <time>2017-05-25T08:38:50.000Z</time>
      </trkpt>
      <trkpt lat="44.1059" lon="7.08194">
        <ele>1433</ele>
        <time>2017-05-25T08:38:51.000Z</time>
      </trkpt>
      <trkpt lat="44.10595" lon="7.08183">
        <ele>1436</ele>
        <time>2017-05-25T08:38:56.000Z</time>
      </trkpt>
      <trkpt lat="44.10597" lon="7.08181">
        <ele>1436</ele>
        <time>2017-05-25T08:38:57.000Z</time>
      </trkpt>
      <trkpt lat="44.10601" lon="7.08174">
        <ele>1436</ele>
        <time>2017-05-25T08:39:00.000Z</time>
      </trkpt>
      <trkpt lat="44.10602" lon="7.08172">
        <ele>1436</ele>
        <time>2017-05-25T08:39:01.000Z</time>
      </trkpt>
      <trkpt lat="44.10608" lon="7.08156">
        <ele>1443</ele>
        <time>2017-05-25T08:39:07.000Z</time>
      </trkpt>
      <trkpt lat="44.10612" lon="7.08145">
        <ele>1443</ele>
        <time>2017-05-25T08:39:11.000Z</time>
      </trkpt>
      <trkpt lat="44.10613" lon="7.08143">
        <ele>1442</ele>
        <time>2017-05-25T08:39:12.000Z</time>
      </trkpt>
      <trkpt lat="44.10618" lon="7.0813">
        <ele>1442</ele>
        <time>2017-05-25T08:39:17.000Z</time>
      </trkpt>
      <trkpt lat="44.10619" lon="7.08127">
        <ele>1442</ele>
        <time>2017-05-25T08:39:18.000Z</time>
      </trkpt>
      <trkpt lat="44.10629" lon="7.08107">
        <ele>1442</ele>
        <time>2017-05-25T08:39:26.000Z</time>
      </trkpt>
      <trkpt lat="44.10631" lon="7.08101">
        <ele>1442</ele>
        <time>2017-05-25T08:39:28.000Z</time>
      </trkpt>
      <trkpt lat="44.10637" lon="7.08089">
        <ele>1440</ele>
        <time>2017-05-25T08:39:33.000Z</time>
      </trkpt>
      <trkpt lat="44.10644" lon="7.08077">
        <ele>1449</ele>
        <time>2017-05-25T08:39:38.000Z</time>
      </trkpt>
      <trkpt lat="44.10645" lon="7.08073">
        <ele>1450</ele>
        <time>2017-05-25T08:39:39.000Z</time>
      </trkpt>
      <trkpt lat="44.10651" lon="7.08054">
        <ele>1453</ele>
        <time>2017-05-25T08:39:45.000Z</time>
      </trkpt>
      <trkpt lat="44.10657" lon="7.0804">
        <ele>1455</ele>
        <time>2017-05-25T08:39:50.000Z</time>
      </trkpt>
      <trkpt lat="44.1066" lon="7.08034">
        <ele>1455</ele>
        <time>2017-05-25T08:39:52.000Z</time>
      </trkpt>
      <trkpt lat="44.10664" lon="7.08026">
        <ele>1455</ele>
        <time>2017-05-25T08:39:55.000Z</time>
      </trkpt>
      <trkpt lat="44.10668" lon="7.08013">
        <ele>1436</ele>
        <time>2017-05-25T08:39:59.000Z</time>
      </trkpt>
      <trkpt lat="44.10669" lon="7.08009">
        <ele>1438</ele>
        <time>2017-05-25T08:40:00.000Z</time>
      </trkpt>
      <trkpt lat="44.1067" lon="7.08005">
        <ele>1441</ele>
        <time>2017-05-25T08:40:01.000Z</time>
      </trkpt>
      <trkpt lat="44.10676" lon="7.07987">
        <ele>1443</ele>
        <time>2017-05-25T08:40:06.000Z</time>
      </trkpt>
      <trkpt lat="44.10686" lon="7.07964">
        <ele>1441</ele>
        <time>2017-05-25T08:40:13.000Z</time>
      </trkpt>
      <trkpt lat="44.10696" lon="7.07939">
        <ele>1443</ele>
        <time>2017-05-25T08:40:19.000Z</time>
      </trkpt>
      <trkpt lat="44.10707" lon="7.07911">
        <ele>1453</ele>
        <time>2017-05-25T08:40:26.000Z</time>
      </trkpt>
      <trkpt lat="44.10717" lon="7.0789">
        <ele>1451</ele>
        <time>2017-05-25T08:40:31.000Z</time>
      </trkpt>
      <trkpt lat="44.10729" lon="7.07862">
        <ele>1451</ele>
        <time>2017-05-25T08:40:37.000Z</time>
      </trkpt>
      <trkpt lat="44.10737" lon="7.07834">
        <ele>1446</ele>
        <time>2017-05-25T08:40:42.000Z</time>
      </trkpt>
      <trkpt lat="44.10739" lon="7.07822">
        <ele>1454</ele>
        <time>2017-05-25T08:40:44.000Z</time>
      </trkpt>
      <trkpt lat="44.10744" lon="7.07782">
        <ele>1465</ele>
        <time>2017-05-25T08:40:51.000Z</time>
      </trkpt>
      <trkpt lat="44.10745" lon="7.07758">
        <ele>1461</ele>
        <time>2017-05-25T08:40:55.000Z</time>
      </trkpt>
      <trkpt lat="44.10749" lon="7.07746">
        <ele>1462</ele>
        <time>2017-05-25T08:40:57.000Z</time>
      </trkpt>
      <trkpt lat="44.10757" lon="7.07735">
        <ele>1450</ele>
        <time>2017-05-25T08:40:59.000Z</time>
      </trkpt>
      <trkpt lat="44.10761" lon="7.0773">
        <ele>1449</ele>
        <time>2017-05-25T08:41:00.000Z</time>
      </trkpt>
      <trkpt lat="44.10766" lon="7.07727">
        <ele>1448</ele>
        <time>2017-05-25T08:41:01.000Z</time>
      </trkpt>
      <trkpt lat="44.1077" lon="7.07723">
        <ele>1447</ele>
        <time>2017-05-25T08:41:02.000Z</time>
      </trkpt>
      <trkpt lat="44.10774" lon="7.07719">
        <ele>1447</ele>
        <time>2017-05-25T08:41:03.000Z</time>
      </trkpt>
      <trkpt lat="44.10782" lon="7.07711">
        <ele>1445</ele>
        <time>2017-05-25T08:41:05.000Z</time>
      </trkpt>
      <trkpt lat="44.10785" lon="7.07707">
        <ele>1445</ele>
        <time>2017-05-25T08:41:06.000Z</time>
      </trkpt>
      <trkpt lat="44.10794" lon="7.07697">
        <ele>1444</ele>
        <time>2017-05-25T08:41:09.000Z</time>
      </trkpt>
      <trkpt lat="44.10802" lon="7.07686">
        <ele>1443</ele>
        <time>2017-05-25T08:41:12.000Z</time>
      </trkpt>
      <trkpt lat="44.10813" lon="7.07666">
        <ele>1453</ele>
        <time>2017-05-25T08:41:17.000Z</time>
      </trkpt>
      <trkpt lat="44.1083" lon="7.07644">
        <ele>1454</ele>
        <time>2017-05-25T08:41:23.000Z</time>
      </trkpt>
      <trkpt lat="44.10842" lon="7.07634">
        <ele>1434</ele>
        <time>2017-05-25T08:41:27.000Z</time>
      </trkpt>
      <trkpt lat="44.10855" lon="7.07616">
        <ele>1437</ele>
        <time>2017-05-25T08:41:32.000Z</time>
      </trkpt>
      <trkpt lat="44.10864" lon="7.07605">
        <ele>1437</ele>
        <time>2017-05-25T08:41:35.000Z</time>
      </trkpt>
      <trkpt lat="44.10875" lon="7.07589">
        <ele>1437</ele>
        <time>2017-05-25T08:41:39.000Z</time>
      </trkpt>
      <trkpt lat="44.10893" lon="7.0756">
        <ele>1454</ele>
        <time>2017-05-25T08:41:46.000Z</time>
      </trkpt>
      <trkpt lat="44.10907" lon="7.07536">
        <ele>1458</ele>
        <time>2017-05-25T08:41:52.000Z</time>
      </trkpt>
      <trkpt lat="44.10912" lon="7.07527">
        <ele>1460</ele>
        <time>2017-05-25T08:41:54.000Z</time>
      </trkpt>
      <trkpt lat="44.10924" lon="7.07508">
        <ele>1450</ele>
        <time>2017-05-25T08:41:59.000Z</time>
      </trkpt>
      <trkpt lat="44.10926" lon="7.07505">
        <ele>1450</ele>
        <time>2017-05-25T08:42:00.000Z</time>
      </trkpt>
      <trkpt lat="44.10938" lon="7.0749">
        <ele>1458</ele>
        <time>2017-05-25T08:42:05.000Z</time>
      </trkpt>
      <trkpt lat="44.10945" lon="7.07483">
        <ele>1457</ele>
        <time>2017-05-25T08:42:08.000Z</time>
      </trkpt>
      <trkpt lat="44.10949" lon="7.07475">
        <ele>1457</ele>
        <time>2017-05-25T08:42:10.000Z</time>
      </trkpt>
      <trkpt lat="44.10956" lon="7.07464">
        <ele>1457</ele>
        <time>2017-05-25T08:42:14.000Z</time>
      </trkpt>
      <trkpt lat="44.1096" lon="7.07457">
        <ele>1458</ele>
        <time>2017-05-25T08:42:16.000Z</time>
      </trkpt>
      <trkpt lat="44.10965" lon="7.07449">
        <ele>1458</ele>
        <time>2017-05-25T08:42:19.000Z</time>
      </trkpt>
      <trkpt lat="44.10969" lon="7.07444">
        <ele>1458</ele>
        <time>2017-05-25T08:42:21.000Z</time>
      </trkpt>
      <trkpt lat="44.10975" lon="7.07435">
        <ele>1458</ele>
        <time>2017-05-25T08:42:24.000Z</time>
      </trkpt>
      <trkpt lat="44.10981" lon="7.0743">
        <ele>1457</ele>
        <time>2017-05-25T08:42:27.000Z</time>
      </trkpt>
      <trkpt lat="44.10987" lon="7.07425">
        <ele>1457</ele>
        <time>2017-05-25T08:42:30.000Z</time>
      </trkpt>
      <trkpt lat="44.10993" lon="7.07421">
        <ele>1457</ele>
        <time>2017-05-25T08:42:32.000Z</time>
      </trkpt>
      <trkpt lat="44.10998" lon="7.07417">
        <ele>1456</ele>
        <time>2017-05-25T08:42:34.000Z</time>
      </trkpt>
      <trkpt lat="44.11008" lon="7.07413">
        <ele>1461</ele>
        <time>2017-05-25T08:42:38.000Z</time>
      </trkpt>
      <trkpt lat="44.11011" lon="7.07414">
        <ele>1462</ele>
        <time>2017-05-25T08:42:39.000Z</time>
      </trkpt>
      <trkpt lat="44.11027" lon="7.07412">
        <ele>1466</ele>
        <time>2017-05-25T08:42:45.000Z</time>
      </trkpt>
      <trkpt lat="44.11044" lon="7.07409">
        <ele>1468</ele>
        <time>2017-05-25T08:42:51.000Z</time>
      </trkpt>
      <trkpt lat="44.11046" lon="7.07409">
        <ele>1468</ele>
        <time>2017-05-25T08:42:52.000Z</time>
      </trkpt>
      <trkpt lat="44.11055" lon="7.07409">
        <ele>1467</ele>
        <time>2017-05-25T08:42:55.000Z</time>
      </trkpt>
      <trkpt lat="44.11064" lon="7.07409">
        <ele>1466</ele>
        <time>2017-05-25T08:42:58.000Z</time>
      </trkpt>
      <trkpt lat="44.11075" lon="7.07409">
        <ele>1464</ele>
        <time>2017-05-25T08:43:02.000Z</time>
      </trkpt>
      <trkpt lat="44.11083" lon="7.0741">
        <ele>1462</ele>
        <time>2017-05-25T08:43:06.000Z</time>
      </trkpt>
      <trkpt lat="44.11091" lon="7.0741">
        <ele>1464</ele>
        <time>2017-05-25T08:43:10.000Z</time>
      </trkpt>
      <trkpt lat="44.11097" lon="7.0741">
        <ele>1466</ele>
        <time>2017-05-25T08:43:13.000Z</time>
      </trkpt>
      <trkpt lat="44.11105" lon="7.07409">
        <ele>1468</ele>
        <time>2017-05-25T08:43:17.000Z</time>
      </trkpt>
      <trkpt lat="44.11112" lon="7.07409">
        <ele>1469</ele>
        <time>2017-05-25T08:43:20.000Z</time>
      </trkpt>
      <trkpt lat="44.11126" lon="7.07412">
        <ele>1469</ele>
        <time>2017-05-25T08:43:26.000Z</time>
      </trkpt>
      <trkpt lat="44.11131" lon="7.07414">
        <ele>1469</ele>
        <time>2017-05-25T08:43:28.000Z</time>
      </trkpt>
      <trkpt lat="44.11144" lon="7.07419">
        <ele>1452</ele>
        <time>2017-05-25T08:43:34.000Z</time>
      </trkpt>
      <trkpt lat="44.11151" lon="7.07421">
        <ele>1454</ele>
        <time>2017-05-25T08:43:37.000Z</time>
      </trkpt>
      <trkpt lat="44.11159" lon="7.07416">
        <ele>1466</ele>
        <time>2017-05-25T08:43:42.000Z</time>
      </trkpt>
      <trkpt lat="44.1116" lon="7.07412">
        <ele>1466</ele>
        <time>2017-05-25T08:43:44.000Z</time>
      </trkpt>
      <trkpt lat="44.11157" lon="7.07406">
        <ele>1468</ele>
        <time>2017-05-25T08:43:47.000Z</time>
      </trkpt>
      <trkpt lat="44.11155" lon="7.07404">
        <ele>1468</ele>
        <time>2017-05-25T08:43:48.000Z</time>
      </trkpt>
      <trkpt lat="44.11149" lon="7.07399">
        <ele>1470</ele>
        <time>2017-05-25T08:43:52.000Z</time>
      </trkpt>
      <trkpt lat="44.11148" lon="7.07398">
        <ele>1470</ele>
        <time>2017-05-25T08:43:53.000Z</time>
      </trkpt>
      <trkpt lat="44.11147" lon="7.07397">
        <ele>1470</ele>
        <time>2017-05-25T08:43:54.000Z</time>
      </trkpt>
      <trkpt lat="44.11138" lon="7.07386">
        <ele>1472</ele>
        <time>2017-05-25T08:44:01.000Z</time>
      </trkpt>
      <trkpt lat="44.11137" lon="7.07385">
        <ele>1473</ele>
        <time>2017-05-25T08:44:02.000Z</time>
      </trkpt>
      <trkpt lat="44.11129" lon="7.07375">
        <ele>1474</ele>
        <time>2017-05-25T08:44:08.000Z</time>
      </trkpt>
      <trkpt lat="44.11121" lon="7.0737">
        <ele>1475</ele>
        <time>2017-05-25T08:44:13.000Z</time>
      </trkpt>
      <trkpt lat="44.1112" lon="7.07369">
        <ele>1475</ele>
        <time>2017-05-25T08:44:14.000Z</time>
      </trkpt>
      <trkpt lat="44.11116" lon="7.07367">
        <ele>1475</ele>
        <time>2017-05-25T08:44:16.000Z</time>
      </trkpt>
      <trkpt lat="44.11113" lon="7.07365">
        <ele>1476</ele>
        <time>2017-05-25T08:44:18.000Z</time>
      </trkpt>
      <trkpt lat="44.11108" lon="7.07362">
        <ele>1476</ele>
        <time>2017-05-25T08:44:21.000Z</time>
      </trkpt>
      <trkpt lat="44.11105" lon="7.07361">
        <ele>1477</ele>
        <time>2017-05-25T08:44:23.000Z</time>
      </trkpt>
      <trkpt lat="44.11099" lon="7.07359">
        <ele>1477</ele>
        <time>2017-05-25T08:44:27.000Z</time>
      </trkpt>
      <trkpt lat="44.11097" lon="7.07359">
        <ele>1478</ele>
        <time>2017-05-25T08:44:28.000Z</time>
      </trkpt>
      <trkpt lat="44.11089" lon="7.07357">
        <ele>1479</ele>
        <time>2017-05-25T08:44:33.000Z</time>
      </trkpt>
      <trkpt lat="44.11085" lon="7.07356">
        <ele>1479</ele>
        <time>2017-05-25T08:44:35.000Z</time>
      </trkpt>
      <trkpt lat="44.11078" lon="7.07354">
        <ele>1479</ele>
        <time>2017-05-25T08:44:39.000Z</time>
      </trkpt>
      <trkpt lat="44.11071" lon="7.07351">
        <ele>1479</ele>
        <time>2017-05-25T08:44:43.000Z</time>
      </trkpt>
      <trkpt lat="44.11068" lon="7.0735">
        <ele>1479</ele>
        <time>2017-05-25T08:44:45.000Z</time>
      </trkpt>
      <trkpt lat="44.1106" lon="7.07347">
        <ele>1479</ele>
        <time>2017-05-25T08:44:50.000Z</time>
      </trkpt>
      <trkpt lat="44.1105" lon="7.07342">
        <ele>1478</ele>
        <time>2017-05-25T08:44:56.000Z</time>
      </trkpt>
      <trkpt lat="44.11044" lon="7.07341">
        <ele>1478</ele>
        <time>2017-05-25T08:44:59.000Z</time>
      </trkpt>
      <trkpt lat="44.11034" lon="7.07338">
        <ele>1479</ele>
        <time>2017-05-25T08:45:04.000Z</time>
      </trkpt>
      <trkpt lat="44.11029" lon="7.07337">
        <ele>1479</ele>
        <time>2017-05-25T08:45:07.000Z</time>
      </trkpt>
      <trkpt lat="44.11025" lon="7.07336">
        <ele>1480</ele>
        <time>2017-05-25T08:45:09.000Z</time>
      </trkpt>
      <trkpt lat="44.11014" lon="7.07334">
        <ele>1483</ele>
        <time>2017-05-25T08:45:15.000Z</time>
      </trkpt>
      <trkpt lat="44.10994" lon="7.07331">
        <ele>1495</ele>
        <time>2017-05-25T08:45:25.000Z</time>
      </trkpt>
      <trkpt lat="44.10992" lon="7.07331">
        <ele>1496</ele>
        <time>2017-05-25T08:45:26.000Z</time>
      </trkpt>
      <trkpt lat="44.10984" lon="7.07329">
        <ele>1502</ele>
        <time>2017-05-25T08:45:31.000Z</time>
      </trkpt>
      <trkpt lat="44.10983" lon="7.07328">
        <ele>1502</ele>
        <time>2017-05-25T08:45:32.000Z</time>
      </trkpt>
      <trkpt lat="44.10974" lon="7.07327">
        <ele>1506</ele>
        <time>2017-05-25T08:45:37.000Z</time>
      </trkpt>
      <trkpt lat="44.1097" lon="7.07326">
        <ele>1507</ele>
        <time>2017-05-25T08:45:39.000Z</time>
      </trkpt>
      <trkpt lat="44.10961" lon="7.07327">
        <ele>1509</ele>
        <time>2017-05-25T08:45:44.000Z</time>
      </trkpt>
      <trkpt lat="44.10959" lon="7.07327">
        <ele>1510</ele>
        <time>2017-05-25T08:45:45.000Z</time>
      </trkpt>
      <trkpt lat="44.10949" lon="7.07329">
        <ele>1511</ele>
        <time>2017-05-25T08:45:51.000Z</time>
      </trkpt>
      <trkpt lat="44.10944" lon="7.07332">
        <ele>1511</ele>
        <time>2017-05-25T08:45:54.000Z</time>
      </trkpt>
      <trkpt lat="44.10937" lon="7.07338">
        <ele>1496</ele>
        <time>2017-05-25T08:45:58.000Z</time>
      </trkpt>
      <trkpt lat="44.10929" lon="7.07345">
        <ele>1498</ele>
        <time>2017-05-25T08:46:03.000Z</time>
      </trkpt>
      <trkpt lat="44.10926" lon="7.07348">
        <ele>1497</ele>
        <time>2017-05-25T08:46:05.000Z</time>
      </trkpt>
      <trkpt lat="44.10919" lon="7.07357">
        <ele>1495</ele>
        <time>2017-05-25T08:46:10.000Z</time>
      </trkpt>
      <trkpt lat="44.10914" lon="7.07361">
        <ele>1508</ele>
        <time>2017-05-25T08:46:13.000Z</time>
      </trkpt>
      <trkpt lat="44.10909" lon="7.07366">
        <ele>1508</ele>
        <time>2017-05-25T08:46:16.000Z</time>
      </trkpt>
      <trkpt lat="44.10902" lon="7.07373">
        <ele>1507</ele>
        <time>2017-05-25T08:46:21.000Z</time>
      </trkpt>
      <trkpt lat="44.10894" lon="7.07381">
        <ele>1507</ele>
        <time>2017-05-25T08:46:26.000Z</time>
      </trkpt>
      <trkpt lat="44.1089" lon="7.07385">
        <ele>1507</ele>
        <time>2017-05-25T08:46:28.000Z</time>
      </trkpt>
      <trkpt lat="44.10879" lon="7.07395">
        <ele>1507</ele>
        <time>2017-05-25T08:46:34.000Z</time>
      </trkpt>
      <trkpt lat="44.10876" lon="7.07399">
        <ele>1508</ele>
        <time>2017-05-25T08:46:36.000Z</time>
      </trkpt>
      <trkpt lat="44.10865" lon="7.07407">
        <ele>1509</ele>
        <time>2017-05-25T08:46:42.000Z</time>
      </trkpt>
      <trkpt lat="44.10863" lon="7.07409">
        <ele>1510</ele>
        <time>2017-05-25T08:46:43.000Z</time>
      </trkpt>
      <trkpt lat="44.10854" lon="7.07416">
        <ele>1511</ele>
        <time>2017-05-25T08:46:48.000Z</time>
      </trkpt>
      <trkpt lat="44.10844" lon="7.07423">
        <ele>1504</ele>
        <time>2017-05-25T08:46:54.000Z</time>
      </trkpt>
      <trkpt lat="44.10835" lon="7.07429">
        <ele>1504</ele>
        <time>2017-05-25T08:46:59.000Z</time>
      </trkpt>
      <trkpt lat="44.1083" lon="7.07432">
        <ele>1516</ele>
        <time>2017-05-25T08:47:02.000Z</time>
      </trkpt>
      <trkpt lat="44.10824" lon="7.07436">
        <ele>1517</ele>
        <time>2017-05-25T08:47:05.000Z</time>
      </trkpt>
      <trkpt lat="44.10818" lon="7.07441">
        <ele>1517</ele>
        <time>2017-05-25T08:47:09.000Z</time>
      </trkpt>
      <trkpt lat="44.10816" lon="7.07442">
        <ele>1517</ele>
        <time>2017-05-25T08:47:10.000Z</time>
      </trkpt>
      <trkpt lat="44.10806" lon="7.07451">
        <ele>1518</ele>
        <time>2017-05-25T08:47:16.000Z</time>
      </trkpt>
      <trkpt lat="44.10804" lon="7.07452">
        <ele>1518</ele>
        <time>2017-05-25T08:47:17.000Z</time>
      </trkpt>
      <trkpt lat="44.10798" lon="7.07459">
        <ele>1518</ele>
        <time>2017-05-25T08:47:21.000Z</time>
      </trkpt>
      <trkpt lat="44.10793" lon="7.07463">
        <ele>1519</ele>
        <time>2017-05-25T08:47:24.000Z</time>
      </trkpt>
      <trkpt lat="44.1079" lon="7.07467">
        <ele>1519</ele>
        <time>2017-05-25T08:47:27.000Z</time>
      </trkpt>
      <trkpt lat="44.10786" lon="7.0747">
        <ele>1519</ele>
        <time>2017-05-25T08:47:30.000Z</time>
      </trkpt>
      <trkpt lat="44.10785" lon="7.07471">
        <ele>1519</ele>
        <time>2017-05-25T08:47:31.000Z</time>
      </trkpt>
      <trkpt lat="44.10778" lon="7.07479">
        <ele>1520</ele>
        <time>2017-05-25T08:47:37.000Z</time>
      </trkpt>
      <trkpt lat="44.10776" lon="7.0748">
        <ele>1520</ele>
        <time>2017-05-25T08:47:38.000Z</time>
      </trkpt>
      <trkpt lat="44.10768" lon="7.0749">
        <ele>1520</ele>
        <time>2017-05-25T08:47:44.000Z</time>
      </trkpt>
      <trkpt lat="44.10765" lon="7.07493">
        <ele>1521</ele>
        <time>2017-05-25T08:47:46.000Z</time>
      </trkpt>
      <trkpt lat="44.10758" lon="7.075">
        <ele>1521</ele>
        <time>2017-05-25T08:47:52.000Z</time>
      </trkpt>
      <trkpt lat="44.10756" lon="7.07501">
        <ele>1516</ele>
        <time>2017-05-25T08:47:53.000Z</time>
      </trkpt>
      <trkpt lat="44.10748" lon="7.07511">
        <ele>1525</ele>
        <time>2017-05-25T08:48:00.000Z</time>
      </trkpt>
      <trkpt lat="44.10746" lon="7.07513">
        <ele>1526</ele>
        <time>2017-05-25T08:48:02.000Z</time>
      </trkpt>
      <trkpt lat="44.10739" lon="7.07523">
        <ele>1528</ele>
        <time>2017-05-25T08:48:08.000Z</time>
      </trkpt>
      <trkpt lat="44.10737" lon="7.07526">
        <ele>1528</ele>
        <time>2017-05-25T08:48:10.000Z</time>
      </trkpt>
      <trkpt lat="44.10733" lon="7.0753">
        <ele>1528</ele>
        <time>2017-05-25T08:48:13.000Z</time>
      </trkpt>
      <trkpt lat="44.10729" lon="7.07537">
        <ele>1528</ele>
        <time>2017-05-25T08:48:17.000Z</time>
      </trkpt>
      <trkpt lat="44.10725" lon="7.07542">
        <ele>1528</ele>
        <time>2017-05-25T08:48:20.000Z</time>
      </trkpt>
      <trkpt lat="44.10721" lon="7.07547">
        <ele>1528</ele>
        <time>2017-05-25T08:48:23.000Z</time>
      </trkpt>
      <trkpt lat="44.10716" lon="7.07555">
        <ele>1529</ele>
        <time>2017-05-25T08:48:28.000Z</time>
      </trkpt>
      <trkpt lat="44.10714" lon="7.07558">
        <ele>1529</ele>
        <time>2017-05-25T08:48:30.000Z</time>
      </trkpt>
      <trkpt lat="44.1071" lon="7.07562">
        <ele>1529</ele>
        <time>2017-05-25T08:48:33.000Z</time>
      </trkpt>
      <trkpt lat="44.10704" lon="7.0757">
        <ele>1530</ele>
        <time>2017-05-25T08:48:38.000Z</time>
      </trkpt>
      <trkpt lat="44.10699" lon="7.07577">
        <ele>1531</ele>
        <time>2017-05-25T08:48:42.000Z</time>
      </trkpt>
      <trkpt lat="44.10692" lon="7.07587">
        <ele>1519</ele>
        <time>2017-05-25T08:48:47.000Z</time>
      </trkpt>
      <trkpt lat="44.10689" lon="7.07591">
        <ele>1521</ele>
        <time>2017-05-25T08:48:49.000Z</time>
      </trkpt>
      <trkpt lat="44.10682" lon="7.07601">
        <ele>1521</ele>
        <time>2017-05-25T08:48:54.000Z</time>
      </trkpt>
      <trkpt lat="44.10672" lon="7.07614">
        <ele>1519</ele>
        <time>2017-05-25T08:49:01.000Z</time>
      </trkpt>
      <trkpt lat="44.10667" lon="7.07619">
        <ele>1518</ele>
        <time>2017-05-25T08:49:04.000Z</time>
      </trkpt>
      <trkpt lat="44.10664" lon="7.07622">
        <ele>1542</ele>
        <time>2017-05-25T08:49:06.000Z</time>
      </trkpt>
      <trkpt lat="44.10655" lon="7.07629">
        <ele>1542</ele>
        <time>2017-05-25T08:49:11.000Z</time>
      </trkpt>
      <trkpt lat="44.10646" lon="7.07636">
        <ele>1543</ele>
        <time>2017-05-25T08:49:16.000Z</time>
      </trkpt>
      <trkpt lat="44.10642" lon="7.07639">
        <ele>1543</ele>
        <time>2017-05-25T08:49:18.000Z</time>
      </trkpt>
      <trkpt lat="44.10631" lon="7.07654">
        <ele>1544</ele>
        <time>2017-05-25T08:49:25.000Z</time>
      </trkpt>
      <trkpt lat="44.10619" lon="7.07669">
        <ele>1537</ele>
        <time>2017-05-25T08:49:32.000Z</time>
      </trkpt>
      <trkpt lat="44.10617" lon="7.07674">
        <ele>1538</ele>
        <time>2017-05-25T08:49:34.000Z</time>
      </trkpt>
      <trkpt lat="44.10613" lon="7.07683">
        <ele>1539</ele>
        <time>2017-05-25T08:49:38.000Z</time>
      </trkpt>
      <trkpt lat="44.10611" lon="7.07687">
        <ele>1539</ele>
        <time>2017-05-25T08:49:40.000Z</time>
      </trkpt>
      <trkpt lat="44.10606" lon="7.07697">
        <ele>1539</ele>
        <time>2017-05-25T08:49:45.000Z</time>
      </trkpt>
      <trkpt lat="44.10605" lon="7.07699">
        <ele>1539</ele>
        <time>2017-05-25T08:49:46.000Z</time>
      </trkpt>
      <trkpt lat="44.10599" lon="7.07714">
        <ele>1539</ele>
        <time>2017-05-25T08:49:53.000Z</time>
      </trkpt>
      <trkpt lat="44.10598" lon="7.07718">
        <ele>1539</ele>
        <time>2017-05-25T08:49:55.000Z</time>
      </trkpt>
      <trkpt lat="44.10597" lon="7.07722">
        <ele>1539</ele>
        <time>2017-05-25T08:49:57.000Z</time>
      </trkpt>
      <trkpt lat="44.10594" lon="7.07729">
        <ele>1540</ele>
        <time>2017-05-25T08:50:01.000Z</time>
      </trkpt>
      <trkpt lat="44.10594" lon="7.0773">
        <ele>1540</ele>
        <time>2017-05-25T08:50:02.000Z</time>
      </trkpt>
      <trkpt lat="44.1059" lon="7.07742">
        <ele>1544</ele>
        <time>2017-05-25T08:50:07.000Z</time>
      </trkpt>
      <trkpt lat="44.10589" lon="7.07747">
        <ele>1545</ele>
        <time>2017-05-25T08:50:09.000Z</time>
      </trkpt>
      <trkpt lat="44.10587" lon="7.07755">
        <ele>1543</ele>
        <time>2017-05-25T08:50:13.000Z</time>
      </trkpt>
      <trkpt lat="44.10586" lon="7.07759">
        <ele>1541</ele>
        <time>2017-05-25T08:50:15.000Z</time>
      </trkpt>
      <trkpt lat="44.10585" lon="7.07761">
        <ele>1540</ele>
        <time>2017-05-25T08:50:16.000Z</time>
      </trkpt>
      <trkpt lat="44.10583" lon="7.07769">
        <ele>1557</ele>
        <time>2017-05-25T08:50:20.000Z</time>
      </trkpt>
      <trkpt lat="44.10581" lon="7.07775">
        <ele>1558</ele>
        <time>2017-05-25T08:50:23.000Z</time>
      </trkpt>
      <trkpt lat="44.1058" lon="7.07778">
        <ele>1558</ele>
        <time>2017-05-25T08:50:24.000Z</time>
      </trkpt>
      <trkpt lat="44.10575" lon="7.07793">
        <ele>1559</ele>
        <time>2017-05-25T08:50:31.000Z</time>
      </trkpt>
      <trkpt lat="44.10569" lon="7.07805">
        <ele>1558</ele>
        <time>2017-05-25T08:50:37.000Z</time>
      </trkpt>
      <trkpt lat="44.10568" lon="7.07807">
        <ele>1558</ele>
        <time>2017-05-25T08:50:38.000Z</time>
      </trkpt>
      <trkpt lat="44.10564" lon="7.07818">
        <ele>1557</ele>
        <time>2017-05-25T08:50:43.000Z</time>
      </trkpt>
      <trkpt lat="44.1056" lon="7.07824">
        <ele>1558</ele>
        <time>2017-05-25T08:50:46.000Z</time>
      </trkpt>
      <trkpt lat="44.10556" lon="7.07835">
        <ele>1553</ele>
        <time>2017-05-25T08:50:51.000Z</time>
      </trkpt>
      <trkpt lat="44.10553" lon="7.07842">
        <ele>1553</ele>
        <time>2017-05-25T08:50:54.000Z</time>
      </trkpt>
      <trkpt lat="44.10552" lon="7.07844">
        <ele>1554</ele>
        <time>2017-05-25T08:50:55.000Z</time>
      </trkpt>
      <trkpt lat="44.10546" lon="7.07861">
        <ele>1555</ele>
        <time>2017-05-25T08:51:02.000Z</time>
      </trkpt>
      <trkpt lat="44.10543" lon="7.07868">
        <ele>1555</ele>
        <time>2017-05-25T08:51:05.000Z</time>
      </trkpt>
      <trkpt lat="44.10539" lon="7.07875">
        <ele>1556</ele>
        <time>2017-05-25T08:51:09.000Z</time>
      </trkpt>
      <trkpt lat="44.10536" lon="7.07879">
        <ele>1556</ele>
        <time>2017-05-25T08:51:11.000Z</time>
      </trkpt>
      <trkpt lat="44.10532" lon="7.07889">
        <ele>1557</ele>
        <time>2017-05-25T08:51:15.000Z</time>
      </trkpt>
      <trkpt lat="44.10523" lon="7.07905">
        <ele>1559</ele>
        <time>2017-05-25T08:51:22.000Z</time>
      </trkpt>
      <trkpt lat="44.10517" lon="7.07916">
        <ele>1562</ele>
        <time>2017-05-25T08:51:27.000Z</time>
      </trkpt>
      <trkpt lat="44.10512" lon="7.07922">
        <ele>1555</ele>
        <time>2017-05-25T08:51:30.000Z</time>
      </trkpt>
      <trkpt lat="44.10504" lon="7.07933">
        <ele>1554</ele>
        <time>2017-05-25T08:51:36.000Z</time>
      </trkpt>
      <trkpt lat="44.10503" lon="7.07934">
        <ele>1553</ele>
        <time>2017-05-25T08:51:37.000Z</time>
      </trkpt>
      <trkpt lat="44.10495" lon="7.07942">
        <ele>1570</ele>
        <time>2017-05-25T08:51:42.000Z</time>
      </trkpt>
      <trkpt lat="44.1049" lon="7.07948">
        <ele>1570</ele>
        <time>2017-05-25T08:51:45.000Z</time>
      </trkpt>
      <trkpt lat="44.10488" lon="7.0795">
        <ele>1570</ele>
        <time>2017-05-25T08:51:46.000Z</time>
      </trkpt>
      <trkpt lat="44.10475" lon="7.07965">
        <ele>1569</ele>
        <time>2017-05-25T08:51:54.000Z</time>
      </trkpt>
      <trkpt lat="44.10465" lon="7.07975">
        <ele>1569</ele>
        <time>2017-05-25T08:52:00.000Z</time>
      </trkpt>
      <trkpt lat="44.10464" lon="7.07976">
        <ele>1570</ele>
        <time>2017-05-25T08:52:01.000Z</time>
      </trkpt>
      <trkpt lat="44.10459" lon="7.07981">
        <ele>1570</ele>
        <time>2017-05-25T08:52:04.000Z</time>
      </trkpt>
      <trkpt lat="44.10448" lon="7.07992">
        <ele>1572</ele>
        <time>2017-05-25T08:52:10.000Z</time>
      </trkpt>
      <trkpt lat="44.1044" lon="7.08001">
        <ele>1560</ele>
        <time>2017-05-25T08:52:15.000Z</time>
      </trkpt>
      <trkpt lat="44.10436" lon="7.08004">
        <ele>1562</ele>
        <time>2017-05-25T08:52:17.000Z</time>
      </trkpt>
      <trkpt lat="44.10433" lon="7.08008">
        <ele>1563</ele>
        <time>2017-05-25T08:52:19.000Z</time>
      </trkpt>
      <trkpt lat="44.10424" lon="7.08015">
        <ele>1563</ele>
        <time>2017-05-25T08:52:24.000Z</time>
      </trkpt>
      <trkpt lat="44.10423" lon="7.08016">
        <ele>1563</ele>
        <time>2017-05-25T08:52:25.000Z</time>
      </trkpt>
      <trkpt lat="44.10413" lon="7.08026">
        <ele>1577</ele>
        <time>2017-05-25T08:52:31.000Z</time>
      </trkpt>
      <trkpt lat="44.1041" lon="7.08029">
        <ele>1576</ele>
        <time>2017-05-25T08:52:33.000Z</time>
      </trkpt>
      <trkpt lat="44.10404" lon="7.08038">
        <ele>1575</ele>
        <time>2017-05-25T08:52:37.000Z</time>
      </trkpt>
      <trkpt lat="44.104" lon="7.08042">
        <ele>1575</ele>
        <time>2017-05-25T08:52:39.000Z</time>
      </trkpt>
      <trkpt lat="44.10392" lon="7.08049">
        <ele>1575</ele>
        <time>2017-05-25T08:52:44.000Z</time>
      </trkpt>
      <trkpt lat="44.10382" lon="7.08058">
        <ele>1575</ele>
        <time>2017-05-25T08:52:51.000Z</time>
      </trkpt>
      <trkpt lat="44.1038" lon="7.08059">
        <ele>1575</ele>
        <time>2017-05-25T08:52:52.000Z</time>
      </trkpt>
      <trkpt lat="44.10374" lon="7.08063">
        <ele>1576</ele>
        <time>2017-05-25T08:52:56.000Z</time>
      </trkpt>
      <trkpt lat="44.10373" lon="7.08064">
        <ele>1576</ele>
        <time>2017-05-25T08:52:57.000Z</time>
      </trkpt>
      <trkpt lat="44.10362" lon="7.08074">
        <ele>1578</ele>
        <time>2017-05-25T08:53:04.000Z</time>
      </trkpt>
      <trkpt lat="44.10352" lon="7.08083">
        <ele>1579</ele>
        <time>2017-05-25T08:53:11.000Z</time>
      </trkpt>
      <trkpt lat="44.1035" lon="7.08084">
        <ele>1567</ele>
        <time>2017-05-25T08:53:12.000Z</time>
      </trkpt>
      <trkpt lat="44.10343" lon="7.08091">
        <ele>1570</ele>
        <time>2017-05-25T08:53:17.000Z</time>
      </trkpt>
      <trkpt lat="44.10342" lon="7.08092">
        <ele>1571</ele>
        <time>2017-05-25T08:53:18.000Z</time>
      </trkpt>
      <trkpt lat="44.10338" lon="7.08094">
        <ele>1571</ele>
        <time>2017-05-25T08:53:21.000Z</time>
      </trkpt>
      <trkpt lat="44.10336" lon="7.08095">
        <ele>1571</ele>
        <time>2017-05-25T08:53:23.000Z</time>
      </trkpt>
      <trkpt lat="44.10331" lon="7.08096">
        <ele>1581</ele>
        <time>2017-05-25T08:53:26.000Z</time>
      </trkpt>
      <trkpt lat="44.10327" lon="7.08098">
        <ele>1581</ele>
        <time>2017-05-25T08:53:29.000Z</time>
      </trkpt>
      <trkpt lat="44.10322" lon="7.081">
        <ele>1581</ele>
        <time>2017-05-25T08:53:32.000Z</time>
      </trkpt>
      <trkpt lat="44.10315" lon="7.08104">
        <ele>1581</ele>
        <time>2017-05-25T08:53:37.000Z</time>
      </trkpt>
      <trkpt lat="44.10313" lon="7.08105">
        <ele>1581</ele>
        <time>2017-05-25T08:53:38.000Z</time>
      </trkpt>
      <trkpt lat="44.10302" lon="7.08112">
        <ele>1582</ele>
        <time>2017-05-25T08:53:46.000Z</time>
      </trkpt>
      <trkpt lat="44.10299" lon="7.08115">
        <ele>1582</ele>
        <time>2017-05-25T08:53:48.000Z</time>
      </trkpt>
      <trkpt lat="44.10293" lon="7.0812">
        <ele>1582</ele>
        <time>2017-05-25T08:53:53.000Z</time>
      </trkpt>
      <trkpt lat="44.10291" lon="7.08123">
        <ele>1582</ele>
        <time>2017-05-25T08:53:55.000Z</time>
      </trkpt>
      <trkpt lat="44.10284" lon="7.08131">
        <ele>1582</ele>
        <time>2017-05-25T08:54:01.000Z</time>
      </trkpt>
      <trkpt lat="44.10281" lon="7.08134">
        <ele>1582</ele>
        <time>2017-05-25T08:54:04.000Z</time>
      </trkpt>
      <trkpt lat="44.10277" lon="7.08139">
        <ele>1582</ele>
        <time>2017-05-25T08:54:08.000Z</time>
      </trkpt>
      <trkpt lat="44.10272" lon="7.08146">
        <ele>1582</ele>
        <time>2017-05-25T08:54:13.000Z</time>
      </trkpt>
      <trkpt lat="44.10269" lon="7.08149">
        <ele>1582</ele>
        <time>2017-05-25T08:54:16.000Z</time>
      </trkpt>
      <trkpt lat="44.10265" lon="7.08154">
        <ele>1583</ele>
        <time>2017-05-25T08:54:20.000Z</time>
      </trkpt>
      <trkpt lat="44.10263" lon="7.08156">
        <ele>1583</ele>
        <time>2017-05-25T08:54:22.000Z</time>
      </trkpt>
      <trkpt lat="44.1026" lon="7.0816">
        <ele>1583</ele>
        <time>2017-05-25T08:54:25.000Z</time>
      </trkpt>
      <trkpt lat="44.10256" lon="7.08164">
        <ele>1584</ele>
        <time>2017-05-25T08:54:29.000Z</time>
      </trkpt>
      <trkpt lat="44.10248" lon="7.08171">
        <ele>1584</ele>
        <time>2017-05-25T08:54:37.000Z</time>
      </trkpt>
      <trkpt lat="44.10242" lon="7.08177">
        <ele>1583</ele>
        <time>2017-05-25T08:54:43.000Z</time>
      </trkpt>
      <trkpt lat="44.10241" lon="7.08179">
        <ele>1582</ele>
        <time>2017-05-25T08:54:45.000Z</time>
      </trkpt>
      <trkpt lat="44.10238" lon="7.08182">
        <ele>1582</ele>
        <time>2017-05-25T08:54:48.000Z</time>
      </trkpt>
      <trkpt lat="44.10233" lon="7.08185">
        <ele>1582</ele>
        <time>2017-05-25T08:54:52.000Z</time>
      </trkpt>
      <trkpt lat="44.10229" lon="7.08189">
        <ele>1581</ele>
        <time>2017-05-25T08:54:56.000Z</time>
      </trkpt>
      <trkpt lat="44.10225" lon="7.08192">
        <ele>1581</ele>
        <time>2017-05-25T08:55:00.000Z</time>
      </trkpt>
      <trkpt lat="44.10224" lon="7.08194">
        <ele>1581</ele>
        <time>2017-05-25T08:55:02.000Z</time>
      </trkpt>
      <trkpt lat="44.1022" lon="7.08197">
        <ele>1581</ele>
        <time>2017-05-25T08:55:06.000Z</time>
      </trkpt>
      <trkpt lat="44.10218" lon="7.08199">
        <ele>1580</ele>
        <time>2017-05-25T08:55:08.000Z</time>
      </trkpt>
      <trkpt lat="44.10215" lon="7.08201">
        <ele>1580</ele>
        <time>2017-05-25T08:55:11.000Z</time>
      </trkpt>
      <trkpt lat="44.10212" lon="7.08202">
        <ele>1581</ele>
        <time>2017-05-25T08:55:14.000Z</time>
      </trkpt>
      <trkpt lat="44.10207" lon="7.082">
        <ele>1581</ele>
        <time>2017-05-25T08:55:18.000Z</time>
      </trkpt>
      <trkpt lat="44.10206" lon="7.08198">
        <ele>1582</ele>
        <time>2017-05-25T08:55:20.000Z</time>
      </trkpt>
      <trkpt lat="44.10205" lon="7.08191">
        <ele>1583</ele>
        <time>2017-05-25T08:55:24.000Z</time>
      </trkpt>
      <trkpt lat="44.10206" lon="7.08186">
        <ele>1584</ele>
        <time>2017-05-25T08:55:28.000Z</time>
      </trkpt>
      <trkpt lat="44.10208" lon="7.08182">
        <ele>1584</ele>
        <time>2017-05-25T08:55:31.000Z</time>
      </trkpt>
      <trkpt lat="44.10211" lon="7.08176">
        <ele>1584</ele>
        <time>2017-05-25T08:55:35.000Z</time>
      </trkpt>
      <trkpt lat="44.10212" lon="7.08174">
        <ele>1584</ele>
        <time>2017-05-25T08:55:37.000Z</time>
      </trkpt>
      <trkpt lat="44.10219" lon="7.08166">
        <ele>1599</ele>
        <time>2017-05-25T08:55:43.000Z</time>
      </trkpt>
      <trkpt lat="44.1022" lon="7.08163">
        <ele>1599</ele>
        <time>2017-05-25T08:55:45.000Z</time>
      </trkpt>
      <trkpt lat="44.10221" lon="7.08162">
        <ele>1599</ele>
        <time>2017-05-25T08:55:46.000Z</time>
      </trkpt>
      <trkpt lat="44.10225" lon="7.08155">
        <ele>1599</ele>
        <time>2017-05-25T08:55:51.000Z</time>
      </trkpt>
      <trkpt lat="44.10229" lon="7.08149">
        <ele>1599</ele>
        <time>2017-05-25T08:55:55.000Z</time>
      </trkpt>
      <trkpt lat="44.10233" lon="7.08144">
        <ele>1599</ele>
        <time>2017-05-25T08:55:58.000Z</time>
      </trkpt>
      <trkpt lat="44.10235" lon="7.08139">
        <ele>1600</ele>
        <time>2017-05-25T08:56:02.000Z</time>
      </trkpt>
      <trkpt lat="44.10237" lon="7.08135">
        <ele>1600</ele>
        <time>2017-05-25T08:56:04.000Z</time>
      </trkpt>
      <trkpt lat="44.10238" lon="7.08134">
        <ele>1600</ele>
        <time>2017-05-25T08:56:05.000Z</time>
      </trkpt>
      <trkpt lat="44.10239" lon="7.08133">
        <ele>1601</ele>
        <time>2017-05-25T08:56:06.000Z</time>
      </trkpt>
      <trkpt lat="44.10242" lon="7.08127">
        <ele>1601</ele>
        <time>2017-05-25T08:56:10.000Z</time>
      </trkpt>
      <trkpt lat="44.10244" lon="7.08124">
        <ele>1602</ele>
        <time>2017-05-25T08:56:12.000Z</time>
      </trkpt>
      <trkpt lat="44.10247" lon="7.08118">
        <ele>1603</ele>
        <time>2017-05-25T08:56:16.000Z</time>
      </trkpt>
      <trkpt lat="44.1025" lon="7.08111">
        <ele>1604</ele>
        <time>2017-05-25T08:56:20.000Z</time>
      </trkpt>
      <trkpt lat="44.10252" lon="7.08104">
        <ele>1593</ele>
        <time>2017-05-25T08:56:24.000Z</time>
      </trkpt>
      <trkpt lat="44.10253" lon="7.08103">
        <ele>1593</ele>
        <time>2017-05-25T08:56:25.000Z</time>
      </trkpt>
      <trkpt lat="44.10255" lon="7.08097">
        <ele>1596</ele>
        <time>2017-05-25T08:56:29.000Z</time>
      </trkpt>
      <trkpt lat="44.10256" lon="7.08096">
        <ele>1596</ele>
        <time>2017-05-25T08:56:30.000Z</time>
      </trkpt>
      <trkpt lat="44.10259" lon="7.08087">
        <ele>1598</ele>
        <time>2017-05-25T08:56:35.000Z</time>
      </trkpt>
      <trkpt lat="44.10262" lon="7.08081">
        <ele>1605</ele>
        <time>2017-05-25T08:56:38.000Z</time>
      </trkpt>
      <trkpt lat="44.10266" lon="7.08072">
        <ele>1605</ele>
        <time>2017-05-25T08:56:43.000Z</time>
      </trkpt>
      <trkpt lat="44.10273" lon="7.08063">
        <ele>1605</ele>
        <time>2017-05-25T08:56:49.000Z</time>
      </trkpt>
      <trkpt lat="44.10275" lon="7.0806">
        <ele>1605</ele>
        <time>2017-05-25T08:56:51.000Z</time>
      </trkpt>
      <trkpt lat="44.10282" lon="7.08052">
        <ele>1605</ele>
        <time>2017-05-25T08:56:57.000Z</time>
      </trkpt>
      <trkpt lat="44.10289" lon="7.08046">
        <ele>1605</ele>
        <time>2017-05-25T08:57:02.000Z</time>
      </trkpt>
      <trkpt lat="44.10297" lon="7.08039">
        <ele>1605</ele>
        <time>2017-05-25T08:57:07.000Z</time>
      </trkpt>
      <trkpt lat="44.10307" lon="7.08027">
        <ele>1605</ele>
        <time>2017-05-25T08:57:15.000Z</time>
      </trkpt>
      <trkpt lat="44.10311" lon="7.08022">
        <ele>1605</ele>
        <time>2017-05-25T08:57:18.000Z</time>
      </trkpt>
      <trkpt lat="44.10316" lon="7.08015">
        <ele>1606</ele>
        <time>2017-05-25T08:57:22.000Z</time>
      </trkpt>
      <trkpt lat="44.1032" lon="7.08011">
        <ele>1606</ele>
        <time>2017-05-25T08:57:25.000Z</time>
      </trkpt>
      <trkpt lat="44.10324" lon="7.08006">
        <ele>1606</ele>
        <time>2017-05-25T08:57:28.000Z</time>
      </trkpt>
      <trkpt lat="44.10328" lon="7.08">
        <ele>1606</ele>
        <time>2017-05-25T08:57:32.000Z</time>
      </trkpt>
      <trkpt lat="44.10332" lon="7.07994">
        <ele>1611</ele>
        <time>2017-05-25T08:57:35.000Z</time>
      </trkpt>
      <trkpt lat="44.10337" lon="7.07987">
        <ele>1605</ele>
        <time>2017-05-25T08:57:39.000Z</time>
      </trkpt>
      <trkpt lat="44.1034" lon="7.07982">
        <ele>1605</ele>
        <time>2017-05-25T08:57:42.000Z</time>
      </trkpt>
      <trkpt lat="44.10346" lon="7.0797">
        <ele>1605</ele>
        <time>2017-05-25T08:57:48.000Z</time>
      </trkpt>
      <trkpt lat="44.10347" lon="7.07968">
        <ele>1605</ele>
        <time>2017-05-25T08:57:49.000Z</time>
      </trkpt>
      <trkpt lat="44.10353" lon="7.07958">
        <ele>1605</ele>
        <time>2017-05-25T08:57:55.000Z</time>
      </trkpt>
      <trkpt lat="44.10356" lon="7.07954">
        <ele>1606</ele>
        <time>2017-05-25T08:57:58.000Z</time>
      </trkpt>
      <trkpt lat="44.10359" lon="7.07948">
        <ele>1606</ele>
        <time>2017-05-25T08:58:02.000Z</time>
      </trkpt>
      <trkpt lat="44.10362" lon="7.07942">
        <ele>1607</ele>
        <time>2017-05-25T08:58:06.000Z</time>
      </trkpt>
      <trkpt lat="44.10364" lon="7.07939">
        <ele>1607</ele>
        <time>2017-05-25T08:58:08.000Z</time>
      </trkpt>
      <trkpt lat="44.1037" lon="7.07929">
        <ele>1606</ele>
        <time>2017-05-25T08:58:15.000Z</time>
      </trkpt>
      <trkpt lat="44.10371" lon="7.07927">
        <ele>1606</ele>
        <time>2017-05-25T08:58:16.000Z</time>
      </trkpt>
      <trkpt lat="44.10376" lon="7.07917">
        <ele>1606</ele>
        <time>2017-05-25T08:58:21.000Z</time>
      </trkpt>
      <trkpt lat="44.1038" lon="7.07911">
        <ele>1616</ele>
        <time>2017-05-25T08:58:24.000Z</time>
      </trkpt>
      <trkpt lat="44.10383" lon="7.07902">
        <ele>1616</ele>
        <time>2017-05-25T08:58:28.000Z</time>
      </trkpt>
      <trkpt lat="44.10389" lon="7.07885">
        <ele>1617</ele>
        <time>2017-05-25T08:58:35.000Z</time>
      </trkpt>
      <trkpt lat="44.10395" lon="7.07871">
        <ele>1618</ele>
        <time>2017-05-25T08:58:41.000Z</time>
      </trkpt>
      <trkpt lat="44.10398" lon="7.0786">
        <ele>1618</ele>
        <time>2017-05-25T08:58:46.000Z</time>
      </trkpt>
      <trkpt lat="44.10399" lon="7.07856">
        <ele>1618</ele>
        <time>2017-05-25T08:58:48.000Z</time>
      </trkpt>
      <trkpt lat="44.10401" lon="7.07849">
        <ele>1618</ele>
        <time>2017-05-25T08:58:51.000Z</time>
      </trkpt>
      <trkpt lat="44.10402" lon="7.07847">
        <ele>1618</ele>
        <time>2017-05-25T08:58:52.000Z</time>
      </trkpt>
      <trkpt lat="44.10403" lon="7.07843">
        <ele>1618</ele>
        <time>2017-05-25T08:58:54.000Z</time>
      </trkpt>
      <trkpt lat="44.10405" lon="7.0783">
        <ele>1622</ele>
        <time>2017-05-25T08:59:00.000Z</time>
      </trkpt>
      <trkpt lat="44.10406" lon="7.07827">
        <ele>1623</ele>
        <time>2017-05-25T08:59:01.000Z</time>
      </trkpt>
      <trkpt lat="44.10406" lon="7.07807">
        <ele>1627</ele>
        <time>2017-05-25T08:59:09.000Z</time>
      </trkpt>
      <trkpt lat="44.10405" lon="7.07784">
        <ele>1630</ele>
        <time>2017-05-25T08:59:18.000Z</time>
      </trkpt>
      <trkpt lat="44.10405" lon="7.07768">
        <ele>1630</ele>
        <time>2017-05-25T08:59:25.000Z</time>
      </trkpt>
      <trkpt lat="44.10405" lon="7.07766">
        <ele>1630</ele>
        <time>2017-05-25T08:59:26.000Z</time>
      </trkpt>
      <trkpt lat="44.10405" lon="7.07755">
        <ele>1629</ele>
        <time>2017-05-25T08:59:31.000Z</time>
      </trkpt>
      <trkpt lat="44.10404" lon="7.07752">
        <ele>1629</ele>
        <time>2017-05-25T08:59:32.000Z</time>
      </trkpt>
      <trkpt lat="44.10405" lon="7.0774">
        <ele>1635</ele>
        <time>2017-05-25T08:59:38.000Z</time>
      </trkpt>
      <trkpt lat="44.10406" lon="7.07731">
        <ele>1637</ele>
        <time>2017-05-25T08:59:42.000Z</time>
      </trkpt>
      <trkpt lat="44.10407" lon="7.07728">
        <ele>1638</ele>
        <time>2017-05-25T08:59:43.000Z</time>
      </trkpt>
      <trkpt lat="44.10407" lon="7.07726">
        <ele>1638</ele>
        <time>2017-05-25T08:59:44.000Z</time>
      </trkpt>
      <trkpt lat="44.10408" lon="7.07721">
        <ele>1639</ele>
        <time>2017-05-25T08:59:46.000Z</time>
      </trkpt>
      <trkpt lat="44.10408" lon="7.07717">
        <ele>1640</ele>
        <time>2017-05-25T08:59:48.000Z</time>
      </trkpt>
      <trkpt lat="44.1041" lon="7.07711">
        <ele>1641</ele>
        <time>2017-05-25T08:59:51.000Z</time>
      </trkpt>
      <trkpt lat="44.10411" lon="7.07707">
        <ele>1641</ele>
        <time>2017-05-25T08:59:53.000Z</time>
      </trkpt>
      <trkpt lat="44.10413" lon="7.07699">
        <ele>1641</ele>
        <time>2017-05-25T08:59:57.000Z</time>
      </trkpt>
      <trkpt lat="44.10414" lon="7.07697">
        <ele>1641</ele>
        <time>2017-05-25T08:59:58.000Z</time>
      </trkpt>
      <trkpt lat="44.10416" lon="7.07689">
        <ele>1641</ele>
        <time>2017-05-25T09:00:02.000Z</time>
      </trkpt>
      <trkpt lat="44.10416" lon="7.07687">
        <ele>1640</ele>
        <time>2017-05-25T09:00:03.000Z</time>
      </trkpt>
      <trkpt lat="44.10417" lon="7.07685">
        <ele>1624</ele>
        <time>2017-05-25T09:00:04.000Z</time>
      </trkpt>
      <trkpt lat="44.10419" lon="7.07678">
        <ele>1627</ele>
        <time>2017-05-25T09:00:08.000Z</time>
      </trkpt>
      <trkpt lat="44.1042" lon="7.07675">
        <ele>1628</ele>
        <time>2017-05-25T09:00:09.000Z</time>
      </trkpt>
      <trkpt lat="44.10425" lon="7.07663">
        <ele>1632</ele>
        <time>2017-05-25T09:00:16.000Z</time>
      </trkpt>
      <trkpt lat="44.10426" lon="7.07661">
        <ele>1631</ele>
        <time>2017-05-25T09:00:17.000Z</time>
      </trkpt>
      <trkpt lat="44.10428" lon="7.07654">
        <ele>1630</ele>
        <time>2017-05-25T09:00:22.000Z</time>
      </trkpt>
      <trkpt lat="44.10429" lon="7.07651">
        <ele>1630</ele>
        <time>2017-05-25T09:00:24.000Z</time>
      </trkpt>
      <trkpt lat="44.10432" lon="7.07644">
        <ele>1629</ele>
        <time>2017-05-25T09:00:28.000Z</time>
      </trkpt>
      <trkpt lat="44.10434" lon="7.07639">
        <ele>1629</ele>
        <time>2017-05-25T09:00:31.000Z</time>
      </trkpt>
      <trkpt lat="44.10435" lon="7.07634">
        <ele>1629</ele>
        <time>2017-05-25T09:00:34.000Z</time>
      </trkpt>
      <trkpt lat="44.10436" lon="7.07632">
        <ele>1629</ele>
        <time>2017-05-25T09:00:35.000Z</time>
      </trkpt>
      <trkpt lat="44.10436" lon="7.07628">
        <ele>1629</ele>
        <time>2017-05-25T09:00:37.000Z</time>
      </trkpt>
      <trkpt lat="44.1044" lon="7.07621">
        <ele>1629</ele>
        <time>2017-05-25T09:00:41.000Z</time>
      </trkpt>
      <trkpt lat="44.10444" lon="7.07612">
        <ele>1630</ele>
        <time>2017-05-25T09:00:46.000Z</time>
      </trkpt>
      <trkpt lat="44.10445" lon="7.07611">
        <ele>1630</ele>
        <time>2017-05-25T09:00:47.000Z</time>
      </trkpt>
      <trkpt lat="44.10449" lon="7.07603">
        <ele>1630</ele>
        <time>2017-05-25T09:00:52.000Z</time>
      </trkpt>
      <trkpt lat="44.10451" lon="7.07598">
        <ele>1630</ele>
        <time>2017-05-25T09:00:54.000Z</time>
      </trkpt>
      <trkpt lat="44.10453" lon="7.07592">
        <ele>1629</ele>
        <time>2017-05-25T09:00:57.000Z</time>
      </trkpt>
      <trkpt lat="44.10455" lon="7.07591">
        <ele>1629</ele>
        <time>2017-05-25T09:00:58.000Z</time>
      </trkpt>
      <trkpt lat="44.10461" lon="7.07574">
        <ele>1639</ele>
        <time>2017-05-25T09:01:06.000Z</time>
      </trkpt>
      <trkpt lat="44.10462" lon="7.07573">
        <ele>1638</ele>
        <time>2017-05-25T09:01:07.000Z</time>
      </trkpt>
      <trkpt lat="44.10466" lon="7.07562">
        <ele>1638</ele>
        <time>2017-05-25T09:01:12.000Z</time>
      </trkpt>
      <trkpt lat="44.10467" lon="7.07558">
        <ele>1639</ele>
        <time>2017-05-25T09:01:14.000Z</time>
      </trkpt>
      <trkpt lat="44.10472" lon="7.07547">
        <ele>1639</ele>
        <time>2017-05-25T09:01:19.000Z</time>
      </trkpt>
      <trkpt lat="44.10474" lon="7.07544">
        <ele>1639</ele>
        <time>2017-05-25T09:01:21.000Z</time>
      </trkpt>
      <trkpt lat="44.10475" lon="7.07541">
        <ele>1640</ele>
        <time>2017-05-25T09:01:22.000Z</time>
      </trkpt>
      <trkpt lat="44.10477" lon="7.07537">
        <ele>1640</ele>
        <time>2017-05-25T09:01:24.000Z</time>
      </trkpt>
      <trkpt lat="44.10483" lon="7.07526">
        <ele>1640</ele>
        <time>2017-05-25T09:01:30.000Z</time>
      </trkpt>
      <trkpt lat="44.10484" lon="7.07524">
        <ele>1640</ele>
        <time>2017-05-25T09:01:31.000Z</time>
      </trkpt>
      <trkpt lat="44.10489" lon="7.07513">
        <ele>1639</ele>
        <time>2017-05-25T09:01:36.000Z</time>
      </trkpt>
      <trkpt lat="44.1049" lon="7.07511">
        <ele>1639</ele>
        <time>2017-05-25T09:01:37.000Z</time>
      </trkpt>
      <trkpt lat="44.10491" lon="7.07509">
        <ele>1639</ele>
        <time>2017-05-25T09:01:38.000Z</time>
      </trkpt>
      <trkpt lat="44.10495" lon="7.07497">
        <ele>1642</ele>
        <time>2017-05-25T09:01:43.000Z</time>
      </trkpt>
      <trkpt lat="44.10501" lon="7.07483">
        <ele>1635</ele>
        <time>2017-05-25T09:01:50.000Z</time>
      </trkpt>
      <trkpt lat="44.10502" lon="7.0748">
        <ele>1635</ele>
        <time>2017-05-25T09:01:51.000Z</time>
      </trkpt>
      <trkpt lat="44.10507" lon="7.07468">
        <ele>1636</ele>
        <time>2017-05-25T09:01:57.000Z</time>
      </trkpt>
      <trkpt lat="44.10508" lon="7.07466">
        <ele>1636</ele>
        <time>2017-05-25T09:01:58.000Z</time>
      </trkpt>
      <trkpt lat="44.10514" lon="7.07456">
        <ele>1637</ele>
        <time>2017-05-25T09:02:04.000Z</time>
      </trkpt>
      <trkpt lat="44.10515" lon="7.07452">
        <ele>1638</ele>
        <time>2017-05-25T09:02:06.000Z</time>
      </trkpt>
      <trkpt lat="44.1052" lon="7.07442">
        <ele>1639</ele>
        <time>2017-05-25T09:02:12.000Z</time>
      </trkpt>
      <trkpt lat="44.10521" lon="7.07439">
        <ele>1640</ele>
        <time>2017-05-25T09:02:14.000Z</time>
      </trkpt>
      <trkpt lat="44.10524" lon="7.07432">
        <ele>1640</ele>
        <time>2017-05-25T09:02:18.000Z</time>
      </trkpt>
      <trkpt lat="44.10527" lon="7.07423">
        <ele>1641</ele>
        <time>2017-05-25T09:02:23.000Z</time>
      </trkpt>
      <trkpt lat="44.10529" lon="7.07418">
        <ele>1640</ele>
        <time>2017-05-25T09:02:26.000Z</time>
      </trkpt>
      <trkpt lat="44.10534" lon="7.07408">
        <ele>1652</ele>
        <time>2017-05-25T09:02:32.000Z</time>
      </trkpt>
      <trkpt lat="44.10541" lon="7.07391">
        <ele>1652</ele>
        <time>2017-05-25T09:02:41.000Z</time>
      </trkpt>
      <trkpt lat="44.10541" lon="7.07389">
        <ele>1653</ele>
        <time>2017-05-25T09:02:42.000Z</time>
      </trkpt>
      <trkpt lat="44.10547" lon="7.07377">
        <ele>1653</ele>
        <time>2017-05-25T09:02:49.000Z</time>
      </trkpt>
      <trkpt lat="44.10547" lon="7.07375">
        <ele>1653</ele>
        <time>2017-05-25T09:02:50.000Z</time>
      </trkpt>
      <trkpt lat="44.10554" lon="7.07361">
        <ele>1654</ele>
        <time>2017-05-25T09:02:58.000Z</time>
      </trkpt>
      <trkpt lat="44.10554" lon="7.07359">
        <ele>1654</ele>
        <time>2017-05-25T09:02:59.000Z</time>
      </trkpt>
      <trkpt lat="44.10558" lon="7.07351">
        <ele>1654</ele>
        <time>2017-05-25T09:03:04.000Z</time>
      </trkpt>
      <trkpt lat="44.10564" lon="7.07338">
        <ele>1653</ele>
        <time>2017-05-25T09:03:11.000Z</time>
      </trkpt>
      <trkpt lat="44.10566" lon="7.07334">
        <ele>1652</ele>
        <time>2017-05-25T09:03:13.000Z</time>
      </trkpt>
      <trkpt lat="44.10572" lon="7.07324">
        <ele>1661</ele>
        <time>2017-05-25T09:03:18.000Z</time>
      </trkpt>
      <trkpt lat="44.10582" lon="7.07312">
        <ele>1664</ele>
        <time>2017-05-25T09:03:27.000Z</time>
      </trkpt>
      <trkpt lat="44.10584" lon="7.0731">
        <ele>1646</ele>
        <time>2017-05-25T09:03:28.000Z</time>
      </trkpt>
      <trkpt lat="44.1059" lon="7.07301">
        <ele>1646</ele>
        <time>2017-05-25T09:03:34.000Z</time>
      </trkpt>
      <trkpt lat="44.10594" lon="7.07294">
        <ele>1646</ele>
        <time>2017-05-25T09:03:38.000Z</time>
      </trkpt>
      <trkpt lat="44.10598" lon="7.07289">
        <ele>1646</ele>
        <time>2017-05-25T09:03:41.000Z</time>
      </trkpt>
      <trkpt lat="44.10599" lon="7.07287">
        <ele>1647</ele>
        <time>2017-05-25T09:03:42.000Z</time>
      </trkpt>
      <trkpt lat="44.10603" lon="7.0728">
        <ele>1647</ele>
        <time>2017-05-25T09:03:46.000Z</time>
      </trkpt>
      <trkpt lat="44.10604" lon="7.07278">
        <ele>1648</ele>
        <time>2017-05-25T09:03:47.000Z</time>
      </trkpt>
      <trkpt lat="44.1061" lon="7.07268">
        <ele>1648</ele>
        <time>2017-05-25T09:03:53.000Z</time>
      </trkpt>
      <trkpt lat="44.10613" lon="7.07263">
        <ele>1648</ele>
        <time>2017-05-25T09:03:56.000Z</time>
      </trkpt>
      <trkpt lat="44.10616" lon="7.07257">
        <ele>1647</ele>
        <time>2017-05-25T09:03:59.000Z</time>
      </trkpt>
      <trkpt lat="44.10621" lon="7.0725">
        <ele>1646</ele>
        <time>2017-05-25T09:04:03.000Z</time>
      </trkpt>
      <trkpt lat="44.10623" lon="7.07246">
        <ele>1658</ele>
        <time>2017-05-25T09:04:05.000Z</time>
      </trkpt>
      <trkpt lat="44.10624" lon="7.07242">
        <ele>1658</ele>
        <time>2017-05-25T09:04:07.000Z</time>
      </trkpt>
      <trkpt lat="44.10626" lon="7.07239">
        <ele>1657</ele>
        <time>2017-05-25T09:04:09.000Z</time>
      </trkpt>
      <trkpt lat="44.10629" lon="7.07231">
        <ele>1657</ele>
        <time>2017-05-25T09:04:13.000Z</time>
      </trkpt>
      <trkpt lat="44.1063" lon="7.07228">
        <ele>1657</ele>
        <time>2017-05-25T09:04:14.000Z</time>
      </trkpt>
      <trkpt lat="44.10631" lon="7.07224">
        <ele>1657</ele>
        <time>2017-05-25T09:04:16.000Z</time>
      </trkpt>
      <trkpt lat="44.10633" lon="7.07218">
        <ele>1658</ele>
        <time>2017-05-25T09:04:19.000Z</time>
      </trkpt>
      <trkpt lat="44.10634" lon="7.07214">
        <ele>1658</ele>
        <time>2017-05-25T09:04:21.000Z</time>
      </trkpt>
      <trkpt lat="44.10636" lon="7.07209">
        <ele>1658</ele>
        <time>2017-05-25T09:04:24.000Z</time>
      </trkpt>
      <trkpt lat="44.10637" lon="7.07207">
        <ele>1658</ele>
        <time>2017-05-25T09:04:25.000Z</time>
      </trkpt>
      <trkpt lat="44.10638" lon="7.07206">
        <ele>1658</ele>
        <time>2017-05-25T09:04:26.000Z</time>
      </trkpt>
      <trkpt lat="44.10639" lon="7.072">
        <ele>1659</ele>
        <time>2017-05-25T09:04:29.000Z</time>
      </trkpt>
      <trkpt lat="44.10641" lon="7.07196">
        <ele>1659</ele>
        <time>2017-05-25T09:04:31.000Z</time>
      </trkpt>
      <trkpt lat="44.10642" lon="7.07194">
        <ele>1659</ele>
        <time>2017-05-25T09:04:32.000Z</time>
      </trkpt>
      <trkpt lat="44.10645" lon="7.07183">
        <ele>1659</ele>
        <time>2017-05-25T09:04:37.000Z</time>
      </trkpt>
      <trkpt lat="44.10646" lon="7.07181">
        <ele>1659</ele>
        <time>2017-05-25T09:04:38.000Z</time>
      </trkpt>
      <trkpt lat="44.1065" lon="7.0717">
        <ele>1658</ele>
        <time>2017-05-25T09:04:44.000Z</time>
      </trkpt>
      <trkpt lat="44.10652" lon="7.07162">
        <ele>1666</ele>
        <time>2017-05-25T09:04:48.000Z</time>
      </trkpt>
      <trkpt lat="44.10653" lon="7.07159">
        <ele>1666</ele>
        <time>2017-05-25T09:04:50.000Z</time>
      </trkpt>
      <trkpt lat="44.10655" lon="7.07149">
        <ele>1669</ele>
        <time>2017-05-25T09:04:55.000Z</time>
      </trkpt>
      <trkpt lat="44.10656" lon="7.07147">
        <ele>1669</ele>
        <time>2017-05-25T09:04:56.000Z</time>
      </trkpt>
      <trkpt lat="44.10659" lon="7.07138">
        <ele>1671</ele>
        <time>2017-05-25T09:05:01.000Z</time>
      </trkpt>
      <trkpt lat="44.1066" lon="7.07135">
        <ele>1672</ele>
        <time>2017-05-25T09:05:03.000Z</time>
      </trkpt>
      <trkpt lat="44.10663" lon="7.07125">
        <ele>1673</ele>
        <time>2017-05-25T09:05:08.000Z</time>
      </trkpt>
      <trkpt lat="44.10664" lon="7.07122">
        <ele>1674</ele>
        <time>2017-05-25T09:05:10.000Z</time>
      </trkpt>
      <trkpt lat="44.10668" lon="7.07108">
        <ele>1657</ele>
        <time>2017-05-25T09:05:17.000Z</time>
      </trkpt>
      <trkpt lat="44.10668" lon="7.07106">
        <ele>1657</ele>
        <time>2017-05-25T09:05:18.000Z</time>
      </trkpt>
      <trkpt lat="44.10669" lon="7.07102">
        <ele>1659</ele>
        <time>2017-05-25T09:05:20.000Z</time>
      </trkpt>
      <trkpt lat="44.1067" lon="7.07098">
        <ele>1661</ele>
        <time>2017-05-25T09:05:22.000Z</time>
      </trkpt>
      <trkpt lat="44.10672" lon="7.07088">
        <ele>1665</ele>
        <time>2017-05-25T09:05:26.000Z</time>
      </trkpt>
      <trkpt lat="44.10674" lon="7.07081">
        <ele>1669</ele>
        <time>2017-05-25T09:05:29.000Z</time>
      </trkpt>
      <trkpt lat="44.10675" lon="7.07076">
        <ele>1668</ele>
        <time>2017-05-25T09:05:31.000Z</time>
      </trkpt>
      <trkpt lat="44.10677" lon="7.07069">
        <ele>1667</ele>
        <time>2017-05-25T09:05:34.000Z</time>
      </trkpt>
      <trkpt lat="44.1068" lon="7.07057">
        <ele>1666</ele>
        <time>2017-05-25T09:05:39.000Z</time>
      </trkpt>
      <trkpt lat="44.1068" lon="7.07055">
        <ele>1666</ele>
        <time>2017-05-25T09:05:40.000Z</time>
      </trkpt>
      <trkpt lat="44.10681" lon="7.07052">
        <ele>1666</ele>
        <time>2017-05-25T09:05:41.000Z</time>
      </trkpt>
      <trkpt lat="44.10683" lon="7.07043">
        <ele>1667</ele>
        <time>2017-05-25T09:05:45.000Z</time>
      </trkpt>
      <trkpt lat="44.10684" lon="7.07038">
        <ele>1667</ele>
        <time>2017-05-25T09:05:47.000Z</time>
      </trkpt>
      <trkpt lat="44.10686" lon="7.07028">
        <ele>1668</ele>
        <time>2017-05-25T09:05:51.000Z</time>
      </trkpt>
      <trkpt lat="44.10688" lon="7.07021">
        <ele>1669</ele>
        <time>2017-05-25T09:05:54.000Z</time>
      </trkpt>
      <trkpt lat="44.1069" lon="7.07011">
        <ele>1670</ele>
        <time>2017-05-25T09:05:58.000Z</time>
      </trkpt>
      <trkpt lat="44.10691" lon="7.07005">
        <ele>1671</ele>
        <time>2017-05-25T09:06:01.000Z</time>
      </trkpt>
      <trkpt lat="44.10691" lon="7.07003">
        <ele>1671</ele>
        <time>2017-05-25T09:06:02.000Z</time>
      </trkpt>
      <trkpt lat="44.10694" lon="7.06994">
        <ele>1677</ele>
        <time>2017-05-25T09:06:06.000Z</time>
      </trkpt>
      <trkpt lat="44.10695" lon="7.06987">
        <ele>1676</ele>
        <time>2017-05-25T09:06:09.000Z</time>
      </trkpt>
      <trkpt lat="44.10696" lon="7.0698">
        <ele>1676</ele>
        <time>2017-05-25T09:06:12.000Z</time>
      </trkpt>
      <trkpt lat="44.10697" lon="7.06978">
        <ele>1676</ele>
        <time>2017-05-25T09:06:13.000Z</time>
      </trkpt>
      <trkpt lat="44.10699" lon="7.06964">
        <ele>1676</ele>
        <time>2017-05-25T09:06:19.000Z</time>
      </trkpt>
      <trkpt lat="44.10699" lon="7.0696">
        <ele>1677</ele>
        <time>2017-05-25T09:06:21.000Z</time>
      </trkpt>
      <trkpt lat="44.10701" lon="7.06948">
        <ele>1677</ele>
        <time>2017-05-25T09:06:26.000Z</time>
      </trkpt>
      <trkpt lat="44.10705" lon="7.06932">
        <ele>1677</ele>
        <time>2017-05-25T09:06:33.000Z</time>
      </trkpt>
      <trkpt lat="44.10713" lon="7.06919">
        <ele>1676</ele>
        <time>2017-05-25T09:06:39.000Z</time>
      </trkpt>
      <trkpt lat="44.10714" lon="7.06917">
        <ele>1676</ele>
        <time>2017-05-25T09:06:40.000Z</time>
      </trkpt>
      <trkpt lat="44.10716" lon="7.06914">
        <ele>1684</ele>
        <time>2017-05-25T09:06:42.000Z</time>
      </trkpt>
      <trkpt lat="44.10719" lon="7.06909">
        <ele>1683</ele>
        <time>2017-05-25T09:06:45.000Z</time>
      </trkpt>
      <trkpt lat="44.10724" lon="7.06902">
        <ele>1683</ele>
        <time>2017-05-25T09:06:49.000Z</time>
      </trkpt>
      <trkpt lat="44.10728" lon="7.06894">
        <ele>1683</ele>
        <time>2017-05-25T09:06:53.000Z</time>
      </trkpt>
      <trkpt lat="44.1073" lon="7.06891">
        <ele>1683</ele>
        <time>2017-05-25T09:06:55.000Z</time>
      </trkpt>
      <trkpt lat="44.10732" lon="7.06885">
        <ele>1684</ele>
        <time>2017-05-25T09:06:58.000Z</time>
      </trkpt>
      <trkpt lat="44.10733" lon="7.06884">
        <ele>1684</ele>
        <time>2017-05-25T09:06:59.000Z</time>
      </trkpt>
      <trkpt lat="44.10738" lon="7.06876">
        <ele>1684</ele>
        <time>2017-05-25T09:07:04.000Z</time>
      </trkpt>
      <trkpt lat="44.10742" lon="7.0687">
        <ele>1685</ele>
        <time>2017-05-25T09:07:08.000Z</time>
      </trkpt>
      <trkpt lat="44.10747" lon="7.06862">
        <ele>1685</ele>
        <time>2017-05-25T09:07:13.000Z</time>
      </trkpt>
      <trkpt lat="44.10751" lon="7.06857">
        <ele>1671</ele>
        <time>2017-05-25T09:07:17.000Z</time>
      </trkpt>
      <trkpt lat="44.10755" lon="7.06851">
        <ele>1673</ele>
        <time>2017-05-25T09:07:21.000Z</time>
      </trkpt>
      <trkpt lat="44.10759" lon="7.06845">
        <ele>1674</ele>
        <time>2017-05-25T09:07:25.000Z</time>
      </trkpt>
      <trkpt lat="44.1076" lon="7.06843">
        <ele>1674</ele>
        <time>2017-05-25T09:07:26.000Z</time>
      </trkpt>
      <trkpt lat="44.1076" lon="7.06841">
        <ele>1675</ele>
        <time>2017-05-25T09:07:27.000Z</time>
      </trkpt>
      <trkpt lat="44.10767" lon="7.06831">
        <ele>1681</ele>
        <time>2017-05-25T09:07:33.000Z</time>
      </trkpt>
      <trkpt lat="44.10768" lon="7.06829">
        <ele>1681</ele>
        <time>2017-05-25T09:07:34.000Z</time>
      </trkpt>
      <trkpt lat="44.10774" lon="7.06815">
        <ele>1681</ele>
        <time>2017-05-25T09:07:41.000Z</time>
      </trkpt>
      <trkpt lat="44.10778" lon="7.06806">
        <ele>1681</ele>
        <time>2017-05-25T09:07:46.000Z</time>
      </trkpt>
      <trkpt lat="44.10779" lon="7.06804">
        <ele>1681</ele>
        <time>2017-05-25T09:07:47.000Z</time>
      </trkpt>
      <trkpt lat="44.1078" lon="7.06802">
        <ele>1681</ele>
        <time>2017-05-25T09:07:48.000Z</time>
      </trkpt>
      <trkpt lat="44.10786" lon="7.06789">
        <ele>1681</ele>
        <time>2017-05-25T09:07:54.000Z</time>
      </trkpt>
      <trkpt lat="44.10795" lon="7.06775">
        <ele>1682</ele>
        <time>2017-05-25T09:08:01.000Z</time>
      </trkpt>
      <trkpt lat="44.10798" lon="7.0677">
        <ele>1682</ele>
        <time>2017-05-25T09:08:03.000Z</time>
      </trkpt>
      <trkpt lat="44.10803" lon="7.06759">
        <ele>1681</ele>
        <time>2017-05-25T09:08:08.000Z</time>
      </trkpt>
      <trkpt lat="44.10804" lon="7.06756">
        <ele>1681</ele>
        <time>2017-05-25T09:08:09.000Z</time>
      </trkpt>
      <trkpt lat="44.10807" lon="7.06751">
        <ele>1681</ele>
        <time>2017-05-25T09:08:11.000Z</time>
      </trkpt>
      <trkpt lat="44.10811" lon="7.0674">
        <ele>1690</ele>
        <time>2017-05-25T09:08:16.000Z</time>
      </trkpt>
      <trkpt lat="44.10813" lon="7.06737">
        <ele>1690</ele>
        <time>2017-05-25T09:08:17.000Z</time>
      </trkpt>
      <trkpt lat="44.10817" lon="7.06727">
        <ele>1691</ele>
        <time>2017-05-25T09:08:22.000Z</time>
      </trkpt>
      <trkpt lat="44.10821" lon="7.0672">
        <ele>1692</ele>
        <time>2017-05-25T09:08:26.000Z</time>
      </trkpt>
      <trkpt lat="44.10823" lon="7.06715">
        <ele>1693</ele>
        <time>2017-05-25T09:08:28.000Z</time>
      </trkpt>
      <trkpt lat="44.10832" lon="7.067">
        <ele>1694</ele>
        <time>2017-05-25T09:08:35.000Z</time>
      </trkpt>
      <trkpt lat="44.10838" lon="7.06688">
        <ele>1684</ele>
        <time>2017-05-25T09:08:40.000Z</time>
      </trkpt>
      <trkpt lat="44.1084" lon="7.06684">
        <ele>1685</ele>
        <time>2017-05-25T09:08:42.000Z</time>
      </trkpt>
      <trkpt lat="44.10846" lon="7.06671">
        <ele>1686</ele>
        <time>2017-05-25T09:08:47.000Z</time>
      </trkpt>
      <trkpt lat="44.10848" lon="7.06667">
        <ele>1692</ele>
        <time>2017-05-25T09:08:49.000Z</time>
      </trkpt>
      <trkpt lat="44.10851" lon="7.06661">
        <ele>1691</ele>
        <time>2017-05-25T09:08:51.000Z</time>
      </trkpt>
      <trkpt lat="44.10857" lon="7.06648">
        <ele>1691</ele>
        <time>2017-05-25T09:08:56.000Z</time>
      </trkpt>
      <trkpt lat="44.10862" lon="7.06635">
        <ele>1691</ele>
        <time>2017-05-25T09:09:01.000Z</time>
      </trkpt>
      <trkpt lat="44.10866" lon="7.06627">
        <ele>1691</ele>
        <time>2017-05-25T09:09:04.000Z</time>
      </trkpt>
      <trkpt lat="44.10872" lon="7.06615">
        <ele>1691</ele>
        <time>2017-05-25T09:09:09.000Z</time>
      </trkpt>
      <trkpt lat="44.10873" lon="7.06608">
        <ele>1691</ele>
        <time>2017-05-25T09:09:11.000Z</time>
      </trkpt>
      <trkpt lat="44.10869" lon="7.06587">
        <ele>1693</ele>
        <time>2017-05-25T09:09:17.000Z</time>
      </trkpt>
      <trkpt lat="44.1086" lon="7.06571">
        <ele>1697</ele>
        <time>2017-05-25T09:09:22.000Z</time>
      </trkpt>
      <trkpt lat="44.10856" lon="7.06565">
        <ele>1697</ele>
        <time>2017-05-25T09:09:24.000Z</time>
      </trkpt>
      <trkpt lat="44.10847" lon="7.06548">
        <ele>1697</ele>
        <time>2017-05-25T09:09:29.000Z</time>
      </trkpt>
      <trkpt lat="44.10834" lon="7.06533">
        <ele>1697</ele>
        <time>2017-05-25T09:09:35.000Z</time>
      </trkpt>
      <trkpt lat="44.10815" lon="7.06517">
        <ele>1704</ele>
        <time>2017-05-25T09:09:42.000Z</time>
      </trkpt>
      <trkpt lat="44.10805" lon="7.06505">
        <ele>1705</ele>
        <time>2017-05-25T09:09:47.000Z</time>
      </trkpt>
      <trkpt lat="44.10811" lon="7.06499">
        <ele>1704</ele>
        <time>2017-05-25T09:09:51.000Z</time>
      </trkpt>
      <trkpt lat="44.10821" lon="7.0649">
        <ele>1703</ele>
        <time>2017-05-25T09:09:56.000Z</time>
      </trkpt>
      <trkpt lat="44.10823" lon="7.06487">
        <ele>1703</ele>
        <time>2017-05-25T09:09:57.000Z</time>
      </trkpt>
      <trkpt lat="44.10833" lon="7.0648">
        <ele>1703</ele>
        <time>2017-05-25T09:10:02.000Z</time>
      </trkpt>
      <trkpt lat="44.10846" lon="7.06471">
        <ele>1698</ele>
        <time>2017-05-25T09:10:10.000Z</time>
      </trkpt>
      <trkpt lat="44.10847" lon="7.06468">
        <ele>1698</ele>
        <time>2017-05-25T09:10:15.000Z</time>
      </trkpt>
      <trkpt lat="44.10848" lon="7.06466">
        <ele>1698</ele>
        <time>2017-05-25T09:10:20.000Z</time>
      </trkpt>
      <trkpt lat="44.10847" lon="7.06465">
        <ele>1698</ele>
        <time>2017-05-25T09:10:29.000Z</time>
      </trkpt>
      <trkpt lat="44.10845" lon="7.06462">
        <ele>1698</ele>
        <time>2017-05-25T09:10:42.000Z</time>
      </trkpt>
      <trkpt lat="44.10845" lon="7.0646">
        <ele>1698</ele>
        <time>2017-05-25T09:10:53.000Z</time>
      </trkpt>
      <trkpt lat="44.10844" lon="7.06457">
        <ele>1698</ele>
        <time>2017-05-25T09:11:05.000Z</time>
      </trkpt>
      <trkpt lat="44.10843" lon="7.06456">
        <ele>1698</ele>
        <time>2017-05-25T09:11:12.000Z</time>
      </trkpt>
      <trkpt lat="44.10844" lon="7.06457">
        <ele>1698</ele>
        <time>2017-05-25T09:11:21.000Z</time>
      </trkpt>
      <trkpt lat="44.10845" lon="7.06456">
        <ele>1698</ele>
        <time>2017-05-25T09:11:33.000Z</time>
      </trkpt>
      <trkpt lat="44.10845" lon="7.06456">
        <ele>1698</ele>
        <time>2017-05-25T09:11:38.000Z</time>
      </trkpt>
      <trkpt lat="44.10844" lon="7.06456">
        <ele>1698</ele>
        <time>2017-05-25T09:11:47.000Z</time>
      </trkpt>
      <trkpt lat="44.10842" lon="7.06453">
        <ele>1699</ele>
        <time>2017-05-25T09:12:00.000Z</time>
      </trkpt>
      <trkpt lat="44.10842" lon="7.0645">
        <ele>1699</ele>
        <time>2017-05-25T09:12:17.000Z</time>
      </trkpt>
      <trkpt lat="44.10843" lon="7.0645">
        <ele>1699</ele>
        <time>2017-05-25T09:12:33.000Z</time>
      </trkpt>
      <trkpt lat="44.10844" lon="7.0645">
        <ele>1699</ele>
        <time>2017-05-25T09:12:48.000Z</time>
      </trkpt>
      <trkpt lat="44.10843" lon="7.06453">
        <ele>1699</ele>
        <time>2017-05-25T09:12:56.000Z</time>
      </trkpt>
      <trkpt lat="44.10841" lon="7.06454">
        <ele>1699</ele>
        <time>2017-05-25T09:13:06.000Z</time>
      </trkpt>
      <trkpt lat="44.10839" lon="7.06455">
        <ele>1699</ele>
        <time>2017-05-25T09:13:14.000Z</time>
      </trkpt>
      <trkpt lat="44.10838" lon="7.06456">
        <ele>1699</ele>
        <time>2017-05-25T09:13:22.000Z</time>
      </trkpt>
      <trkpt lat="44.10839" lon="7.06458">
        <ele>1698</ele>
        <time>2017-05-25T09:13:39.000Z</time>
      </trkpt>
      <trkpt lat="44.10838" lon="7.06462">
        <ele>1698</ele>
        <time>2017-05-25T09:13:51.000Z</time>
      </trkpt>
      <trkpt lat="44.10838" lon="7.06465">
        <ele>1698</ele>
        <time>2017-05-25T09:14:07.000Z</time>
      </trkpt>
      <trkpt lat="44.10837" lon="7.06468">
        <ele>1698</ele>
        <time>2017-05-25T09:14:29.000Z</time>
      </trkpt>
      <trkpt lat="44.10836" lon="7.06472">
        <ele>1698</ele>
        <time>2017-05-25T09:14:48.000Z</time>
      </trkpt>
      <trkpt lat="44.10836" lon="7.06475">
        <ele>1699</ele>
        <time>2017-05-25T09:15:12.000Z</time>
      </trkpt>
      <trkpt lat="44.10835" lon="7.06472">
        <ele>1698</ele>
        <time>2017-05-25T09:15:23.000Z</time>
      </trkpt>
      <trkpt lat="44.10835" lon="7.06472">
        <ele>1699</ele>
        <time>2017-05-25T09:15:35.000Z</time>
      </trkpt>
      <trkpt lat="44.10834" lon="7.06472">
        <ele>1699</ele>
        <time>2017-05-25T09:15:56.000Z</time>
      </trkpt>
      <trkpt lat="44.10834" lon="7.06471">
        <ele>1699</ele>
        <time>2017-05-25T09:16:06.000Z</time>
      </trkpt>
      <trkpt lat="44.10833" lon="7.06468">
        <ele>1704</ele>
        <time>2017-05-25T09:16:22.000Z</time>
      </trkpt>
      <trkpt lat="44.10833" lon="7.06468">
        <ele>1699</ele>
        <time>2017-05-25T09:16:35.000Z</time>
      </trkpt>
      <trkpt lat="44.10834" lon="7.06467">
        <ele>1698</ele>
        <time>2017-05-25T09:16:53.000Z</time>
      </trkpt>
      <trkpt lat="44.10834" lon="7.06468">
        <ele>1698</ele>
        <time>2017-05-25T09:17:12.000Z</time>
      </trkpt>
      <trkpt lat="44.10835" lon="7.06466">
        <ele>1698</ele>
        <time>2017-05-25T09:17:26.000Z</time>
      </trkpt>
      <trkpt lat="44.10836" lon="7.0647">
        <ele>1698</ele>
        <time>2017-05-25T09:17:44.000Z</time>
      </trkpt>
      <trkpt lat="44.10836" lon="7.06471">
        <ele>1698</ele>
        <time>2017-05-25T09:17:54.000Z</time>
      </trkpt>
      <trkpt lat="44.10836" lon="7.06473">
        <ele>1698</ele>
        <time>2017-05-25T09:18:06.000Z</time>
      </trkpt>
      <trkpt lat="44.10836" lon="7.06473">
        <ele>1698</ele>
        <time>2017-05-25T09:18:22.000Z</time>
      </trkpt>
      <trkpt lat="44.10835" lon="7.06471">
        <ele>1698</ele>
        <time>2017-05-25T09:18:35.000Z</time>
      </trkpt>
      <trkpt lat="44.10832" lon="7.06468">
        <ele>1704</ele>
        <time>2017-05-25T09:18:52.000Z</time>
      </trkpt>
      <trkpt lat="44.10831" lon="7.06467">
        <ele>1704</ele>
        <time>2017-05-25T09:19:10.000Z</time>
      </trkpt>
      <trkpt lat="44.10833" lon="7.06467">
        <ele>1704</ele>
        <time>2017-05-25T09:19:22.000Z</time>
      </trkpt>
      <trkpt lat="44.10833" lon="7.06465">
        <ele>1704</ele>
        <time>2017-05-25T09:19:33.000Z</time>
      </trkpt>
      <trkpt lat="44.10834" lon="7.06464">
        <ele>1698</ele>
        <time>2017-05-25T09:19:43.000Z</time>
      </trkpt>
      <trkpt lat="44.10836" lon="7.06461">
        <ele>1698</ele>
        <time>2017-05-25T09:19:50.000Z</time>
      </trkpt>
      <trkpt lat="44.10835" lon="7.06453">
        <ele>1699</ele>
        <time>2017-05-25T09:20:08.000Z</time>
      </trkpt>
      <trkpt lat="44.10837" lon="7.06447">
        <ele>1699</ele>
        <time>2017-05-25T09:20:26.000Z</time>
      </trkpt>
      <trkpt lat="44.10838" lon="7.06451">
        <ele>1699</ele>
        <time>2017-05-25T09:20:32.000Z</time>
      </trkpt>
      <trkpt lat="44.10837" lon="7.06449">
        <ele>1699</ele>
        <time>2017-05-25T09:20:33.000Z</time>
      </trkpt>
      <trkpt lat="44.10839" lon="7.0645">
        <ele>1699</ele>
        <time>2017-05-25T09:20:45.000Z</time>
      </trkpt>
      <trkpt lat="44.10838" lon="7.0645">
        <ele>1699</ele>
        <time>2017-05-25T09:20:55.000Z</time>
      </trkpt>
      <trkpt lat="44.10838" lon="7.0645">
        <ele>1699</ele>
        <time>2017-05-25T09:20:56.000Z</time>
      </trkpt>
      <trkpt lat="44.10837" lon="7.0645">
        <ele>1699</ele>
        <time>2017-05-25T09:21:04.000Z</time>
      </trkpt>
      <trkpt lat="44.10837" lon="7.06451">
        <ele>1699</ele>
        <time>2017-05-25T09:21:11.000Z</time>
      </trkpt>
      <trkpt lat="44.10837" lon="7.06451">
        <ele>1699</ele>
        <time>2017-05-25T09:21:23.000Z</time>
      </trkpt>
      <trkpt lat="44.10837" lon="7.06452">
        <ele>1699</ele>
        <time>2017-05-25T09:21:30.000Z</time>
      </trkpt>
      <trkpt lat="44.10836" lon="7.06455">
        <ele>1699</ele>
        <time>2017-05-25T09:21:44.000Z</time>
      </trkpt>
      <trkpt lat="44.10837" lon="7.06454">
        <ele>1699</ele>
        <time>2017-05-25T09:21:49.000Z</time>
      </trkpt>
      <trkpt lat="44.10837" lon="7.06452">
        <ele>1699</ele>
        <time>2017-05-25T09:22:01.000Z</time>
      </trkpt>
      <trkpt lat="44.10836" lon="7.0645">
        <ele>1699</ele>
        <time>2017-05-25T09:22:10.000Z</time>
      </trkpt>
      <trkpt lat="44.10836" lon="7.06448">
        <ele>1699</ele>
        <time>2017-05-25T09:22:18.000Z</time>
      </trkpt>
      <trkpt lat="44.10836" lon="7.06448">
        <ele>1699</ele>
        <time>2017-05-25T09:22:21.000Z</time>
      </trkpt>
      <trkpt lat="44.10836" lon="7.06447">
        <ele>1699</ele>
        <time>2017-05-25T09:22:25.000Z</time>
      </trkpt>
      <trkpt lat="44.10837" lon="7.06446">
        <ele>1699</ele>
        <time>2017-05-25T09:22:34.000Z</time>
      </trkpt>
      <trkpt lat="44.10836" lon="7.06447">
        <ele>1699</ele>
        <time>2017-05-25T09:22:39.000Z</time>
      </trkpt>
      <trkpt lat="44.10836" lon="7.06446">
        <ele>1699</ele>
        <time>2017-05-25T09:22:47.000Z</time>
      </trkpt>
      <trkpt lat="44.10836" lon="7.06447">
        <ele>1699</ele>
        <time>2017-05-25T09:22:54.000Z</time>
      </trkpt>
      <trkpt lat="44.10835" lon="7.06447">
        <ele>1699</ele>
        <time>2017-05-25T09:23:00.000Z</time>
      </trkpt>
      <trkpt lat="44.10836" lon="7.06445">
        <ele>1699</ele>
        <time>2017-05-25T09:23:07.000Z</time>
      </trkpt>
      <trkpt lat="44.10836" lon="7.06446">
        <ele>1699</ele>
        <time>2017-05-25T09:23:09.000Z</time>
      </trkpt>
      <trkpt lat="44.10838" lon="7.06448">
        <ele>1699</ele>
        <time>2017-05-25T09:23:22.000Z</time>
      </trkpt>
      <trkpt lat="44.10838" lon="7.06449">
        <ele>1699</ele>
        <time>2017-05-25T09:23:30.000Z</time>
      </trkpt>
      <trkpt lat="44.10839" lon="7.0645">
        <ele>1699</ele>
        <time>2017-05-25T09:23:39.000Z</time>
      </trkpt>
      <trkpt lat="44.10843" lon="7.0645">
        <ele>1699</ele>
        <time>2017-05-25T09:23:44.000Z</time>
      </trkpt>
      <trkpt lat="44.10846" lon="7.06451">
        <ele>1698</ele>
        <time>2017-05-25T09:23:45.000Z</time>
      </trkpt>
      <trkpt lat="44.10846" lon="7.0645">
        <ele>1698</ele>
        <time>2017-05-25T09:23:48.000Z</time>
      </trkpt>
      <trkpt lat="44.10847" lon="7.06452">
        <ele>1698</ele>
        <time>2017-05-25T09:23:55.000Z</time>
      </trkpt>
      <trkpt lat="44.10847" lon="7.06452">
        <ele>1698</ele>
        <time>2017-05-25T09:24:00.000Z</time>
      </trkpt>
      <trkpt lat="44.10846" lon="7.06454">
        <ele>1698</ele>
        <time>2017-05-25T09:24:09.000Z</time>
      </trkpt>
      <trkpt lat="44.10846" lon="7.06456">
        <ele>1698</ele>
        <time>2017-05-25T09:24:21.000Z</time>
      </trkpt>
      <trkpt lat="44.10848" lon="7.06456">
        <ele>1698</ele>
        <time>2017-05-25T09:24:31.000Z</time>
      </trkpt>
      <trkpt lat="44.10847" lon="7.06458">
        <ele>1698</ele>
        <time>2017-05-25T09:24:38.000Z</time>
      </trkpt>
      <trkpt lat="44.10848" lon="7.06457">
        <ele>1698</ele>
        <time>2017-05-25T09:24:48.000Z</time>
      </trkpt>
      <trkpt lat="44.10847" lon="7.06457">
        <ele>1698</ele>
        <time>2017-05-25T09:24:59.000Z</time>
      </trkpt>
      <trkpt lat="44.10846" lon="7.06455">
        <ele>1698</ele>
        <time>2017-05-25T09:25:14.000Z</time>
      </trkpt>
      <trkpt lat="44.10845" lon="7.06456">
        <ele>1698</ele>
        <time>2017-05-25T09:25:24.000Z</time>
      </trkpt>
      <trkpt lat="44.10846" lon="7.06456">
        <ele>1698</ele>
        <time>2017-05-25T09:25:29.000Z</time>
      </trkpt>
      <trkpt lat="44.10846" lon="7.06457">
        <ele>1698</ele>
        <time>2017-05-25T09:25:37.000Z</time>
      </trkpt>
      <trkpt lat="44.10847" lon="7.06458">
        <ele>1698</ele>
        <time>2017-05-25T09:25:46.000Z</time>
      </trkpt>
      <trkpt lat="44.10848" lon="7.06459">
        <ele>1698</ele>
        <time>2017-05-25T09:26:00.000Z</time>
      </trkpt>
      <trkpt lat="44.10848" lon="7.06458">
        <ele>1698</ele>
        <time>2017-05-25T09:26:11.000Z</time>
      </trkpt>
      <trkpt lat="44.10851" lon="7.06454">
        <ele>1698</ele>
        <time>2017-05-25T09:26:21.000Z</time>
      </trkpt>
      <trkpt lat="44.10853" lon="7.06445">
        <ele>1698</ele>
        <time>2017-05-25T09:26:27.000Z</time>
      </trkpt>
      <trkpt lat="44.10855" lon="7.06439">
        <ele>1698</ele>
        <time>2017-05-25T09:26:30.000Z</time>
      </trkpt>
      <trkpt lat="44.10856" lon="7.06436">
        <ele>1699</ele>
        <time>2017-05-25T09:26:32.000Z</time>
      </trkpt>
      <trkpt lat="44.10856" lon="7.06435">
        <ele>1699</ele>
        <time>2017-05-25T09:26:33.000Z</time>
      </trkpt>
      <trkpt lat="44.10857" lon="7.06433">
        <ele>1699</ele>
        <time>2017-05-25T09:26:34.000Z</time>
      </trkpt>
      <trkpt lat="44.10859" lon="7.06428">
        <ele>1699</ele>
        <time>2017-05-25T09:26:37.000Z</time>
      </trkpt>
      <trkpt lat="44.1086" lon="7.06427">
        <ele>1699</ele>
        <time>2017-05-25T09:26:38.000Z</time>
      </trkpt>
      <trkpt lat="44.10864" lon="7.0642">
        <ele>1698</ele>
        <time>2017-05-25T09:26:43.000Z</time>
      </trkpt>
      <trkpt lat="44.10866" lon="7.06417">
        <ele>1698</ele>
        <time>2017-05-25T09:26:46.000Z</time>
      </trkpt>
      <trkpt lat="44.10868" lon="7.06414">
        <ele>1705</ele>
        <time>2017-05-25T09:26:49.000Z</time>
      </trkpt>
      <trkpt lat="44.1087" lon="7.06412">
        <ele>1705</ele>
        <time>2017-05-25T09:26:51.000Z</time>
      </trkpt>
      <trkpt lat="44.10873" lon="7.06406">
        <ele>1705</ele>
        <time>2017-05-25T09:26:55.000Z</time>
      </trkpt>
      <trkpt lat="44.10875" lon="7.06402">
        <ele>1705</ele>
        <time>2017-05-25T09:26:58.000Z</time>
      </trkpt>
      <trkpt lat="44.10876" lon="7.064">
        <ele>1705</ele>
        <time>2017-05-25T09:27:00.000Z</time>
      </trkpt>
      <trkpt lat="44.10877" lon="7.06398">
        <ele>1705</ele>
        <time>2017-05-25T09:27:01.000Z</time>
      </trkpt>
      <trkpt lat="44.10879" lon="7.06394">
        <ele>1705</ele>
        <time>2017-05-25T09:27:04.000Z</time>
      </trkpt>
      <trkpt lat="44.10881" lon="7.06391">
        <ele>1705</ele>
        <time>2017-05-25T09:27:06.000Z</time>
      </trkpt>
      <trkpt lat="44.10881" lon="7.0639">
        <ele>1705</ele>
        <time>2017-05-25T09:27:07.000Z</time>
      </trkpt>
      <trkpt lat="44.10883" lon="7.06388">
        <ele>1706</ele>
        <time>2017-05-25T09:27:09.000Z</time>
      </trkpt>
      <trkpt lat="44.10886" lon="7.06383">
        <ele>1706</ele>
        <time>2017-05-25T09:27:13.000Z</time>
      </trkpt>
      <trkpt lat="44.10888" lon="7.06382">
        <ele>1706</ele>
        <time>2017-05-25T09:27:15.000Z</time>
      </trkpt>
      <trkpt lat="44.10892" lon="7.06375">
        <ele>1706</ele>
        <time>2017-05-25T09:27:20.000Z</time>
      </trkpt>
      <trkpt lat="44.10893" lon="7.06374">
        <ele>1706</ele>
        <time>2017-05-25T09:27:21.000Z</time>
      </trkpt>
      <trkpt lat="44.10895" lon="7.06369">
        <ele>1707</ele>
        <time>2017-05-25T09:27:26.000Z</time>
      </trkpt>
      <trkpt lat="44.10896" lon="7.06368">
        <ele>1707</ele>
        <time>2017-05-25T09:27:27.000Z</time>
      </trkpt>
      <trkpt lat="44.10897" lon="7.06367">
        <ele>1707</ele>
        <time>2017-05-25T09:27:28.000Z</time>
      </trkpt>
      <trkpt lat="44.10901" lon="7.06363">
        <ele>1707</ele>
        <time>2017-05-25T09:27:32.000Z</time>
      </trkpt>
      <trkpt lat="44.10901" lon="7.06362">
        <ele>1708</ele>
        <time>2017-05-25T09:27:33.000Z</time>
      </trkpt>
      <trkpt lat="44.10903" lon="7.06359">
        <ele>1708</ele>
        <time>2017-05-25T09:27:36.000Z</time>
      </trkpt>
      <trkpt lat="44.10905" lon="7.06356">
        <ele>1708</ele>
        <time>2017-05-25T09:27:38.000Z</time>
      </trkpt>
      <trkpt lat="44.10907" lon="7.06351">
        <ele>1709</ele>
        <time>2017-05-25T09:27:41.000Z</time>
      </trkpt>
      <trkpt lat="44.1091" lon="7.06346">
        <ele>1709</ele>
        <time>2017-05-25T09:27:45.000Z</time>
      </trkpt>
      <trkpt lat="44.10911" lon="7.06343">
        <ele>1710</ele>
        <time>2017-05-25T09:27:47.000Z</time>
      </trkpt>
      <trkpt lat="44.10913" lon="7.0634">
        <ele>1710</ele>
        <time>2017-05-25T09:27:49.000Z</time>
      </trkpt>
      <trkpt lat="44.10915" lon="7.06338">
        <ele>1710</ele>
        <time>2017-05-25T09:27:51.000Z</time>
      </trkpt>
      <trkpt lat="44.1092" lon="7.06329">
        <ele>1711</ele>
        <time>2017-05-25T09:27:55.000Z</time>
      </trkpt>
      <trkpt lat="44.10922" lon="7.06328">
        <ele>1711</ele>
        <time>2017-05-25T09:27:56.000Z</time>
      </trkpt>
      <trkpt lat="44.10927" lon="7.06321">
        <ele>1712</ele>
        <time>2017-05-25T09:28:01.000Z</time>
      </trkpt>
      <trkpt lat="44.10928" lon="7.06319">
        <ele>1712</ele>
        <time>2017-05-25T09:28:03.000Z</time>
      </trkpt>
      <trkpt lat="44.10932" lon="7.06315">
        <ele>1712</ele>
        <time>2017-05-25T09:28:06.000Z</time>
      </trkpt>
      <trkpt lat="44.10933" lon="7.06312">
        <ele>1713</ele>
        <time>2017-05-25T09:28:07.000Z</time>
      </trkpt>
      <trkpt lat="44.10935" lon="7.06308">
        <ele>1713</ele>
        <time>2017-05-25T09:28:09.000Z</time>
      </trkpt>
      <trkpt lat="44.10938" lon="7.06304">
        <ele>1713</ele>
        <time>2017-05-25T09:28:11.000Z</time>
      </trkpt>
      <trkpt lat="44.10941" lon="7.06298">
        <ele>1714</ele>
        <time>2017-05-25T09:28:15.000Z</time>
      </trkpt>
      <trkpt lat="44.10943" lon="7.06294">
        <ele>1714</ele>
        <time>2017-05-25T09:28:17.000Z</time>
      </trkpt>
      <trkpt lat="44.10945" lon="7.06293">
        <ele>1714</ele>
        <time>2017-05-25T09:28:18.000Z</time>
      </trkpt>
      <trkpt lat="44.10945" lon="7.06292">
        <ele>1714</ele>
        <time>2017-05-25T09:28:19.000Z</time>
      </trkpt>
      <trkpt lat="44.10947" lon="7.06286">
        <ele>1714</ele>
        <time>2017-05-25T09:28:22.000Z</time>
      </trkpt>
      <trkpt lat="44.10949" lon="7.0628">
        <ele>1715</ele>
        <time>2017-05-25T09:28:25.000Z</time>
      </trkpt>
      <trkpt lat="44.10954" lon="7.06274">
        <ele>1715</ele>
        <time>2017-05-25T09:28:28.000Z</time>
      </trkpt>
      <trkpt lat="44.10959" lon="7.06265">
        <ele>1715</ele>
        <time>2017-05-25T09:28:33.000Z</time>
      </trkpt>
      <trkpt lat="44.10962" lon="7.06259">
        <ele>1715</ele>
        <time>2017-05-25T09:28:37.000Z</time>
      </trkpt>
      <trkpt lat="44.10963" lon="7.06256">
        <ele>1715</ele>
        <time>2017-05-25T09:28:38.000Z</time>
      </trkpt>
      <trkpt lat="44.10966" lon="7.06251">
        <ele>1715</ele>
        <time>2017-05-25T09:28:43.000Z</time>
      </trkpt>
      <trkpt lat="44.10969" lon="7.06245">
        <ele>1725</ele>
        <time>2017-05-25T09:28:46.000Z</time>
      </trkpt>
      <trkpt lat="44.10972" lon="7.06241">
        <ele>1724</ele>
        <time>2017-05-25T09:28:48.000Z</time>
      </trkpt>
      <trkpt lat="44.10974" lon="7.06239">
        <ele>1724</ele>
        <time>2017-05-25T09:28:50.000Z</time>
      </trkpt>
      <trkpt lat="44.10976" lon="7.06235">
        <ele>1724</ele>
        <time>2017-05-25T09:28:52.000Z</time>
      </trkpt>
      <trkpt lat="44.10979" lon="7.0623">
        <ele>1725</ele>
        <time>2017-05-25T09:28:55.000Z</time>
      </trkpt>
      <trkpt lat="44.10982" lon="7.06225">
        <ele>1725</ele>
        <time>2017-05-25T09:28:58.000Z</time>
      </trkpt>
      <trkpt lat="44.10982" lon="7.06224">
        <ele>1725</ele>
        <time>2017-05-25T09:28:59.000Z</time>
      </trkpt>
      <trkpt lat="44.10986" lon="7.06217">
        <ele>1726</ele>
        <time>2017-05-25T09:29:04.000Z</time>
      </trkpt>
      <trkpt lat="44.10987" lon="7.06215">
        <ele>1726</ele>
        <time>2017-05-25T09:29:05.000Z</time>
      </trkpt>
      <trkpt lat="44.10991" lon="7.06207">
        <ele>1727</ele>
        <time>2017-05-25T09:29:10.000Z</time>
      </trkpt>
      <trkpt lat="44.10992" lon="7.06205">
        <ele>1727</ele>
        <time>2017-05-25T09:29:11.000Z</time>
      </trkpt>
      <trkpt lat="44.10999" lon="7.0619">
        <ele>1729</ele>
        <time>2017-05-25T09:29:17.000Z</time>
      </trkpt>
      <trkpt lat="44.11006" lon="7.06172">
        <ele>1724</ele>
        <time>2017-05-25T09:29:24.000Z</time>
      </trkpt>
      <trkpt lat="44.11009" lon="7.06167">
        <ele>1723</ele>
        <time>2017-05-25T09:29:26.000Z</time>
      </trkpt>
      <trkpt lat="44.11014" lon="7.06156">
        <ele>1728</ele>
        <time>2017-05-25T09:29:30.000Z</time>
      </trkpt>
      <trkpt lat="44.11018" lon="7.0615">
        <ele>1728</ele>
        <time>2017-05-25T09:29:33.000Z</time>
      </trkpt>
      <trkpt lat="44.11021" lon="7.06144">
        <ele>1728</ele>
        <time>2017-05-25T09:29:36.000Z</time>
      </trkpt>
      <trkpt lat="44.11024" lon="7.0614">
        <ele>1728</ele>
        <time>2017-05-25T09:29:38.000Z</time>
      </trkpt>
      <trkpt lat="44.11029" lon="7.06132">
        <ele>1728</ele>
        <time>2017-05-25T09:29:42.000Z</time>
      </trkpt>
      <trkpt lat="44.11031" lon="7.06128">
        <ele>1728</ele>
        <time>2017-05-25T09:29:44.000Z</time>
      </trkpt>
      <trkpt lat="44.11034" lon="7.06124">
        <ele>1728</ele>
        <time>2017-05-25T09:29:47.000Z</time>
      </trkpt>
      <trkpt lat="44.11036" lon="7.06122">
        <ele>1728</ele>
        <time>2017-05-25T09:29:49.000Z</time>
      </trkpt>
      <trkpt lat="44.11039" lon="7.06115">
        <ele>1729</ele>
        <time>2017-05-25T09:29:52.000Z</time>
      </trkpt>
      <trkpt lat="44.11041" lon="7.06113">
        <ele>1729</ele>
        <time>2017-05-25T09:29:53.000Z</time>
      </trkpt>
      <trkpt lat="44.11047" lon="7.06104">
        <ele>1729</ele>
        <time>2017-05-25T09:29:59.000Z</time>
      </trkpt>
      <trkpt lat="44.11048" lon="7.06102">
        <ele>1729</ele>
        <time>2017-05-25T09:30:00.000Z</time>
      </trkpt>
      <trkpt lat="44.11052" lon="7.06092">
        <ele>1729</ele>
        <time>2017-05-25T09:30:05.000Z</time>
      </trkpt>
      <trkpt lat="44.11055" lon="7.06089">
        <ele>1728</ele>
        <time>2017-05-25T09:30:07.000Z</time>
      </trkpt>
      <trkpt lat="44.11057" lon="7.06085">
        <ele>1728</ele>
        <time>2017-05-25T09:30:11.000Z</time>
      </trkpt>
      <trkpt lat="44.11059" lon="7.06077">
        <ele>1739</ele>
        <time>2017-05-25T09:30:15.000Z</time>
      </trkpt>
      <trkpt lat="44.1106" lon="7.06075">
        <ele>1739</ele>
        <time>2017-05-25T09:30:16.000Z</time>
      </trkpt>
      <trkpt lat="44.1106" lon="7.06073">
        <ele>1739</ele>
        <time>2017-05-25T09:30:17.000Z</time>
      </trkpt>
      <trkpt lat="44.11064" lon="7.06064">
        <ele>1740</ele>
        <time>2017-05-25T09:30:21.000Z</time>
      </trkpt>
      <trkpt lat="44.11065" lon="7.06059">
        <ele>1740</ele>
        <time>2017-05-25T09:30:23.000Z</time>
      </trkpt>
      <trkpt lat="44.11068" lon="7.06051">
        <ele>1741</ele>
        <time>2017-05-25T09:30:27.000Z</time>
      </trkpt>
      <trkpt lat="44.11072" lon="7.06041">
        <ele>1743</ele>
        <time>2017-05-25T09:30:32.000Z</time>
      </trkpt>
      <trkpt lat="44.11074" lon="7.06038">
        <ele>1743</ele>
        <time>2017-05-25T09:30:34.000Z</time>
      </trkpt>
      <trkpt lat="44.11076" lon="7.06032">
        <ele>1743</ele>
        <time>2017-05-25T09:30:37.000Z</time>
      </trkpt>
      <trkpt lat="44.1108" lon="7.06024">
        <ele>1744</ele>
        <time>2017-05-25T09:30:42.000Z</time>
      </trkpt>
      <trkpt lat="44.11081" lon="7.06022">
        <ele>1744</ele>
        <time>2017-05-25T09:30:43.000Z</time>
      </trkpt>
      <trkpt lat="44.11086" lon="7.06011">
        <ele>1735</ele>
        <time>2017-05-25T09:30:48.000Z</time>
      </trkpt>
      <trkpt lat="44.11088" lon="7.06006">
        <ele>1737</ele>
        <time>2017-05-25T09:30:51.000Z</time>
      </trkpt>
      <trkpt lat="44.11091" lon="7.06">
        <ele>1742</ele>
        <time>2017-05-25T09:30:54.000Z</time>
      </trkpt>
      <trkpt lat="44.11093" lon="7.05997">
        <ele>1742</ele>
        <time>2017-05-25T09:30:56.000Z</time>
      </trkpt>
      <trkpt lat="44.11093" lon="7.05994">
        <ele>1742</ele>
        <time>2017-05-25T09:30:57.000Z</time>
      </trkpt>
      <trkpt lat="44.11095" lon="7.05991">
        <ele>1742</ele>
        <time>2017-05-25T09:30:59.000Z</time>
      </trkpt>
      <trkpt lat="44.11098" lon="7.05987">
        <ele>1742</ele>
        <time>2017-05-25T09:31:02.000Z</time>
      </trkpt>
      <trkpt lat="44.11099" lon="7.05984">
        <ele>1742</ele>
        <time>2017-05-25T09:31:03.000Z</time>
      </trkpt>
      <trkpt lat="44.11101" lon="7.05979">
        <ele>1742</ele>
        <time>2017-05-25T09:31:05.000Z</time>
      </trkpt>
      <trkpt lat="44.11103" lon="7.05975">
        <ele>1742</ele>
        <time>2017-05-25T09:31:07.000Z</time>
      </trkpt>
      <trkpt lat="44.11106" lon="7.05967">
        <ele>1742</ele>
        <time>2017-05-25T09:31:11.000Z</time>
      </trkpt>
      <trkpt lat="44.11109" lon="7.05961">
        <ele>1742</ele>
        <time>2017-05-25T09:31:15.000Z</time>
      </trkpt>
      <trkpt lat="44.11111" lon="7.05957">
        <ele>1743</ele>
        <time>2017-05-25T09:31:17.000Z</time>
      </trkpt>
      <trkpt lat="44.11113" lon="7.05954">
        <ele>1743</ele>
        <time>2017-05-25T09:31:19.000Z</time>
      </trkpt>
      <trkpt lat="44.11114" lon="7.05951">
        <ele>1743</ele>
        <time>2017-05-25T09:31:21.000Z</time>
      </trkpt>
      <trkpt lat="44.11118" lon="7.05941">
        <ele>1744</ele>
        <time>2017-05-25T09:31:26.000Z</time>
      </trkpt>
      <trkpt lat="44.11119" lon="7.05937">
        <ele>1744</ele>
        <time>2017-05-25T09:31:28.000Z</time>
      </trkpt>
      <trkpt lat="44.1112" lon="7.05933">
        <ele>1744</ele>
        <time>2017-05-25T09:31:31.000Z</time>
      </trkpt>
      <trkpt lat="44.11123" lon="7.05925">
        <ele>1745</ele>
        <time>2017-05-25T09:31:34.000Z</time>
      </trkpt>
      <trkpt lat="44.11124" lon="7.05922">
        <ele>1744</ele>
        <time>2017-05-25T09:31:36.000Z</time>
      </trkpt>
      <trkpt lat="44.11125" lon="7.05921">
        <ele>1744</ele>
        <time>2017-05-25T09:31:37.000Z</time>
      </trkpt>
      <trkpt lat="44.1113" lon="7.05912">
        <ele>1758</ele>
        <time>2017-05-25T09:31:42.000Z</time>
      </trkpt>
      <trkpt lat="44.11133" lon="7.05903">
        <ele>1758</ele>
        <time>2017-05-25T09:31:47.000Z</time>
      </trkpt>
      <trkpt lat="44.11134" lon="7.05902">
        <ele>1757</ele>
        <time>2017-05-25T09:31:48.000Z</time>
      </trkpt>
      <trkpt lat="44.11137" lon="7.05898">
        <ele>1758</ele>
        <time>2017-05-25T09:31:51.000Z</time>
      </trkpt>
      <trkpt lat="44.11137" lon="7.05898">
        <ele>1758</ele>
        <time>2017-05-25T09:31:53.000Z</time>
      </trkpt>
      <trkpt lat="44.11137" lon="7.05896">
        <ele>1758</ele>
        <time>2017-05-25T09:31:55.000Z</time>
      </trkpt>
      <trkpt lat="44.11137" lon="7.05893">
        <ele>1758</ele>
        <time>2017-05-25T09:32:01.000Z</time>
      </trkpt>
      <trkpt lat="44.11139" lon="7.05888">
        <ele>1759</ele>
        <time>2017-05-25T09:32:07.000Z</time>
      </trkpt>
      <trkpt lat="44.1114" lon="7.05884">
        <ele>1759</ele>
        <time>2017-05-25T09:32:10.000Z</time>
      </trkpt>
      <trkpt lat="44.11142" lon="7.05877">
        <ele>1760</ele>
        <time>2017-05-25T09:32:16.000Z</time>
      </trkpt>
      <trkpt lat="44.11143" lon="7.05874">
        <ele>1761</ele>
        <time>2017-05-25T09:32:17.000Z</time>
      </trkpt>
      <trkpt lat="44.11147" lon="7.05868">
        <ele>1761</ele>
        <time>2017-05-25T09:32:19.000Z</time>
      </trkpt>
      <trkpt lat="44.11147" lon="7.05866">
        <ele>1761</ele>
        <time>2017-05-25T09:32:22.000Z</time>
      </trkpt>
      <trkpt lat="44.11149" lon="7.05864">
        <ele>1761</ele>
        <time>2017-05-25T09:32:26.000Z</time>
      </trkpt>
      <trkpt lat="44.1115" lon="7.05863">
        <ele>1761</ele>
        <time>2017-05-25T09:32:28.000Z</time>
      </trkpt>
      <trkpt lat="44.11153" lon="7.05859">
        <ele>1761</ele>
        <time>2017-05-25T09:32:33.000Z</time>
      </trkpt>
      <trkpt lat="44.11154" lon="7.05858">
        <ele>1761</ele>
        <time>2017-05-25T09:32:37.000Z</time>
      </trkpt>
      <trkpt lat="44.11156" lon="7.05857">
        <ele>1761</ele>
        <time>2017-05-25T09:32:43.000Z</time>
      </trkpt>
      <trkpt lat="44.11156" lon="7.05856">
        <ele>1761</ele>
        <time>2017-05-25T09:32:44.000Z</time>
      </trkpt>
      <trkpt lat="44.11162" lon="7.0585">
        <ele>1761</ele>
        <time>2017-05-25T09:32:48.000Z</time>
      </trkpt>
      <trkpt lat="44.11163" lon="7.05849">
        <ele>1761</ele>
        <time>2017-05-25T09:32:49.000Z</time>
      </trkpt>
      <trkpt lat="44.11169" lon="7.05838">
        <ele>1755</ele>
        <time>2017-05-25T09:32:54.000Z</time>
      </trkpt>
      <trkpt lat="44.11171" lon="7.05837">
        <ele>1756</ele>
        <time>2017-05-25T09:32:55.000Z</time>
      </trkpt>
      <trkpt lat="44.11171" lon="7.05836">
        <ele>1756</ele>
        <time>2017-05-25T09:32:58.000Z</time>
      </trkpt>
      <trkpt lat="44.11171" lon="7.05836">
        <ele>1756</ele>
        <time>2017-05-25T09:32:59.000Z</time>
      </trkpt>
      <trkpt lat="44.11172" lon="7.05833">
        <ele>1761</ele>
        <time>2017-05-25T09:33:06.000Z</time>
      </trkpt>
      <trkpt lat="44.11175" lon="7.0583">
        <ele>1761</ele>
        <time>2017-05-25T09:33:13.000Z</time>
      </trkpt>
      <trkpt lat="44.11184" lon="7.05822">
        <ele>1761</ele>
        <time>2017-05-25T09:33:20.000Z</time>
      </trkpt>
      <trkpt lat="44.11186" lon="7.05819">
        <ele>1761</ele>
        <time>2017-05-25T09:33:22.000Z</time>
      </trkpt>
      <trkpt lat="44.11191" lon="7.05813">
        <ele>1761</ele>
        <time>2017-05-25T09:33:27.000Z</time>
      </trkpt>
      <trkpt lat="44.11194" lon="7.05809">
        <ele>1761</ele>
        <time>2017-05-25T09:33:30.000Z</time>
      </trkpt>
      <trkpt lat="44.11197" lon="7.05803">
        <ele>1761</ele>
        <time>2017-05-25T09:33:34.000Z</time>
      </trkpt>
      <trkpt lat="44.11198" lon="7.05801">
        <ele>1761</ele>
        <time>2017-05-25T09:33:35.000Z</time>
      </trkpt>
      <trkpt lat="44.112" lon="7.05797">
        <ele>1762</ele>
        <time>2017-05-25T09:33:39.000Z</time>
      </trkpt>
      <trkpt lat="44.112" lon="7.05796">
        <ele>1762</ele>
        <time>2017-05-25T09:33:40.000Z</time>
      </trkpt>
      <trkpt lat="44.11204" lon="7.05792">
        <ele>1762</ele>
        <time>2017-05-25T09:33:44.000Z</time>
      </trkpt>
      <trkpt lat="44.11209" lon="7.05784">
        <ele>1762</ele>
        <time>2017-05-25T09:33:50.000Z</time>
      </trkpt>
      <trkpt lat="44.11211" lon="7.05781">
        <ele>1762</ele>
        <time>2017-05-25T09:33:52.000Z</time>
      </trkpt>
      <trkpt lat="44.11212" lon="7.0578">
        <ele>1762</ele>
        <time>2017-05-25T09:33:56.000Z</time>
      </trkpt>
      <trkpt lat="44.11212" lon="7.0578">
        <ele>1762</ele>
        <time>2017-05-25T09:33:58.000Z</time>
      </trkpt>
      <trkpt lat="44.11214" lon="7.05776">
        <ele>1763</ele>
        <time>2017-05-25T09:34:04.000Z</time>
      </trkpt>
      <trkpt lat="44.11215" lon="7.05772">
        <ele>1763</ele>
        <time>2017-05-25T09:34:11.000Z</time>
      </trkpt>
      <trkpt lat="44.11215" lon="7.05771">
        <ele>1763</ele>
        <time>2017-05-25T09:34:13.000Z</time>
      </trkpt>
      <trkpt lat="44.11216" lon="7.05769">
        <ele>1763</ele>
        <time>2017-05-25T09:34:23.000Z</time>
      </trkpt>
      <trkpt lat="44.11216" lon="7.05766">
        <ele>1764</ele>
        <time>2017-05-25T09:34:30.000Z</time>
      </trkpt>
      <trkpt lat="44.11217" lon="7.05764">
        <ele>1764</ele>
        <time>2017-05-25T09:34:35.000Z</time>
      </trkpt>
      <trkpt lat="44.11214" lon="7.05765">
        <ele>1764</ele>
        <time>2017-05-25T09:34:40.000Z</time>
      </trkpt>
      <trkpt lat="44.11214" lon="7.05766">
        <ele>1764</ele>
        <time>2017-05-25T09:34:41.000Z</time>
      </trkpt>
      <trkpt lat="44.11211" lon="7.05767">
        <ele>1765</ele>
        <time>2017-05-25T09:34:44.000Z</time>
      </trkpt>
      <trkpt lat="44.11209" lon="7.05766">
        <ele>1765</ele>
        <time>2017-05-25T09:34:47.000Z</time>
      </trkpt>
      <trkpt lat="44.11209" lon="7.05766">
        <ele>1765</ele>
        <time>2017-05-25T09:34:48.000Z</time>
      </trkpt>
      <trkpt lat="44.1121" lon="7.05762">
        <ele>1766</ele>
        <time>2017-05-25T09:34:53.000Z</time>
      </trkpt>
      <trkpt lat="44.1121" lon="7.05762">
        <ele>1765</ele>
        <time>2017-05-25T09:34:54.000Z</time>
      </trkpt>
      <trkpt lat="44.11212" lon="7.05758">
        <ele>1765</ele>
        <time>2017-05-25T09:34:58.000Z</time>
      </trkpt>
      <trkpt lat="44.11213" lon="7.05758">
        <ele>1765</ele>
        <time>2017-05-25T09:34:59.000Z</time>
      </trkpt>
      <trkpt lat="44.11215" lon="7.05755">
        <ele>1765</ele>
        <time>2017-05-25T09:35:04.000Z</time>
      </trkpt>
      <trkpt lat="44.11216" lon="7.05752">
        <ele>1765</ele>
        <time>2017-05-25T09:35:06.000Z</time>
      </trkpt>
      <trkpt lat="44.11217" lon="7.0575">
        <ele>1765</ele>
        <time>2017-05-25T09:35:09.000Z</time>
      </trkpt>
      <trkpt lat="44.11219" lon="7.05747">
        <ele>1779</ele>
        <time>2017-05-25T09:35:14.000Z</time>
      </trkpt>
      <trkpt lat="44.11219" lon="7.05747">
        <ele>1779</ele>
        <time>2017-05-25T09:35:15.000Z</time>
      </trkpt>
      <trkpt lat="44.11222" lon="7.05743">
        <ele>1778</ele>
        <time>2017-05-25T09:35:19.000Z</time>
      </trkpt>
      <trkpt lat="44.11222" lon="7.05741">
        <ele>1778</ele>
        <time>2017-05-25T09:35:21.000Z</time>
      </trkpt>
      <trkpt lat="44.11222" lon="7.0574">
        <ele>1779</ele>
        <time>2017-05-25T09:35:22.000Z</time>
      </trkpt>
      <trkpt lat="44.11222" lon="7.05735">
        <ele>1779</ele>
        <time>2017-05-25T09:35:27.000Z</time>
      </trkpt>
      <trkpt lat="44.11225" lon="7.05734">
        <ele>1778</ele>
        <time>2017-05-25T09:35:30.000Z</time>
      </trkpt>
      <trkpt lat="44.11225" lon="7.05732">
        <ele>1779</ele>
        <time>2017-05-25T09:35:32.000Z</time>
      </trkpt>
      <trkpt lat="44.11226" lon="7.05731">
        <ele>1779</ele>
        <time>2017-05-25T09:35:33.000Z</time>
      </trkpt>
      <trkpt lat="44.11229" lon="7.05724">
        <ele>1779</ele>
        <time>2017-05-25T09:35:39.000Z</time>
      </trkpt>
      <trkpt lat="44.1123" lon="7.05722">
        <ele>1780</ele>
        <time>2017-05-25T09:35:41.000Z</time>
      </trkpt>
      <trkpt lat="44.11231" lon="7.05719">
        <ele>1780</ele>
        <time>2017-05-25T09:35:44.000Z</time>
      </trkpt>
      <trkpt lat="44.11234" lon="7.05715">
        <ele>1781</ele>
        <time>2017-05-25T09:35:48.000Z</time>
      </trkpt>
      <trkpt lat="44.11234" lon="7.05713">
        <ele>1781</ele>
        <time>2017-05-25T09:35:50.000Z</time>
      </trkpt>
      <trkpt lat="44.11235" lon="7.0571">
        <ele>1782</ele>
        <time>2017-05-25T09:35:53.000Z</time>
      </trkpt>
      <trkpt lat="44.11237" lon="7.05709">
        <ele>1782</ele>
        <time>2017-05-25T09:35:55.000Z</time>
      </trkpt>
      <trkpt lat="44.11238" lon="7.05708">
        <ele>1782</ele>
        <time>2017-05-25T09:35:59.000Z</time>
      </trkpt>
      <trkpt lat="44.11242" lon="7.05704">
        <ele>1782</ele>
        <time>2017-05-25T09:36:05.000Z</time>
      </trkpt>
      <trkpt lat="44.11242" lon="7.05704">
        <ele>1782</ele>
        <time>2017-05-25T09:36:07.000Z</time>
      </trkpt>
      <trkpt lat="44.11243" lon="7.05703">
        <ele>1783</ele>
        <time>2017-05-25T09:36:08.000Z</time>
      </trkpt>
      <trkpt lat="44.11245" lon="7.057">
        <ele>1783</ele>
        <time>2017-05-25T09:36:11.000Z</time>
      </trkpt>
      <trkpt lat="44.11248" lon="7.05693">
        <ele>1784</ele>
        <time>2017-05-25T09:36:17.000Z</time>
      </trkpt>
      <trkpt lat="44.11251" lon="7.05687">
        <ele>1774</ele>
        <time>2017-05-25T09:36:23.000Z</time>
      </trkpt>
      <trkpt lat="44.11251" lon="7.05687">
        <ele>1774</ele>
        <time>2017-05-25T09:36:24.000Z</time>
      </trkpt>
      <trkpt lat="44.11253" lon="7.05682">
        <ele>1777</ele>
        <time>2017-05-25T09:36:29.000Z</time>
      </trkpt>
      <trkpt lat="44.11252" lon="7.05679">
        <ele>1779</ele>
        <time>2017-05-25T09:36:34.000Z</time>
      </trkpt>
      <trkpt lat="44.11252" lon="7.05679">
        <ele>1779</ele>
        <time>2017-05-25T09:36:36.000Z</time>
      </trkpt>
      <trkpt lat="44.11249" lon="7.05677">
        <ele>1787</ele>
        <time>2017-05-25T09:36:40.000Z</time>
      </trkpt>
      <trkpt lat="44.11251" lon="7.05672">
        <ele>1784</ele>
        <time>2017-05-25T09:36:44.000Z</time>
      </trkpt>
      <trkpt lat="44.11251" lon="7.05671">
        <ele>1784</ele>
        <time>2017-05-25T09:36:45.000Z</time>
      </trkpt>
      <trkpt lat="44.11253" lon="7.05667">
        <ele>1788</ele>
        <time>2017-05-25T09:36:49.000Z</time>
      </trkpt>
      <trkpt lat="44.11253" lon="7.05667">
        <ele>1786</ele>
        <time>2017-05-25T09:36:50.000Z</time>
      </trkpt>
      <trkpt lat="44.11252" lon="7.05659">
        <ele>1788</ele>
        <time>2017-05-25T09:36:56.000Z</time>
      </trkpt>
      <trkpt lat="44.11253" lon="7.05658">
        <ele>1788</ele>
        <time>2017-05-25T09:36:57.000Z</time>
      </trkpt>
      <trkpt lat="44.11256" lon="7.05653">
        <ele>1787</ele>
        <time>2017-05-25T09:37:02.000Z</time>
      </trkpt>
      <trkpt lat="44.11256" lon="7.05651">
        <ele>1787</ele>
        <time>2017-05-25T09:37:04.000Z</time>
      </trkpt>
      <trkpt lat="44.11257" lon="7.05649">
        <ele>1787</ele>
        <time>2017-05-25T09:37:05.000Z</time>
      </trkpt>
      <trkpt lat="44.11259" lon="7.05645">
        <ele>1786</ele>
        <time>2017-05-25T09:37:09.000Z</time>
      </trkpt>
      <trkpt lat="44.1126" lon="7.05644">
        <ele>1786</ele>
        <time>2017-05-25T09:37:10.000Z</time>
      </trkpt>
      <trkpt lat="44.11261" lon="7.05642">
        <ele>1786</ele>
        <time>2017-05-25T09:37:14.000Z</time>
      </trkpt>
      <trkpt lat="44.11262" lon="7.0564">
        <ele>1786</ele>
        <time>2017-05-25T09:37:15.000Z</time>
      </trkpt>
      <trkpt lat="44.11268" lon="7.05632">
        <ele>1786</ele>
        <time>2017-05-25T09:37:22.000Z</time>
      </trkpt>
      <trkpt lat="44.11269" lon="7.0563">
        <ele>1786</ele>
        <time>2017-05-25T09:37:24.000Z</time>
      </trkpt>
      <trkpt lat="44.1127" lon="7.05628">
        <ele>1786</ele>
        <time>2017-05-25T09:37:25.000Z</time>
      </trkpt>
      <trkpt lat="44.11274" lon="7.05623">
        <ele>1786</ele>
        <time>2017-05-25T09:37:28.000Z</time>
      </trkpt>
      <trkpt lat="44.11275" lon="7.05623">
        <ele>1786</ele>
        <time>2017-05-25T09:37:29.000Z</time>
      </trkpt>
      <trkpt lat="44.11277" lon="7.05621">
        <ele>1786</ele>
        <time>2017-05-25T09:37:31.000Z</time>
      </trkpt>
      <trkpt lat="44.11281" lon="7.05619">
        <ele>1786</ele>
        <time>2017-05-25T09:37:34.000Z</time>
      </trkpt>
      <trkpt lat="44.11281" lon="7.05618">
        <ele>1786</ele>
        <time>2017-05-25T09:37:35.000Z</time>
      </trkpt>
      <trkpt lat="44.11283" lon="7.05617">
        <ele>1786</ele>
        <time>2017-05-25T09:37:37.000Z</time>
      </trkpt>
      <trkpt lat="44.11287" lon="7.05611">
        <ele>1787</ele>
        <time>2017-05-25T09:37:41.000Z</time>
      </trkpt>
      <trkpt lat="44.1129" lon="7.05609">
        <ele>1787</ele>
        <time>2017-05-25T09:37:44.000Z</time>
      </trkpt>
      <trkpt lat="44.11292" lon="7.05607">
        <ele>1787</ele>
        <time>2017-05-25T09:37:46.000Z</time>
      </trkpt>
      <trkpt lat="44.11294" lon="7.05605">
        <ele>1787</ele>
        <time>2017-05-25T09:37:47.000Z</time>
      </trkpt>
      <trkpt lat="44.11299" lon="7.05598">
        <ele>1787</ele>
        <time>2017-05-25T09:37:51.000Z</time>
      </trkpt>
      <trkpt lat="44.11301" lon="7.05597">
        <ele>1788</ele>
        <time>2017-05-25T09:37:52.000Z</time>
      </trkpt>
      <trkpt lat="44.11301" lon="7.05596">
        <ele>1788</ele>
        <time>2017-05-25T09:37:55.000Z</time>
      </trkpt>
      <trkpt lat="44.11301" lon="7.05596">
        <ele>1788</ele>
        <time>2017-05-25T09:37:56.000Z</time>
      </trkpt>
      <trkpt lat="44.11305" lon="7.05591">
        <ele>1788</ele>
        <time>2017-05-25T09:38:02.000Z</time>
      </trkpt>
      <trkpt lat="44.11307" lon="7.05589">
        <ele>1788</ele>
        <time>2017-05-25T09:38:07.000Z</time>
      </trkpt>
      <trkpt lat="44.11307" lon="7.0559">
        <ele>1788</ele>
        <time>2017-05-25T09:38:08.000Z</time>
      </trkpt>
      <trkpt lat="44.11308" lon="7.05588">
        <ele>1788</ele>
        <time>2017-05-25T09:38:12.000Z</time>
      </trkpt>
      <trkpt lat="44.11311" lon="7.05584">
        <ele>1789</ele>
        <time>2017-05-25T09:38:17.000Z</time>
      </trkpt>
      <trkpt lat="44.11314" lon="7.05582">
        <ele>1793</ele>
        <time>2017-05-25T09:38:21.000Z</time>
      </trkpt>
      <trkpt lat="44.11314" lon="7.05582">
        <ele>1793</ele>
        <time>2017-05-25T09:38:22.000Z</time>
      </trkpt>
      <trkpt lat="44.11315" lon="7.05581">
        <ele>1793</ele>
        <time>2017-05-25T09:38:25.000Z</time>
      </trkpt>
      <trkpt lat="44.11315" lon="7.05581">
        <ele>1793</ele>
        <time>2017-05-25T09:38:27.000Z</time>
      </trkpt>
      <trkpt lat="44.11319" lon="7.05576">
        <ele>1793</ele>
        <time>2017-05-25T09:38:34.000Z</time>
      </trkpt>
      <trkpt lat="44.11318" lon="7.05576">
        <ele>1793</ele>
        <time>2017-05-25T09:38:35.000Z</time>
      </trkpt>
      <trkpt lat="44.11322" lon="7.05577">
        <ele>1794</ele>
        <time>2017-05-25T09:38:41.000Z</time>
      </trkpt>
      <trkpt lat="44.11324" lon="7.05572">
        <ele>1794</ele>
        <time>2017-05-25T09:38:46.000Z</time>
      </trkpt>
      <trkpt lat="44.11325" lon="7.0557">
        <ele>1794</ele>
        <time>2017-05-25T09:38:48.000Z</time>
      </trkpt>
      <trkpt lat="44.11326" lon="7.05566">
        <ele>1794</ele>
        <time>2017-05-25T09:38:54.000Z</time>
      </trkpt>
      <trkpt lat="44.11328" lon="7.05563">
        <ele>1794</ele>
        <time>2017-05-25T09:38:59.000Z</time>
      </trkpt>
      <trkpt lat="44.1133" lon="7.05562">
        <ele>1794</ele>
        <time>2017-05-25T09:39:00.000Z</time>
      </trkpt>
      <trkpt lat="44.11338" lon="7.05554">
        <ele>1796</ele>
        <time>2017-05-25T09:39:07.000Z</time>
      </trkpt>
      <trkpt lat="44.11342" lon="7.0555">
        <ele>1796</ele>
        <time>2017-05-25T09:39:12.000Z</time>
      </trkpt>
      <trkpt lat="44.11345" lon="7.05548">
        <ele>1797</ele>
        <time>2017-05-25T09:39:14.000Z</time>
      </trkpt>
      <trkpt lat="44.11348" lon="7.05543">
        <ele>1797</ele>
        <time>2017-05-25T09:39:18.000Z</time>
      </trkpt>
      <trkpt lat="44.11352" lon="7.0554">
        <ele>1797</ele>
        <time>2017-05-25T09:39:21.000Z</time>
      </trkpt>
      <trkpt lat="44.11354" lon="7.05538">
        <ele>1797</ele>
        <time>2017-05-25T09:39:23.000Z</time>
      </trkpt>
      <trkpt lat="44.11358" lon="7.05532">
        <ele>1798</ele>
        <time>2017-05-25T09:39:28.000Z</time>
      </trkpt>
      <trkpt lat="44.1136" lon="7.05531">
        <ele>1798</ele>
        <time>2017-05-25T09:39:29.000Z</time>
      </trkpt>
      <trkpt lat="44.11364" lon="7.05527">
        <ele>1798</ele>
        <time>2017-05-25T09:39:34.000Z</time>
      </trkpt>
      <trkpt lat="44.11367" lon="7.05523">
        <ele>1799</ele>
        <time>2017-05-25T09:39:37.000Z</time>
      </trkpt>
      <trkpt lat="44.11368" lon="7.05521">
        <ele>1799</ele>
        <time>2017-05-25T09:39:38.000Z</time>
      </trkpt>
      <trkpt lat="44.1137" lon="7.05518">
        <ele>1799</ele>
        <time>2017-05-25T09:39:40.000Z</time>
      </trkpt>
      <trkpt lat="44.11371" lon="7.05515">
        <ele>1799</ele>
        <time>2017-05-25T09:39:45.000Z</time>
      </trkpt>
      <trkpt lat="44.11372" lon="7.05514">
        <ele>1799</ele>
        <time>2017-05-25T09:39:46.000Z</time>
      </trkpt>
      <trkpt lat="44.11376" lon="7.05509">
        <ele>1800</ele>
        <time>2017-05-25T09:39:52.000Z</time>
      </trkpt>
      <trkpt lat="44.11378" lon="7.05508">
        <ele>1800</ele>
        <time>2017-05-25T09:39:55.000Z</time>
      </trkpt>
      <trkpt lat="44.11379" lon="7.05505">
        <ele>1800</ele>
        <time>2017-05-25T09:39:59.000Z</time>
      </trkpt>
      <trkpt lat="44.11384" lon="7.05499">
        <ele>1805</ele>
        <time>2017-05-25T09:40:05.000Z</time>
      </trkpt>
      <trkpt lat="44.11392" lon="7.05491">
        <ele>1806</ele>
        <time>2017-05-25T09:40:12.000Z</time>
      </trkpt>
      <trkpt lat="44.11398" lon="7.05484">
        <ele>1806</ele>
        <time>2017-05-25T09:40:18.000Z</time>
      </trkpt>
      <trkpt lat="44.11399" lon="7.05483">
        <ele>1806</ele>
        <time>2017-05-25T09:40:19.000Z</time>
      </trkpt>
      <trkpt lat="44.11402" lon="7.0548">
        <ele>1806</ele>
        <time>2017-05-25T09:40:22.000Z</time>
      </trkpt>
      <trkpt lat="44.11405" lon="7.05476">
        <ele>1806</ele>
        <time>2017-05-25T09:40:27.000Z</time>
      </trkpt>
      <trkpt lat="44.11406" lon="7.05474">
        <ele>1806</ele>
        <time>2017-05-25T09:40:28.000Z</time>
      </trkpt>
      <trkpt lat="44.11407" lon="7.05471">
        <ele>1806</ele>
        <time>2017-05-25T09:40:30.000Z</time>
      </trkpt>
      <trkpt lat="44.11407" lon="7.0547">
        <ele>1806</ele>
        <time>2017-05-25T09:40:31.000Z</time>
      </trkpt>
      <trkpt lat="44.11408" lon="7.05469">
        <ele>1806</ele>
        <time>2017-05-25T09:40:33.000Z</time>
      </trkpt>
      <trkpt lat="44.11408" lon="7.05469">
        <ele>1806</ele>
        <time>2017-05-25T09:40:36.000Z</time>
      </trkpt>
      <trkpt lat="44.11408" lon="7.05468">
        <ele>1806</ele>
        <time>2017-05-25T09:40:38.000Z</time>
      </trkpt>
      <trkpt lat="44.11409" lon="7.05466">
        <ele>1806</ele>
        <time>2017-05-25T09:40:45.000Z</time>
      </trkpt>
      <trkpt lat="44.11411" lon="7.05462">
        <ele>1806</ele>
        <time>2017-05-25T09:40:51.000Z</time>
      </trkpt>
      <trkpt lat="44.11412" lon="7.05461">
        <ele>1806</ele>
        <time>2017-05-25T09:40:52.000Z</time>
      </trkpt>
      <trkpt lat="44.11413" lon="7.05458">
        <ele>1807</ele>
        <time>2017-05-25T09:40:58.000Z</time>
      </trkpt>
      <trkpt lat="44.11414" lon="7.05457">
        <ele>1807</ele>
        <time>2017-05-25T09:41:01.000Z</time>
      </trkpt>
      <trkpt lat="44.11415" lon="7.05457">
        <ele>1807</ele>
        <time>2017-05-25T09:41:05.000Z</time>
      </trkpt>
      <trkpt lat="44.11416" lon="7.05456">
        <ele>1807</ele>
        <time>2017-05-25T09:41:12.000Z</time>
      </trkpt>
      <trkpt lat="44.11418" lon="7.05454">
        <ele>1816</ele>
        <time>2017-05-25T09:41:19.000Z</time>
      </trkpt>
      <trkpt lat="44.11421" lon="7.05452">
        <ele>1816</ele>
        <time>2017-05-25T09:41:25.000Z</time>
      </trkpt>
      <trkpt lat="44.11424" lon="7.0545">
        <ele>1816</ele>
        <time>2017-05-25T09:41:31.000Z</time>
      </trkpt>
      <trkpt lat="44.11425" lon="7.05449">
        <ele>1816</ele>
        <time>2017-05-25T09:41:32.000Z</time>
      </trkpt>
      <trkpt lat="44.11425" lon="7.05447">
        <ele>1816</ele>
        <time>2017-05-25T09:41:36.000Z</time>
      </trkpt>
      <trkpt lat="44.11427" lon="7.05444">
        <ele>1816</ele>
        <time>2017-05-25T09:41:38.000Z</time>
      </trkpt>
      <trkpt lat="44.11428" lon="7.05441">
        <ele>1817</ele>
        <time>2017-05-25T09:41:42.000Z</time>
      </trkpt>
      <trkpt lat="44.11429" lon="7.05441">
        <ele>1817</ele>
        <time>2017-05-25T09:41:44.000Z</time>
      </trkpt>
      <trkpt lat="44.11432" lon="7.05438">
        <ele>1817</ele>
        <time>2017-05-25T09:41:50.000Z</time>
      </trkpt>
      <trkpt lat="44.11433" lon="7.05437">
        <ele>1817</ele>
        <time>2017-05-25T09:41:52.000Z</time>
      </trkpt>
      <trkpt lat="44.11434" lon="7.05435">
        <ele>1817</ele>
        <time>2017-05-25T09:41:55.000Z</time>
      </trkpt>
      <trkpt lat="44.11434" lon="7.05435">
        <ele>1817</ele>
        <time>2017-05-25T09:41:58.000Z</time>
      </trkpt>
      <trkpt lat="44.11435" lon="7.05433">
        <ele>1817</ele>
        <time>2017-05-25T09:42:01.000Z</time>
      </trkpt>
      <trkpt lat="44.11436" lon="7.05431">
        <ele>1818</ele>
        <time>2017-05-25T09:42:05.000Z</time>
      </trkpt>
      <trkpt lat="44.11437" lon="7.05428">
        <ele>1818</ele>
        <time>2017-05-25T09:42:09.000Z</time>
      </trkpt>
      <trkpt lat="44.11439" lon="7.05428">
        <ele>1818</ele>
        <time>2017-05-25T09:42:11.000Z</time>
      </trkpt>
      <trkpt lat="44.1144" lon="7.05427">
        <ele>1818</ele>
        <time>2017-05-25T09:42:15.000Z</time>
      </trkpt>
      <trkpt lat="44.11441" lon="7.05427">
        <ele>1818</ele>
        <time>2017-05-25T09:42:19.000Z</time>
      </trkpt>
      <trkpt lat="44.11441" lon="7.05427">
        <ele>1818</ele>
        <time>2017-05-25T09:42:22.000Z</time>
      </trkpt>
      <trkpt lat="44.11442" lon="7.05427">
        <ele>1818</ele>
        <time>2017-05-25T09:42:25.000Z</time>
      </trkpt>
      <trkpt lat="44.11445" lon="7.05425">
        <ele>1818</ele>
        <time>2017-05-25T09:42:28.000Z</time>
      </trkpt>
      <trkpt lat="44.11445" lon="7.05424">
        <ele>1818</ele>
        <time>2017-05-25T09:42:31.000Z</time>
      </trkpt>
      <trkpt lat="44.11447" lon="7.05422">
        <ele>1819</ele>
        <time>2017-05-25T09:42:35.000Z</time>
      </trkpt>
      <trkpt lat="44.11449" lon="7.0542">
        <ele>1819</ele>
        <time>2017-05-25T09:42:38.000Z</time>
      </trkpt>
      <trkpt lat="44.1145" lon="7.05419">
        <ele>1819</ele>
        <time>2017-05-25T09:42:41.000Z</time>
      </trkpt>
      <trkpt lat="44.1145" lon="7.05419">
        <ele>1819</ele>
        <time>2017-05-25T09:42:44.000Z</time>
      </trkpt>
      <trkpt lat="44.11452" lon="7.05417">
        <ele>1819</ele>
        <time>2017-05-25T09:42:47.000Z</time>
      </trkpt>
      <trkpt lat="44.11453" lon="7.05416">
        <ele>1823</ele>
        <time>2017-05-25T09:42:51.000Z</time>
      </trkpt>
      <trkpt lat="44.11453" lon="7.05416">
        <ele>1823</ele>
        <time>2017-05-25T09:42:53.000Z</time>
      </trkpt>
      <trkpt lat="44.11454" lon="7.05414">
        <ele>1823</ele>
        <time>2017-05-25T09:42:56.000Z</time>
      </trkpt>
      <trkpt lat="44.11456" lon="7.05411">
        <ele>1823</ele>
        <time>2017-05-25T09:42:59.000Z</time>
      </trkpt>
      <trkpt lat="44.11457" lon="7.0541">
        <ele>1823</ele>
        <time>2017-05-25T09:43:01.000Z</time>
      </trkpt>
      <trkpt lat="44.11459" lon="7.05407">
        <ele>1824</ele>
        <time>2017-05-25T09:43:05.000Z</time>
      </trkpt>
      <trkpt lat="44.11461" lon="7.05405">
        <ele>1824</ele>
        <time>2017-05-25T09:43:09.000Z</time>
      </trkpt>
      <trkpt lat="44.11462" lon="7.05404">
        <ele>1824</ele>
        <time>2017-05-25T09:43:12.000Z</time>
      </trkpt>
      <trkpt lat="44.11464" lon="7.05401">
        <ele>1824</ele>
        <time>2017-05-25T09:43:16.000Z</time>
      </trkpt>
      <trkpt lat="44.11466" lon="7.054">
        <ele>1825</ele>
        <time>2017-05-25T09:43:19.000Z</time>
      </trkpt>
      <trkpt lat="44.11467" lon="7.05401">
        <ele>1825</ele>
        <time>2017-05-25T09:43:23.000Z</time>
      </trkpt>
      <trkpt lat="44.11469" lon="7.05402">
        <ele>1825</ele>
        <time>2017-05-25T09:43:25.000Z</time>
      </trkpt>
      <trkpt lat="44.11469" lon="7.05402">
        <ele>1825</ele>
        <time>2017-05-25T09:43:28.000Z</time>
      </trkpt>
      <trkpt lat="44.11471" lon="7.05402">
        <ele>1826</ele>
        <time>2017-05-25T09:43:31.000Z</time>
      </trkpt>
      <trkpt lat="44.11473" lon="7.05403">
        <ele>1826</ele>
        <time>2017-05-25T09:43:37.000Z</time>
      </trkpt>
      <trkpt lat="44.11476" lon="7.05404">
        <ele>1827</ele>
        <time>2017-05-25T09:43:44.000Z</time>
      </trkpt>
      <trkpt lat="44.11479" lon="7.05402">
        <ele>1827</ele>
        <time>2017-05-25T09:43:50.000Z</time>
      </trkpt>
      <trkpt lat="44.11479" lon="7.05401">
        <ele>1827</ele>
        <time>2017-05-25T09:43:51.000Z</time>
      </trkpt>
      <trkpt lat="44.11483" lon="7.05395">
        <ele>1827</ele>
        <time>2017-05-25T09:43:58.000Z</time>
      </trkpt>
      <trkpt lat="44.11483" lon="7.05394">
        <ele>1827</ele>
        <time>2017-05-25T09:43:59.000Z</time>
      </trkpt>
      <trkpt lat="44.11486" lon="7.05391">
        <ele>1827</ele>
        <time>2017-05-25T09:44:04.000Z</time>
      </trkpt>
      <trkpt lat="44.11487" lon="7.0539">
        <ele>1827</ele>
        <time>2017-05-25T09:44:07.000Z</time>
      </trkpt>
      <trkpt lat="44.11489" lon="7.05387">
        <ele>1827</ele>
        <time>2017-05-25T09:44:10.000Z</time>
      </trkpt>
      <trkpt lat="44.11489" lon="7.05385">
        <ele>1827</ele>
        <time>2017-05-25T09:44:11.000Z</time>
      </trkpt>
      <trkpt lat="44.11492" lon="7.0538">
        <ele>1827</ele>
        <time>2017-05-25T09:44:17.000Z</time>
      </trkpt>
      <trkpt lat="44.11493" lon="7.05379">
        <ele>1827</ele>
        <time>2017-05-25T09:44:18.000Z</time>
      </trkpt>
      <trkpt lat="44.11496" lon="7.05377">
        <ele>1827</ele>
        <time>2017-05-25T09:44:23.000Z</time>
      </trkpt>
      <trkpt lat="44.11498" lon="7.05375">
        <ele>1828</ele>
        <time>2017-05-25T09:44:29.000Z</time>
      </trkpt>
      <trkpt lat="44.11499" lon="7.05376">
        <ele>1828</ele>
        <time>2017-05-25T09:44:30.000Z</time>
      </trkpt>
      <trkpt lat="44.115" lon="7.05377">
        <ele>1828</ele>
        <time>2017-05-25T09:44:35.000Z</time>
      </trkpt>
      <trkpt lat="44.11501" lon="7.05378">
        <ele>1840</ele>
        <time>2017-05-25T09:44:36.000Z</time>
      </trkpt>
      <trkpt lat="44.11502" lon="7.05379">
        <ele>1840</ele>
        <time>2017-05-25T09:44:41.000Z</time>
      </trkpt>
      <trkpt lat="44.11503" lon="7.0538">
        <ele>1840</ele>
        <time>2017-05-25T09:44:44.000Z</time>
      </trkpt>
      <trkpt lat="44.11504" lon="7.0538">
        <ele>1840</ele>
        <time>2017-05-25T09:44:47.000Z</time>
      </trkpt>
      <trkpt lat="44.11504" lon="7.05381">
        <ele>1840</ele>
        <time>2017-05-25T09:44:49.000Z</time>
      </trkpt>
      <trkpt lat="44.11507" lon="7.05383">
        <ele>1840</ele>
        <time>2017-05-25T09:44:53.000Z</time>
      </trkpt>
      <trkpt lat="44.11508" lon="7.05382">
        <ele>1840</ele>
        <time>2017-05-25T09:44:55.000Z</time>
      </trkpt>
      <trkpt lat="44.11511" lon="7.05383">
        <ele>1840</ele>
        <time>2017-05-25T09:44:59.000Z</time>
      </trkpt>
      <trkpt lat="44.11513" lon="7.05382">
        <ele>1840</ele>
        <time>2017-05-25T09:45:03.000Z</time>
      </trkpt>
      <trkpt lat="44.11515" lon="7.05381">
        <ele>1840</ele>
        <time>2017-05-25T09:45:06.000Z</time>
      </trkpt>
      <trkpt lat="44.11517" lon="7.05379">
        <ele>1840</ele>
        <time>2017-05-25T09:45:09.000Z</time>
      </trkpt>
      <trkpt lat="44.11519" lon="7.05377">
        <ele>1840</ele>
        <time>2017-05-25T09:45:12.000Z</time>
      </trkpt>
      <trkpt lat="44.11521" lon="7.05375">
        <ele>1841</ele>
        <time>2017-05-25T09:45:17.000Z</time>
      </trkpt>
      <trkpt lat="44.11523" lon="7.05373">
        <ele>1841</ele>
        <time>2017-05-25T09:45:19.000Z</time>
      </trkpt>
      <trkpt lat="44.11526" lon="7.05371">
        <ele>1841</ele>
        <time>2017-05-25T09:45:25.000Z</time>
      </trkpt>
      <trkpt lat="44.11525" lon="7.05371">
        <ele>1841</ele>
        <time>2017-05-25T09:45:26.000Z</time>
      </trkpt>
      <trkpt lat="44.11529" lon="7.0537">
        <ele>1841</ele>
        <time>2017-05-25T09:45:31.000Z</time>
      </trkpt>
      <trkpt lat="44.11532" lon="7.05369">
        <ele>1842</ele>
        <time>2017-05-25T09:45:35.000Z</time>
      </trkpt>
      <trkpt lat="44.11533" lon="7.05368">
        <ele>1842</ele>
        <time>2017-05-25T09:45:37.000Z</time>
      </trkpt>
      <trkpt lat="44.11535" lon="7.05368">
        <ele>1842</ele>
        <time>2017-05-25T09:45:40.000Z</time>
      </trkpt>
      <trkpt lat="44.11536" lon="7.05367">
        <ele>1842</ele>
        <time>2017-05-25T09:45:44.000Z</time>
      </trkpt>
      <trkpt lat="44.11538" lon="7.05365">
        <ele>1843</ele>
        <time>2017-05-25T09:45:48.000Z</time>
      </trkpt>
      <trkpt lat="44.11538" lon="7.05365">
        <ele>1842</ele>
        <time>2017-05-25T09:45:49.000Z</time>
      </trkpt>
      <trkpt lat="44.1154" lon="7.05363">
        <ele>1843</ele>
        <time>2017-05-25T09:45:54.000Z</time>
      </trkpt>
      <trkpt lat="44.11541" lon="7.05361">
        <ele>1843</ele>
        <time>2017-05-25T09:45:56.000Z</time>
      </trkpt>
      <trkpt lat="44.11543" lon="7.0536">
        <ele>1844</ele>
        <time>2017-05-25T09:46:02.000Z</time>
      </trkpt>
      <trkpt lat="44.11548" lon="7.05359">
        <ele>1844</ele>
        <time>2017-05-25T09:46:08.000Z</time>
      </trkpt>
      <trkpt lat="44.11549" lon="7.05359">
        <ele>1844</ele>
        <time>2017-05-25T09:46:09.000Z</time>
      </trkpt>
      <trkpt lat="44.11552" lon="7.05359">
        <ele>1845</ele>
        <time>2017-05-25T09:46:14.000Z</time>
      </trkpt>
      <trkpt lat="44.11554" lon="7.05359">
        <ele>1845</ele>
        <time>2017-05-25T09:46:16.000Z</time>
      </trkpt>
      <trkpt lat="44.11556" lon="7.05358">
        <ele>1846</ele>
        <time>2017-05-25T09:46:20.000Z</time>
      </trkpt>
      <trkpt lat="44.1156" lon="7.05356">
        <ele>1847</ele>
        <time>2017-05-25T09:46:26.000Z</time>
      </trkpt>
      <trkpt lat="44.1156" lon="7.05355">
        <ele>1847</ele>
        <time>2017-05-25T09:46:27.000Z</time>
      </trkpt>
      <trkpt lat="44.11561" lon="7.05355">
        <ele>1847</ele>
        <time>2017-05-25T09:46:28.000Z</time>
      </trkpt>
      <trkpt lat="44.11563" lon="7.05353">
        <ele>1848</ele>
        <time>2017-05-25T09:46:32.000Z</time>
      </trkpt>
      <trkpt lat="44.11564" lon="7.05352">
        <ele>1849</ele>
        <time>2017-05-25T09:46:33.000Z</time>
      </trkpt>
      <trkpt lat="44.11567" lon="7.05348">
        <ele>1850</ele>
        <time>2017-05-25T09:46:39.000Z</time>
      </trkpt>
      <trkpt lat="44.11569" lon="7.05346">
        <ele>1852</ele>
        <time>2017-05-25T09:46:43.000Z</time>
      </trkpt>
      <trkpt lat="44.11571" lon="7.05343">
        <ele>1853</ele>
        <time>2017-05-25T09:46:47.000Z</time>
      </trkpt>
      <trkpt lat="44.11571" lon="7.05343">
        <ele>1853</ele>
        <time>2017-05-25T09:46:49.000Z</time>
      </trkpt>
      <trkpt lat="44.11572" lon="7.0534">
        <ele>1855</ele>
        <time>2017-05-25T09:46:54.000Z</time>
      </trkpt>
      <trkpt lat="44.11572" lon="7.05339">
        <ele>1855</ele>
        <time>2017-05-25T09:46:55.000Z</time>
      </trkpt>
      <trkpt lat="44.11575" lon="7.05336">
        <ele>1857</ele>
        <time>2017-05-25T09:46:59.000Z</time>
      </trkpt>
      <trkpt lat="44.11575" lon="7.05334">
        <ele>1858</ele>
        <time>2017-05-25T09:47:02.000Z</time>
      </trkpt>
      <trkpt lat="44.11576" lon="7.05332">
        <ele>1860</ele>
        <time>2017-05-25T09:47:04.000Z</time>
      </trkpt>
      <trkpt lat="44.11577" lon="7.05332">
        <ele>1860</ele>
        <time>2017-05-25T09:47:07.000Z</time>
      </trkpt>
      <trkpt lat="44.11578" lon="7.05328">
        <ele>1860</ele>
        <time>2017-05-25T09:47:11.000Z</time>
      </trkpt>
      <trkpt lat="44.11578" lon="7.05326">
        <ele>1859</ele>
        <time>2017-05-25T09:47:16.000Z</time>
      </trkpt>
      <trkpt lat="44.11578" lon="7.05325">
        <ele>1859</ele>
        <time>2017-05-25T09:47:17.000Z</time>
      </trkpt>
      <trkpt lat="44.11579" lon="7.05321">
        <ele>1858</ele>
        <time>2017-05-25T09:47:22.000Z</time>
      </trkpt>
      <trkpt lat="44.11581" lon="7.05319">
        <ele>1858</ele>
        <time>2017-05-25T09:47:24.000Z</time>
      </trkpt>
      <trkpt lat="44.11583" lon="7.05317">
        <ele>1857</ele>
        <time>2017-05-25T09:47:27.000Z</time>
      </trkpt>
      <trkpt lat="44.11588" lon="7.05312">
        <ele>1863</ele>
        <time>2017-05-25T09:47:34.000Z</time>
      </trkpt>
      <trkpt lat="44.11589" lon="7.0531">
        <ele>1863</ele>
        <time>2017-05-25T09:47:36.000Z</time>
      </trkpt>
      <trkpt lat="44.11591" lon="7.05308">
        <ele>1863</ele>
        <time>2017-05-25T09:47:40.000Z</time>
      </trkpt>
      <trkpt lat="44.11593" lon="7.05305">
        <ele>1863</ele>
        <time>2017-05-25T09:47:43.000Z</time>
      </trkpt>
      <trkpt lat="44.11594" lon="7.05305">
        <ele>1863</ele>
        <time>2017-05-25T09:47:44.000Z</time>
      </trkpt>
      <trkpt lat="44.11599" lon="7.05297">
        <ele>1863</ele>
        <time>2017-05-25T09:47:53.000Z</time>
      </trkpt>
      <trkpt lat="44.116" lon="7.05295">
        <ele>1863</ele>
        <time>2017-05-25T09:47:55.000Z</time>
      </trkpt>
      <trkpt lat="44.11604" lon="7.05288">
        <ele>1864</ele>
        <time>2017-05-25T09:48:03.000Z</time>
      </trkpt>
      <trkpt lat="44.11604" lon="7.05288">
        <ele>1864</ele>
        <time>2017-05-25T09:48:04.000Z</time>
      </trkpt>
      <trkpt lat="44.11608" lon="7.05283">
        <ele>1864</ele>
        <time>2017-05-25T09:48:11.000Z</time>
      </trkpt>
      <trkpt lat="44.11609" lon="7.05282">
        <ele>1864</ele>
        <time>2017-05-25T09:48:12.000Z</time>
      </trkpt>
      <trkpt lat="44.11611" lon="7.05281">
        <ele>1864</ele>
        <time>2017-05-25T09:48:19.000Z</time>
      </trkpt>
      <trkpt lat="44.11614" lon="7.05279">
        <ele>1864</ele>
        <time>2017-05-25T09:48:26.000Z</time>
      </trkpt>
      <trkpt lat="44.11614" lon="7.05279">
        <ele>1864</ele>
        <time>2017-05-25T09:48:35.000Z</time>
      </trkpt>
      <trkpt lat="44.11615" lon="7.05279">
        <ele>1864</ele>
        <time>2017-05-25T09:48:56.000Z</time>
      </trkpt>
      <trkpt lat="44.11616" lon="7.05278">
        <ele>1864</ele>
        <time>2017-05-25T09:49:00.000Z</time>
      </trkpt>
      <trkpt lat="44.11625" lon="7.05273">
        <ele>1865</ele>
        <time>2017-05-25T09:49:05.000Z</time>
      </trkpt>
      <trkpt lat="44.11631" lon="7.05269">
        <ele>1866</ele>
        <time>2017-05-25T09:49:10.000Z</time>
      </trkpt>
      <trkpt lat="44.11637" lon="7.05264">
        <ele>1867</ele>
        <time>2017-05-25T09:49:16.000Z</time>
      </trkpt>
      <trkpt lat="44.11639" lon="7.0526">
        <ele>1868</ele>
        <time>2017-05-25T09:49:23.000Z</time>
      </trkpt>
      <trkpt lat="44.1164" lon="7.05259">
        <ele>1868</ele>
        <time>2017-05-25T09:49:24.000Z</time>
      </trkpt>
      <trkpt lat="44.11642" lon="7.05255">
        <ele>1869</ele>
        <time>2017-05-25T09:49:29.000Z</time>
      </trkpt>
      <trkpt lat="44.11642" lon="7.05255">
        <ele>1869</ele>
        <time>2017-05-25T09:49:30.000Z</time>
      </trkpt>
      <trkpt lat="44.11644" lon="7.05251">
        <ele>1870</ele>
        <time>2017-05-25T09:49:36.000Z</time>
      </trkpt>
      <trkpt lat="44.11644" lon="7.0525">
        <ele>1876</ele>
        <time>2017-05-25T09:49:37.000Z</time>
      </trkpt>
      <trkpt lat="44.11649" lon="7.05245">
        <ele>1877</ele>
        <time>2017-05-25T09:49:44.000Z</time>
      </trkpt>
      <trkpt lat="44.11649" lon="7.05244">
        <ele>1877</ele>
        <time>2017-05-25T09:49:45.000Z</time>
      </trkpt>
      <trkpt lat="44.11652" lon="7.0524">
        <ele>1877</ele>
        <time>2017-05-25T09:49:51.000Z</time>
      </trkpt>
      <trkpt lat="44.11655" lon="7.05237">
        <ele>1878</ele>
        <time>2017-05-25T09:49:57.000Z</time>
      </trkpt>
      <trkpt lat="44.11656" lon="7.05237">
        <ele>1878</ele>
        <time>2017-05-25T09:49:58.000Z</time>
      </trkpt>
      <trkpt lat="44.11661" lon="7.05233">
        <ele>1878</ele>
        <time>2017-05-25T09:50:03.000Z</time>
      </trkpt>
      <trkpt lat="44.11669" lon="7.05228">
        <ele>1879</ele>
        <time>2017-05-25T09:50:08.000Z</time>
      </trkpt>
      <trkpt lat="44.11673" lon="7.05225">
        <ele>1879</ele>
        <time>2017-05-25T09:50:12.000Z</time>
      </trkpt>
      <trkpt lat="44.11679" lon="7.05217">
        <ele>1879</ele>
        <time>2017-05-25T09:50:18.000Z</time>
      </trkpt>
      <trkpt lat="44.11682" lon="7.05213">
        <ele>1879</ele>
        <time>2017-05-25T09:50:21.000Z</time>
      </trkpt>
      <trkpt lat="44.11683" lon="7.0521">
        <ele>1879</ele>
        <time>2017-05-25T09:50:25.000Z</time>
      </trkpt>
      <trkpt lat="44.11684" lon="7.05208">
        <ele>1879</ele>
        <time>2017-05-25T09:50:26.000Z</time>
      </trkpt>
      <trkpt lat="44.11687" lon="7.05203">
        <ele>1880</ele>
        <time>2017-05-25T09:50:30.000Z</time>
      </trkpt>
      <trkpt lat="44.11688" lon="7.05203">
        <ele>1880</ele>
        <time>2017-05-25T09:50:31.000Z</time>
      </trkpt>
      <trkpt lat="44.11689" lon="7.052">
        <ele>1880</ele>
        <time>2017-05-25T09:50:34.000Z</time>
      </trkpt>
      <trkpt lat="44.11691" lon="7.05195">
        <ele>1881</ele>
        <time>2017-05-25T09:50:37.000Z</time>
      </trkpt>
      <trkpt lat="44.11695" lon="7.05193">
        <ele>1881</ele>
        <time>2017-05-25T09:50:41.000Z</time>
      </trkpt>
      <trkpt lat="44.11697" lon="7.05192">
        <ele>1881</ele>
        <time>2017-05-25T09:50:42.000Z</time>
      </trkpt>
      <trkpt lat="44.11701" lon="7.05186">
        <ele>1881</ele>
        <time>2017-05-25T09:50:47.000Z</time>
      </trkpt>
      <trkpt lat="44.11702" lon="7.05183">
        <ele>1881</ele>
        <time>2017-05-25T09:50:50.000Z</time>
      </trkpt>
      <trkpt lat="44.11704" lon="7.0518">
        <ele>1881</ele>
        <time>2017-05-25T09:50:52.000Z</time>
      </trkpt>
      <trkpt lat="44.11707" lon="7.05172">
        <ele>1882</ele>
        <time>2017-05-25T09:50:57.000Z</time>
      </trkpt>
      <trkpt lat="44.11708" lon="7.0517">
        <ele>1882</ele>
        <time>2017-05-25T09:50:58.000Z</time>
      </trkpt>
      <trkpt lat="44.11711" lon="7.05163">
        <ele>1892</ele>
        <time>2017-05-25T09:51:02.000Z</time>
      </trkpt>
      <trkpt lat="44.11714" lon="7.05158">
        <ele>1892</ele>
        <time>2017-05-25T09:51:05.000Z</time>
      </trkpt>
      <trkpt lat="44.11718" lon="7.0515">
        <ele>1893</ele>
        <time>2017-05-25T09:51:10.000Z</time>
      </trkpt>
      <trkpt lat="44.11719" lon="7.05148">
        <ele>1893</ele>
        <time>2017-05-25T09:51:11.000Z</time>
      </trkpt>
      <trkpt lat="44.11722" lon="7.05141">
        <ele>1893</ele>
        <time>2017-05-25T09:51:16.000Z</time>
      </trkpt>
      <trkpt lat="44.11723" lon="7.05137">
        <ele>1893</ele>
        <time>2017-05-25T09:51:18.000Z</time>
      </trkpt>
      <trkpt lat="44.11724" lon="7.05132">
        <ele>1894</ele>
        <time>2017-05-25T09:51:21.000Z</time>
      </trkpt>
      <trkpt lat="44.11726" lon="7.05129">
        <ele>1894</ele>
        <time>2017-05-25T09:51:23.000Z</time>
      </trkpt>
      <trkpt lat="44.11728" lon="7.05125">
        <ele>1894</ele>
        <time>2017-05-25T09:51:25.000Z</time>
      </trkpt>
      <trkpt lat="44.11733" lon="7.05113">
        <ele>1896</ele>
        <time>2017-05-25T09:51:32.000Z</time>
      </trkpt>
      <trkpt lat="44.11734" lon="7.05111">
        <ele>1897</ele>
        <time>2017-05-25T09:51:33.000Z</time>
      </trkpt>
      <trkpt lat="44.11736" lon="7.0511">
        <ele>1897</ele>
        <time>2017-05-25T09:51:35.000Z</time>
      </trkpt>
      <trkpt lat="44.11738" lon="7.05108">
        <ele>1897</ele>
        <time>2017-05-25T09:51:37.000Z</time>
      </trkpt>
      <trkpt lat="44.11739" lon="7.05107">
        <ele>1898</ele>
        <time>2017-05-25T09:51:38.000Z</time>
      </trkpt>
      <trkpt lat="44.11743" lon="7.05101">
        <ele>1900</ele>
        <time>2017-05-25T09:51:43.000Z</time>
      </trkpt>
      <trkpt lat="44.11743" lon="7.051">
        <ele>1900</ele>
        <time>2017-05-25T09:51:44.000Z</time>
      </trkpt>
      <trkpt lat="44.11746" lon="7.05096">
        <ele>1901</ele>
        <time>2017-05-25T09:51:47.000Z</time>
      </trkpt>
      <trkpt lat="44.1175" lon="7.05089">
        <ele>1905</ele>
        <time>2017-05-25T09:51:52.000Z</time>
      </trkpt>
      <trkpt lat="44.11753" lon="7.05086">
        <ele>1906</ele>
        <time>2017-05-25T09:51:55.000Z</time>
      </trkpt>
      <trkpt lat="44.11758" lon="7.05082">
        <ele>1907</ele>
        <time>2017-05-25T09:52:00.000Z</time>
      </trkpt>
      <trkpt lat="44.11762" lon="7.05081">
        <ele>1907</ele>
        <time>2017-05-25T09:52:03.000Z</time>
      </trkpt>
      <trkpt lat="44.11765" lon="7.05079">
        <ele>1907</ele>
        <time>2017-05-25T09:52:05.000Z</time>
      </trkpt>
      <trkpt lat="44.1177" lon="7.05074">
        <ele>1907</ele>
        <time>2017-05-25T09:52:10.000Z</time>
      </trkpt>
      <trkpt lat="44.11771" lon="7.05073">
        <ele>1907</ele>
        <time>2017-05-25T09:52:12.000Z</time>
      </trkpt>
      <trkpt lat="44.11773" lon="7.05072">
        <ele>1907</ele>
        <time>2017-05-25T09:52:14.000Z</time>
      </trkpt>
      <trkpt lat="44.11777" lon="7.05069">
        <ele>1907</ele>
        <time>2017-05-25T09:52:18.000Z</time>
      </trkpt>
      <trkpt lat="44.11784" lon="7.05064">
        <ele>1907</ele>
        <time>2017-05-25T09:52:24.000Z</time>
      </trkpt>
      <trkpt lat="44.11786" lon="7.05062">
        <ele>1907</ele>
        <time>2017-05-25T09:52:26.000Z</time>
      </trkpt>
      <trkpt lat="44.1179" lon="7.05056">
        <ele>1907</ele>
        <time>2017-05-25T09:52:32.000Z</time>
      </trkpt>
      <trkpt lat="44.11792" lon="7.05053">
        <ele>1907</ele>
        <time>2017-05-25T09:52:35.000Z</time>
      </trkpt>
      <trkpt lat="44.11795" lon="7.05047">
        <ele>1907</ele>
        <time>2017-05-25T09:52:39.000Z</time>
      </trkpt>
      <trkpt lat="44.11798" lon="7.05042">
        <ele>1908</ele>
        <time>2017-05-25T09:52:44.000Z</time>
      </trkpt>
      <trkpt lat="44.118" lon="7.05041">
        <ele>1908</ele>
        <time>2017-05-25T09:52:46.000Z</time>
      </trkpt>
      <trkpt lat="44.11802" lon="7.05039">
        <ele>1908</ele>
        <time>2017-05-25T09:52:49.000Z</time>
      </trkpt>
      <trkpt lat="44.11805" lon="7.05035">
        <ele>1909</ele>
        <time>2017-05-25T09:52:53.000Z</time>
      </trkpt>
      <trkpt lat="44.11806" lon="7.05035">
        <ele>1909</ele>
        <time>2017-05-25T09:52:54.000Z</time>
      </trkpt>
      <trkpt lat="44.11807" lon="7.05033">
        <ele>1909</ele>
        <time>2017-05-25T09:52:56.000Z</time>
      </trkpt>
      <trkpt lat="44.11809" lon="7.0503">
        <ele>1909</ele>
        <time>2017-05-25T09:52:58.000Z</time>
      </trkpt>
      <trkpt lat="44.1181" lon="7.05029">
        <ele>1910</ele>
        <time>2017-05-25T09:52:59.000Z</time>
      </trkpt>
      <trkpt lat="44.11815" lon="7.05024">
        <ele>1911</ele>
        <time>2017-05-25T09:53:04.000Z</time>
      </trkpt>
      <trkpt lat="44.11818" lon="7.05021">
        <ele>1912</ele>
        <time>2017-05-25T09:53:07.000Z</time>
      </trkpt>
      <trkpt lat="44.11821" lon="7.05018">
        <ele>1913</ele>
        <time>2017-05-25T09:53:11.000Z</time>
      </trkpt>
      <trkpt lat="44.11829" lon="7.05012">
        <ele>1916</ele>
        <time>2017-05-25T09:53:17.000Z</time>
      </trkpt>
      <trkpt lat="44.1183" lon="7.05011">
        <ele>1917</ele>
        <time>2017-05-25T09:53:18.000Z</time>
      </trkpt>
      <trkpt lat="44.11839" lon="7.05005">
        <ele>1922</ele>
        <time>2017-05-25T09:53:25.000Z</time>
      </trkpt>
      <trkpt lat="44.11843" lon="7.05">
        <ele>1924</ele>
        <time>2017-05-25T09:53:29.000Z</time>
      </trkpt>
      <trkpt lat="44.11845" lon="7.04999">
        <ele>1924</ele>
        <time>2017-05-25T09:53:30.000Z</time>
      </trkpt>
      <trkpt lat="44.11853" lon="7.04992">
        <ele>1925</ele>
        <time>2017-05-25T09:53:36.000Z</time>
      </trkpt>
      <trkpt lat="44.11857" lon="7.0499">
        <ele>1925</ele>
        <time>2017-05-25T09:53:38.000Z</time>
      </trkpt>
      <trkpt lat="44.1186" lon="7.04987">
        <ele>1926</ele>
        <time>2017-05-25T09:53:41.000Z</time>
      </trkpt>
      <trkpt lat="44.11861" lon="7.04986">
        <ele>1926</ele>
        <time>2017-05-25T09:53:42.000Z</time>
      </trkpt>
      <trkpt lat="44.11864" lon="7.04985">
        <ele>1926</ele>
        <time>2017-05-25T09:53:44.000Z</time>
      </trkpt>
      <trkpt lat="44.11865" lon="7.04985">
        <ele>1926</ele>
        <time>2017-05-25T09:53:45.000Z</time>
      </trkpt>
      <trkpt lat="44.11866" lon="7.04985">
        <ele>1926</ele>
        <time>2017-05-25T09:53:46.000Z</time>
      </trkpt>
      <trkpt lat="44.1187" lon="7.04983">
        <ele>1927</ele>
        <time>2017-05-25T09:53:50.000Z</time>
      </trkpt>
      <trkpt lat="44.11873" lon="7.04981">
        <ele>1927</ele>
        <time>2017-05-25T09:53:52.000Z</time>
      </trkpt>
      <trkpt lat="44.11876" lon="7.0498">
        <ele>1928</ele>
        <time>2017-05-25T09:53:55.000Z</time>
      </trkpt>
      <trkpt lat="44.1188" lon="7.04978">
        <ele>1928</ele>
        <time>2017-05-25T09:53:58.000Z</time>
      </trkpt>
      <trkpt lat="44.11887" lon="7.04975">
        <ele>1929</ele>
        <time>2017-05-25T09:54:03.000Z</time>
      </trkpt>
      <trkpt lat="44.11889" lon="7.04973">
        <ele>1929</ele>
        <time>2017-05-25T09:54:05.000Z</time>
      </trkpt>
      <trkpt lat="44.11891" lon="7.04973">
        <ele>1929</ele>
        <time>2017-05-25T09:54:10.000Z</time>
      </trkpt>
      <trkpt lat="44.11895" lon="7.04972">
        <ele>1930</ele>
        <time>2017-05-25T09:54:13.000Z</time>
      </trkpt>
      <trkpt lat="44.11897" lon="7.04972">
        <ele>1930</ele>
        <time>2017-05-25T09:54:15.000Z</time>
      </trkpt>
      <trkpt lat="44.11899" lon="7.04972">
        <ele>1930</ele>
        <time>2017-05-25T09:54:16.000Z</time>
      </trkpt>
      <trkpt lat="44.11904" lon="7.0497">
        <ele>1930</ele>
        <time>2017-05-25T09:54:20.000Z</time>
      </trkpt>
      <trkpt lat="44.11905" lon="7.0497">
        <ele>1931</ele>
        <time>2017-05-25T09:54:24.000Z</time>
      </trkpt>
      <trkpt lat="44.11906" lon="7.0497">
        <ele>1931</ele>
        <time>2017-05-25T09:54:32.000Z</time>
      </trkpt>
      <trkpt lat="44.11906" lon="7.0497">
        <ele>1931</ele>
        <time>2017-05-25T09:54:33.000Z</time>
      </trkpt>
      <trkpt lat="44.11909" lon="7.04967">
        <ele>1931</ele>
        <time>2017-05-25T09:54:44.000Z</time>
      </trkpt>
      <trkpt lat="44.1191" lon="7.04967">
        <ele>1931</ele>
        <time>2017-05-25T09:54:51.000Z</time>
      </trkpt>
      <trkpt lat="44.11912" lon="7.04966">
        <ele>1931</ele>
        <time>2017-05-25T09:55:00.000Z</time>
      </trkpt>
      <trkpt lat="44.11916" lon="7.04964">
        <ele>1931</ele>
        <time>2017-05-25T09:55:07.000Z</time>
      </trkpt>
      <trkpt lat="44.11917" lon="7.04963">
        <ele>1944</ele>
        <time>2017-05-25T09:55:08.000Z</time>
      </trkpt>
      <trkpt lat="44.1192" lon="7.04962">
        <ele>1944</ele>
        <time>2017-05-25T09:55:15.000Z</time>
      </trkpt>
      <trkpt lat="44.11923" lon="7.04956">
        <ele>1945</ele>
        <time>2017-05-25T09:55:22.000Z</time>
      </trkpt>
      <trkpt lat="44.11924" lon="7.04951">
        <ele>1945</ele>
        <time>2017-05-25T09:55:28.000Z</time>
      </trkpt>
      <trkpt lat="44.11925" lon="7.04951">
        <ele>1945</ele>
        <time>2017-05-25T09:55:29.000Z</time>
      </trkpt>
      <trkpt lat="44.11926" lon="7.0495">
        <ele>1945</ele>
        <time>2017-05-25T09:55:33.000Z</time>
      </trkpt>
      <trkpt lat="44.11926" lon="7.0495">
        <ele>1945</ele>
        <time>2017-05-25T09:55:35.000Z</time>
      </trkpt>
      <trkpt lat="44.11929" lon="7.04947">
        <ele>1945</ele>
        <time>2017-05-25T09:55:40.000Z</time>
      </trkpt>
      <trkpt lat="44.11931" lon="7.04943">
        <ele>1946</ele>
        <time>2017-05-25T09:55:46.000Z</time>
      </trkpt>
      <trkpt lat="44.11932" lon="7.04939">
        <ele>1946</ele>
        <time>2017-05-25T09:55:52.000Z</time>
      </trkpt>
      <trkpt lat="44.11932" lon="7.04939">
        <ele>1946</ele>
        <time>2017-05-25T09:55:54.000Z</time>
      </trkpt>
      <trkpt lat="44.11932" lon="7.04935">
        <ele>1946</ele>
        <time>2017-05-25T09:56:02.000Z</time>
      </trkpt>
      <trkpt lat="44.11933" lon="7.04934">
        <ele>1946</ele>
        <time>2017-05-25T09:56:03.000Z</time>
      </trkpt>
      <trkpt lat="44.11934" lon="7.04932">
        <ele>1946</ele>
        <time>2017-05-25T09:56:09.000Z</time>
      </trkpt>
      <trkpt lat="44.11934" lon="7.04932">
        <ele>1946</ele>
        <time>2017-05-25T09:56:10.000Z</time>
      </trkpt>
      <trkpt lat="44.11935" lon="7.0493">
        <ele>1946</ele>
        <time>2017-05-25T09:56:15.000Z</time>
      </trkpt>
      <trkpt lat="44.11937" lon="7.04928">
        <ele>1946</ele>
        <time>2017-05-25T09:56:20.000Z</time>
      </trkpt>
      <trkpt lat="44.11936" lon="7.04928">
        <ele>1946</ele>
        <time>2017-05-25T09:56:21.000Z</time>
      </trkpt>
      <trkpt lat="44.11939" lon="7.04926">
        <ele>1947</ele>
        <time>2017-05-25T09:56:28.000Z</time>
      </trkpt>
      <trkpt lat="44.11939" lon="7.04926">
        <ele>1947</ele>
        <time>2017-05-25T09:56:29.000Z</time>
      </trkpt>
      <trkpt lat="44.11941" lon="7.04922">
        <ele>1947</ele>
        <time>2017-05-25T09:56:35.000Z</time>
      </trkpt>
      <trkpt lat="44.11941" lon="7.0492">
        <ele>1947</ele>
        <time>2017-05-25T09:56:37.000Z</time>
      </trkpt>
      <trkpt lat="44.11942" lon="7.04919">
        <ele>1947</ele>
        <time>2017-05-25T09:56:40.000Z</time>
      </trkpt>
      <trkpt lat="44.11944" lon="7.04918">
        <ele>1947</ele>
        <time>2017-05-25T09:56:43.000Z</time>
      </trkpt>
      <trkpt lat="44.11945" lon="7.04914">
        <ele>1948</ele>
        <time>2017-05-25T09:56:49.000Z</time>
      </trkpt>
      <trkpt lat="44.11946" lon="7.04914">
        <ele>1949</ele>
        <time>2017-05-25T09:56:50.000Z</time>
      </trkpt>
      <trkpt lat="44.11948" lon="7.0491">
        <ele>1949</ele>
        <time>2017-05-25T09:56:56.000Z</time>
      </trkpt>
      <trkpt lat="44.11948" lon="7.0491">
        <ele>1949</ele>
        <time>2017-05-25T09:56:57.000Z</time>
      </trkpt>
      <trkpt lat="44.11951" lon="7.04906">
        <ele>1950</ele>
        <time>2017-05-25T09:57:01.000Z</time>
      </trkpt>
      <trkpt lat="44.11951" lon="7.04905">
        <ele>1950</ele>
        <time>2017-05-25T09:57:02.000Z</time>
      </trkpt>
      <trkpt lat="44.11955" lon="7.04901">
        <ele>1950</ele>
        <time>2017-05-25T09:57:08.000Z</time>
      </trkpt>
      <trkpt lat="44.11956" lon="7.04898">
        <ele>1951</ele>
        <time>2017-05-25T09:57:11.000Z</time>
      </trkpt>
      <trkpt lat="44.11959" lon="7.04892">
        <ele>1951</ele>
        <time>2017-05-25T09:57:17.000Z</time>
      </trkpt>
      <trkpt lat="44.11959" lon="7.04891">
        <ele>1951</ele>
        <time>2017-05-25T09:57:19.000Z</time>
      </trkpt>
      <trkpt lat="44.11962" lon="7.04889">
        <ele>1951</ele>
        <time>2017-05-25T09:57:24.000Z</time>
      </trkpt>
      <trkpt lat="44.11964" lon="7.04887">
        <ele>1952</ele>
        <time>2017-05-25T09:57:28.000Z</time>
      </trkpt>
      <trkpt lat="44.11965" lon="7.04886">
        <ele>1952</ele>
        <time>2017-05-25T09:57:31.000Z</time>
      </trkpt>
      <trkpt lat="44.11967" lon="7.04885">
        <ele>1952</ele>
        <time>2017-05-25T09:57:35.000Z</time>
      </trkpt>
      <trkpt lat="44.11969" lon="7.04883">
        <ele>1952</ele>
        <time>2017-05-25T09:57:38.000Z</time>
      </trkpt>
      <trkpt lat="44.11972" lon="7.0488">
        <ele>1953</ele>
        <time>2017-05-25T09:57:45.000Z</time>
      </trkpt>
      <trkpt lat="44.11973" lon="7.04876">
        <ele>1953</ele>
        <time>2017-05-25T09:57:51.000Z</time>
      </trkpt>
      <trkpt lat="44.11975" lon="7.0487">
        <ele>1953</ele>
        <time>2017-05-25T09:57:57.000Z</time>
      </trkpt>
      <trkpt lat="44.11978" lon="7.04866">
        <ele>1953</ele>
        <time>2017-05-25T09:58:02.000Z</time>
      </trkpt>
      <trkpt lat="44.11979" lon="7.04864">
        <ele>1953</ele>
        <time>2017-05-25T09:58:04.000Z</time>
      </trkpt>
      <trkpt lat="44.11982" lon="7.04858">
        <ele>1954</ele>
        <time>2017-05-25T09:58:11.000Z</time>
      </trkpt>
      <trkpt lat="44.11984" lon="7.04854">
        <ele>1955</ele>
        <time>2017-05-25T09:58:15.000Z</time>
      </trkpt>
      <trkpt lat="44.11985" lon="7.04854">
        <ele>1955</ele>
        <time>2017-05-25T09:58:18.000Z</time>
      </trkpt>
      <trkpt lat="44.11986" lon="7.04852">
        <ele>1955</ele>
        <time>2017-05-25T09:58:21.000Z</time>
      </trkpt>
      <trkpt lat="44.11987" lon="7.04849">
        <ele>1956</ele>
        <time>2017-05-25T09:58:23.000Z</time>
      </trkpt>
      <trkpt lat="44.1199" lon="7.04844">
        <ele>1957</ele>
        <time>2017-05-25T09:58:28.000Z</time>
      </trkpt>
      <trkpt lat="44.11991" lon="7.04841">
        <ele>1958</ele>
        <time>2017-05-25T09:58:30.000Z</time>
      </trkpt>
      <trkpt lat="44.11994" lon="7.04836">
        <ele>1960</ele>
        <time>2017-05-25T09:58:36.000Z</time>
      </trkpt>
      <trkpt lat="44.11996" lon="7.04831">
        <ele>1959</ele>
        <time>2017-05-25T09:58:40.000Z</time>
      </trkpt>
      <trkpt lat="44.11996" lon="7.0483">
        <ele>1958</ele>
        <time>2017-05-25T09:58:41.000Z</time>
      </trkpt>
      <trkpt lat="44.12" lon="7.04825">
        <ele>1956</ele>
        <time>2017-05-25T09:58:47.000Z</time>
      </trkpt>
      <trkpt lat="44.12002" lon="7.04822">
        <ele>1967</ele>
        <time>2017-05-25T09:58:52.000Z</time>
      </trkpt>
      <trkpt lat="44.12002" lon="7.04821">
        <ele>1967</ele>
        <time>2017-05-25T09:58:54.000Z</time>
      </trkpt>
      <trkpt lat="44.12004" lon="7.04818">
        <ele>1967</ele>
        <time>2017-05-25T09:58:58.000Z</time>
      </trkpt>
      <trkpt lat="44.12005" lon="7.04816">
        <ele>1967</ele>
        <time>2017-05-25T09:59:00.000Z</time>
      </trkpt>
      <trkpt lat="44.12006" lon="7.04811">
        <ele>1968</ele>
        <time>2017-05-25T09:59:04.000Z</time>
      </trkpt>
      <trkpt lat="44.12008" lon="7.04806">
        <ele>1968</ele>
        <time>2017-05-25T09:59:10.000Z</time>
      </trkpt>
      <trkpt lat="44.12009" lon="7.04801">
        <ele>1968</ele>
        <time>2017-05-25T09:59:13.000Z</time>
      </trkpt>
      <trkpt lat="44.12009" lon="7.04799">
        <ele>1968</ele>
        <time>2017-05-25T09:59:15.000Z</time>
      </trkpt>
      <trkpt lat="44.1201" lon="7.04797">
        <ele>1968</ele>
        <time>2017-05-25T09:59:17.000Z</time>
      </trkpt>
      <trkpt lat="44.12016" lon="7.04794">
        <ele>1968</ele>
        <time>2017-05-25T09:59:23.000Z</time>
      </trkpt>
      <trkpt lat="44.12015" lon="7.04794">
        <ele>1968</ele>
        <time>2017-05-25T09:59:24.000Z</time>
      </trkpt>
      <trkpt lat="44.1202" lon="7.04791">
        <ele>1968</ele>
        <time>2017-05-25T09:59:29.000Z</time>
      </trkpt>
      <trkpt lat="44.12025" lon="7.0479">
        <ele>1969</ele>
        <time>2017-05-25T09:59:34.000Z</time>
      </trkpt>
      <trkpt lat="44.1203" lon="7.04789">
        <ele>1970</ele>
        <time>2017-05-25T09:59:41.000Z</time>
      </trkpt>
      <trkpt lat="44.12031" lon="7.04788">
        <ele>1970</ele>
        <time>2017-05-25T09:59:43.000Z</time>
      </trkpt>
      <trkpt lat="44.12032" lon="7.04788">
        <ele>1970</ele>
        <time>2017-05-25T09:59:44.000Z</time>
      </trkpt>
      <trkpt lat="44.12034" lon="7.04787">
        <ele>1970</ele>
        <time>2017-05-25T09:59:47.000Z</time>
      </trkpt>
      <trkpt lat="44.12035" lon="7.04786">
        <ele>1970</ele>
        <time>2017-05-25T09:59:51.000Z</time>
      </trkpt>
      <trkpt lat="44.12036" lon="7.04786">
        <ele>1971</ele>
        <time>2017-05-25T09:59:52.000Z</time>
      </trkpt>
      <trkpt lat="44.12039" lon="7.04786">
        <ele>1971</ele>
        <time>2017-05-25T09:59:58.000Z</time>
      </trkpt>
      <trkpt lat="44.1204" lon="7.04787">
        <ele>1972</ele>
        <time>2017-05-25T10:00:04.000Z</time>
      </trkpt>
      <trkpt lat="44.12042" lon="7.04787">
        <ele>1972</ele>
        <time>2017-05-25T10:00:06.000Z</time>
      </trkpt>
      <trkpt lat="44.12044" lon="7.04788">
        <ele>1972</ele>
        <time>2017-05-25T10:00:11.000Z</time>
      </trkpt>
      <trkpt lat="44.12044" lon="7.04788">
        <ele>1972</ele>
        <time>2017-05-25T10:00:12.000Z</time>
      </trkpt>
      <trkpt lat="44.12048" lon="7.04787">
        <ele>1973</ele>
        <time>2017-05-25T10:00:17.000Z</time>
      </trkpt>
      <trkpt lat="44.12049" lon="7.04786">
        <ele>1973</ele>
        <time>2017-05-25T10:00:18.000Z</time>
      </trkpt>
      <trkpt lat="44.12052" lon="7.04784">
        <ele>1974</ele>
        <time>2017-05-25T10:00:23.000Z</time>
      </trkpt>
      <trkpt lat="44.12054" lon="7.04783">
        <ele>1974</ele>
        <time>2017-05-25T10:00:26.000Z</time>
      </trkpt>
      <trkpt lat="44.12055" lon="7.04782">
        <ele>1974</ele>
        <time>2017-05-25T10:00:30.000Z</time>
      </trkpt>
      <trkpt lat="44.1206" lon="7.0478">
        <ele>1975</ele>
        <time>2017-05-25T10:00:36.000Z</time>
      </trkpt>
      <trkpt lat="44.1206" lon="7.04781">
        <ele>1975</ele>
        <time>2017-05-25T10:00:37.000Z</time>
      </trkpt>
      <trkpt lat="44.12064" lon="7.04779">
        <ele>1976</ele>
        <time>2017-05-25T10:00:44.000Z</time>
      </trkpt>
      <trkpt lat="44.12064" lon="7.04779">
        <ele>1976</ele>
        <time>2017-05-25T10:00:45.000Z</time>
      </trkpt>
      <trkpt lat="44.12067" lon="7.0478">
        <ele>1976</ele>
        <time>2017-05-25T10:00:50.000Z</time>
      </trkpt>
      <trkpt lat="44.12068" lon="7.04779">
        <ele>1976</ele>
        <time>2017-05-25T10:00:53.000Z</time>
      </trkpt>
      <trkpt lat="44.12071" lon="7.04779">
        <ele>1977</ele>
        <time>2017-05-25T10:00:57.000Z</time>
      </trkpt>
      <trkpt lat="44.12073" lon="7.04779">
        <ele>1977</ele>
        <time>2017-05-25T10:01:02.000Z</time>
      </trkpt>
      <trkpt lat="44.12075" lon="7.04778">
        <ele>1977</ele>
        <time>2017-05-25T10:01:04.000Z</time>
      </trkpt>
      <trkpt lat="44.12077" lon="7.04778">
        <ele>1977</ele>
        <time>2017-05-25T10:01:08.000Z</time>
      </trkpt>
      <trkpt lat="44.12079" lon="7.04778">
        <ele>1977</ele>
        <time>2017-05-25T10:01:11.000Z</time>
      </trkpt>
      <trkpt lat="44.12081" lon="7.04777">
        <ele>1978</ele>
        <time>2017-05-25T10:01:16.000Z</time>
      </trkpt>
      <trkpt lat="44.12081" lon="7.04777">
        <ele>1978</ele>
        <time>2017-05-25T10:01:18.000Z</time>
      </trkpt>
      <trkpt lat="44.12084" lon="7.04777">
        <ele>1992</ele>
        <time>2017-05-25T10:01:21.000Z</time>
      </trkpt>
      <trkpt lat="44.12084" lon="7.04777">
        <ele>1992</ele>
        <time>2017-05-25T10:01:23.000Z</time>
      </trkpt>
      <trkpt lat="44.12088" lon="7.04777">
        <ele>1992</ele>
        <time>2017-05-25T10:01:27.000Z</time>
      </trkpt>
      <trkpt lat="44.1209" lon="7.04777">
        <ele>1992</ele>
        <time>2017-05-25T10:01:30.000Z</time>
      </trkpt>
      <trkpt lat="44.1209" lon="7.04777">
        <ele>1992</ele>
        <time>2017-05-25T10:01:31.000Z</time>
      </trkpt>
      <trkpt lat="44.12095" lon="7.04778">
        <ele>1992</ele>
        <time>2017-05-25T10:01:38.000Z</time>
      </trkpt>
      <trkpt lat="44.12099" lon="7.04778">
        <ele>1993</ele>
        <time>2017-05-25T10:01:43.000Z</time>
      </trkpt>
      <trkpt lat="44.12101" lon="7.04778">
        <ele>1993</ele>
        <time>2017-05-25T10:01:45.000Z</time>
      </trkpt>
      <trkpt lat="44.12106" lon="7.04776">
        <ele>1993</ele>
        <time>2017-05-25T10:01:51.000Z</time>
      </trkpt>
      <trkpt lat="44.12108" lon="7.04774">
        <ele>1994</ele>
        <time>2017-05-25T10:01:54.000Z</time>
      </trkpt>
      <trkpt lat="44.1211" lon="7.04773">
        <ele>1994</ele>
        <time>2017-05-25T10:01:57.000Z</time>
      </trkpt>
      <trkpt lat="44.12113" lon="7.04772">
        <ele>1994</ele>
        <time>2017-05-25T10:02:00.000Z</time>
      </trkpt>
      <trkpt lat="44.12115" lon="7.04772">
        <ele>1995</ele>
        <time>2017-05-25T10:02:03.000Z</time>
      </trkpt>
      <trkpt lat="44.1212" lon="7.04771">
        <ele>1995</ele>
        <time>2017-05-25T10:02:09.000Z</time>
      </trkpt>
      <trkpt lat="44.12121" lon="7.0477">
        <ele>1995</ele>
        <time>2017-05-25T10:02:10.000Z</time>
      </trkpt>
      <trkpt lat="44.12125" lon="7.04769">
        <ele>1996</ele>
        <time>2017-05-25T10:02:15.000Z</time>
      </trkpt>
      <trkpt lat="44.12126" lon="7.04769">
        <ele>1996</ele>
        <time>2017-05-25T10:02:18.000Z</time>
      </trkpt>
      <trkpt lat="44.12127" lon="7.04769">
        <ele>1996</ele>
        <time>2017-05-25T10:02:19.000Z</time>
      </trkpt>
      <trkpt lat="44.1213" lon="7.04771">
        <ele>1997</ele>
        <time>2017-05-25T10:02:24.000Z</time>
      </trkpt>
      <trkpt lat="44.12132" lon="7.04775">
        <ele>1997</ele>
        <time>2017-05-25T10:02:30.000Z</time>
      </trkpt>
      <trkpt lat="44.12134" lon="7.04776">
        <ele>1997</ele>
        <time>2017-05-25T10:02:33.000Z</time>
      </trkpt>
      <trkpt lat="44.12135" lon="7.04777">
        <ele>1997</ele>
        <time>2017-05-25T10:02:36.000Z</time>
      </trkpt>
      <trkpt lat="44.12137" lon="7.04777">
        <ele>1997</ele>
        <time>2017-05-25T10:02:40.000Z</time>
      </trkpt>
      <trkpt lat="44.12138" lon="7.04778">
        <ele>1998</ele>
        <time>2017-05-25T10:02:42.000Z</time>
      </trkpt>
      <trkpt lat="44.1214" lon="7.04779">
        <ele>1998</ele>
        <time>2017-05-25T10:02:47.000Z</time>
      </trkpt>
      <trkpt lat="44.12142" lon="7.04779">
        <ele>1998</ele>
        <time>2017-05-25T10:02:53.000Z</time>
      </trkpt>
      <trkpt lat="44.12145" lon="7.04779">
        <ele>1998</ele>
        <time>2017-05-25T10:03:00.000Z</time>
      </trkpt>
      <trkpt lat="44.12147" lon="7.04779">
        <ele>1999</ele>
        <time>2017-05-25T10:03:02.000Z</time>
      </trkpt>
      <trkpt lat="44.1215" lon="7.04781">
        <ele>1999</ele>
        <time>2017-05-25T10:03:07.000Z</time>
      </trkpt>
      <trkpt lat="44.12152" lon="7.04781">
        <ele>1999</ele>
        <time>2017-05-25T10:03:10.000Z</time>
      </trkpt>
      <trkpt lat="44.12154" lon="7.04782">
        <ele>1999</ele>
        <time>2017-05-25T10:03:12.000Z</time>
      </trkpt>
      <trkpt lat="44.12158" lon="7.04782">
        <ele>1999</ele>
        <time>2017-05-25T10:03:18.000Z</time>
      </trkpt>
      <trkpt lat="44.12159" lon="7.04782">
        <ele>1999</ele>
        <time>2017-05-25T10:03:19.000Z</time>
      </trkpt>
      <trkpt lat="44.12161" lon="7.04782">
        <ele>2000</ele>
        <time>2017-05-25T10:03:22.000Z</time>
      </trkpt>
      <trkpt lat="44.12163" lon="7.04784">
        <ele>2000</ele>
        <time>2017-05-25T10:03:25.000Z</time>
      </trkpt>
      <trkpt lat="44.12164" lon="7.04786">
        <ele>1999</ele>
        <time>2017-05-25T10:03:30.000Z</time>
      </trkpt>
      <trkpt lat="44.12164" lon="7.04786">
        <ele>2000</ele>
        <time>2017-05-25T10:03:31.000Z</time>
      </trkpt>
      <trkpt lat="44.12167" lon="7.04789">
        <ele>2011</ele>
        <time>2017-05-25T10:03:37.000Z</time>
      </trkpt>
      <trkpt lat="44.1217" lon="7.04793">
        <ele>2011</ele>
        <time>2017-05-25T10:03:43.000Z</time>
      </trkpt>
      <trkpt lat="44.12177" lon="7.04797">
        <ele>2011</ele>
        <time>2017-05-25T10:03:50.000Z</time>
      </trkpt>
      <trkpt lat="44.12183" lon="7.04801">
        <ele>2011</ele>
        <time>2017-05-25T10:03:57.000Z</time>
      </trkpt>
      <trkpt lat="44.12185" lon="7.04801">
        <ele>2012</ele>
        <time>2017-05-25T10:03:59.000Z</time>
      </trkpt>
      <trkpt lat="44.12188" lon="7.04802">
        <ele>2012</ele>
        <time>2017-05-25T10:04:03.000Z</time>
      </trkpt>
      <trkpt lat="44.12189" lon="7.04801">
        <ele>2012</ele>
        <time>2017-05-25T10:04:04.000Z</time>
      </trkpt>
      <trkpt lat="44.12194" lon="7.04802">
        <ele>2012</ele>
        <time>2017-05-25T10:04:10.000Z</time>
      </trkpt>
      <trkpt lat="44.12196" lon="7.04802">
        <ele>2013</ele>
        <time>2017-05-25T10:04:13.000Z</time>
      </trkpt>
      <trkpt lat="44.122" lon="7.04803">
        <ele>2013</ele>
        <time>2017-05-25T10:04:19.000Z</time>
      </trkpt>
      <trkpt lat="44.12202" lon="7.04803">
        <ele>2013</ele>
        <time>2017-05-25T10:04:21.000Z</time>
      </trkpt>
      <trkpt lat="44.12206" lon="7.04803">
        <ele>2014</ele>
        <time>2017-05-25T10:04:27.000Z</time>
      </trkpt>
      <trkpt lat="44.12209" lon="7.04804">
        <ele>2014</ele>
        <time>2017-05-25T10:04:30.000Z</time>
      </trkpt>
      <trkpt lat="44.12212" lon="7.04804">
        <ele>2014</ele>
        <time>2017-05-25T10:04:34.000Z</time>
      </trkpt>
      <trkpt lat="44.12216" lon="7.04805">
        <ele>2015</ele>
        <time>2017-05-25T10:04:39.000Z</time>
      </trkpt>
      <trkpt lat="44.12217" lon="7.04805">
        <ele>2015</ele>
        <time>2017-05-25T10:04:40.000Z</time>
      </trkpt>
      <trkpt lat="44.12222" lon="7.04807">
        <ele>2015</ele>
        <time>2017-05-25T10:04:48.000Z</time>
      </trkpt>
      <trkpt lat="44.12223" lon="7.04808">
        <ele>2015</ele>
        <time>2017-05-25T10:04:49.000Z</time>
      </trkpt>
      <trkpt lat="44.12227" lon="7.04809">
        <ele>2016</ele>
        <time>2017-05-25T10:04:55.000Z</time>
      </trkpt>
      <trkpt lat="44.12229" lon="7.04811">
        <ele>2016</ele>
        <time>2017-05-25T10:04:58.000Z</time>
      </trkpt>
      <trkpt lat="44.12234" lon="7.04815">
        <ele>2016</ele>
        <time>2017-05-25T10:05:05.000Z</time>
      </trkpt>
      <trkpt lat="44.12235" lon="7.04815">
        <ele>2016</ele>
        <time>2017-05-25T10:05:06.000Z</time>
      </trkpt>
      <trkpt lat="44.12239" lon="7.04818">
        <ele>2016</ele>
        <time>2017-05-25T10:05:12.000Z</time>
      </trkpt>
      <trkpt lat="44.12241" lon="7.04818">
        <ele>2016</ele>
        <time>2017-05-25T10:05:14.000Z</time>
      </trkpt>
      <trkpt lat="44.12244" lon="7.0482">
        <ele>2016</ele>
        <time>2017-05-25T10:05:19.000Z</time>
      </trkpt>
      <trkpt lat="44.12244" lon="7.0482">
        <ele>2016</ele>
        <time>2017-05-25T10:05:22.000Z</time>
      </trkpt>
      <trkpt lat="44.12245" lon="7.0482">
        <ele>2016</ele>
        <time>2017-05-25T10:05:32.000Z</time>
      </trkpt>
      <trkpt lat="44.12245" lon="7.04822">
        <ele>2016</ele>
        <time>2017-05-25T10:05:55.000Z</time>
      </trkpt>
      <trkpt lat="44.12244" lon="7.04824">
        <ele>2016</ele>
        <time>2017-05-25T10:06:17.000Z</time>
      </trkpt>
      <trkpt lat="44.12246" lon="7.04825">
        <ele>2016</ele>
        <time>2017-05-25T10:06:26.000Z</time>
      </trkpt>
      <trkpt lat="44.12252" lon="7.04826">
        <ele>2020</ele>
        <time>2017-05-25T10:06:31.000Z</time>
      </trkpt>
      <trkpt lat="44.12259" lon="7.04828">
        <ele>2021</ele>
        <time>2017-05-25T10:06:37.000Z</time>
      </trkpt>
      <trkpt lat="44.1226" lon="7.04829">
        <ele>2022</ele>
        <time>2017-05-25T10:06:38.000Z</time>
      </trkpt>
      <trkpt lat="44.12263" lon="7.0483">
        <ele>2022</ele>
        <time>2017-05-25T10:06:40.000Z</time>
      </trkpt>
      <trkpt lat="44.12269" lon="7.04829">
        <ele>2024</ele>
        <time>2017-05-25T10:06:44.000Z</time>
      </trkpt>
      <trkpt lat="44.12272" lon="7.04829">
        <ele>2024</ele>
        <time>2017-05-25T10:06:46.000Z</time>
      </trkpt>
      <trkpt lat="44.1228" lon="7.04828">
        <ele>2025</ele>
        <time>2017-05-25T10:06:51.000Z</time>
      </trkpt>
      <trkpt lat="44.12281" lon="7.04827">
        <ele>2026</ele>
        <time>2017-05-25T10:06:52.000Z</time>
      </trkpt>
      <trkpt lat="44.12287" lon="7.04824">
        <ele>2026</ele>
        <time>2017-05-25T10:06:57.000Z</time>
      </trkpt>
      <trkpt lat="44.12288" lon="7.04824">
        <ele>2027</ele>
        <time>2017-05-25T10:06:58.000Z</time>
      </trkpt>
      <trkpt lat="44.12291" lon="7.04823">
        <ele>2027</ele>
        <time>2017-05-25T10:07:00.000Z</time>
      </trkpt>
      <trkpt lat="44.12297" lon="7.04821">
        <ele>2027</ele>
        <time>2017-05-25T10:07:05.000Z</time>
      </trkpt>
      <trkpt lat="44.12307" lon="7.04819">
        <ele>2028</ele>
        <time>2017-05-25T10:07:12.000Z</time>
      </trkpt>
      <trkpt lat="44.12308" lon="7.04819">
        <ele>2028</ele>
        <time>2017-05-25T10:07:13.000Z</time>
      </trkpt>
      <trkpt lat="44.12313" lon="7.04818">
        <ele>2028</ele>
        <time>2017-05-25T10:07:18.000Z</time>
      </trkpt>
      <trkpt lat="44.12315" lon="7.04816">
        <ele>2028</ele>
        <time>2017-05-25T10:07:21.000Z</time>
      </trkpt>
      <trkpt lat="44.12316" lon="7.04816">
        <ele>2028</ele>
        <time>2017-05-25T10:07:22.000Z</time>
      </trkpt>
      <trkpt lat="44.1232" lon="7.04814">
        <ele>2028</ele>
        <time>2017-05-25T10:07:27.000Z</time>
      </trkpt>
      <trkpt lat="44.12323" lon="7.04814">
        <ele>2028</ele>
        <time>2017-05-25T10:07:29.000Z</time>
      </trkpt>
      <trkpt lat="44.12326" lon="7.04813">
        <ele>2029</ele>
        <time>2017-05-25T10:07:33.000Z</time>
      </trkpt>
      <trkpt lat="44.12328" lon="7.04812">
        <ele>2029</ele>
        <time>2017-05-25T10:07:34.000Z</time>
      </trkpt>
      <trkpt lat="44.12331" lon="7.04811">
        <ele>2029</ele>
        <time>2017-05-25T10:07:37.000Z</time>
      </trkpt>
      <trkpt lat="44.12332" lon="7.04811">
        <ele>2029</ele>
        <time>2017-05-25T10:07:38.000Z</time>
      </trkpt>
      <trkpt lat="44.12337" lon="7.04809">
        <ele>2032</ele>
        <time>2017-05-25T10:07:43.000Z</time>
      </trkpt>
      <trkpt lat="44.12339" lon="7.04808">
        <ele>2032</ele>
        <time>2017-05-25T10:07:45.000Z</time>
      </trkpt>
      <trkpt lat="44.12344" lon="7.04803">
        <ele>2033</ele>
        <time>2017-05-25T10:07:51.000Z</time>
      </trkpt>
      <trkpt lat="44.12346" lon="7.04802">
        <ele>2033</ele>
        <time>2017-05-25T10:07:53.000Z</time>
      </trkpt>
      <trkpt lat="44.1235" lon="7.04799">
        <ele>2034</ele>
        <time>2017-05-25T10:07:57.000Z</time>
      </trkpt>
      <trkpt lat="44.12357" lon="7.04796">
        <ele>2034</ele>
        <time>2017-05-25T10:08:03.000Z</time>
      </trkpt>
      <trkpt lat="44.12361" lon="7.04793">
        <ele>2035</ele>
        <time>2017-05-25T10:08:06.000Z</time>
      </trkpt>
      <trkpt lat="44.12366" lon="7.0479">
        <ele>2035</ele>
        <time>2017-05-25T10:08:10.000Z</time>
      </trkpt>
      <trkpt lat="44.12376" lon="7.04783">
        <ele>2035</ele>
        <time>2017-05-25T10:08:18.000Z</time>
      </trkpt>
      <trkpt lat="44.12379" lon="7.04779">
        <ele>2036</ele>
        <time>2017-05-25T10:08:21.000Z</time>
      </trkpt>
      <trkpt lat="44.12387" lon="7.04772">
        <ele>2036</ele>
        <time>2017-05-25T10:08:28.000Z</time>
      </trkpt>
      <trkpt lat="44.12388" lon="7.04771">
        <ele>2036</ele>
        <time>2017-05-25T10:08:29.000Z</time>
      </trkpt>
      <trkpt lat="44.12393" lon="7.04767">
        <ele>2036</ele>
        <time>2017-05-25T10:08:35.000Z</time>
      </trkpt>
      <trkpt lat="44.12395" lon="7.04765">
        <ele>2036</ele>
        <time>2017-05-25T10:08:37.000Z</time>
      </trkpt>
      <trkpt lat="44.12404" lon="7.04756">
        <ele>2037</ele>
        <time>2017-05-25T10:08:46.000Z</time>
      </trkpt>
      <trkpt lat="44.12414" lon="7.0475">
        <ele>2039</ele>
        <time>2017-05-25T10:08:54.000Z</time>
      </trkpt>
      <trkpt lat="44.12421" lon="7.04746">
        <ele>2040</ele>
        <time>2017-05-25T10:08:59.000Z</time>
      </trkpt>
      <trkpt lat="44.12427" lon="7.04742">
        <ele>2043</ele>
        <time>2017-05-25T10:09:04.000Z</time>
      </trkpt>
      <trkpt lat="44.12431" lon="7.04733">
        <ele>2045</ele>
        <time>2017-05-25T10:09:11.000Z</time>
      </trkpt>
      <trkpt lat="44.12437" lon="7.04725">
        <ele>2047</ele>
        <time>2017-05-25T10:09:19.000Z</time>
      </trkpt>
      <trkpt lat="44.12441" lon="7.04719">
        <ele>2048</ele>
        <time>2017-05-25T10:09:25.000Z</time>
      </trkpt>
      <trkpt lat="44.12442" lon="7.04718">
        <ele>2048</ele>
        <time>2017-05-25T10:09:26.000Z</time>
      </trkpt>
      <trkpt lat="44.12445" lon="7.04714">
        <ele>2049</ele>
        <time>2017-05-25T10:09:32.000Z</time>
      </trkpt>
      <trkpt lat="44.12445" lon="7.04714">
        <ele>2049</ele>
        <time>2017-05-25T10:09:33.000Z</time>
      </trkpt>
      <trkpt lat="44.12445" lon="7.04713">
        <ele>2049</ele>
        <time>2017-05-25T10:09:38.000Z</time>
      </trkpt>
      <trkpt lat="44.12448" lon="7.0471">
        <ele>2050</ele>
        <time>2017-05-25T10:09:50.000Z</time>
      </trkpt>
      <trkpt lat="44.12452" lon="7.04707">
        <ele>2050</ele>
        <time>2017-05-25T10:09:54.000Z</time>
      </trkpt>
      <trkpt lat="44.12455" lon="7.04705">
        <ele>2050</ele>
        <time>2017-05-25T10:09:57.000Z</time>
      </trkpt>
      <trkpt lat="44.12459" lon="7.04702">
        <ele>2051</ele>
        <time>2017-05-25T10:10:01.000Z</time>
      </trkpt>
      <trkpt lat="44.12461" lon="7.04699">
        <ele>2051</ele>
        <time>2017-05-25T10:10:04.000Z</time>
      </trkpt>
      <trkpt lat="44.12463" lon="7.04697">
        <ele>2051</ele>
        <time>2017-05-25T10:10:06.000Z</time>
      </trkpt>
      <trkpt lat="44.12467" lon="7.04694">
        <ele>2052</ele>
        <time>2017-05-25T10:10:11.000Z</time>
      </trkpt>
      <trkpt lat="44.12468" lon="7.04693">
        <ele>2052</ele>
        <time>2017-05-25T10:10:12.000Z</time>
      </trkpt>
      <trkpt lat="44.12472" lon="7.0469">
        <ele>2052</ele>
        <time>2017-05-25T10:10:17.000Z</time>
      </trkpt>
      <trkpt lat="44.12473" lon="7.0469">
        <ele>2052</ele>
        <time>2017-05-25T10:10:18.000Z</time>
      </trkpt>
      <trkpt lat="44.1248" lon="7.04685">
        <ele>2053</ele>
        <time>2017-05-25T10:10:25.000Z</time>
      </trkpt>
      <trkpt lat="44.12482" lon="7.04684">
        <ele>2053</ele>
        <time>2017-05-25T10:10:27.000Z</time>
      </trkpt>
      <trkpt lat="44.12485" lon="7.04682">
        <ele>2054</ele>
        <time>2017-05-25T10:10:32.000Z</time>
      </trkpt>
      <trkpt lat="44.12489" lon="7.0468">
        <ele>2055</ele>
        <time>2017-05-25T10:10:35.000Z</time>
      </trkpt>
      <trkpt lat="44.12491" lon="7.04678">
        <ele>2055</ele>
        <time>2017-05-25T10:10:38.000Z</time>
      </trkpt>
      <trkpt lat="44.1249" lon="7.04678">
        <ele>2055</ele>
        <time>2017-05-25T10:10:40.000Z</time>
      </trkpt>
      <trkpt lat="44.1249" lon="7.04678">
        <ele>2055</ele>
        <time>2017-05-25T10:10:42.000Z</time>
      </trkpt>
      <trkpt lat="44.1249" lon="7.04679">
        <ele>2055</ele>
        <time>2017-05-25T10:10:51.000Z</time>
      </trkpt>
      <trkpt lat="44.12492" lon="7.04678">
        <ele>2055</ele>
        <time>2017-05-25T10:11:01.000Z</time>
      </trkpt>
      <trkpt lat="44.12496" lon="7.04675">
        <ele>2056</ele>
        <time>2017-05-25T10:11:10.000Z</time>
      </trkpt>
      <trkpt lat="44.125" lon="7.04671">
        <ele>2058</ele>
        <time>2017-05-25T10:11:17.000Z</time>
      </trkpt>
      <trkpt lat="44.12501" lon="7.0467">
        <ele>2058</ele>
        <time>2017-05-25T10:11:20.000Z</time>
      </trkpt>
      <trkpt lat="44.12504" lon="7.04667">
        <ele>2058</ele>
        <time>2017-05-25T10:11:25.000Z</time>
      </trkpt>
      <trkpt lat="44.12507" lon="7.04665">
        <ele>2061</ele>
        <time>2017-05-25T10:11:30.000Z</time>
      </trkpt>
      <trkpt lat="44.12509" lon="7.04663">
        <ele>2062</ele>
        <time>2017-05-25T10:11:33.000Z</time>
      </trkpt>
      <trkpt lat="44.12512" lon="7.04659">
        <ele>2063</ele>
        <time>2017-05-25T10:11:39.000Z</time>
      </trkpt>
      <trkpt lat="44.12514" lon="7.04657">
        <ele>2064</ele>
        <time>2017-05-25T10:11:42.000Z</time>
      </trkpt>
      <trkpt lat="44.12516" lon="7.04653">
        <ele>2065</ele>
        <time>2017-05-25T10:11:48.000Z</time>
      </trkpt>
      <trkpt lat="44.12517" lon="7.04652">
        <ele>2065</ele>
        <time>2017-05-25T10:11:50.000Z</time>
      </trkpt>
      <trkpt lat="44.12519" lon="7.04649">
        <ele>2065</ele>
        <time>2017-05-25T10:11:55.000Z</time>
      </trkpt>
      <trkpt lat="44.1252" lon="7.04647">
        <ele>2066</ele>
        <time>2017-05-25T10:11:58.000Z</time>
      </trkpt>
      <trkpt lat="44.12522" lon="7.04644">
        <ele>2066</ele>
        <time>2017-05-25T10:12:04.000Z</time>
      </trkpt>
      <trkpt lat="44.12522" lon="7.04644">
        <ele>2066</ele>
        <time>2017-05-25T10:12:12.000Z</time>
      </trkpt>
      <trkpt lat="44.12524" lon="7.04641">
        <ele>2067</ele>
        <time>2017-05-25T10:12:18.000Z</time>
      </trkpt>
      <trkpt lat="44.12526" lon="7.04638">
        <ele>2067</ele>
        <time>2017-05-25T10:12:24.000Z</time>
      </trkpt>
      <trkpt lat="44.12529" lon="7.04637">
        <ele>2067</ele>
        <time>2017-05-25T10:12:30.000Z</time>
      </trkpt>
      <trkpt lat="44.12529" lon="7.04636">
        <ele>2067</ele>
        <time>2017-05-25T10:12:32.000Z</time>
      </trkpt>
      <trkpt lat="44.12531" lon="7.04635">
        <ele>2067</ele>
        <time>2017-05-25T10:12:37.000Z</time>
      </trkpt>
      <trkpt lat="44.12531" lon="7.04632">
        <ele>2068</ele>
        <time>2017-05-25T10:12:39.000Z</time>
      </trkpt>
      <trkpt lat="44.12532" lon="7.0463">
        <ele>2068</ele>
        <time>2017-05-25T10:12:42.000Z</time>
      </trkpt>
      <trkpt lat="44.12534" lon="7.04629">
        <ele>2068</ele>
        <time>2017-05-25T10:12:45.000Z</time>
      </trkpt>
      <trkpt lat="44.12534" lon="7.04629">
        <ele>2068</ele>
        <time>2017-05-25T10:12:47.000Z</time>
      </trkpt>
      <trkpt lat="44.12535" lon="7.04626">
        <ele>2068</ele>
        <time>2017-05-25T10:12:52.000Z</time>
      </trkpt>
      <trkpt lat="44.12537" lon="7.04625">
        <ele>2069</ele>
        <time>2017-05-25T10:12:55.000Z</time>
      </trkpt>
      <trkpt lat="44.12539" lon="7.04623">
        <ele>2069</ele>
        <time>2017-05-25T10:12:58.000Z</time>
      </trkpt>
      <trkpt lat="44.1254" lon="7.04622">
        <ele>2069</ele>
        <time>2017-05-25T10:13:00.000Z</time>
      </trkpt>
      <trkpt lat="44.12542" lon="7.0462">
        <ele>2069</ele>
        <time>2017-05-25T10:13:04.000Z</time>
      </trkpt>
      <trkpt lat="44.12545" lon="7.04616">
        <ele>2069</ele>
        <time>2017-05-25T10:13:10.000Z</time>
      </trkpt>
      <trkpt lat="44.12546" lon="7.04615">
        <ele>2069</ele>
        <time>2017-05-25T10:13:11.000Z</time>
      </trkpt>
      <trkpt lat="44.12548" lon="7.04611">
        <ele>2070</ele>
        <time>2017-05-25T10:13:17.000Z</time>
      </trkpt>
      <trkpt lat="44.1255" lon="7.04609">
        <ele>2070</ele>
        <time>2017-05-25T10:13:19.000Z</time>
      </trkpt>
      <trkpt lat="44.12552" lon="7.04605">
        <ele>2070</ele>
        <time>2017-05-25T10:13:25.000Z</time>
      </trkpt>
      <trkpt lat="44.12554" lon="7.04604">
        <ele>2070</ele>
        <time>2017-05-25T10:13:27.000Z</time>
      </trkpt>
      <trkpt lat="44.12554" lon="7.04603">
        <ele>2070</ele>
        <time>2017-05-25T10:13:28.000Z</time>
      </trkpt>
      <trkpt lat="44.12556" lon="7.046">
        <ele>2071</ele>
        <time>2017-05-25T10:13:33.000Z</time>
      </trkpt>
      <trkpt lat="44.12557" lon="7.04598">
        <ele>2071</ele>
        <time>2017-05-25T10:13:36.000Z</time>
      </trkpt>
      <trkpt lat="44.12557" lon="7.04596">
        <ele>2071</ele>
        <time>2017-05-25T10:13:40.000Z</time>
      </trkpt>
      <trkpt lat="44.12558" lon="7.04592">
        <ele>2071</ele>
        <time>2017-05-25T10:13:43.000Z</time>
      </trkpt>
      <trkpt lat="44.12559" lon="7.0459">
        <ele>2072</ele>
        <time>2017-05-25T10:13:46.000Z</time>
      </trkpt>
      <trkpt lat="44.1256" lon="7.04585">
        <ele>2072</ele>
        <time>2017-05-25T10:13:52.000Z</time>
      </trkpt>
      <trkpt lat="44.12559" lon="7.0458">
        <ele>2080</ele>
        <time>2017-05-25T10:13:59.000Z</time>
      </trkpt>
      <trkpt lat="44.1256" lon="7.04576">
        <ele>2080</ele>
        <time>2017-05-25T10:14:05.000Z</time>
      </trkpt>
      <trkpt lat="44.1256" lon="7.04571">
        <ele>2081</ele>
        <time>2017-05-25T10:14:11.000Z</time>
      </trkpt>
      <trkpt lat="44.12561" lon="7.04569">
        <ele>2081</ele>
        <time>2017-05-25T10:14:13.000Z</time>
      </trkpt>
      <trkpt lat="44.12561" lon="7.04568">
        <ele>2081</ele>
        <time>2017-05-25T10:14:15.000Z</time>
      </trkpt>
      <trkpt lat="44.12561" lon="7.04567">
        <ele>2081</ele>
        <time>2017-05-25T10:14:16.000Z</time>
      </trkpt>
      <trkpt lat="44.12562" lon="7.04565">
        <ele>2081</ele>
        <time>2017-05-25T10:14:18.000Z</time>
      </trkpt>
      <trkpt lat="44.12562" lon="7.04565">
        <ele>2081</ele>
        <time>2017-05-25T10:14:19.000Z</time>
      </trkpt>
      <trkpt lat="44.12562" lon="7.04563">
        <ele>2081</ele>
        <time>2017-05-25T10:14:21.000Z</time>
      </trkpt>
      <trkpt lat="44.12565" lon="7.04559">
        <ele>2081</ele>
        <time>2017-05-25T10:14:27.000Z</time>
      </trkpt>
      <trkpt lat="44.12566" lon="7.04558">
        <ele>2081</ele>
        <time>2017-05-25T10:14:28.000Z</time>
      </trkpt>
      <trkpt lat="44.12567" lon="7.04555">
        <ele>2082</ele>
        <time>2017-05-25T10:14:33.000Z</time>
      </trkpt>
      <trkpt lat="44.12568" lon="7.04551">
        <ele>2082</ele>
        <time>2017-05-25T10:14:37.000Z</time>
      </trkpt>
      <trkpt lat="44.12568" lon="7.04549">
        <ele>2083</ele>
        <time>2017-05-25T10:14:39.000Z</time>
      </trkpt>
      <trkpt lat="44.12569" lon="7.04547">
        <ele>2083</ele>
        <time>2017-05-25T10:14:42.000Z</time>
      </trkpt>
      <trkpt lat="44.12569" lon="7.04543">
        <ele>2083</ele>
        <time>2017-05-25T10:14:46.000Z</time>
      </trkpt>
      <trkpt lat="44.1257" lon="7.04538">
        <ele>2084</ele>
        <time>2017-05-25T10:14:52.000Z</time>
      </trkpt>
      <trkpt lat="44.1257" lon="7.04537">
        <ele>2084</ele>
        <time>2017-05-25T10:14:53.000Z</time>
      </trkpt>
      <trkpt lat="44.12571" lon="7.04532">
        <ele>2085</ele>
        <time>2017-05-25T10:15:00.000Z</time>
      </trkpt>
      <trkpt lat="44.12571" lon="7.04531">
        <ele>2085</ele>
        <time>2017-05-25T10:15:01.000Z</time>
      </trkpt>
      <trkpt lat="44.12572" lon="7.04525">
        <ele>2085</ele>
        <time>2017-05-25T10:15:07.000Z</time>
      </trkpt>
      <trkpt lat="44.12571" lon="7.04525">
        <ele>2085</ele>
        <time>2017-05-25T10:15:08.000Z</time>
      </trkpt>
      <trkpt lat="44.12572" lon="7.0452">
        <ele>2086</ele>
        <time>2017-05-25T10:15:13.000Z</time>
      </trkpt>
      <trkpt lat="44.12572" lon="7.04518">
        <ele>2086</ele>
        <time>2017-05-25T10:15:15.000Z</time>
      </trkpt>
      <trkpt lat="44.12572" lon="7.04515">
        <ele>2087</ele>
        <time>2017-05-25T10:15:19.000Z</time>
      </trkpt>
      <trkpt lat="44.12572" lon="7.04515">
        <ele>2087</ele>
        <time>2017-05-25T10:15:21.000Z</time>
      </trkpt>
      <trkpt lat="44.12573" lon="7.0451">
        <ele>2087</ele>
        <time>2017-05-25T10:15:26.000Z</time>
      </trkpt>
      <trkpt lat="44.12573" lon="7.04509">
        <ele>2087</ele>
        <time>2017-05-25T10:15:27.000Z</time>
      </trkpt>
      <trkpt lat="44.12574" lon="7.04503">
        <ele>2088</ele>
        <time>2017-05-25T10:15:34.000Z</time>
      </trkpt>
      <trkpt lat="44.12574" lon="7.04497">
        <ele>2090</ele>
        <time>2017-05-25T10:15:40.000Z</time>
      </trkpt>
      <trkpt lat="44.12574" lon="7.04496">
        <ele>2090</ele>
        <time>2017-05-25T10:15:41.000Z</time>
      </trkpt>
      <trkpt lat="44.12576" lon="7.04489">
        <ele>2091</ele>
        <time>2017-05-25T10:15:48.000Z</time>
      </trkpt>
      <trkpt lat="44.12576" lon="7.04489">
        <ele>2091</ele>
        <time>2017-05-25T10:15:49.000Z</time>
      </trkpt>
      <trkpt lat="44.12577" lon="7.04484">
        <ele>2091</ele>
        <time>2017-05-25T10:15:54.000Z</time>
      </trkpt>
      <trkpt lat="44.12578" lon="7.04476">
        <ele>2091</ele>
        <time>2017-05-25T10:16:01.000Z</time>
      </trkpt>
      <trkpt lat="44.12578" lon="7.04475">
        <ele>2091</ele>
        <time>2017-05-25T10:16:02.000Z</time>
      </trkpt>
      <trkpt lat="44.12579" lon="7.04474">
        <ele>2091</ele>
        <time>2017-05-25T10:16:07.000Z</time>
      </trkpt>
      <trkpt lat="44.12579" lon="7.04475">
        <ele>2091</ele>
        <time>2017-05-25T10:16:08.000Z</time>
      </trkpt>
      <trkpt lat="44.12579" lon="7.04475">
        <ele>2091</ele>
        <time>2017-05-25T10:16:20.000Z</time>
      </trkpt>
      <trkpt lat="44.12579" lon="7.04475">
        <ele>2091</ele>
        <time>2017-05-25T10:16:29.000Z</time>
      </trkpt>
      <trkpt lat="44.1258" lon="7.04467">
        <ele>2091</ele>
        <time>2017-05-25T10:16:36.000Z</time>
      </trkpt>
      <trkpt lat="44.12583" lon="7.04458">
        <ele>2092</ele>
        <time>2017-05-25T10:16:42.000Z</time>
      </trkpt>
      <trkpt lat="44.12583" lon="7.04448">
        <ele>2092</ele>
        <time>2017-05-25T10:16:48.000Z</time>
      </trkpt>
      <trkpt lat="44.12582" lon="7.04446">
        <ele>2092</ele>
        <time>2017-05-25T10:16:49.000Z</time>
      </trkpt>
      <trkpt lat="44.12583" lon="7.04442">
        <ele>2098</ele>
        <time>2017-05-25T10:16:51.000Z</time>
      </trkpt>
      <trkpt lat="44.12587" lon="7.04439">
        <ele>2098</ele>
        <time>2017-05-25T10:16:54.000Z</time>
      </trkpt>
      <trkpt lat="44.12588" lon="7.04437">
        <ele>2098</ele>
        <time>2017-05-25T10:16:56.000Z</time>
      </trkpt>
      <trkpt lat="44.12589" lon="7.04432">
        <ele>2098</ele>
        <time>2017-05-25T10:16:59.000Z</time>
      </trkpt>
      <trkpt lat="44.1259" lon="7.04428">
        <ele>2098</ele>
        <time>2017-05-25T10:17:02.000Z</time>
      </trkpt>
      <trkpt lat="44.12591" lon="7.04423">
        <ele>2097</ele>
        <time>2017-05-25T10:17:06.000Z</time>
      </trkpt>
      <trkpt lat="44.12592" lon="7.04419">
        <ele>2097</ele>
        <time>2017-05-25T10:17:09.000Z</time>
      </trkpt>
      <trkpt lat="44.12593" lon="7.04415">
        <ele>2098</ele>
        <time>2017-05-25T10:17:12.000Z</time>
      </trkpt>
      <trkpt lat="44.12595" lon="7.04409">
        <ele>2099</ele>
        <time>2017-05-25T10:17:17.000Z</time>
      </trkpt>
      <trkpt lat="44.12596" lon="7.04406">
        <ele>2099</ele>
        <time>2017-05-25T10:17:19.000Z</time>
      </trkpt>
      <trkpt lat="44.12599" lon="7.04399">
        <ele>2100</ele>
        <time>2017-05-25T10:17:24.000Z</time>
      </trkpt>
      <trkpt lat="44.126" lon="7.04396">
        <ele>2100</ele>
        <time>2017-05-25T10:17:27.000Z</time>
      </trkpt>
      <trkpt lat="44.12604" lon="7.04389">
        <ele>2101</ele>
        <time>2017-05-25T10:17:33.000Z</time>
      </trkpt>
      <trkpt lat="44.12605" lon="7.04388">
        <ele>2101</ele>
        <time>2017-05-25T10:17:34.000Z</time>
      </trkpt>
      <trkpt lat="44.12608" lon="7.04382">
        <ele>2101</ele>
        <time>2017-05-25T10:17:39.000Z</time>
      </trkpt>
      <trkpt lat="44.12608" lon="7.04381">
        <ele>2101</ele>
        <time>2017-05-25T10:17:40.000Z</time>
      </trkpt>
      <trkpt lat="44.12612" lon="7.04373">
        <ele>2102</ele>
        <time>2017-05-25T10:17:46.000Z</time>
      </trkpt>
      <trkpt lat="44.12616" lon="7.04368">
        <ele>2102</ele>
        <time>2017-05-25T10:17:51.000Z</time>
      </trkpt>
      <trkpt lat="44.12617" lon="7.04365">
        <ele>2102</ele>
        <time>2017-05-25T10:17:53.000Z</time>
      </trkpt>
      <trkpt lat="44.12623" lon="7.04356">
        <ele>2102</ele>
        <time>2017-05-25T10:18:00.000Z</time>
      </trkpt>
      <trkpt lat="44.12623" lon="7.04355">
        <ele>2102</ele>
        <time>2017-05-25T10:18:01.000Z</time>
      </trkpt>
      <trkpt lat="44.12627" lon="7.04348">
        <ele>2103</ele>
        <time>2017-05-25T10:18:06.000Z</time>
      </trkpt>
      <trkpt lat="44.12627" lon="7.04347">
        <ele>2103</ele>
        <time>2017-05-25T10:18:07.000Z</time>
      </trkpt>
      <trkpt lat="44.1263" lon="7.04338">
        <ele>2103</ele>
        <time>2017-05-25T10:18:13.000Z</time>
      </trkpt>
      <trkpt lat="44.12632" lon="7.04334">
        <ele>2104</ele>
        <time>2017-05-25T10:18:17.000Z</time>
      </trkpt>
      <trkpt lat="44.12634" lon="7.04331">
        <ele>2099</ele>
        <time>2017-05-25T10:18:19.000Z</time>
      </trkpt>
      <trkpt lat="44.12637" lon="7.04322">
        <ele>2099</ele>
        <time>2017-05-25T10:18:26.000Z</time>
      </trkpt>
      <trkpt lat="44.12638" lon="7.04318">
        <ele>2099</ele>
        <time>2017-05-25T10:18:28.000Z</time>
      </trkpt>
      <trkpt lat="44.12641" lon="7.04308">
        <ele>2099</ele>
        <time>2017-05-25T10:18:35.000Z</time>
      </trkpt>
      <trkpt lat="44.12642" lon="7.04307">
        <ele>2099</ele>
        <time>2017-05-25T10:18:36.000Z</time>
      </trkpt>
      <trkpt lat="44.12644" lon="7.04302">
        <ele>2098</ele>
        <time>2017-05-25T10:18:40.000Z</time>
      </trkpt>
      <trkpt lat="44.12644" lon="7.04301">
        <ele>2098</ele>
        <time>2017-05-25T10:18:41.000Z</time>
      </trkpt>
      <trkpt lat="44.12646" lon="7.04294">
        <ele>2098</ele>
        <time>2017-05-25T10:18:46.000Z</time>
      </trkpt>
      <trkpt lat="44.12647" lon="7.04291">
        <ele>2098</ele>
        <time>2017-05-25T10:18:48.000Z</time>
      </trkpt>
      <trkpt lat="44.12649" lon="7.04285">
        <ele>2098</ele>
        <time>2017-05-25T10:18:53.000Z</time>
      </trkpt>
      <trkpt lat="44.12649" lon="7.04281">
        <ele>2098</ele>
        <time>2017-05-25T10:18:56.000Z</time>
      </trkpt>
      <trkpt lat="44.1265" lon="7.04275">
        <ele>2098</ele>
        <time>2017-05-25T10:19:01.000Z</time>
      </trkpt>
      <trkpt lat="44.1265" lon="7.04275">
        <ele>2098</ele>
        <time>2017-05-25T10:19:03.000Z</time>
      </trkpt>
      <trkpt lat="44.1265" lon="7.04275">
        <ele>2098</ele>
        <time>2017-05-25T10:19:05.000Z</time>
      </trkpt>
      <trkpt lat="44.1265" lon="7.04273">
        <ele>2098</ele>
        <time>2017-05-25T10:19:09.000Z</time>
      </trkpt>
      <trkpt lat="44.12651" lon="7.04272">
        <ele>2098</ele>
        <time>2017-05-25T10:19:10.000Z</time>
      </trkpt>
      <trkpt lat="44.12653" lon="7.0427">
        <ele>2098</ele>
        <time>2017-05-25T10:19:13.000Z</time>
      </trkpt>
      <trkpt lat="44.12654" lon="7.0427">
        <ele>2098</ele>
        <time>2017-05-25T10:19:15.000Z</time>
      </trkpt>
      <trkpt lat="44.12656" lon="7.04267">
        <ele>2099</ele>
        <time>2017-05-25T10:19:19.000Z</time>
      </trkpt>
      <trkpt lat="44.1266" lon="7.04265">
        <ele>2099</ele>
        <time>2017-05-25T10:19:24.000Z</time>
      </trkpt>
      <trkpt lat="44.12662" lon="7.04265">
        <ele>2100</ele>
        <time>2017-05-25T10:19:27.000Z</time>
      </trkpt>
      <trkpt lat="44.12665" lon="7.04261">
        <ele>2100</ele>
        <time>2017-05-25T10:19:31.000Z</time>
      </trkpt>
      <trkpt lat="44.12667" lon="7.04259">
        <ele>2108</ele>
        <time>2017-05-25T10:19:37.000Z</time>
      </trkpt>
      <trkpt lat="44.12669" lon="7.04259">
        <ele>2108</ele>
        <time>2017-05-25T10:19:42.000Z</time>
      </trkpt>
      <trkpt lat="44.12669" lon="7.04257">
        <ele>2107</ele>
        <time>2017-05-25T10:19:52.000Z</time>
      </trkpt>
      <trkpt lat="44.12669" lon="7.04257">
        <ele>2107</ele>
        <time>2017-05-25T10:19:53.000Z</time>
      </trkpt>
      <trkpt lat="44.12669" lon="7.04258">
        <ele>2107</ele>
        <time>2017-05-25T10:20:00.000Z</time>
      </trkpt>
      <trkpt lat="44.12671" lon="7.04259">
        <ele>2108</ele>
        <time>2017-05-25T10:20:09.000Z</time>
      </trkpt>
      <trkpt lat="44.1267" lon="7.04258">
        <ele>2108</ele>
        <time>2017-05-25T10:20:11.000Z</time>
      </trkpt>
      <trkpt lat="44.1267" lon="7.04258">
        <ele>2108</ele>
        <time>2017-05-25T10:20:13.000Z</time>
      </trkpt>
      <trkpt lat="44.12669" lon="7.04258">
        <ele>2108</ele>
        <time>2017-05-25T10:20:31.000Z</time>
      </trkpt>
      <trkpt lat="44.12669" lon="7.04258">
        <ele>2108</ele>
        <time>2017-05-25T10:20:45.000Z</time>
      </trkpt>
      <trkpt lat="44.12669" lon="7.04259">
        <ele>2108</ele>
        <time>2017-05-25T10:20:53.000Z</time>
      </trkpt>
      <trkpt lat="44.12669" lon="7.04258">
        <ele>2108</ele>
        <time>2017-05-25T10:20:55.000Z</time>
      </trkpt>
      <trkpt lat="44.12669" lon="7.04258">
        <ele>2108</ele>
        <time>2017-05-25T10:21:02.000Z</time>
      </trkpt>
      <trkpt lat="44.12669" lon="7.04258">
        <ele>2107</ele>
        <time>2017-05-25T10:21:10.000Z</time>
      </trkpt>
      <trkpt lat="44.12669" lon="7.04258">
        <ele>2107</ele>
        <time>2017-05-25T10:21:13.000Z</time>
      </trkpt>
      <trkpt lat="44.1267" lon="7.04257">
        <ele>2107</ele>
        <time>2017-05-25T10:21:22.000Z</time>
      </trkpt>
      <trkpt lat="44.12669" lon="7.04257">
        <ele>2107</ele>
        <time>2017-05-25T10:21:35.000Z</time>
      </trkpt>
      <trkpt lat="44.1267" lon="7.04257">
        <ele>2107</ele>
        <time>2017-05-25T10:21:54.000Z</time>
      </trkpt>
      <trkpt lat="44.1267" lon="7.04257">
        <ele>2107</ele>
        <time>2017-05-25T10:22:17.000Z</time>
      </trkpt>
      <trkpt lat="44.1267" lon="7.04257">
        <ele>2107</ele>
        <time>2017-05-25T10:22:39.000Z</time>
      </trkpt>
      <trkpt lat="44.1267" lon="7.04257">
        <ele>2107</ele>
        <time>2017-05-25T10:22:50.000Z</time>
      </trkpt>
      <trkpt lat="44.1267" lon="7.04258">
        <ele>2107</ele>
        <time>2017-05-25T10:23:07.000Z</time>
      </trkpt>
      <trkpt lat="44.1267" lon="7.04258">
        <ele>2108</ele>
        <time>2017-05-25T10:23:16.000Z</time>
      </trkpt>
      <trkpt lat="44.1267" lon="7.04258">
        <ele>2108</ele>
        <time>2017-05-25T10:23:33.000Z</time>
      </trkpt>
      <trkpt lat="44.1267" lon="7.04258">
        <ele>2108</ele>
        <time>2017-05-25T10:23:41.000Z</time>
      </trkpt>
      <trkpt lat="44.1267" lon="7.04259">
        <ele>2108</ele>
        <time>2017-05-25T10:24:00.000Z</time>
      </trkpt>
      <trkpt lat="44.1267" lon="7.04259">
        <ele>2108</ele>
        <time>2017-05-25T10:24:09.000Z</time>
      </trkpt>
      <trkpt lat="44.1267" lon="7.04259">
        <ele>2108</ele>
        <time>2017-05-25T10:24:16.000Z</time>
      </trkpt>
      <trkpt lat="44.1267" lon="7.04258">
        <ele>2108</ele>
        <time>2017-05-25T10:24:29.000Z</time>
      </trkpt>
      <trkpt lat="44.1267" lon="7.04258">
        <ele>2108</ele>
        <time>2017-05-25T10:24:47.000Z</time>
      </trkpt>
      <trkpt lat="44.1267" lon="7.04258">
        <ele>2108</ele>
        <time>2017-05-25T10:25:00.000Z</time>
      </trkpt>
      <trkpt lat="44.1267" lon="7.04258">
        <ele>2108</ele>
        <time>2017-05-25T10:25:10.000Z</time>
      </trkpt>
      <trkpt lat="44.1267" lon="7.04258">
        <ele>2107</ele>
        <time>2017-05-25T10:25:16.000Z</time>
      </trkpt>
      <trkpt lat="44.1267" lon="7.04258">
        <ele>2108</ele>
        <time>2017-05-25T10:25:30.000Z</time>
      </trkpt>
      <trkpt lat="44.1267" lon="7.04258">
        <ele>2108</ele>
        <time>2017-05-25T10:25:45.000Z</time>
      </trkpt>
      <trkpt lat="44.1267" lon="7.04258">
        <ele>2107</ele>
        <time>2017-05-25T10:26:07.000Z</time>
      </trkpt>
      <trkpt lat="44.1267" lon="7.04258">
        <ele>2108</ele>
        <time>2017-05-25T10:26:34.000Z</time>
      </trkpt>
      <trkpt lat="44.1267" lon="7.04258">
        <ele>2108</ele>
        <time>2017-05-25T10:26:45.000Z</time>
      </trkpt>
      <trkpt lat="44.1267" lon="7.04258">
        <ele>2108</ele>
        <time>2017-05-25T10:26:48.000Z</time>
      </trkpt>
      <trkpt lat="44.1267" lon="7.04258">
        <ele>2108</ele>
        <time>2017-05-25T10:27:00.000Z</time>
      </trkpt>
      <trkpt lat="44.1267" lon="7.0426">
        <ele>2108</ele>
        <time>2017-05-25T10:27:10.000Z</time>
      </trkpt>
      <trkpt lat="44.12668" lon="7.0426">
        <ele>2108</ele>
        <time>2017-05-25T10:27:16.000Z</time>
      </trkpt>
      <trkpt lat="44.12668" lon="7.04257">
        <ele>2107</ele>
        <time>2017-05-25T10:27:20.000Z</time>
      </trkpt>
      <trkpt lat="44.12669" lon="7.04258">
        <ele>2107</ele>
        <time>2017-05-25T10:27:21.000Z</time>
      </trkpt>
      <trkpt lat="44.12669" lon="7.04258">
        <ele>2107</ele>
        <time>2017-05-25T10:27:24.000Z</time>
      </trkpt>
      <trkpt lat="44.12669" lon="7.04258">
        <ele>2107</ele>
        <time>2017-05-25T10:27:33.000Z</time>
      </trkpt>
      <trkpt lat="44.1267" lon="7.04259">
        <ele>2108</ele>
        <time>2017-05-25T10:27:43.000Z</time>
      </trkpt>
      <trkpt lat="44.12673" lon="7.04259">
        <ele>2109</ele>
        <time>2017-05-25T10:27:49.000Z</time>
      </trkpt>
      <trkpt lat="44.12676" lon="7.04258">
        <ele>2109</ele>
        <time>2017-05-25T10:27:55.000Z</time>
      </trkpt>
      <trkpt lat="44.12676" lon="7.04258">
        <ele>2109</ele>
        <time>2017-05-25T10:28:01.000Z</time>
      </trkpt>
      <trkpt lat="44.12677" lon="7.04257">
        <ele>2109</ele>
        <time>2017-05-25T10:28:12.000Z</time>
      </trkpt>
      <trkpt lat="44.12678" lon="7.04258">
        <ele>2110</ele>
        <time>2017-05-25T10:28:13.000Z</time>
      </trkpt>
      <trkpt lat="44.12682" lon="7.04259">
        <ele>2111</ele>
        <time>2017-05-25T10:28:17.000Z</time>
      </trkpt>
      <trkpt lat="44.12686" lon="7.04259">
        <ele>2112</ele>
        <time>2017-05-25T10:28:23.000Z</time>
      </trkpt>
      <trkpt lat="44.12693" lon="7.04259">
        <ele>2114</ele>
        <time>2017-05-25T10:28:31.000Z</time>
      </trkpt>
      <trkpt lat="44.12695" lon="7.0426">
        <ele>2115</ele>
        <time>2017-05-25T10:28:33.000Z</time>
      </trkpt>
      <trkpt lat="44.12698" lon="7.04259">
        <ele>2116</ele>
        <time>2017-05-25T10:28:37.000Z</time>
      </trkpt>
      <trkpt lat="44.12703" lon="7.04259">
        <ele>2117</ele>
        <time>2017-05-25T10:28:43.000Z</time>
      </trkpt>
      <trkpt lat="44.12703" lon="7.04259">
        <ele>2117</ele>
        <time>2017-05-25T10:28:44.000Z</time>
      </trkpt>
      <trkpt lat="44.12709" lon="7.04257">
        <ele>2118</ele>
        <time>2017-05-25T10:28:51.000Z</time>
      </trkpt>
      <trkpt lat="44.1271" lon="7.04257">
        <ele>2118</ele>
        <time>2017-05-25T10:28:52.000Z</time>
      </trkpt>
      <trkpt lat="44.12714" lon="7.04258">
        <ele>2119</ele>
        <time>2017-05-25T10:28:58.000Z</time>
      </trkpt>
      <trkpt lat="44.12715" lon="7.04257">
        <ele>2120</ele>
        <time>2017-05-25T10:29:01.000Z</time>
      </trkpt>
      <trkpt lat="44.12716" lon="7.04257">
        <ele>2120</ele>
        <time>2017-05-25T10:29:02.000Z</time>
      </trkpt>
      <trkpt lat="44.12717" lon="7.04257">
        <ele>2120</ele>
        <time>2017-05-25T10:29:04.000Z</time>
      </trkpt>
      <trkpt lat="44.1272" lon="7.04256">
        <ele>2121</ele>
        <time>2017-05-25T10:29:09.000Z</time>
      </trkpt>
      <trkpt lat="44.1272" lon="7.04256">
        <ele>2121</ele>
        <time>2017-05-25T10:29:10.000Z</time>
      </trkpt>
      <trkpt lat="44.12723" lon="7.04256">
        <ele>2121</ele>
        <time>2017-05-25T10:29:13.000Z</time>
      </trkpt>
      <trkpt lat="44.12725" lon="7.04257">
        <ele>2122</ele>
        <time>2017-05-25T10:29:16.000Z</time>
      </trkpt>
      <trkpt lat="44.12728" lon="7.04259">
        <ele>2122</ele>
        <time>2017-05-25T10:29:22.000Z</time>
      </trkpt>
      <trkpt lat="44.1273" lon="7.04259">
        <ele>2123</ele>
        <time>2017-05-25T10:29:24.000Z</time>
      </trkpt>
      <trkpt lat="44.1273" lon="7.0426">
        <ele>2123</ele>
        <time>2017-05-25T10:29:25.000Z</time>
      </trkpt>
      <trkpt lat="44.12732" lon="7.04261">
        <ele>2123</ele>
        <time>2017-05-25T10:29:28.000Z</time>
      </trkpt>
      <trkpt lat="44.12733" lon="7.04262">
        <ele>2123</ele>
        <time>2017-05-25T10:29:29.000Z</time>
      </trkpt>
      <trkpt lat="44.12734" lon="7.04262">
        <ele>2124</ele>
        <time>2017-05-25T10:29:31.000Z</time>
      </trkpt>
      <trkpt lat="44.12737" lon="7.04263">
        <ele>2124</ele>
        <time>2017-05-25T10:29:35.000Z</time>
      </trkpt>
      <trkpt lat="44.1274" lon="7.04263">
        <ele>2125</ele>
        <time>2017-05-25T10:29:39.000Z</time>
      </trkpt>
      <trkpt lat="44.12743" lon="7.04264">
        <ele>2125</ele>
        <time>2017-05-25T10:29:42.000Z</time>
      </trkpt>
      <trkpt lat="44.12743" lon="7.04263">
        <ele>2125</ele>
        <time>2017-05-25T10:29:43.000Z</time>
      </trkpt>
      <trkpt lat="44.12746" lon="7.04263">
        <ele>2125</ele>
        <time>2017-05-25T10:29:48.000Z</time>
      </trkpt>
      <trkpt lat="44.12747" lon="7.04264">
        <ele>2125</ele>
        <time>2017-05-25T10:29:50.000Z</time>
      </trkpt>
      <trkpt lat="44.1275" lon="7.04263">
        <ele>2126</ele>
        <time>2017-05-25T10:29:54.000Z</time>
      </trkpt>
      <trkpt lat="44.12754" lon="7.04262">
        <ele>2134</ele>
        <time>2017-05-25T10:30:00.000Z</time>
      </trkpt>
      <trkpt lat="44.12755" lon="7.04261">
        <ele>2133</ele>
        <time>2017-05-25T10:30:02.000Z</time>
      </trkpt>
      <trkpt lat="44.12756" lon="7.04261">
        <ele>2134</ele>
        <time>2017-05-25T10:30:04.000Z</time>
      </trkpt>
      <trkpt lat="44.12756" lon="7.04259">
        <ele>2133</ele>
        <time>2017-05-25T10:30:05.000Z</time>
      </trkpt>
      <trkpt lat="44.12759" lon="7.04258">
        <ele>2133</ele>
        <time>2017-05-25T10:30:09.000Z</time>
      </trkpt>
      <trkpt lat="44.12759" lon="7.04258">
        <ele>2134</ele>
        <time>2017-05-25T10:30:10.000Z</time>
      </trkpt>
      <trkpt lat="44.12762" lon="7.04257">
        <ele>2134</ele>
        <time>2017-05-25T10:30:16.000Z</time>
      </trkpt>
      <trkpt lat="44.12763" lon="7.04256">
        <ele>2134</ele>
        <time>2017-05-25T10:30:18.000Z</time>
      </trkpt>
      <trkpt lat="44.12763" lon="7.04256">
        <ele>2134</ele>
        <time>2017-05-25T10:30:20.000Z</time>
      </trkpt>
      <trkpt lat="44.12767" lon="7.04255">
        <ele>2135</ele>
        <time>2017-05-25T10:30:26.000Z</time>
      </trkpt>
      <trkpt lat="44.1277" lon="7.04255">
        <ele>2136</ele>
        <time>2017-05-25T10:30:33.000Z</time>
      </trkpt>
      <trkpt lat="44.12771" lon="7.04258">
        <ele>2136</ele>
        <time>2017-05-25T10:30:38.000Z</time>
      </trkpt>
      <trkpt lat="44.12772" lon="7.04258">
        <ele>2136</ele>
        <time>2017-05-25T10:30:39.000Z</time>
      </trkpt>
      <trkpt lat="44.12774" lon="7.0426">
        <ele>2137</ele>
        <time>2017-05-25T10:30:44.000Z</time>
      </trkpt>
      <trkpt lat="44.12775" lon="7.04261">
        <ele>2137</ele>
        <time>2017-05-25T10:30:46.000Z</time>
      </trkpt>
      <trkpt lat="44.12777" lon="7.04263">
        <ele>2137</ele>
        <time>2017-05-25T10:30:52.000Z</time>
      </trkpt>
      <trkpt lat="44.12778" lon="7.04264">
        <ele>2137</ele>
        <time>2017-05-25T10:30:54.000Z</time>
      </trkpt>
      <trkpt lat="44.12782" lon="7.04265">
        <ele>2138</ele>
        <time>2017-05-25T10:30:59.000Z</time>
      </trkpt>
      <trkpt lat="44.12783" lon="7.04265">
        <ele>2138</ele>
        <time>2017-05-25T10:31:01.000Z</time>
      </trkpt>
      <trkpt lat="44.12786" lon="7.04267">
        <ele>2139</ele>
        <time>2017-05-25T10:31:06.000Z</time>
      </trkpt>
      <trkpt lat="44.12787" lon="7.04267">
        <ele>2139</ele>
        <time>2017-05-25T10:31:08.000Z</time>
      </trkpt>
      <trkpt lat="44.12789" lon="7.04268">
        <ele>2139</ele>
        <time>2017-05-25T10:31:11.000Z</time>
      </trkpt>
      <trkpt lat="44.1279" lon="7.04268">
        <ele>2139</ele>
        <time>2017-05-25T10:31:12.000Z</time>
      </trkpt>
      <trkpt lat="44.12793" lon="7.0427">
        <ele>2140</ele>
        <time>2017-05-25T10:31:17.000Z</time>
      </trkpt>
      <trkpt lat="44.12795" lon="7.04272">
        <ele>2140</ele>
        <time>2017-05-25T10:31:21.000Z</time>
      </trkpt>
      <trkpt lat="44.12796" lon="7.04272">
        <ele>2140</ele>
        <time>2017-05-25T10:31:23.000Z</time>
      </trkpt>
      <trkpt lat="44.12801" lon="7.04272">
        <ele>2141</ele>
        <time>2017-05-25T10:31:30.000Z</time>
      </trkpt>
      <trkpt lat="44.12802" lon="7.04273">
        <ele>2141</ele>
        <time>2017-05-25T10:31:32.000Z</time>
      </trkpt>
      <trkpt lat="44.12804" lon="7.04273">
        <ele>2141</ele>
        <time>2017-05-25T10:31:33.000Z</time>
      </trkpt>
      <trkpt lat="44.12806" lon="7.04274">
        <ele>2141</ele>
        <time>2017-05-25T10:31:36.000Z</time>
      </trkpt>
      <trkpt lat="44.12809" lon="7.04274">
        <ele>2142</ele>
        <time>2017-05-25T10:31:41.000Z</time>
      </trkpt>
      <trkpt lat="44.12809" lon="7.04274">
        <ele>2142</ele>
        <time>2017-05-25T10:31:42.000Z</time>
      </trkpt>
      <trkpt lat="44.1281" lon="7.04274">
        <ele>2142</ele>
        <time>2017-05-25T10:31:43.000Z</time>
      </trkpt>
      <trkpt lat="44.12812" lon="7.04275">
        <ele>2142</ele>
        <time>2017-05-25T10:31:47.000Z</time>
      </trkpt>
      <trkpt lat="44.12813" lon="7.04275">
        <ele>2142</ele>
        <time>2017-05-25T10:31:48.000Z</time>
      </trkpt>
      <trkpt lat="44.12816" lon="7.04275">
        <ele>2143</ele>
        <time>2017-05-25T10:31:52.000Z</time>
      </trkpt>
      <trkpt lat="44.12817" lon="7.04276">
        <ele>2143</ele>
        <time>2017-05-25T10:31:53.000Z</time>
      </trkpt>
      <trkpt lat="44.1282" lon="7.04274">
        <ele>2143</ele>
        <time>2017-05-25T10:31:59.000Z</time>
      </trkpt>
      <trkpt lat="44.12821" lon="7.04274">
        <ele>2143</ele>
        <time>2017-05-25T10:32:00.000Z</time>
      </trkpt>
      <trkpt lat="44.12822" lon="7.04274">
        <ele>2143</ele>
        <time>2017-05-25T10:32:01.000Z</time>
      </trkpt>
      <trkpt lat="44.12824" lon="7.04276">
        <ele>2143</ele>
        <time>2017-05-25T10:32:05.000Z</time>
      </trkpt>
      <trkpt lat="44.12827" lon="7.04278">
        <ele>2143</ele>
        <time>2017-05-25T10:32:10.000Z</time>
      </trkpt>
      <trkpt lat="44.12828" lon="7.04278">
        <ele>2143</ele>
        <time>2017-05-25T10:32:12.000Z</time>
      </trkpt>
      <trkpt lat="44.12832" lon="7.04279">
        <ele>2144</ele>
        <time>2017-05-25T10:32:19.000Z</time>
      </trkpt>
      <trkpt lat="44.12834" lon="7.0428">
        <ele>2154</ele>
        <time>2017-05-25T10:32:21.000Z</time>
      </trkpt>
      <trkpt lat="44.12838" lon="7.04281">
        <ele>2155</ele>
        <time>2017-05-25T10:32:26.000Z</time>
      </trkpt>
      <trkpt lat="44.12839" lon="7.04282">
        <ele>2155</ele>
        <time>2017-05-25T10:32:28.000Z</time>
      </trkpt>
      <trkpt lat="44.12841" lon="7.04282">
        <ele>2155</ele>
        <time>2017-05-25T10:32:30.000Z</time>
      </trkpt>
      <trkpt lat="44.12843" lon="7.04283">
        <ele>2155</ele>
        <time>2017-05-25T10:32:32.000Z</time>
      </trkpt>
      <trkpt lat="44.12847" lon="7.04284">
        <ele>2155</ele>
        <time>2017-05-25T10:32:38.000Z</time>
      </trkpt>
      <trkpt lat="44.1285" lon="7.04285">
        <ele>2155</ele>
        <time>2017-05-25T10:32:43.000Z</time>
      </trkpt>
      <trkpt lat="44.12852" lon="7.04285">
        <ele>2155</ele>
        <time>2017-05-25T10:32:45.000Z</time>
      </trkpt>
      <trkpt lat="44.12854" lon="7.04285">
        <ele>2156</ele>
        <time>2017-05-25T10:32:49.000Z</time>
      </trkpt>
      <trkpt lat="44.12855" lon="7.04286">
        <ele>2156</ele>
        <time>2017-05-25T10:32:51.000Z</time>
      </trkpt>
      <trkpt lat="44.12857" lon="7.04287">
        <ele>2156</ele>
        <time>2017-05-25T10:32:55.000Z</time>
      </trkpt>
      <trkpt lat="44.12859" lon="7.04288">
        <ele>2156</ele>
        <time>2017-05-25T10:32:58.000Z</time>
      </trkpt>
      <trkpt lat="44.12862" lon="7.04289">
        <ele>2156</ele>
        <time>2017-05-25T10:33:03.000Z</time>
      </trkpt>
      <trkpt lat="44.12863" lon="7.04289">
        <ele>2156</ele>
        <time>2017-05-25T10:33:05.000Z</time>
      </trkpt>
      <trkpt lat="44.12865" lon="7.04293">
        <ele>2156</ele>
        <time>2017-05-25T10:33:11.000Z</time>
      </trkpt>
      <trkpt lat="44.12866" lon="7.04294">
        <ele>2157</ele>
        <time>2017-05-25T10:33:13.000Z</time>
      </trkpt>
      <trkpt lat="44.12868" lon="7.04293">
        <ele>2157</ele>
        <time>2017-05-25T10:33:17.000Z</time>
      </trkpt>
      <trkpt lat="44.1287" lon="7.04293">
        <ele>2157</ele>
        <time>2017-05-25T10:33:22.000Z</time>
      </trkpt>
      <trkpt lat="44.12871" lon="7.04294">
        <ele>2157</ele>
        <time>2017-05-25T10:33:24.000Z</time>
      </trkpt>
      <trkpt lat="44.12873" lon="7.04295">
        <ele>2157</ele>
        <time>2017-05-25T10:33:30.000Z</time>
      </trkpt>
      <trkpt lat="44.12873" lon="7.04295">
        <ele>2157</ele>
        <time>2017-05-25T10:33:32.000Z</time>
      </trkpt>
      <trkpt lat="44.12876" lon="7.04293">
        <ele>2158</ele>
        <time>2017-05-25T10:33:38.000Z</time>
      </trkpt>
      <trkpt lat="44.12876" lon="7.04293">
        <ele>2158</ele>
        <time>2017-05-25T10:33:39.000Z</time>
      </trkpt>
      <trkpt lat="44.12879" lon="7.04293">
        <ele>2158</ele>
        <time>2017-05-25T10:33:44.000Z</time>
      </trkpt>
      <trkpt lat="44.12879" lon="7.04293">
        <ele>2158</ele>
        <time>2017-05-25T10:33:45.000Z</time>
      </trkpt>
      <trkpt lat="44.12882" lon="7.04296">
        <ele>2158</ele>
        <time>2017-05-25T10:33:52.000Z</time>
      </trkpt>
      <trkpt lat="44.12882" lon="7.04296">
        <ele>2159</ele>
        <time>2017-05-25T10:33:53.000Z</time>
      </trkpt>
      <trkpt lat="44.12883" lon="7.04299">
        <ele>2159</ele>
        <time>2017-05-25T10:33:56.000Z</time>
      </trkpt>
      <trkpt lat="44.12884" lon="7.04299">
        <ele>2159</ele>
        <time>2017-05-25T10:33:58.000Z</time>
      </trkpt>
      <trkpt lat="44.12885" lon="7.04299">
        <ele>2159</ele>
        <time>2017-05-25T10:34:00.000Z</time>
      </trkpt>
      <trkpt lat="44.12888" lon="7.043">
        <ele>2159</ele>
        <time>2017-05-25T10:34:05.000Z</time>
      </trkpt>
      <trkpt lat="44.1289" lon="7.04301">
        <ele>2159</ele>
        <time>2017-05-25T10:34:11.000Z</time>
      </trkpt>
      <trkpt lat="44.12891" lon="7.04301">
        <ele>2159</ele>
        <time>2017-05-25T10:34:12.000Z</time>
      </trkpt>
      <trkpt lat="44.12893" lon="7.04303">
        <ele>2160</ele>
        <time>2017-05-25T10:34:17.000Z</time>
      </trkpt>
      <trkpt lat="44.12895" lon="7.04304">
        <ele>2160</ele>
        <time>2017-05-25T10:34:20.000Z</time>
      </trkpt>
      <trkpt lat="44.12896" lon="7.04306">
        <ele>2160</ele>
        <time>2017-05-25T10:34:22.000Z</time>
      </trkpt>
      <trkpt lat="44.12898" lon="7.04308">
        <ele>2160</ele>
        <time>2017-05-25T10:34:27.000Z</time>
      </trkpt>
      <trkpt lat="44.12899" lon="7.04309">
        <ele>2161</ele>
        <time>2017-05-25T10:34:29.000Z</time>
      </trkpt>
      <trkpt lat="44.12901" lon="7.04312">
        <ele>2161</ele>
        <time>2017-05-25T10:34:34.000Z</time>
      </trkpt>
      <trkpt lat="44.12902" lon="7.04312">
        <ele>2161</ele>
        <time>2017-05-25T10:34:36.000Z</time>
      </trkpt>
      <trkpt lat="44.12905" lon="7.04314">
        <ele>2162</ele>
        <time>2017-05-25T10:34:41.000Z</time>
      </trkpt>
      <trkpt lat="44.12907" lon="7.04316">
        <ele>2162</ele>
        <time>2017-05-25T10:34:48.000Z</time>
      </trkpt>
      <trkpt lat="44.12908" lon="7.04316">
        <ele>2162</ele>
        <time>2017-05-25T10:34:50.000Z</time>
      </trkpt>
      <trkpt lat="44.12911" lon="7.04318">
        <ele>2163</ele>
        <time>2017-05-25T10:34:55.000Z</time>
      </trkpt>
      <trkpt lat="44.12915" lon="7.0432">
        <ele>2163</ele>
        <time>2017-05-25T10:35:02.000Z</time>
      </trkpt>
      <trkpt lat="44.12917" lon="7.04321">
        <ele>2170</ele>
        <time>2017-05-25T10:35:06.000Z</time>
      </trkpt>
      <trkpt lat="44.12919" lon="7.04322">
        <ele>2170</ele>
        <time>2017-05-25T10:35:09.000Z</time>
      </trkpt>
      <trkpt lat="44.12921" lon="7.04322">
        <ele>2170</ele>
        <time>2017-05-25T10:35:14.000Z</time>
      </trkpt>
      <trkpt lat="44.12922" lon="7.04323">
        <ele>2170</ele>
        <time>2017-05-25T10:35:15.000Z</time>
      </trkpt>
      <trkpt lat="44.12924" lon="7.04324">
        <ele>2170</ele>
        <time>2017-05-25T10:35:21.000Z</time>
      </trkpt>
      <trkpt lat="44.12927" lon="7.04324">
        <ele>2171</ele>
        <time>2017-05-25T10:35:25.000Z</time>
      </trkpt>
      <trkpt lat="44.12928" lon="7.04324">
        <ele>2171</ele>
        <time>2017-05-25T10:35:27.000Z</time>
      </trkpt>
      <trkpt lat="44.12932" lon="7.04325">
        <ele>2171</ele>
        <time>2017-05-25T10:35:32.000Z</time>
      </trkpt>
      <trkpt lat="44.12932" lon="7.04325">
        <ele>2171</ele>
        <time>2017-05-25T10:35:33.000Z</time>
      </trkpt>
      <trkpt lat="44.12936" lon="7.04325">
        <ele>2172</ele>
        <time>2017-05-25T10:35:40.000Z</time>
      </trkpt>
      <trkpt lat="44.12938" lon="7.04324">
        <ele>2172</ele>
        <time>2017-05-25T10:35:45.000Z</time>
      </trkpt>
      <trkpt lat="44.12938" lon="7.04324">
        <ele>2172</ele>
        <time>2017-05-25T10:35:47.000Z</time>
      </trkpt>
      <trkpt lat="44.12938" lon="7.04322">
        <ele>2173</ele>
        <time>2017-05-25T10:35:52.000Z</time>
      </trkpt>
      <trkpt lat="44.12938" lon="7.0432">
        <ele>2173</ele>
        <time>2017-05-25T10:35:54.000Z</time>
      </trkpt>
      <trkpt lat="44.12935" lon="7.04316">
        <ele>2172</ele>
        <time>2017-05-25T10:36:01.000Z</time>
      </trkpt>
      <trkpt lat="44.12934" lon="7.04315">
        <ele>2172</ele>
        <time>2017-05-25T10:36:03.000Z</time>
      </trkpt>
      <trkpt lat="44.12932" lon="7.0431">
        <ele>2173</ele>
        <time>2017-05-25T10:36:08.000Z</time>
      </trkpt>
      <trkpt lat="44.12931" lon="7.04307">
        <ele>2173</ele>
        <time>2017-05-25T10:36:14.000Z</time>
      </trkpt>
      <trkpt lat="44.12931" lon="7.04305">
        <ele>2173</ele>
        <time>2017-05-25T10:36:15.000Z</time>
      </trkpt>
      <trkpt lat="44.1293" lon="7.04301">
        <ele>2173</ele>
        <time>2017-05-25T10:36:20.000Z</time>
      </trkpt>
      <trkpt lat="44.12929" lon="7.04299">
        <ele>2173</ele>
        <time>2017-05-25T10:36:22.000Z</time>
      </trkpt>
      <trkpt lat="44.12928" lon="7.04294">
        <ele>2173</ele>
        <time>2017-05-25T10:36:28.000Z</time>
      </trkpt>
      <trkpt lat="44.12931" lon="7.04294">
        <ele>2173</ele>
        <time>2017-05-25T10:36:34.000Z</time>
      </trkpt>
      <trkpt lat="44.12931" lon="7.04293">
        <ele>2173</ele>
        <time>2017-05-25T10:36:35.000Z</time>
      </trkpt>
      <trkpt lat="44.12934" lon="7.04294">
        <ele>2173</ele>
        <time>2017-05-25T10:36:39.000Z</time>
      </trkpt>
      <trkpt lat="44.12935" lon="7.04294">
        <ele>2174</ele>
        <time>2017-05-25T10:36:42.000Z</time>
      </trkpt>
      <trkpt lat="44.12937" lon="7.04294">
        <ele>2174</ele>
        <time>2017-05-25T10:36:45.000Z</time>
      </trkpt>
      <trkpt lat="44.12938" lon="7.04294">
        <ele>2174</ele>
        <time>2017-05-25T10:36:48.000Z</time>
      </trkpt>
      <trkpt lat="44.12943" lon="7.04294">
        <ele>2174</ele>
        <time>2017-05-25T10:36:54.000Z</time>
      </trkpt>
      <trkpt lat="44.12943" lon="7.04294">
        <ele>2174</ele>
        <time>2017-05-25T10:36:55.000Z</time>
      </trkpt>
      <trkpt lat="44.12947" lon="7.04295">
        <ele>2174</ele>
        <time>2017-05-25T10:37:02.000Z</time>
      </trkpt>
      <trkpt lat="44.12949" lon="7.04295">
        <ele>2175</ele>
        <time>2017-05-25T10:37:06.000Z</time>
      </trkpt>
      <trkpt lat="44.12949" lon="7.04293">
        <ele>2175</ele>
        <time>2017-05-25T10:37:09.000Z</time>
      </trkpt>
      <trkpt lat="44.12948" lon="7.04291">
        <ele>2175</ele>
        <time>2017-05-25T10:37:13.000Z</time>
      </trkpt>
      <trkpt lat="44.12947" lon="7.04289">
        <ele>2175</ele>
        <time>2017-05-25T10:37:14.000Z</time>
      </trkpt>
      <trkpt lat="44.12947" lon="7.04288">
        <ele>2175</ele>
        <time>2017-05-25T10:37:15.000Z</time>
      </trkpt>
      <trkpt lat="44.12947" lon="7.04282">
        <ele>2175</ele>
        <time>2017-05-25T10:37:21.000Z</time>
      </trkpt>
      <trkpt lat="44.12946" lon="7.04281">
        <ele>2174</ele>
        <time>2017-05-25T10:37:23.000Z</time>
      </trkpt>
      <trkpt lat="44.12945" lon="7.04278">
        <ele>2174</ele>
        <time>2017-05-25T10:37:26.000Z</time>
      </trkpt>
      <trkpt lat="44.12943" lon="7.04273">
        <ele>2174</ele>
        <time>2017-05-25T10:37:31.000Z</time>
      </trkpt>
      <trkpt lat="44.12943" lon="7.04272">
        <ele>2174</ele>
        <time>2017-05-25T10:37:32.000Z</time>
      </trkpt>
      <trkpt lat="44.12942" lon="7.04269">
        <ele>2174</ele>
        <time>2017-05-25T10:37:38.000Z</time>
      </trkpt>
      <trkpt lat="44.12942" lon="7.04268">
        <ele>2174</ele>
        <time>2017-05-25T10:37:48.000Z</time>
      </trkpt>
      <trkpt lat="44.12943" lon="7.04267">
        <ele>2174</ele>
        <time>2017-05-25T10:37:50.000Z</time>
      </trkpt>
      <trkpt lat="44.12945" lon="7.04267">
        <ele>2174</ele>
        <time>2017-05-25T10:37:56.000Z</time>
      </trkpt>
      <trkpt lat="44.12948" lon="7.04268">
        <ele>2175</ele>
        <time>2017-05-25T10:38:03.000Z</time>
      </trkpt>
      <trkpt lat="44.12949" lon="7.04267">
        <ele>2175</ele>
        <time>2017-05-25T10:38:05.000Z</time>
      </trkpt>
      <trkpt lat="44.12951" lon="7.04268">
        <ele>2175</ele>
        <time>2017-05-25T10:38:09.000Z</time>
      </trkpt>
      <trkpt lat="44.12953" lon="7.04269">
        <ele>2175</ele>
        <time>2017-05-25T10:38:12.000Z</time>
      </trkpt>
      <trkpt lat="44.12957" lon="7.0427">
        <ele>2176</ele>
        <time>2017-05-25T10:38:20.000Z</time>
      </trkpt>
      <trkpt lat="44.12961" lon="7.04272">
        <ele>2176</ele>
        <time>2017-05-25T10:38:27.000Z</time>
      </trkpt>
      <trkpt lat="44.12964" lon="7.04272">
        <ele>2176</ele>
        <time>2017-05-25T10:38:33.000Z</time>
      </trkpt>
      <trkpt lat="44.12966" lon="7.04271">
        <ele>2177</ele>
        <time>2017-05-25T10:38:38.000Z</time>
      </trkpt>
      <trkpt lat="44.12966" lon="7.04271">
        <ele>2177</ele>
        <time>2017-05-25T10:38:40.000Z</time>
      </trkpt>
      <trkpt lat="44.12969" lon="7.0427">
        <ele>2177</ele>
        <time>2017-05-25T10:38:43.000Z</time>
      </trkpt>
      <trkpt lat="44.12972" lon="7.04269">
        <ele>2177</ele>
        <time>2017-05-25T10:38:47.000Z</time>
      </trkpt>
      <trkpt lat="44.12977" lon="7.04266">
        <ele>2178</ele>
        <time>2017-05-25T10:38:54.000Z</time>
      </trkpt>
      <trkpt lat="44.12982" lon="7.04264">
        <ele>2179</ele>
        <time>2017-05-25T10:39:00.000Z</time>
      </trkpt>
      <trkpt lat="44.12982" lon="7.04264">
        <ele>2179</ele>
        <time>2017-05-25T10:39:01.000Z</time>
      </trkpt>
      <trkpt lat="44.12986" lon="7.04262">
        <ele>2179</ele>
        <time>2017-05-25T10:39:06.000Z</time>
      </trkpt>
      <trkpt lat="44.12986" lon="7.04262">
        <ele>2180</ele>
        <time>2017-05-25T10:39:07.000Z</time>
      </trkpt>
      <trkpt lat="44.1299" lon="7.04261">
        <ele>2180</ele>
        <time>2017-05-25T10:39:13.000Z</time>
      </trkpt>
      <trkpt lat="44.12996" lon="7.0426">
        <ele>2181</ele>
        <time>2017-05-25T10:39:21.000Z</time>
      </trkpt>
      <trkpt lat="44.13" lon="7.04259">
        <ele>2185</ele>
        <time>2017-05-25T10:39:26.000Z</time>
      </trkpt>
      <trkpt lat="44.13001" lon="7.04259">
        <ele>2185</ele>
        <time>2017-05-25T10:39:27.000Z</time>
      </trkpt>
      <trkpt lat="44.13005" lon="7.04258">
        <ele>2185</ele>
        <time>2017-05-25T10:39:32.000Z</time>
      </trkpt>
      <trkpt lat="44.13008" lon="7.04258">
        <ele>2185</ele>
        <time>2017-05-25T10:39:36.000Z</time>
      </trkpt>
      <trkpt lat="44.13014" lon="7.04257">
        <ele>2185</ele>
        <time>2017-05-25T10:39:45.000Z</time>
      </trkpt>
      <trkpt lat="44.13015" lon="7.04257">
        <ele>2185</ele>
        <time>2017-05-25T10:39:52.000Z</time>
      </trkpt>
      <trkpt lat="44.13015" lon="7.04257">
        <ele>2185</ele>
        <time>2017-05-25T10:40:08.000Z</time>
      </trkpt>
      <trkpt lat="44.13015" lon="7.04257">
        <ele>2185</ele>
        <time>2017-05-25T10:40:17.000Z</time>
      </trkpt>
      <trkpt lat="44.13017" lon="7.04256">
        <ele>2185</ele>
        <time>2017-05-25T10:40:32.000Z</time>
      </trkpt>
      <trkpt lat="44.13019" lon="7.04256">
        <ele>2185</ele>
        <time>2017-05-25T10:40:41.000Z</time>
      </trkpt>
      <trkpt lat="44.13019" lon="7.04256">
        <ele>2185</ele>
        <time>2017-05-25T10:41:04.000Z</time>
      </trkpt>
      <trkpt lat="44.13018" lon="7.04256">
        <ele>2185</ele>
        <time>2017-05-25T10:41:13.000Z</time>
      </trkpt>
      <trkpt lat="44.13017" lon="7.04256">
        <ele>2185</ele>
        <time>2017-05-25T10:41:20.000Z</time>
      </trkpt>
      <trkpt lat="44.13017" lon="7.04256">
        <ele>2185</ele>
        <time>2017-05-25T10:41:28.000Z</time>
      </trkpt>
      <trkpt lat="44.13016" lon="7.04256">
        <ele>2185</ele>
        <time>2017-05-25T10:41:35.000Z</time>
      </trkpt>
      <trkpt lat="44.13017" lon="7.04257">
        <ele>2185</ele>
        <time>2017-05-25T10:41:41.000Z</time>
      </trkpt>
      <trkpt lat="44.13017" lon="7.04257">
        <ele>2185</ele>
        <time>2017-05-25T10:41:49.000Z</time>
      </trkpt>
      <trkpt lat="44.13018" lon="7.04257">
        <ele>2185</ele>
        <time>2017-05-25T10:41:57.000Z</time>
      </trkpt>
      <trkpt lat="44.13016" lon="7.0426">
        <ele>2185</ele>
        <time>2017-05-25T10:42:10.000Z</time>
      </trkpt>
      <trkpt lat="44.13015" lon="7.04259">
        <ele>2185</ele>
        <time>2017-05-25T10:42:11.000Z</time>
      </trkpt>
      <trkpt lat="44.13014" lon="7.0426">
        <ele>2185</ele>
        <time>2017-05-25T10:42:15.000Z</time>
      </trkpt>
      <trkpt lat="44.13015" lon="7.04258">
        <ele>2185</ele>
        <time>2017-05-25T10:42:24.000Z</time>
      </trkpt>
      <trkpt lat="44.13015" lon="7.04256">
        <ele>2185</ele>
        <time>2017-05-25T10:42:25.000Z</time>
      </trkpt>
      <trkpt lat="44.13015" lon="7.04258">
        <ele>2185</ele>
        <time>2017-05-25T10:42:30.000Z</time>
      </trkpt>
      <trkpt lat="44.13016" lon="7.04256">
        <ele>2185</ele>
        <time>2017-05-25T10:42:37.000Z</time>
      </trkpt>
      <trkpt lat="44.13016" lon="7.04257">
        <ele>2185</ele>
        <time>2017-05-25T10:42:43.000Z</time>
      </trkpt>
      <trkpt lat="44.13016" lon="7.04256">
        <ele>2185</ele>
        <time>2017-05-25T10:42:51.000Z</time>
      </trkpt>
      <trkpt lat="44.13016" lon="7.04257">
        <ele>2185</ele>
        <time>2017-05-25T10:43:01.000Z</time>
      </trkpt>
      <trkpt lat="44.13016" lon="7.04257">
        <ele>2185</ele>
        <time>2017-05-25T10:43:12.000Z</time>
      </trkpt>
      <trkpt lat="44.13016" lon="7.04257">
        <ele>2185</ele>
        <time>2017-05-25T10:43:22.000Z</time>
      </trkpt>
      <trkpt lat="44.13016" lon="7.04257">
        <ele>2185</ele>
        <time>2017-05-25T10:43:36.000Z</time>
      </trkpt>
      <trkpt lat="44.13016" lon="7.04257">
        <ele>2185</ele>
        <time>2017-05-25T10:43:50.000Z</time>
      </trkpt>
      <trkpt lat="44.13016" lon="7.04257">
        <ele>2185</ele>
        <time>2017-05-25T10:43:59.000Z</time>
      </trkpt>
      <trkpt lat="44.13016" lon="7.04257">
        <ele>2185</ele>
        <time>2017-05-25T10:44:08.000Z</time>
      </trkpt>
      <trkpt lat="44.13016" lon="7.04256">
        <ele>2185</ele>
        <time>2017-05-25T10:44:18.000Z</time>
      </trkpt>
      <trkpt lat="44.13017" lon="7.0426">
        <ele>2185</ele>
        <time>2017-05-25T10:44:22.000Z</time>
      </trkpt>
      <trkpt lat="44.13017" lon="7.04259">
        <ele>2185</ele>
        <time>2017-05-25T10:44:24.000Z</time>
      </trkpt>
      <trkpt lat="44.13017" lon="7.04259">
        <ele>2185</ele>
        <time>2017-05-25T10:44:32.000Z</time>
      </trkpt>
      <trkpt lat="44.13017" lon="7.0426">
        <ele>2185</ele>
        <time>2017-05-25T10:44:38.000Z</time>
      </trkpt>
      <trkpt lat="44.13015" lon="7.04262">
        <ele>2185</ele>
        <time>2017-05-25T10:44:42.000Z</time>
      </trkpt>
      <trkpt lat="44.13011" lon="7.04264">
        <ele>2185</ele>
        <time>2017-05-25T10:44:45.000Z</time>
      </trkpt>
      <trkpt lat="44.13006" lon="7.04266">
        <ele>2185</ele>
        <time>2017-05-25T10:44:48.000Z</time>
      </trkpt>
      <trkpt lat="44.12999" lon="7.04271">
        <ele>2180</ele>
        <time>2017-05-25T10:44:51.000Z</time>
      </trkpt>
      <trkpt lat="44.12981" lon="7.0427">
        <ele>2178</ele>
        <time>2017-05-25T10:44:55.000Z</time>
      </trkpt>
      <trkpt lat="44.12974" lon="7.04269">
        <ele>2178</ele>
        <time>2017-05-25T10:44:57.000Z</time>
      </trkpt>
      <trkpt lat="44.12968" lon="7.04273">
        <ele>2177</ele>
        <time>2017-05-25T10:44:59.000Z</time>
      </trkpt>
      <trkpt lat="44.12962" lon="7.04275">
        <ele>2176</ele>
        <time>2017-05-25T10:45:01.000Z</time>
      </trkpt>
      <trkpt lat="44.12949" lon="7.04281">
        <ele>2175</ele>
        <time>2017-05-25T10:45:05.000Z</time>
      </trkpt>
      <trkpt lat="44.12945" lon="7.04285">
        <ele>2174</ele>
        <time>2017-05-25T10:45:07.000Z</time>
      </trkpt>
      <trkpt lat="44.12941" lon="7.04289">
        <ele>2174</ele>
        <time>2017-05-25T10:45:09.000Z</time>
      </trkpt>
      <trkpt lat="44.1294" lon="7.0429">
        <ele>2174</ele>
        <time>2017-05-25T10:45:10.000Z</time>
      </trkpt>
      <trkpt lat="44.12939" lon="7.0429">
        <ele>2174</ele>
        <time>2017-05-25T10:45:11.000Z</time>
      </trkpt>
      <trkpt lat="44.12939" lon="7.0429">
        <ele>2174</ele>
        <time>2017-05-25T10:45:13.000Z</time>
      </trkpt>
      <trkpt lat="44.12939" lon="7.0429">
        <ele>2174</ele>
        <time>2017-05-25T10:45:14.000Z</time>
      </trkpt>
      <trkpt lat="44.12939" lon="7.04289">
        <ele>2174</ele>
        <time>2017-05-25T10:45:21.000Z</time>
      </trkpt>
      <trkpt lat="44.12939" lon="7.04289">
        <ele>2174</ele>
        <time>2017-05-25T10:45:28.000Z</time>
      </trkpt>
      <trkpt lat="44.12933" lon="7.04288">
        <ele>2173</ele>
        <time>2017-05-25T10:45:35.000Z</time>
      </trkpt>
      <trkpt lat="44.12931" lon="7.04288">
        <ele>2173</ele>
        <time>2017-05-25T10:45:36.000Z</time>
      </trkpt>
      <trkpt lat="44.12924" lon="7.04289">
        <ele>2173</ele>
        <time>2017-05-25T10:45:40.000Z</time>
      </trkpt>
      <trkpt lat="44.12919" lon="7.0429">
        <ele>2173</ele>
        <time>2017-05-25T10:45:43.000Z</time>
      </trkpt>
      <trkpt lat="44.12915" lon="7.04291">
        <ele>2162</ele>
        <time>2017-05-25T10:45:45.000Z</time>
      </trkpt>
      <trkpt lat="44.12911" lon="7.04292">
        <ele>2161</ele>
        <time>2017-05-25T10:45:47.000Z</time>
      </trkpt>
      <trkpt lat="44.12907" lon="7.04293">
        <ele>2161</ele>
        <time>2017-05-25T10:45:49.000Z</time>
      </trkpt>
      <trkpt lat="44.12902" lon="7.04295">
        <ele>2161</ele>
        <time>2017-05-25T10:45:51.000Z</time>
      </trkpt>
      <trkpt lat="44.12899" lon="7.04295">
        <ele>2160</ele>
        <time>2017-05-25T10:45:52.000Z</time>
      </trkpt>
      <trkpt lat="44.12895" lon="7.04296">
        <ele>2160</ele>
        <time>2017-05-25T10:45:53.000Z</time>
      </trkpt>
      <trkpt lat="44.1289" lon="7.04295">
        <ele>2159</ele>
        <time>2017-05-25T10:45:54.000Z</time>
      </trkpt>
      <trkpt lat="44.12881" lon="7.04294">
        <ele>2158</ele>
        <time>2017-05-25T10:45:56.000Z</time>
      </trkpt>
      <trkpt lat="44.12875" lon="7.04294">
        <ele>2158</ele>
        <time>2017-05-25T10:45:57.000Z</time>
      </trkpt>
      <trkpt lat="44.12859" lon="7.04293">
        <ele>2156</ele>
        <time>2017-05-25T10:46:00.000Z</time>
      </trkpt>
      <trkpt lat="44.12855" lon="7.04292">
        <ele>2155</ele>
        <time>2017-05-25T10:46:01.000Z</time>
      </trkpt>
      <trkpt lat="44.12854" lon="7.0429">
        <ele>2155</ele>
        <time>2017-05-25T10:46:02.000Z</time>
      </trkpt>
      <trkpt lat="44.12852" lon="7.04288">
        <ele>2155</ele>
        <time>2017-05-25T10:46:03.000Z</time>
      </trkpt>
      <trkpt lat="44.12849" lon="7.04287">
        <ele>2155</ele>
        <time>2017-05-25T10:46:04.000Z</time>
      </trkpt>
      <trkpt lat="44.12847" lon="7.04286">
        <ele>2155</ele>
        <time>2017-05-25T10:46:05.000Z</time>
      </trkpt>
      <trkpt lat="44.1284" lon="7.04285">
        <ele>2155</ele>
        <time>2017-05-25T10:46:07.000Z</time>
      </trkpt>
      <trkpt lat="44.12835" lon="7.04285">
        <ele>2154</ele>
        <time>2017-05-25T10:46:09.000Z</time>
      </trkpt>
      <trkpt lat="44.1283" lon="7.04284">
        <ele>2143</ele>
        <time>2017-05-25T10:46:11.000Z</time>
      </trkpt>
      <trkpt lat="44.1282" lon="7.04282">
        <ele>2142</ele>
        <time>2017-05-25T10:46:14.000Z</time>
      </trkpt>
      <trkpt lat="44.12815" lon="7.04282">
        <ele>2142</ele>
        <time>2017-05-25T10:46:15.000Z</time>
      </trkpt>
      <trkpt lat="44.1281" lon="7.04283">
        <ele>2141</ele>
        <time>2017-05-25T10:46:16.000Z</time>
      </trkpt>
      <trkpt lat="44.12799" lon="7.04283">
        <ele>2140</ele>
        <time>2017-05-25T10:46:18.000Z</time>
      </trkpt>
      <trkpt lat="44.12793" lon="7.04283">
        <ele>2139</ele>
        <time>2017-05-25T10:46:19.000Z</time>
      </trkpt>
      <trkpt lat="44.12781" lon="7.04282">
        <ele>2138</ele>
        <time>2017-05-25T10:46:21.000Z</time>
      </trkpt>
      <trkpt lat="44.12777" lon="7.04281">
        <ele>2138</ele>
        <time>2017-05-25T10:46:22.000Z</time>
      </trkpt>
      <trkpt lat="44.12772" lon="7.04278">
        <ele>2137</ele>
        <time>2017-05-25T10:46:23.000Z</time>
      </trkpt>
      <trkpt lat="44.12765" lon="7.04271">
        <ele>2136</ele>
        <time>2017-05-25T10:46:25.000Z</time>
      </trkpt>
      <trkpt lat="44.12757" lon="7.04266">
        <ele>2134</ele>
        <time>2017-05-25T10:46:27.000Z</time>
      </trkpt>
      <trkpt lat="44.12751" lon="7.04262">
        <ele>2133</ele>
        <time>2017-05-25T10:46:28.000Z</time>
      </trkpt>
      <trkpt lat="44.12745" lon="7.04261">
        <ele>2126</ele>
        <time>2017-05-25T10:46:29.000Z</time>
      </trkpt>
      <trkpt lat="44.12739" lon="7.0426">
        <ele>2125</ele>
        <time>2017-05-25T10:46:30.000Z</time>
      </trkpt>
      <trkpt lat="44.12734" lon="7.0426">
        <ele>2124</ele>
        <time>2017-05-25T10:46:31.000Z</time>
      </trkpt>
      <trkpt lat="44.12722" lon="7.04258">
        <ele>2121</ele>
        <time>2017-05-25T10:46:33.000Z</time>
      </trkpt>
      <trkpt lat="44.12709" lon="7.04254">
        <ele>2118</ele>
        <time>2017-05-25T10:46:35.000Z</time>
      </trkpt>
      <trkpt lat="44.12702" lon="7.04253">
        <ele>2116</ele>
        <time>2017-05-25T10:46:36.000Z</time>
      </trkpt>
      <trkpt lat="44.12696" lon="7.04252">
        <ele>2115</ele>
        <time>2017-05-25T10:46:37.000Z</time>
      </trkpt>
      <trkpt lat="44.12691" lon="7.04252">
        <ele>2113</ele>
        <time>2017-05-25T10:46:38.000Z</time>
      </trkpt>
      <trkpt lat="44.12685" lon="7.04251">
        <ele>2111</ele>
        <time>2017-05-25T10:46:39.000Z</time>
      </trkpt>
      <trkpt lat="44.12677" lon="7.04251">
        <ele>2109</ele>
        <time>2017-05-25T10:46:41.000Z</time>
      </trkpt>
      <trkpt lat="44.12672" lon="7.04254">
        <ele>2107</ele>
        <time>2017-05-25T10:46:43.000Z</time>
      </trkpt>
      <trkpt lat="44.12671" lon="7.04256">
        <ele>2107</ele>
        <time>2017-05-25T10:46:45.000Z</time>
      </trkpt>
      <trkpt lat="44.12672" lon="7.04256">
        <ele>2107</ele>
        <time>2017-05-25T10:46:46.000Z</time>
      </trkpt>
      <trkpt lat="44.12672" lon="7.04256">
        <ele>2107</ele>
        <time>2017-05-25T10:46:49.000Z</time>
      </trkpt>
      <trkpt lat="44.12672" lon="7.04256">
        <ele>2107</ele>
        <time>2017-05-25T10:46:56.000Z</time>
      </trkpt>
      <trkpt lat="44.12672" lon="7.04257">
        <ele>2107</ele>
        <time>2017-05-25T10:47:05.000Z</time>
      </trkpt>
      <trkpt lat="44.12671" lon="7.04256">
        <ele>2107</ele>
        <time>2017-05-25T10:47:14.000Z</time>
      </trkpt>
      <trkpt lat="44.12672" lon="7.04256">
        <ele>2107</ele>
        <time>2017-05-25T10:47:16.000Z</time>
      </trkpt>
      <trkpt lat="44.12672" lon="7.04256">
        <ele>2107</ele>
        <time>2017-05-25T10:47:22.000Z</time>
      </trkpt>
      <trkpt lat="44.12672" lon="7.04256">
        <ele>2107</ele>
        <time>2017-05-25T10:47:30.000Z</time>
      </trkpt>
      <trkpt lat="44.12672" lon="7.04256">
        <ele>2107</ele>
        <time>2017-05-25T10:47:33.000Z</time>
      </trkpt>
      <trkpt lat="44.12672" lon="7.04256">
        <ele>2107</ele>
        <time>2017-05-25T10:47:36.000Z</time>
      </trkpt>
      <trkpt lat="44.12672" lon="7.04256">
        <ele>2107</ele>
        <time>2017-05-25T10:47:41.000Z</time>
      </trkpt>
      <trkpt lat="44.12672" lon="7.04256">
        <ele>2107</ele>
        <time>2017-05-25T10:47:42.000Z</time>
      </trkpt>
      <trkpt lat="44.12673" lon="7.04254">
        <ele>2107</ele>
        <time>2017-05-25T10:47:47.000Z</time>
      </trkpt>
      <trkpt lat="44.12675" lon="7.04249">
        <ele>2105</ele>
        <time>2017-05-25T10:47:52.000Z</time>
      </trkpt>
      <trkpt lat="44.12675" lon="7.04247">
        <ele>2105</ele>
        <time>2017-05-25T10:47:54.000Z</time>
      </trkpt>
      <trkpt lat="44.12677" lon="7.04244">
        <ele>2106</ele>
        <time>2017-05-25T10:47:59.000Z</time>
      </trkpt>
      <trkpt lat="44.12677" lon="7.04244">
        <ele>2106</ele>
        <time>2017-05-25T10:48:00.000Z</time>
      </trkpt>
      <trkpt lat="44.12677" lon="7.04244">
        <ele>2106</ele>
        <time>2017-05-25T10:48:07.000Z</time>
      </trkpt>
      <trkpt lat="44.12677" lon="7.04244">
        <ele>2106</ele>
        <time>2017-05-25T10:48:16.000Z</time>
      </trkpt>
      <trkpt lat="44.12677" lon="7.04244">
        <ele>2106</ele>
        <time>2017-05-25T10:48:25.000Z</time>
      </trkpt>
      <trkpt lat="44.12677" lon="7.04245">
        <ele>2106</ele>
        <time>2017-05-25T10:48:33.000Z</time>
      </trkpt>
      <trkpt lat="44.12677" lon="7.04245">
        <ele>2106</ele>
        <time>2017-05-25T10:48:48.000Z</time>
      </trkpt>
      <trkpt lat="44.12677" lon="7.04244">
        <ele>2106</ele>
        <time>2017-05-25T10:48:53.000Z</time>
      </trkpt>
      <trkpt lat="44.12677" lon="7.04245">
        <ele>2106</ele>
        <time>2017-05-25T10:48:56.000Z</time>
      </trkpt>
      <trkpt lat="44.12677" lon="7.04245">
        <ele>2106</ele>
        <time>2017-05-25T10:49:06.000Z</time>
      </trkpt>
      <trkpt lat="44.12677" lon="7.04245">
        <ele>2106</ele>
        <time>2017-05-25T10:49:14.000Z</time>
      </trkpt>
      <trkpt lat="44.12678" lon="7.04245">
        <ele>2106</ele>
        <time>2017-05-25T10:49:24.000Z</time>
      </trkpt>
      <trkpt lat="44.12677" lon="7.04245">
        <ele>2106</ele>
        <time>2017-05-25T10:49:30.000Z</time>
      </trkpt>
      <trkpt lat="44.12677" lon="7.04245">
        <ele>2106</ele>
        <time>2017-05-25T10:49:32.000Z</time>
      </trkpt>
      <trkpt lat="44.12678" lon="7.04245">
        <ele>2106</ele>
        <time>2017-05-25T10:49:49.000Z</time>
      </trkpt>
      <trkpt lat="44.12677" lon="7.04245">
        <ele>2106</ele>
        <time>2017-05-25T10:50:03.000Z</time>
      </trkpt>
      <trkpt lat="44.12677" lon="7.04244">
        <ele>2106</ele>
        <time>2017-05-25T10:50:11.000Z</time>
      </trkpt>
      <trkpt lat="44.12678" lon="7.04244">
        <ele>2106</ele>
        <time>2017-05-25T10:50:28.000Z</time>
      </trkpt>
      <trkpt lat="44.12678" lon="7.04244">
        <ele>2106</ele>
        <time>2017-05-25T10:50:44.000Z</time>
      </trkpt>
      <trkpt lat="44.12678" lon="7.04244">
        <ele>2106</ele>
        <time>2017-05-25T10:51:04.000Z</time>
      </trkpt>
      <trkpt lat="44.12678" lon="7.04244">
        <ele>2106</ele>
        <time>2017-05-25T10:51:18.000Z</time>
      </trkpt>
      <trkpt lat="44.12678" lon="7.04244">
        <ele>2106</ele>
        <time>2017-05-25T10:51:38.000Z</time>
      </trkpt>
      <trkpt lat="44.12678" lon="7.04244">
        <ele>2106</ele>
        <time>2017-05-25T10:52:01.000Z</time>
      </trkpt>
      <trkpt lat="44.12678" lon="7.04244">
        <ele>2106</ele>
        <time>2017-05-25T10:52:16.000Z</time>
      </trkpt>
      <trkpt lat="44.12678" lon="7.04244">
        <ele>2106</ele>
        <time>2017-05-25T10:52:31.000Z</time>
      </trkpt>
      <trkpt lat="44.12678" lon="7.04244">
        <ele>2106</ele>
        <time>2017-05-25T10:52:41.000Z</time>
      </trkpt>
      <trkpt lat="44.12678" lon="7.04244">
        <ele>2106</ele>
        <time>2017-05-25T10:52:59.000Z</time>
      </trkpt>
      <trkpt lat="44.12678" lon="7.04244">
        <ele>2106</ele>
        <time>2017-05-25T10:53:16.000Z</time>
      </trkpt>
      <trkpt lat="44.12678" lon="7.04244">
        <ele>2106</ele>
        <time>2017-05-25T10:53:32.000Z</time>
      </trkpt>
      <trkpt lat="44.12678" lon="7.04244">
        <ele>2106</ele>
        <time>2017-05-25T10:53:45.000Z</time>
      </trkpt>
      <trkpt lat="44.12678" lon="7.04244">
        <ele>2106</ele>
        <time>2017-05-25T10:53:56.000Z</time>
      </trkpt>
      <trkpt lat="44.12678" lon="7.04244">
        <ele>2106</ele>
        <time>2017-05-25T10:54:12.000Z</time>
      </trkpt>
      <trkpt lat="44.12678" lon="7.04244">
        <ele>2106</ele>
        <time>2017-05-25T10:54:24.000Z</time>
      </trkpt>
      <trkpt lat="44.12678" lon="7.04244">
        <ele>2106</ele>
        <time>2017-05-25T10:54:35.000Z</time>
      </trkpt>
      <trkpt lat="44.12678" lon="7.04244">
        <ele>2106</ele>
        <time>2017-05-25T10:54:50.000Z</time>
      </trkpt>
      <trkpt lat="44.12678" lon="7.04245">
        <ele>2106</ele>
        <time>2017-05-25T10:55:06.000Z</time>
      </trkpt>
      <trkpt lat="44.12678" lon="7.04244">
        <ele>2106</ele>
        <time>2017-05-25T10:55:21.000Z</time>
      </trkpt>
      <trkpt lat="44.12678" lon="7.04244">
        <ele>2106</ele>
        <time>2017-05-25T10:55:40.000Z</time>
      </trkpt>
      <trkpt lat="44.12678" lon="7.04244">
        <ele>2106</ele>
        <time>2017-05-25T10:55:49.000Z</time>
      </trkpt>
      <trkpt lat="44.12678" lon="7.04244">
        <ele>2106</ele>
        <time>2017-05-25T10:56:06.000Z</time>
      </trkpt>
      <trkpt lat="44.12678" lon="7.04245">
        <ele>2106</ele>
        <time>2017-05-25T10:56:22.000Z</time>
      </trkpt>
      <trkpt lat="44.12678" lon="7.04245">
        <ele>2106</ele>
        <time>2017-05-25T10:56:26.000Z</time>
      </trkpt>
      <trkpt lat="44.12678" lon="7.04245">
        <ele>2106</ele>
        <time>2017-05-25T10:56:39.000Z</time>
      </trkpt>
      <trkpt lat="44.12678" lon="7.04245">
        <ele>2106</ele>
        <time>2017-05-25T10:56:48.000Z</time>
      </trkpt>
      <trkpt lat="44.12678" lon="7.04245">
        <ele>2106</ele>
        <time>2017-05-25T10:56:59.000Z</time>
      </trkpt>
      <trkpt lat="44.12678" lon="7.04245">
        <ele>2106</ele>
        <time>2017-05-25T10:57:11.000Z</time>
      </trkpt>
      <trkpt lat="44.12678" lon="7.04245">
        <ele>2106</ele>
        <time>2017-05-25T10:57:29.000Z</time>
      </trkpt>
      <trkpt lat="44.12678" lon="7.04245">
        <ele>2106</ele>
        <time>2017-05-25T10:57:39.000Z</time>
      </trkpt>
      <trkpt lat="44.12678" lon="7.04245">
        <ele>2106</ele>
        <time>2017-05-25T10:57:54.000Z</time>
      </trkpt>
      <trkpt lat="44.12678" lon="7.04245">
        <ele>2106</ele>
        <time>2017-05-25T10:58:10.000Z</time>
      </trkpt>
      <trkpt lat="44.12678" lon="7.04244">
        <ele>2106</ele>
        <time>2017-05-25T10:58:23.000Z</time>
      </trkpt>
      <trkpt lat="44.12678" lon="7.04244">
        <ele>2106</ele>
        <time>2017-05-25T10:58:41.000Z</time>
      </trkpt>
      <trkpt lat="44.12678" lon="7.04244">
        <ele>2106</ele>
        <time>2017-05-25T10:58:51.000Z</time>
      </trkpt>
      <trkpt lat="44.12677" lon="7.04244">
        <ele>2106</ele>
        <time>2017-05-25T10:59:00.000Z</time>
      </trkpt>
      <trkpt lat="44.12677" lon="7.04244">
        <ele>2106</ele>
        <time>2017-05-25T10:59:10.000Z</time>
      </trkpt>
      <trkpt lat="44.12677" lon="7.04243">
        <ele>2106</ele>
        <time>2017-05-25T10:59:27.000Z</time>
      </trkpt>
      <trkpt lat="44.12677" lon="7.04243">
        <ele>2106</ele>
        <time>2017-05-25T10:59:44.000Z</time>
      </trkpt>
      <trkpt lat="44.12677" lon="7.04243">
        <ele>2106</ele>
        <time>2017-05-25T10:59:58.000Z</time>
      </trkpt>
      <trkpt lat="44.12678" lon="7.04243">
        <ele>2106</ele>
        <time>2017-05-25T11:00:15.000Z</time>
      </trkpt>
      <trkpt lat="44.12677" lon="7.04243">
        <ele>2106</ele>
        <time>2017-05-25T11:00:27.000Z</time>
      </trkpt>
      <trkpt lat="44.12677" lon="7.04243">
        <ele>2106</ele>
        <time>2017-05-25T11:00:29.000Z</time>
      </trkpt>
      <trkpt lat="44.12677" lon="7.04243">
        <ele>2106</ele>
        <time>2017-05-25T11:00:39.000Z</time>
      </trkpt>
      <trkpt lat="44.12678" lon="7.04243">
        <ele>2106</ele>
        <time>2017-05-25T11:00:52.000Z</time>
      </trkpt>
      <trkpt lat="44.12679" lon="7.04244">
        <ele>2106</ele>
        <time>2017-05-25T11:01:08.000Z</time>
      </trkpt>
      <trkpt lat="44.12678" lon="7.04244">
        <ele>2106</ele>
        <time>2017-05-25T11:01:14.000Z</time>
      </trkpt>
      <trkpt lat="44.12678" lon="7.04244">
        <ele>2106</ele>
        <time>2017-05-25T11:01:24.000Z</time>
      </trkpt>
      <trkpt lat="44.12678" lon="7.04244">
        <ele>2106</ele>
        <time>2017-05-25T11:01:37.000Z</time>
      </trkpt>
      <trkpt lat="44.12677" lon="7.04244">
        <ele>2106</ele>
        <time>2017-05-25T11:01:45.000Z</time>
      </trkpt>
      <trkpt lat="44.12678" lon="7.04244">
        <ele>2106</ele>
        <time>2017-05-25T11:01:56.000Z</time>
      </trkpt>
      <trkpt lat="44.12677" lon="7.04243">
        <ele>2106</ele>
        <time>2017-05-25T11:02:06.000Z</time>
      </trkpt>
      <trkpt lat="44.12677" lon="7.04244">
        <ele>2106</ele>
        <time>2017-05-25T11:02:30.000Z</time>
      </trkpt>
      <trkpt lat="44.12678" lon="7.04244">
        <ele>2106</ele>
        <time>2017-05-25T11:02:53.000Z</time>
      </trkpt>
      <trkpt lat="44.12678" lon="7.04245">
        <ele>2106</ele>
        <time>2017-05-25T11:03:13.000Z</time>
      </trkpt>
      <trkpt lat="44.12677" lon="7.04245">
        <ele>2106</ele>
        <time>2017-05-25T11:03:29.000Z</time>
      </trkpt>
      <trkpt lat="44.12678" lon="7.04245">
        <ele>2106</ele>
        <time>2017-05-25T11:03:46.000Z</time>
      </trkpt>
      <trkpt lat="44.12678" lon="7.04245">
        <ele>2106</ele>
        <time>2017-05-25T11:04:04.000Z</time>
      </trkpt>
      <trkpt lat="44.12678" lon="7.04244">
        <ele>2106</ele>
        <time>2017-05-25T11:04:14.000Z</time>
      </trkpt>
      <trkpt lat="44.12678" lon="7.04245">
        <ele>2106</ele>
        <time>2017-05-25T11:04:31.000Z</time>
      </trkpt>
      <trkpt lat="44.12678" lon="7.04245">
        <ele>2106</ele>
        <time>2017-05-25T11:04:50.000Z</time>
      </trkpt>
      <trkpt lat="44.12678" lon="7.04244">
        <ele>2106</ele>
        <time>2017-05-25T11:05:10.000Z</time>
      </trkpt>
      <trkpt lat="44.12678" lon="7.04245">
        <ele>2106</ele>
        <time>2017-05-25T11:05:34.000Z</time>
      </trkpt>
      <trkpt lat="44.12678" lon="7.04244">
        <ele>2106</ele>
        <time>2017-05-25T11:05:46.000Z</time>
      </trkpt>
      <trkpt lat="44.12678" lon="7.04244">
        <ele>2106</ele>
        <time>2017-05-25T11:05:54.000Z</time>
      </trkpt>
      <trkpt lat="44.12678" lon="7.04244">
        <ele>2106</ele>
        <time>2017-05-25T11:06:07.000Z</time>
      </trkpt>
      <trkpt lat="44.12677" lon="7.04244">
        <ele>2106</ele>
        <time>2017-05-25T11:06:29.000Z</time>
      </trkpt>
      <trkpt lat="44.12678" lon="7.04244">
        <ele>2106</ele>
        <time>2017-05-25T11:06:39.000Z</time>
      </trkpt>
      <trkpt lat="44.12677" lon="7.04244">
        <ele>2106</ele>
        <time>2017-05-25T11:06:50.000Z</time>
      </trkpt>
      <trkpt lat="44.12678" lon="7.04244">
        <ele>2106</ele>
        <time>2017-05-25T11:07:02.000Z</time>
      </trkpt>
      <trkpt lat="44.12678" lon="7.04244">
        <ele>2106</ele>
        <time>2017-05-25T11:07:09.000Z</time>
      </trkpt>
      <trkpt lat="44.12678" lon="7.04244">
        <ele>2106</ele>
        <time>2017-05-25T11:07:18.000Z</time>
      </trkpt>
      <trkpt lat="44.12678" lon="7.04244">
        <ele>2106</ele>
        <time>2017-05-25T11:07:27.000Z</time>
      </trkpt>
      <trkpt lat="44.12678" lon="7.04244">
        <ele>2106</ele>
        <time>2017-05-25T11:07:39.000Z</time>
      </trkpt>
      <trkpt lat="44.12678" lon="7.04244">
        <ele>2106</ele>
        <time>2017-05-25T11:07:48.000Z</time>
      </trkpt>
      <trkpt lat="44.12678" lon="7.04244">
        <ele>2106</ele>
        <time>2017-05-25T11:07:57.000Z</time>
      </trkpt>
      <trkpt lat="44.12678" lon="7.04244">
        <ele>2106</ele>
        <time>2017-05-25T11:08:09.000Z</time>
      </trkpt>
      <trkpt lat="44.12677" lon="7.04244">
        <ele>2106</ele>
        <time>2017-05-25T11:08:14.000Z</time>
      </trkpt>
      <trkpt lat="44.12677" lon="7.04244">
        <ele>2106</ele>
        <time>2017-05-25T11:08:16.000Z</time>
      </trkpt>
      <trkpt lat="44.12677" lon="7.04245">
        <ele>2106</ele>
        <time>2017-05-25T11:08:29.000Z</time>
      </trkpt>
      <trkpt lat="44.12677" lon="7.04245">
        <ele>2106</ele>
        <time>2017-05-25T11:08:34.000Z</time>
      </trkpt>
      <trkpt lat="44.12677" lon="7.04247">
        <ele>2106</ele>
        <time>2017-05-25T11:08:40.000Z</time>
      </trkpt>
      <trkpt lat="44.12677" lon="7.04247">
        <ele>2106</ele>
        <time>2017-05-25T11:08:46.000Z</time>
      </trkpt>
      <trkpt lat="44.12677" lon="7.04247">
        <ele>2106</ele>
        <time>2017-05-25T11:08:59.000Z</time>
      </trkpt>
      <trkpt lat="44.12677" lon="7.04247">
        <ele>2106</ele>
        <time>2017-05-25T11:09:12.000Z</time>
      </trkpt>
      <trkpt lat="44.12677" lon="7.04247">
        <ele>2106</ele>
        <time>2017-05-25T11:09:23.000Z</time>
      </trkpt>
      <trkpt lat="44.12677" lon="7.04247">
        <ele>2106</ele>
        <time>2017-05-25T11:09:33.000Z</time>
      </trkpt>
      <trkpt lat="44.12677" lon="7.04246">
        <ele>2106</ele>
        <time>2017-05-25T11:09:39.000Z</time>
      </trkpt>
      <trkpt lat="44.12677" lon="7.04246">
        <ele>2106</ele>
        <time>2017-05-25T11:09:46.000Z</time>
      </trkpt>
      <trkpt lat="44.12677" lon="7.04246">
        <ele>2106</ele>
        <time>2017-05-25T11:09:53.000Z</time>
      </trkpt>
      <trkpt lat="44.12677" lon="7.04246">
        <ele>2106</ele>
        <time>2017-05-25T11:10:00.000Z</time>
      </trkpt>
      <trkpt lat="44.12677" lon="7.04246">
        <ele>2106</ele>
        <time>2017-05-25T11:10:04.000Z</time>
      </trkpt>
      <trkpt lat="44.12677" lon="7.04246">
        <ele>2106</ele>
        <time>2017-05-25T11:10:16.000Z</time>
      </trkpt>
      <trkpt lat="44.12677" lon="7.04246">
        <ele>2106</ele>
        <time>2017-05-25T11:10:18.000Z</time>
      </trkpt>
      <trkpt lat="44.12677" lon="7.04246">
        <ele>2106</ele>
        <time>2017-05-25T11:10:27.000Z</time>
      </trkpt>
      <trkpt lat="44.12677" lon="7.04246">
        <ele>2106</ele>
        <time>2017-05-25T11:10:36.000Z</time>
      </trkpt>
      <trkpt lat="44.12678" lon="7.04246">
        <ele>2106</ele>
        <time>2017-05-25T11:10:46.000Z</time>
      </trkpt>
      <trkpt lat="44.12678" lon="7.04246">
        <ele>2106</ele>
        <time>2017-05-25T11:10:57.000Z</time>
      </trkpt>
      <trkpt lat="44.12678" lon="7.04246">
        <ele>2106</ele>
        <time>2017-05-25T11:11:06.000Z</time>
      </trkpt>
      <trkpt lat="44.12678" lon="7.04247">
        <ele>2106</ele>
        <time>2017-05-25T11:11:17.000Z</time>
      </trkpt>
      <trkpt lat="44.12675" lon="7.0425">
        <ele>2105</ele>
        <time>2017-05-25T11:11:21.000Z</time>
      </trkpt>
      <trkpt lat="44.12675" lon="7.0425">
        <ele>2108</ele>
        <time>2017-05-25T11:11:22.000Z</time>
      </trkpt>
      <trkpt lat="44.12674" lon="7.04252">
        <ele>2107</ele>
        <time>2017-05-25T11:11:28.000Z</time>
      </trkpt>
      <trkpt lat="44.12675" lon="7.04253">
        <ele>2108</ele>
        <time>2017-05-25T11:11:35.000Z</time>
      </trkpt>
      <trkpt lat="44.12674" lon="7.04253">
        <ele>2108</ele>
        <time>2017-05-25T11:11:43.000Z</time>
      </trkpt>
      <trkpt lat="44.12674" lon="7.04253">
        <ele>2107</ele>
        <time>2017-05-25T11:11:49.000Z</time>
      </trkpt>
      <trkpt lat="44.12674" lon="7.04255">
        <ele>2108</ele>
        <time>2017-05-25T11:11:57.000Z</time>
      </trkpt>
      <trkpt lat="44.12674" lon="7.04255">
        <ele>2108</ele>
        <time>2017-05-25T11:12:04.000Z</time>
      </trkpt>
      <trkpt lat="44.12674" lon="7.04255">
        <ele>2108</ele>
        <time>2017-05-25T11:12:07.000Z</time>
      </trkpt>
      <trkpt lat="44.12674" lon="7.04255">
        <ele>2108</ele>
        <time>2017-05-25T11:12:13.000Z</time>
      </trkpt>
      <trkpt lat="44.12674" lon="7.04255">
        <ele>2108</ele>
        <time>2017-05-25T11:12:17.000Z</time>
      </trkpt>
      <trkpt lat="44.12674" lon="7.04254">
        <ele>2108</ele>
        <time>2017-05-25T11:12:21.000Z</time>
      </trkpt>
      <trkpt lat="44.12675" lon="7.04254">
        <ele>2108</ele>
        <time>2017-05-25T11:12:29.000Z</time>
      </trkpt>
      <trkpt lat="44.12675" lon="7.04254">
        <ele>2108</ele>
        <time>2017-05-25T11:12:38.000Z</time>
      </trkpt>
      <trkpt lat="44.12674" lon="7.04254">
        <ele>2108</ele>
        <time>2017-05-25T11:12:49.000Z</time>
      </trkpt>
      <trkpt lat="44.12674" lon="7.04255">
        <ele>2108</ele>
        <time>2017-05-25T11:12:55.000Z</time>
      </trkpt>
      <trkpt lat="44.12674" lon="7.04255">
        <ele>2108</ele>
        <time>2017-05-25T11:13:08.000Z</time>
      </trkpt>
      <trkpt lat="44.12674" lon="7.04255">
        <ele>2108</ele>
        <time>2017-05-25T11:13:20.000Z</time>
      </trkpt>
      <trkpt lat="44.12676" lon="7.04255">
        <ele>2108</ele>
        <time>2017-05-25T11:13:22.000Z</time>
      </trkpt>
      <trkpt lat="44.12676" lon="7.04255">
        <ele>2109</ele>
        <time>2017-05-25T11:13:25.000Z</time>
      </trkpt>
      <trkpt lat="44.12675" lon="7.04256">
        <ele>2108</ele>
        <time>2017-05-25T11:13:35.000Z</time>
      </trkpt>
      <trkpt lat="44.12674" lon="7.04256">
        <ele>2108</ele>
        <time>2017-05-25T11:13:41.000Z</time>
      </trkpt>
      <trkpt lat="44.12675" lon="7.04256">
        <ele>2108</ele>
        <time>2017-05-25T11:13:46.000Z</time>
      </trkpt>
      <trkpt lat="44.12674" lon="7.04257">
        <ele>2109</ele>
        <time>2017-05-25T11:13:52.000Z</time>
      </trkpt>
      <trkpt lat="44.12675" lon="7.04256">
        <ele>2108</ele>
        <time>2017-05-25T11:14:01.000Z</time>
      </trkpt>
      <trkpt lat="44.12674" lon="7.04257">
        <ele>2108</ele>
        <time>2017-05-25T11:14:12.000Z</time>
      </trkpt>
      <trkpt lat="44.12675" lon="7.04257">
        <ele>2108</ele>
        <time>2017-05-25T11:14:22.000Z</time>
      </trkpt>
      <trkpt lat="44.12675" lon="7.04256">
        <ele>2109</ele>
        <time>2017-05-25T11:14:31.000Z</time>
      </trkpt>
      <trkpt lat="44.12676" lon="7.04257">
        <ele>2109</ele>
        <time>2017-05-25T11:14:42.000Z</time>
      </trkpt>
      <trkpt lat="44.12674" lon="7.0426">
        <ele>2109</ele>
        <time>2017-05-25T11:14:46.000Z</time>
      </trkpt>
      <trkpt lat="44.12668" lon="7.0427">
        <ele>2111</ele>
        <time>2017-05-25T11:14:50.000Z</time>
      </trkpt>
      <trkpt lat="44.1266" lon="7.04293">
        <ele>2099</ele>
        <time>2017-05-25T11:14:54.000Z</time>
      </trkpt>
      <trkpt lat="44.12655" lon="7.04307">
        <ele>2100</ele>
        <time>2017-05-25T11:14:56.000Z</time>
      </trkpt>
      <trkpt lat="44.12647" lon="7.04322">
        <ele>2101</ele>
        <time>2017-05-25T11:14:58.000Z</time>
      </trkpt>
      <trkpt lat="44.12643" lon="7.04328">
        <ele>2101</ele>
        <time>2017-05-25T11:14:59.000Z</time>
      </trkpt>
      <trkpt lat="44.12636" lon="7.04342">
        <ele>2104</ele>
        <time>2017-05-25T11:15:01.000Z</time>
      </trkpt>
      <trkpt lat="44.12632" lon="7.04347">
        <ele>2104</ele>
        <time>2017-05-25T11:15:02.000Z</time>
      </trkpt>
      <trkpt lat="44.12627" lon="7.04352">
        <ele>2103</ele>
        <time>2017-05-25T11:15:03.000Z</time>
      </trkpt>
      <trkpt lat="44.12624" lon="7.04358">
        <ele>2102</ele>
        <time>2017-05-25T11:15:04.000Z</time>
      </trkpt>
      <trkpt lat="44.1262" lon="7.04365">
        <ele>2102</ele>
        <time>2017-05-25T11:15:05.000Z</time>
      </trkpt>
      <trkpt lat="44.12616" lon="7.04372">
        <ele>2102</ele>
        <time>2017-05-25T11:15:06.000Z</time>
      </trkpt>
      <trkpt lat="44.12612" lon="7.04379">
        <ele>2102</ele>
        <time>2017-05-25T11:15:07.000Z</time>
      </trkpt>
      <trkpt lat="44.12604" lon="7.04394">
        <ele>2101</ele>
        <time>2017-05-25T11:15:09.000Z</time>
      </trkpt>
      <trkpt lat="44.12601" lon="7.04401">
        <ele>2100</ele>
        <time>2017-05-25T11:15:10.000Z</time>
      </trkpt>
      <trkpt lat="44.12596" lon="7.04415">
        <ele>2099</ele>
        <time>2017-05-25T11:15:12.000Z</time>
      </trkpt>
      <trkpt lat="44.12591" lon="7.04431">
        <ele>2098</ele>
        <time>2017-05-25T11:15:14.000Z</time>
      </trkpt>
      <trkpt lat="44.1259" lon="7.0444">
        <ele>2098</ele>
        <time>2017-05-25T11:15:15.000Z</time>
      </trkpt>
      <trkpt lat="44.12588" lon="7.04449">
        <ele>2098</ele>
        <time>2017-05-25T11:15:16.000Z</time>
      </trkpt>
      <trkpt lat="44.12586" lon="7.04457">
        <ele>2098</ele>
        <time>2017-05-25T11:15:17.000Z</time>
      </trkpt>
      <trkpt lat="44.12584" lon="7.04466">
        <ele>2097</ele>
        <time>2017-05-25T11:15:18.000Z</time>
      </trkpt>
      <trkpt lat="44.12582" lon="7.04475">
        <ele>2091</ele>
        <time>2017-05-25T11:15:19.000Z</time>
      </trkpt>
      <trkpt lat="44.1258" lon="7.04483">
        <ele>2091</ele>
        <time>2017-05-25T11:15:20.000Z</time>
      </trkpt>
      <trkpt lat="44.12577" lon="7.0451">
        <ele>2088</ele>
        <time>2017-05-25T11:15:23.000Z</time>
      </trkpt>
      <trkpt lat="44.12575" lon="7.04519">
        <ele>2086</ele>
        <time>2017-05-25T11:15:24.000Z</time>
      </trkpt>
      <trkpt lat="44.12575" lon="7.04528">
        <ele>2085</ele>
        <time>2017-05-25T11:15:25.000Z</time>
      </trkpt>
      <trkpt lat="44.12573" lon="7.04545">
        <ele>2083</ele>
        <time>2017-05-25T11:15:27.000Z</time>
      </trkpt>
      <trkpt lat="44.12572" lon="7.04553">
        <ele>2082</ele>
        <time>2017-05-25T11:15:28.000Z</time>
      </trkpt>
      <trkpt lat="44.12569" lon="7.04561">
        <ele>2081</ele>
        <time>2017-05-25T11:15:29.000Z</time>
      </trkpt>
      <trkpt lat="44.12566" lon="7.04568">
        <ele>2080</ele>
        <time>2017-05-25T11:15:30.000Z</time>
      </trkpt>
      <trkpt lat="44.12563" lon="7.04574">
        <ele>2080</ele>
        <time>2017-05-25T11:15:31.000Z</time>
      </trkpt>
      <trkpt lat="44.12562" lon="7.0458">
        <ele>2080</ele>
        <time>2017-05-25T11:15:32.000Z</time>
      </trkpt>
      <trkpt lat="44.1256" lon="7.04587">
        <ele>2072</ele>
        <time>2017-05-25T11:15:33.000Z</time>
      </trkpt>
      <trkpt lat="44.12559" lon="7.04598">
        <ele>2071</ele>
        <time>2017-05-25T11:15:35.000Z</time>
      </trkpt>
      <trkpt lat="44.12558" lon="7.04604">
        <ele>2071</ele>
        <time>2017-05-25T11:15:36.000Z</time>
      </trkpt>
      <trkpt lat="44.12553" lon="7.04613">
        <ele>2070</ele>
        <time>2017-05-25T11:15:38.000Z</time>
      </trkpt>
      <trkpt lat="44.12548" lon="7.04619">
        <ele>2069</ele>
        <time>2017-05-25T11:15:39.000Z</time>
      </trkpt>
      <trkpt lat="44.12544" lon="7.04624">
        <ele>2069</ele>
        <time>2017-05-25T11:15:40.000Z</time>
      </trkpt>
      <trkpt lat="44.1254" lon="7.04628">
        <ele>2068</ele>
        <time>2017-05-25T11:15:41.000Z</time>
      </trkpt>
      <trkpt lat="44.12536" lon="7.04632">
        <ele>2068</ele>
        <time>2017-05-25T11:15:42.000Z</time>
      </trkpt>
      <trkpt lat="44.12533" lon="7.04635">
        <ele>2067</ele>
        <time>2017-05-25T11:15:43.000Z</time>
      </trkpt>
      <trkpt lat="44.1253" lon="7.04639">
        <ele>2067</ele>
        <time>2017-05-25T11:15:44.000Z</time>
      </trkpt>
      <trkpt lat="44.12525" lon="7.04643">
        <ele>2066</ele>
        <time>2017-05-25T11:15:45.000Z</time>
      </trkpt>
      <trkpt lat="44.12521" lon="7.04649">
        <ele>2066</ele>
        <time>2017-05-25T11:15:46.000Z</time>
      </trkpt>
      <trkpt lat="44.12518" lon="7.04653">
        <ele>2065</ele>
        <time>2017-05-25T11:15:47.000Z</time>
      </trkpt>
      <trkpt lat="44.12515" lon="7.04659">
        <ele>2064</ele>
        <time>2017-05-25T11:15:48.000Z</time>
      </trkpt>
      <trkpt lat="44.12512" lon="7.04663">
        <ele>2063</ele>
        <time>2017-05-25T11:15:49.000Z</time>
      </trkpt>
      <trkpt lat="44.12509" lon="7.04665">
        <ele>2062</ele>
        <time>2017-05-25T11:15:50.000Z</time>
      </trkpt>
      <trkpt lat="44.12506" lon="7.04668">
        <ele>2058</ele>
        <time>2017-05-25T11:15:51.000Z</time>
      </trkpt>
      <trkpt lat="44.12502" lon="7.04671">
        <ele>2058</ele>
        <time>2017-05-25T11:15:53.000Z</time>
      </trkpt>
      <trkpt lat="44.12499" lon="7.04673">
        <ele>2057</ele>
        <time>2017-05-25T11:15:55.000Z</time>
      </trkpt>
      <trkpt lat="44.12492" lon="7.0468">
        <ele>2055</ele>
        <time>2017-05-25T11:15:58.000Z</time>
      </trkpt>
      <trkpt lat="44.12488" lon="7.04682">
        <ele>2054</ele>
        <time>2017-05-25T11:15:59.000Z</time>
      </trkpt>
      <trkpt lat="44.12477" lon="7.04689">
        <ele>2053</ele>
        <time>2017-05-25T11:16:01.000Z</time>
      </trkpt>
      <trkpt lat="44.12465" lon="7.04697">
        <ele>2051</ele>
        <time>2017-05-25T11:16:03.000Z</time>
      </trkpt>
      <trkpt lat="44.1246" lon="7.04703">
        <ele>2051</ele>
        <time>2017-05-25T11:16:04.000Z</time>
      </trkpt>
      <trkpt lat="44.12455" lon="7.04707">
        <ele>2050</ele>
        <time>2017-05-25T11:16:05.000Z</time>
      </trkpt>
      <trkpt lat="44.1245" lon="7.04711">
        <ele>2050</ele>
        <time>2017-05-25T11:16:06.000Z</time>
      </trkpt>
      <trkpt lat="44.12445" lon="7.04717">
        <ele>2049</ele>
        <time>2017-05-25T11:16:07.000Z</time>
      </trkpt>
      <trkpt lat="44.1244" lon="7.04724">
        <ele>2048</ele>
        <time>2017-05-25T11:16:08.000Z</time>
      </trkpt>
      <trkpt lat="44.1243" lon="7.04739">
        <ele>2044</ele>
        <time>2017-05-25T11:16:10.000Z</time>
      </trkpt>
      <trkpt lat="44.12426" lon="7.04745">
        <ele>2042</ele>
        <time>2017-05-25T11:16:11.000Z</time>
      </trkpt>
      <trkpt lat="44.12421" lon="7.04748">
        <ele>2040</ele>
        <time>2017-05-25T11:16:12.000Z</time>
      </trkpt>
      <trkpt lat="44.12413" lon="7.04753">
        <ele>2037</ele>
        <time>2017-05-25T11:16:14.000Z</time>
      </trkpt>
      <trkpt lat="44.12401" lon="7.04762">
        <ele>2037</ele>
        <time>2017-05-25T11:16:17.000Z</time>
      </trkpt>
      <trkpt lat="44.12396" lon="7.04766">
        <ele>2036</ele>
        <time>2017-05-25T11:16:18.000Z</time>
      </trkpt>
      <trkpt lat="44.12392" lon="7.0477">
        <ele>2036</ele>
        <time>2017-05-25T11:16:19.000Z</time>
      </trkpt>
      <trkpt lat="44.12378" lon="7.04783">
        <ele>2035</ele>
        <time>2017-05-25T11:16:22.000Z</time>
      </trkpt>
      <trkpt lat="44.12367" lon="7.04792">
        <ele>2035</ele>
        <time>2017-05-25T11:16:24.000Z</time>
      </trkpt>
      <trkpt lat="44.12356" lon="7.04798">
        <ele>2034</ele>
        <time>2017-05-25T11:16:26.000Z</time>
      </trkpt>
      <trkpt lat="44.12344" lon="7.04805">
        <ele>2033</ele>
        <time>2017-05-25T11:16:28.000Z</time>
      </trkpt>
      <trkpt lat="44.12338" lon="7.04808">
        <ele>2032</ele>
        <time>2017-05-25T11:16:29.000Z</time>
      </trkpt>
      <trkpt lat="44.12331" lon="7.04811">
        <ele>2029</ele>
        <time>2017-05-25T11:16:30.000Z</time>
      </trkpt>
      <trkpt lat="44.12311" lon="7.04816">
        <ele>2028</ele>
        <time>2017-05-25T11:16:33.000Z</time>
      </trkpt>
      <trkpt lat="44.12305" lon="7.04817">
        <ele>2028</ele>
        <time>2017-05-25T11:16:34.000Z</time>
      </trkpt>
      <trkpt lat="44.12291" lon="7.0482">
        <ele>2027</ele>
        <time>2017-05-25T11:16:36.000Z</time>
      </trkpt>
      <trkpt lat="44.12285" lon="7.04821">
        <ele>2026</ele>
        <time>2017-05-25T11:16:37.000Z</time>
      </trkpt>
      <trkpt lat="44.12279" lon="7.04821">
        <ele>2026</ele>
        <time>2017-05-25T11:16:38.000Z</time>
      </trkpt>
      <trkpt lat="44.12275" lon="7.04822">
        <ele>2025</ele>
        <time>2017-05-25T11:16:39.000Z</time>
      </trkpt>
      <trkpt lat="44.1227" lon="7.04822">
        <ele>2024</ele>
        <time>2017-05-25T11:16:40.000Z</time>
      </trkpt>
      <trkpt lat="44.12266" lon="7.04821">
        <ele>2024</ele>
        <time>2017-05-25T11:16:41.000Z</time>
      </trkpt>
      <trkpt lat="44.12261" lon="7.0482">
        <ele>2023</ele>
        <time>2017-05-25T11:16:42.000Z</time>
      </trkpt>
      <trkpt lat="44.12252" lon="7.04816">
        <ele>2023</ele>
        <time>2017-05-25T11:16:44.000Z</time>
      </trkpt>
      <trkpt lat="44.12244" lon="7.04813">
        <ele>2016</ele>
        <time>2017-05-25T11:16:47.000Z</time>
      </trkpt>
      <trkpt lat="44.12242" lon="7.04812">
        <ele>2016</ele>
        <time>2017-05-25T11:16:48.000Z</time>
      </trkpt>
      <trkpt lat="44.12241" lon="7.04812">
        <ele>2016</ele>
        <time>2017-05-25T11:16:49.000Z</time>
      </trkpt>
      <trkpt lat="44.12238" lon="7.0481">
        <ele>2016</ele>
        <time>2017-05-25T11:16:51.000Z</time>
      </trkpt>
      <trkpt lat="44.1223" lon="7.04806">
        <ele>2016</ele>
        <time>2017-05-25T11:16:54.000Z</time>
      </trkpt>
      <trkpt lat="44.12224" lon="7.04804">
        <ele>2015</ele>
        <time>2017-05-25T11:16:56.000Z</time>
      </trkpt>
      <trkpt lat="44.12214" lon="7.04803">
        <ele>2015</ele>
        <time>2017-05-25T11:16:58.000Z</time>
      </trkpt>
      <trkpt lat="44.12203" lon="7.04803">
        <ele>2013</ele>
        <time>2017-05-25T11:17:00.000Z</time>
      </trkpt>
      <trkpt lat="44.12191" lon="7.04801">
        <ele>2012</ele>
        <time>2017-05-25T11:17:02.000Z</time>
      </trkpt>
      <trkpt lat="44.12184" lon="7.04798">
        <ele>2012</ele>
        <time>2017-05-25T11:17:03.000Z</time>
      </trkpt>
      <trkpt lat="44.12174" lon="7.04791">
        <ele>2011</ele>
        <time>2017-05-25T11:17:05.000Z</time>
      </trkpt>
      <trkpt lat="44.12171" lon="7.04788">
        <ele>2011</ele>
        <time>2017-05-25T11:17:06.000Z</time>
      </trkpt>
      <trkpt lat="44.12167" lon="7.04786">
        <ele>2011</ele>
        <time>2017-05-25T11:17:08.000Z</time>
      </trkpt>
      <trkpt lat="44.12166" lon="7.04785">
        <ele>2000</ele>
        <time>2017-05-25T11:17:09.000Z</time>
      </trkpt>
      <trkpt lat="44.12166" lon="7.04785">
        <ele>2000</ele>
        <time>2017-05-25T11:17:10.000Z</time>
      </trkpt>
      <trkpt lat="44.12157" lon="7.04784">
        <ele>1999</ele>
        <time>2017-05-25T11:17:14.000Z</time>
      </trkpt>
      <trkpt lat="44.12145" lon="7.04782">
        <ele>1998</ele>
        <time>2017-05-25T11:17:17.000Z</time>
      </trkpt>
      <trkpt lat="44.12141" lon="7.0478">
        <ele>1998</ele>
        <time>2017-05-25T11:17:18.000Z</time>
      </trkpt>
      <trkpt lat="44.12138" lon="7.04778">
        <ele>1998</ele>
        <time>2017-05-25T11:17:19.000Z</time>
      </trkpt>
      <trkpt lat="44.12132" lon="7.04776">
        <ele>1997</ele>
        <time>2017-05-25T11:17:21.000Z</time>
      </trkpt>
      <trkpt lat="44.1213" lon="7.04775">
        <ele>1997</ele>
        <time>2017-05-25T11:17:22.000Z</time>
      </trkpt>
      <trkpt lat="44.12127" lon="7.04776">
        <ele>1996</ele>
        <time>2017-05-25T11:17:23.000Z</time>
      </trkpt>
      <trkpt lat="44.12124" lon="7.04777">
        <ele>1996</ele>
        <time>2017-05-25T11:17:24.000Z</time>
      </trkpt>
      <trkpt lat="44.12118" lon="7.04779">
        <ele>1995</ele>
        <time>2017-05-25T11:17:26.000Z</time>
      </trkpt>
      <trkpt lat="44.12114" lon="7.04779">
        <ele>1995</ele>
        <time>2017-05-25T11:17:28.000Z</time>
      </trkpt>
      <trkpt lat="44.12109" lon="7.0478">
        <ele>1994</ele>
        <time>2017-05-25T11:17:31.000Z</time>
      </trkpt>
      <trkpt lat="44.12107" lon="7.0478">
        <ele>1994</ele>
        <time>2017-05-25T11:17:32.000Z</time>
      </trkpt>
      <trkpt lat="44.12104" lon="7.0478">
        <ele>1994</ele>
        <time>2017-05-25T11:17:33.000Z</time>
      </trkpt>
      <trkpt lat="44.12094" lon="7.04778">
        <ele>1992</ele>
        <time>2017-05-25T11:17:36.000Z</time>
      </trkpt>
      <trkpt lat="44.1209" lon="7.04777">
        <ele>1992</ele>
        <time>2017-05-25T11:17:37.000Z</time>
      </trkpt>
      <trkpt lat="44.12085" lon="7.04778">
        <ele>1992</ele>
        <time>2017-05-25T11:17:38.000Z</time>
      </trkpt>
      <trkpt lat="44.12079" lon="7.04778">
        <ele>1977</ele>
        <time>2017-05-25T11:17:39.000Z</time>
      </trkpt>
      <trkpt lat="44.12073" lon="7.04779">
        <ele>1977</ele>
        <time>2017-05-25T11:17:40.000Z</time>
      </trkpt>
      <trkpt lat="44.12068" lon="7.0478">
        <ele>1976</ele>
        <time>2017-05-25T11:17:41.000Z</time>
      </trkpt>
      <trkpt lat="44.12064" lon="7.04782">
        <ele>1976</ele>
        <time>2017-05-25T11:17:42.000Z</time>
      </trkpt>
      <trkpt lat="44.12057" lon="7.04786">
        <ele>1975</ele>
        <time>2017-05-25T11:17:44.000Z</time>
      </trkpt>
      <trkpt lat="44.12054" lon="7.04787">
        <ele>1974</ele>
        <time>2017-05-25T11:17:45.000Z</time>
      </trkpt>
      <trkpt lat="44.1205" lon="7.04787">
        <ele>1973</ele>
        <time>2017-05-25T11:17:47.000Z</time>
      </trkpt>
      <trkpt lat="44.12047" lon="7.04786">
        <ele>1973</ele>
        <time>2017-05-25T11:17:48.000Z</time>
      </trkpt>
      <trkpt lat="44.12044" lon="7.04786">
        <ele>1972</ele>
        <time>2017-05-25T11:17:49.000Z</time>
      </trkpt>
      <trkpt lat="44.12036" lon="7.04789">
        <ele>1971</ele>
        <time>2017-05-25T11:17:51.000Z</time>
      </trkpt>
      <trkpt lat="44.12033" lon="7.0479">
        <ele>1970</ele>
        <time>2017-05-25T11:17:52.000Z</time>
      </trkpt>
      <trkpt lat="44.12029" lon="7.04791">
        <ele>1970</ele>
        <time>2017-05-25T11:17:53.000Z</time>
      </trkpt>
      <trkpt lat="44.12026" lon="7.04792">
        <ele>1969</ele>
        <time>2017-05-25T11:17:54.000Z</time>
      </trkpt>
      <trkpt lat="44.12024" lon="7.04794">
        <ele>1969</ele>
        <time>2017-05-25T11:17:55.000Z</time>
      </trkpt>
      <trkpt lat="44.1202" lon="7.04798">
        <ele>1969</ele>
        <time>2017-05-25T11:17:57.000Z</time>
      </trkpt>
      <trkpt lat="44.12019" lon="7.04801">
        <ele>1969</ele>
        <time>2017-05-25T11:17:58.000Z</time>
      </trkpt>
      <trkpt lat="44.12018" lon="7.04808">
        <ele>1969</ele>
        <time>2017-05-25T11:18:00.000Z</time>
      </trkpt>
      <trkpt lat="44.12018" lon="7.0481">
        <ele>1969</ele>
        <time>2017-05-25T11:18:01.000Z</time>
      </trkpt>
      <trkpt lat="44.12008" lon="7.04832">
        <ele>1966</ele>
        <time>2017-05-25T11:18:07.000Z</time>
      </trkpt>
      <trkpt lat="44.12003" lon="7.04841">
        <ele>1968</ele>
        <time>2017-05-25T11:18:09.000Z</time>
      </trkpt>
      <trkpt lat="44.12" lon="7.04846">
        <ele>1969</ele>
        <time>2017-05-25T11:18:11.000Z</time>
      </trkpt>
      <trkpt lat="44.12" lon="7.04846">
        <ele>1959</ele>
        <time>2017-05-25T11:18:13.000Z</time>
      </trkpt>
      <trkpt lat="44.11999" lon="7.04847">
        <ele>1958</ele>
        <time>2017-05-25T11:18:15.000Z</time>
      </trkpt>
      <trkpt lat="44.11996" lon="7.04851">
        <ele>1957</ele>
        <time>2017-05-25T11:18:20.000Z</time>
      </trkpt>
      <trkpt lat="44.11993" lon="7.04857">
        <ele>1956</ele>
        <time>2017-05-25T11:18:25.000Z</time>
      </trkpt>
      <trkpt lat="44.11987" lon="7.04866">
        <ele>1955</ele>
        <time>2017-05-25T11:18:30.000Z</time>
      </trkpt>
      <trkpt lat="44.1198" lon="7.04874">
        <ele>1954</ele>
        <time>2017-05-25T11:18:33.000Z</time>
      </trkpt>
      <trkpt lat="44.11979" lon="7.04877">
        <ele>1954</ele>
        <time>2017-05-25T11:18:34.000Z</time>
      </trkpt>
      <trkpt lat="44.11978" lon="7.04881">
        <ele>1954</ele>
        <time>2017-05-25T11:18:35.000Z</time>
      </trkpt>
      <trkpt lat="44.11976" lon="7.04884">
        <ele>1954</ele>
        <time>2017-05-25T11:18:37.000Z</time>
      </trkpt>
      <trkpt lat="44.11972" lon="7.04886">
        <ele>1953</ele>
        <time>2017-05-25T11:18:39.000Z</time>
      </trkpt>
      <trkpt lat="44.11968" lon="7.04889">
        <ele>1953</ele>
        <time>2017-05-25T11:18:41.000Z</time>
      </trkpt>
      <trkpt lat="44.11963" lon="7.04894">
        <ele>1952</ele>
        <time>2017-05-25T11:18:43.000Z</time>
      </trkpt>
      <trkpt lat="44.11961" lon="7.04898">
        <ele>1952</ele>
        <time>2017-05-25T11:18:44.000Z</time>
      </trkpt>
      <trkpt lat="44.11959" lon="7.04901">
        <ele>1951</ele>
        <time>2017-05-25T11:18:45.000Z</time>
      </trkpt>
      <trkpt lat="44.11954" lon="7.04908">
        <ele>1951</ele>
        <time>2017-05-25T11:18:47.000Z</time>
      </trkpt>
      <trkpt lat="44.11951" lon="7.04914">
        <ele>1950</ele>
        <time>2017-05-25T11:18:49.000Z</time>
      </trkpt>
      <trkpt lat="44.11946" lon="7.04921">
        <ele>1948</ele>
        <time>2017-05-25T11:18:53.000Z</time>
      </trkpt>
      <trkpt lat="44.11945" lon="7.04922">
        <ele>1948</ele>
        <time>2017-05-25T11:18:54.000Z</time>
      </trkpt>
      <trkpt lat="44.11942" lon="7.04925">
        <ele>1947</ele>
        <time>2017-05-25T11:18:56.000Z</time>
      </trkpt>
      <trkpt lat="44.11939" lon="7.04927">
        <ele>1947</ele>
        <time>2017-05-25T11:18:58.000Z</time>
      </trkpt>
      <trkpt lat="44.11938" lon="7.04929">
        <ele>1946</ele>
        <time>2017-05-25T11:19:00.000Z</time>
      </trkpt>
      <trkpt lat="44.11936" lon="7.04932">
        <ele>1946</ele>
        <time>2017-05-25T11:19:01.000Z</time>
      </trkpt>
      <trkpt lat="44.11935" lon="7.04935">
        <ele>1946</ele>
        <time>2017-05-25T11:19:02.000Z</time>
      </trkpt>
      <trkpt lat="44.11933" lon="7.04939">
        <ele>1946</ele>
        <time>2017-05-25T11:19:03.000Z</time>
      </trkpt>
      <trkpt lat="44.11928" lon="7.04944">
        <ele>1945</ele>
        <time>2017-05-25T11:19:05.000Z</time>
      </trkpt>
      <trkpt lat="44.11924" lon="7.0495">
        <ele>1945</ele>
        <time>2017-05-25T11:19:07.000Z</time>
      </trkpt>
      <trkpt lat="44.11915" lon="7.04955">
        <ele>1931</ele>
        <time>2017-05-25T11:19:09.000Z</time>
      </trkpt>
      <trkpt lat="44.11904" lon="7.04958">
        <ele>1930</ele>
        <time>2017-05-25T11:19:11.000Z</time>
      </trkpt>
      <trkpt lat="44.11891" lon="7.04962">
        <ele>1929</ele>
        <time>2017-05-25T11:19:13.000Z</time>
      </trkpt>
      <trkpt lat="44.1188" lon="7.04967">
        <ele>1928</ele>
        <time>2017-05-25T11:19:15.000Z</time>
      </trkpt>
      <trkpt lat="44.1187" lon="7.04971">
        <ele>1927</ele>
        <time>2017-05-25T11:19:17.000Z</time>
      </trkpt>
      <trkpt lat="44.11866" lon="7.04974">
        <ele>1926</ele>
        <time>2017-05-25T11:19:18.000Z</time>
      </trkpt>
      <trkpt lat="44.11861" lon="7.04978">
        <ele>1926</ele>
        <time>2017-05-25T11:19:19.000Z</time>
      </trkpt>
      <trkpt lat="44.11852" lon="7.04985">
        <ele>1925</ele>
        <time>2017-05-25T11:19:21.000Z</time>
      </trkpt>
      <trkpt lat="44.11847" lon="7.0499">
        <ele>1925</ele>
        <time>2017-05-25T11:19:22.000Z</time>
      </trkpt>
      <trkpt lat="44.1184" lon="7.04994">
        <ele>1924</ele>
        <time>2017-05-25T11:19:23.000Z</time>
      </trkpt>
      <trkpt lat="44.11835" lon="7.04998">
        <ele>1923</ele>
        <time>2017-05-25T11:19:24.000Z</time>
      </trkpt>
      <trkpt lat="44.1183" lon="7.05002">
        <ele>1920</ele>
        <time>2017-05-25T11:19:25.000Z</time>
      </trkpt>
      <trkpt lat="44.11814" lon="7.05018">
        <ele>1912</ele>
        <time>2017-05-25T11:19:28.000Z</time>
      </trkpt>
      <trkpt lat="44.11806" lon="7.05026">
        <ele>1910</ele>
        <time>2017-05-25T11:19:30.000Z</time>
      </trkpt>
      <trkpt lat="44.11802" lon="7.05033">
        <ele>1908</ele>
        <time>2017-05-25T11:19:32.000Z</time>
      </trkpt>
      <trkpt lat="44.11798" lon="7.05041">
        <ele>1908</ele>
        <time>2017-05-25T11:19:34.000Z</time>
      </trkpt>
      <trkpt lat="44.11796" lon="7.05044">
        <ele>1907</ele>
        <time>2017-05-25T11:19:35.000Z</time>
      </trkpt>
      <trkpt lat="44.11793" lon="7.05048">
        <ele>1907</ele>
        <time>2017-05-25T11:19:37.000Z</time>
      </trkpt>
      <trkpt lat="44.11791" lon="7.0505">
        <ele>1907</ele>
        <time>2017-05-25T11:19:38.000Z</time>
      </trkpt>
      <trkpt lat="44.11789" lon="7.05052">
        <ele>1907</ele>
        <time>2017-05-25T11:19:39.000Z</time>
      </trkpt>
      <trkpt lat="44.11778" lon="7.0506">
        <ele>1907</ele>
        <time>2017-05-25T11:19:43.000Z</time>
      </trkpt>
      <trkpt lat="44.11776" lon="7.05062">
        <ele>1907</ele>
        <time>2017-05-25T11:19:44.000Z</time>
      </trkpt>
      <trkpt lat="44.11772" lon="7.05066">
        <ele>1907</ele>
        <time>2017-05-25T11:19:45.000Z</time>
      </trkpt>
      <trkpt lat="44.11763" lon="7.0507">
        <ele>1907</ele>
        <time>2017-05-25T11:19:47.000Z</time>
      </trkpt>
      <trkpt lat="44.11751" lon="7.05084">
        <ele>1907</ele>
        <time>2017-05-25T11:19:50.000Z</time>
      </trkpt>
      <trkpt lat="44.11748" lon="7.05089">
        <ele>1905</ele>
        <time>2017-05-25T11:19:51.000Z</time>
      </trkpt>
      <trkpt lat="44.11745" lon="7.05093">
        <ele>1902</ele>
        <time>2017-05-25T11:19:52.000Z</time>
      </trkpt>
      <trkpt lat="44.11739" lon="7.051">
        <ele>1899</ele>
        <time>2017-05-25T11:19:54.000Z</time>
      </trkpt>
      <trkpt lat="44.11734" lon="7.0511">
        <ele>1897</ele>
        <time>2017-05-25T11:19:56.000Z</time>
      </trkpt>
      <trkpt lat="44.11732" lon="7.05116">
        <ele>1896</ele>
        <time>2017-05-25T11:19:57.000Z</time>
      </trkpt>
      <trkpt lat="44.1173" lon="7.05121">
        <ele>1895</ele>
        <time>2017-05-25T11:19:58.000Z</time>
      </trkpt>
      <trkpt lat="44.11725" lon="7.05137">
        <ele>1893</ele>
        <time>2017-05-25T11:20:01.000Z</time>
      </trkpt>
      <trkpt lat="44.11718" lon="7.05153">
        <ele>1893</ele>
        <time>2017-05-25T11:20:04.000Z</time>
      </trkpt>
      <trkpt lat="44.11716" lon="7.05158">
        <ele>1892</ele>
        <time>2017-05-25T11:20:05.000Z</time>
      </trkpt>
      <trkpt lat="44.11712" lon="7.05168">
        <ele>1882</ele>
        <time>2017-05-25T11:20:07.000Z</time>
      </trkpt>
      <trkpt lat="44.11708" lon="7.05177">
        <ele>1882</ele>
        <time>2017-05-25T11:20:09.000Z</time>
      </trkpt>
      <trkpt lat="44.11705" lon="7.05178">
        <ele>1882</ele>
        <time>2017-05-25T11:20:10.000Z</time>
      </trkpt>
      <trkpt lat="44.117" lon="7.05182">
        <ele>1882</ele>
        <time>2017-05-25T11:20:12.000Z</time>
      </trkpt>
      <trkpt lat="44.11694" lon="7.05193">
        <ele>1881</ele>
        <time>2017-05-25T11:20:14.000Z</time>
      </trkpt>
      <trkpt lat="44.1169" lon="7.05203">
        <ele>1880</ele>
        <time>2017-05-25T11:20:16.000Z</time>
      </trkpt>
      <trkpt lat="44.11687" lon="7.05208">
        <ele>1879</ele>
        <time>2017-05-25T11:20:17.000Z</time>
      </trkpt>
      <trkpt lat="44.11684" lon="7.05212">
        <ele>1879</ele>
        <time>2017-05-25T11:20:18.000Z</time>
      </trkpt>
      <trkpt lat="44.11677" lon="7.05218">
        <ele>1879</ele>
        <time>2017-05-25T11:20:20.000Z</time>
      </trkpt>
      <trkpt lat="44.11673" lon="7.0522">
        <ele>1879</ele>
        <time>2017-05-25T11:20:21.000Z</time>
      </trkpt>
      <trkpt lat="44.1167" lon="7.05223">
        <ele>1879</ele>
        <time>2017-05-25T11:20:22.000Z</time>
      </trkpt>
      <trkpt lat="44.11664" lon="7.05228">
        <ele>1878</ele>
        <time>2017-05-25T11:20:24.000Z</time>
      </trkpt>
      <trkpt lat="44.11654" lon="7.0524">
        <ele>1878</ele>
        <time>2017-05-25T11:20:28.000Z</time>
      </trkpt>
      <trkpt lat="44.11652" lon="7.05244">
        <ele>1878</ele>
        <time>2017-05-25T11:20:33.000Z</time>
      </trkpt>
      <trkpt lat="44.11651" lon="7.05245">
        <ele>1877</ele>
        <time>2017-05-25T11:20:34.000Z</time>
      </trkpt>
      <trkpt lat="44.11647" lon="7.05253">
        <ele>1871</ele>
        <time>2017-05-25T11:20:39.000Z</time>
      </trkpt>
      <trkpt lat="44.11645" lon="7.05256">
        <ele>1870</ele>
        <time>2017-05-25T11:20:40.000Z</time>
      </trkpt>
      <trkpt lat="44.11638" lon="7.05263">
        <ele>1867</ele>
        <time>2017-05-25T11:20:42.000Z</time>
      </trkpt>
      <trkpt lat="44.11633" lon="7.05266">
        <ele>1866</ele>
        <time>2017-05-25T11:20:43.000Z</time>
      </trkpt>
      <trkpt lat="44.1163" lon="7.05268">
        <ele>1866</ele>
        <time>2017-05-25T11:20:44.000Z</time>
      </trkpt>
      <trkpt lat="44.11623" lon="7.05271">
        <ele>1865</ele>
        <time>2017-05-25T11:20:46.000Z</time>
      </trkpt>
      <trkpt lat="44.11619" lon="7.05275">
        <ele>1865</ele>
        <time>2017-05-25T11:20:48.000Z</time>
      </trkpt>
      <trkpt lat="44.11611" lon="7.0528">
        <ele>1864</ele>
        <time>2017-05-25T11:20:52.000Z</time>
      </trkpt>
      <trkpt lat="44.11611" lon="7.0528">
        <ele>1864</ele>
        <time>2017-05-25T11:20:56.000Z</time>
      </trkpt>
      <trkpt lat="44.1161" lon="7.05281">
        <ele>1864</ele>
        <time>2017-05-25T11:21:07.000Z</time>
      </trkpt>
      <trkpt lat="44.11609" lon="7.05282">
        <ele>1864</ele>
        <time>2017-05-25T11:21:09.000Z</time>
      </trkpt>
      <trkpt lat="44.11604" lon="7.0529">
        <ele>1863</ele>
        <time>2017-05-25T11:21:12.000Z</time>
      </trkpt>
      <trkpt lat="44.11598" lon="7.05301">
        <ele>1863</ele>
        <time>2017-05-25T11:21:14.000Z</time>
      </trkpt>
      <trkpt lat="44.11594" lon="7.05306">
        <ele>1863</ele>
        <time>2017-05-25T11:21:15.000Z</time>
      </trkpt>
      <trkpt lat="44.11591" lon="7.0531">
        <ele>1863</ele>
        <time>2017-05-25T11:21:16.000Z</time>
      </trkpt>
      <trkpt lat="44.11585" lon="7.05316">
        <ele>1863</ele>
        <time>2017-05-25T11:21:18.000Z</time>
      </trkpt>
      <trkpt lat="44.11582" lon="7.05321">
        <ele>1858</ele>
        <time>2017-05-25T11:21:20.000Z</time>
      </trkpt>
      <trkpt lat="44.1158" lon="7.05328">
        <ele>1861</ele>
        <time>2017-05-25T11:21:23.000Z</time>
      </trkpt>
      <trkpt lat="44.11579" lon="7.05329">
        <ele>1861</ele>
        <time>2017-05-25T11:21:24.000Z</time>
      </trkpt>
      <trkpt lat="44.11579" lon="7.05331">
        <ele>1861</ele>
        <time>2017-05-25T11:21:25.000Z</time>
      </trkpt>
      <trkpt lat="44.11577" lon="7.05335">
        <ele>1858</ele>
        <time>2017-05-25T11:21:27.000Z</time>
      </trkpt>
      <trkpt lat="44.11574" lon="7.05341">
        <ele>1855</ele>
        <time>2017-05-25T11:21:29.000Z</time>
      </trkpt>
      <trkpt lat="44.11566" lon="7.0535">
        <ele>1849</ele>
        <time>2017-05-25T11:21:32.000Z</time>
      </trkpt>
      <trkpt lat="44.11563" lon="7.05353">
        <ele>1848</ele>
        <time>2017-05-25T11:21:33.000Z</time>
      </trkpt>
      <trkpt lat="44.1156" lon="7.05355">
        <ele>1847</ele>
        <time>2017-05-25T11:21:34.000Z</time>
      </trkpt>
      <trkpt lat="44.11555" lon="7.05356">
        <ele>1846</ele>
        <time>2017-05-25T11:21:36.000Z</time>
      </trkpt>
      <trkpt lat="44.11552" lon="7.05356">
        <ele>1845</ele>
        <time>2017-05-25T11:21:37.000Z</time>
      </trkpt>
      <trkpt lat="44.11549" lon="7.05357">
        <ele>1845</ele>
        <time>2017-05-25T11:21:38.000Z</time>
      </trkpt>
      <trkpt lat="44.11545" lon="7.05359">
        <ele>1844</ele>
        <time>2017-05-25T11:21:40.000Z</time>
      </trkpt>
      <trkpt lat="44.11539" lon="7.05363">
        <ele>1843</ele>
        <time>2017-05-25T11:21:42.000Z</time>
      </trkpt>
      <trkpt lat="44.11532" lon="7.05368">
        <ele>1842</ele>
        <time>2017-05-25T11:21:44.000Z</time>
      </trkpt>
      <trkpt lat="44.11528" lon="7.0537">
        <ele>1841</ele>
        <time>2017-05-25T11:21:45.000Z</time>
      </trkpt>
      <trkpt lat="44.11524" lon="7.05373">
        <ele>1841</ele>
        <time>2017-05-25T11:21:46.000Z</time>
      </trkpt>
      <trkpt lat="44.11521" lon="7.05376">
        <ele>1841</ele>
        <time>2017-05-25T11:21:47.000Z</time>
      </trkpt>
      <trkpt lat="44.11518" lon="7.0538">
        <ele>1840</ele>
        <time>2017-05-25T11:21:48.000Z</time>
      </trkpt>
      <trkpt lat="44.11512" lon="7.05382">
        <ele>1840</ele>
        <time>2017-05-25T11:21:50.000Z</time>
      </trkpt>
      <trkpt lat="44.11511" lon="7.05381">
        <ele>1840</ele>
        <time>2017-05-25T11:21:51.000Z</time>
      </trkpt>
      <trkpt lat="44.1151" lon="7.0538">
        <ele>1840</ele>
        <time>2017-05-25T11:21:52.000Z</time>
      </trkpt>
      <trkpt lat="44.11508" lon="7.05379">
        <ele>1840</ele>
        <time>2017-05-25T11:21:54.000Z</time>
      </trkpt>
      <trkpt lat="44.11507" lon="7.05378">
        <ele>1840</ele>
        <time>2017-05-25T11:21:55.000Z</time>
      </trkpt>
      <trkpt lat="44.11506" lon="7.05376">
        <ele>1840</ele>
        <time>2017-05-25T11:21:56.000Z</time>
      </trkpt>
      <trkpt lat="44.11504" lon="7.05376">
        <ele>1840</ele>
        <time>2017-05-25T11:21:57.000Z</time>
      </trkpt>
      <trkpt lat="44.11502" lon="7.05376">
        <ele>1840</ele>
        <time>2017-05-25T11:21:59.000Z</time>
      </trkpt>
      <trkpt lat="44.11499" lon="7.05377">
        <ele>1828</ele>
        <time>2017-05-25T11:22:01.000Z</time>
      </trkpt>
      <trkpt lat="44.11495" lon="7.05384">
        <ele>1828</ele>
        <time>2017-05-25T11:22:04.000Z</time>
      </trkpt>
      <trkpt lat="44.11493" lon="7.05387">
        <ele>1828</ele>
        <time>2017-05-25T11:22:05.000Z</time>
      </trkpt>
      <trkpt lat="44.11491" lon="7.05391">
        <ele>1828</ele>
        <time>2017-05-25T11:22:07.000Z</time>
      </trkpt>
      <trkpt lat="44.11487" lon="7.05398">
        <ele>1828</ele>
        <time>2017-05-25T11:22:09.000Z</time>
      </trkpt>
      <trkpt lat="44.11485" lon="7.054">
        <ele>1828</ele>
        <time>2017-05-25T11:22:10.000Z</time>
      </trkpt>
      <trkpt lat="44.11483" lon="7.05402">
        <ele>1828</ele>
        <time>2017-05-25T11:22:11.000Z</time>
      </trkpt>
      <trkpt lat="44.11481" lon="7.05402">
        <ele>1828</ele>
        <time>2017-05-25T11:22:12.000Z</time>
      </trkpt>
      <trkpt lat="44.11477" lon="7.05401">
        <ele>1827</ele>
        <time>2017-05-25T11:22:13.000Z</time>
      </trkpt>
      <trkpt lat="44.11475" lon="7.054">
        <ele>1826</ele>
        <time>2017-05-25T11:22:14.000Z</time>
      </trkpt>
      <trkpt lat="44.11472" lon="7.054">
        <ele>1826</ele>
        <time>2017-05-25T11:22:15.000Z</time>
      </trkpt>
      <trkpt lat="44.1147" lon="7.054">
        <ele>1825</ele>
        <time>2017-05-25T11:22:16.000Z</time>
      </trkpt>
      <trkpt lat="44.11468" lon="7.05401">
        <ele>1825</ele>
        <time>2017-05-25T11:22:17.000Z</time>
      </trkpt>
      <trkpt lat="44.11467" lon="7.05403">
        <ele>1825</ele>
        <time>2017-05-25T11:22:18.000Z</time>
      </trkpt>
      <trkpt lat="44.11466" lon="7.05405">
        <ele>1825</ele>
        <time>2017-05-25T11:22:19.000Z</time>
      </trkpt>
      <trkpt lat="44.11463" lon="7.05409">
        <ele>1824</ele>
        <time>2017-05-25T11:22:23.000Z</time>
      </trkpt>
      <trkpt lat="44.11462" lon="7.0541">
        <ele>1824</ele>
        <time>2017-05-25T11:22:24.000Z</time>
      </trkpt>
      <trkpt lat="44.11462" lon="7.0541">
        <ele>1824</ele>
        <time>2017-05-25T11:22:27.000Z</time>
      </trkpt>
      <trkpt lat="44.1146" lon="7.05412">
        <ele>1824</ele>
        <time>2017-05-25T11:22:32.000Z</time>
      </trkpt>
      <trkpt lat="44.11459" lon="7.05413">
        <ele>1824</ele>
        <time>2017-05-25T11:22:36.000Z</time>
      </trkpt>
      <trkpt lat="44.11459" lon="7.05413">
        <ele>1824</ele>
        <time>2017-05-25T11:22:39.000Z</time>
      </trkpt>
      <trkpt lat="44.11452" lon="7.05418">
        <ele>1819</ele>
        <time>2017-05-25T11:22:45.000Z</time>
      </trkpt>
      <trkpt lat="44.11449" lon="7.05421">
        <ele>1819</ele>
        <time>2017-05-25T11:22:48.000Z</time>
      </trkpt>
      <trkpt lat="44.11446" lon="7.0542">
        <ele>1819</ele>
        <time>2017-05-25T11:22:50.000Z</time>
      </trkpt>
      <trkpt lat="44.11443" lon="7.05421">
        <ele>1818</ele>
        <time>2017-05-25T11:22:52.000Z</time>
      </trkpt>
      <trkpt lat="44.11443" lon="7.05422">
        <ele>1818</ele>
        <time>2017-05-25T11:22:54.000Z</time>
      </trkpt>
      <trkpt lat="44.11443" lon="7.05423">
        <ele>1818</ele>
        <time>2017-05-25T11:22:56.000Z</time>
      </trkpt>
      <trkpt lat="44.11441" lon="7.05425">
        <ele>1818</ele>
        <time>2017-05-25T11:23:02.000Z</time>
      </trkpt>
      <trkpt lat="44.11437" lon="7.05429">
        <ele>1818</ele>
        <time>2017-05-25T11:23:05.000Z</time>
      </trkpt>
      <trkpt lat="44.11436" lon="7.05431">
        <ele>1818</ele>
        <time>2017-05-25T11:23:06.000Z</time>
      </trkpt>
      <trkpt lat="44.11434" lon="7.05433">
        <ele>1817</ele>
        <time>2017-05-25T11:23:07.000Z</time>
      </trkpt>
      <trkpt lat="44.11431" lon="7.05441">
        <ele>1817</ele>
        <time>2017-05-25T11:23:09.000Z</time>
      </trkpt>
      <trkpt lat="44.11426" lon="7.05445">
        <ele>1816</ele>
        <time>2017-05-25T11:23:11.000Z</time>
      </trkpt>
      <trkpt lat="44.11423" lon="7.05446">
        <ele>1816</ele>
        <time>2017-05-25T11:23:12.000Z</time>
      </trkpt>
      <trkpt lat="44.11419" lon="7.05449">
        <ele>1816</ele>
        <time>2017-05-25T11:23:13.000Z</time>
      </trkpt>
      <trkpt lat="44.11415" lon="7.05456">
        <ele>1807</ele>
        <time>2017-05-25T11:23:15.000Z</time>
      </trkpt>
      <trkpt lat="44.11413" lon="7.0546">
        <ele>1807</ele>
        <time>2017-05-25T11:23:16.000Z</time>
      </trkpt>
      <trkpt lat="44.11412" lon="7.05465">
        <ele>1806</ele>
        <time>2017-05-25T11:23:17.000Z</time>
      </trkpt>
      <trkpt lat="44.11408" lon="7.05471">
        <ele>1806</ele>
        <time>2017-05-25T11:23:18.000Z</time>
      </trkpt>
      <trkpt lat="44.11404" lon="7.05478">
        <ele>1806</ele>
        <time>2017-05-25T11:23:19.000Z</time>
      </trkpt>
      <trkpt lat="44.114" lon="7.05483">
        <ele>1806</ele>
        <time>2017-05-25T11:23:20.000Z</time>
      </trkpt>
      <trkpt lat="44.11391" lon="7.05494">
        <ele>1806</ele>
        <time>2017-05-25T11:23:22.000Z</time>
      </trkpt>
      <trkpt lat="44.11388" lon="7.05498">
        <ele>1805</ele>
        <time>2017-05-25T11:23:23.000Z</time>
      </trkpt>
      <trkpt lat="44.11385" lon="7.05501">
        <ele>1801</ele>
        <time>2017-05-25T11:23:24.000Z</time>
      </trkpt>
      <trkpt lat="44.11383" lon="7.05505">
        <ele>1801</ele>
        <time>2017-05-25T11:23:25.000Z</time>
      </trkpt>
      <trkpt lat="44.11379" lon="7.05513">
        <ele>1800</ele>
        <time>2017-05-25T11:23:27.000Z</time>
      </trkpt>
      <trkpt lat="44.1137" lon="7.05525">
        <ele>1798</ele>
        <time>2017-05-25T11:23:30.000Z</time>
      </trkpt>
      <trkpt lat="44.11367" lon="7.05528">
        <ele>1798</ele>
        <time>2017-05-25T11:23:31.000Z</time>
      </trkpt>
      <trkpt lat="44.11364" lon="7.05531">
        <ele>1798</ele>
        <time>2017-05-25T11:23:32.000Z</time>
      </trkpt>
      <trkpt lat="44.11359" lon="7.05538">
        <ele>1797</ele>
        <time>2017-05-25T11:23:34.000Z</time>
      </trkpt>
      <trkpt lat="44.11355" lon="7.05541">
        <ele>1797</ele>
        <time>2017-05-25T11:23:35.000Z</time>
      </trkpt>
      <trkpt lat="44.11342" lon="7.05551">
        <ele>1796</ele>
        <time>2017-05-25T11:23:38.000Z</time>
      </trkpt>
      <trkpt lat="44.11339" lon="7.05556">
        <ele>1796</ele>
        <time>2017-05-25T11:23:39.000Z</time>
      </trkpt>
      <trkpt lat="44.11333" lon="7.05569">
        <ele>1794</ele>
        <time>2017-05-25T11:23:42.000Z</time>
      </trkpt>
      <trkpt lat="44.11329" lon="7.05568">
        <ele>1794</ele>
        <time>2017-05-25T11:23:44.000Z</time>
      </trkpt>
      <trkpt lat="44.11328" lon="7.05569">
        <ele>1794</ele>
        <time>2017-05-25T11:23:45.000Z</time>
      </trkpt>
      <trkpt lat="44.11326" lon="7.05573">
        <ele>1794</ele>
        <time>2017-05-25T11:23:48.000Z</time>
      </trkpt>
      <trkpt lat="44.11324" lon="7.05574">
        <ele>1794</ele>
        <time>2017-05-25T11:23:49.000Z</time>
      </trkpt>
      <trkpt lat="44.1132" lon="7.05575">
        <ele>1793</ele>
        <time>2017-05-25T11:23:51.000Z</time>
      </trkpt>
      <trkpt lat="44.11319" lon="7.05576">
        <ele>1793</ele>
        <time>2017-05-25T11:23:52.000Z</time>
      </trkpt>
      <trkpt lat="44.11315" lon="7.05582">
        <ele>1793</ele>
        <time>2017-05-25T11:23:54.000Z</time>
      </trkpt>
      <trkpt lat="44.11313" lon="7.05584">
        <ele>1789</ele>
        <time>2017-05-25T11:23:55.000Z</time>
      </trkpt>
      <trkpt lat="44.11305" lon="7.05593">
        <ele>1788</ele>
        <time>2017-05-25T11:23:58.000Z</time>
      </trkpt>
      <trkpt lat="44.11302" lon="7.05596">
        <ele>1788</ele>
        <time>2017-05-25T11:23:59.000Z</time>
      </trkpt>
      <trkpt lat="44.11298" lon="7.05599">
        <ele>1787</ele>
        <time>2017-05-25T11:24:00.000Z</time>
      </trkpt>
      <trkpt lat="44.11291" lon="7.05605">
        <ele>1787</ele>
        <time>2017-05-25T11:24:02.000Z</time>
      </trkpt>
      <trkpt lat="44.11287" lon="7.05608">
        <ele>1787</ele>
        <time>2017-05-25T11:24:03.000Z</time>
      </trkpt>
      <trkpt lat="44.11283" lon="7.05611">
        <ele>1787</ele>
        <time>2017-05-25T11:24:04.000Z</time>
      </trkpt>
      <trkpt lat="44.11279" lon="7.05615">
        <ele>1787</ele>
        <time>2017-05-25T11:24:06.000Z</time>
      </trkpt>
      <trkpt lat="44.11279" lon="7.05618">
        <ele>1786</ele>
        <time>2017-05-25T11:24:07.000Z</time>
      </trkpt>
      <trkpt lat="44.11277" lon="7.05621">
        <ele>1786</ele>
        <time>2017-05-25T11:24:08.000Z</time>
      </trkpt>
      <trkpt lat="44.1127" lon="7.05628">
        <ele>1786</ele>
        <time>2017-05-25T11:24:11.000Z</time>
      </trkpt>
      <trkpt lat="44.11268" lon="7.0563">
        <ele>1786</ele>
        <time>2017-05-25T11:24:14.000Z</time>
      </trkpt>
      <trkpt lat="44.11266" lon="7.05634">
        <ele>1786</ele>
        <time>2017-05-25T11:24:31.000Z</time>
      </trkpt>
      <trkpt lat="44.11261" lon="7.0564">
        <ele>1786</ele>
        <time>2017-05-25T11:24:37.000Z</time>
      </trkpt>
      <trkpt lat="44.11257" lon="7.05653">
        <ele>1787</ele>
        <time>2017-05-25T11:24:41.000Z</time>
      </trkpt>
      <trkpt lat="44.11257" lon="7.05659">
        <ele>1787</ele>
        <time>2017-05-25T11:24:43.000Z</time>
      </trkpt>
      <trkpt lat="44.11256" lon="7.05661">
        <ele>1788</ele>
        <time>2017-05-25T11:24:44.000Z</time>
      </trkpt>
      <trkpt lat="44.11256" lon="7.05664">
        <ele>1788</ele>
        <time>2017-05-25T11:24:46.000Z</time>
      </trkpt>
      <trkpt lat="44.11258" lon="7.05665">
        <ele>1788</ele>
        <time>2017-05-25T11:24:47.000Z</time>
      </trkpt>
      <trkpt lat="44.11259" lon="7.05668">
        <ele>1781</ele>
        <time>2017-05-25T11:24:48.000Z</time>
      </trkpt>
      <trkpt lat="44.11256" lon="7.05676">
        <ele>1779</ele>
        <time>2017-05-25T11:24:50.000Z</time>
      </trkpt>
      <trkpt lat="44.11254" lon="7.05681">
        <ele>1777</ele>
        <time>2017-05-25T11:24:51.000Z</time>
      </trkpt>
      <trkpt lat="44.11251" lon="7.05688">
        <ele>1774</ele>
        <time>2017-05-25T11:24:52.000Z</time>
      </trkpt>
      <trkpt lat="44.11242" lon="7.05699">
        <ele>1783</ele>
        <time>2017-05-25T11:24:54.000Z</time>
      </trkpt>
      <trkpt lat="44.11237" lon="7.05707">
        <ele>1782</ele>
        <time>2017-05-25T11:24:56.000Z</time>
      </trkpt>
      <trkpt lat="44.11234" lon="7.05715">
        <ele>1781</ele>
        <time>2017-05-25T11:24:58.000Z</time>
      </trkpt>
      <trkpt lat="44.11226" lon="7.05731">
        <ele>1779</ele>
        <time>2017-05-25T11:25:02.000Z</time>
      </trkpt>
      <trkpt lat="44.11226" lon="7.05734">
        <ele>1778</ele>
        <time>2017-05-25T11:25:03.000Z</time>
      </trkpt>
      <trkpt lat="44.11223" lon="7.05742">
        <ele>1778</ele>
        <time>2017-05-25T11:25:05.000Z</time>
      </trkpt>
      <trkpt lat="44.11218" lon="7.05749">
        <ele>1779</ele>
        <time>2017-05-25T11:25:07.000Z</time>
      </trkpt>
      <trkpt lat="44.11216" lon="7.05752">
        <ele>1765</ele>
        <time>2017-05-25T11:25:08.000Z</time>
      </trkpt>
      <trkpt lat="44.11213" lon="7.05757">
        <ele>1765</ele>
        <time>2017-05-25T11:25:10.000Z</time>
      </trkpt>
      <trkpt lat="44.11212" lon="7.05762">
        <ele>1765</ele>
        <time>2017-05-25T11:25:12.000Z</time>
      </trkpt>
      <trkpt lat="44.1121" lon="7.05765">
        <ele>1765</ele>
        <time>2017-05-25T11:25:13.000Z</time>
      </trkpt>
      <trkpt lat="44.11209" lon="7.05767">
        <ele>1765</ele>
        <time>2017-05-25T11:25:14.000Z</time>
      </trkpt>
      <trkpt lat="44.11209" lon="7.0577">
        <ele>1765</ele>
        <time>2017-05-25T11:25:15.000Z</time>
      </trkpt>
      <trkpt lat="44.11208" lon="7.05773">
        <ele>1764</ele>
        <time>2017-05-25T11:25:16.000Z</time>
      </trkpt>
      <trkpt lat="44.11207" lon="7.05776">
        <ele>1764</ele>
        <time>2017-05-25T11:25:17.000Z</time>
      </trkpt>
      <trkpt lat="44.11205" lon="7.05783">
        <ele>1763</ele>
        <time>2017-05-25T11:25:19.000Z</time>
      </trkpt>
      <trkpt lat="44.11205" lon="7.05788">
        <ele>1762</ele>
        <time>2017-05-25T11:25:20.000Z</time>
      </trkpt>
      <trkpt lat="44.11201" lon="7.05794">
        <ele>1762</ele>
        <time>2017-05-25T11:25:21.000Z</time>
      </trkpt>
      <trkpt lat="44.11198" lon="7.05799">
        <ele>1762</ele>
        <time>2017-05-25T11:25:22.000Z</time>
      </trkpt>
      <trkpt lat="44.11188" lon="7.05813">
        <ele>1761</ele>
        <time>2017-05-25T11:25:24.000Z</time>
      </trkpt>
      <trkpt lat="44.11183" lon="7.05819">
        <ele>1761</ele>
        <time>2017-05-25T11:25:25.000Z</time>
      </trkpt>
      <trkpt lat="44.11178" lon="7.05823">
        <ele>1761</ele>
        <time>2017-05-25T11:25:26.000Z</time>
      </trkpt>
      <trkpt lat="44.11175" lon="7.05826">
        <ele>1761</ele>
        <time>2017-05-25T11:25:27.000Z</time>
      </trkpt>
      <trkpt lat="44.11171" lon="7.05831">
        <ele>1761</ele>
        <time>2017-05-25T11:25:28.000Z</time>
      </trkpt>
      <trkpt lat="44.11168" lon="7.05836">
        <ele>1758</ele>
        <time>2017-05-25T11:25:29.000Z</time>
      </trkpt>
      <trkpt lat="44.1116" lon="7.05845">
        <ele>1762</ele>
        <time>2017-05-25T11:25:31.000Z</time>
      </trkpt>
      <trkpt lat="44.11151" lon="7.05853">
        <ele>1762</ele>
        <time>2017-05-25T11:25:33.000Z</time>
      </trkpt>
      <trkpt lat="44.11147" lon="7.05858">
        <ele>1762</ele>
        <time>2017-05-25T11:25:34.000Z</time>
      </trkpt>
      <trkpt lat="44.11144" lon="7.05866">
        <ele>1762</ele>
        <time>2017-05-25T11:25:35.000Z</time>
      </trkpt>
      <trkpt lat="44.11141" lon="7.05873">
        <ele>1761</ele>
        <time>2017-05-25T11:25:36.000Z</time>
      </trkpt>
      <trkpt lat="44.11136" lon="7.05885">
        <ele>1760</ele>
        <time>2017-05-25T11:25:38.000Z</time>
      </trkpt>
      <trkpt lat="44.11132" lon="7.05891">
        <ele>1760</ele>
        <time>2017-05-25T11:25:39.000Z</time>
      </trkpt>
      <trkpt lat="44.11129" lon="7.05898">
        <ele>1759</ele>
        <time>2017-05-25T11:25:40.000Z</time>
      </trkpt>
      <trkpt lat="44.11126" lon="7.05905">
        <ele>1759</ele>
        <time>2017-05-25T11:25:41.000Z</time>
      </trkpt>
      <trkpt lat="44.11123" lon="7.05913">
        <ele>1759</ele>
        <time>2017-05-25T11:25:42.000Z</time>
      </trkpt>
      <trkpt lat="44.11118" lon="7.05921">
        <ele>1746</ele>
        <time>2017-05-25T11:25:43.000Z</time>
      </trkpt>
      <trkpt lat="44.11115" lon="7.05929">
        <ele>1746</ele>
        <time>2017-05-25T11:25:44.000Z</time>
      </trkpt>
      <trkpt lat="44.11111" lon="7.05937">
        <ele>1746</ele>
        <time>2017-05-25T11:25:45.000Z</time>
      </trkpt>
      <trkpt lat="44.11106" lon="7.05952">
        <ele>1744</ele>
        <time>2017-05-25T11:25:47.000Z</time>
      </trkpt>
      <trkpt lat="44.11102" lon="7.05961">
        <ele>1743</ele>
        <time>2017-05-25T11:25:48.000Z</time>
      </trkpt>
      <trkpt lat="44.11095" lon="7.05976">
        <ele>1742</ele>
        <time>2017-05-25T11:25:50.000Z</time>
      </trkpt>
      <trkpt lat="44.11091" lon="7.05985">
        <ele>1742</ele>
        <time>2017-05-25T11:25:51.000Z</time>
      </trkpt>
      <trkpt lat="44.11082" lon="7.06001">
        <ele>1743</ele>
        <time>2017-05-25T11:25:53.000Z</time>
      </trkpt>
      <trkpt lat="44.11072" lon="7.06018">
        <ele>1745</ele>
        <time>2017-05-25T11:25:55.000Z</time>
      </trkpt>
      <trkpt lat="44.11069" lon="7.06026">
        <ele>1744</ele>
        <time>2017-05-25T11:25:56.000Z</time>
      </trkpt>
      <trkpt lat="44.11067" lon="7.06034">
        <ele>1744</ele>
        <time>2017-05-25T11:25:57.000Z</time>
      </trkpt>
      <trkpt lat="44.11064" lon="7.06043">
        <ele>1743</ele>
        <time>2017-05-25T11:25:58.000Z</time>
      </trkpt>
      <trkpt lat="44.11062" lon="7.06052">
        <ele>1742</ele>
        <time>2017-05-25T11:25:59.000Z</time>
      </trkpt>
      <trkpt lat="44.1106" lon="7.06062">
        <ele>1741</ele>
        <time>2017-05-25T11:26:00.000Z</time>
      </trkpt>
      <trkpt lat="44.11057" lon="7.0607">
        <ele>1740</ele>
        <time>2017-05-25T11:26:01.000Z</time>
      </trkpt>
      <trkpt lat="44.11054" lon="7.06078">
        <ele>1740</ele>
        <time>2017-05-25T11:26:02.000Z</time>
      </trkpt>
      <trkpt lat="44.11046" lon="7.06095">
        <ele>1729</ele>
        <time>2017-05-25T11:26:04.000Z</time>
      </trkpt>
      <trkpt lat="44.11033" lon="7.06118">
        <ele>1729</ele>
        <time>2017-05-25T11:26:07.000Z</time>
      </trkpt>
      <trkpt lat="44.11023" lon="7.06132">
        <ele>1729</ele>
        <time>2017-05-25T11:26:09.000Z</time>
      </trkpt>
      <trkpt lat="44.11019" lon="7.06139">
        <ele>1728</ele>
        <time>2017-05-25T11:26:10.000Z</time>
      </trkpt>
      <trkpt lat="44.11014" lon="7.06146">
        <ele>1728</ele>
        <time>2017-05-25T11:26:11.000Z</time>
      </trkpt>
      <trkpt lat="44.11006" lon="7.06161">
        <ele>1728</ele>
        <time>2017-05-25T11:26:13.000Z</time>
      </trkpt>
      <trkpt lat="44.10994" lon="7.06183">
        <ele>1729</ele>
        <time>2017-05-25T11:26:16.000Z</time>
      </trkpt>
      <trkpt lat="44.10991" lon="7.0619">
        <ele>1729</ele>
        <time>2017-05-25T11:26:17.000Z</time>
      </trkpt>
      <trkpt lat="44.10987" lon="7.06199">
        <ele>1728</ele>
        <time>2017-05-25T11:26:18.000Z</time>
      </trkpt>
      <trkpt lat="44.10982" lon="7.06206">
        <ele>1728</ele>
        <time>2017-05-25T11:26:19.000Z</time>
      </trkpt>
      <trkpt lat="44.10967" lon="7.06229">
        <ele>1727</ele>
        <time>2017-05-25T11:26:22.000Z</time>
      </trkpt>
      <trkpt lat="44.1096" lon="7.06245">
        <ele>1727</ele>
        <time>2017-05-25T11:26:24.000Z</time>
      </trkpt>
      <trkpt lat="44.10956" lon="7.06251">
        <ele>1716</ele>
        <time>2017-05-25T11:26:25.000Z</time>
      </trkpt>
      <trkpt lat="44.10954" lon="7.06257">
        <ele>1716</ele>
        <time>2017-05-25T11:26:26.000Z</time>
      </trkpt>
      <trkpt lat="44.10942" lon="7.06279">
        <ele>1716</ele>
        <time>2017-05-25T11:26:29.000Z</time>
      </trkpt>
      <trkpt lat="44.10937" lon="7.06286">
        <ele>1715</ele>
        <time>2017-05-25T11:26:30.000Z</time>
      </trkpt>
      <trkpt lat="44.10932" lon="7.06292">
        <ele>1715</ele>
        <time>2017-05-25T11:26:31.000Z</time>
      </trkpt>
      <trkpt lat="44.10927" lon="7.06297">
        <ele>1714</ele>
        <time>2017-05-25T11:26:32.000Z</time>
      </trkpt>
      <trkpt lat="44.10917" lon="7.06313">
        <ele>1713</ele>
        <time>2017-05-25T11:26:34.000Z</time>
      </trkpt>
      <trkpt lat="44.10912" lon="7.06321">
        <ele>1718</ele>
        <time>2017-05-25T11:26:35.000Z</time>
      </trkpt>
      <trkpt lat="44.10908" lon="7.06329">
        <ele>1716</ele>
        <time>2017-05-25T11:26:36.000Z</time>
      </trkpt>
      <trkpt lat="44.10903" lon="7.06335">
        <ele>1710</ele>
        <time>2017-05-25T11:26:37.000Z</time>
      </trkpt>
      <trkpt lat="44.10895" lon="7.06351">
        <ele>1709</ele>
        <time>2017-05-25T11:26:39.000Z</time>
      </trkpt>
      <trkpt lat="44.1089" lon="7.0636">
        <ele>1708</ele>
        <time>2017-05-25T11:26:40.000Z</time>
      </trkpt>
      <trkpt lat="44.10885" lon="7.06366">
        <ele>1708</ele>
        <time>2017-05-25T11:26:41.000Z</time>
      </trkpt>
      <trkpt lat="44.10881" lon="7.06374">
        <ele>1707</ele>
        <time>2017-05-25T11:26:42.000Z</time>
      </trkpt>
      <trkpt lat="44.10876" lon="7.06383">
        <ele>1707</ele>
        <time>2017-05-25T11:26:43.000Z</time>
      </trkpt>
      <trkpt lat="44.10871" lon="7.06391">
        <ele>1706</ele>
        <time>2017-05-25T11:26:44.000Z</time>
      </trkpt>
      <trkpt lat="44.10861" lon="7.06407">
        <ele>1705</ele>
        <time>2017-05-25T11:26:46.000Z</time>
      </trkpt>
      <trkpt lat="44.10855" lon="7.06427">
        <ele>1699</ele>
        <time>2017-05-25T11:26:48.000Z</time>
      </trkpt>
      <trkpt lat="44.10852" lon="7.06442">
        <ele>1699</ele>
        <time>2017-05-25T11:26:50.000Z</time>
      </trkpt>
      <trkpt lat="44.10851" lon="7.06447">
        <ele>1698</ele>
        <time>2017-05-25T11:26:51.000Z</time>
      </trkpt>
      <trkpt lat="44.10851" lon="7.06449">
        <ele>1698</ele>
        <time>2017-05-25T11:26:52.000Z</time>
      </trkpt>
      <trkpt lat="44.1085" lon="7.06451">
        <ele>1698</ele>
        <time>2017-05-25T11:26:53.000Z</time>
      </trkpt>
      <trkpt lat="44.1085" lon="7.0645">
        <ele>1698</ele>
        <time>2017-05-25T11:26:54.000Z</time>
      </trkpt>
      <trkpt lat="44.1085" lon="7.06451">
        <ele>1698</ele>
        <time>2017-05-25T11:26:55.000Z</time>
      </trkpt>
      <trkpt lat="44.10849" lon="7.06452">
        <ele>1698</ele>
        <time>2017-05-25T11:27:01.000Z</time>
      </trkpt>
      <trkpt lat="44.10847" lon="7.06455">
        <ele>1698</ele>
        <time>2017-05-25T11:27:18.000Z</time>
      </trkpt>
      <trkpt lat="44.10845" lon="7.06458">
        <ele>1698</ele>
        <time>2017-05-25T11:27:31.000Z</time>
      </trkpt>
      <trkpt lat="44.10846" lon="7.06458">
        <ele>1698</ele>
        <time>2017-05-25T11:27:38.000Z</time>
      </trkpt>
      <trkpt lat="44.10847" lon="7.06458">
        <ele>1698</ele>
        <time>2017-05-25T11:27:39.000Z</time>
      </trkpt>
      <trkpt lat="44.10849" lon="7.06463">
        <ele>1698</ele>
        <time>2017-05-25T11:27:41.000Z</time>
      </trkpt>
      <trkpt lat="44.1085" lon="7.06472">
        <ele>1698</ele>
        <time>2017-05-25T11:27:43.000Z</time>
      </trkpt>
      <trkpt lat="44.10849" lon="7.06476">
        <ele>1698</ele>
        <time>2017-05-25T11:27:44.000Z</time>
      </trkpt>
      <trkpt lat="44.10848" lon="7.0648">
        <ele>1698</ele>
        <time>2017-05-25T11:27:45.000Z</time>
      </trkpt>
      <trkpt lat="44.1085" lon="7.06489">
        <ele>1698</ele>
        <time>2017-05-25T11:27:47.000Z</time>
      </trkpt>
      <trkpt lat="44.10854" lon="7.06494">
        <ele>1698</ele>
        <time>2017-05-25T11:27:48.000Z</time>
      </trkpt>
      <trkpt lat="44.1086" lon="7.065">
        <ele>1696</ele>
        <time>2017-05-25T11:27:50.000Z</time>
      </trkpt>
      <trkpt lat="44.10867" lon="7.06508">
        <ele>1696</ele>
        <time>2017-05-25T11:27:52.000Z</time>
      </trkpt>
      <trkpt lat="44.10877" lon="7.06518">
        <ele>1694</ele>
        <time>2017-05-25T11:27:54.000Z</time>
      </trkpt>
      <trkpt lat="44.10893" lon="7.0653">
        <ele>1693</ele>
        <time>2017-05-25T11:27:57.000Z</time>
      </trkpt>
      <trkpt lat="44.10899" lon="7.06533">
        <ele>1693</ele>
        <time>2017-05-25T11:27:58.000Z</time>
      </trkpt>
      <trkpt lat="44.10909" lon="7.06541">
        <ele>1692</ele>
        <time>2017-05-25T11:28:00.000Z</time>
      </trkpt>
      <trkpt lat="44.10914" lon="7.06545">
        <ele>1692</ele>
        <time>2017-05-25T11:28:01.000Z</time>
      </trkpt>
      <trkpt lat="44.10923" lon="7.06552">
        <ele>1683</ele>
        <time>2017-05-25T11:28:03.000Z</time>
      </trkpt>
      <trkpt lat="44.10926" lon="7.06554">
        <ele>1683</ele>
        <time>2017-05-25T11:28:04.000Z</time>
      </trkpt>
      <trkpt lat="44.1093" lon="7.0656">
        <ele>1683</ele>
        <time>2017-05-25T11:28:06.000Z</time>
      </trkpt>
      <trkpt lat="44.10939" lon="7.06574">
        <ele>1683</ele>
        <time>2017-05-25T11:28:11.000Z</time>
      </trkpt>
      <trkpt lat="44.10943" lon="7.06594">
        <ele>1679</ele>
        <time>2017-05-25T11:28:15.000Z</time>
      </trkpt>
      <trkpt lat="44.10944" lon="7.06608">
        <ele>1677</ele>
        <time>2017-05-25T11:28:17.000Z</time>
      </trkpt>
      <trkpt lat="44.10946" lon="7.06616">
        <ele>1676</ele>
        <time>2017-05-25T11:28:18.000Z</time>
      </trkpt>
      <trkpt lat="44.10946" lon="7.06625">
        <ele>1675</ele>
        <time>2017-05-25T11:28:19.000Z</time>
      </trkpt>
      <trkpt lat="44.10946" lon="7.06639">
        <ele>1674</ele>
        <time>2017-05-25T11:28:21.000Z</time>
      </trkpt>
      <trkpt lat="44.10946" lon="7.06645">
        <ele>1674</ele>
        <time>2017-05-25T11:28:22.000Z</time>
      </trkpt>
      <trkpt lat="44.10946" lon="7.0665">
        <ele>1674</ele>
        <time>2017-05-25T11:28:23.000Z</time>
      </trkpt>
      <trkpt lat="44.10944" lon="7.06655">
        <ele>1674</ele>
        <time>2017-05-25T11:28:24.000Z</time>
      </trkpt>
      <trkpt lat="44.10944" lon="7.0666">
        <ele>1674</ele>
        <time>2017-05-25T11:28:25.000Z</time>
      </trkpt>
      <trkpt lat="44.10943" lon="7.06664">
        <ele>1674</ele>
        <time>2017-05-25T11:28:26.000Z</time>
      </trkpt>
      <trkpt lat="44.10944" lon="7.06674">
        <ele>1665</ele>
        <time>2017-05-25T11:28:28.000Z</time>
      </trkpt>
      <trkpt lat="44.10945" lon="7.06678">
        <ele>1665</ele>
        <time>2017-05-25T11:28:29.000Z</time>
      </trkpt>
      <trkpt lat="44.10945" lon="7.06688">
        <ele>1664</ele>
        <time>2017-05-25T11:28:31.000Z</time>
      </trkpt>
      <trkpt lat="44.10946" lon="7.06692">
        <ele>1663</ele>
        <time>2017-05-25T11:28:32.000Z</time>
      </trkpt>
      <trkpt lat="44.10944" lon="7.06697">
        <ele>1663</ele>
        <time>2017-05-25T11:28:33.000Z</time>
      </trkpt>
      <trkpt lat="44.10941" lon="7.06705">
        <ele>1662</ele>
        <time>2017-05-25T11:28:35.000Z</time>
      </trkpt>
      <trkpt lat="44.1094" lon="7.0671">
        <ele>1662</ele>
        <time>2017-05-25T11:28:37.000Z</time>
      </trkpt>
      <trkpt lat="44.10938" lon="7.06718">
        <ele>1661</ele>
        <time>2017-05-25T11:28:39.000Z</time>
      </trkpt>
      <trkpt lat="44.10937" lon="7.06729">
        <ele>1660</ele>
        <time>2017-05-25T11:28:41.000Z</time>
      </trkpt>
      <trkpt lat="44.10937" lon="7.06734">
        <ele>1660</ele>
        <time>2017-05-25T11:28:42.000Z</time>
      </trkpt>
      <trkpt lat="44.10938" lon="7.06738">
        <ele>1659</ele>
        <time>2017-05-25T11:28:43.000Z</time>
      </trkpt>
      <trkpt lat="44.1094" lon="7.06743">
        <ele>1659</ele>
        <time>2017-05-25T11:28:44.000Z</time>
      </trkpt>
      <trkpt lat="44.10942" lon="7.06753">
        <ele>1650</ele>
        <time>2017-05-25T11:28:46.000Z</time>
      </trkpt>
      <trkpt lat="44.10941" lon="7.06759">
        <ele>1650</ele>
        <time>2017-05-25T11:28:47.000Z</time>
      </trkpt>
      <trkpt lat="44.10942" lon="7.06766">
        <ele>1649</ele>
        <time>2017-05-25T11:28:48.000Z</time>
      </trkpt>
      <trkpt lat="44.10945" lon="7.06776">
        <ele>1648</ele>
        <time>2017-05-25T11:28:50.000Z</time>
      </trkpt>
      <trkpt lat="44.10945" lon="7.06782">
        <ele>1647</ele>
        <time>2017-05-25T11:28:51.000Z</time>
      </trkpt>
      <trkpt lat="44.10946" lon="7.06794">
        <ele>1646</ele>
        <time>2017-05-25T11:28:53.000Z</time>
      </trkpt>
      <trkpt lat="44.10949" lon="7.068">
        <ele>1646</ele>
        <time>2017-05-25T11:28:54.000Z</time>
      </trkpt>
      <trkpt lat="44.1095" lon="7.06808">
        <ele>1645</ele>
        <time>2017-05-25T11:28:55.000Z</time>
      </trkpt>
      <trkpt lat="44.1095" lon="7.06815">
        <ele>1644</ele>
        <time>2017-05-25T11:28:56.000Z</time>
      </trkpt>
      <trkpt lat="44.10951" lon="7.06822">
        <ele>1644</ele>
        <time>2017-05-25T11:28:57.000Z</time>
      </trkpt>
      <trkpt lat="44.10951" lon="7.06828">
        <ele>1644</ele>
        <time>2017-05-25T11:28:58.000Z</time>
      </trkpt>
      <trkpt lat="44.10953" lon="7.06833">
        <ele>1643</ele>
        <time>2017-05-25T11:28:59.000Z</time>
      </trkpt>
      <trkpt lat="44.10955" lon="7.06837">
        <ele>1635</ele>
        <time>2017-05-25T11:29:00.000Z</time>
      </trkpt>
      <trkpt lat="44.10956" lon="7.06841">
        <ele>1635</ele>
        <time>2017-05-25T11:29:01.000Z</time>
      </trkpt>
      <trkpt lat="44.10956" lon="7.06845">
        <ele>1635</ele>
        <time>2017-05-25T11:29:02.000Z</time>
      </trkpt>
      <trkpt lat="44.10957" lon="7.06851">
        <ele>1634</ele>
        <time>2017-05-25T11:29:03.000Z</time>
      </trkpt>
      <trkpt lat="44.1096" lon="7.0686">
        <ele>1633</ele>
        <time>2017-05-25T11:29:05.000Z</time>
      </trkpt>
      <trkpt lat="44.10964" lon="7.06872">
        <ele>1632</ele>
        <time>2017-05-25T11:29:07.000Z</time>
      </trkpt>
      <trkpt lat="44.10966" lon="7.06879">
        <ele>1632</ele>
        <time>2017-05-25T11:29:08.000Z</time>
      </trkpt>
      <trkpt lat="44.10968" lon="7.06887">
        <ele>1631</ele>
        <time>2017-05-25T11:29:09.000Z</time>
      </trkpt>
      <trkpt lat="44.1097" lon="7.06896">
        <ele>1630</ele>
        <time>2017-05-25T11:29:10.000Z</time>
      </trkpt>
      <trkpt lat="44.10971" lon="7.06903">
        <ele>1630</ele>
        <time>2017-05-25T11:29:11.000Z</time>
      </trkpt>
      <trkpt lat="44.10974" lon="7.06918">
        <ele>1622</ele>
        <time>2017-05-25T11:29:13.000Z</time>
      </trkpt>
      <trkpt lat="44.10977" lon="7.06925">
        <ele>1621</ele>
        <time>2017-05-25T11:29:14.000Z</time>
      </trkpt>
      <trkpt lat="44.10979" lon="7.06932">
        <ele>1621</ele>
        <time>2017-05-25T11:29:15.000Z</time>
      </trkpt>
      <trkpt lat="44.10982" lon="7.0694">
        <ele>1620</ele>
        <time>2017-05-25T11:29:16.000Z</time>
      </trkpt>
      <trkpt lat="44.10983" lon="7.06946">
        <ele>1620</ele>
        <time>2017-05-25T11:29:17.000Z</time>
      </trkpt>
      <trkpt lat="44.10985" lon="7.06953">
        <ele>1619</ele>
        <time>2017-05-25T11:29:18.000Z</time>
      </trkpt>
      <trkpt lat="44.10987" lon="7.06959">
        <ele>1618</ele>
        <time>2017-05-25T11:29:19.000Z</time>
      </trkpt>
      <trkpt lat="44.10989" lon="7.06967">
        <ele>1617</ele>
        <time>2017-05-25T11:29:20.000Z</time>
      </trkpt>
      <trkpt lat="44.1099" lon="7.06982">
        <ele>1614</ele>
        <time>2017-05-25T11:29:22.000Z</time>
      </trkpt>
      <trkpt lat="44.10989" lon="7.06991">
        <ele>1613</ele>
        <time>2017-05-25T11:29:23.000Z</time>
      </trkpt>
      <trkpt lat="44.10989" lon="7.07004">
        <ele>1606</ele>
        <time>2017-05-25T11:29:25.000Z</time>
      </trkpt>
      <trkpt lat="44.10989" lon="7.07009">
        <ele>1606</ele>
        <time>2017-05-25T11:29:26.000Z</time>
      </trkpt>
      <trkpt lat="44.1099" lon="7.07015">
        <ele>1605</ele>
        <time>2017-05-25T11:29:27.000Z</time>
      </trkpt>
      <trkpt lat="44.10987" lon="7.07027">
        <ele>1604</ele>
        <time>2017-05-25T11:29:29.000Z</time>
      </trkpt>
      <trkpt lat="44.10989" lon="7.07033">
        <ele>1603</ele>
        <time>2017-05-25T11:29:30.000Z</time>
      </trkpt>
      <trkpt lat="44.10992" lon="7.07037">
        <ele>1603</ele>
        <time>2017-05-25T11:29:31.000Z</time>
      </trkpt>
      <trkpt lat="44.10995" lon="7.07047">
        <ele>1601</ele>
        <time>2017-05-25T11:29:33.000Z</time>
      </trkpt>
      <trkpt lat="44.10992" lon="7.07051">
        <ele>1601</ele>
        <time>2017-05-25T11:29:34.000Z</time>
      </trkpt>
      <trkpt lat="44.1099" lon="7.07054">
        <ele>1600</ele>
        <time>2017-05-25T11:29:35.000Z</time>
      </trkpt>
      <trkpt lat="44.1099" lon="7.07058">
        <ele>1599</ele>
        <time>2017-05-25T11:29:36.000Z</time>
      </trkpt>
      <trkpt lat="44.1099" lon="7.07064">
        <ele>1598</ele>
        <time>2017-05-25T11:29:37.000Z</time>
      </trkpt>
      <trkpt lat="44.10993" lon="7.07068">
        <ele>1596</ele>
        <time>2017-05-25T11:29:39.000Z</time>
      </trkpt>
      <trkpt lat="44.10998" lon="7.07071">
        <ele>1595</ele>
        <time>2017-05-25T11:29:41.000Z</time>
      </trkpt>
      <trkpt lat="44.10995" lon="7.07077">
        <ele>1593</ele>
        <time>2017-05-25T11:29:43.000Z</time>
      </trkpt>
      <trkpt lat="44.10992" lon="7.0708">
        <ele>1593</ele>
        <time>2017-05-25T11:29:44.000Z</time>
      </trkpt>
      <trkpt lat="44.10987" lon="7.07087">
        <ele>1585</ele>
        <time>2017-05-25T11:29:46.000Z</time>
      </trkpt>
      <trkpt lat="44.10982" lon="7.07091">
        <ele>1584</ele>
        <time>2017-05-25T11:29:48.000Z</time>
      </trkpt>
      <trkpt lat="44.10977" lon="7.07097">
        <ele>1583</ele>
        <time>2017-05-25T11:29:50.000Z</time>
      </trkpt>
      <trkpt lat="44.10972" lon="7.071">
        <ele>1583</ele>
        <time>2017-05-25T11:29:52.000Z</time>
      </trkpt>
      <trkpt lat="44.10969" lon="7.07102">
        <ele>1583</ele>
        <time>2017-05-25T11:29:53.000Z</time>
      </trkpt>
      <trkpt lat="44.10963" lon="7.07107">
        <ele>1582</ele>
        <time>2017-05-25T11:29:55.000Z</time>
      </trkpt>
      <trkpt lat="44.1096" lon="7.0711">
        <ele>1582</ele>
        <time>2017-05-25T11:29:56.000Z</time>
      </trkpt>
      <trkpt lat="44.10957" lon="7.07114">
        <ele>1581</ele>
        <time>2017-05-25T11:29:57.000Z</time>
      </trkpt>
      <trkpt lat="44.10951" lon="7.07121">
        <ele>1581</ele>
        <time>2017-05-25T11:29:59.000Z</time>
      </trkpt>
      <trkpt lat="44.10944" lon="7.07127">
        <ele>1580</ele>
        <time>2017-05-25T11:30:01.000Z</time>
      </trkpt>
      <trkpt lat="44.10936" lon="7.07134">
        <ele>1579</ele>
        <time>2017-05-25T11:30:03.000Z</time>
      </trkpt>
      <trkpt lat="44.1093" lon="7.07142">
        <ele>1577</ele>
        <time>2017-05-25T11:30:05.000Z</time>
      </trkpt>
      <trkpt lat="44.10926" lon="7.07146">
        <ele>1576</ele>
        <time>2017-05-25T11:30:06.000Z</time>
      </trkpt>
      <trkpt lat="44.10922" lon="7.07151">
        <ele>1574</ele>
        <time>2017-05-25T11:30:07.000Z</time>
      </trkpt>
      <trkpt lat="44.10918" lon="7.07155">
        <ele>1573</ele>
        <time>2017-05-25T11:30:08.000Z</time>
      </trkpt>
      <trkpt lat="44.10913" lon="7.07159">
        <ele>1577</ele>
        <time>2017-05-25T11:30:09.000Z</time>
      </trkpt>
      <trkpt lat="44.10909" lon="7.07161">
        <ele>1577</ele>
        <time>2017-05-25T11:30:10.000Z</time>
      </trkpt>
      <trkpt lat="44.10906" lon="7.07163">
        <ele>1579</ele>
        <time>2017-05-25T11:30:11.000Z</time>
      </trkpt>
      <trkpt lat="44.10897" lon="7.0717">
        <ele>1568</ele>
        <time>2017-05-25T11:30:13.000Z</time>
      </trkpt>
      <trkpt lat="44.10892" lon="7.07175">
        <ele>1568</ele>
        <time>2017-05-25T11:30:14.000Z</time>
      </trkpt>
      <trkpt lat="44.10887" lon="7.0718">
        <ele>1568</ele>
        <time>2017-05-25T11:30:15.000Z</time>
      </trkpt>
      <trkpt lat="44.10875" lon="7.07188">
        <ele>1569</ele>
        <time>2017-05-25T11:30:17.000Z</time>
      </trkpt>
      <trkpt lat="44.10871" lon="7.07194">
        <ele>1569</ele>
        <time>2017-05-25T11:30:18.000Z</time>
      </trkpt>
      <trkpt lat="44.10868" lon="7.07203">
        <ele>1567</ele>
        <time>2017-05-25T11:30:19.000Z</time>
      </trkpt>
      <trkpt lat="44.10862" lon="7.07218">
        <ele>1566</ele>
        <time>2017-05-25T11:30:21.000Z</time>
      </trkpt>
      <trkpt lat="44.10859" lon="7.07232">
        <ele>1564</ele>
        <time>2017-05-25T11:30:23.000Z</time>
      </trkpt>
      <trkpt lat="44.10857" lon="7.07239">
        <ele>1564</ele>
        <time>2017-05-25T11:30:24.000Z</time>
      </trkpt>
      <trkpt lat="44.10854" lon="7.07255">
        <ele>1549</ele>
        <time>2017-05-25T11:30:26.000Z</time>
      </trkpt>
      <trkpt lat="44.10852" lon="7.07264">
        <ele>1548</ele>
        <time>2017-05-25T11:30:27.000Z</time>
      </trkpt>
      <trkpt lat="44.1085" lon="7.07275">
        <ele>1545</ele>
        <time>2017-05-25T11:30:28.000Z</time>
      </trkpt>
      <trkpt lat="44.10844" lon="7.07292">
        <ele>1542</ele>
        <time>2017-05-25T11:30:30.000Z</time>
      </trkpt>
      <trkpt lat="44.10842" lon="7.07298">
        <ele>1541</ele>
        <time>2017-05-25T11:30:31.000Z</time>
      </trkpt>
      <trkpt lat="44.10841" lon="7.07304">
        <ele>1540</ele>
        <time>2017-05-25T11:30:32.000Z</time>
      </trkpt>
      <trkpt lat="44.10838" lon="7.07313">
        <ele>1539</ele>
        <time>2017-05-25T11:30:33.000Z</time>
      </trkpt>
      <trkpt lat="44.10836" lon="7.07323">
        <ele>1538</ele>
        <time>2017-05-25T11:30:34.000Z</time>
      </trkpt>
      <trkpt lat="44.10833" lon="7.0733">
        <ele>1542</ele>
        <time>2017-05-25T11:30:35.000Z</time>
      </trkpt>
      <trkpt lat="44.10831" lon="7.07346">
        <ele>1541</ele>
        <time>2017-05-25T11:30:37.000Z</time>
      </trkpt>
      <trkpt lat="44.10828" lon="7.07354">
        <ele>1541</ele>
        <time>2017-05-25T11:30:38.000Z</time>
      </trkpt>
      <trkpt lat="44.10826" lon="7.07362">
        <ele>1541</ele>
        <time>2017-05-25T11:30:39.000Z</time>
      </trkpt>
      <trkpt lat="44.10824" lon="7.07369">
        <ele>1540</ele>
        <time>2017-05-25T11:30:40.000Z</time>
      </trkpt>
      <trkpt lat="44.10822" lon="7.07375">
        <ele>1540</ele>
        <time>2017-05-25T11:30:41.000Z</time>
      </trkpt>
      <trkpt lat="44.10818" lon="7.07386">
        <ele>1538</ele>
        <time>2017-05-25T11:30:43.000Z</time>
      </trkpt>
      <trkpt lat="44.10816" lon="7.07391">
        <ele>1536</ele>
        <time>2017-05-25T11:30:44.000Z</time>
      </trkpt>
      <trkpt lat="44.10814" lon="7.07398">
        <ele>1535</ele>
        <time>2017-05-25T11:30:45.000Z</time>
      </trkpt>
      <trkpt lat="44.10811" lon="7.07403">
        <ele>1535</ele>
        <time>2017-05-25T11:30:46.000Z</time>
      </trkpt>
      <trkpt lat="44.10809" lon="7.07407">
        <ele>1535</ele>
        <time>2017-05-25T11:30:47.000Z</time>
      </trkpt>
      <trkpt lat="44.10807" lon="7.07414">
        <ele>1535</ele>
        <time>2017-05-25T11:30:48.000Z</time>
      </trkpt>
      <trkpt lat="44.10805" lon="7.07418">
        <ele>1521</ele>
        <time>2017-05-25T11:30:49.000Z</time>
      </trkpt>
      <trkpt lat="44.10803" lon="7.07423">
        <ele>1521</ele>
        <time>2017-05-25T11:30:50.000Z</time>
      </trkpt>
      <trkpt lat="44.10801" lon="7.07429">
        <ele>1521</ele>
        <time>2017-05-25T11:30:51.000Z</time>
      </trkpt>
      <trkpt lat="44.10798" lon="7.07436">
        <ele>1521</ele>
        <time>2017-05-25T11:30:52.000Z</time>
      </trkpt>
      <trkpt lat="44.10796" lon="7.07444">
        <ele>1521</ele>
        <time>2017-05-25T11:30:53.000Z</time>
      </trkpt>
      <trkpt lat="44.10791" lon="7.07458">
        <ele>1520</ele>
        <time>2017-05-25T11:30:55.000Z</time>
      </trkpt>
      <trkpt lat="44.10789" lon="7.07464">
        <ele>1519</ele>
        <time>2017-05-25T11:30:56.000Z</time>
      </trkpt>
      <trkpt lat="44.10787" lon="7.0747">
        <ele>1519</ele>
        <time>2017-05-25T11:30:57.000Z</time>
      </trkpt>
      <trkpt lat="44.10783" lon="7.07477">
        <ele>1519</ele>
        <time>2017-05-25T11:30:58.000Z</time>
      </trkpt>
      <trkpt lat="44.1078" lon="7.07484">
        <ele>1519</ele>
        <time>2017-05-25T11:30:59.000Z</time>
      </trkpt>
      <trkpt lat="44.10777" lon="7.07489">
        <ele>1519</ele>
        <time>2017-05-25T11:31:00.000Z</time>
      </trkpt>
      <trkpt lat="44.10774" lon="7.07493">
        <ele>1519</ele>
        <time>2017-05-25T11:31:01.000Z</time>
      </trkpt>
      <trkpt lat="44.10773" lon="7.07495">
        <ele>1519</ele>
        <time>2017-05-25T11:31:02.000Z</time>
      </trkpt>
      <trkpt lat="44.10773" lon="7.07494">
        <ele>1519</ele>
        <time>2017-05-25T11:31:04.000Z</time>
      </trkpt>
      <trkpt lat="44.10775" lon="7.07494">
        <ele>1519</ele>
        <time>2017-05-25T11:31:09.000Z</time>
      </trkpt>
      <trkpt lat="44.10779" lon="7.07489">
        <ele>1518</ele>
        <time>2017-05-25T11:31:15.000Z</time>
      </trkpt>
      <trkpt lat="44.1078" lon="7.07488">
        <ele>1518</ele>
        <time>2017-05-25T11:31:17.000Z</time>
      </trkpt>
      <trkpt lat="44.10781" lon="7.07488">
        <ele>1518</ele>
        <time>2017-05-25T11:31:18.000Z</time>
      </trkpt>
      <trkpt lat="44.10781" lon="7.07488">
        <ele>1518</ele>
        <time>2017-05-25T11:31:22.000Z</time>
      </trkpt>
      <trkpt lat="44.10781" lon="7.0749">
        <ele>1518</ele>
        <time>2017-05-25T11:31:28.000Z</time>
      </trkpt>
      <trkpt lat="44.10778" lon="7.07498">
        <ele>1518</ele>
        <time>2017-05-25T11:31:35.000Z</time>
      </trkpt>
      <trkpt lat="44.1077" lon="7.07514">
        <ele>1504</ele>
        <time>2017-05-25T11:31:39.000Z</time>
      </trkpt>
      <trkpt lat="44.10768" lon="7.0752">
        <ele>1503</ele>
        <time>2017-05-25T11:31:40.000Z</time>
      </trkpt>
      <trkpt lat="44.10764" lon="7.07533">
        <ele>1500</ele>
        <time>2017-05-25T11:31:42.000Z</time>
      </trkpt>
      <trkpt lat="44.10762" lon="7.07541">
        <ele>1499</ele>
        <time>2017-05-25T11:31:43.000Z</time>
      </trkpt>
      <trkpt lat="44.10759" lon="7.07548">
        <ele>1498</ele>
        <time>2017-05-25T11:31:44.000Z</time>
      </trkpt>
      <trkpt lat="44.10756" lon="7.07556">
        <ele>1497</ele>
        <time>2017-05-25T11:31:45.000Z</time>
      </trkpt>
      <trkpt lat="44.10752" lon="7.07563">
        <ele>1497</ele>
        <time>2017-05-25T11:31:46.000Z</time>
      </trkpt>
      <trkpt lat="44.10749" lon="7.07574">
        <ele>1509</ele>
        <time>2017-05-25T11:31:48.000Z</time>
      </trkpt>
      <trkpt lat="44.10745" lon="7.07595">
        <ele>1503</ele>
        <time>2017-05-25T11:31:51.000Z</time>
      </trkpt>
      <trkpt lat="44.10744" lon="7.07603">
        <ele>1503</ele>
        <time>2017-05-25T11:31:52.000Z</time>
      </trkpt>
      <trkpt lat="44.1074" lon="7.07618">
        <ele>1503</ele>
        <time>2017-05-25T11:31:54.000Z</time>
      </trkpt>
      <trkpt lat="44.10737" lon="7.07625">
        <ele>1503</ele>
        <time>2017-05-25T11:31:55.000Z</time>
      </trkpt>
      <trkpt lat="44.10735" lon="7.07632">
        <ele>1502</ele>
        <time>2017-05-25T11:31:56.000Z</time>
      </trkpt>
      <trkpt lat="44.1073" lon="7.07645">
        <ele>1499</ele>
        <time>2017-05-25T11:31:58.000Z</time>
      </trkpt>
      <trkpt lat="44.10728" lon="7.07652">
        <ele>1499</ele>
        <time>2017-05-25T11:31:59.000Z</time>
      </trkpt>
      <trkpt lat="44.10725" lon="7.0766">
        <ele>1499</ele>
        <time>2017-05-25T11:32:00.000Z</time>
      </trkpt>
      <trkpt lat="44.10722" lon="7.07666">
        <ele>1499</ele>
        <time>2017-05-25T11:32:01.000Z</time>
      </trkpt>
      <trkpt lat="44.10719" lon="7.07672">
        <ele>1489</ele>
        <time>2017-05-25T11:32:02.000Z</time>
      </trkpt>
      <trkpt lat="44.10716" lon="7.07677">
        <ele>1490</ele>
        <time>2017-05-25T11:32:03.000Z</time>
      </trkpt>
      <trkpt lat="44.10715" lon="7.07684">
        <ele>1490</ele>
        <time>2017-05-25T11:32:04.000Z</time>
      </trkpt>
      <trkpt lat="44.10712" lon="7.0769">
        <ele>1490</ele>
        <time>2017-05-25T11:32:05.000Z</time>
      </trkpt>
      <trkpt lat="44.10706" lon="7.07707">
        <ele>1490</ele>
        <time>2017-05-25T11:32:07.000Z</time>
      </trkpt>
      <trkpt lat="44.10703" lon="7.07716">
        <ele>1491</ele>
        <time>2017-05-25T11:32:08.000Z</time>
      </trkpt>
      <trkpt lat="44.10701" lon="7.07726">
        <ele>1491</ele>
        <time>2017-05-25T11:32:09.000Z</time>
      </trkpt>
      <trkpt lat="44.10701" lon="7.07734">
        <ele>1490</ele>
        <time>2017-05-25T11:32:10.000Z</time>
      </trkpt>
      <trkpt lat="44.10704" lon="7.07741">
        <ele>1489</ele>
        <time>2017-05-25T11:32:11.000Z</time>
      </trkpt>
      <trkpt lat="44.1071" lon="7.07762">
        <ele>1475</ele>
        <time>2017-05-25T11:32:14.000Z</time>
      </trkpt>
      <trkpt lat="44.10711" lon="7.07771">
        <ele>1474</ele>
        <time>2017-05-25T11:32:15.000Z</time>
      </trkpt>
      <trkpt lat="44.10709" lon="7.07786">
        <ele>1474</ele>
        <time>2017-05-25T11:32:17.000Z</time>
      </trkpt>
      <trkpt lat="44.10707" lon="7.07794">
        <ele>1474</ele>
        <time>2017-05-25T11:32:18.000Z</time>
      </trkpt>
      <trkpt lat="44.10705" lon="7.07801">
        <ele>1474</ele>
        <time>2017-05-25T11:32:19.000Z</time>
      </trkpt>
      <trkpt lat="44.10703" lon="7.07808">
        <ele>1474</ele>
        <time>2017-05-25T11:32:20.000Z</time>
      </trkpt>
      <trkpt lat="44.107" lon="7.07815">
        <ele>1475</ele>
        <time>2017-05-25T11:32:21.000Z</time>
      </trkpt>
      <trkpt lat="44.10699" lon="7.07823">
        <ele>1475</ele>
        <time>2017-05-25T11:32:22.000Z</time>
      </trkpt>
      <trkpt lat="44.10697" lon="7.0783">
        <ele>1476</ele>
        <time>2017-05-25T11:32:23.000Z</time>
      </trkpt>
      <trkpt lat="44.10689" lon="7.07856">
        <ele>1466</ele>
        <time>2017-05-25T11:32:27.000Z</time>
      </trkpt>
      <trkpt lat="44.10685" lon="7.07862">
        <ele>1466</ele>
        <time>2017-05-25T11:32:28.000Z</time>
      </trkpt>
      <trkpt lat="44.10677" lon="7.07889">
        <ele>1464</ele>
        <time>2017-05-25T11:32:32.000Z</time>
      </trkpt>
      <trkpt lat="44.10675" lon="7.07898">
        <ele>1465</ele>
        <time>2017-05-25T11:32:33.000Z</time>
      </trkpt>
      <trkpt lat="44.10673" lon="7.07907">
        <ele>1468</ele>
        <time>2017-05-25T11:32:34.000Z</time>
      </trkpt>
      <trkpt lat="44.10667" lon="7.07924">
        <ele>1477</ele>
        <time>2017-05-25T11:32:36.000Z</time>
      </trkpt>
      <trkpt lat="44.1066" lon="7.07941">
        <ele>1480</ele>
        <time>2017-05-25T11:32:38.000Z</time>
      </trkpt>
      <trkpt lat="44.10653" lon="7.07962">
        <ele>1479</ele>
        <time>2017-05-25T11:32:41.000Z</time>
      </trkpt>
      <trkpt lat="44.10652" lon="7.0797">
        <ele>1477</ele>
        <time>2017-05-25T11:32:42.000Z</time>
      </trkpt>
      <trkpt lat="44.1065" lon="7.07978">
        <ele>1475</ele>
        <time>2017-05-25T11:32:43.000Z</time>
      </trkpt>
      <trkpt lat="44.10646" lon="7.07989">
        <ele>1472</ele>
        <time>2017-05-25T11:32:46.000Z</time>
      </trkpt>
      <trkpt lat="44.10646" lon="7.07989">
        <ele>1472</ele>
        <time>2017-05-25T11:32:48.000Z</time>
      </trkpt>
      <trkpt lat="44.10646" lon="7.0799">
        <ele>1472</ele>
        <time>2017-05-25T11:32:50.000Z</time>
      </trkpt>
      <trkpt lat="44.10644" lon="7.07993">
        <ele>1473</ele>
        <time>2017-05-25T11:32:58.000Z</time>
      </trkpt>
      <trkpt lat="44.10643" lon="7.07995">
        <ele>1473</ele>
        <time>2017-05-25T11:33:01.000Z</time>
      </trkpt>
      <trkpt lat="44.10643" lon="7.07999">
        <ele>1472</ele>
        <time>2017-05-25T11:33:03.000Z</time>
      </trkpt>
      <trkpt lat="44.10643" lon="7.08">
        <ele>1473</ele>
        <time>2017-05-25T11:33:06.000Z</time>
      </trkpt>
      <trkpt lat="44.10637" lon="7.08015">
        <ele>1461</ele>
        <time>2017-05-25T11:33:10.000Z</time>
      </trkpt>
      <trkpt lat="44.10637" lon="7.0802">
        <ele>1461</ele>
        <time>2017-05-25T11:33:11.000Z</time>
      </trkpt>
      <trkpt lat="44.10635" lon="7.08024">
        <ele>1461</ele>
        <time>2017-05-25T11:33:12.000Z</time>
      </trkpt>
      <trkpt lat="44.10631" lon="7.08037">
        <ele>1461</ele>
        <time>2017-05-25T11:33:14.000Z</time>
      </trkpt>
      <trkpt lat="44.10629" lon="7.08044">
        <ele>1461</ele>
        <time>2017-05-25T11:33:15.000Z</time>
      </trkpt>
      <trkpt lat="44.10626" lon="7.08052">
        <ele>1461</ele>
        <time>2017-05-25T11:33:16.000Z</time>
      </trkpt>
      <trkpt lat="44.10622" lon="7.08059">
        <ele>1461</ele>
        <time>2017-05-25T11:33:17.000Z</time>
      </trkpt>
      <trkpt lat="44.1062" lon="7.08067">
        <ele>1461</ele>
        <time>2017-05-25T11:33:18.000Z</time>
      </trkpt>
      <trkpt lat="44.10617" lon="7.08083">
        <ele>1448</ele>
        <time>2017-05-25T11:33:20.000Z</time>
      </trkpt>
      <trkpt lat="44.10611" lon="7.08094">
        <ele>1450</ele>
        <time>2017-05-25T11:33:22.000Z</time>
      </trkpt>
      <trkpt lat="44.10608" lon="7.081">
        <ele>1450</ele>
        <time>2017-05-25T11:33:23.000Z</time>
      </trkpt>
      <trkpt lat="44.10606" lon="7.08105">
        <ele>1450</ele>
        <time>2017-05-25T11:33:24.000Z</time>
      </trkpt>
      <trkpt lat="44.10605" lon="7.08112">
        <ele>1448</ele>
        <time>2017-05-25T11:33:25.000Z</time>
      </trkpt>
      <trkpt lat="44.10604" lon="7.0812">
        <ele>1447</ele>
        <time>2017-05-25T11:33:26.000Z</time>
      </trkpt>
      <trkpt lat="44.10601" lon="7.08128">
        <ele>1446</ele>
        <time>2017-05-25T11:33:27.000Z</time>
      </trkpt>
      <trkpt lat="44.10596" lon="7.08146">
        <ele>1446</ele>
        <time>2017-05-25T11:33:29.000Z</time>
      </trkpt>
      <trkpt lat="44.10593" lon="7.08154">
        <ele>1447</ele>
        <time>2017-05-25T11:33:30.000Z</time>
      </trkpt>
      <trkpt lat="44.1059" lon="7.08158">
        <ele>1448</ele>
        <time>2017-05-25T11:33:31.000Z</time>
      </trkpt>
      <trkpt lat="44.10584" lon="7.08164">
        <ele>1450</ele>
        <time>2017-05-25T11:33:33.000Z</time>
      </trkpt>
      <trkpt lat="44.10583" lon="7.0817">
        <ele>1447</ele>
        <time>2017-05-25T11:33:34.000Z</time>
      </trkpt>
      <trkpt lat="44.10579" lon="7.08182">
        <ele>1453</ele>
        <time>2017-05-25T11:33:36.000Z</time>
      </trkpt>
      <trkpt lat="44.10576" lon="7.08194">
        <ele>1454</ele>
        <time>2017-05-25T11:33:38.000Z</time>
      </trkpt>
      <trkpt lat="44.10571" lon="7.08208">
        <ele>1452</ele>
        <time>2017-05-25T11:33:40.000Z</time>
      </trkpt>
      <trkpt lat="44.1057" lon="7.08212">
        <ele>1452</ele>
        <time>2017-05-25T11:33:41.000Z</time>
      </trkpt>
      <trkpt lat="44.10569" lon="7.08219">
        <ele>1450</ele>
        <time>2017-05-25T11:33:43.000Z</time>
      </trkpt>
      <trkpt lat="44.10569" lon="7.08221">
        <ele>1450</ele>
        <time>2017-05-25T11:33:44.000Z</time>
      </trkpt>
      <trkpt lat="44.10567" lon="7.08225">
        <ele>1449</ele>
        <time>2017-05-25T11:33:46.000Z</time>
      </trkpt>
      <trkpt lat="44.10563" lon="7.08234">
        <ele>1448</ele>
        <time>2017-05-25T11:33:48.000Z</time>
      </trkpt>
      <trkpt lat="44.10556" lon="7.08252">
        <ele>1433</ele>
        <time>2017-05-25T11:33:51.000Z</time>
      </trkpt>
      <trkpt lat="44.10554" lon="7.08258">
        <ele>1433</ele>
        <time>2017-05-25T11:33:52.000Z</time>
      </trkpt>
      <trkpt lat="44.10552" lon="7.08263">
        <ele>1433</ele>
        <time>2017-05-25T11:33:53.000Z</time>
      </trkpt>
      <trkpt lat="44.10551" lon="7.08266">
        <ele>1433</ele>
        <time>2017-05-25T11:33:54.000Z</time>
      </trkpt>
      <trkpt lat="44.1055" lon="7.0827">
        <ele>1433</ele>
        <time>2017-05-25T11:33:55.000Z</time>
      </trkpt>
      <trkpt lat="44.10549" lon="7.08273">
        <ele>1432</ele>
        <time>2017-05-25T11:33:56.000Z</time>
      </trkpt>
      <trkpt lat="44.10549" lon="7.08275">
        <ele>1432</ele>
        <time>2017-05-25T11:33:59.000Z</time>
      </trkpt>
      <trkpt lat="44.10551" lon="7.08275">
        <ele>1432</ele>
        <time>2017-05-25T11:34:01.000Z</time>
      </trkpt>
      <trkpt lat="44.10551" lon="7.08272">
        <ele>1432</ele>
        <time>2017-05-25T11:34:04.000Z</time>
      </trkpt>
      <trkpt lat="44.10555" lon="7.08265">
        <ele>1432</ele>
        <time>2017-05-25T11:34:09.000Z</time>
      </trkpt>
      <trkpt lat="44.10555" lon="7.08262">
        <ele>1432</ele>
        <time>2017-05-25T11:34:14.000Z</time>
      </trkpt>
      <trkpt lat="44.10556" lon="7.08262">
        <ele>1432</ele>
        <time>2017-05-25T11:34:19.000Z</time>
      </trkpt>
      <trkpt lat="44.10558" lon="7.08258">
        <ele>1432</ele>
        <time>2017-05-25T11:34:23.000Z</time>
      </trkpt>
      <trkpt lat="44.10558" lon="7.08258">
        <ele>1432</ele>
        <time>2017-05-25T11:34:24.000Z</time>
      </trkpt>
      <trkpt lat="44.10559" lon="7.08255">
        <ele>1432</ele>
        <time>2017-05-25T11:34:26.000Z</time>
      </trkpt>
      <trkpt lat="44.1056" lon="7.0825">
        <ele>1446</ele>
        <time>2017-05-25T11:34:29.000Z</time>
      </trkpt>
      <trkpt lat="44.10561" lon="7.08246">
        <ele>1446</ele>
        <time>2017-05-25T11:34:32.000Z</time>
      </trkpt>
      <trkpt lat="44.10563" lon="7.08241">
        <ele>1446</ele>
        <time>2017-05-25T11:34:35.000Z</time>
      </trkpt>
      <trkpt lat="44.10566" lon="7.08234">
        <ele>1447</ele>
        <time>2017-05-25T11:34:40.000Z</time>
      </trkpt>
      <trkpt lat="44.10566" lon="7.08232">
        <ele>1447</ele>
        <time>2017-05-25T11:34:41.000Z</time>
      </trkpt>
      <trkpt lat="44.10567" lon="7.08227">
        <ele>1448</ele>
        <time>2017-05-25T11:34:44.000Z</time>
      </trkpt>
      <trkpt lat="44.1057" lon="7.08222">
        <ele>1449</ele>
        <time>2017-05-25T11:34:47.000Z</time>
      </trkpt>
      <trkpt lat="44.10573" lon="7.08215">
        <ele>1451</ele>
        <time>2017-05-25T11:34:51.000Z</time>
      </trkpt>
      <trkpt lat="44.10573" lon="7.08213">
        <ele>1451</ele>
        <time>2017-05-25T11:34:52.000Z</time>
      </trkpt>
      <trkpt lat="44.10574" lon="7.08212">
        <ele>1451</ele>
        <time>2017-05-25T11:34:53.000Z</time>
      </trkpt>
      <trkpt lat="44.10576" lon="7.08204">
        <ele>1452</ele>
        <time>2017-05-25T11:34:57.000Z</time>
      </trkpt>
      <trkpt lat="44.10579" lon="7.08199">
        <ele>1453</ele>
        <time>2017-05-25T11:35:00.000Z</time>
      </trkpt>
      <trkpt lat="44.10579" lon="7.08197">
        <ele>1453</ele>
        <time>2017-05-25T11:35:01.000Z</time>
      </trkpt>
      <trkpt lat="44.10583" lon="7.08191">
        <ele>1453</ele>
        <time>2017-05-25T11:35:05.000Z</time>
      </trkpt>
      <trkpt lat="44.10584" lon="7.08189">
        <ele>1435</ele>
        <time>2017-05-25T11:35:06.000Z</time>
      </trkpt>
      <trkpt lat="44.10586" lon="7.08187">
        <ele>1436</ele>
        <time>2017-05-25T11:35:08.000Z</time>
      </trkpt>
      <trkpt lat="44.1059" lon="7.08177">
        <ele>1440</ele>
        <time>2017-05-25T11:35:13.000Z</time>
      </trkpt>
      <trkpt lat="44.10592" lon="7.08175">
        <ele>1440</ele>
        <time>2017-05-25T11:35:15.000Z</time>
      </trkpt>
      <trkpt lat="44.10595" lon="7.08169">
        <ele>1440</ele>
        <time>2017-05-25T11:35:19.000Z</time>
      </trkpt>
      <trkpt lat="44.10598" lon="7.08162">
        <ele>1446</ele>
        <time>2017-05-25T11:35:23.000Z</time>
      </trkpt>
      <trkpt lat="44.10602" lon="7.08157">
        <ele>1445</ele>
        <time>2017-05-25T11:35:26.000Z</time>
      </trkpt>
      <trkpt lat="44.10607" lon="7.08146">
        <ele>1444</ele>
        <time>2017-05-25T11:35:32.000Z</time>
      </trkpt>
      <trkpt lat="44.1061" lon="7.08136">
        <ele>1444</ele>
        <time>2017-05-25T11:35:37.000Z</time>
      </trkpt>
      <trkpt lat="44.10611" lon="7.08134">
        <ele>1444</ele>
        <time>2017-05-25T11:35:38.000Z</time>
      </trkpt>
      <trkpt lat="44.10615" lon="7.08121">
        <ele>1444</ele>
        <time>2017-05-25T11:35:44.000Z</time>
      </trkpt>
      <trkpt lat="44.10621" lon="7.08109">
        <ele>1444</ele>
        <time>2017-05-25T11:35:50.000Z</time>
      </trkpt>
      <trkpt lat="44.10624" lon="7.08103">
        <ele>1444</ele>
        <time>2017-05-25T11:35:53.000Z</time>
      </trkpt>
      <trkpt lat="44.10625" lon="7.08099">
        <ele>1444</ele>
        <time>2017-05-25T11:35:55.000Z</time>
      </trkpt>
      <trkpt lat="44.10632" lon="7.08087">
        <ele>1442</ele>
        <time>2017-05-25T11:36:01.000Z</time>
      </trkpt>
      <trkpt lat="44.10632" lon="7.08085">
        <ele>1442</ele>
        <time>2017-05-25T11:36:02.000Z</time>
      </trkpt>
      <trkpt lat="44.10636" lon="7.08078">
        <ele>1453</ele>
        <time>2017-05-25T11:36:05.000Z</time>
      </trkpt>
      <trkpt lat="44.10639" lon="7.08074">
        <ele>1453</ele>
        <time>2017-05-25T11:36:07.000Z</time>
      </trkpt>
      <trkpt lat="44.1064" lon="7.08072">
        <ele>1452</ele>
        <time>2017-05-25T11:36:08.000Z</time>
      </trkpt>
      <trkpt lat="44.10647" lon="7.0806">
        <ele>1452</ele>
        <time>2017-05-25T11:36:13.000Z</time>
      </trkpt>
      <trkpt lat="44.10654" lon="7.0804">
        <ele>1455</ele>
        <time>2017-05-25T11:36:21.000Z</time>
      </trkpt>
      <trkpt lat="44.10655" lon="7.08038">
        <ele>1456</ele>
        <time>2017-05-25T11:36:22.000Z</time>
      </trkpt>
      <trkpt lat="44.10659" lon="7.08028">
        <ele>1456</ele>
        <time>2017-05-25T11:36:26.000Z</time>
      </trkpt>
      <trkpt lat="44.1066" lon="7.08026">
        <ele>1456</ele>
        <time>2017-05-25T11:36:27.000Z</time>
      </trkpt>
      <trkpt lat="44.10662" lon="7.08021">
        <ele>1455</ele>
        <time>2017-05-25T11:36:29.000Z</time>
      </trkpt>
      <trkpt lat="44.10665" lon="7.08014">
        <ele>1454</ele>
        <time>2017-05-25T11:36:32.000Z</time>
      </trkpt>
      <trkpt lat="44.1067" lon="7.08001">
        <ele>1444</ele>
        <time>2017-05-25T11:36:37.000Z</time>
      </trkpt>
      <trkpt lat="44.10671" lon="7.07996">
        <ele>1446</ele>
        <time>2017-05-25T11:36:39.000Z</time>
      </trkpt>
      <trkpt lat="44.10675" lon="7.07984">
        <ele>1443</ele>
        <time>2017-05-25T11:36:44.000Z</time>
      </trkpt>
      <trkpt lat="44.1068" lon="7.07971">
        <ele>1442</ele>
        <time>2017-05-25T11:36:50.000Z</time>
      </trkpt>
      <trkpt lat="44.10686" lon="7.07957">
        <ele>1442</ele>
        <time>2017-05-25T11:36:55.000Z</time>
      </trkpt>
      <trkpt lat="44.10694" lon="7.07935">
        <ele>1444</ele>
        <time>2017-05-25T11:37:02.000Z</time>
      </trkpt>
      <trkpt lat="44.10699" lon="7.07923">
        <ele>1444</ele>
        <time>2017-05-25T11:37:06.000Z</time>
      </trkpt>
      <trkpt lat="44.10701" lon="7.0792">
        <ele>1443</ele>
        <time>2017-05-25T11:37:07.000Z</time>
      </trkpt>
      <trkpt lat="44.10712" lon="7.079">
        <ele>1452</ele>
        <time>2017-05-25T11:37:13.000Z</time>
      </trkpt>
      <trkpt lat="44.10721" lon="7.0788">
        <ele>1451</ele>
        <time>2017-05-25T11:37:19.000Z</time>
      </trkpt>
      <trkpt lat="44.10734" lon="7.07853">
        <ele>1449</ele>
        <time>2017-05-25T11:37:26.000Z</time>
      </trkpt>
      <trkpt lat="44.10742" lon="7.07826">
        <ele>1450</ele>
        <time>2017-05-25T11:37:32.000Z</time>
      </trkpt>
      <trkpt lat="44.10745" lon="7.07808">
        <ele>1459</ele>
        <time>2017-05-25T11:37:36.000Z</time>
      </trkpt>
      <trkpt lat="44.10744" lon="7.07803">
        <ele>1461</ele>
        <time>2017-05-25T11:37:37.000Z</time>
      </trkpt>
      <trkpt lat="44.10745" lon="7.07783">
        <ele>1465</ele>
        <time>2017-05-25T11:37:41.000Z</time>
      </trkpt>
      <trkpt lat="44.10746" lon="7.0776">
        <ele>1462</ele>
        <time>2017-05-25T11:37:46.000Z</time>
      </trkpt>
      <trkpt lat="44.10748" lon="7.07748">
        <ele>1460</ele>
        <time>2017-05-25T11:37:48.000Z</time>
      </trkpt>
      <trkpt lat="44.10753" lon="7.07739">
        <ele>1452</ele>
        <time>2017-05-25T11:37:50.000Z</time>
      </trkpt>
      <trkpt lat="44.1076" lon="7.0773">
        <ele>1449</ele>
        <time>2017-05-25T11:37:52.000Z</time>
      </trkpt>
      <trkpt lat="44.10769" lon="7.07719">
        <ele>1448</ele>
        <time>2017-05-25T11:37:55.000Z</time>
      </trkpt>
      <trkpt lat="44.10772" lon="7.07716">
        <ele>1447</ele>
        <time>2017-05-25T11:37:56.000Z</time>
      </trkpt>
      <trkpt lat="44.10788" lon="7.07699">
        <ele>1446</ele>
        <time>2017-05-25T11:38:02.000Z</time>
      </trkpt>
      <trkpt lat="44.10803" lon="7.07681">
        <ele>1443</ele>
        <time>2017-05-25T11:38:08.000Z</time>
      </trkpt>
      <trkpt lat="44.10813" lon="7.07665">
        <ele>1453</ele>
        <time>2017-05-25T11:38:13.000Z</time>
      </trkpt>
      <trkpt lat="44.10815" lon="7.07662">
        <ele>1452</ele>
        <time>2017-05-25T11:38:14.000Z</time>
      </trkpt>
      <trkpt lat="44.10831" lon="7.07641">
        <ele>1455</ele>
        <time>2017-05-25T11:38:22.000Z</time>
      </trkpt>
      <trkpt lat="44.1085" lon="7.0762">
        <ele>1437</ele>
        <time>2017-05-25T11:38:30.000Z</time>
      </trkpt>
      <trkpt lat="44.10862" lon="7.07602">
        <ele>1438</ele>
        <time>2017-05-25T11:38:36.000Z</time>
      </trkpt>
      <trkpt lat="44.10866" lon="7.07596">
        <ele>1438</ele>
        <time>2017-05-25T11:38:38.000Z</time>
      </trkpt>
      <trkpt lat="44.10871" lon="7.07586">
        <ele>1438</ele>
        <time>2017-05-25T11:38:41.000Z</time>
      </trkpt>
      <trkpt lat="44.10884" lon="7.07567">
        <ele>1456</ele>
        <time>2017-05-25T11:38:47.000Z</time>
      </trkpt>
      <trkpt lat="44.10895" lon="7.07552">
        <ele>1456</ele>
        <time>2017-05-25T11:38:52.000Z</time>
      </trkpt>
      <trkpt lat="44.10909" lon="7.0753">
        <ele>1459</ele>
        <time>2017-05-25T11:38:59.000Z</time>
      </trkpt>
      <trkpt lat="44.10911" lon="7.07527">
        <ele>1460</ele>
        <time>2017-05-25T11:39:00.000Z</time>
      </trkpt>
      <trkpt lat="44.10925" lon="7.07508">
        <ele>1450</ele>
        <time>2017-05-25T11:39:07.000Z</time>
      </trkpt>
      <trkpt lat="44.10928" lon="7.07503">
        <ele>1450</ele>
        <time>2017-05-25T11:39:09.000Z</time>
      </trkpt>
      <trkpt lat="44.10934" lon="7.07495">
        <ele>1459</ele>
        <time>2017-05-25T11:39:12.000Z</time>
      </trkpt>
      <trkpt lat="44.10946" lon="7.07476">
        <ele>1458</ele>
        <time>2017-05-25T11:39:18.000Z</time>
      </trkpt>
      <trkpt lat="44.10949" lon="7.0747">
        <ele>1458</ele>
        <time>2017-05-25T11:39:20.000Z</time>
      </trkpt>
      <trkpt lat="44.10956" lon="7.07455">
        <ele>1459</ele>
        <time>2017-05-25T11:39:25.000Z</time>
      </trkpt>
      <trkpt lat="44.10958" lon="7.07452">
        <ele>1459</ele>
        <time>2017-05-25T11:39:26.000Z</time>
      </trkpt>
      <trkpt lat="44.10964" lon="7.07442">
        <ele>1459</ele>
        <time>2017-05-25T11:39:30.000Z</time>
      </trkpt>
      <trkpt lat="44.10966" lon="7.07439">
        <ele>1459</ele>
        <time>2017-05-25T11:39:31.000Z</time>
      </trkpt>
      <trkpt lat="44.10973" lon="7.07427">
        <ele>1459</ele>
        <time>2017-05-25T11:39:36.000Z</time>
      </trkpt>
      <trkpt lat="44.10975" lon="7.07425">
        <ele>1458</ele>
        <time>2017-05-25T11:39:37.000Z</time>
      </trkpt>
      <trkpt lat="44.10984" lon="7.07417">
        <ele>1469</ele>
        <time>2017-05-25T11:39:42.000Z</time>
      </trkpt>
      <trkpt lat="44.10987" lon="7.07415">
        <ele>1468</ele>
        <time>2017-05-25T11:39:43.000Z</time>
      </trkpt>
      <trkpt lat="44.10997" lon="7.07409">
        <ele>1464</ele>
        <time>2017-05-25T11:39:48.000Z</time>
      </trkpt>
      <trkpt lat="44.10999" lon="7.07408">
        <ele>1464</ele>
        <time>2017-05-25T11:39:49.000Z</time>
      </trkpt>
      <trkpt lat="44.11007" lon="7.07408">
        <ele>1462</ele>
        <time>2017-05-25T11:39:53.000Z</time>
      </trkpt>
      <trkpt lat="44.11012" lon="7.07408">
        <ele>1464</ele>
        <time>2017-05-25T11:39:55.000Z</time>
      </trkpt>
      <trkpt lat="44.1102" lon="7.07407">
        <ele>1466</ele>
        <time>2017-05-25T11:39:59.000Z</time>
      </trkpt>
      <trkpt lat="44.11026" lon="7.07406">
        <ele>1467</ele>
        <time>2017-05-25T11:40:02.000Z</time>
      </trkpt>
      <trkpt lat="44.11037" lon="7.07404">
        <ele>1468</ele>
        <time>2017-05-25T11:40:07.000Z</time>
      </trkpt>
      <trkpt lat="44.11039" lon="7.07404">
        <ele>1468</ele>
        <time>2017-05-25T11:40:08.000Z</time>
      </trkpt>
      <trkpt lat="44.1105" lon="7.07404">
        <ele>1468</ele>
        <time>2017-05-25T11:40:14.000Z</time>
      </trkpt>
      <trkpt lat="44.11054" lon="7.07405">
        <ele>1468</ele>
        <time>2017-05-25T11:40:16.000Z</time>
      </trkpt>
      <trkpt lat="44.11065" lon="7.07405">
        <ele>1467</ele>
        <time>2017-05-25T11:40:22.000Z</time>
      </trkpt>
      <trkpt lat="44.11067" lon="7.07405">
        <ele>1466</ele>
        <time>2017-05-25T11:40:23.000Z</time>
      </trkpt>
      <trkpt lat="44.11078" lon="7.07405">
        <ele>1465</ele>
        <time>2017-05-25T11:40:29.000Z</time>
      </trkpt>
      <trkpt lat="44.11081" lon="7.07406">
        <ele>1464</ele>
        <time>2017-05-25T11:40:31.000Z</time>
      </trkpt>
      <trkpt lat="44.11088" lon="7.07407">
        <ele>1465</ele>
        <time>2017-05-25T11:40:35.000Z</time>
      </trkpt>
      <trkpt lat="44.11091" lon="7.07407">
        <ele>1465</ele>
        <time>2017-05-25T11:40:36.000Z</time>
      </trkpt>
      <trkpt lat="44.11104" lon="7.07405">
        <ele>1468</ele>
        <time>2017-05-25T11:40:43.000Z</time>
      </trkpt>
      <trkpt lat="44.11106" lon="7.07406">
        <ele>1468</ele>
        <time>2017-05-25T11:40:44.000Z</time>
      </trkpt>
      <trkpt lat="44.11123" lon="7.07408">
        <ele>1470</ele>
        <time>2017-05-25T11:40:52.000Z</time>
      </trkpt>
      <trkpt lat="44.11125" lon="7.07409">
        <ele>1470</ele>
        <time>2017-05-25T11:40:53.000Z</time>
      </trkpt>
      <trkpt lat="44.11141" lon="7.07415">
        <ele>1469</ele>
        <time>2017-05-25T11:41:01.000Z</time>
      </trkpt>
      <trkpt lat="44.11153" lon="7.07418">
        <ele>1455</ele>
        <time>2017-05-25T11:41:07.000Z</time>
      </trkpt>
      <trkpt lat="44.11157" lon="7.07417">
        <ele>1457</ele>
        <time>2017-05-25T11:41:09.000Z</time>
      </trkpt>
      <trkpt lat="44.11165" lon="7.07411">
        <ele>1465</ele>
        <time>2017-05-25T11:41:14.000Z</time>
      </trkpt>
      <trkpt lat="44.11168" lon="7.07409">
        <ele>1464</ele>
        <time>2017-05-25T11:41:16.000Z</time>
      </trkpt>
      <trkpt lat="44.11181" lon="7.07402">
        <ele>1464</ele>
        <time>2017-05-25T11:41:23.000Z</time>
      </trkpt>
      <trkpt lat="44.11193" lon="7.07393">
        <ele>1464</ele>
        <time>2017-05-25T11:41:28.000Z</time>
      </trkpt>
      <trkpt lat="44.1121" lon="7.07376">
        <ele>1465</ele>
        <time>2017-05-25T11:41:34.000Z</time>
      </trkpt>
      <trkpt lat="44.11222" lon="7.07358">
        <ele>1466</ele>
        <time>2017-05-25T11:41:39.000Z</time>
      </trkpt>
      <trkpt lat="44.11241" lon="7.07329">
        <ele>1474</ele>
        <time>2017-05-25T11:41:46.000Z</time>
      </trkpt>
      <trkpt lat="44.11256" lon="7.07307">
        <ele>1465</ele>
        <time>2017-05-25T11:41:52.000Z</time>
      </trkpt>
      <trkpt lat="44.11264" lon="7.07285">
        <ele>1467</ele>
        <time>2017-05-25T11:41:57.000Z</time>
      </trkpt>
      <trkpt lat="44.11267" lon="7.07281">
        <ele>1468</ele>
        <time>2017-05-25T11:41:58.000Z</time>
      </trkpt>
      <trkpt lat="44.11276" lon="7.07276">
        <ele>1467</ele>
        <time>2017-05-25T11:42:00.000Z</time>
      </trkpt>
      <trkpt lat="44.11288" lon="7.07259">
        <ele>1467</ele>
        <time>2017-05-25T11:42:04.000Z</time>
      </trkpt>
      <trkpt lat="44.11297" lon="7.0724">
        <ele>1484</ele>
        <time>2017-05-25T11:42:08.000Z</time>
      </trkpt>
      <trkpt lat="44.11301" lon="7.07235">
        <ele>1484</ele>
        <time>2017-05-25T11:42:09.000Z</time>
      </trkpt>
      <trkpt lat="44.11311" lon="7.07233">
        <ele>1481</ele>
        <time>2017-05-25T11:42:11.000Z</time>
      </trkpt>
      <trkpt lat="44.11322" lon="7.07241">
        <ele>1475</ele>
        <time>2017-05-25T11:42:14.000Z</time>
      </trkpt>
      <trkpt lat="44.11326" lon="7.07244">
        <ele>1472</ele>
        <time>2017-05-25T11:42:15.000Z</time>
      </trkpt>
      <trkpt lat="44.1133" lon="7.07245">
        <ele>1468</ele>
        <time>2017-05-25T11:42:16.000Z</time>
      </trkpt>
      <trkpt lat="44.11338" lon="7.07247">
        <ele>1463</ele>
        <time>2017-05-25T11:42:18.000Z</time>
      </trkpt>
      <trkpt lat="44.11342" lon="7.07247">
        <ele>1464</ele>
        <time>2017-05-25T11:42:19.000Z</time>
      </trkpt>
      <trkpt lat="44.11357" lon="7.0725">
        <ele>1465</ele>
        <time>2017-05-25T11:42:23.000Z</time>
      </trkpt>
      <trkpt lat="44.11366" lon="7.07256">
        <ele>1448</ele>
        <time>2017-05-25T11:42:26.000Z</time>
      </trkpt>
      <trkpt lat="44.11382" lon="7.07264">
        <ele>1446</ele>
        <time>2017-05-25T11:42:32.000Z</time>
      </trkpt>
      <trkpt lat="44.11393" lon="7.07255">
        <ele>1446</ele>
        <time>2017-05-25T11:42:36.000Z</time>
      </trkpt>
      <trkpt lat="44.11399" lon="7.07242">
        <ele>1459</ele>
        <time>2017-05-25T11:42:41.000Z</time>
      </trkpt>
      <trkpt lat="44.11407" lon="7.07223">
        <ele>1462</ele>
        <time>2017-05-25T11:42:47.000Z</time>
      </trkpt>
      <trkpt lat="44.11417" lon="7.07202">
        <ele>1442</ele>
        <time>2017-05-25T11:42:53.000Z</time>
      </trkpt>
      <trkpt lat="44.11423" lon="7.07175">
        <ele>1455</ele>
        <time>2017-05-25T11:43:00.000Z</time>
      </trkpt>
      <trkpt lat="44.11419" lon="7.07158">
        <ele>1462</ele>
        <time>2017-05-25T11:43:05.000Z</time>
      </trkpt>
      <trkpt lat="44.11411" lon="7.07131">
        <ele>1483</ele>
        <time>2017-05-25T11:43:12.000Z</time>
      </trkpt>
      <trkpt lat="44.11409" lon="7.07111">
        <ele>1484</ele>
        <time>2017-05-25T11:43:17.000Z</time>
      </trkpt>
      <trkpt lat="44.11412" lon="7.07091">
        <ele>1480</ele>
        <time>2017-05-25T11:43:22.000Z</time>
      </trkpt>
      <trkpt lat="44.11414" lon="7.07087">
        <ele>1478</ele>
        <time>2017-05-25T11:43:23.000Z</time>
      </trkpt>
      <trkpt lat="44.11419" lon="7.07078">
        <ele>1474</ele>
        <time>2017-05-25T11:43:26.000Z</time>
      </trkpt>
      <trkpt lat="44.11422" lon="7.07076">
        <ele>1474</ele>
        <time>2017-05-25T11:43:27.000Z</time>
      </trkpt>
      <trkpt lat="44.11433" lon="7.0707">
        <ele>1473</ele>
        <time>2017-05-25T11:43:32.000Z</time>
      </trkpt>
      <trkpt lat="44.11443" lon="7.0707">
        <ele>1471</ele>
        <time>2017-05-25T11:43:36.000Z</time>
      </trkpt>
      <trkpt lat="44.11446" lon="7.07068">
        <ele>1470</ele>
        <time>2017-05-25T11:43:37.000Z</time>
      </trkpt>
      <trkpt lat="44.11453" lon="7.07063">
        <ele>1469</ele>
        <time>2017-05-25T11:43:41.000Z</time>
      </trkpt>
      <trkpt lat="44.11456" lon="7.07061">
        <ele>1469</ele>
        <time>2017-05-25T11:43:42.000Z</time>
      </trkpt>
      <trkpt lat="44.11479" lon="7.07046">
        <ele>1466</ele>
        <time>2017-05-25T11:43:50.000Z</time>
      </trkpt>
      <trkpt lat="44.11492" lon="7.07031">
        <ele>1468</ele>
        <time>2017-05-25T11:43:56.000Z</time>
      </trkpt>
      <trkpt lat="44.11505" lon="7.07013">
        <ele>1451</ele>
        <time>2017-05-25T11:44:02.000Z</time>
      </trkpt>
      <trkpt lat="44.11518" lon="7.0699">
        <ele>1459</ele>
        <time>2017-05-25T11:44:09.000Z</time>
      </trkpt>
      <trkpt lat="44.11525" lon="7.06969">
        <ele>1456</ele>
        <time>2017-05-25T11:44:15.000Z</time>
      </trkpt>
      <trkpt lat="44.11535" lon="7.06952">
        <ele>1456</ele>
        <time>2017-05-25T11:44:21.000Z</time>
      </trkpt>
      <trkpt lat="44.11543" lon="7.06936">
        <ele>1454</ele>
        <time>2017-05-25T11:44:26.000Z</time>
      </trkpt>
      <trkpt lat="44.11545" lon="7.06929">
        <ele>1454</ele>
        <time>2017-05-25T11:44:28.000Z</time>
      </trkpt>
      <trkpt lat="44.11546" lon="7.06906">
        <ele>1460</ele>
        <time>2017-05-25T11:44:34.000Z</time>
      </trkpt>
      <trkpt lat="44.11543" lon="7.0688">
        <ele>1462</ele>
        <time>2017-05-25T11:44:41.000Z</time>
      </trkpt>
      <trkpt lat="44.11538" lon="7.0686">
        <ele>1464</ele>
        <time>2017-05-25T11:44:46.000Z</time>
      </trkpt>
      <trkpt lat="44.11527" lon="7.06828">
        <ele>1472</ele>
        <time>2017-05-25T11:44:55.000Z</time>
      </trkpt>
      <trkpt lat="44.11526" lon="7.06825">
        <ele>1472</ele>
        <time>2017-05-25T11:44:56.000Z</time>
      </trkpt>
      <trkpt lat="44.11519" lon="7.06801">
        <ele>1473</ele>
        <time>2017-05-25T11:45:02.000Z</time>
      </trkpt>
      <trkpt lat="44.11523" lon="7.06784">
        <ele>1473</ele>
        <time>2017-05-25T11:45:06.000Z</time>
      </trkpt>
      <trkpt lat="44.11532" lon="7.06772">
        <ele>1472</ele>
        <time>2017-05-25T11:45:11.000Z</time>
      </trkpt>
      <trkpt lat="44.11542" lon="7.06761">
        <ele>1468</ele>
        <time>2017-05-25T11:45:16.000Z</time>
      </trkpt>
      <trkpt lat="44.11554" lon="7.06736">
        <ele>1472</ele>
        <time>2017-05-25T11:45:23.000Z</time>
      </trkpt>
      <trkpt lat="44.11562" lon="7.06711">
        <ele>1473</ele>
        <time>2017-05-25T11:45:30.000Z</time>
      </trkpt>
      <trkpt lat="44.11565" lon="7.06688">
        <ele>1473</ele>
        <time>2017-05-25T11:45:36.000Z</time>
      </trkpt>
      <trkpt lat="44.11566" lon="7.06674">
        <ele>1471</ele>
        <time>2017-05-25T11:45:40.000Z</time>
      </trkpt>
      <trkpt lat="44.11567" lon="7.06662">
        <ele>1478</ele>
        <time>2017-05-25T11:45:43.000Z</time>
      </trkpt>
      <trkpt lat="44.11572" lon="7.0663">
        <ele>1487</ele>
        <time>2017-05-25T11:45:51.000Z</time>
      </trkpt>
      <trkpt lat="44.11575" lon="7.06608">
        <ele>1488</ele>
        <time>2017-05-25T11:45:57.000Z</time>
      </trkpt>
      <trkpt lat="44.11582" lon="7.06586">
        <ele>1480</ele>
        <time>2017-05-25T11:46:03.000Z</time>
      </trkpt>
      <trkpt lat="44.11588" lon="7.06572">
        <ele>1474</ele>
        <time>2017-05-25T11:46:07.000Z</time>
      </trkpt>
      <trkpt lat="44.11593" lon="7.06558">
        <ele>1472</ele>
        <time>2017-05-25T11:46:11.000Z</time>
      </trkpt>
      <trkpt lat="44.11593" lon="7.06555">
        <ele>1472</ele>
        <time>2017-05-25T11:46:12.000Z</time>
      </trkpt>
      <trkpt lat="44.11596" lon="7.06544">
        <ele>1472</ele>
        <time>2017-05-25T11:46:15.000Z</time>
      </trkpt>
      <trkpt lat="44.11599" lon="7.06541">
        <ele>1472</ele>
        <time>2017-05-25T11:46:16.000Z</time>
      </trkpt>
      <trkpt lat="44.11601" lon="7.06539">
        <ele>1473</ele>
        <time>2017-05-25T11:46:17.000Z</time>
      </trkpt>
      <trkpt lat="44.11601" lon="7.06535">
        <ele>1473</ele>
        <time>2017-05-25T11:46:18.000Z</time>
      </trkpt>
      <trkpt lat="44.11605" lon="7.06526">
        <ele>1474</ele>
        <time>2017-05-25T11:46:21.000Z</time>
      </trkpt>
      <trkpt lat="44.11613" lon="7.06514">
        <ele>1473</ele>
        <time>2017-05-25T11:46:25.000Z</time>
      </trkpt>
      <trkpt lat="44.11623" lon="7.06496">
        <ele>1482</ele>
        <time>2017-05-25T11:46:30.000Z</time>
      </trkpt>
      <trkpt lat="44.1163" lon="7.0648">
        <ele>1481</ele>
        <time>2017-05-25T11:46:35.000Z</time>
      </trkpt>
      <trkpt lat="44.11637" lon="7.06464">
        <ele>1481</ele>
        <time>2017-05-25T11:46:40.000Z</time>
      </trkpt>
      <trkpt lat="44.11641" lon="7.06454">
        <ele>1481</ele>
        <time>2017-05-25T11:46:43.000Z</time>
      </trkpt>
      <trkpt lat="44.11644" lon="7.06447">
        <ele>1481</ele>
        <time>2017-05-25T11:46:45.000Z</time>
      </trkpt>
      <trkpt lat="44.11653" lon="7.06436">
        <ele>1479</ele>
        <time>2017-05-25T11:46:49.000Z</time>
      </trkpt>
      <trkpt lat="44.11662" lon="7.06423">
        <ele>1474</ele>
        <time>2017-05-25T11:46:53.000Z</time>
      </trkpt>
      <trkpt lat="44.11664" lon="7.0642">
        <ele>1472</ele>
        <time>2017-05-25T11:46:54.000Z</time>
      </trkpt>
      <trkpt lat="44.11674" lon="7.06406">
        <ele>1470</ele>
        <time>2017-05-25T11:46:59.000Z</time>
      </trkpt>
      <trkpt lat="44.11683" lon="7.0639">
        <ele>1470</ele>
        <time>2017-05-25T11:47:04.000Z</time>
      </trkpt>
      <trkpt lat="44.11688" lon="7.06381">
        <ele>1470</ele>
        <time>2017-05-25T11:47:07.000Z</time>
      </trkpt>
      <trkpt lat="44.11693" lon="7.06366">
        <ele>1472</ele>
        <time>2017-05-25T11:47:12.000Z</time>
      </trkpt>
      <trkpt lat="44.11694" lon="7.06362">
        <ele>1472</ele>
        <time>2017-05-25T11:47:13.000Z</time>
      </trkpt>
      <trkpt lat="44.117" lon="7.06349">
        <ele>1473</ele>
        <time>2017-05-25T11:47:17.000Z</time>
      </trkpt>
      <trkpt lat="44.11707" lon="7.06328">
        <ele>1481</ele>
        <time>2017-05-25T11:47:23.000Z</time>
      </trkpt>
      <trkpt lat="44.11707" lon="7.06324">
        <ele>1481</ele>
        <time>2017-05-25T11:47:24.000Z</time>
      </trkpt>
      <trkpt lat="44.11708" lon="7.06305">
        <ele>1482</ele>
        <time>2017-05-25T11:47:31.000Z</time>
      </trkpt>
      <trkpt lat="44.11706" lon="7.06295">
        <ele>1482</ele>
        <time>2017-05-25T11:47:37.000Z</time>
      </trkpt>
      <trkpt lat="44.11706" lon="7.06293">
        <ele>1483</ele>
        <time>2017-05-25T11:47:38.000Z</time>
      </trkpt>
      <trkpt lat="44.11705" lon="7.06289">
        <ele>1483</ele>
        <time>2017-05-25T11:47:42.000Z</time>
      </trkpt>
      <trkpt lat="44.11704" lon="7.06291">
        <ele>1483</ele>
        <time>2017-05-25T11:47:47.000Z</time>
      </trkpt>
      <trkpt lat="44.11704" lon="7.06291">
        <ele>1483</ele>
        <time>2017-05-25T11:47:52.000Z</time>
      </trkpt>
      <trkpt lat="44.11704" lon="7.06288">
        <ele>1483</ele>
        <time>2017-05-25T11:48:07.000Z</time>
      </trkpt>
      <trkpt lat="44.11705" lon="7.06287">
        <ele>1483</ele>
        <time>2017-05-25T11:48:19.000Z</time>
      </trkpt>
      <trkpt lat="44.11706" lon="7.06285">
        <ele>1483</ele>
        <time>2017-05-25T11:48:27.000Z</time>
      </trkpt>
      <trkpt lat="44.11707" lon="7.06285">
        <ele>1483</ele>
        <time>2017-05-25T11:48:35.000Z</time>
      </trkpt>
      <trkpt lat="44.11707" lon="7.06285">
        <ele>1483</ele>
        <time>2017-05-25T11:48:52.000Z</time>
      </trkpt>
      <trkpt lat="44.11707" lon="7.06284">
        <ele>1483</ele>
        <time>2017-05-25T11:48:54.000Z</time>
      </trkpt>
      <trkpt lat="44.1171" lon="7.06284">
        <ele>1482</ele>
        <time>2017-05-25T11:49:11.000Z</time>
      </trkpt>
      <trkpt lat="44.11712" lon="7.06283">
        <ele>1482</ele>
        <time>2017-05-25T11:49:19.000Z</time>
      </trkpt>
      <trkpt lat="44.11721" lon="7.0628">
        <ele>1481</ele>
        <time>2017-05-25T11:49:24.000Z</time>
      </trkpt>
      <trkpt lat="44.11727" lon="7.06284">
        <ele>1479</ele>
        <time>2017-05-25T11:49:26.000Z</time>
      </trkpt>
      <trkpt lat="44.1173" lon="7.06289">
        <ele>1479</ele>
        <time>2017-05-25T11:49:27.000Z</time>
      </trkpt>
      <trkpt lat="44.11736" lon="7.06302">
        <ele>1477</ele>
        <time>2017-05-25T11:49:29.000Z</time>
      </trkpt>
      <trkpt lat="44.11737" lon="7.06306">
        <ele>1476</ele>
        <time>2017-05-25T11:49:30.000Z</time>
      </trkpt>
      <trkpt lat="44.11739" lon="7.06311">
        <ele>1475</ele>
        <time>2017-05-25T11:49:31.000Z</time>
      </trkpt>
      <trkpt lat="44.11742" lon="7.06322">
        <ele>1471</ele>
        <time>2017-05-25T11:49:33.000Z</time>
      </trkpt>
      <trkpt lat="44.11743" lon="7.0633">
        <ele>1468</ele>
        <time>2017-05-25T11:49:34.000Z</time>
      </trkpt>
      <trkpt lat="44.11743" lon="7.06338">
        <ele>1465</ele>
        <time>2017-05-25T11:49:35.000Z</time>
      </trkpt>
      <trkpt lat="44.11742" lon="7.06346">
        <ele>1465</ele>
        <time>2017-05-25T11:49:36.000Z</time>
      </trkpt>
      <trkpt lat="44.11743" lon="7.06357">
        <ele>1465</ele>
        <time>2017-05-25T11:49:38.000Z</time>
      </trkpt>
      <trkpt lat="44.11744" lon="7.06365">
        <ele>1465</ele>
        <time>2017-05-25T11:49:39.000Z</time>
      </trkpt>
      <trkpt lat="44.11745" lon="7.06374">
        <ele>1464</ele>
        <time>2017-05-25T11:49:40.000Z</time>
      </trkpt>
      <trkpt lat="44.11746" lon="7.06393">
        <ele>1460</ele>
        <time>2017-05-25T11:49:42.000Z</time>
      </trkpt>
      <trkpt lat="44.11749" lon="7.0641">
        <ele>1454</ele>
        <time>2017-05-25T11:49:44.000Z</time>
      </trkpt>
      <trkpt lat="44.11752" lon="7.06418">
        <ele>1448</ele>
        <time>2017-05-25T11:49:45.000Z</time>
      </trkpt>
      <trkpt lat="44.11753" lon="7.06424">
        <ele>1446</ele>
        <time>2017-05-25T11:49:46.000Z</time>
      </trkpt>
      <trkpt lat="44.11753" lon="7.06429">
        <ele>1445</ele>
        <time>2017-05-25T11:49:47.000Z</time>
      </trkpt>
      <trkpt lat="44.11751" lon="7.06434">
        <ele>1444</ele>
        <time>2017-05-25T11:49:49.000Z</time>
      </trkpt>
      <trkpt lat="44.11747" lon="7.06443">
        <ele>1449</ele>
        <time>2017-05-25T11:49:52.000Z</time>
      </trkpt>
      <trkpt lat="44.11743" lon="7.06448">
        <ele>1449</ele>
        <time>2017-05-25T11:49:53.000Z</time>
      </trkpt>
      <trkpt lat="44.11733" lon="7.06461">
        <ele>1448</ele>
        <time>2017-05-25T11:49:55.000Z</time>
      </trkpt>
      <trkpt lat="44.11727" lon="7.06468">
        <ele>1447</ele>
        <time>2017-05-25T11:49:56.000Z</time>
      </trkpt>
      <trkpt lat="44.11715" lon="7.06486">
        <ele>1447</ele>
        <time>2017-05-25T11:49:58.000Z</time>
      </trkpt>
      <trkpt lat="44.11706" lon="7.06502">
        <ele>1436</ele>
        <time>2017-05-25T11:50:00.000Z</time>
      </trkpt>
      <trkpt lat="44.11704" lon="7.06505">
        <ele>1437</ele>
        <time>2017-05-25T11:50:01.000Z</time>
      </trkpt>
      <trkpt lat="44.11703" lon="7.06507">
        <ele>1437</ele>
        <time>2017-05-25T11:50:02.000Z</time>
      </trkpt>
      <trkpt lat="44.11702" lon="7.06508">
        <ele>1437</ele>
        <time>2017-05-25T11:50:03.000Z</time>
      </trkpt>
      <trkpt lat="44.11702" lon="7.06507">
        <ele>1437</ele>
        <time>2017-05-25T11:50:04.000Z</time>
      </trkpt>
      <trkpt lat="44.11702" lon="7.06507">
        <ele>1437</ele>
        <time>2017-05-25T11:50:05.000Z</time>
      </trkpt>
      <trkpt lat="44.11702" lon="7.06508">
        <ele>1437</ele>
        <time>2017-05-25T11:50:06.000Z</time>
      </trkpt>
      <trkpt lat="44.11704" lon="7.06512">
        <ele>1436</ele>
        <time>2017-05-25T11:50:09.000Z</time>
      </trkpt>
      <trkpt lat="44.11706" lon="7.06513">
        <ele>1436</ele>
        <time>2017-05-25T11:50:10.000Z</time>
      </trkpt>
      <trkpt lat="44.11714" lon="7.06519">
        <ele>1434</ele>
        <time>2017-05-25T11:50:13.000Z</time>
      </trkpt>
      <trkpt lat="44.11715" lon="7.06522">
        <ele>1434</ele>
        <time>2017-05-25T11:50:14.000Z</time>
      </trkpt>
      <trkpt lat="44.11716" lon="7.06524">
        <ele>1433</ele>
        <time>2017-05-25T11:50:15.000Z</time>
      </trkpt>
      <trkpt lat="44.11718" lon="7.06531">
        <ele>1433</ele>
        <time>2017-05-25T11:50:18.000Z</time>
      </trkpt>
      <trkpt lat="44.11715" lon="7.06531">
        <ele>1433</ele>
        <time>2017-05-25T11:50:20.000Z</time>
      </trkpt>
      <trkpt lat="44.11714" lon="7.06532">
        <ele>1433</ele>
        <time>2017-05-25T11:50:21.000Z</time>
      </trkpt>
      <trkpt lat="44.11713" lon="7.06533">
        <ele>1433</ele>
        <time>2017-05-25T11:50:22.000Z</time>
      </trkpt>
      <trkpt lat="44.11715" lon="7.06539">
        <ele>1432</ele>
        <time>2017-05-25T11:50:25.000Z</time>
      </trkpt>
      <trkpt lat="44.11716" lon="7.06541">
        <ele>1431</ele>
        <time>2017-05-25T11:50:26.000Z</time>
      </trkpt>
      <trkpt lat="44.11721" lon="7.06546">
        <ele>1430</ele>
        <time>2017-05-25T11:50:28.000Z</time>
      </trkpt>
      <trkpt lat="44.11726" lon="7.06552">
        <ele>1429</ele>
        <time>2017-05-25T11:50:30.000Z</time>
      </trkpt>
      <trkpt lat="44.11727" lon="7.06556">
        <ele>1428</ele>
        <time>2017-05-25T11:50:31.000Z</time>
      </trkpt>
      <trkpt lat="44.11727" lon="7.06563">
        <ele>1426</ele>
        <time>2017-05-25T11:50:33.000Z</time>
      </trkpt>
      <trkpt lat="44.11725" lon="7.06567">
        <ele>1426</ele>
        <time>2017-05-25T11:50:34.000Z</time>
      </trkpt>
      <trkpt lat="44.11722" lon="7.06567">
        <ele>1427</ele>
        <time>2017-05-25T11:50:36.000Z</time>
      </trkpt>
      <trkpt lat="44.11721" lon="7.0657">
        <ele>1427</ele>
        <time>2017-05-25T11:50:38.000Z</time>
      </trkpt>
      <trkpt lat="44.11722" lon="7.06571">
        <ele>1426</ele>
        <time>2017-05-25T11:50:39.000Z</time>
      </trkpt>
      <trkpt lat="44.11723" lon="7.06574">
        <ele>1426</ele>
        <time>2017-05-25T11:50:40.000Z</time>
      </trkpt>
      <trkpt lat="44.11725" lon="7.06578">
        <ele>1425</ele>
        <time>2017-05-25T11:50:42.000Z</time>
      </trkpt>
      <trkpt lat="44.11727" lon="7.06581">
        <ele>1424</ele>
        <time>2017-05-25T11:50:44.000Z</time>
      </trkpt>
      <trkpt lat="44.11727" lon="7.06584">
        <ele>1416</ele>
        <time>2017-05-25T11:50:46.000Z</time>
      </trkpt>
      <trkpt lat="44.11727" lon="7.06583">
        <ele>1424</ele>
        <time>2017-05-25T11:50:47.000Z</time>
      </trkpt>
      <trkpt lat="44.11724" lon="7.06584">
        <ele>1416</ele>
        <time>2017-05-25T11:50:52.000Z</time>
      </trkpt>
      <trkpt lat="44.11724" lon="7.06585">
        <ele>1416</ele>
        <time>2017-05-25T11:50:54.000Z</time>
      </trkpt>
      <trkpt lat="44.11724" lon="7.06585">
        <ele>1416</ele>
        <time>2017-05-25T11:50:56.000Z</time>
      </trkpt>
      <trkpt lat="44.1172" lon="7.06589">
        <ele>1417</ele>
        <time>2017-05-25T11:51:02.000Z</time>
      </trkpt>
      <trkpt lat="44.11716" lon="7.06603">
        <ele>1418</ele>
        <time>2017-05-25T11:51:05.000Z</time>
      </trkpt>
      <trkpt lat="44.11715" lon="7.06606">
        <ele>1418</ele>
        <time>2017-05-25T11:51:06.000Z</time>
      </trkpt>
      <trkpt lat="44.11712" lon="7.06614">
        <ele>1418</ele>
        <time>2017-05-25T11:51:08.000Z</time>
      </trkpt>
      <trkpt lat="44.11713" lon="7.06615">
        <ele>1418</ele>
        <time>2017-05-25T11:51:09.000Z</time>
      </trkpt>
      <trkpt lat="44.11714" lon="7.06619">
        <ele>1418</ele>
        <time>2017-05-25T11:51:10.000Z</time>
      </trkpt>
      <trkpt lat="44.11716" lon="7.06622">
        <ele>1417</ele>
        <time>2017-05-25T11:51:11.000Z</time>
      </trkpt>
      <trkpt lat="44.11719" lon="7.06626">
        <ele>1416</ele>
        <time>2017-05-25T11:51:14.000Z</time>
      </trkpt>
      <trkpt lat="44.11721" lon="7.06627">
        <ele>1416</ele>
        <time>2017-05-25T11:51:15.000Z</time>
      </trkpt>
      <trkpt lat="44.11724" lon="7.06633">
        <ele>1415</ele>
        <time>2017-05-25T11:51:17.000Z</time>
      </trkpt>
      <trkpt lat="44.11725" lon="7.06637">
        <ele>1415</ele>
        <time>2017-05-25T11:51:18.000Z</time>
      </trkpt>
      <trkpt lat="44.11725" lon="7.06645">
        <ele>1414</ele>
        <time>2017-05-25T11:51:20.000Z</time>
      </trkpt>
      <trkpt lat="44.11726" lon="7.06655">
        <ele>1413</ele>
        <time>2017-05-25T11:51:22.000Z</time>
      </trkpt>
      <trkpt lat="44.11725" lon="7.06665">
        <ele>1412</ele>
        <time>2017-05-25T11:51:24.000Z</time>
      </trkpt>
      <trkpt lat="44.11724" lon="7.06676">
        <ele>1406</ele>
        <time>2017-05-25T11:51:26.000Z</time>
      </trkpt>
      <trkpt lat="44.11727" lon="7.06678">
        <ele>1406</ele>
        <time>2017-05-25T11:51:27.000Z</time>
      </trkpt>
      <trkpt lat="44.1173" lon="7.06681">
        <ele>1405</ele>
        <time>2017-05-25T11:51:28.000Z</time>
      </trkpt>
      <trkpt lat="44.11733" lon="7.06685">
        <ele>1405</ele>
        <time>2017-05-25T11:51:29.000Z</time>
      </trkpt>
      <trkpt lat="44.11735" lon="7.06688">
        <ele>1405</ele>
        <time>2017-05-25T11:51:30.000Z</time>
      </trkpt>
      <trkpt lat="44.11737" lon="7.06697">
        <ele>1404</ele>
        <time>2017-05-25T11:51:32.000Z</time>
      </trkpt>
      <trkpt lat="44.11736" lon="7.06703">
        <ele>1404</ele>
        <time>2017-05-25T11:51:33.000Z</time>
      </trkpt>
      <trkpt lat="44.11734" lon="7.06708">
        <ele>1404</ele>
        <time>2017-05-25T11:51:34.000Z</time>
      </trkpt>
      <trkpt lat="44.11728" lon="7.06713">
        <ele>1404</ele>
        <time>2017-05-25T11:51:36.000Z</time>
      </trkpt>
      <trkpt lat="44.11726" lon="7.06714">
        <ele>1404</ele>
        <time>2017-05-25T11:51:37.000Z</time>
      </trkpt>
      <trkpt lat="44.11721" lon="7.06718">
        <ele>1404</ele>
        <time>2017-05-25T11:51:39.000Z</time>
      </trkpt>
      <trkpt lat="44.11718" lon="7.06723">
        <ele>1405</ele>
        <time>2017-05-25T11:51:41.000Z</time>
      </trkpt>
      <trkpt lat="44.11713" lon="7.06733">
        <ele>1404</ele>
        <time>2017-05-25T11:51:45.000Z</time>
      </trkpt>
      <trkpt lat="44.11711" lon="7.06736">
        <ele>1405</ele>
        <time>2017-05-25T11:51:47.000Z</time>
      </trkpt>
      <trkpt lat="44.11708" lon="7.06742">
        <ele>1405</ele>
        <time>2017-05-25T11:51:49.000Z</time>
      </trkpt>
      <trkpt lat="44.11706" lon="7.06747">
        <ele>1405</ele>
        <time>2017-05-25T11:51:51.000Z</time>
      </trkpt>
      <trkpt lat="44.11706" lon="7.06756">
        <ele>1395</ele>
        <time>2017-05-25T11:51:53.000Z</time>
      </trkpt>
      <trkpt lat="44.11704" lon="7.06758">
        <ele>1395</ele>
        <time>2017-05-25T11:51:54.000Z</time>
      </trkpt>
      <trkpt lat="44.11704" lon="7.0676">
        <ele>1395</ele>
        <time>2017-05-25T11:51:55.000Z</time>
      </trkpt>
      <trkpt lat="44.11704" lon="7.06762">
        <ele>1395</ele>
        <time>2017-05-25T11:51:56.000Z</time>
      </trkpt>
      <trkpt lat="44.11703" lon="7.06771">
        <ele>1394</ele>
        <time>2017-05-25T11:51:58.000Z</time>
      </trkpt>
      <trkpt lat="44.11701" lon="7.06776">
        <ele>1394</ele>
        <time>2017-05-25T11:51:59.000Z</time>
      </trkpt>
      <trkpt lat="44.11698" lon="7.0678">
        <ele>1394</ele>
        <time>2017-05-25T11:52:00.000Z</time>
      </trkpt>
      <trkpt lat="44.11693" lon="7.06786">
        <ele>1394</ele>
        <time>2017-05-25T11:52:02.000Z</time>
      </trkpt>
      <trkpt lat="44.11688" lon="7.06791">
        <ele>1394</ele>
        <time>2017-05-25T11:52:03.000Z</time>
      </trkpt>
      <trkpt lat="44.11682" lon="7.06796">
        <ele>1394</ele>
        <time>2017-05-25T11:52:04.000Z</time>
      </trkpt>
      <trkpt lat="44.11673" lon="7.06808">
        <ele>1393</ele>
        <time>2017-05-25T11:52:06.000Z</time>
      </trkpt>
      <trkpt lat="44.11669" lon="7.06815">
        <ele>1392</ele>
        <time>2017-05-25T11:52:07.000Z</time>
      </trkpt>
      <trkpt lat="44.11665" lon="7.06823">
        <ele>1401</ele>
        <time>2017-05-25T11:52:08.000Z</time>
      </trkpt>
      <trkpt lat="44.11662" lon="7.0683">
        <ele>1397</ele>
        <time>2017-05-25T11:52:09.000Z</time>
      </trkpt>
      <trkpt lat="44.11658" lon="7.06844">
        <ele>1398</ele>
        <time>2017-05-25T11:52:11.000Z</time>
      </trkpt>
      <trkpt lat="44.11657" lon="7.06846">
        <ele>1399</ele>
        <time>2017-05-25T11:52:13.000Z</time>
      </trkpt>
      <trkpt lat="44.11657" lon="7.06847">
        <ele>1399</ele>
        <time>2017-05-25T11:52:19.000Z</time>
      </trkpt>
      <trkpt lat="44.11651" lon="7.06858">
        <ele>1402</ele>
        <time>2017-05-25T11:52:23.000Z</time>
      </trkpt>
      <trkpt lat="44.11646" lon="7.06871">
        <ele>1403</ele>
        <time>2017-05-25T11:52:26.000Z</time>
      </trkpt>
      <trkpt lat="44.11645" lon="7.06878">
        <ele>1403</ele>
        <time>2017-05-25T11:52:27.000Z</time>
      </trkpt>
      <trkpt lat="44.11649" lon="7.06884">
        <ele>1401</ele>
        <time>2017-05-25T11:52:29.000Z</time>
      </trkpt>
      <trkpt lat="44.11652" lon="7.06887">
        <ele>1399</ele>
        <time>2017-05-25T11:52:30.000Z</time>
      </trkpt>
      <trkpt lat="44.11654" lon="7.06892">
        <ele>1398</ele>
        <time>2017-05-25T11:52:31.000Z</time>
      </trkpt>
      <trkpt lat="44.11656" lon="7.06905">
        <ele>1391</ele>
        <time>2017-05-25T11:52:33.000Z</time>
      </trkpt>
      <trkpt lat="44.11657" lon="7.06913">
        <ele>1387</ele>
        <time>2017-05-25T11:52:34.000Z</time>
      </trkpt>
      <trkpt lat="44.11661" lon="7.06934">
        <ele>1386</ele>
        <time>2017-05-25T11:52:37.000Z</time>
      </trkpt>
      <trkpt lat="44.11662" lon="7.06955">
        <ele>1388</ele>
        <time>2017-05-25T11:52:40.000Z</time>
      </trkpt>
      <trkpt lat="44.11661" lon="7.06973">
        <ele>1385</ele>
        <time>2017-05-25T11:52:42.000Z</time>
      </trkpt>
      <trkpt lat="44.11658" lon="7.06991">
        <ele>1377</ele>
        <time>2017-05-25T11:52:44.000Z</time>
      </trkpt>
      <trkpt lat="44.11652" lon="7.07006">
        <ele>1372</ele>
        <time>2017-05-25T11:52:46.000Z</time>
      </trkpt>
      <trkpt lat="44.11648" lon="7.0702">
        <ele>1374</ele>
        <time>2017-05-25T11:52:48.000Z</time>
      </trkpt>
      <trkpt lat="44.11645" lon="7.07032">
        <ele>1374</ele>
        <time>2017-05-25T11:52:50.000Z</time>
      </trkpt>
      <trkpt lat="44.11643" lon="7.07041">
        <ele>1373</ele>
        <time>2017-05-25T11:52:51.000Z</time>
      </trkpt>
      <trkpt lat="44.11641" lon="7.07047">
        <ele>1373</ele>
        <time>2017-05-25T11:52:52.000Z</time>
      </trkpt>
      <trkpt lat="44.11637" lon="7.07056">
        <ele>1372</ele>
        <time>2017-05-25T11:52:53.000Z</time>
      </trkpt>
      <trkpt lat="44.11633" lon="7.07062">
        <ele>1373</ele>
        <time>2017-05-25T11:52:54.000Z</time>
      </trkpt>
      <trkpt lat="44.1163" lon="7.07066">
        <ele>1373</ele>
        <time>2017-05-25T11:52:55.000Z</time>
      </trkpt>
      <trkpt lat="44.11629" lon="7.0707">
        <ele>1374</ele>
        <time>2017-05-25T11:52:56.000Z</time>
      </trkpt>
      <trkpt lat="44.11628" lon="7.07074">
        <ele>1373</ele>
        <time>2017-05-25T11:52:57.000Z</time>
      </trkpt>
      <trkpt lat="44.11627" lon="7.07079">
        <ele>1373</ele>
        <time>2017-05-25T11:52:58.000Z</time>
      </trkpt>
      <trkpt lat="44.11627" lon="7.07082">
        <ele>1373</ele>
        <time>2017-05-25T11:52:59.000Z</time>
      </trkpt>
      <trkpt lat="44.11626" lon="7.07087">
        <ele>1357</ele>
        <time>2017-05-25T11:53:00.000Z</time>
      </trkpt>
      <trkpt lat="44.11622" lon="7.07104">
        <ele>1356</ele>
        <time>2017-05-25T11:53:03.000Z</time>
      </trkpt>
      <trkpt lat="44.11619" lon="7.07119">
        <ele>1355</ele>
        <time>2017-05-25T11:53:05.000Z</time>
      </trkpt>
      <trkpt lat="44.11615" lon="7.07131">
        <ele>1354</ele>
        <time>2017-05-25T11:53:07.000Z</time>
      </trkpt>
      <trkpt lat="44.11613" lon="7.07136">
        <ele>1354</ele>
        <time>2017-05-25T11:53:08.000Z</time>
      </trkpt>
      <trkpt lat="44.11613" lon="7.07142">
        <ele>1353</ele>
        <time>2017-05-25T11:53:09.000Z</time>
      </trkpt>
      <trkpt lat="44.11613" lon="7.07149">
        <ele>1352</ele>
        <time>2017-05-25T11:53:10.000Z</time>
      </trkpt>
      <trkpt lat="44.11614" lon="7.07167">
        <ele>1336</ele>
        <time>2017-05-25T11:53:12.000Z</time>
      </trkpt>
      <trkpt lat="44.11616" lon="7.07177">
        <ele>1334</ele>
        <time>2017-05-25T11:53:13.000Z</time>
      </trkpt>
      <trkpt lat="44.1162" lon="7.07193">
        <ele>1330</ele>
        <time>2017-05-25T11:53:15.000Z</time>
      </trkpt>
      <trkpt lat="44.11621" lon="7.07208">
        <ele>1327</ele>
        <time>2017-05-25T11:53:17.000Z</time>
      </trkpt>
      <trkpt lat="44.11621" lon="7.07224">
        <ele>1325</ele>
        <time>2017-05-25T11:53:19.000Z</time>
      </trkpt>
      <trkpt lat="44.11619" lon="7.07229">
        <ele>1325</ele>
        <time>2017-05-25T11:53:20.000Z</time>
      </trkpt>
      <trkpt lat="44.11616" lon="7.07231">
        <ele>1326</ele>
        <time>2017-05-25T11:53:21.000Z</time>
      </trkpt>
      <trkpt lat="44.11614" lon="7.07231">
        <ele>1327</ele>
        <time>2017-05-25T11:53:22.000Z</time>
      </trkpt>
      <trkpt lat="44.11608" lon="7.07234">
        <ele>1328</ele>
        <time>2017-05-25T11:53:24.000Z</time>
      </trkpt>
      <trkpt lat="44.11603" lon="7.07235">
        <ele>1330</ele>
        <time>2017-05-25T11:53:26.000Z</time>
      </trkpt>
      <trkpt lat="44.11598" lon="7.07237">
        <ele>1331</ele>
        <time>2017-05-25T11:53:28.000Z</time>
      </trkpt>
      <trkpt lat="44.11596" lon="7.07241">
        <ele>1332</ele>
        <time>2017-05-25T11:53:30.000Z</time>
      </trkpt>
      <trkpt lat="44.11595" lon="7.07244">
        <ele>1332</ele>
        <time>2017-05-25T11:53:31.000Z</time>
      </trkpt>
      <trkpt lat="44.11592" lon="7.07254">
        <ele>1326</ele>
        <time>2017-05-25T11:53:34.000Z</time>
      </trkpt>
      <trkpt lat="44.11594" lon="7.07265">
        <ele>1320</ele>
        <time>2017-05-25T11:53:36.000Z</time>
      </trkpt>
      <trkpt lat="44.11594" lon="7.07279">
        <ele>1314</ele>
        <time>2017-05-25T11:53:38.000Z</time>
      </trkpt>
      <trkpt lat="44.11594" lon="7.07292">
        <ele>1311</ele>
        <time>2017-05-25T11:53:40.000Z</time>
      </trkpt>
      <trkpt lat="44.11592" lon="7.07307">
        <ele>1310</ele>
        <time>2017-05-25T11:53:42.000Z</time>
      </trkpt>
      <trkpt lat="44.11589" lon="7.07318">
        <ele>1311</ele>
        <time>2017-05-25T11:53:44.000Z</time>
      </trkpt>
      <trkpt lat="44.11585" lon="7.07326">
        <ele>1314</ele>
        <time>2017-05-25T11:53:46.000Z</time>
      </trkpt>
      <trkpt lat="44.11585" lon="7.07334">
        <ele>1315</ele>
        <time>2017-05-25T11:53:48.000Z</time>
      </trkpt>
      <trkpt lat="44.11587" lon="7.07345">
        <ele>1306</ele>
        <time>2017-05-25T11:53:50.000Z</time>
      </trkpt>
      <trkpt lat="44.11587" lon="7.07352">
        <ele>1303</ele>
        <time>2017-05-25T11:53:51.000Z</time>
      </trkpt>
      <trkpt lat="44.11588" lon="7.07371">
        <ele>1298</ele>
        <time>2017-05-25T11:53:54.000Z</time>
      </trkpt>
      <trkpt lat="44.11589" lon="7.07384">
        <ele>1297</ele>
        <time>2017-05-25T11:53:56.000Z</time>
      </trkpt>
      <trkpt lat="44.11592" lon="7.07397">
        <ele>1299</ele>
        <time>2017-05-25T11:53:58.000Z</time>
      </trkpt>
      <trkpt lat="44.11596" lon="7.07415">
        <ele>1302</ele>
        <time>2017-05-25T11:54:00.000Z</time>
      </trkpt>
      <trkpt lat="44.11598" lon="7.07424">
        <ele>1298</ele>
        <time>2017-05-25T11:54:01.000Z</time>
      </trkpt>
      <trkpt lat="44.11602" lon="7.07442">
        <ele>1291</ele>
        <time>2017-05-25T11:54:03.000Z</time>
      </trkpt>
      <trkpt lat="44.11604" lon="7.0745">
        <ele>1290</ele>
        <time>2017-05-25T11:54:04.000Z</time>
      </trkpt>
      <trkpt lat="44.11603" lon="7.07457">
        <ele>1290</ele>
        <time>2017-05-25T11:54:05.000Z</time>
      </trkpt>
      <trkpt lat="44.11603" lon="7.07463">
        <ele>1290</ele>
        <time>2017-05-25T11:54:06.000Z</time>
      </trkpt>
      <trkpt lat="44.11602" lon="7.07469">
        <ele>1291</ele>
        <time>2017-05-25T11:54:07.000Z</time>
      </trkpt>
      <trkpt lat="44.11603" lon="7.07478">
        <ele>1292</ele>
        <time>2017-05-25T11:54:09.000Z</time>
      </trkpt>
      <trkpt lat="44.11604" lon="7.07484">
        <ele>1293</ele>
        <time>2017-05-25T11:54:10.000Z</time>
      </trkpt>
      <trkpt lat="44.11606" lon="7.0749">
        <ele>1294</ele>
        <time>2017-05-25T11:54:11.000Z</time>
      </trkpt>
      <trkpt lat="44.11608" lon="7.07497">
        <ele>1293</ele>
        <time>2017-05-25T11:54:12.000Z</time>
      </trkpt>
      <trkpt lat="44.11612" lon="7.07511">
        <ele>1286</ele>
        <time>2017-05-25T11:54:14.000Z</time>
      </trkpt>
      <trkpt lat="44.11612" lon="7.07518">
        <ele>1285</ele>
        <time>2017-05-25T11:54:15.000Z</time>
      </trkpt>
      <trkpt lat="44.11613" lon="7.07525">
        <ele>1283</ele>
        <time>2017-05-25T11:54:16.000Z</time>
      </trkpt>
      <trkpt lat="44.11611" lon="7.07535">
        <ele>1283</ele>
        <time>2017-05-25T11:54:18.000Z</time>
      </trkpt>
      <trkpt lat="44.1161" lon="7.0754">
        <ele>1283</ele>
        <time>2017-05-25T11:54:19.000Z</time>
      </trkpt>
      <trkpt lat="44.11608" lon="7.07549">
        <ele>1282</ele>
        <time>2017-05-25T11:54:20.000Z</time>
      </trkpt>
      <trkpt lat="44.11609" lon="7.07557">
        <ele>1282</ele>
        <time>2017-05-25T11:54:21.000Z</time>
      </trkpt>
      <trkpt lat="44.11608" lon="7.07563">
        <ele>1283</ele>
        <time>2017-05-25T11:54:22.000Z</time>
      </trkpt>
      <trkpt lat="44.11609" lon="7.0757">
        <ele>1283</ele>
        <time>2017-05-25T11:54:23.000Z</time>
      </trkpt>
      <trkpt lat="44.11608" lon="7.07576">
        <ele>1284</ele>
        <time>2017-05-25T11:54:24.000Z</time>
      </trkpt>
      <trkpt lat="44.11608" lon="7.07582">
        <ele>1284</ele>
        <time>2017-05-25T11:54:25.000Z</time>
      </trkpt>
      <trkpt lat="44.11606" lon="7.0759">
        <ele>1279</ele>
        <time>2017-05-25T11:54:27.000Z</time>
      </trkpt>
      <trkpt lat="44.11607" lon="7.07595">
        <ele>1278</ele>
        <time>2017-05-25T11:54:28.000Z</time>
      </trkpt>
      <trkpt lat="44.11613" lon="7.07607">
        <ele>1273</ele>
        <time>2017-05-25T11:54:30.000Z</time>
      </trkpt>
      <trkpt lat="44.11615" lon="7.07614">
        <ele>1272</ele>
        <time>2017-05-25T11:54:31.000Z</time>
      </trkpt>
      <trkpt lat="44.11616" lon="7.0762">
        <ele>1271</ele>
        <time>2017-05-25T11:54:32.000Z</time>
      </trkpt>
      <trkpt lat="44.11618" lon="7.0763">
        <ele>1270</ele>
        <time>2017-05-25T11:54:33.000Z</time>
      </trkpt>
      <trkpt lat="44.1162" lon="7.07637">
        <ele>1269</ele>
        <time>2017-05-25T11:54:34.000Z</time>
      </trkpt>
      <trkpt lat="44.11622" lon="7.07645">
        <ele>1268</ele>
        <time>2017-05-25T11:54:35.000Z</time>
      </trkpt>
      <trkpt lat="44.11624" lon="7.07652">
        <ele>1267</ele>
        <time>2017-05-25T11:54:36.000Z</time>
      </trkpt>
      <trkpt lat="44.11626" lon="7.0767">
        <ele>1258</ele>
        <time>2017-05-25T11:54:38.000Z</time>
      </trkpt>
      <trkpt lat="44.11626" lon="7.0768">
        <ele>1258</ele>
        <time>2017-05-25T11:54:39.000Z</time>
      </trkpt>
      <trkpt lat="44.11626" lon="7.07686">
        <ele>1257</ele>
        <time>2017-05-25T11:54:40.000Z</time>
      </trkpt>
      <trkpt lat="44.11626" lon="7.07692">
        <ele>1257</ele>
        <time>2017-05-25T11:54:41.000Z</time>
      </trkpt>
      <trkpt lat="44.11627" lon="7.07697">
        <ele>1256</ele>
        <time>2017-05-25T11:54:42.000Z</time>
      </trkpt>
      <trkpt lat="44.11629" lon="7.07704">
        <ele>1255</ele>
        <time>2017-05-25T11:54:43.000Z</time>
      </trkpt>
      <trkpt lat="44.11631" lon="7.07716">
        <ele>1254</ele>
        <time>2017-05-25T11:54:45.000Z</time>
      </trkpt>
      <trkpt lat="44.11634" lon="7.07726">
        <ele>1252</ele>
        <time>2017-05-25T11:54:47.000Z</time>
      </trkpt>
      <trkpt lat="44.11636" lon="7.0773">
        <ele>1251</ele>
        <time>2017-05-25T11:54:48.000Z</time>
      </trkpt>
      <trkpt lat="44.11637" lon="7.07735">
        <ele>1250</ele>
        <time>2017-05-25T11:54:49.000Z</time>
      </trkpt>
      <trkpt lat="44.11639" lon="7.07742">
        <ele>1249</ele>
        <time>2017-05-25T11:54:51.000Z</time>
      </trkpt>
      <trkpt lat="44.1164" lon="7.07745">
        <ele>1248</ele>
        <time>2017-05-25T11:54:52.000Z</time>
      </trkpt>
      <trkpt lat="44.11642" lon="7.07749">
        <ele>1247</ele>
        <time>2017-05-25T11:54:53.000Z</time>
      </trkpt>
      <trkpt lat="44.11643" lon="7.07749">
        <ele>1247</ele>
        <time>2017-05-25T11:54:54.000Z</time>
      </trkpt>
      <trkpt lat="44.11645" lon="7.07746">
        <ele>1247</ele>
        <time>2017-05-25T11:54:56.000Z</time>
      </trkpt>
      <trkpt lat="44.11646" lon="7.07744">
        <ele>1246</ele>
        <time>2017-05-25T11:54:58.000Z</time>
      </trkpt>
      <trkpt lat="44.11648" lon="7.07746">
        <ele>1245</ele>
        <time>2017-05-25T11:55:00.000Z</time>
      </trkpt>
      <trkpt lat="44.1165" lon="7.07753">
        <ele>1235</ele>
        <time>2017-05-25T11:55:02.000Z</time>
      </trkpt>
      <trkpt lat="44.11652" lon="7.07759">
        <ele>1235</ele>
        <time>2017-05-25T11:55:04.000Z</time>
      </trkpt>
      <trkpt lat="44.11653" lon="7.07764">
        <ele>1234</ele>
        <time>2017-05-25T11:55:06.000Z</time>
      </trkpt>
      <trkpt lat="44.11654" lon="7.07765">
        <ele>1234</ele>
        <time>2017-05-25T11:55:08.000Z</time>
      </trkpt>
      <trkpt lat="44.11654" lon="7.07765">
        <ele>1234</ele>
        <time>2017-05-25T11:55:09.000Z</time>
      </trkpt>
      <trkpt lat="44.11655" lon="7.07764">
        <ele>1234</ele>
        <time>2017-05-25T11:55:11.000Z</time>
      </trkpt>
      <trkpt lat="44.11658" lon="7.07767">
        <ele>1234</ele>
        <time>2017-05-25T11:55:14.000Z</time>
      </trkpt>
      <trkpt lat="44.11657" lon="7.07778">
        <ele>1233</ele>
        <time>2017-05-25T11:55:17.000Z</time>
      </trkpt>
      <trkpt lat="44.11654" lon="7.07781">
        <ele>1233</ele>
        <time>2017-05-25T11:55:18.000Z</time>
      </trkpt>
      <trkpt lat="44.11652" lon="7.07783">
        <ele>1232</ele>
        <time>2017-05-25T11:55:20.000Z</time>
      </trkpt>
      <trkpt lat="44.11653" lon="7.07784">
        <ele>1232</ele>
        <time>2017-05-25T11:55:21.000Z</time>
      </trkpt>
      <trkpt lat="44.11657" lon="7.07786">
        <ele>1232</ele>
        <time>2017-05-25T11:55:23.000Z</time>
      </trkpt>
      <trkpt lat="44.11661" lon="7.07786">
        <ele>1231</ele>
        <time>2017-05-25T11:55:24.000Z</time>
      </trkpt>
      <trkpt lat="44.11665" lon="7.07784">
        <ele>1231</ele>
        <time>2017-05-25T11:55:25.000Z</time>
      </trkpt>
      <trkpt lat="44.1167" lon="7.07779">
        <ele>1213</ele>
        <time>2017-05-25T11:55:27.000Z</time>
      </trkpt>
      <trkpt lat="44.11673" lon="7.07782">
        <ele>1211</ele>
        <time>2017-05-25T11:55:29.000Z</time>
      </trkpt>
      <trkpt lat="44.11676" lon="7.07781">
        <ele>1211</ele>
        <time>2017-05-25T11:55:31.000Z</time>
      </trkpt>
      <trkpt lat="44.11677" lon="7.07782">
        <ele>1211</ele>
        <time>2017-05-25T11:55:32.000Z</time>
      </trkpt>
      <trkpt lat="44.11679" lon="7.07786">
        <ele>1209</ele>
        <time>2017-05-25T11:55:34.000Z</time>
      </trkpt>
      <trkpt lat="44.11679" lon="7.07791">
        <ele>1208</ele>
        <time>2017-05-25T11:55:35.000Z</time>
      </trkpt>
      <trkpt lat="44.1168" lon="7.07796">
        <ele>1208</ele>
        <time>2017-05-25T11:55:36.000Z</time>
      </trkpt>
      <trkpt lat="44.11678" lon="7.07805">
        <ele>1207</ele>
        <time>2017-05-25T11:55:38.000Z</time>
      </trkpt>
      <trkpt lat="44.11678" lon="7.07806">
        <ele>1207</ele>
        <time>2017-05-25T11:55:39.000Z</time>
      </trkpt>
      <trkpt lat="44.11679" lon="7.07805">
        <ele>1207</ele>
        <time>2017-05-25T11:55:41.000Z</time>
      </trkpt>
      <trkpt lat="44.1168" lon="7.07805">
        <ele>1207</ele>
        <time>2017-05-25T11:55:42.000Z</time>
      </trkpt>
      <trkpt lat="44.11682" lon="7.07802">
        <ele>1207</ele>
        <time>2017-05-25T11:55:43.000Z</time>
      </trkpt>
      <trkpt lat="44.11687" lon="7.07796">
        <ele>1206</ele>
        <time>2017-05-25T11:55:45.000Z</time>
      </trkpt>
      <trkpt lat="44.11689" lon="7.07797">
        <ele>1206</ele>
        <time>2017-05-25T11:55:47.000Z</time>
      </trkpt>
      <trkpt lat="44.11688" lon="7.07799">
        <ele>1206</ele>
        <time>2017-05-25T11:55:48.000Z</time>
      </trkpt>
      <trkpt lat="44.11688" lon="7.07802">
        <ele>1206</ele>
        <time>2017-05-25T11:55:49.000Z</time>
      </trkpt>
      <trkpt lat="44.11689" lon="7.07811">
        <ele>1205</ele>
        <time>2017-05-25T11:55:51.000Z</time>
      </trkpt>
      <trkpt lat="44.1169" lon="7.07815">
        <ele>1205</ele>
        <time>2017-05-25T11:55:52.000Z</time>
      </trkpt>
      <trkpt lat="44.11695" lon="7.07815">
        <ele>1204</ele>
        <time>2017-05-25T11:55:54.000Z</time>
      </trkpt>
      <trkpt lat="44.11695" lon="7.07812">
        <ele>1204</ele>
        <time>2017-05-25T11:55:55.000Z</time>
      </trkpt>
      <trkpt lat="44.11697" lon="7.07811">
        <ele>1203</ele>
        <time>2017-05-25T11:55:56.000Z</time>
      </trkpt>
      <trkpt lat="44.117" lon="7.07809">
        <ele>1203</ele>
        <time>2017-05-25T11:55:58.000Z</time>
      </trkpt>
      <trkpt lat="44.11701" lon="7.07807">
        <ele>1202</ele>
        <time>2017-05-25T11:55:59.000Z</time>
      </trkpt>
      <trkpt lat="44.11703" lon="7.07808">
        <ele>1202</ele>
        <time>2017-05-25T11:56:00.000Z</time>
      </trkpt>
      <trkpt lat="44.11704" lon="7.0781">
        <ele>1201</ele>
        <time>2017-05-25T11:56:01.000Z</time>
      </trkpt>
      <trkpt lat="44.11706" lon="7.07814">
        <ele>1201</ele>
        <time>2017-05-25T11:56:03.000Z</time>
      </trkpt>
      <trkpt lat="44.11708" lon="7.0782">
        <ele>1200</ele>
        <time>2017-05-25T11:56:05.000Z</time>
      </trkpt>
      <trkpt lat="44.1171" lon="7.0782">
        <ele>1199</ele>
        <time>2017-05-25T11:56:07.000Z</time>
      </trkpt>
      <trkpt lat="44.11711" lon="7.07818">
        <ele>1199</ele>
        <time>2017-05-25T11:56:08.000Z</time>
      </trkpt>
      <trkpt lat="44.11713" lon="7.07817">
        <ele>1198</ele>
        <time>2017-05-25T11:56:09.000Z</time>
      </trkpt>
      <trkpt lat="44.11714" lon="7.0782">
        <ele>1198</ele>
        <time>2017-05-25T11:56:10.000Z</time>
      </trkpt>
      <trkpt lat="44.11715" lon="7.07824">
        <ele>1197</ele>
        <time>2017-05-25T11:56:11.000Z</time>
      </trkpt>
      <trkpt lat="44.11717" lon="7.07828">
        <ele>1196</ele>
        <time>2017-05-25T11:56:12.000Z</time>
      </trkpt>
      <trkpt lat="44.11719" lon="7.07834">
        <ele>1181</ele>
        <time>2017-05-25T11:56:13.000Z</time>
      </trkpt>
      <trkpt lat="44.11719" lon="7.07837">
        <ele>1181</ele>
        <time>2017-05-25T11:56:14.000Z</time>
      </trkpt>
      <trkpt lat="44.1172" lon="7.0784">
        <ele>1181</ele>
        <time>2017-05-25T11:56:15.000Z</time>
      </trkpt>
      <trkpt lat="44.11721" lon="7.07841">
        <ele>1180</ele>
        <time>2017-05-25T11:56:16.000Z</time>
      </trkpt>
      <trkpt lat="44.11723" lon="7.0784">
        <ele>1180</ele>
        <time>2017-05-25T11:56:17.000Z</time>
      </trkpt>
      <trkpt lat="44.11725" lon="7.07838">
        <ele>1180</ele>
        <time>2017-05-25T11:56:18.000Z</time>
      </trkpt>
      <trkpt lat="44.11726" lon="7.07836">
        <ele>1180</ele>
        <time>2017-05-25T11:56:19.000Z</time>
      </trkpt>
      <trkpt lat="44.11728" lon="7.07836">
        <ele>1179</ele>
        <time>2017-05-25T11:56:21.000Z</time>
      </trkpt>
      <trkpt lat="44.11727" lon="7.07836">
        <ele>1179</ele>
        <time>2017-05-25T11:56:22.000Z</time>
      </trkpt>
      <trkpt lat="44.11728" lon="7.07836">
        <ele>1179</ele>
        <time>2017-05-25T11:56:23.000Z</time>
      </trkpt>
      <trkpt lat="44.1173" lon="7.07838">
        <ele>1179</ele>
        <time>2017-05-25T11:56:28.000Z</time>
      </trkpt>
      <trkpt lat="44.11733" lon="7.07844">
        <ele>1178</ele>
        <time>2017-05-25T11:56:37.000Z</time>
      </trkpt>
      <trkpt lat="44.11734" lon="7.07849">
        <ele>1178</ele>
        <time>2017-05-25T11:56:39.000Z</time>
      </trkpt>
      <trkpt lat="44.11735" lon="7.07851">
        <ele>1177</ele>
        <time>2017-05-25T11:56:40.000Z</time>
      </trkpt>
      <trkpt lat="44.11735" lon="7.07851">
        <ele>1177</ele>
        <time>2017-05-25T11:56:41.000Z</time>
      </trkpt>
      <trkpt lat="44.11736" lon="7.07851">
        <ele>1177</ele>
        <time>2017-05-25T11:56:42.000Z</time>
      </trkpt>
      <trkpt lat="44.11737" lon="7.07851">
        <ele>1177</ele>
        <time>2017-05-25T11:56:44.000Z</time>
      </trkpt>
      <trkpt lat="44.11738" lon="7.07853">
        <ele>1177</ele>
        <time>2017-05-25T11:56:46.000Z</time>
      </trkpt>
      <trkpt lat="44.11738" lon="7.07856">
        <ele>1176</ele>
        <time>2017-05-25T11:56:48.000Z</time>
      </trkpt>
      <trkpt lat="44.11736" lon="7.0786">
        <ele>1176</ele>
        <time>2017-05-25T11:56:50.000Z</time>
      </trkpt>
      <trkpt lat="44.11736" lon="7.07861">
        <ele>1176</ele>
        <time>2017-05-25T11:56:51.000Z</time>
      </trkpt>
      <trkpt lat="44.11737" lon="7.07862">
        <ele>1176</ele>
        <time>2017-05-25T11:56:52.000Z</time>
      </trkpt>
      <trkpt lat="44.11736" lon="7.07861">
        <ele>1176</ele>
        <time>2017-05-25T11:56:53.000Z</time>
      </trkpt>
      <trkpt lat="44.11737" lon="7.07862">
        <ele>1176</ele>
        <time>2017-05-25T11:56:55.000Z</time>
      </trkpt>
      <trkpt lat="44.11738" lon="7.07862">
        <ele>1176</ele>
        <time>2017-05-25T11:56:58.000Z</time>
      </trkpt>
      <trkpt lat="44.1174" lon="7.07861">
        <ele>1176</ele>
        <time>2017-05-25T11:56:59.000Z</time>
      </trkpt>
      <trkpt lat="44.11744" lon="7.07857">
        <ele>1176</ele>
        <time>2017-05-25T11:57:02.000Z</time>
      </trkpt>
      <trkpt lat="44.11749" lon="7.07856">
        <ele>1176</ele>
        <time>2017-05-25T11:57:04.000Z</time>
      </trkpt>
      <trkpt lat="44.11749" lon="7.07859">
        <ele>1175</ele>
        <time>2017-05-25T11:57:05.000Z</time>
      </trkpt>
      <trkpt lat="44.11748" lon="7.07866">
        <ele>1174</ele>
        <time>2017-05-25T11:57:07.000Z</time>
      </trkpt>
      <trkpt lat="44.1175" lon="7.07869">
        <ele>1147</ele>
        <time>2017-05-25T11:57:08.000Z</time>
      </trkpt>
      <trkpt lat="44.11755" lon="7.07871">
        <ele>1145</ele>
        <time>2017-05-25T11:57:09.000Z</time>
      </trkpt>
      <trkpt lat="44.11757" lon="7.07874">
        <ele>1144</ele>
        <time>2017-05-25T11:57:10.000Z</time>
      </trkpt>
      <trkpt lat="44.11758" lon="7.07878">
        <ele>1143</ele>
        <time>2017-05-25T11:57:11.000Z</time>
      </trkpt>
      <trkpt lat="44.11759" lon="7.07882">
        <ele>1142</ele>
        <time>2017-05-25T11:57:12.000Z</time>
      </trkpt>
      <trkpt lat="44.11762" lon="7.07888">
        <ele>1141</ele>
        <time>2017-05-25T11:57:13.000Z</time>
      </trkpt>
      <trkpt lat="44.11766" lon="7.07889">
        <ele>1140</ele>
        <time>2017-05-25T11:57:14.000Z</time>
      </trkpt>
      <trkpt lat="44.11772" lon="7.07889">
        <ele>1138</ele>
        <time>2017-05-25T11:57:15.000Z</time>
      </trkpt>
      <trkpt lat="44.11775" lon="7.07892">
        <ele>1137</ele>
        <time>2017-05-25T11:57:16.000Z</time>
      </trkpt>
      <trkpt lat="44.11775" lon="7.07894">
        <ele>1137</ele>
        <time>2017-05-25T11:57:17.000Z</time>
      </trkpt>
      <trkpt lat="44.11775" lon="7.07897">
        <ele>1137</ele>
        <time>2017-05-25T11:57:18.000Z</time>
      </trkpt>
      <trkpt lat="44.11772" lon="7.07903">
        <ele>1138</ele>
        <time>2017-05-25T11:57:19.000Z</time>
      </trkpt>
      <trkpt lat="44.11768" lon="7.07913">
        <ele>1140</ele>
        <time>2017-05-25T11:57:21.000Z</time>
      </trkpt>
      <trkpt lat="44.11762" lon="7.07918">
        <ele>1130</ele>
        <time>2017-05-25T11:57:23.000Z</time>
      </trkpt>
      <trkpt lat="44.11759" lon="7.0792">
        <ele>1133</ele>
        <time>2017-05-25T11:57:24.000Z</time>
      </trkpt>
      <trkpt lat="44.11755" lon="7.07922">
        <ele>1136</ele>
        <time>2017-05-25T11:57:25.000Z</time>
      </trkpt>
      <trkpt lat="44.11751" lon="7.07924">
        <ele>1136</ele>
        <time>2017-05-25T11:57:26.000Z</time>
      </trkpt>
      <trkpt lat="44.11749" lon="7.07927">
        <ele>1145</ele>
        <time>2017-05-25T11:57:27.000Z</time>
      </trkpt>
      <trkpt lat="44.11745" lon="7.0793">
        <ele>1144</ele>
        <time>2017-05-25T11:57:28.000Z</time>
      </trkpt>
      <trkpt lat="44.11741" lon="7.07932">
        <ele>1143</ele>
        <time>2017-05-25T11:57:29.000Z</time>
      </trkpt>
      <trkpt lat="44.11738" lon="7.07934">
        <ele>1142</ele>
        <time>2017-05-25T11:57:30.000Z</time>
      </trkpt>
      <trkpt lat="44.11733" lon="7.0794">
        <ele>1141</ele>
        <time>2017-05-25T11:57:32.000Z</time>
      </trkpt>
      <trkpt lat="44.11729" lon="7.07946">
        <ele>1140</ele>
        <time>2017-05-25T11:57:33.000Z</time>
      </trkpt>
      <trkpt lat="44.11727" lon="7.0795">
        <ele>1139</ele>
        <time>2017-05-25T11:57:34.000Z</time>
      </trkpt>
      <trkpt lat="44.11722" lon="7.07963">
        <ele>1136</ele>
        <time>2017-05-25T11:57:36.000Z</time>
      </trkpt>
      <trkpt lat="44.1172" lon="7.07969">
        <ele>1135</ele>
        <time>2017-05-25T11:57:37.000Z</time>
      </trkpt>
      <trkpt lat="44.11717" lon="7.07974">
        <ele>1134</ele>
        <time>2017-05-25T11:57:38.000Z</time>
      </trkpt>
      <trkpt lat="44.11714" lon="7.07978">
        <ele>1133</ele>
        <time>2017-05-25T11:57:39.000Z</time>
      </trkpt>
      <trkpt lat="44.1171" lon="7.07981">
        <ele>1133</ele>
        <time>2017-05-25T11:57:40.000Z</time>
      </trkpt>
      <trkpt lat="44.11702" lon="7.07985">
        <ele>1134</ele>
        <time>2017-05-25T11:57:42.000Z</time>
      </trkpt>
      <trkpt lat="44.11697" lon="7.07993">
        <ele>1133</ele>
        <time>2017-05-25T11:57:44.000Z</time>
      </trkpt>
      <trkpt lat="44.11694" lon="7.08004">
        <ele>1108</ele>
        <time>2017-05-25T11:57:46.000Z</time>
      </trkpt>
      <trkpt lat="44.11692" lon="7.08009">
        <ele>1108</ele>
        <time>2017-05-25T11:57:47.000Z</time>
      </trkpt>
      <trkpt lat="44.11689" lon="7.08013">
        <ele>1108</ele>
        <time>2017-05-25T11:57:48.000Z</time>
      </trkpt>
      <trkpt lat="44.11686" lon="7.08016">
        <ele>1108</ele>
        <time>2017-05-25T11:57:49.000Z</time>
      </trkpt>
      <trkpt lat="44.11684" lon="7.08018">
        <ele>1108</ele>
        <time>2017-05-25T11:57:50.000Z</time>
      </trkpt>
      <trkpt lat="44.1168" lon="7.08021">
        <ele>1108</ele>
        <time>2017-05-25T11:57:51.000Z</time>
      </trkpt>
      <trkpt lat="44.11678" lon="7.08024">
        <ele>1107</ele>
        <time>2017-05-25T11:57:52.000Z</time>
      </trkpt>
      <trkpt lat="44.11675" lon="7.08025">
        <ele>1107</ele>
        <time>2017-05-25T11:57:53.000Z</time>
      </trkpt>
      <trkpt lat="44.11675" lon="7.08027">
        <ele>1106</ele>
        <time>2017-05-25T11:57:55.000Z</time>
      </trkpt>
      <trkpt lat="44.11676" lon="7.08028">
        <ele>1106</ele>
        <time>2017-05-25T11:57:56.000Z</time>
      </trkpt>
      <trkpt lat="44.11677" lon="7.08029">
        <ele>1105</ele>
        <time>2017-05-25T11:57:57.000Z</time>
      </trkpt>
      <trkpt lat="44.11683" lon="7.08032">
        <ele>1103</ele>
        <time>2017-05-25T11:57:59.000Z</time>
      </trkpt>
      <trkpt lat="44.11687" lon="7.08032">
        <ele>1102</ele>
        <time>2017-05-25T11:58:00.000Z</time>
      </trkpt>
      <trkpt lat="44.11691" lon="7.08033">
        <ele>1102</ele>
        <time>2017-05-25T11:58:01.000Z</time>
      </trkpt>
      <trkpt lat="44.11694" lon="7.08033">
        <ele>1101</ele>
        <time>2017-05-25T11:58:02.000Z</time>
      </trkpt>
      <trkpt lat="44.11699" lon="7.08031">
        <ele>1101</ele>
        <time>2017-05-25T11:58:04.000Z</time>
      </trkpt>
      <trkpt lat="44.117" lon="7.08031">
        <ele>1101</ele>
        <time>2017-05-25T11:58:05.000Z</time>
      </trkpt>
      <trkpt lat="44.11701" lon="7.08034">
        <ele>1100</ele>
        <time>2017-05-25T11:58:07.000Z</time>
      </trkpt>
      <trkpt lat="44.117" lon="7.08035">
        <ele>1099</ele>
        <time>2017-05-25T11:58:08.000Z</time>
      </trkpt>
      <trkpt lat="44.11699" lon="7.08037">
        <ele>1099</ele>
        <time>2017-05-25T11:58:09.000Z</time>
      </trkpt>
      <trkpt lat="44.11691" lon="7.08045">
        <ele>1098</ele>
        <time>2017-05-25T11:58:12.000Z</time>
      </trkpt>
      <trkpt lat="44.11688" lon="7.08049">
        <ele>1097</ele>
        <time>2017-05-25T11:58:13.000Z</time>
      </trkpt>
      <trkpt lat="44.11678" lon="7.08059">
        <ele>1095</ele>
        <time>2017-05-25T11:58:16.000Z</time>
      </trkpt>
      <trkpt lat="44.11677" lon="7.0806">
        <ele>1094</ele>
        <time>2017-05-25T11:58:17.000Z</time>
      </trkpt>
      <trkpt lat="44.11677" lon="7.08061">
        <ele>1094</ele>
        <time>2017-05-25T11:58:18.000Z</time>
      </trkpt>
      <trkpt lat="44.11679" lon="7.08063">
        <ele>1093</ele>
        <time>2017-05-25T11:58:19.000Z</time>
      </trkpt>
      <trkpt lat="44.11681" lon="7.08064">
        <ele>1093</ele>
        <time>2017-05-25T11:58:20.000Z</time>
      </trkpt>
      <trkpt lat="44.11687" lon="7.08067">
        <ele>1093</ele>
        <time>2017-05-25T11:58:22.000Z</time>
      </trkpt>
      <trkpt lat="44.11691" lon="7.08067">
        <ele>1093</ele>
        <time>2017-05-25T11:58:23.000Z</time>
      </trkpt>
      <trkpt lat="44.11696" lon="7.08067">
        <ele>1092</ele>
        <time>2017-05-25T11:58:24.000Z</time>
      </trkpt>
      <trkpt lat="44.11705" lon="7.08067">
        <ele>1091</ele>
        <time>2017-05-25T11:58:26.000Z</time>
      </trkpt>
      <trkpt lat="44.11708" lon="7.08067">
        <ele>1091</ele>
        <time>2017-05-25T11:58:27.000Z</time>
      </trkpt>
      <trkpt lat="44.11709" lon="7.08067">
        <ele>1091</ele>
        <time>2017-05-25T11:58:28.000Z</time>
      </trkpt>
      <trkpt lat="44.11709" lon="7.08069">
        <ele>1090</ele>
        <time>2017-05-25T11:58:29.000Z</time>
      </trkpt>
      <trkpt lat="44.11708" lon="7.08071">
        <ele>1090</ele>
        <time>2017-05-25T11:58:30.000Z</time>
      </trkpt>
      <trkpt lat="44.11704" lon="7.08076">
        <ele>1090</ele>
        <time>2017-05-25T11:58:32.000Z</time>
      </trkpt>
      <trkpt lat="44.11703" lon="7.08078">
        <ele>1090</ele>
        <time>2017-05-25T11:58:33.000Z</time>
      </trkpt>
      <trkpt lat="44.11703" lon="7.0808">
        <ele>1090</ele>
        <time>2017-05-25T11:58:34.000Z</time>
      </trkpt>
      <trkpt lat="44.11704" lon="7.0808">
        <ele>1090</ele>
        <time>2017-05-25T11:58:36.000Z</time>
      </trkpt>
      <trkpt lat="44.11706" lon="7.08081">
        <ele>1089</ele>
        <time>2017-05-25T11:58:38.000Z</time>
      </trkpt>
      <trkpt lat="44.11714" lon="7.08082">
        <ele>1088</ele>
        <time>2017-05-25T11:58:40.000Z</time>
      </trkpt>
      <trkpt lat="44.11716" lon="7.08082">
        <ele>1087</ele>
        <time>2017-05-25T11:58:41.000Z</time>
      </trkpt>
      <trkpt lat="44.11717" lon="7.08083">
        <ele>1064</ele>
        <time>2017-05-25T11:58:42.000Z</time>
      </trkpt>
      <trkpt lat="44.11716" lon="7.08085">
        <ele>1064</ele>
        <time>2017-05-25T11:58:44.000Z</time>
      </trkpt>
      <trkpt lat="44.11713" lon="7.08089">
        <ele>1064</ele>
        <time>2017-05-25T11:58:46.000Z</time>
      </trkpt>
      <trkpt lat="44.11714" lon="7.0809">
        <ele>1064</ele>
        <time>2017-05-25T11:58:47.000Z</time>
      </trkpt>
      <trkpt lat="44.11715" lon="7.08091">
        <ele>1064</ele>
        <time>2017-05-25T11:58:48.000Z</time>
      </trkpt>
      <trkpt lat="44.11717" lon="7.08092">
        <ele>1063</ele>
        <time>2017-05-25T11:58:50.000Z</time>
      </trkpt>
      <trkpt lat="44.11723" lon="7.08092">
        <ele>1063</ele>
        <time>2017-05-25T11:58:52.000Z</time>
      </trkpt>
      <trkpt lat="44.11725" lon="7.08094">
        <ele>1062</ele>
        <time>2017-05-25T11:58:53.000Z</time>
      </trkpt>
      <trkpt lat="44.11725" lon="7.08097">
        <ele>1062</ele>
        <time>2017-05-25T11:58:54.000Z</time>
      </trkpt>
      <trkpt lat="44.11724" lon="7.08098">
        <ele>1062</ele>
        <time>2017-05-25T11:58:55.000Z</time>
      </trkpt>
      <trkpt lat="44.11722" lon="7.08101">
        <ele>1062</ele>
        <time>2017-05-25T11:58:56.000Z</time>
      </trkpt>
      <trkpt lat="44.1172" lon="7.08102">
        <ele>1062</ele>
        <time>2017-05-25T11:58:57.000Z</time>
      </trkpt>
      <trkpt lat="44.1172" lon="7.08103">
        <ele>1061</ele>
        <time>2017-05-25T11:58:58.000Z</time>
      </trkpt>
      <trkpt lat="44.11721" lon="7.08104">
        <ele>1061</ele>
        <time>2017-05-25T11:58:59.000Z</time>
      </trkpt>
      <trkpt lat="44.11723" lon="7.08105">
        <ele>1061</ele>
        <time>2017-05-25T11:59:01.000Z</time>
      </trkpt>
      <trkpt lat="44.11732" lon="7.08107">
        <ele>1060</ele>
        <time>2017-05-25T11:59:04.000Z</time>
      </trkpt>
      <trkpt lat="44.11739" lon="7.08108">
        <ele>1060</ele>
        <time>2017-05-25T11:59:06.000Z</time>
      </trkpt>
      <trkpt lat="44.11743" lon="7.08109">
        <ele>1060</ele>
        <time>2017-05-25T11:59:08.000Z</time>
      </trkpt>
      <trkpt lat="44.11745" lon="7.08109">
        <ele>1059</ele>
        <time>2017-05-25T11:59:09.000Z</time>
      </trkpt>
      <trkpt lat="44.11746" lon="7.08111">
        <ele>1059</ele>
        <time>2017-05-25T11:59:10.000Z</time>
      </trkpt>
      <trkpt lat="44.11745" lon="7.08112">
        <ele>1059</ele>
        <time>2017-05-25T11:59:11.000Z</time>
      </trkpt>
      <trkpt lat="44.11743" lon="7.08115">
        <ele>1058</ele>
        <time>2017-05-25T11:59:12.000Z</time>
      </trkpt>
      <trkpt lat="44.11741" lon="7.08118">
        <ele>1057</ele>
        <time>2017-05-25T11:59:13.000Z</time>
      </trkpt>
      <trkpt lat="44.11736" lon="7.08125">
        <ele>1056</ele>
        <time>2017-05-25T11:59:15.000Z</time>
      </trkpt>
      <trkpt lat="44.11735" lon="7.08128">
        <ele>1055</ele>
        <time>2017-05-25T11:59:16.000Z</time>
      </trkpt>
      <trkpt lat="44.11735" lon="7.08129">
        <ele>1055</ele>
        <time>2017-05-25T11:59:17.000Z</time>
      </trkpt>
      <trkpt lat="44.11737" lon="7.08131">
        <ele>1054</ele>
        <time>2017-05-25T11:59:19.000Z</time>
      </trkpt>
      <trkpt lat="44.1174" lon="7.08131">
        <ele>1053</ele>
        <time>2017-05-25T11:59:21.000Z</time>
      </trkpt>
      <trkpt lat="44.11743" lon="7.08133">
        <ele>1053</ele>
        <time>2017-05-25T11:59:22.000Z</time>
      </trkpt>
      <trkpt lat="44.11749" lon="7.08134">
        <ele>1052</ele>
        <time>2017-05-25T11:59:24.000Z</time>
      </trkpt>
      <trkpt lat="44.11754" lon="7.08136">
        <ele>1033</ele>
        <time>2017-05-25T11:59:26.000Z</time>
      </trkpt>
      <trkpt lat="44.11758" lon="7.08137">
        <ele>1032</ele>
        <time>2017-05-25T11:59:27.000Z</time>
      </trkpt>
      <trkpt lat="44.11763" lon="7.08137">
        <ele>1031</ele>
        <time>2017-05-25T11:59:28.000Z</time>
      </trkpt>
      <trkpt lat="44.11769" lon="7.08137">
        <ele>1030</ele>
        <time>2017-05-25T11:59:30.000Z</time>
      </trkpt>
      <trkpt lat="44.11771" lon="7.08136">
        <ele>1030</ele>
        <time>2017-05-25T11:59:31.000Z</time>
      </trkpt>
      <trkpt lat="44.11772" lon="7.08135">
        <ele>1030</ele>
        <time>2017-05-25T11:59:32.000Z</time>
      </trkpt>
      <trkpt lat="44.11774" lon="7.08137">
        <ele>1029</ele>
        <time>2017-05-25T11:59:33.000Z</time>
      </trkpt>
      <trkpt lat="44.11773" lon="7.0814">
        <ele>1029</ele>
        <time>2017-05-25T11:59:34.000Z</time>
      </trkpt>
      <trkpt lat="44.11774" lon="7.08144">
        <ele>1029</ele>
        <time>2017-05-25T11:59:35.000Z</time>
      </trkpt>
      <trkpt lat="44.11771" lon="7.08151">
        <ele>1029</ele>
        <time>2017-05-25T11:59:37.000Z</time>
      </trkpt>
      <trkpt lat="44.11767" lon="7.08157">
        <ele>1029</ele>
        <time>2017-05-25T11:59:39.000Z</time>
      </trkpt>
      <trkpt lat="44.11762" lon="7.08163">
        <ele>1030</ele>
        <time>2017-05-25T11:59:41.000Z</time>
      </trkpt>
      <trkpt lat="44.11757" lon="7.08171">
        <ele>1023</ele>
        <time>2017-05-25T11:59:43.000Z</time>
      </trkpt>
      <trkpt lat="44.11752" lon="7.08178">
        <ele>1020</ele>
        <time>2017-05-25T11:59:45.000Z</time>
      </trkpt>
      <trkpt lat="44.11749" lon="7.08181">
        <ele>1027</ele>
        <time>2017-05-25T11:59:46.000Z</time>
      </trkpt>
      <trkpt lat="44.11739" lon="7.0819">
        <ele>1025</ele>
        <time>2017-05-25T11:59:49.000Z</time>
      </trkpt>
      <trkpt lat="44.11736" lon="7.08193">
        <ele>1024</ele>
        <time>2017-05-25T11:59:50.000Z</time>
      </trkpt>
      <trkpt lat="44.11731" lon="7.08205">
        <ele>1022</ele>
        <time>2017-05-25T11:59:53.000Z</time>
      </trkpt>
      <trkpt lat="44.11728" lon="7.08222">
        <ele>1017</ele>
        <time>2017-05-25T11:59:57.000Z</time>
      </trkpt>
      <trkpt lat="44.11725" lon="7.08228">
        <ele>1016</ele>
        <time>2017-05-25T11:59:58.000Z</time>
      </trkpt>
      <trkpt lat="44.11722" lon="7.08232">
        <ele>1016</ele>
        <time>2017-05-25T11:59:59.000Z</time>
      </trkpt>
      <trkpt lat="44.11719" lon="7.08238">
        <ele>1015</ele>
        <time>2017-05-25T12:00:00.000Z</time>
      </trkpt>
      <trkpt lat="44.11714" lon="7.08247">
        <ele>1015</ele>
        <time>2017-05-25T12:00:02.000Z</time>
      </trkpt>
      <trkpt lat="44.11712" lon="7.08249">
        <ele>1015</ele>
        <time>2017-05-25T12:00:03.000Z</time>
      </trkpt>
      <trkpt lat="44.11713" lon="7.0825">
        <ele>1015</ele>
        <time>2017-05-25T12:00:04.000Z</time>
      </trkpt>
      <trkpt lat="44.11714" lon="7.08252">
        <ele>994</ele>
        <time>2017-05-25T12:00:05.000Z</time>
      </trkpt>
      <trkpt lat="44.11714" lon="7.08255">
        <ele>994</ele>
        <time>2017-05-25T12:00:06.000Z</time>
      </trkpt>
      <trkpt lat="44.11711" lon="7.08261">
        <ele>994</ele>
        <time>2017-05-25T12:00:08.000Z</time>
      </trkpt>
      <trkpt lat="44.11709" lon="7.08264">
        <ele>994</ele>
        <time>2017-05-25T12:00:09.000Z</time>
      </trkpt>
      <trkpt lat="44.11705" lon="7.08265">
        <ele>994</ele>
        <time>2017-05-25T12:00:11.000Z</time>
      </trkpt>
      <trkpt lat="44.11705" lon="7.08266">
        <ele>994</ele>
        <time>2017-05-25T12:00:15.000Z</time>
      </trkpt>
      <trkpt lat="44.11704" lon="7.0827">
        <ele>993</ele>
        <time>2017-05-25T12:00:22.000Z</time>
      </trkpt>
      <trkpt lat="44.11704" lon="7.08269">
        <ele>993</ele>
        <time>2017-05-25T12:00:26.000Z</time>
      </trkpt>
      <trkpt lat="44.11704" lon="7.0827">
        <ele>993</ele>
        <time>2017-05-25T12:00:29.000Z</time>
      </trkpt>
      <trkpt lat="44.11704" lon="7.0827">
        <ele>993</ele>
        <time>2017-05-25T12:00:36.000Z</time>
      </trkpt>
      <trkpt lat="44.11705" lon="7.0827">
        <ele>993</ele>
        <time>2017-05-25T12:00:41.000Z</time>
      </trkpt>
      <trkpt lat="44.11706" lon="7.08271">
        <ele>993</ele>
        <time>2017-05-25T12:00:47.000Z</time>
      </trkpt>
      <trkpt lat="44.11706" lon="7.08271">
        <ele>993</ele>
        <time>2017-05-25T12:00:49.000Z</time>
      </trkpt>
      <trkpt lat="44.11707" lon="7.0827">
        <ele>993</ele>
        <time>2017-05-25T12:00:53.000Z</time>
      </trkpt>
      <trkpt lat="44.11707" lon="7.0827">
        <ele>993</ele>
        <time>2017-05-25T12:00:57.000Z</time>
      </trkpt>
      <trkpt lat="44.11707" lon="7.0827">
        <ele>993</ele>
        <time>2017-05-25T12:01:03.000Z</time>
      </trkpt>
      <trkpt lat="44.11707" lon="7.0827">
        <ele>993</ele>
        <time>2017-05-25T12:01:05.000Z</time>
      </trkpt>
      <trkpt lat="44.11707" lon="7.0827">
        <ele>993</ele>
        <time>2017-05-25T12:01:09.000Z</time>
      </trkpt>
      <trkpt lat="44.11707" lon="7.0827">
        <ele>993</ele>
        <time>2017-05-25T12:01:17.000Z</time>
      </trkpt>
      <trkpt lat="44.11707" lon="7.0827">
        <ele>993</ele>
        <time>2017-05-25T12:01:25.000Z</time>
      </trkpt>
      <trkpt lat="44.11706" lon="7.0827">
        <ele>993</ele>
        <time>2017-05-25T12:01:28.000Z</time>
      </trkpt>
      <trkpt lat="44.11706" lon="7.0827">
        <ele>993</ele>
        <time>2017-05-25T12:01:35.000Z</time>
      </trkpt>
      <trkpt lat="44.11706" lon="7.0827">
        <ele>993</ele>
        <time>2017-05-25T12:01:38.000Z</time>
      </trkpt>
      <trkpt lat="44.11705" lon="7.08271">
        <ele>993</ele>
        <time>2017-05-25T12:01:41.000Z</time>
      </trkpt>
      <trkpt lat="44.11705" lon="7.08271">
        <ele>993</ele>
        <time>2017-05-25T12:01:46.000Z</time>
      </trkpt>
      <trkpt lat="44.11705" lon="7.08271">
        <ele>993</ele>
        <time>2017-05-25T12:01:50.000Z</time>
      </trkpt>
      <trkpt lat="44.11704" lon="7.08272">
        <ele>993</ele>
        <time>2017-05-25T12:01:54.000Z</time>
      </trkpt>
      <trkpt lat="44.11704" lon="7.08273">
        <ele>993</ele>
        <time>2017-05-25T12:01:59.000Z</time>
      </trkpt>
      <trkpt lat="44.11704" lon="7.08272">
        <ele>993</ele>
        <time>2017-05-25T12:02:04.000Z</time>
      </trkpt>
      <trkpt lat="44.11704" lon="7.08272">
        <ele>993</ele>
        <time>2017-05-25T12:02:07.000Z</time>
      </trkpt>
      <trkpt lat="44.11706" lon="7.08269">
        <ele>993</ele>
        <time>2017-05-25T12:02:17.000Z</time>
      </trkpt>
      <trkpt lat="44.11706" lon="7.08268">
        <ele>993</ele>
        <time>2017-05-25T12:02:26.000Z</time>
      </trkpt>
      <trkpt lat="44.11705" lon="7.08267">
        <ele>994</ele>
        <time>2017-05-25T12:02:40.000Z</time>
      </trkpt>
      <trkpt lat="44.11705" lon="7.08268">
        <ele>993</ele>
        <time>2017-05-25T12:02:51.000Z</time>
      </trkpt>
      <trkpt lat="44.11705" lon="7.08267">
        <ele>994</ele>
        <time>2017-05-25T12:03:00.000Z</time>
      </trkpt>
      <trkpt lat="44.11704" lon="7.08268">
        <ele>994</ele>
        <time>2017-05-25T12:03:16.000Z</time>
      </trkpt>
      <trkpt lat="44.11704" lon="7.08268">
        <ele>994</ele>
        <time>2017-05-25T12:03:23.000Z</time>
      </trkpt>
      <trkpt lat="44.11704" lon="7.08268">
        <ele>994</ele>
        <time>2017-05-25T12:03:37.000Z</time>
      </trkpt>
      <trkpt lat="44.11702" lon="7.08269">
        <ele>994</ele>
        <time>2017-05-25T12:03:53.000Z</time>
      </trkpt>
      <trkpt lat="44.11702" lon="7.08271">
        <ele>993</ele>
        <time>2017-05-25T12:04:09.000Z</time>
      </trkpt>
      <trkpt lat="44.11702" lon="7.0827">
        <ele>993</ele>
        <time>2017-05-25T12:04:16.000Z</time>
      </trkpt>
      <trkpt lat="44.11702" lon="7.0827">
        <ele>993</ele>
        <time>2017-05-25T12:04:27.000Z</time>
      </trkpt>
      <trkpt lat="44.11703" lon="7.08269">
        <ele>993</ele>
        <time>2017-05-25T12:04:34.000Z</time>
      </trkpt>
      <trkpt lat="44.11704" lon="7.08269">
        <ele>993</ele>
        <time>2017-05-25T12:04:43.000Z</time>
      </trkpt>
      <trkpt lat="44.11704" lon="7.08269">
        <ele>993</ele>
        <time>2017-05-25T12:04:50.000Z</time>
      </trkpt>
      <trkpt lat="44.11704" lon="7.0827">
        <ele>993</ele>
        <time>2017-05-25T12:05:08.000Z</time>
      </trkpt>
      <trkpt lat="44.11704" lon="7.08269">
        <ele>993</ele>
        <time>2017-05-25T12:05:17.000Z</time>
      </trkpt>
      <trkpt lat="44.11703" lon="7.08271">
        <ele>993</ele>
        <time>2017-05-25T12:05:30.000Z</time>
      </trkpt>
      <trkpt lat="44.11704" lon="7.08271">
        <ele>993</ele>
        <time>2017-05-25T12:05:39.000Z</time>
      </trkpt>
      <trkpt lat="44.117" lon="7.08268">
        <ele>994</ele>
        <time>2017-05-25T12:05:43.000Z</time>
      </trkpt>
      <trkpt lat="44.11697" lon="7.08267">
        <ele>995</ele>
        <time>2017-05-25T12:05:44.000Z</time>
      </trkpt>
      <trkpt lat="44.11691" lon="7.08267">
        <ele>996</ele>
        <time>2017-05-25T12:05:47.000Z</time>
      </trkpt>
      <trkpt lat="44.1169" lon="7.08269">
        <ele>995</ele>
        <time>2017-05-25T12:05:48.000Z</time>
      </trkpt>
      <trkpt lat="44.11689" lon="7.08272">
        <ele>995</ele>
        <time>2017-05-25T12:05:49.000Z</time>
      </trkpt>
      <trkpt lat="44.11688" lon="7.0828">
        <ele>993</ele>
        <time>2017-05-25T12:05:51.000Z</time>
      </trkpt>
      <trkpt lat="44.1169" lon="7.08296">
        <ele>990</ele>
        <time>2017-05-25T12:05:55.000Z</time>
      </trkpt>
      <trkpt lat="44.11692" lon="7.08301">
        <ele>989</ele>
        <time>2017-05-25T12:05:56.000Z</time>
      </trkpt>
      <trkpt lat="44.11693" lon="7.08313">
        <ele>987</ele>
        <time>2017-05-25T12:05:59.000Z</time>
      </trkpt>
      <trkpt lat="44.11689" lon="7.08319">
        <ele>986</ele>
        <time>2017-05-25T12:06:01.000Z</time>
      </trkpt>
      <trkpt lat="44.11686" lon="7.08321">
        <ele>986</ele>
        <time>2017-05-25T12:06:02.000Z</time>
      </trkpt>
      <trkpt lat="44.11684" lon="7.08323">
        <ele>985</ele>
        <time>2017-05-25T12:06:03.000Z</time>
      </trkpt>
      <trkpt lat="44.11685" lon="7.08331">
        <ele>984</ele>
        <time>2017-05-25T12:06:05.000Z</time>
      </trkpt>
      <trkpt lat="44.11684" lon="7.08335">
        <ele>972</ele>
        <time>2017-05-25T12:06:06.000Z</time>
      </trkpt>
      <trkpt lat="44.11681" lon="7.08339">
        <ele>973</ele>
        <time>2017-05-25T12:06:08.000Z</time>
      </trkpt>
      <trkpt lat="44.11676" lon="7.08341">
        <ele>974</ele>
        <time>2017-05-25T12:06:10.000Z</time>
      </trkpt>
      <trkpt lat="44.11673" lon="7.08343">
        <ele>974</ele>
        <time>2017-05-25T12:06:11.000Z</time>
      </trkpt>
      <trkpt lat="44.11669" lon="7.08342">
        <ele>975</ele>
        <time>2017-05-25T12:06:12.000Z</time>
      </trkpt>
      <trkpt lat="44.11662" lon="7.08341">
        <ele>980</ele>
        <time>2017-05-25T12:06:14.000Z</time>
      </trkpt>
      <trkpt lat="44.11658" lon="7.0834">
        <ele>980</ele>
        <time>2017-05-25T12:06:15.000Z</time>
      </trkpt>
      <trkpt lat="44.11655" lon="7.08339">
        <ele>980</ele>
        <time>2017-05-25T12:06:16.000Z</time>
      </trkpt>
      <trkpt lat="44.11644" lon="7.08336">
        <ele>980</ele>
        <time>2017-05-25T12:06:19.000Z</time>
      </trkpt>
      <trkpt lat="44.11638" lon="7.08332">
        <ele>996</ele>
        <time>2017-05-25T12:06:21.000Z</time>
      </trkpt>
      <trkpt lat="44.11634" lon="7.08326">
        <ele>998</ele>
        <time>2017-05-25T12:06:23.000Z</time>
      </trkpt>
      <trkpt lat="44.11626" lon="7.08323">
        <ele>999</ele>
        <time>2017-05-25T12:06:26.000Z</time>
      </trkpt>
      <trkpt lat="44.11624" lon="7.08325">
        <ele>1000</ele>
        <time>2017-05-25T12:06:27.000Z</time>
      </trkpt>
      <trkpt lat="44.11623" lon="7.08329">
        <ele>1000</ele>
        <time>2017-05-25T12:06:28.000Z</time>
      </trkpt>
      <trkpt lat="44.11622" lon="7.08337">
        <ele>983</ele>
        <time>2017-05-25T12:06:30.000Z</time>
      </trkpt>
      <trkpt lat="44.11622" lon="7.0834">
        <ele>983</ele>
        <time>2017-05-25T12:06:31.000Z</time>
      </trkpt>
      <trkpt lat="44.11621" lon="7.0835">
        <ele>982</ele>
        <time>2017-05-25T12:06:33.000Z</time>
      </trkpt>
      <trkpt lat="44.11618" lon="7.08357">
        <ele>981</ele>
        <time>2017-05-25T12:06:35.000Z</time>
      </trkpt>
      <trkpt lat="44.11617" lon="7.08361">
        <ele>981</ele>
        <time>2017-05-25T12:06:36.000Z</time>
      </trkpt>
      <trkpt lat="44.11615" lon="7.08377">
        <ele>978</ele>
        <time>2017-05-25T12:06:39.000Z</time>
      </trkpt>
      <trkpt lat="44.11614" lon="7.08383">
        <ele>977</ele>
        <time>2017-05-25T12:06:40.000Z</time>
      </trkpt>
      <trkpt lat="44.11607" lon="7.08395">
        <ele>976</ele>
        <time>2017-05-25T12:06:43.000Z</time>
      </trkpt>
      <trkpt lat="44.11608" lon="7.08402">
        <ele>975</ele>
        <time>2017-05-25T12:06:45.000Z</time>
      </trkpt>
      <trkpt lat="44.11608" lon="7.08406">
        <ele>975</ele>
        <time>2017-05-25T12:06:46.000Z</time>
      </trkpt>
      <trkpt lat="44.11604" lon="7.08414">
        <ele>974</ele>
        <time>2017-05-25T12:06:48.000Z</time>
      </trkpt>
      <trkpt lat="44.11601" lon="7.08418">
        <ele>962</ele>
        <time>2017-05-25T12:06:49.000Z</time>
      </trkpt>
      <trkpt lat="44.11599" lon="7.08421">
        <ele>962</ele>
        <time>2017-05-25T12:06:50.000Z</time>
      </trkpt>
      <trkpt lat="44.11598" lon="7.08428">
        <ele>961</ele>
        <time>2017-05-25T12:06:52.000Z</time>
      </trkpt>
      <trkpt lat="44.11598" lon="7.0843">
        <ele>961</ele>
        <time>2017-05-25T12:06:53.000Z</time>
      </trkpt>
      <trkpt lat="44.11597" lon="7.08438">
        <ele>959</ele>
        <time>2017-05-25T12:06:55.000Z</time>
      </trkpt>
      <trkpt lat="44.11595" lon="7.08444">
        <ele>957</ele>
        <time>2017-05-25T12:06:57.000Z</time>
      </trkpt>
      <trkpt lat="44.11595" lon="7.08448">
        <ele>956</ele>
        <time>2017-05-25T12:06:58.000Z</time>
      </trkpt>
      <trkpt lat="44.1159" lon="7.08456">
        <ele>955</ele>
        <time>2017-05-25T12:07:00.000Z</time>
      </trkpt>
      <trkpt lat="44.11586" lon="7.08463">
        <ele>954</ele>
        <time>2017-05-25T12:07:02.000Z</time>
      </trkpt>
      <trkpt lat="44.11579" lon="7.08476">
        <ele>957</ele>
        <time>2017-05-25T12:07:04.000Z</time>
      </trkpt>
      <trkpt lat="44.11576" lon="7.0848">
        <ele>956</ele>
        <time>2017-05-25T12:07:05.000Z</time>
      </trkpt>
      <trkpt lat="44.11573" lon="7.08485">
        <ele>955</ele>
        <time>2017-05-25T12:07:06.000Z</time>
      </trkpt>
      <trkpt lat="44.11574" lon="7.08489">
        <ele>954</ele>
        <time>2017-05-25T12:07:08.000Z</time>
      </trkpt>
      <trkpt lat="44.11575" lon="7.08492">
        <ele>953</ele>
        <time>2017-05-25T12:07:09.000Z</time>
      </trkpt>
      <trkpt lat="44.11574" lon="7.08496">
        <ele>953</ele>
        <time>2017-05-25T12:07:10.000Z</time>
      </trkpt>
      <trkpt lat="44.1157" lon="7.08505">
        <ele>943</ele>
        <time>2017-05-25T12:07:12.000Z</time>
      </trkpt>
      <trkpt lat="44.11567" lon="7.08511">
        <ele>941</ele>
        <time>2017-05-25T12:07:14.000Z</time>
      </trkpt>
      <trkpt lat="44.11564" lon="7.08519">
        <ele>939</ele>
        <time>2017-05-25T12:07:16.000Z</time>
      </trkpt>
      <trkpt lat="44.1156" lon="7.08529">
        <ele>937</ele>
        <time>2017-05-25T12:07:18.000Z</time>
      </trkpt>
      <trkpt lat="44.11558" lon="7.08533">
        <ele>936</ele>
        <time>2017-05-25T12:07:19.000Z</time>
      </trkpt>
      <trkpt lat="44.11556" lon="7.08537">
        <ele>936</ele>
        <time>2017-05-25T12:07:20.000Z</time>
      </trkpt>
      <trkpt lat="44.11554" lon="7.08539">
        <ele>935</ele>
        <time>2017-05-25T12:07:21.000Z</time>
      </trkpt>
      <trkpt lat="44.11552" lon="7.08542">
        <ele>935</ele>
        <time>2017-05-25T12:07:22.000Z</time>
      </trkpt>
      <trkpt lat="44.11552" lon="7.08544">
        <ele>934</ele>
        <time>2017-05-25T12:07:23.000Z</time>
      </trkpt>
      <trkpt lat="44.11554" lon="7.08552">
        <ele>933</ele>
        <time>2017-05-25T12:07:25.000Z</time>
      </trkpt>
      <trkpt lat="44.11555" lon="7.08555">
        <ele>933</ele>
        <time>2017-05-25T12:07:26.000Z</time>
      </trkpt>
      <trkpt lat="44.11559" lon="7.08558">
        <ele>932</ele>
        <time>2017-05-25T12:07:28.000Z</time>
      </trkpt>
      <trkpt lat="44.11561" lon="7.08558">
        <ele>932</ele>
        <time>2017-05-25T12:07:29.000Z</time>
      </trkpt>
      <trkpt lat="44.11564" lon="7.08559">
        <ele>932</ele>
        <time>2017-05-25T12:07:30.000Z</time>
      </trkpt>
      <trkpt lat="44.11565" lon="7.08562">
        <ele>931</ele>
        <time>2017-05-25T12:07:31.000Z</time>
      </trkpt>
      <trkpt lat="44.11565" lon="7.08565">
        <ele>931</ele>
        <time>2017-05-25T12:07:32.000Z</time>
      </trkpt>
      <trkpt lat="44.11563" lon="7.08569">
        <ele>930</ele>
        <time>2017-05-25T12:07:33.000Z</time>
      </trkpt>
      <trkpt lat="44.11561" lon="7.08574">
        <ele>929</ele>
        <time>2017-05-25T12:07:35.000Z</time>
      </trkpt>
      <trkpt lat="44.11557" lon="7.08576">
        <ele>930</ele>
        <time>2017-05-25T12:07:37.000Z</time>
      </trkpt>
      <trkpt lat="44.11552" lon="7.08575">
        <ele>930</ele>
        <time>2017-05-25T12:07:39.000Z</time>
      </trkpt>
      <trkpt lat="44.11549" lon="7.08575">
        <ele>930</ele>
        <time>2017-05-25T12:07:40.000Z</time>
      </trkpt>
      <trkpt lat="44.11541" lon="7.08576">
        <ele>930</ele>
        <time>2017-05-25T12:07:44.000Z</time>
      </trkpt>
      <trkpt lat="44.11524" lon="7.08572">
        <ele>929</ele>
        <time>2017-05-25T12:07:51.000Z</time>
      </trkpt>
      <trkpt lat="44.11507" lon="7.08569">
        <ele>927</ele>
        <time>2017-05-25T12:07:59.000Z</time>
      </trkpt>
      <trkpt lat="44.11496" lon="7.08565">
        <ele>921</ele>
        <time>2017-05-25T12:08:05.000Z</time>
      </trkpt>
      <trkpt lat="44.11497" lon="7.08565">
        <ele>921</ele>
        <time>2017-05-25T12:08:07.000Z</time>
      </trkpt>
      <trkpt lat="44.11496" lon="7.08564">
        <ele>921</ele>
        <time>2017-05-25T12:08:10.000Z</time>
      </trkpt>
      <trkpt lat="44.11496" lon="7.08564">
        <ele>921</ele>
        <time>2017-05-25T12:08:19.000Z</time>
      </trkpt>
      <trkpt lat="44.11496" lon="7.08563">
        <ele>921</ele>
        <time>2017-05-25T12:08:24.000Z</time>
      </trkpt>
      <trkpt lat="44.11497" lon="7.08565">
        <ele>921</ele>
        <time>2017-05-25T12:08:31.000Z</time>
      </trkpt>
      <trkpt lat="44.11497" lon="7.08566">
        <ele>921</ele>
        <time>2017-05-25T12:08:41.000Z</time>
      </trkpt>
      <trkpt lat="44.11498" lon="7.08567">
        <ele>921</ele>
        <time>2017-05-25T12:08:47.000Z</time>
      </trkpt>
      <trkpt lat="44.11499" lon="7.08566">
        <ele>921</ele>
        <time>2017-05-25T12:08:50.000Z</time>
      </trkpt>
      <trkpt lat="44.11501" lon="7.08565">
        <ele>928</ele>
        <time>2017-05-25T12:08:55.000Z</time>
      </trkpt>
      <trkpt lat="44.11502" lon="7.08564">
        <ele>928</ele>
        <time>2017-05-25T12:09:02.000Z</time>
      </trkpt>
      <trkpt lat="44.11504" lon="7.08562">
        <ele>929</ele>
        <time>2017-05-25T12:09:14.000Z</time>
      </trkpt>
      <trkpt lat="44.11505" lon="7.08562">
        <ele>929</ele>
        <time>2017-05-25T12:09:19.000Z</time>
      </trkpt>
      <trkpt lat="44.11504" lon="7.08563">
        <ele>929</ele>
        <time>2017-05-25T12:09:25.000Z</time>
      </trkpt>
      <trkpt lat="44.11502" lon="7.08565">
        <ele>928</ele>
        <time>2017-05-25T12:09:32.000Z</time>
      </trkpt>
      <trkpt lat="44.115" lon="7.08567">
        <ele>921</ele>
        <time>2017-05-25T12:09:39.000Z</time>
      </trkpt>
      <trkpt lat="44.11499" lon="7.08568">
        <ele>921</ele>
        <time>2017-05-25T12:09:53.000Z</time>
      </trkpt>
      <trkpt lat="44.11499" lon="7.08569">
        <ele>921</ele>
        <time>2017-05-25T12:10:06.000Z</time>
      </trkpt>
      <trkpt lat="44.11499" lon="7.08569">
        <ele>921</ele>
        <time>2017-05-25T12:10:20.000Z</time>
      </trkpt>
      <trkpt lat="44.11499" lon="7.08569">
        <ele>921</ele>
        <time>2017-05-25T12:10:32.000Z</time>
      </trkpt>
      <trkpt lat="44.11498" lon="7.0857">
        <ele>921</ele>
        <time>2017-05-25T12:10:41.000Z</time>
      </trkpt>
      <trkpt lat="44.11497" lon="7.08571">
        <ele>921</ele>
        <time>2017-05-25T12:10:49.000Z</time>
      </trkpt>
      <trkpt lat="44.11497" lon="7.08572">
        <ele>921</ele>
        <time>2017-05-25T12:10:59.000Z</time>
      </trkpt>
      <trkpt lat="44.11498" lon="7.08572">
        <ele>921</ele>
        <time>2017-05-25T12:11:07.000Z</time>
      </trkpt>
      <trkpt lat="44.11496" lon="7.08572">
        <ele>921</ele>
        <time>2017-05-25T12:11:14.000Z</time>
      </trkpt>
      <trkpt lat="44.11496" lon="7.08571">
        <ele>921</ele>
        <time>2017-05-25T12:11:19.000Z</time>
      </trkpt>
      <trkpt lat="44.11502" lon="7.08571">
        <ele>926</ele>
        <time>2017-05-25T12:11:31.000Z</time>
      </trkpt>
      <trkpt lat="44.11504" lon="7.08569">
        <ele>927</ele>
        <time>2017-05-25T12:11:44.000Z</time>
      </trkpt>
      <trkpt lat="44.11505" lon="7.08569">
        <ele>927</ele>
        <time>2017-05-25T12:11:54.000Z</time>
      </trkpt>
      <trkpt lat="44.11503" lon="7.0857">
        <ele>926</ele>
        <time>2017-05-25T12:12:08.000Z</time>
      </trkpt>
      <trkpt lat="44.11502" lon="7.08569">
        <ele>927</ele>
        <time>2017-05-25T12:12:26.000Z</time>
      </trkpt>
      <trkpt lat="44.11502" lon="7.08567">
        <ele>927</ele>
        <time>2017-05-25T12:12:41.000Z</time>
      </trkpt>
      <trkpt lat="44.11502" lon="7.08567">
        <ele>927</ele>
        <time>2017-05-25T12:12:56.000Z</time>
      </trkpt>
      <trkpt lat="44.11503" lon="7.08568">
        <ele>927</ele>
        <time>2017-05-25T12:13:12.000Z</time>
      </trkpt>
      <trkpt lat="44.11505" lon="7.08568">
        <ele>927</ele>
        <time>2017-05-25T12:13:26.000Z</time>
      </trkpt>
      <trkpt lat="44.11503" lon="7.0857">
        <ele>926</ele>
        <time>2017-05-25T12:13:33.000Z</time>
      </trkpt>
      <trkpt lat="44.11502" lon="7.0857">
        <ele>926</ele>
        <time>2017-05-25T12:13:38.000Z</time>
      </trkpt>
      <trkpt lat="44.11502" lon="7.08571">
        <ele>926</ele>
        <time>2017-05-25T12:13:43.000Z</time>
      </trkpt>
      <trkpt lat="44.115" lon="7.08572">
        <ele>921</ele>
        <time>2017-05-25T12:13:57.000Z</time>
      </trkpt>
      <trkpt lat="44.11498" lon="7.08573">
        <ele>921</ele>
        <time>2017-05-25T12:14:18.000Z</time>
      </trkpt>
      <trkpt lat="44.11497" lon="7.08573">
        <ele>921</ele>
        <time>2017-05-25T12:14:34.000Z</time>
      </trkpt>
      <trkpt lat="44.11496" lon="7.08574">
        <ele>920</ele>
        <time>2017-05-25T12:14:52.000Z</time>
      </trkpt>
      <trkpt lat="44.11495" lon="7.08575">
        <ele>920</ele>
        <time>2017-05-25T12:15:00.000Z</time>
      </trkpt>
      <trkpt lat="44.11495" lon="7.08576">
        <ele>920</ele>
        <time>2017-05-25T12:15:14.000Z</time>
      </trkpt>
      <trkpt lat="44.11496" lon="7.08577">
        <ele>920</ele>
        <time>2017-05-25T12:15:25.000Z</time>
      </trkpt>
      <trkpt lat="44.11497" lon="7.08577">
        <ele>920</ele>
        <time>2017-05-25T12:15:40.000Z</time>
      </trkpt>
      <trkpt lat="44.11496" lon="7.08577">
        <ele>920</ele>
        <time>2017-05-25T12:15:47.000Z</time>
      </trkpt>
      <trkpt lat="44.11494" lon="7.0858">
        <ele>920</ele>
        <time>2017-05-25T12:15:53.000Z</time>
      </trkpt>
      <trkpt lat="44.11488" lon="7.08575">
        <ele>920</ele>
        <time>2017-05-25T12:15:58.000Z</time>
      </trkpt>
      <trkpt lat="44.11483" lon="7.08563">
        <ele>921</ele>
        <time>2017-05-25T12:16:03.000Z</time>
      </trkpt>
      <trkpt lat="44.1148" lon="7.08554">
        <ele>922</ele>
        <time>2017-05-25T12:16:05.000Z</time>
      </trkpt>
      <trkpt lat="44.11477" lon="7.0855">
        <ele>922</ele>
        <time>2017-05-25T12:16:06.000Z</time>
      </trkpt>
      <trkpt lat="44.11471" lon="7.08544">
        <ele>922</ele>
        <time>2017-05-25T12:16:08.000Z</time>
      </trkpt>
      <trkpt lat="44.11465" lon="7.08539">
        <ele>922</ele>
        <time>2017-05-25T12:16:10.000Z</time>
      </trkpt>
      <trkpt lat="44.11459" lon="7.08533">
        <ele>922</ele>
        <time>2017-05-25T12:16:12.000Z</time>
      </trkpt>
      <trkpt lat="44.11445" lon="7.08527">
        <ele>921</ele>
        <time>2017-05-25T12:16:16.000Z</time>
      </trkpt>
      <trkpt lat="44.11442" lon="7.08523">
        <ele>921</ele>
        <time>2017-05-25T12:16:17.000Z</time>
      </trkpt>
      <trkpt lat="44.11439" lon="7.08511">
        <ele>922</ele>
        <time>2017-05-25T12:16:19.000Z</time>
      </trkpt>
      <trkpt lat="44.11432" lon="7.08496">
        <ele>933</ele>
        <time>2017-05-25T12:16:22.000Z</time>
      </trkpt>
      <trkpt lat="44.1143" lon="7.0849">
        <ele>934</ele>
        <time>2017-05-25T12:16:23.000Z</time>
      </trkpt>
      <trkpt lat="44.11429" lon="7.08484">
        <ele>935</ele>
        <time>2017-05-25T12:16:24.000Z</time>
      </trkpt>
      <trkpt lat="44.11422" lon="7.08455">
        <ele>943</ele>
        <time>2017-05-25T12:16:30.000Z</time>
      </trkpt>
      <trkpt lat="44.11411" lon="7.08431">
        <ele>946</ele>
        <time>2017-05-25T12:16:36.000Z</time>
      </trkpt>
      <trkpt lat="44.11399" lon="7.08437">
        <ele>946</ele>
        <time>2017-05-25T12:16:40.000Z</time>
      </trkpt>
      <trkpt lat="44.11393" lon="7.08448">
        <ele>946</ele>
        <time>2017-05-25T12:16:43.000Z</time>
      </trkpt>
      <trkpt lat="44.1139" lon="7.08454">
        <ele>945</ele>
        <time>2017-05-25T12:16:45.000Z</time>
      </trkpt>
      <trkpt lat="44.11381" lon="7.08467">
        <ele>945</ele>
        <time>2017-05-25T12:16:50.000Z</time>
      </trkpt>
      <trkpt lat="44.11375" lon="7.08474">
        <ele>945</ele>
        <time>2017-05-25T12:16:53.000Z</time>
      </trkpt>
      <trkpt lat="44.11371" lon="7.08479">
        <ele>945</ele>
        <time>2017-05-25T12:16:55.000Z</time>
      </trkpt>
      <trkpt lat="44.11357" lon="7.0849">
        <ele>946</ele>
        <time>2017-05-25T12:17:01.000Z</time>
      </trkpt>
      <trkpt lat="44.11352" lon="7.0849">
        <ele>947</ele>
        <time>2017-05-25T12:17:03.000Z</time>
      </trkpt>
      <trkpt lat="44.11344" lon="7.08491">
        <ele>947</ele>
        <time>2017-05-25T12:17:06.000Z</time>
      </trkpt>
      <trkpt lat="44.11343" lon="7.08493">
        <ele>948</ele>
        <time>2017-05-25T12:17:07.000Z</time>
      </trkpt>
      <trkpt lat="44.1134" lon="7.08501">
        <ele>942</ele>
        <time>2017-05-25T12:17:10.000Z</time>
      </trkpt>
      <trkpt lat="44.11339" lon="7.08508">
        <ele>941</ele>
        <time>2017-05-25T12:17:12.000Z</time>
      </trkpt>
      <trkpt lat="44.11337" lon="7.08524">
        <ele>934</ele>
        <time>2017-05-25T12:17:17.000Z</time>
      </trkpt>
      <trkpt lat="44.11337" lon="7.08531">
        <ele>932</ele>
        <time>2017-05-25T12:17:19.000Z</time>
      </trkpt>
      <trkpt lat="44.11335" lon="7.08541">
        <ele>930</ele>
        <time>2017-05-25T12:17:22.000Z</time>
      </trkpt>
      <trkpt lat="44.11335" lon="7.08544">
        <ele>929</ele>
        <time>2017-05-25T12:17:23.000Z</time>
      </trkpt>
      <trkpt lat="44.11332" lon="7.08553">
        <ele>952</ele>
        <time>2017-05-25T12:17:26.000Z</time>
      </trkpt>
      <trkpt lat="44.11331" lon="7.08556">
        <ele>951</ele>
        <time>2017-05-25T12:17:27.000Z</time>
      </trkpt>
      <trkpt lat="44.11328" lon="7.08564">
        <ele>948</ele>
        <time>2017-05-25T12:17:30.000Z</time>
      </trkpt>
      <trkpt lat="44.11322" lon="7.08576">
        <ele>944</ele>
        <time>2017-05-25T12:17:35.000Z</time>
      </trkpt>
      <trkpt lat="44.11321" lon="7.08579">
        <ele>943</ele>
        <time>2017-05-25T12:17:37.000Z</time>
      </trkpt>
      <trkpt lat="44.11321" lon="7.08583">
        <ele>943</ele>
        <time>2017-05-25T12:17:39.000Z</time>
      </trkpt>
      <trkpt lat="44.11316" lon="7.08588">
        <ele>935</ele>
        <time>2017-05-25T12:17:41.000Z</time>
      </trkpt>
      <trkpt lat="44.11315" lon="7.0859">
        <ele>935</ele>
        <time>2017-05-25T12:17:42.000Z</time>
      </trkpt>
      <trkpt lat="44.11314" lon="7.08593">
        <ele>936</ele>
        <time>2017-05-25T12:17:43.000Z</time>
      </trkpt>
      <trkpt lat="44.11304" lon="7.08604">
        <ele>938</ele>
        <time>2017-05-25T12:17:49.000Z</time>
      </trkpt>
      <trkpt lat="44.11292" lon="7.08613">
        <ele>940</ele>
        <time>2017-05-25T12:17:55.000Z</time>
      </trkpt>
      <trkpt lat="44.1129" lon="7.08614">
        <ele>940</ele>
        <time>2017-05-25T12:17:56.000Z</time>
      </trkpt>
      <trkpt lat="44.11278" lon="7.08621">
        <ele>942</ele>
        <time>2017-05-25T12:18:02.000Z</time>
      </trkpt>
      <trkpt lat="44.11269" lon="7.08634">
        <ele>941</ele>
        <time>2017-05-25T12:18:08.000Z</time>
      </trkpt>
      <trkpt lat="44.11267" lon="7.08637">
        <ele>940</ele>
        <time>2017-05-25T12:18:09.000Z</time>
      </trkpt>
      <trkpt lat="44.11262" lon="7.08648">
        <ele>939</ele>
        <time>2017-05-25T12:18:13.000Z</time>
      </trkpt>
      <trkpt lat="44.11254" lon="7.08661">
        <ele>939</ele>
        <time>2017-05-25T12:18:18.000Z</time>
      </trkpt>
      <trkpt lat="44.11251" lon="7.08666">
        <ele>939</ele>
        <time>2017-05-25T12:18:20.000Z</time>
      </trkpt>
      <trkpt lat="44.11236" lon="7.08681">
        <ele>940</ele>
        <time>2017-05-25T12:18:27.000Z</time>
      </trkpt>
      <trkpt lat="44.11228" lon="7.08684">
        <ele>941</ele>
        <time>2017-05-25T12:18:30.000Z</time>
      </trkpt>
      <trkpt lat="44.11217" lon="7.08686">
        <ele>943</ele>
        <time>2017-05-25T12:18:34.000Z</time>
      </trkpt>
      <trkpt lat="44.11194" lon="7.0869">
        <ele>948</ele>
        <time>2017-05-25T12:18:42.000Z</time>
      </trkpt>
      <trkpt lat="44.11191" lon="7.0869">
        <ele>949</ele>
        <time>2017-05-25T12:18:43.000Z</time>
      </trkpt>
      <trkpt lat="44.11174" lon="7.08689">
        <ele>953</ele>
        <time>2017-05-25T12:18:49.000Z</time>
      </trkpt>
      <trkpt lat="44.11165" lon="7.08701">
        <ele>979</ele>
        <time>2017-05-25T12:18:54.000Z</time>
      </trkpt>
      <trkpt lat="44.11166" lon="7.08704">
        <ele>978</ele>
        <time>2017-05-25T12:18:55.000Z</time>
      </trkpt>
      <trkpt lat="44.11164" lon="7.08715">
        <ele>976</ele>
        <time>2017-05-25T12:18:58.000Z</time>
      </trkpt>
      <trkpt lat="44.11161" lon="7.08722">
        <ele>974</ele>
        <time>2017-05-25T12:19:00.000Z</time>
      </trkpt>
      <trkpt lat="44.1116" lon="7.08737">
        <ele>966</ele>
        <time>2017-05-25T12:19:04.000Z</time>
      </trkpt>
      <trkpt lat="44.11159" lon="7.08741">
        <ele>964</ele>
        <time>2017-05-25T12:19:05.000Z</time>
      </trkpt>
      <trkpt lat="44.11156" lon="7.08751">
        <ele>956</ele>
        <time>2017-05-25T12:19:08.000Z</time>
      </trkpt>
      <trkpt lat="44.11154" lon="7.08754">
        <ele>957</ele>
        <time>2017-05-25T12:19:09.000Z</time>
      </trkpt>
      <trkpt lat="44.11149" lon="7.08772">
        <ele>960</ele>
        <time>2017-05-25T12:19:14.000Z</time>
      </trkpt>
      <trkpt lat="44.11147" lon="7.08777">
        <ele>961</ele>
        <time>2017-05-25T12:19:16.000Z</time>
      </trkpt>
      <trkpt lat="44.11144" lon="7.08787">
        <ele>961</ele>
        <time>2017-05-25T12:19:19.000Z</time>
      </trkpt>
      <trkpt lat="44.1114" lon="7.08801">
        <ele>961</ele>
        <time>2017-05-25T12:19:24.000Z</time>
      </trkpt>
      <trkpt lat="44.11135" lon="7.0881">
        <ele>960</ele>
        <time>2017-05-25T12:19:27.000Z</time>
      </trkpt>
      <trkpt lat="44.11134" lon="7.08813">
        <ele>960</ele>
        <time>2017-05-25T12:19:28.000Z</time>
      </trkpt>
      <trkpt lat="44.11127" lon="7.08827">
        <ele>962</ele>
        <time>2017-05-25T12:19:33.000Z</time>
      </trkpt>
      <trkpt lat="44.11122" lon="7.08836">
        <ele>950</ele>
        <time>2017-05-25T12:19:36.000Z</time>
      </trkpt>
      <trkpt lat="44.11117" lon="7.08848">
        <ele>951</ele>
        <time>2017-05-25T12:19:40.000Z</time>
      </trkpt>
      <trkpt lat="44.11113" lon="7.08853">
        <ele>952</ele>
        <time>2017-05-25T12:19:42.000Z</time>
      </trkpt>
      <trkpt lat="44.11105" lon="7.08864">
        <ele>952</ele>
        <time>2017-05-25T12:19:47.000Z</time>
      </trkpt>
      <trkpt lat="44.11103" lon="7.08866">
        <ele>953</ele>
        <time>2017-05-25T12:19:48.000Z</time>
      </trkpt>
      <trkpt lat="44.11089" lon="7.08878">
        <ele>953</ele>
        <time>2017-05-25T12:19:54.000Z</time>
      </trkpt>
      <trkpt lat="44.11085" lon="7.08882">
        <ele>953</ele>
        <time>2017-05-25T12:19:56.000Z</time>
      </trkpt>
      <trkpt lat="44.11081" lon="7.08897">
        <ele>980</ele>
        <time>2017-05-25T12:20:00.000Z</time>
      </trkpt>
      <trkpt lat="44.11079" lon="7.08912">
        <ele>969</ele>
        <time>2017-05-25T12:20:04.000Z</time>
      </trkpt>
      <trkpt lat="44.1108" lon="7.08921">
        <ele>963</ele>
        <time>2017-05-25T12:20:07.000Z</time>
      </trkpt>
      <trkpt lat="44.11078" lon="7.08928">
        <ele>966</ele>
        <time>2017-05-25T12:20:09.000Z</time>
      </trkpt>
      <trkpt lat="44.11076" lon="7.08935">
        <ele>967</ele>
        <time>2017-05-25T12:20:11.000Z</time>
      </trkpt>
      <trkpt lat="44.11073" lon="7.08941">
        <ele>968</ele>
        <time>2017-05-25T12:20:13.000Z</time>
      </trkpt>
      <trkpt lat="44.11072" lon="7.08943">
        <ele>968</ele>
        <time>2017-05-25T12:20:14.000Z</time>
      </trkpt>
      <trkpt lat="44.11069" lon="7.08948">
        <ele>969</ele>
        <time>2017-05-25T12:20:16.000Z</time>
      </trkpt>
      <trkpt lat="44.1106" lon="7.08965">
        <ele>968</ele>
        <time>2017-05-25T12:20:22.000Z</time>
      </trkpt>
      <trkpt lat="44.11058" lon="7.08967">
        <ele>969</ele>
        <time>2017-05-25T12:20:23.000Z</time>
      </trkpt>
      <trkpt lat="44.11056" lon="7.0897">
        <ele>968</ele>
        <time>2017-05-25T12:20:24.000Z</time>
      </trkpt>
      <trkpt lat="44.11054" lon="7.08976">
        <ele>968</ele>
        <time>2017-05-25T12:20:26.000Z</time>
      </trkpt>
      <trkpt lat="44.11051" lon="7.08981">
        <ele>968</ele>
        <time>2017-05-25T12:20:28.000Z</time>
      </trkpt>
      <trkpt lat="44.11044" lon="7.08987">
        <ele>970</ele>
        <time>2017-05-25T12:20:32.000Z</time>
      </trkpt>
      <trkpt lat="44.11035" lon="7.08998">
        <ele>974</ele>
        <time>2017-05-25T12:20:37.000Z</time>
      </trkpt>
      <trkpt lat="44.11033" lon="7.09001">
        <ele>960</ele>
        <time>2017-05-25T12:20:38.000Z</time>
      </trkpt>
      <trkpt lat="44.11028" lon="7.09017">
        <ele>961</ele>
        <time>2017-05-25T12:20:44.000Z</time>
      </trkpt>
      <trkpt lat="44.1102" lon="7.09033">
        <ele>960</ele>
        <time>2017-05-25T12:20:50.000Z</time>
      </trkpt>
      <trkpt lat="44.11011" lon="7.09045">
        <ele>959</ele>
        <time>2017-05-25T12:20:55.000Z</time>
      </trkpt>
      <trkpt lat="44.11009" lon="7.09047">
        <ele>960</ele>
        <time>2017-05-25T12:20:56.000Z</time>
      </trkpt>
      <trkpt lat="44.11004" lon="7.0905">
        <ele>960</ele>
        <time>2017-05-25T12:20:58.000Z</time>
      </trkpt>
      <trkpt lat="44.11" lon="7.09053">
        <ele>992</ele>
        <time>2017-05-25T12:21:00.000Z</time>
      </trkpt>
      <trkpt lat="44.10986" lon="7.0906">
        <ele>992</ele>
        <time>2017-05-25T12:21:06.000Z</time>
      </trkpt>
      <trkpt lat="44.10983" lon="7.09061">
        <ele>993</ele>
        <time>2017-05-25T12:21:07.000Z</time>
      </trkpt>
      <trkpt lat="44.10976" lon="7.09066">
        <ele>994</ele>
        <time>2017-05-25T12:21:11.000Z</time>
      </trkpt>
      <trkpt lat="44.10973" lon="7.09071">
        <ele>995</ele>
        <time>2017-05-25T12:21:13.000Z</time>
      </trkpt>
      <trkpt lat="44.10968" lon="7.09089">
        <ele>980</ele>
        <time>2017-05-25T12:21:19.000Z</time>
      </trkpt>
      <trkpt lat="44.10971" lon="7.09099">
        <ele>978</ele>
        <time>2017-05-25T12:21:22.000Z</time>
      </trkpt>
      <trkpt lat="44.10975" lon="7.0912">
        <ele>976</ele>
        <time>2017-05-25T12:21:28.000Z</time>
      </trkpt>
      <trkpt lat="44.10974" lon="7.09134">
        <ele>973</ele>
        <time>2017-05-25T12:21:32.000Z</time>
      </trkpt>
      <trkpt lat="44.10971" lon="7.09141">
        <ele>973</ele>
        <time>2017-05-25T12:21:34.000Z</time>
      </trkpt>
      <trkpt lat="44.10962" lon="7.09148">
        <ele>975</ele>
        <time>2017-05-25T12:21:38.000Z</time>
      </trkpt>
      <trkpt lat="44.10944" lon="7.09157">
        <ele>979</ele>
        <time>2017-05-25T12:21:45.000Z</time>
      </trkpt>
      <trkpt lat="44.10925" lon="7.09175">
        <ele>971</ele>
        <time>2017-05-25T12:21:53.000Z</time>
      </trkpt>
      <trkpt lat="44.10919" lon="7.09178">
        <ele>971</ele>
        <time>2017-05-25T12:21:55.000Z</time>
      </trkpt>
      <trkpt lat="44.10905" lon="7.09186">
        <ele>986</ele>
        <time>2017-05-25T12:22:00.000Z</time>
      </trkpt>
      <trkpt lat="44.10902" lon="7.09189">
        <ele>986</ele>
        <time>2017-05-25T12:22:01.000Z</time>
      </trkpt>
      <trkpt lat="44.10896" lon="7.09208">
        <ele>983</ele>
        <time>2017-05-25T12:22:06.000Z</time>
      </trkpt>
      <trkpt lat="44.10892" lon="7.09225">
        <ele>979</ele>
        <time>2017-05-25T12:22:10.000Z</time>
      </trkpt>
      <trkpt lat="44.1089" lon="7.09232">
        <ele>977</ele>
        <time>2017-05-25T12:22:12.000Z</time>
      </trkpt>
      <trkpt lat="44.10879" lon="7.09262">
        <ele>954</ele>
        <time>2017-05-25T12:22:20.000Z</time>
      </trkpt>
      <trkpt lat="44.10864" lon="7.09282">
        <ele>955</ele>
        <time>2017-05-25T12:22:27.000Z</time>
      </trkpt>
      <trkpt lat="44.10849" lon="7.09299">
        <ele>954</ele>
        <time>2017-05-25T12:22:34.000Z</time>
      </trkpt>
      <trkpt lat="44.10845" lon="7.09305">
        <ele>953</ele>
        <time>2017-05-25T12:22:36.000Z</time>
      </trkpt>
      <trkpt lat="44.10837" lon="7.09314">
        <ele>953</ele>
        <time>2017-05-25T12:22:40.000Z</time>
      </trkpt>
      <trkpt lat="44.10828" lon="7.09318">
        <ele>965</ele>
        <time>2017-05-25T12:22:44.000Z</time>
      </trkpt>
      <trkpt lat="44.10814" lon="7.09314">
        <ele>970</ele>
        <time>2017-05-25T12:22:50.000Z</time>
      </trkpt>
      <trkpt lat="44.10803" lon="7.09304">
        <ele>975</ele>
        <time>2017-05-25T12:22:55.000Z</time>
      </trkpt>
      <trkpt lat="44.10797" lon="7.09296">
        <ele>977</ele>
        <time>2017-05-25T12:22:58.000Z</time>
      </trkpt>
      <trkpt lat="44.10789" lon="7.09286">
        <ele>980</ele>
        <time>2017-05-25T12:23:02.000Z</time>
      </trkpt>
      <trkpt lat="44.1078" lon="7.09274">
        <ele>983</ele>
        <time>2017-05-25T12:23:07.000Z</time>
      </trkpt>
      <trkpt lat="44.10777" lon="7.09272">
        <ele>983</ele>
        <time>2017-05-25T12:23:08.000Z</time>
      </trkpt>
      <trkpt lat="44.10765" lon="7.09264">
        <ele>987</ele>
        <time>2017-05-25T12:23:14.000Z</time>
      </trkpt>
      <trkpt lat="44.10763" lon="7.09264">
        <ele>988</ele>
        <time>2017-05-25T12:23:15.000Z</time>
      </trkpt>
      <trkpt lat="44.1075" lon="7.09273">
        <ele>986</ele>
        <time>2017-05-25T12:23:21.000Z</time>
      </trkpt>
      <trkpt lat="44.10742" lon="7.09291">
        <ele>993</ele>
        <time>2017-05-25T12:23:27.000Z</time>
      </trkpt>
      <trkpt lat="44.10735" lon="7.09303">
        <ele>991</ele>
        <time>2017-05-25T12:23:31.000Z</time>
      </trkpt>
      <trkpt lat="44.10734" lon="7.09305">
        <ele>990</ele>
        <time>2017-05-25T12:23:32.000Z</time>
      </trkpt>
      <trkpt lat="44.10719" lon="7.09333">
        <ele>990</ele>
        <time>2017-05-25T12:23:41.000Z</time>
      </trkpt>
      <trkpt lat="44.10708" lon="7.09354">
        <ele>973</ele>
        <time>2017-05-25T12:23:48.000Z</time>
      </trkpt>
      <trkpt lat="44.10697" lon="7.09372">
        <ele>971</ele>
        <time>2017-05-25T12:23:55.000Z</time>
      </trkpt>
      <trkpt lat="44.10691" lon="7.09377">
        <ele>971</ele>
        <time>2017-05-25T12:23:58.000Z</time>
      </trkpt>
      <trkpt lat="44.10678" lon="7.09386">
        <ele>970</ele>
        <time>2017-05-25T12:24:04.000Z</time>
      </trkpt>
      <trkpt lat="44.10676" lon="7.09387">
        <ele>970</ele>
        <time>2017-05-25T12:24:05.000Z</time>
      </trkpt>
      <trkpt lat="44.10662" lon="7.09386">
        <ele>981</ele>
        <time>2017-05-25T12:24:11.000Z</time>
      </trkpt>
      <trkpt lat="44.10655" lon="7.09382">
        <ele>982</ele>
        <time>2017-05-25T12:24:14.000Z</time>
      </trkpt>
      <trkpt lat="44.10647" lon="7.09376">
        <ele>984</ele>
        <time>2017-05-25T12:24:18.000Z</time>
      </trkpt>
      <trkpt lat="44.10644" lon="7.09368">
        <ele>986</ele>
        <time>2017-05-25T12:24:21.000Z</time>
      </trkpt>
      <trkpt lat="44.10642" lon="7.09359">
        <ele>988</ele>
        <time>2017-05-25T12:24:24.000Z</time>
      </trkpt>
      <trkpt lat="44.10641" lon="7.09353">
        <ele>989</ele>
        <time>2017-05-25T12:24:26.000Z</time>
      </trkpt>
      <trkpt lat="44.10636" lon="7.0933">
        <ele>1008</ele>
        <time>2017-05-25T12:24:33.000Z</time>
      </trkpt>
      <trkpt lat="44.10635" lon="7.09327">
        <ele>1008</ele>
        <time>2017-05-25T12:24:34.000Z</time>
      </trkpt>
      <trkpt lat="44.10623" lon="7.0931">
        <ele>1011</ele>
        <time>2017-05-25T12:24:41.000Z</time>
      </trkpt>
      <trkpt lat="44.10609" lon="7.09311">
        <ele>1010</ele>
        <time>2017-05-25T12:24:46.000Z</time>
      </trkpt>
      <trkpt lat="44.10597" lon="7.09326">
        <ele>1006</ele>
        <time>2017-05-25T12:24:52.000Z</time>
      </trkpt>
      <trkpt lat="44.10591" lon="7.09334">
        <ele>997</ele>
        <time>2017-05-25T12:24:55.000Z</time>
      </trkpt>
      <trkpt lat="44.10584" lon="7.09341">
        <ele>997</ele>
        <time>2017-05-25T12:24:58.000Z</time>
      </trkpt>
      <trkpt lat="44.10575" lon="7.09351">
        <ele>1003</ele>
        <time>2017-05-25T12:25:03.000Z</time>
      </trkpt>
      <trkpt lat="44.10569" lon="7.09357">
        <ele>1003</ele>
        <time>2017-05-25T12:25:06.000Z</time>
      </trkpt>
      <trkpt lat="44.10564" lon="7.09365">
        <ele>1003</ele>
        <time>2017-05-25T12:25:09.000Z</time>
      </trkpt>
      <trkpt lat="44.10558" lon="7.09375">
        <ele>1002</ele>
        <time>2017-05-25T12:25:13.000Z</time>
      </trkpt>
      <trkpt lat="44.10556" lon="7.09377">
        <ele>1002</ele>
        <time>2017-05-25T12:25:14.000Z</time>
      </trkpt>
      <trkpt lat="44.10547" lon="7.09387">
        <ele>1002</ele>
        <time>2017-05-25T12:25:19.000Z</time>
      </trkpt>
      <trkpt lat="44.10545" lon="7.09388">
        <ele>1002</ele>
        <time>2017-05-25T12:25:20.000Z</time>
      </trkpt>
      <trkpt lat="44.10534" lon="7.094">
        <ele>1003</ele>
        <time>2017-05-25T12:25:26.000Z</time>
      </trkpt>
      <trkpt lat="44.10532" lon="7.09402">
        <ele>1003</ele>
        <time>2017-05-25T12:25:27.000Z</time>
      </trkpt>
      <trkpt lat="44.10523" lon="7.09415">
        <ele>1004</ele>
        <time>2017-05-25T12:25:33.000Z</time>
      </trkpt>
      <trkpt lat="44.10518" lon="7.09421">
        <ele>991</ele>
        <time>2017-05-25T12:25:36.000Z</time>
      </trkpt>
      <trkpt lat="44.1051" lon="7.09429">
        <ele>992</ele>
        <time>2017-05-25T12:25:40.000Z</time>
      </trkpt>
      <trkpt lat="44.10504" lon="7.09432">
        <ele>992</ele>
        <time>2017-05-25T12:25:43.000Z</time>
      </trkpt>
      <trkpt lat="44.10497" lon="7.09435">
        <ele>1003</ele>
        <time>2017-05-25T12:25:46.000Z</time>
      </trkpt>
      <trkpt lat="44.10487" lon="7.09439">
        <ele>1003</ele>
        <time>2017-05-25T12:25:51.000Z</time>
      </trkpt>
      <trkpt lat="44.10485" lon="7.0944">
        <ele>1003</ele>
        <time>2017-05-25T12:25:52.000Z</time>
      </trkpt>
      <trkpt lat="44.10476" lon="7.09443">
        <ele>1003</ele>
        <time>2017-05-25T12:25:57.000Z</time>
      </trkpt>
      <trkpt lat="44.10471" lon="7.09444">
        <ele>1003</ele>
        <time>2017-05-25T12:25:59.000Z</time>
      </trkpt>
      <trkpt lat="44.10456" lon="7.09448">
        <ele>1004</ele>
        <time>2017-05-25T12:26:06.000Z</time>
      </trkpt>
      <trkpt lat="44.10447" lon="7.09454">
        <ele>1005</ele>
        <time>2017-05-25T12:26:10.000Z</time>
      </trkpt>
      <trkpt lat="44.10441" lon="7.09457">
        <ele>1005</ele>
        <time>2017-05-25T12:26:13.000Z</time>
      </trkpt>
      <trkpt lat="44.10439" lon="7.09457">
        <ele>1005</ele>
        <time>2017-05-25T12:26:14.000Z</time>
      </trkpt>
      <trkpt lat="44.10426" lon="7.0946">
        <ele>1005</ele>
        <time>2017-05-25T12:26:20.000Z</time>
      </trkpt>
      <trkpt lat="44.10421" lon="7.09461">
        <ele>1005</ele>
        <time>2017-05-25T12:26:22.000Z</time>
      </trkpt>
      <trkpt lat="44.10406" lon="7.09465">
        <ele>1012</ele>
        <time>2017-05-25T12:26:29.000Z</time>
      </trkpt>
      <trkpt lat="44.10399" lon="7.09466">
        <ele>1012</ele>
        <time>2017-05-25T12:26:32.000Z</time>
      </trkpt>
      <trkpt lat="44.10388" lon="7.09466">
        <ele>1013</ele>
        <time>2017-05-25T12:26:37.000Z</time>
      </trkpt>
      <trkpt lat="44.10381" lon="7.09464">
        <ele>1013</ele>
        <time>2017-05-25T12:26:40.000Z</time>
      </trkpt>
      <trkpt lat="44.10362" lon="7.09463">
        <ele>1014</ele>
        <time>2017-05-25T12:26:48.000Z</time>
      </trkpt>
      <trkpt lat="44.10354" lon="7.09462">
        <ele>1015</ele>
        <time>2017-05-25T12:26:51.000Z</time>
      </trkpt>
      <trkpt lat="44.1034" lon="7.09459">
        <ele>1016</ele>
        <time>2017-05-25T12:26:57.000Z</time>
      </trkpt>
      <trkpt lat="44.10338" lon="7.09459">
        <ele>1016</ele>
        <time>2017-05-25T12:26:58.000Z</time>
      </trkpt>
      <trkpt lat="44.10329" lon="7.09456">
        <ele>1021</ele>
        <time>2017-05-25T12:27:02.000Z</time>
      </trkpt>
      <trkpt lat="44.10322" lon="7.09455">
        <ele>1021</ele>
        <time>2017-05-25T12:27:05.000Z</time>
      </trkpt>
      <trkpt lat="44.10307" lon="7.09451">
        <ele>1023</ele>
        <time>2017-05-25T12:27:12.000Z</time>
      </trkpt>
      <trkpt lat="44.10305" lon="7.0945">
        <ele>1023</ele>
        <time>2017-05-25T12:27:13.000Z</time>
      </trkpt>
      <trkpt lat="44.10295" lon="7.09449">
        <ele>1023</ele>
        <time>2017-05-25T12:27:17.000Z</time>
      </trkpt>
      <trkpt lat="44.10286" lon="7.09447">
        <ele>1024</ele>
        <time>2017-05-25T12:27:21.000Z</time>
      </trkpt>
      <trkpt lat="44.10284" lon="7.09447">
        <ele>1024</ele>
        <time>2017-05-25T12:27:22.000Z</time>
      </trkpt>
      <trkpt lat="44.10267" lon="7.09446">
        <ele>1026</ele>
        <time>2017-05-25T12:27:29.000Z</time>
      </trkpt>
      <trkpt lat="44.10262" lon="7.09445">
        <ele>1027</ele>
        <time>2017-05-25T12:27:31.000Z</time>
      </trkpt>
      <trkpt lat="44.10251" lon="7.09451">
        <ele>1025</ele>
        <time>2017-05-25T12:27:36.000Z</time>
      </trkpt>
      <trkpt lat="44.10235" lon="7.09462">
        <ele>1034</ele>
        <time>2017-05-25T12:27:43.000Z</time>
      </trkpt>
      <trkpt lat="44.10231" lon="7.09465">
        <ele>1034</ele>
        <time>2017-05-25T12:27:45.000Z</time>
      </trkpt>
      <trkpt lat="44.1022" lon="7.09473">
        <ele>1033</ele>
        <time>2017-05-25T12:27:50.000Z</time>
      </trkpt>
      <trkpt lat="44.10214" lon="7.09477">
        <ele>1034</ele>
        <time>2017-05-25T12:27:53.000Z</time>
      </trkpt>
      <trkpt lat="44.10202" lon="7.09483">
        <ele>1036</ele>
        <time>2017-05-25T12:27:58.000Z</time>
      </trkpt>
      <trkpt lat="44.10195" lon="7.09488">
        <ele>1036</ele>
        <time>2017-05-25T12:28:01.000Z</time>
      </trkpt>
      <trkpt lat="44.10184" lon="7.09497">
        <ele>1036</ele>
        <time>2017-05-25T12:28:06.000Z</time>
      </trkpt>
      <trkpt lat="44.10175" lon="7.09502">
        <ele>1025</ele>
        <time>2017-05-25T12:28:10.000Z</time>
      </trkpt>
      <trkpt lat="44.10164" lon="7.09508">
        <ele>1031</ele>
        <time>2017-05-25T12:28:15.000Z</time>
      </trkpt>
      <trkpt lat="44.10159" lon="7.0951">
        <ele>1029</ele>
        <time>2017-05-25T12:28:17.000Z</time>
      </trkpt>
      <trkpt lat="44.10144" lon="7.09515">
        <ele>1026</ele>
        <time>2017-05-25T12:28:24.000Z</time>
      </trkpt>
      <trkpt lat="44.10141" lon="7.09515">
        <ele>1026</ele>
        <time>2017-05-25T12:28:25.000Z</time>
      </trkpt>
      <trkpt lat="44.10122" lon="7.0952">
        <ele>1026</ele>
        <time>2017-05-25T12:28:34.000Z</time>
      </trkpt>
      <trkpt lat="44.1012" lon="7.0952">
        <ele>1026</ele>
        <time>2017-05-25T12:28:35.000Z</time>
      </trkpt>
      <trkpt lat="44.10109" lon="7.09521">
        <ele>1027</ele>
        <time>2017-05-25T12:28:40.000Z</time>
      </trkpt>
      <trkpt lat="44.10104" lon="7.09522">
        <ele>1028</ele>
        <time>2017-05-25T12:28:43.000Z</time>
      </trkpt>
      <trkpt lat="44.10084" lon="7.09518">
        <ele>1034</ele>
        <time>2017-05-25T12:28:52.000Z</time>
      </trkpt>
      <trkpt lat="44.10062" lon="7.09513">
        <ele>1034</ele>
        <time>2017-05-25T12:29:01.000Z</time>
      </trkpt>
      <trkpt lat="44.10058" lon="7.09513">
        <ele>1033</ele>
        <time>2017-05-25T12:29:03.000Z</time>
      </trkpt>
      <trkpt lat="44.10036" lon="7.09513">
        <ele>1032</ele>
        <time>2017-05-25T12:29:13.000Z</time>
      </trkpt>
      <trkpt lat="44.10011" lon="7.09513">
        <ele>1037</ele>
        <time>2017-05-25T12:29:24.000Z</time>
      </trkpt>
      <trkpt lat="44.10009" lon="7.09513">
        <ele>1038</ele>
        <time>2017-05-25T12:29:25.000Z</time>
      </trkpt>
      <trkpt lat="44.1" lon="7.09511">
        <ele>1040</ele>
        <time>2017-05-25T12:29:29.000Z</time>
      </trkpt>
      <trkpt lat="44.09993" lon="7.09512">
        <ele>1037</ele>
        <time>2017-05-25T12:29:32.000Z</time>
      </trkpt>
      <trkpt lat="44.09988" lon="7.09511">
        <ele>1036</ele>
        <time>2017-05-25T12:29:34.000Z</time>
      </trkpt>
      <trkpt lat="44.09969" lon="7.09508">
        <ele>1031</ele>
        <time>2017-05-25T12:29:42.000Z</time>
      </trkpt>
      <trkpt lat="44.09954" lon="7.095">
        <ele>1056</ele>
        <time>2017-05-25T12:29:49.000Z</time>
      </trkpt>
      <trkpt lat="44.09948" lon="7.09497">
        <ele>1055</ele>
        <time>2017-05-25T12:29:52.000Z</time>
      </trkpt>
      <trkpt lat="44.09934" lon="7.09489">
        <ele>1052</ele>
        <time>2017-05-25T12:29:59.000Z</time>
      </trkpt>
      <trkpt lat="44.09918" lon="7.09481">
        <ele>1052</ele>
        <time>2017-05-25T12:30:07.000Z</time>
      </trkpt>
      <trkpt lat="44.09914" lon="7.09479">
        <ele>1049</ele>
        <time>2017-05-25T12:30:09.000Z</time>
      </trkpt>
      <trkpt lat="44.09901" lon="7.09474">
        <ele>1052</ele>
        <time>2017-05-25T12:30:15.000Z</time>
      </trkpt>
      <trkpt lat="44.09899" lon="7.09473">
        <ele>1053</ele>
        <time>2017-05-25T12:30:16.000Z</time>
      </trkpt>
      <trkpt lat="44.09891" lon="7.09467">
        <ele>1055</ele>
        <time>2017-05-25T12:30:21.000Z</time>
      </trkpt>
      <trkpt lat="44.09886" lon="7.09463">
        <ele>1056</ele>
        <time>2017-05-25T12:30:24.000Z</time>
      </trkpt>
      <trkpt lat="44.09872" lon="7.0946">
        <ele>1057</ele>
        <time>2017-05-25T12:30:31.000Z</time>
      </trkpt>
      <trkpt lat="44.09868" lon="7.09461">
        <ele>1057</ele>
        <time>2017-05-25T12:30:33.000Z</time>
      </trkpt>
      <trkpt lat="44.09863" lon="7.09464">
        <ele>1056</ele>
        <time>2017-05-25T12:30:36.000Z</time>
      </trkpt>
      <trkpt lat="44.09859" lon="7.09467">
        <ele>1055</ele>
        <time>2017-05-25T12:30:38.000Z</time>
      </trkpt>
      <trkpt lat="44.09852" lon="7.09473">
        <ele>1053</ele>
        <time>2017-05-25T12:30:42.000Z</time>
      </trkpt>
      <trkpt lat="44.09843" lon="7.0948">
        <ele>1051</ele>
        <time>2017-05-25T12:30:47.000Z</time>
      </trkpt>
      <trkpt lat="44.09839" lon="7.09483">
        <ele>1049</ele>
        <time>2017-05-25T12:30:49.000Z</time>
      </trkpt>
      <trkpt lat="44.0983" lon="7.09486">
        <ele>1051</ele>
        <time>2017-05-25T12:30:54.000Z</time>
      </trkpt>
      <trkpt lat="44.09823" lon="7.09485">
        <ele>1053</ele>
        <time>2017-05-25T12:30:58.000Z</time>
      </trkpt>
      <trkpt lat="44.09819" lon="7.09486">
        <ele>1054</ele>
        <time>2017-05-25T12:31:01.000Z</time>
      </trkpt>
      <trkpt lat="44.09818" lon="7.09487">
        <ele>1054</ele>
        <time>2017-05-25T12:31:02.000Z</time>
      </trkpt>
      <trkpt lat="44.09813" lon="7.0949">
        <ele>1055</ele>
        <time>2017-05-25T12:31:06.000Z</time>
      </trkpt>
      <trkpt lat="44.09813" lon="7.0949">
        <ele>1055</ele>
        <time>2017-05-25T12:31:12.000Z</time>
      </trkpt>
      <trkpt lat="44.09813" lon="7.0949">
        <ele>1055</ele>
        <time>2017-05-25T12:31:28.000Z</time>
      </trkpt>
      <trkpt lat="44.09813" lon="7.09491">
        <ele>1055</ele>
        <time>2017-05-25T12:31:40.000Z</time>
      </trkpt>
      <trkpt lat="44.09813" lon="7.09491">
        <ele>1055</ele>
        <time>2017-05-25T12:31:56.000Z</time>
      </trkpt>
      <trkpt lat="44.09812" lon="7.09492">
        <ele>1055</ele>
        <time>2017-05-25T12:32:08.000Z</time>
      </trkpt>
      <trkpt lat="44.09813" lon="7.09492">
        <ele>1055</ele>
        <time>2017-05-25T12:32:14.000Z</time>
      </trkpt>
      <trkpt lat="44.09812" lon="7.09493">
        <ele>1055</ele>
        <time>2017-05-25T12:32:28.000Z</time>
      </trkpt>
      <trkpt lat="44.09812" lon="7.09492">
        <ele>1055</ele>
        <time>2017-05-25T12:32:45.000Z</time>
      </trkpt>
      <trkpt lat="44.09812" lon="7.09492">
        <ele>1055</ele>
        <time>2017-05-25T12:32:57.000Z</time>
      </trkpt>
      <trkpt lat="44.09812" lon="7.09492">
        <ele>1055</ele>
        <time>2017-05-25T12:33:16.000Z</time>
      </trkpt>
      <trkpt lat="44.09812" lon="7.09492">
        <ele>1055</ele>
        <time>2017-05-25T12:33:45.000Z</time>
      </trkpt>
      <trkpt lat="44.09811" lon="7.09492">
        <ele>1055</ele>
        <time>2017-05-25T12:34:13.000Z</time>
      </trkpt>
      <trkpt lat="44.09811" lon="7.09493">
        <ele>1055</ele>
        <time>2017-05-25T12:34:33.000Z</time>
      </trkpt>
      <trkpt lat="44.09811" lon="7.09493">
        <ele>1055</ele>
        <time>2017-05-25T12:34:42.000Z</time>
      </trkpt>
      <trkpt lat="44.09811" lon="7.09493">
        <ele>1055</ele>
        <time>2017-05-25T12:35:02.000Z</time>
      </trkpt>
      <trkpt lat="44.09811" lon="7.09493">
        <ele>1055</ele>
        <time>2017-05-25T12:35:26.000Z</time>
      </trkpt>
      <trkpt lat="44.09811" lon="7.09493">
        <ele>1055</ele>
        <time>2017-05-25T12:35:40.000Z</time>
      </trkpt>
      <trkpt lat="44.0981" lon="7.09493">
        <ele>1055</ele>
        <time>2017-05-25T12:36:05.000Z</time>
      </trkpt>
      <trkpt lat="44.0981" lon="7.09493">
        <ele>1055</ele>
        <time>2017-05-25T12:36:29.000Z</time>
      </trkpt>
      <trkpt lat="44.0981" lon="7.09494">
        <ele>1055</ele>
        <time>2017-05-25T12:36:57.000Z</time>
      </trkpt>
      <trkpt lat="44.09811" lon="7.09494">
        <ele>1055</ele>
        <time>2017-05-25T12:37:16.000Z</time>
      </trkpt>
      <trkpt lat="44.0981" lon="7.09495">
        <ele>1055</ele>
        <time>2017-05-25T12:37:25.000Z</time>
      </trkpt>
      <trkpt lat="44.09809" lon="7.09495">
        <ele>1055</ele>
        <time>2017-05-25T12:37:32.000Z</time>
      </trkpt>
      <trkpt lat="44.09809" lon="7.09497">
        <ele>1055</ele>
        <time>2017-05-25T12:37:33.000Z</time>
      </trkpt>
      <trkpt lat="44.09804" lon="7.09505">
        <ele>1035</ele>
        <time>2017-05-25T12:37:37.000Z</time>
      </trkpt>
      <trkpt lat="44.09798" lon="7.0951">
        <ele>1035</ele>
        <time>2017-05-25T12:37:39.000Z</time>
      </trkpt>
      <trkpt lat="44.09787" lon="7.09518">
        <ele>1035</ele>
        <time>2017-05-25T12:37:42.000Z</time>
      </trkpt>
      <trkpt lat="44.09782" lon="7.09521">
        <ele>1035</ele>
        <time>2017-05-25T12:37:43.000Z</time>
      </trkpt>
      <trkpt lat="44.09768" lon="7.09522">
        <ele>1037</ele>
        <time>2017-05-25T12:37:46.000Z</time>
      </trkpt>
      <trkpt lat="44.09764" lon="7.09523">
        <ele>1037</ele>
        <time>2017-05-25T12:37:47.000Z</time>
      </trkpt>
      <trkpt lat="44.09759" lon="7.09523">
        <ele>1038</ele>
        <time>2017-05-25T12:37:48.000Z</time>
      </trkpt>
      <trkpt lat="44.09754" lon="7.09521">
        <ele>1040</ele>
        <time>2017-05-25T12:37:49.000Z</time>
      </trkpt>
      <trkpt lat="44.09749" lon="7.09517">
        <ele>1047</ele>
        <time>2017-05-25T12:37:50.000Z</time>
      </trkpt>
      <trkpt lat="44.09739" lon="7.09513">
        <ele>1048</ele>
        <time>2017-05-25T12:37:52.000Z</time>
      </trkpt>
      <trkpt lat="44.09727" lon="7.09516">
        <ele>1046</ele>
        <time>2017-05-25T12:37:54.000Z</time>
      </trkpt>
      <trkpt lat="44.09721" lon="7.09519">
        <ele>1045</ele>
        <time>2017-05-25T12:37:55.000Z</time>
      </trkpt>
      <trkpt lat="44.09714" lon="7.09521">
        <ele>1045</ele>
        <time>2017-05-25T12:37:56.000Z</time>
      </trkpt>
      <trkpt lat="44.09708" lon="7.09522">
        <ele>1045</ele>
        <time>2017-05-25T12:37:57.000Z</time>
      </trkpt>
      <trkpt lat="44.09696" lon="7.09522">
        <ele>1047</ele>
        <time>2017-05-25T12:37:59.000Z</time>
      </trkpt>
      <trkpt lat="44.09684" lon="7.09524">
        <ele>1048</ele>
        <time>2017-05-25T12:38:01.000Z</time>
      </trkpt>
      <trkpt lat="44.09678" lon="7.09526">
        <ele>1048</ele>
        <time>2017-05-25T12:38:02.000Z</time>
      </trkpt>
      <trkpt lat="44.09673" lon="7.09531">
        <ele>1047</ele>
        <time>2017-05-25T12:38:03.000Z</time>
      </trkpt>
      <trkpt lat="44.09663" lon="7.09541">
        <ele>1050</ele>
        <time>2017-05-25T12:38:05.000Z</time>
      </trkpt>
      <trkpt lat="44.09658" lon="7.09547">
        <ele>1048</ele>
        <time>2017-05-25T12:38:06.000Z</time>
      </trkpt>
      <trkpt lat="44.09654" lon="7.09553">
        <ele>1045</ele>
        <time>2017-05-25T12:38:07.000Z</time>
      </trkpt>
      <trkpt lat="44.09649" lon="7.09559">
        <ele>1044</ele>
        <time>2017-05-25T12:38:08.000Z</time>
      </trkpt>
      <trkpt lat="44.0964" lon="7.09571">
        <ele>1042</ele>
        <time>2017-05-25T12:38:10.000Z</time>
      </trkpt>
      <trkpt lat="44.0963" lon="7.09581">
        <ele>1043</ele>
        <time>2017-05-25T12:38:12.000Z</time>
      </trkpt>
      <trkpt lat="44.09624" lon="7.09585">
        <ele>1016</ele>
        <time>2017-05-25T12:38:13.000Z</time>
      </trkpt>
      <trkpt lat="44.09618" lon="7.09588">
        <ele>1017</ele>
        <time>2017-05-25T12:38:14.000Z</time>
      </trkpt>
      <trkpt lat="44.09605" lon="7.09597">
        <ele>1019</ele>
        <time>2017-05-25T12:38:16.000Z</time>
      </trkpt>
      <trkpt lat="44.09593" lon="7.09605">
        <ele>1019</ele>
        <time>2017-05-25T12:38:18.000Z</time>
      </trkpt>
      <trkpt lat="44.09587" lon="7.09609">
        <ele>1018</ele>
        <time>2017-05-25T12:38:19.000Z</time>
      </trkpt>
      <trkpt lat="44.09575" lon="7.09614">
        <ele>1023</ele>
        <time>2017-05-25T12:38:21.000Z</time>
      </trkpt>
      <trkpt lat="44.09569" lon="7.09615">
        <ele>1023</ele>
        <time>2017-05-25T12:38:22.000Z</time>
      </trkpt>
      <trkpt lat="44.09561" lon="7.09614">
        <ele>1023</ele>
        <time>2017-05-25T12:38:23.000Z</time>
      </trkpt>
      <trkpt lat="44.09555" lon="7.09612">
        <ele>1024</ele>
        <time>2017-05-25T12:38:24.000Z</time>
      </trkpt>
      <trkpt lat="44.0954" lon="7.09613">
        <ele>1024</ele>
        <time>2017-05-25T12:38:26.000Z</time>
      </trkpt>
      <trkpt lat="44.09534" lon="7.09617">
        <ele>1024</ele>
        <time>2017-05-25T12:38:27.000Z</time>
      </trkpt>
      <trkpt lat="44.09526" lon="7.09622">
        <ele>1023</ele>
        <time>2017-05-25T12:38:28.000Z</time>
      </trkpt>
      <trkpt lat="44.0952" lon="7.09628">
        <ele>1022</ele>
        <time>2017-05-25T12:38:29.000Z</time>
      </trkpt>
      <trkpt lat="44.09507" lon="7.0964">
        <ele>1019</ele>
        <time>2017-05-25T12:38:31.000Z</time>
      </trkpt>
      <trkpt lat="44.09489" lon="7.09655">
        <ele>1019</ele>
        <time>2017-05-25T12:38:34.000Z</time>
      </trkpt>
      <trkpt lat="44.09482" lon="7.09659">
        <ele>1020</ele>
        <time>2017-05-25T12:38:35.000Z</time>
      </trkpt>
      <trkpt lat="44.09476" lon="7.09661">
        <ele>1021</ele>
        <time>2017-05-25T12:38:36.000Z</time>
      </trkpt>
      <trkpt lat="44.09463" lon="7.09664">
        <ele>1022</ele>
        <time>2017-05-25T12:38:38.000Z</time>
      </trkpt>
      <trkpt lat="44.09456" lon="7.09666">
        <ele>1022</ele>
        <time>2017-05-25T12:38:39.000Z</time>
      </trkpt>
      <trkpt lat="44.09449" lon="7.09666">
        <ele>1022</ele>
        <time>2017-05-25T12:38:40.000Z</time>
      </trkpt>
      <trkpt lat="44.09441" lon="7.09667">
        <ele>997</ele>
        <time>2017-05-25T12:38:41.000Z</time>
      </trkpt>
      <trkpt lat="44.09434" lon="7.09668">
        <ele>999</ele>
        <time>2017-05-25T12:38:42.000Z</time>
      </trkpt>
      <trkpt lat="44.09418" lon="7.09669">
        <ele>1007</ele>
        <time>2017-05-25T12:38:44.000Z</time>
      </trkpt>
      <trkpt lat="44.09402" lon="7.09668">
        <ele>994</ele>
        <time>2017-05-25T12:38:46.000Z</time>
      </trkpt>
      <trkpt lat="44.09395" lon="7.09666">
        <ele>1009</ele>
        <time>2017-05-25T12:38:47.000Z</time>
      </trkpt>
      <trkpt lat="44.09386" lon="7.09663">
        <ele>1007</ele>
        <time>2017-05-25T12:38:48.000Z</time>
      </trkpt>
      <trkpt lat="44.09371" lon="7.09655">
        <ele>1004</ele>
        <time>2017-05-25T12:38:50.000Z</time>
      </trkpt>
      <trkpt lat="44.09364" lon="7.09651">
        <ele>1002</ele>
        <time>2017-05-25T12:38:51.000Z</time>
      </trkpt>
      <trkpt lat="44.09357" lon="7.09647">
        <ele>1001</ele>
        <time>2017-05-25T12:38:52.000Z</time>
      </trkpt>
      <trkpt lat="44.09346" lon="7.09635">
        <ele>1002</ele>
        <time>2017-05-25T12:38:54.000Z</time>
      </trkpt>
      <trkpt lat="44.09341" lon="7.0963">
        <ele>1003</ele>
        <time>2017-05-25T12:38:55.000Z</time>
      </trkpt>
      <trkpt lat="44.09337" lon="7.09624">
        <ele>1005</ele>
        <time>2017-05-25T12:38:56.000Z</time>
      </trkpt>
      <trkpt lat="44.09333" lon="7.09616">
        <ele>1007</ele>
        <time>2017-05-25T12:38:57.000Z</time>
      </trkpt>
      <trkpt lat="44.09328" lon="7.09597">
        <ele>994</ele>
        <time>2017-05-25T12:38:59.000Z</time>
      </trkpt>
      <trkpt lat="44.09324" lon="7.09587">
        <ele>998</ele>
        <time>2017-05-25T12:39:00.000Z</time>
      </trkpt>
      <trkpt lat="44.09316" lon="7.09571">
        <ele>1006</ele>
        <time>2017-05-25T12:39:02.000Z</time>
      </trkpt>
      <trkpt lat="44.09312" lon="7.09561">
        <ele>1006</ele>
        <time>2017-05-25T12:39:03.000Z</time>
      </trkpt>
      <trkpt lat="44.09309" lon="7.0955">
        <ele>1007</ele>
        <time>2017-05-25T12:39:04.000Z</time>
      </trkpt>
      <trkpt lat="44.09303" lon="7.09531">
        <ele>1009</ele>
        <time>2017-05-25T12:39:06.000Z</time>
      </trkpt>
      <trkpt lat="44.0929" lon="7.09521">
        <ele>1008</ele>
        <time>2017-05-25T12:39:08.000Z</time>
      </trkpt>
      <trkpt lat="44.09277" lon="7.09515">
        <ele>1005</ele>
        <time>2017-05-25T12:39:10.000Z</time>
      </trkpt>
      <trkpt lat="44.09272" lon="7.09511">
        <ele>1005</ele>
        <time>2017-05-25T12:39:11.000Z</time>
      </trkpt>
      <trkpt lat="44.09268" lon="7.09507">
        <ele>1004</ele>
        <time>2017-05-25T12:39:12.000Z</time>
      </trkpt>
      <trkpt lat="44.09246" lon="7.095">
        <ele>1004</ele>
        <time>2017-05-25T12:39:16.000Z</time>
      </trkpt>
      <trkpt lat="44.09235" lon="7.095">
        <ele>996</ele>
        <time>2017-05-25T12:39:18.000Z</time>
      </trkpt>
      <trkpt lat="44.09224" lon="7.09502">
        <ele>993</ele>
        <time>2017-05-25T12:39:20.000Z</time>
      </trkpt>
      <trkpt lat="44.09219" lon="7.09505">
        <ele>992</ele>
        <time>2017-05-25T12:39:21.000Z</time>
      </trkpt>
      <trkpt lat="44.09205" lon="7.09516">
        <ele>991</ele>
        <time>2017-05-25T12:39:24.000Z</time>
      </trkpt>
      <trkpt lat="44.09195" lon="7.09523">
        <ele>990</ele>
        <time>2017-05-25T12:39:26.000Z</time>
      </trkpt>
      <trkpt lat="44.09184" lon="7.09528">
        <ele>990</ele>
        <time>2017-05-25T12:39:28.000Z</time>
      </trkpt>
      <trkpt lat="44.09175" lon="7.09534">
        <ele>989</ele>
        <time>2017-05-25T12:39:30.000Z</time>
      </trkpt>
      <trkpt lat="44.0917" lon="7.09538">
        <ele>987</ele>
        <time>2017-05-25T12:39:31.000Z</time>
      </trkpt>
      <trkpt lat="44.0916" lon="7.0955">
        <ele>983</ele>
        <time>2017-05-25T12:39:34.000Z</time>
      </trkpt>
      <trkpt lat="44.09153" lon="7.09555">
        <ele>982</ele>
        <time>2017-05-25T12:39:36.000Z</time>
      </trkpt>
      <trkpt lat="44.09149" lon="7.09556">
        <ele>982</ele>
        <time>2017-05-25T12:39:37.000Z</time>
      </trkpt>
      <trkpt lat="44.09133" lon="7.09554">
        <ele>983</ele>
        <time>2017-05-25T12:39:40.000Z</time>
      </trkpt>
      <trkpt lat="44.09127" lon="7.09556">
        <ele>982</ele>
        <time>2017-05-25T12:39:41.000Z</time>
      </trkpt>
      <trkpt lat="44.09121" lon="7.09558">
        <ele>982</ele>
        <time>2017-05-25T12:39:42.000Z</time>
      </trkpt>
      <trkpt lat="44.09115" lon="7.09561">
        <ele>981</ele>
        <time>2017-05-25T12:39:43.000Z</time>
      </trkpt>
      <trkpt lat="44.09109" lon="7.09564">
        <ele>980</ele>
        <time>2017-05-25T12:39:44.000Z</time>
      </trkpt>
      <trkpt lat="44.09097" lon="7.0957">
        <ele>977</ele>
        <time>2017-05-25T12:39:46.000Z</time>
      </trkpt>
      <trkpt lat="44.09092" lon="7.09572">
        <ele>976</ele>
        <time>2017-05-25T12:39:47.000Z</time>
      </trkpt>
      <trkpt lat="44.09081" lon="7.09569">
        <ele>970</ele>
        <time>2017-05-25T12:39:49.000Z</time>
      </trkpt>
      <trkpt lat="44.09063" lon="7.09563">
        <ele>969</ele>
        <time>2017-05-25T12:39:52.000Z</time>
      </trkpt>
      <trkpt lat="44.09045" lon="7.09555">
        <ele>968</ele>
        <time>2017-05-25T12:39:55.000Z</time>
      </trkpt>
      <trkpt lat="44.0904" lon="7.09552">
        <ele>967</ele>
        <time>2017-05-25T12:39:56.000Z</time>
      </trkpt>
      <trkpt lat="44.0903" lon="7.09542">
        <ele>967</ele>
        <time>2017-05-25T12:39:58.000Z</time>
      </trkpt>
      <trkpt lat="44.09026" lon="7.09535">
        <ele>967</ele>
        <time>2017-05-25T12:39:59.000Z</time>
      </trkpt>
      <trkpt lat="44.09019" lon="7.09522">
        <ele>967</ele>
        <time>2017-05-25T12:40:01.000Z</time>
      </trkpt>
      <trkpt lat="44.09016" lon="7.09517">
        <ele>967</ele>
        <time>2017-05-25T12:40:02.000Z</time>
      </trkpt>
      <trkpt lat="44.09006" lon="7.09497">
        <ele>968</ele>
        <time>2017-05-25T12:40:05.000Z</time>
      </trkpt>
      <trkpt lat="44.08999" lon="7.09477">
        <ele>948</ele>
        <time>2017-05-25T12:40:08.000Z</time>
      </trkpt>
      <trkpt lat="44.08998" lon="7.0947">
        <ele>947</ele>
        <time>2017-05-25T12:40:09.000Z</time>
      </trkpt>
      <trkpt lat="44.08997" lon="7.09465">
        <ele>946</ele>
        <time>2017-05-25T12:40:10.000Z</time>
      </trkpt>
      <trkpt lat="44.08996" lon="7.09457">
        <ele>945</ele>
        <time>2017-05-25T12:40:12.000Z</time>
      </trkpt>
      <trkpt lat="44.08993" lon="7.09454">
        <ele>945</ele>
        <time>2017-05-25T12:40:14.000Z</time>
      </trkpt>
      <trkpt lat="44.08987" lon="7.09451">
        <ele>944</ele>
        <time>2017-05-25T12:40:19.000Z</time>
      </trkpt>
      <trkpt lat="44.08987" lon="7.09451">
        <ele>944</ele>
        <time>2017-05-25T12:40:45.000Z</time>
      </trkpt>
      <trkpt lat="44.08987" lon="7.0945">
        <ele>944</ele>
        <time>2017-05-25T12:40:50.000Z</time>
      </trkpt>
      <trkpt lat="44.08984" lon="7.09445">
        <ele>944</ele>
        <time>2017-05-25T12:40:53.000Z</time>
      </trkpt>
      <trkpt lat="44.0898" lon="7.09441">
        <ele>943</ele>
        <time>2017-05-25T12:40:56.000Z</time>
      </trkpt>
      <trkpt lat="44.08979" lon="7.09442">
        <ele>943</ele>
        <time>2017-05-25T12:40:57.000Z</time>
      </trkpt>
      <trkpt lat="44.0898" lon="7.0945">
        <ele>942</ele>
        <time>2017-05-25T12:40:59.000Z</time>
      </trkpt>
      <trkpt lat="44.0898" lon="7.09453">
        <ele>942</ele>
        <time>2017-05-25T12:41:00.000Z</time>
      </trkpt>
      <trkpt lat="44.08978" lon="7.09454">
        <ele>941</ele>
        <time>2017-05-25T12:41:01.000Z</time>
      </trkpt>
      <trkpt lat="44.08976" lon="7.0945">
        <ele>941</ele>
        <time>2017-05-25T12:41:03.000Z</time>
      </trkpt>
      <trkpt lat="44.08975" lon="7.09448">
        <ele>941</ele>
        <time>2017-05-25T12:41:04.000Z</time>
      </trkpt>
      <trkpt lat="44.08975" lon="7.09451">
        <ele>940</ele>
        <time>2017-05-25T12:41:07.000Z</time>
      </trkpt>
      <trkpt lat="44.08976" lon="7.09467">
        <ele>941</ele>
        <time>2017-05-25T12:41:10.000Z</time>
      </trkpt>
      <trkpt lat="44.08972" lon="7.09486">
        <ele>942</ele>
        <time>2017-05-25T12:41:13.000Z</time>
      </trkpt>
      <trkpt lat="44.08972" lon="7.09491">
        <ele>942</ele>
        <time>2017-05-25T12:41:14.000Z</time>
      </trkpt>
      <trkpt lat="44.08972" lon="7.09498">
        <ele>942</ele>
        <time>2017-05-25T12:41:15.000Z</time>
      </trkpt>
      <trkpt lat="44.08971" lon="7.09505">
        <ele>941</ele>
        <time>2017-05-25T12:41:16.000Z</time>
      </trkpt>
      <trkpt lat="44.08972" lon="7.09512">
        <ele>940</ele>
        <time>2017-05-25T12:41:17.000Z</time>
      </trkpt>
      <trkpt lat="44.08972" lon="7.0952">
        <ele>939</ele>
        <time>2017-05-25T12:41:18.000Z</time>
      </trkpt>
      <trkpt lat="44.08974" lon="7.09525">
        <ele>939</ele>
        <time>2017-05-25T12:41:19.000Z</time>
      </trkpt>
      <trkpt lat="44.08978" lon="7.09538">
        <ele>938</ele>
        <time>2017-05-25T12:41:21.000Z</time>
      </trkpt>
      <trkpt lat="44.08979" lon="7.09545">
        <ele>938</ele>
        <time>2017-05-25T12:41:22.000Z</time>
      </trkpt>
      <trkpt lat="44.08983" lon="7.09562">
        <ele>938</ele>
        <time>2017-05-25T12:41:24.000Z</time>
      </trkpt>
      <trkpt lat="44.08986" lon="7.09569">
        <ele>939</ele>
        <time>2017-05-25T12:41:25.000Z</time>
      </trkpt>
      <trkpt lat="44.08989" lon="7.09576">
        <ele>941</ele>
        <time>2017-05-25T12:41:26.000Z</time>
      </trkpt>
      <trkpt lat="44.08995" lon="7.09585">
        <ele>941</ele>
        <time>2017-05-25T12:41:28.000Z</time>
      </trkpt>
      <trkpt lat="44.08998" lon="7.09589">
        <ele>940</ele>
        <time>2017-05-25T12:41:29.000Z</time>
      </trkpt>
      <trkpt lat="44.09009" lon="7.09599">
        <ele>945</ele>
        <time>2017-05-25T12:41:32.000Z</time>
      </trkpt>
      <trkpt lat="44.09015" lon="7.09604">
        <ele>944</ele>
        <time>2017-05-25T12:41:33.000Z</time>
      </trkpt>
      <trkpt lat="44.09023" lon="7.09614">
        <ele>943</ele>
        <time>2017-05-25T12:41:35.000Z</time>
      </trkpt>
      <trkpt lat="44.09028" lon="7.09619">
        <ele>943</ele>
        <time>2017-05-25T12:41:36.000Z</time>
      </trkpt>
      <trkpt lat="44.09032" lon="7.09623">
        <ele>942</ele>
        <time>2017-05-25T12:41:37.000Z</time>
      </trkpt>
      <trkpt lat="44.09036" lon="7.09626">
        <ele>942</ele>
        <time>2017-05-25T12:41:38.000Z</time>
      </trkpt>
      <trkpt lat="44.09039" lon="7.09631">
        <ele>942</ele>
        <time>2017-05-25T12:41:39.000Z</time>
      </trkpt>
      <trkpt lat="44.09042" lon="7.09636">
        <ele>941</ele>
        <time>2017-05-25T12:41:40.000Z</time>
      </trkpt>
      <trkpt lat="44.09044" lon="7.09639">
        <ele>941</ele>
        <time>2017-05-25T12:41:41.000Z</time>
      </trkpt>
      <trkpt lat="44.09041" lon="7.09643">
        <ele>940</ele>
        <time>2017-05-25T12:41:43.000Z</time>
      </trkpt>
      <trkpt lat="44.0904" lon="7.09643">
        <ele>940</ele>
        <time>2017-05-25T12:41:44.000Z</time>
      </trkpt>
      <trkpt lat="44.09038" lon="7.0964">
        <ele>940</ele>
        <time>2017-05-25T12:41:45.000Z</time>
      </trkpt>
      <trkpt lat="44.09035" lon="7.09639">
        <ele>940</ele>
        <time>2017-05-25T12:41:46.000Z</time>
      </trkpt>
      <trkpt lat="44.0903" lon="7.09638">
        <ele>939</ele>
        <time>2017-05-25T12:41:47.000Z</time>
      </trkpt>
      <trkpt lat="44.09025" lon="7.09637">
        <ele>938</ele>
        <time>2017-05-25T12:41:48.000Z</time>
      </trkpt>
      <trkpt lat="44.09008" lon="7.09631">
        <ele>938</ele>
        <time>2017-05-25T12:41:51.000Z</time>
      </trkpt>
      <trkpt lat="44.09003" lon="7.0963">
        <ele>938</ele>
        <time>2017-05-25T12:41:52.000Z</time>
      </trkpt>
      <trkpt lat="44.08997" lon="7.09628">
        <ele>921</ele>
        <time>2017-05-25T12:41:53.000Z</time>
      </trkpt>
      <trkpt lat="44.0899" lon="7.09628">
        <ele>921</ele>
        <time>2017-05-25T12:41:54.000Z</time>
      </trkpt>
      <trkpt lat="44.08979" lon="7.09625">
        <ele>920</ele>
        <time>2017-05-25T12:41:56.000Z</time>
      </trkpt>
      <trkpt lat="44.08973" lon="7.09624">
        <ele>919</ele>
        <time>2017-05-25T12:41:57.000Z</time>
      </trkpt>
      <trkpt lat="44.08966" lon="7.09624">
        <ele>918</ele>
        <time>2017-05-25T12:41:58.000Z</time>
      </trkpt>
      <trkpt lat="44.08955" lon="7.09625">
        <ele>915</ele>
        <time>2017-05-25T12:42:00.000Z</time>
      </trkpt>
      <trkpt lat="44.0895" lon="7.09624">
        <ele>915</ele>
        <time>2017-05-25T12:42:01.000Z</time>
      </trkpt>
      <trkpt lat="44.08942" lon="7.09618">
        <ele>914</ele>
        <time>2017-05-25T12:42:03.000Z</time>
      </trkpt>
      <trkpt lat="44.08938" lon="7.09614">
        <ele>913</ele>
        <time>2017-05-25T12:42:04.000Z</time>
      </trkpt>
      <trkpt lat="44.08934" lon="7.09613">
        <ele>913</ele>
        <time>2017-05-25T12:42:05.000Z</time>
      </trkpt>
      <trkpt lat="44.08929" lon="7.09611">
        <ele>912</ele>
        <time>2017-05-25T12:42:06.000Z</time>
      </trkpt>
      <trkpt lat="44.08925" lon="7.09607">
        <ele>912</ele>
        <time>2017-05-25T12:42:07.000Z</time>
      </trkpt>
      <trkpt lat="44.08921" lon="7.09601">
        <ele>911</ele>
        <time>2017-05-25T12:42:08.000Z</time>
      </trkpt>
      <trkpt lat="44.08916" lon="7.09581">
        <ele>906</ele>
        <time>2017-05-25T12:42:11.000Z</time>
      </trkpt>
      <trkpt lat="44.08916" lon="7.09574">
        <ele>901</ele>
        <time>2017-05-25T12:42:12.000Z</time>
      </trkpt>
      <trkpt lat="44.08915" lon="7.09564">
        <ele>897</ele>
        <time>2017-05-25T12:42:13.000Z</time>
      </trkpt>
      <trkpt lat="44.08914" lon="7.09548">
        <ele>895</ele>
        <time>2017-05-25T12:42:15.000Z</time>
      </trkpt>
      <trkpt lat="44.08911" lon="7.09543">
        <ele>895</ele>
        <time>2017-05-25T12:42:16.000Z</time>
      </trkpt>
      <trkpt lat="44.08905" lon="7.09528">
        <ele>895</ele>
        <time>2017-05-25T12:42:18.000Z</time>
      </trkpt>
      <trkpt lat="44.08901" lon="7.09513">
        <ele>897</ele>
        <time>2017-05-25T12:42:20.000Z</time>
      </trkpt>
      <trkpt lat="44.08899" lon="7.09505">
        <ele>898</ele>
        <time>2017-05-25T12:42:21.000Z</time>
      </trkpt>
      <trkpt lat="44.08898" lon="7.09489">
        <ele>890</ele>
        <time>2017-05-25T12:42:23.000Z</time>
      </trkpt>
      <trkpt lat="44.08898" lon="7.0948">
        <ele>887</ele>
        <time>2017-05-25T12:42:24.000Z</time>
      </trkpt>
      <trkpt lat="44.08898" lon="7.09471">
        <ele>885</ele>
        <time>2017-05-25T12:42:25.000Z</time>
      </trkpt>
      <trkpt lat="44.08902" lon="7.09458">
        <ele>883</ele>
        <time>2017-05-25T12:42:27.000Z</time>
      </trkpt>
      <trkpt lat="44.08904" lon="7.09452">
        <ele>883</ele>
        <time>2017-05-25T12:42:28.000Z</time>
      </trkpt>
      <trkpt lat="44.08907" lon="7.09445">
        <ele>884</ele>
        <time>2017-05-25T12:42:29.000Z</time>
      </trkpt>
      <trkpt lat="44.0891" lon="7.09438">
        <ele>885</ele>
        <time>2017-05-25T12:42:30.000Z</time>
      </trkpt>
      <trkpt lat="44.08913" lon="7.09425">
        <ele>891</ele>
        <time>2017-05-25T12:42:32.000Z</time>
      </trkpt>
      <trkpt lat="44.08909" lon="7.0941">
        <ele>887</ele>
        <time>2017-05-25T12:42:34.000Z</time>
      </trkpt>
      <trkpt lat="44.08908" lon="7.09404">
        <ele>884</ele>
        <time>2017-05-25T12:42:35.000Z</time>
      </trkpt>
      <trkpt lat="44.08907" lon="7.094">
        <ele>882</ele>
        <time>2017-05-25T12:42:36.000Z</time>
      </trkpt>
      <trkpt lat="44.08904" lon="7.094">
        <ele>881</ele>
        <time>2017-05-25T12:42:38.000Z</time>
      </trkpt>
      <trkpt lat="44.08905" lon="7.09402">
        <ele>882</ele>
        <time>2017-05-25T12:42:39.000Z</time>
      </trkpt>
      <trkpt lat="44.08905" lon="7.09412">
        <ele>886</ele>
        <time>2017-05-25T12:42:41.000Z</time>
      </trkpt>
      <trkpt lat="44.08904" lon="7.09418">
        <ele>888</ele>
        <time>2017-05-25T12:42:42.000Z</time>
      </trkpt>
      <trkpt lat="44.089" lon="7.09432">
        <ele>883</ele>
        <time>2017-05-25T12:42:44.000Z</time>
      </trkpt>
      <trkpt lat="44.08894" lon="7.09444">
        <ele>880</ele>
        <time>2017-05-25T12:42:46.000Z</time>
      </trkpt>
      <trkpt lat="44.08891" lon="7.09449">
        <ele>879</ele>
        <time>2017-05-25T12:42:47.000Z</time>
      </trkpt>
      <trkpt lat="44.08887" lon="7.09455">
        <ele>878</ele>
        <time>2017-05-25T12:42:48.000Z</time>
      </trkpt>
      <trkpt lat="44.08883" lon="7.0946">
        <ele>877</ele>
        <time>2017-05-25T12:42:49.000Z</time>
      </trkpt>
      <trkpt lat="44.08877" lon="7.09471">
        <ele>877</ele>
        <time>2017-05-25T12:42:51.000Z</time>
      </trkpt>
      <trkpt lat="44.08872" lon="7.09484">
        <ele>876</ele>
        <time>2017-05-25T12:42:53.000Z</time>
      </trkpt>
      <trkpt lat="44.08868" lon="7.09489">
        <ele>874</ele>
        <time>2017-05-25T12:42:54.000Z</time>
      </trkpt>
      <trkpt lat="44.08864" lon="7.09493">
        <ele>872</ele>
        <time>2017-05-25T12:42:55.000Z</time>
      </trkpt>
      <trkpt lat="44.0886" lon="7.09495">
        <ele>871</ele>
        <time>2017-05-25T12:42:56.000Z</time>
      </trkpt>
      <trkpt lat="44.08857" lon="7.09499">
        <ele>869</ele>
        <time>2017-05-25T12:42:57.000Z</time>
      </trkpt>
      <trkpt lat="44.08854" lon="7.0951">
        <ele>875</ele>
        <time>2017-05-25T12:42:59.000Z</time>
      </trkpt>
      <trkpt lat="44.08854" lon="7.09517">
        <ele>876</ele>
        <time>2017-05-25T12:43:00.000Z</time>
      </trkpt>
      <trkpt lat="44.08852" lon="7.09523">
        <ele>877</ele>
        <time>2017-05-25T12:43:01.000Z</time>
      </trkpt>
      <trkpt lat="44.0885" lon="7.09528">
        <ele>877</ele>
        <time>2017-05-25T12:43:02.000Z</time>
      </trkpt>
      <trkpt lat="44.08847" lon="7.09535">
        <ele>878</ele>
        <time>2017-05-25T12:43:03.000Z</time>
      </trkpt>
      <trkpt lat="44.08845" lon="7.0954">
        <ele>878</ele>
        <time>2017-05-25T12:43:04.000Z</time>
      </trkpt>
      <trkpt lat="44.08838" lon="7.09551">
        <ele>877</ele>
        <time>2017-05-25T12:43:06.000Z</time>
      </trkpt>
      <trkpt lat="44.08831" lon="7.09561">
        <ele>849</ele>
        <time>2017-05-25T12:43:08.000Z</time>
      </trkpt>
      <trkpt lat="44.08829" lon="7.09566">
        <ele>851</ele>
        <time>2017-05-25T12:43:09.000Z</time>
      </trkpt>
      <trkpt lat="44.08828" lon="7.09572">
        <ele>854</ele>
        <time>2017-05-25T12:43:10.000Z</time>
      </trkpt>
      <trkpt lat="44.08827" lon="7.09578">
        <ele>857</ele>
        <time>2017-05-25T12:43:11.000Z</time>
      </trkpt>
      <trkpt lat="44.08828" lon="7.09583">
        <ele>860</ele>
        <time>2017-05-25T12:43:12.000Z</time>
      </trkpt>
      <trkpt lat="44.0883" lon="7.09589">
        <ele>860</ele>
        <time>2017-05-25T12:43:13.000Z</time>
      </trkpt>
      <trkpt lat="44.08834" lon="7.096">
        <ele>871</ele>
        <time>2017-05-25T12:43:15.000Z</time>
      </trkpt>
      <trkpt lat="44.08836" lon="7.09603">
        <ele>871</ele>
        <time>2017-05-25T12:43:16.000Z</time>
      </trkpt>
      <trkpt lat="44.08836" lon="7.09605">
        <ele>871</ele>
        <time>2017-05-25T12:43:17.000Z</time>
      </trkpt>
      <trkpt lat="44.08837" lon="7.09605">
        <ele>872</ele>
        <time>2017-05-25T12:43:19.000Z</time>
      </trkpt>
      <trkpt lat="44.08837" lon="7.09605">
        <ele>872</ele>
        <time>2017-05-25T12:43:28.000Z</time>
      </trkpt>
      <trkpt lat="44.08837" lon="7.09605">
        <ele>872</ele>
        <time>2017-05-25T12:43:49.000Z</time>
      </trkpt>
      <trkpt lat="44.08838" lon="7.09604">
        <ele>872</ele>
        <time>2017-05-25T12:44:14.000Z</time>
      </trkpt>
      <trkpt lat="44.08838" lon="7.09604">
        <ele>872</ele>
        <time>2017-05-25T12:44:21.000Z</time>
      </trkpt>
      <trkpt lat="44.08838" lon="7.09604">
        <ele>872</ele>
        <time>2017-05-25T12:44:32.000Z</time>
      </trkpt>
      <trkpt lat="44.08838" lon="7.09605">
        <ele>872</ele>
        <time>2017-05-25T12:45:03.000Z</time>
      </trkpt>
      <trkpt lat="44.08838" lon="7.09605">
        <ele>872</ele>
        <time>2017-05-25T12:45:31.000Z</time>
      </trkpt>
      <trkpt lat="44.08839" lon="7.09605">
        <ele>872</ele>
        <time>2017-05-25T12:45:59.000Z</time>
      </trkpt>
      <trkpt lat="44.08839" lon="7.09605">
        <ele>872</ele>
        <time>2017-05-25T12:46:24.000Z</time>
      </trkpt>
      <trkpt lat="44.0884" lon="7.09606">
        <ele>872</ele>
        <time>2017-05-25T12:46:38.000Z</time>
      </trkpt>
      <trkpt lat="44.08841" lon="7.09608">
        <ele>872</ele>
        <time>2017-05-25T12:46:40.000Z</time>
      </trkpt>
      <trkpt lat="44.08842" lon="7.0961">
        <ele>872</ele>
        <time>2017-05-25T12:46:44.000Z</time>
      </trkpt>
      <trkpt lat="44.08842" lon="7.0961">
        <ele>872</ele>
        <time>2017-05-25T12:46:45.000Z</time>
      </trkpt>
      <trkpt lat="44.08844" lon="7.09611">
        <ele>873</ele>
        <time>2017-05-25T12:46:51.000Z</time>
      </trkpt>
      <trkpt lat="44.08845" lon="7.09614">
        <ele>873</ele>
        <time>2017-05-25T12:46:52.000Z</time>
      </trkpt>
      <trkpt lat="44.08856" lon="7.0963">
        <ele>873</ele>
        <time>2017-05-25T12:46:57.000Z</time>
      </trkpt>
      <trkpt lat="44.08862" lon="7.09641">
        <ele>873</ele>
        <time>2017-05-25T12:46:59.000Z</time>
      </trkpt>
      <trkpt lat="44.08865" lon="7.09647">
        <ele>873</ele>
        <time>2017-05-25T12:47:00.000Z</time>
      </trkpt>
      <trkpt lat="44.08869" lon="7.09655">
        <ele>873</ele>
        <time>2017-05-25T12:47:01.000Z</time>
      </trkpt>
      <trkpt lat="44.08874" lon="7.09669">
        <ele>860</ele>
        <time>2017-05-25T12:47:03.000Z</time>
      </trkpt>
      <trkpt lat="44.08874" lon="7.09674">
        <ele>860</ele>
        <time>2017-05-25T12:47:04.000Z</time>
      </trkpt>
      <trkpt lat="44.08873" lon="7.09677">
        <ele>859</ele>
        <time>2017-05-25T12:47:05.000Z</time>
      </trkpt>
      <trkpt lat="44.08872" lon="7.09677">
        <ele>859</ele>
        <time>2017-05-25T12:47:06.000Z</time>
      </trkpt>
      <trkpt lat="44.0887" lon="7.09671">
        <ele>858</ele>
        <time>2017-05-25T12:47:08.000Z</time>
      </trkpt>
      <trkpt lat="44.08868" lon="7.09667">
        <ele>872</ele>
        <time>2017-05-25T12:47:09.000Z</time>
      </trkpt>
      <trkpt lat="44.08861" lon="7.09658">
        <ele>870</ele>
        <time>2017-05-25T12:47:11.000Z</time>
      </trkpt>
      <trkpt lat="44.08856" lon="7.09655">
        <ele>868</ele>
        <time>2017-05-25T12:47:12.000Z</time>
      </trkpt>
      <trkpt lat="44.08842" lon="7.09651">
        <ele>863</ele>
        <time>2017-05-25T12:47:14.000Z</time>
      </trkpt>
      <trkpt lat="44.08827" lon="7.09649">
        <ele>845</ele>
        <time>2017-05-25T12:47:16.000Z</time>
      </trkpt>
      <trkpt lat="44.0881" lon="7.09647">
        <ele>843</ele>
        <time>2017-05-25T12:47:18.000Z</time>
      </trkpt>
      <trkpt lat="44.08802" lon="7.09644">
        <ele>842</ele>
        <time>2017-05-25T12:47:19.000Z</time>
      </trkpt>
      <trkpt lat="44.08796" lon="7.09641">
        <ele>841</ele>
        <time>2017-05-25T12:47:20.000Z</time>
      </trkpt>
      <trkpt lat="44.08791" lon="7.09635">
        <ele>840</ele>
        <time>2017-05-25T12:47:21.000Z</time>
      </trkpt>
      <trkpt lat="44.08784" lon="7.09623">
        <ele>839</ele>
        <time>2017-05-25T12:47:23.000Z</time>
      </trkpt>
      <trkpt lat="44.0878" lon="7.09616">
        <ele>839</ele>
        <time>2017-05-25T12:47:24.000Z</time>
      </trkpt>
      <trkpt lat="44.08776" lon="7.09598">
        <ele>837</ele>
        <time>2017-05-25T12:47:26.000Z</time>
      </trkpt>
      <trkpt lat="44.08778" lon="7.09578">
        <ele>833</ele>
        <time>2017-05-25T12:47:28.000Z</time>
      </trkpt>
      <trkpt lat="44.08781" lon="7.09568">
        <ele>833</ele>
        <time>2017-05-25T12:47:29.000Z</time>
      </trkpt>
      <trkpt lat="44.08784" lon="7.09558">
        <ele>834</ele>
        <time>2017-05-25T12:47:30.000Z</time>
      </trkpt>
      <trkpt lat="44.08786" lon="7.09547">
        <ele>833</ele>
        <time>2017-05-25T12:47:31.000Z</time>
      </trkpt>
      <trkpt lat="44.08788" lon="7.09536">
        <ele>832</ele>
        <time>2017-05-25T12:47:32.000Z</time>
      </trkpt>
      <trkpt lat="44.08793" lon="7.09517">
        <ele>832</ele>
        <time>2017-05-25T12:47:34.000Z</time>
      </trkpt>
      <trkpt lat="44.08796" lon="7.09508">
        <ele>833</ele>
        <time>2017-05-25T12:47:35.000Z</time>
      </trkpt>
      <trkpt lat="44.08805" lon="7.0949">
        <ele>825</ele>
        <time>2017-05-25T12:47:37.000Z</time>
      </trkpt>
      <trkpt lat="44.0881" lon="7.0948">
        <ele>825</ele>
        <time>2017-05-25T12:47:38.000Z</time>
      </trkpt>
      <trkpt lat="44.08815" lon="7.0947">
        <ele>824</ele>
        <time>2017-05-25T12:47:39.000Z</time>
      </trkpt>
      <trkpt lat="44.08819" lon="7.09461">
        <ele>822</ele>
        <time>2017-05-25T12:47:40.000Z</time>
      </trkpt>
      <trkpt lat="44.08822" lon="7.09451">
        <ele>821</ele>
        <time>2017-05-25T12:47:41.000Z</time>
      </trkpt>
      <trkpt lat="44.08823" lon="7.09441">
        <ele>821</ele>
        <time>2017-05-25T12:47:42.000Z</time>
      </trkpt>
      <trkpt lat="44.08825" lon="7.0943">
        <ele>823</ele>
        <time>2017-05-25T12:47:43.000Z</time>
      </trkpt>
      <trkpt lat="44.08826" lon="7.0942">
        <ele>825</ele>
        <time>2017-05-25T12:47:44.000Z</time>
      </trkpt>
      <trkpt lat="44.08825" lon="7.09409">
        <ele>820</ele>
        <time>2017-05-25T12:47:45.000Z</time>
      </trkpt>
      <trkpt lat="44.08825" lon="7.09399">
        <ele>816</ele>
        <time>2017-05-25T12:47:46.000Z</time>
      </trkpt>
      <trkpt lat="44.08825" lon="7.09389">
        <ele>814</ele>
        <time>2017-05-25T12:47:47.000Z</time>
      </trkpt>
      <trkpt lat="44.08826" lon="7.09379">
        <ele>813</ele>
        <time>2017-05-25T12:47:48.000Z</time>
      </trkpt>
      <trkpt lat="44.08826" lon="7.09373">
        <ele>813</ele>
        <time>2017-05-25T12:47:49.000Z</time>
      </trkpt>
      <trkpt lat="44.08826" lon="7.09369">
        <ele>814</ele>
        <time>2017-05-25T12:47:50.000Z</time>
      </trkpt>
      <trkpt lat="44.08824" lon="7.09369">
        <ele>813</ele>
        <time>2017-05-25T12:47:51.000Z</time>
      </trkpt>
      <trkpt lat="44.08824" lon="7.09371">
        <ele>813</ele>
        <time>2017-05-25T12:47:52.000Z</time>
      </trkpt>
      <trkpt lat="44.08823" lon="7.09376">
        <ele>813</ele>
        <time>2017-05-25T12:47:53.000Z</time>
      </trkpt>
      <trkpt lat="44.08821" lon="7.09384">
        <ele>812</ele>
        <time>2017-05-25T12:47:54.000Z</time>
      </trkpt>
      <trkpt lat="44.08819" lon="7.09393">
        <ele>813</ele>
        <time>2017-05-25T12:47:55.000Z</time>
      </trkpt>
      <trkpt lat="44.08816" lon="7.09402">
        <ele>814</ele>
        <time>2017-05-25T12:47:56.000Z</time>
      </trkpt>
      <trkpt lat="44.08809" lon="7.09424">
        <ele>817</ele>
        <time>2017-05-25T12:47:58.000Z</time>
      </trkpt>
      <trkpt lat="44.08805" lon="7.09434">
        <ele>815</ele>
        <time>2017-05-25T12:47:59.000Z</time>
      </trkpt>
      <trkpt lat="44.08801" lon="7.09444">
        <ele>814</ele>
        <time>2017-05-25T12:48:00.000Z</time>
      </trkpt>
      <trkpt lat="44.08795" lon="7.09454">
        <ele>813</ele>
        <time>2017-05-25T12:48:01.000Z</time>
      </trkpt>
      <trkpt lat="44.08783" lon="7.09473">
        <ele>811</ele>
        <time>2017-05-25T12:48:03.000Z</time>
      </trkpt>
      <trkpt lat="44.08776" lon="7.09483">
        <ele>809</ele>
        <time>2017-05-25T12:48:04.000Z</time>
      </trkpt>
      <trkpt lat="44.0877" lon="7.09491">
        <ele>806</ele>
        <time>2017-05-25T12:48:05.000Z</time>
      </trkpt>
      <trkpt lat="44.08763" lon="7.09499">
        <ele>802</ele>
        <time>2017-05-25T12:48:06.000Z</time>
      </trkpt>
      <trkpt lat="44.08757" lon="7.09506">
        <ele>806</ele>
        <time>2017-05-25T12:48:07.000Z</time>
      </trkpt>
      <trkpt lat="44.08751" lon="7.09513">
        <ele>809</ele>
        <time>2017-05-25T12:48:08.000Z</time>
      </trkpt>
      <trkpt lat="44.08745" lon="7.09518">
        <ele>786</ele>
        <time>2017-05-25T12:48:09.000Z</time>
      </trkpt>
      <trkpt lat="44.08732" lon="7.09526">
        <ele>782</ele>
        <time>2017-05-25T12:48:11.000Z</time>
      </trkpt>
      <trkpt lat="44.08728" lon="7.09532">
        <ele>781</ele>
        <time>2017-05-25T12:48:12.000Z</time>
      </trkpt>
      <trkpt lat="44.08725" lon="7.09539">
        <ele>781</ele>
        <time>2017-05-25T12:48:13.000Z</time>
      </trkpt>
      <trkpt lat="44.08721" lon="7.09549">
        <ele>782</ele>
        <time>2017-05-25T12:48:14.000Z</time>
      </trkpt>
      <trkpt lat="44.08711" lon="7.09568">
        <ele>781</ele>
        <time>2017-05-25T12:48:16.000Z</time>
      </trkpt>
      <trkpt lat="44.08705" lon="7.09577">
        <ele>779</ele>
        <time>2017-05-25T12:48:17.000Z</time>
      </trkpt>
      <trkpt lat="44.08698" lon="7.09587">
        <ele>790</ele>
        <time>2017-05-25T12:48:18.000Z</time>
      </trkpt>
      <trkpt lat="44.08684" lon="7.09601">
        <ele>785</ele>
        <time>2017-05-25T12:48:20.000Z</time>
      </trkpt>
      <trkpt lat="44.08676" lon="7.09608">
        <ele>785</ele>
        <time>2017-05-25T12:48:21.000Z</time>
      </trkpt>
      <trkpt lat="44.0867" lon="7.09613">
        <ele>785</ele>
        <time>2017-05-25T12:48:22.000Z</time>
      </trkpt>
      <trkpt lat="44.08665" lon="7.09619">
        <ele>755</ele>
        <time>2017-05-25T12:48:23.000Z</time>
      </trkpt>
      <trkpt lat="44.08662" lon="7.09626">
        <ele>757</ele>
        <time>2017-05-25T12:48:24.000Z</time>
      </trkpt>
      <trkpt lat="44.08659" lon="7.09635">
        <ele>759</ele>
        <time>2017-05-25T12:48:25.000Z</time>
      </trkpt>
      <trkpt lat="44.08656" lon="7.09644">
        <ele>762</ele>
        <time>2017-05-25T12:48:26.000Z</time>
      </trkpt>
      <trkpt lat="44.08652" lon="7.09653">
        <ele>765</ele>
        <time>2017-05-25T12:48:27.000Z</time>
      </trkpt>
      <trkpt lat="44.08641" lon="7.0967">
        <ele>769</ele>
        <time>2017-05-25T12:48:29.000Z</time>
      </trkpt>
      <trkpt lat="44.08629" lon="7.09684">
        <ele>763</ele>
        <time>2017-05-25T12:48:31.000Z</time>
      </trkpt>
      <trkpt lat="44.08624" lon="7.09688">
        <ele>761</ele>
        <time>2017-05-25T12:48:32.000Z</time>
      </trkpt>
      <trkpt lat="44.08618" lon="7.09692">
        <ele>759</ele>
        <time>2017-05-25T12:48:33.000Z</time>
      </trkpt>
      <trkpt lat="44.08613" lon="7.09704">
        <ele>758</ele>
        <time>2017-05-25T12:48:35.000Z</time>
      </trkpt>
      <trkpt lat="44.08612" lon="7.09711">
        <ele>758</ele>
        <time>2017-05-25T12:48:36.000Z</time>
      </trkpt>
      <trkpt lat="44.08613" lon="7.09717">
        <ele>758</ele>
        <time>2017-05-25T12:48:37.000Z</time>
      </trkpt>
      <trkpt lat="44.08614" lon="7.09721">
        <ele>759</ele>
        <time>2017-05-25T12:48:38.000Z</time>
      </trkpt>
      <trkpt lat="44.08616" lon="7.09725">
        <ele>759</ele>
        <time>2017-05-25T12:48:39.000Z</time>
      </trkpt>
      <trkpt lat="44.08617" lon="7.09727">
        <ele>759</ele>
        <time>2017-05-25T12:48:40.000Z</time>
      </trkpt>
      <trkpt lat="44.08618" lon="7.09729">
        <ele>759</ele>
        <time>2017-05-25T12:48:41.000Z</time>
      </trkpt>
      <trkpt lat="44.08618" lon="7.09729">
        <ele>759</ele>
        <time>2017-05-25T12:48:42.000Z</time>
      </trkpt>
      <trkpt lat="44.08618" lon="7.09729">
        <ele>759</ele>
        <time>2017-05-25T12:48:46.000Z</time>
      </trkpt>
      <trkpt lat="44.08619" lon="7.09732">
        <ele>759</ele>
        <time>2017-05-25T12:48:53.000Z</time>
      </trkpt>
      <trkpt lat="44.0862" lon="7.09733">
        <ele>760</ele>
        <time>2017-05-25T12:48:59.000Z</time>
      </trkpt>
      <trkpt lat="44.0862" lon="7.09735">
        <ele>760</ele>
        <time>2017-05-25T12:49:00.000Z</time>
      </trkpt>
      <trkpt lat="44.08622" lon="7.09743">
        <ele>760</ele>
        <time>2017-05-25T12:49:03.000Z</time>
      </trkpt>
      <trkpt lat="44.08631" lon="7.09763">
        <ele>753</ele>
        <time>2017-05-25T12:49:06.000Z</time>
      </trkpt>
      <trkpt lat="44.0864" lon="7.09774">
        <ele>754</ele>
        <time>2017-05-25T12:49:08.000Z</time>
      </trkpt>
      <trkpt lat="44.08652" lon="7.09786">
        <ele>753</ele>
        <time>2017-05-25T12:49:10.000Z</time>
      </trkpt>
      <trkpt lat="44.08658" lon="7.09801">
        <ele>751</ele>
        <time>2017-05-25T12:49:12.000Z</time>
      </trkpt>
      <trkpt lat="44.08661" lon="7.09807">
        <ele>750</ele>
        <time>2017-05-25T12:49:13.000Z</time>
      </trkpt>
      <trkpt lat="44.08663" lon="7.09811">
        <ele>750</ele>
        <time>2017-05-25T12:49:14.000Z</time>
      </trkpt>
      <trkpt lat="44.08661" lon="7.09813">
        <ele>750</ele>
        <time>2017-05-25T12:49:16.000Z</time>
      </trkpt>
      <trkpt lat="44.08656" lon="7.09807">
        <ele>750</ele>
        <time>2017-05-25T12:49:18.000Z</time>
      </trkpt>
      <trkpt lat="44.08652" lon="7.09802">
        <ele>750</ele>
        <time>2017-05-25T12:49:19.000Z</time>
      </trkpt>
      <trkpt lat="44.0865" lon="7.09798">
        <ele>751</ele>
        <time>2017-05-25T12:49:20.000Z</time>
      </trkpt>
      <trkpt lat="44.08647" lon="7.09796">
        <ele>750</ele>
        <time>2017-05-25T12:49:22.000Z</time>
      </trkpt>
      <trkpt lat="44.08647" lon="7.09797">
        <ele>750</ele>
        <time>2017-05-25T12:49:23.000Z</time>
      </trkpt>
      <trkpt lat="44.08647" lon="7.09798">
        <ele>750</ele>
        <time>2017-05-25T12:49:24.000Z</time>
      </trkpt>
      <trkpt lat="44.08649" lon="7.09801">
        <ele>750</ele>
        <time>2017-05-25T12:49:25.000Z</time>
      </trkpt>
      <trkpt lat="44.0865" lon="7.09807">
        <ele>749</ele>
        <time>2017-05-25T12:49:26.000Z</time>
      </trkpt>
      <trkpt lat="44.08652" lon="7.0982">
        <ele>749</ele>
        <time>2017-05-25T12:49:28.000Z</time>
      </trkpt>
      <trkpt lat="44.08653" lon="7.09826">
        <ele>749</ele>
        <time>2017-05-25T12:49:29.000Z</time>
      </trkpt>
      <trkpt lat="44.08654" lon="7.09838">
        <ele>736</ele>
        <time>2017-05-25T12:49:31.000Z</time>
      </trkpt>
      <trkpt lat="44.08653" lon="7.0985">
        <ele>730</ele>
        <time>2017-05-25T12:49:33.000Z</time>
      </trkpt>
      <trkpt lat="44.08653" lon="7.09856">
        <ele>728</ele>
        <time>2017-05-25T12:49:34.000Z</time>
      </trkpt>
      <trkpt lat="44.08653" lon="7.09861">
        <ele>726</ele>
        <time>2017-05-25T12:49:35.000Z</time>
      </trkpt>
      <trkpt lat="44.08655" lon="7.0987">
        <ele>723</ele>
        <time>2017-05-25T12:49:37.000Z</time>
      </trkpt>
      <trkpt lat="44.08657" lon="7.09876">
        <ele>722</ele>
        <time>2017-05-25T12:49:38.000Z</time>
      </trkpt>
      <trkpt lat="44.0866" lon="7.09885">
        <ele>719</ele>
        <time>2017-05-25T12:49:40.000Z</time>
      </trkpt>
      <trkpt lat="44.08661" lon="7.09888">
        <ele>719</ele>
        <time>2017-05-25T12:49:41.000Z</time>
      </trkpt>
      <trkpt lat="44.08663" lon="7.09891">
        <ele>718</ele>
        <time>2017-05-25T12:49:42.000Z</time>
      </trkpt>
      <trkpt lat="44.08666" lon="7.09892">
        <ele>718</ele>
        <time>2017-05-25T12:49:43.000Z</time>
      </trkpt>
      <trkpt lat="44.08669" lon="7.09895">
        <ele>729</ele>
        <time>2017-05-25T12:49:45.000Z</time>
      </trkpt>
      <trkpt lat="44.0867" lon="7.09897">
        <ele>728</ele>
        <time>2017-05-25T12:49:46.000Z</time>
      </trkpt>
      <trkpt lat="44.08669" lon="7.09898">
        <ele>728</ele>
        <time>2017-05-25T12:49:47.000Z</time>
      </trkpt>
      <trkpt lat="44.08667" lon="7.09898">
        <ele>717</ele>
        <time>2017-05-25T12:49:48.000Z</time>
      </trkpt>
      <trkpt lat="44.08662" lon="7.09901">
        <ele>716</ele>
        <time>2017-05-25T12:49:50.000Z</time>
      </trkpt>
      <trkpt lat="44.0866" lon="7.09903">
        <ele>716</ele>
        <time>2017-05-25T12:49:52.000Z</time>
      </trkpt>
      <trkpt lat="44.0866" lon="7.09904">
        <ele>716</ele>
        <time>2017-05-25T12:49:53.000Z</time>
      </trkpt>
      <trkpt lat="44.08664" lon="7.09904">
        <ele>716</ele>
        <time>2017-05-25T12:49:55.000Z</time>
      </trkpt>
      <trkpt lat="44.08666" lon="7.09903">
        <ele>716</ele>
        <time>2017-05-25T12:49:56.000Z</time>
      </trkpt>
      <trkpt lat="44.08668" lon="7.09908">
        <ele>722</ele>
        <time>2017-05-25T12:49:59.000Z</time>
      </trkpt>
      <trkpt lat="44.08663" lon="7.0991">
        <ele>715</ele>
        <time>2017-05-25T12:50:01.000Z</time>
      </trkpt>
      <trkpt lat="44.0866" lon="7.09911">
        <ele>715</ele>
        <time>2017-05-25T12:50:02.000Z</time>
      </trkpt>
      <trkpt lat="44.08659" lon="7.09912">
        <ele>715</ele>
        <time>2017-05-25T12:50:03.000Z</time>
      </trkpt>
      <trkpt lat="44.0866" lon="7.09913">
        <ele>715</ele>
        <time>2017-05-25T12:50:04.000Z</time>
      </trkpt>
      <trkpt lat="44.08662" lon="7.09913">
        <ele>715</ele>
        <time>2017-05-25T12:50:06.000Z</time>
      </trkpt>
      <trkpt lat="44.08665" lon="7.09913">
        <ele>714</ele>
        <time>2017-05-25T12:50:07.000Z</time>
      </trkpt>
      <trkpt lat="44.08672" lon="7.09914">
        <ele>719</ele>
        <time>2017-05-25T12:50:09.000Z</time>
      </trkpt>
      <trkpt lat="44.08679" lon="7.09916">
        <ele>724</ele>
        <time>2017-05-25T12:50:11.000Z</time>
      </trkpt>
      <trkpt lat="44.08682" lon="7.09919">
        <ele>710</ele>
        <time>2017-05-25T12:50:12.000Z</time>
      </trkpt>
      <trkpt lat="44.08686" lon="7.09927">
        <ele>709</ele>
        <time>2017-05-25T12:50:14.000Z</time>
      </trkpt>
      <trkpt lat="44.08688" lon="7.09931">
        <ele>708</ele>
        <time>2017-05-25T12:50:15.000Z</time>
      </trkpt>
      <trkpt lat="44.0869" lon="7.09936">
        <ele>707</ele>
        <time>2017-05-25T12:50:16.000Z</time>
      </trkpt>
      <trkpt lat="44.08692" lon="7.09946">
        <ele>705</ele>
        <time>2017-05-25T12:50:18.000Z</time>
      </trkpt>
      <trkpt lat="44.08694" lon="7.0995">
        <ele>705</ele>
        <time>2017-05-25T12:50:19.000Z</time>
      </trkpt>
      <trkpt lat="44.08696" lon="7.09953">
        <ele>704</ele>
        <time>2017-05-25T12:50:20.000Z</time>
      </trkpt>
      <trkpt lat="44.08698" lon="7.09958">
        <ele>703</ele>
        <time>2017-05-25T12:50:21.000Z</time>
      </trkpt>
      <trkpt lat="44.087" lon="7.09963">
        <ele>702</ele>
        <time>2017-05-25T12:50:22.000Z</time>
      </trkpt>
      <trkpt lat="44.08701" lon="7.09969">
        <ele>701</ele>
        <time>2017-05-25T12:50:23.000Z</time>
      </trkpt>
      <trkpt lat="44.08702" lon="7.09975">
        <ele>700</ele>
        <time>2017-05-25T12:50:24.000Z</time>
      </trkpt>
      <trkpt lat="44.08705" lon="7.09985">
        <ele>699</ele>
        <time>2017-05-25T12:50:26.000Z</time>
      </trkpt>
      <trkpt lat="44.08706" lon="7.09989">
        <ele>698</ele>
        <time>2017-05-25T12:50:27.000Z</time>
      </trkpt>
      <trkpt lat="44.08706" lon="7.09994">
        <ele>698</ele>
        <time>2017-05-25T12:50:28.000Z</time>
      </trkpt>
      <trkpt lat="44.08705" lon="7.09998">
        <ele>697</ele>
        <time>2017-05-25T12:50:29.000Z</time>
      </trkpt>
      <trkpt lat="44.08704" lon="7.10002">
        <ele>678</ele>
        <time>2017-05-25T12:50:30.000Z</time>
      </trkpt>
      <trkpt lat="44.08702" lon="7.10006">
        <ele>678</ele>
        <time>2017-05-25T12:50:31.000Z</time>
      </trkpt>
      <trkpt lat="44.087" lon="7.10009">
        <ele>677</ele>
        <time>2017-05-25T12:50:32.000Z</time>
      </trkpt>
      <trkpt lat="44.08696" lon="7.10016">
        <ele>677</ele>
        <time>2017-05-25T12:50:34.000Z</time>
      </trkpt>
      <trkpt lat="44.08695" lon="7.10018">
        <ele>676</ele>
        <time>2017-05-25T12:50:35.000Z</time>
      </trkpt>
      <trkpt lat="44.08693" lon="7.10019">
        <ele>676</ele>
        <time>2017-05-25T12:50:36.000Z</time>
      </trkpt>
      <trkpt lat="44.08691" lon="7.10016">
        <ele>676</ele>
        <time>2017-05-25T12:50:38.000Z</time>
      </trkpt>
      <trkpt lat="44.0869" lon="7.10016">
        <ele>676</ele>
        <time>2017-05-25T12:50:40.000Z</time>
      </trkpt>
      <trkpt lat="44.0869" lon="7.10017">
        <ele>676</ele>
        <time>2017-05-25T12:50:41.000Z</time>
      </trkpt>
      <trkpt lat="44.0869" lon="7.1002">
        <ele>676</ele>
        <time>2017-05-25T12:50:42.000Z</time>
      </trkpt>
      <trkpt lat="44.08686" lon="7.10032">
        <ele>674</ele>
        <time>2017-05-25T12:50:45.000Z</time>
      </trkpt>
      <trkpt lat="44.08685" lon="7.10043">
        <ele>672</ele>
        <time>2017-05-25T12:50:47.000Z</time>
      </trkpt>
      <trkpt lat="44.08685" lon="7.1005">
        <ele>671</ele>
        <time>2017-05-25T12:50:48.000Z</time>
      </trkpt>
      <trkpt lat="44.08686" lon="7.10055">
        <ele>670</ele>
        <time>2017-05-25T12:50:49.000Z</time>
      </trkpt>
      <trkpt lat="44.08691" lon="7.10063">
        <ele>669</ele>
        <time>2017-05-25T12:50:51.000Z</time>
      </trkpt>
      <trkpt lat="44.08693" lon="7.10068">
        <ele>668</ele>
        <time>2017-05-25T12:50:52.000Z</time>
      </trkpt>
      <trkpt lat="44.08693" lon="7.10074">
        <ele>668</ele>
        <time>2017-05-25T12:50:53.000Z</time>
      </trkpt>
      <trkpt lat="44.08694" lon="7.10078">
        <ele>667</ele>
        <time>2017-05-25T12:50:54.000Z</time>
      </trkpt>
      <trkpt lat="44.08694" lon="7.10082">
        <ele>667</ele>
        <time>2017-05-25T12:50:55.000Z</time>
      </trkpt>
      <trkpt lat="44.08695" lon="7.10084">
        <ele>654</ele>
        <time>2017-05-25T12:50:56.000Z</time>
      </trkpt>
      <trkpt lat="44.08695" lon="7.10086">
        <ele>654</ele>
        <time>2017-05-25T12:50:57.000Z</time>
      </trkpt>
      <trkpt lat="44.08694" lon="7.10088">
        <ele>654</ele>
        <time>2017-05-25T12:50:58.000Z</time>
      </trkpt>
      <trkpt lat="44.08692" lon="7.10093">
        <ele>653</ele>
        <time>2017-05-25T12:51:00.000Z</time>
      </trkpt>
      <trkpt lat="44.08689" lon="7.10095">
        <ele>653</ele>
        <time>2017-05-25T12:51:01.000Z</time>
      </trkpt>
      <trkpt lat="44.08685" lon="7.10095">
        <ele>653</ele>
        <time>2017-05-25T12:51:03.000Z</time>
      </trkpt>
      <trkpt lat="44.08684" lon="7.10096">
        <ele>653</ele>
        <time>2017-05-25T12:51:04.000Z</time>
      </trkpt>
      <trkpt lat="44.08685" lon="7.10102">
        <ele>652</ele>
        <time>2017-05-25T12:51:06.000Z</time>
      </trkpt>
      <trkpt lat="44.08694" lon="7.10112">
        <ele>652</ele>
        <time>2017-05-25T12:51:09.000Z</time>
      </trkpt>
      <trkpt lat="44.08697" lon="7.10114">
        <ele>652</ele>
        <time>2017-05-25T12:51:10.000Z</time>
      </trkpt>
      <trkpt lat="44.08699" lon="7.10115">
        <ele>652</ele>
        <time>2017-05-25T12:51:11.000Z</time>
      </trkpt>
      <trkpt lat="44.08701" lon="7.10118">
        <ele>652</ele>
        <time>2017-05-25T12:51:13.000Z</time>
      </trkpt>
      <trkpt lat="44.08701" lon="7.10119">
        <ele>651</ele>
        <time>2017-05-25T12:51:14.000Z</time>
      </trkpt>
      <trkpt lat="44.08701" lon="7.10119">
        <ele>651</ele>
        <time>2017-05-25T12:51:19.000Z</time>
      </trkpt>
      <trkpt lat="44.08701" lon="7.10119">
        <ele>651</ele>
        <time>2017-05-25T12:51:20.000Z</time>
      </trkpt>
      <trkpt lat="44.08701" lon="7.10118">
        <ele>652</ele>
        <time>2017-05-25T12:51:40.000Z</time>
      </trkpt>
      <trkpt lat="44.08699" lon="7.10119">
        <ele>651</ele>
        <time>2017-05-25T12:51:43.000Z</time>
      </trkpt>
      <trkpt lat="44.08696" lon="7.10119">
        <ele>651</ele>
        <time>2017-05-25T12:51:46.000Z</time>
      </trkpt>
      <trkpt lat="44.08696" lon="7.10119">
        <ele>651</ele>
        <time>2017-05-25T12:51:51.000Z</time>
      </trkpt>
      <trkpt lat="44.08696" lon="7.10119">
        <ele>651</ele>
        <time>2017-05-25T12:51:52.000Z</time>
      </trkpt>
      <trkpt lat="44.08696" lon="7.10122">
        <ele>651</ele>
        <time>2017-05-25T12:51:57.000Z</time>
      </trkpt>
      <trkpt lat="44.08695" lon="7.1012">
        <ele>651</ele>
        <time>2017-05-25T12:52:02.000Z</time>
      </trkpt>
      <trkpt lat="44.08695" lon="7.10119">
        <ele>651</ele>
        <time>2017-05-25T12:52:03.000Z</time>
      </trkpt>
      <trkpt lat="44.08698" lon="7.10119">
        <ele>651</ele>
        <time>2017-05-25T12:52:08.000Z</time>
      </trkpt>
      <trkpt lat="44.087" lon="7.10118">
        <ele>651</ele>
        <time>2017-05-25T12:52:11.000Z</time>
      </trkpt>
      <trkpt lat="44.087" lon="7.10118">
        <ele>651</ele>
        <time>2017-05-25T12:52:15.000Z</time>
      </trkpt>
      <trkpt lat="44.087" lon="7.10118">
        <ele>651</ele>
        <time>2017-05-25T12:52:16.000Z</time>
      </trkpt>
      <trkpt lat="44.08701" lon="7.10118">
        <ele>652</ele>
        <time>2017-05-25T12:52:22.000Z</time>
      </trkpt>
      <trkpt lat="44.08702" lon="7.10118">
        <ele>652</ele>
        <time>2017-05-25T12:52:38.000Z</time>
      </trkpt>
      <trkpt lat="44.08702" lon="7.10117">
        <ele>652</ele>
        <time>2017-05-25T12:52:51.000Z</time>
      </trkpt>
      <trkpt lat="44.08702" lon="7.10117">
        <ele>652</ele>
        <time>2017-05-25T12:53:05.000Z</time>
      </trkpt>
      <trkpt lat="44.08703" lon="7.10117">
        <ele>652</ele>
        <time>2017-05-25T12:53:14.000Z</time>
      </trkpt>
      <trkpt lat="44.08702" lon="7.10117">
        <ele>652</ele>
        <time>2017-05-25T12:53:28.000Z</time>
      </trkpt>
      <trkpt lat="44.08702" lon="7.10117">
        <ele>652</ele>
        <time>2017-05-25T12:53:30.000Z</time>
      </trkpt>
      <trkpt lat="44.08702" lon="7.10117">
        <ele>652</ele>
        <time>2017-05-25T12:53:36.000Z</time>
      </trkpt>
      <trkpt lat="44.0871" lon="7.10116">
        <ele>653</ele>
        <time>2017-05-25T12:53:42.000Z</time>
      </trkpt>
      <trkpt lat="44.0873" lon="7.10107">
        <ele>656</ele>
        <time>2017-05-25T12:53:49.000Z</time>
      </trkpt>
      <trkpt lat="44.08745" lon="7.10097">
        <ele>662</ele>
        <time>2017-05-25T12:53:55.000Z</time>
      </trkpt>
      <trkpt lat="44.08759" lon="7.10085">
        <ele>669</ele>
        <time>2017-05-25T12:54:01.000Z</time>
      </trkpt>
      <trkpt lat="44.08777" lon="7.10084">
        <ele>671</ele>
        <time>2017-05-25T12:54:06.000Z</time>
      </trkpt>
      <trkpt lat="44.08792" lon="7.1009">
        <ele>673</ele>
        <time>2017-05-25T12:54:10.000Z</time>
      </trkpt>
      <trkpt lat="44.08808" lon="7.10104">
        <ele>674</ele>
        <time>2017-05-25T12:54:15.000Z</time>
      </trkpt>
      <trkpt lat="44.08822" lon="7.10116">
        <ele>673</ele>
        <time>2017-05-25T12:54:20.000Z</time>
      </trkpt>
      <trkpt lat="44.08829" lon="7.10126">
        <ele>670</ele>
        <time>2017-05-25T12:54:23.000Z</time>
      </trkpt>
      <trkpt lat="44.08834" lon="7.10138">
        <ele>682</ele>
        <time>2017-05-25T12:54:26.000Z</time>
      </trkpt>
      <trkpt lat="44.08849" lon="7.10164">
        <ele>674</ele>
        <time>2017-05-25T12:54:33.000Z</time>
      </trkpt>
      <trkpt lat="44.08855" lon="7.1017">
        <ele>661</ele>
        <time>2017-05-25T12:54:35.000Z</time>
      </trkpt>
      <trkpt lat="44.08865" lon="7.10173">
        <ele>663</ele>
        <time>2017-05-25T12:54:38.000Z</time>
      </trkpt>
      <trkpt lat="44.0888" lon="7.10175">
        <ele>668</ele>
        <time>2017-05-25T12:54:43.000Z</time>
      </trkpt>
      <trkpt lat="44.08889" lon="7.10185">
        <ele>669</ele>
        <time>2017-05-25T12:54:47.000Z</time>
      </trkpt>
      <trkpt lat="44.08907" lon="7.10214">
        <ele>666</ele>
        <time>2017-05-25T12:54:55.000Z</time>
      </trkpt>
      <trkpt lat="44.08911" lon="7.10221">
        <ele>666</ele>
        <time>2017-05-25T12:54:57.000Z</time>
      </trkpt>
      <trkpt lat="44.08917" lon="7.10239">
        <ele>679</ele>
        <time>2017-05-25T12:55:01.000Z</time>
      </trkpt>
      <trkpt lat="44.08925" lon="7.10269">
        <ele>669</ele>
        <time>2017-05-25T12:55:07.000Z</time>
      </trkpt>
      <trkpt lat="44.0893" lon="7.10307">
        <ele>662</ele>
        <time>2017-05-25T12:55:14.000Z</time>
      </trkpt>
      <trkpt lat="44.08934" lon="7.10335">
        <ele>644</ele>
        <time>2017-05-25T12:55:19.000Z</time>
      </trkpt>
      <trkpt lat="44.08936" lon="7.10339">
        <ele>645</ele>
        <time>2017-05-25T12:55:20.000Z</time>
      </trkpt>
      <trkpt lat="44.08939" lon="7.1035">
        <ele>645</ele>
        <time>2017-05-25T12:55:22.000Z</time>
      </trkpt>
      <trkpt lat="44.08946" lon="7.1037">
        <ele>644</ele>
        <time>2017-05-25T12:55:26.000Z</time>
      </trkpt>
      <trkpt lat="44.0895" lon="7.1038">
        <ele>644</ele>
        <time>2017-05-25T12:55:30.000Z</time>
      </trkpt>
      <trkpt lat="44.08951" lon="7.10382">
        <ele>644</ele>
        <time>2017-05-25T12:55:32.000Z</time>
      </trkpt>
      <trkpt lat="44.08952" lon="7.10383">
        <ele>644</ele>
        <time>2017-05-25T12:55:36.000Z</time>
      </trkpt>
      <trkpt lat="44.08953" lon="7.10385">
        <ele>644</ele>
        <time>2017-05-25T12:55:45.000Z</time>
      </trkpt>
      <trkpt lat="44.08954" lon="7.10386">
        <ele>644</ele>
        <time>2017-05-25T12:55:46.000Z</time>
      </trkpt>
      <trkpt lat="44.08955" lon="7.10388">
        <ele>644</ele>
        <time>2017-05-25T12:55:51.000Z</time>
      </trkpt>
      <trkpt lat="44.08957" lon="7.10391">
        <ele>644</ele>
        <time>2017-05-25T12:55:55.000Z</time>
      </trkpt>
      <trkpt lat="44.08959" lon="7.10392">
        <ele>644</ele>
        <time>2017-05-25T12:55:57.000Z</time>
      </trkpt>
      <trkpt lat="44.08961" lon="7.10394">
        <ele>644</ele>
        <time>2017-05-25T12:56:01.000Z</time>
      </trkpt>
      <trkpt lat="44.08963" lon="7.10397">
        <ele>644</ele>
        <time>2017-05-25T12:56:04.000Z</time>
      </trkpt>
      <trkpt lat="44.08964" lon="7.10398">
        <ele>644</ele>
        <time>2017-05-25T12:56:10.000Z</time>
      </trkpt>
      <trkpt lat="44.08965" lon="7.10398">
        <ele>645</ele>
        <time>2017-05-25T12:56:15.000Z</time>
      </trkpt>
      <trkpt lat="44.08966" lon="7.10399">
        <ele>645</ele>
        <time>2017-05-25T12:56:17.000Z</time>
      </trkpt>
      <trkpt lat="44.08971" lon="7.10399">
        <ele>646</ele>
        <time>2017-05-25T12:56:26.000Z</time>
      </trkpt>
      <trkpt lat="44.08973" lon="7.10399">
        <ele>646</ele>
        <time>2017-05-25T12:56:27.000Z</time>
      </trkpt>
      <trkpt lat="44.08975" lon="7.10401">
        <ele>646</ele>
        <time>2017-05-25T12:56:28.000Z</time>
      </trkpt>
      <trkpt lat="44.08975" lon="7.10403">
        <ele>646</ele>
        <time>2017-05-25T12:56:29.000Z</time>
      </trkpt>
      <trkpt lat="44.08973" lon="7.10404">
        <ele>646</ele>
        <time>2017-05-25T12:56:31.000Z</time>
      </trkpt>
      <trkpt lat="44.08972" lon="7.10405">
        <ele>645</ele>
        <time>2017-05-25T12:56:34.000Z</time>
      </trkpt>
      <trkpt lat="44.08968" lon="7.1041">
        <ele>644</ele>
        <time>2017-05-25T12:56:39.000Z</time>
      </trkpt>
      <trkpt lat="44.08962" lon="7.10414">
        <ele>643</ele>
        <time>2017-05-25T12:56:42.000Z</time>
      </trkpt>
      <trkpt lat="44.08959" lon="7.10415">
        <ele>642</ele>
        <time>2017-05-25T12:56:46.000Z</time>
      </trkpt>
      <trkpt lat="44.08956" lon="7.10416">
        <ele>641</ele>
        <time>2017-05-25T12:56:50.000Z</time>
      </trkpt>
      <trkpt lat="44.08955" lon="7.10416">
        <ele>641</ele>
        <time>2017-05-25T12:56:52.000Z</time>
      </trkpt>
      <trkpt lat="44.08953" lon="7.10418">
        <ele>626</ele>
        <time>2017-05-25T12:56:55.000Z</time>
      </trkpt>
      <trkpt lat="44.0895" lon="7.10426">
        <ele>625</ele>
        <time>2017-05-25T12:56:57.000Z</time>
      </trkpt>
      <trkpt lat="44.08945" lon="7.10438">
        <ele>624</ele>
        <time>2017-05-25T12:57:01.000Z</time>
      </trkpt>
      <trkpt lat="44.08946" lon="7.10439">
        <ele>624</ele>
        <time>2017-05-25T12:57:02.000Z</time>
      </trkpt>
      <trkpt lat="44.08947" lon="7.10438">
        <ele>624</ele>
        <time>2017-05-25T12:57:03.000Z</time>
      </trkpt>
      <trkpt lat="44.08954" lon="7.10437">
        <ele>625</ele>
        <time>2017-05-25T12:57:05.000Z</time>
      </trkpt>
      <trkpt lat="44.08956" lon="7.10441">
        <ele>625</ele>
        <time>2017-05-25T12:57:08.000Z</time>
      </trkpt>
      <trkpt lat="44.08952" lon="7.10447">
        <ele>624</ele>
        <time>2017-05-25T12:57:10.000Z</time>
      </trkpt>
      <trkpt lat="44.08947" lon="7.10453">
        <ele>622</ele>
        <time>2017-05-25T12:57:12.000Z</time>
      </trkpt>
      <trkpt lat="44.08947" lon="7.10455">
        <ele>622</ele>
        <time>2017-05-25T12:57:13.000Z</time>
      </trkpt>
      <trkpt lat="44.08949" lon="7.10456">
        <ele>622</ele>
        <time>2017-05-25T12:57:15.000Z</time>
      </trkpt>
      <trkpt lat="44.08954" lon="7.10454">
        <ele>623</ele>
        <time>2017-05-25T12:57:17.000Z</time>
      </trkpt>
      <trkpt lat="44.08957" lon="7.10451">
        <ele>624</ele>
        <time>2017-05-25T12:57:18.000Z</time>
      </trkpt>
      <trkpt lat="44.0896" lon="7.10449">
        <ele>625</ele>
        <time>2017-05-25T12:57:19.000Z</time>
      </trkpt>
      <trkpt lat="44.08965" lon="7.10448">
        <ele>626</ele>
        <time>2017-05-25T12:57:21.000Z</time>
      </trkpt>
      <trkpt lat="44.08966" lon="7.10452">
        <ele>625</ele>
        <time>2017-05-25T12:57:23.000Z</time>
      </trkpt>
      <trkpt lat="44.08965" lon="7.10455">
        <ele>625</ele>
        <time>2017-05-25T12:57:24.000Z</time>
      </trkpt>
      <trkpt lat="44.08964" lon="7.10458">
        <ele>624</ele>
        <time>2017-05-25T12:57:25.000Z</time>
      </trkpt>
      <trkpt lat="44.08962" lon="7.10465">
        <ele>623</ele>
        <time>2017-05-25T12:57:27.000Z</time>
      </trkpt>
      <trkpt lat="44.0896" lon="7.10471">
        <ele>622</ele>
        <time>2017-05-25T12:57:29.000Z</time>
      </trkpt>
      <trkpt lat="44.08961" lon="7.10472">
        <ele>622</ele>
        <time>2017-05-25T12:57:31.000Z</time>
      </trkpt>
      <trkpt lat="44.08963" lon="7.10471">
        <ele>622</ele>
        <time>2017-05-25T12:57:32.000Z</time>
      </trkpt>
      <trkpt lat="44.08966" lon="7.10469">
        <ele>623</ele>
        <time>2017-05-25T12:57:33.000Z</time>
      </trkpt>
      <trkpt lat="44.08974" lon="7.10466">
        <ele>624</ele>
        <time>2017-05-25T12:57:35.000Z</time>
      </trkpt>
      <trkpt lat="44.08982" lon="7.10466">
        <ele>625</ele>
        <time>2017-05-25T12:57:37.000Z</time>
      </trkpt>
      <trkpt lat="44.08989" lon="7.10466">
        <ele>626</ele>
        <time>2017-05-25T12:57:39.000Z</time>
      </trkpt>
      <trkpt lat="44.08988" lon="7.10469">
        <ele>625</ele>
        <time>2017-05-25T12:57:40.000Z</time>
      </trkpt>
      <trkpt lat="44.08986" lon="7.10471">
        <ele>625</ele>
        <time>2017-05-25T12:57:41.000Z</time>
      </trkpt>
      <trkpt lat="44.08985" lon="7.10474">
        <ele>624</ele>
        <time>2017-05-25T12:57:42.000Z</time>
      </trkpt>
      <trkpt lat="44.08983" lon="7.10477">
        <ele>624</ele>
        <time>2017-05-25T12:57:43.000Z</time>
      </trkpt>
      <trkpt lat="44.08981" lon="7.1048">
        <ele>623</ele>
        <time>2017-05-25T12:57:44.000Z</time>
      </trkpt>
      <trkpt lat="44.08979" lon="7.10484">
        <ele>623</ele>
        <time>2017-05-25T12:57:46.000Z</time>
      </trkpt>
      <trkpt lat="44.08979" lon="7.10484">
        <ele>623</ele>
        <time>2017-05-25T12:57:47.000Z</time>
      </trkpt>
      <trkpt lat="44.0898" lon="7.10484">
        <ele>623</ele>
        <time>2017-05-25T12:57:48.000Z</time>
      </trkpt>
      <trkpt lat="44.08983" lon="7.10483">
        <ele>623</ele>
        <time>2017-05-25T12:57:49.000Z</time>
      </trkpt>
      <trkpt lat="44.0899" lon="7.10482">
        <ele>623</ele>
        <time>2017-05-25T12:57:51.000Z</time>
      </trkpt>
      <trkpt lat="44.09008" lon="7.10482">
        <ele>624</ele>
        <time>2017-05-25T12:57:55.000Z</time>
      </trkpt>
      <trkpt lat="44.09016" lon="7.10482">
        <ele>624</ele>
        <time>2017-05-25T12:57:57.000Z</time>
      </trkpt>
      <trkpt lat="44.09023" lon="7.10479">
        <ele>624</ele>
        <time>2017-05-25T12:57:59.000Z</time>
      </trkpt>
      <trkpt lat="44.09038" lon="7.1048">
        <ele>622</ele>
        <time>2017-05-25T12:58:03.000Z</time>
      </trkpt>
      <trkpt lat="44.09043" lon="7.10482">
        <ele>621</ele>
        <time>2017-05-25T12:58:06.000Z</time>
      </trkpt>
      <trkpt lat="44.09043" lon="7.10483">
        <ele>621</ele>
        <time>2017-05-25T12:58:08.000Z</time>
      </trkpt>
      <trkpt lat="44.09044" lon="7.10484">
        <ele>621</ele>
        <time>2017-05-25T12:58:09.000Z</time>
      </trkpt>
      <trkpt lat="44.09044" lon="7.10485">
        <ele>620</ele>
        <time>2017-05-25T12:58:10.000Z</time>
      </trkpt>
      <trkpt lat="44.09044" lon="7.10484">
        <ele>621</ele>
        <time>2017-05-25T12:58:11.000Z</time>
      </trkpt>
      <trkpt lat="44.09045" lon="7.10486">
        <ele>620</ele>
        <time>2017-05-25T12:58:12.000Z</time>
      </trkpt>
      <trkpt lat="44.09051" lon="7.10487">
        <ele>619</ele>
        <time>2017-05-25T12:58:15.000Z</time>
      </trkpt>
      <trkpt lat="44.09053" lon="7.1049">
        <ele>618</ele>
        <time>2017-05-25T12:58:18.000Z</time>
      </trkpt>
      <trkpt lat="44.09051" lon="7.10491">
        <ele>618</ele>
        <time>2017-05-25T12:58:20.000Z</time>
      </trkpt>
      <trkpt lat="44.09047" lon="7.10494">
        <ele>619</ele>
        <time>2017-05-25T12:58:22.000Z</time>
      </trkpt>
      <trkpt lat="44.09045" lon="7.10496">
        <ele>619</ele>
        <time>2017-05-25T12:58:23.000Z</time>
      </trkpt>
      <trkpt lat="44.09039" lon="7.10504">
        <ele>596</ele>
        <time>2017-05-25T12:58:25.000Z</time>
      </trkpt>
      <trkpt lat="44.09034" lon="7.10511">
        <ele>596</ele>
        <time>2017-05-25T12:58:27.000Z</time>
      </trkpt>
      <trkpt lat="44.09032" lon="7.10514">
        <ele>596</ele>
        <time>2017-05-25T12:58:28.000Z</time>
      </trkpt>
      <trkpt lat="44.09031" lon="7.10516">
        <ele>596</ele>
        <time>2017-05-25T12:58:30.000Z</time>
      </trkpt>
      <trkpt lat="44.0903" lon="7.10519">
        <ele>596</ele>
        <time>2017-05-25T12:58:31.000Z</time>
      </trkpt>
      <trkpt lat="44.09035" lon="7.10519">
        <ele>594</ele>
        <time>2017-05-25T12:58:34.000Z</time>
      </trkpt>
      <trkpt lat="44.09039" lon="7.1052">
        <ele>594</ele>
        <time>2017-05-25T12:58:35.000Z</time>
      </trkpt>
      <trkpt lat="44.09049" lon="7.1052">
        <ele>592</ele>
        <time>2017-05-25T12:58:37.000Z</time>
      </trkpt>
      <trkpt lat="44.0906" lon="7.10517">
        <ele>592</ele>
        <time>2017-05-25T12:58:39.000Z</time>
      </trkpt>
      <trkpt lat="44.09066" lon="7.10516">
        <ele>592</ele>
        <time>2017-05-25T12:58:40.000Z</time>
      </trkpt>
      <trkpt lat="44.09071" lon="7.10516">
        <ele>592</ele>
        <time>2017-05-25T12:58:41.000Z</time>
      </trkpt>
      <trkpt lat="44.09074" lon="7.10517">
        <ele>592</ele>
        <time>2017-05-25T12:58:42.000Z</time>
      </trkpt>
      <trkpt lat="44.09075" lon="7.10518">
        <ele>592</ele>
        <time>2017-05-25T12:58:44.000Z</time>
      </trkpt>
      <trkpt lat="44.09071" lon="7.10519">
        <ele>591</ele>
        <time>2017-05-25T12:58:46.000Z</time>
      </trkpt>
      <trkpt lat="44.09069" lon="7.1052">
        <ele>591</ele>
        <time>2017-05-25T12:58:48.000Z</time>
      </trkpt>
      <trkpt lat="44.09063" lon="7.10527">
        <ele>589</ele>
        <time>2017-05-25T12:58:50.000Z</time>
      </trkpt>
      <trkpt lat="44.09058" lon="7.10532">
        <ele>588</ele>
        <time>2017-05-25T12:58:51.000Z</time>
      </trkpt>
      <trkpt lat="44.09056" lon="7.10534">
        <ele>588</ele>
        <time>2017-05-25T12:58:52.000Z</time>
      </trkpt>
      <trkpt lat="44.09055" lon="7.10536">
        <ele>587</ele>
        <time>2017-05-25T12:58:53.000Z</time>
      </trkpt>
      <trkpt lat="44.09056" lon="7.10538">
        <ele>587</ele>
        <time>2017-05-25T12:58:55.000Z</time>
      </trkpt>
      <trkpt lat="44.09056" lon="7.10542">
        <ele>586</ele>
        <time>2017-05-25T12:58:57.000Z</time>
      </trkpt>
      <trkpt lat="44.09053" lon="7.10544">
        <ele>586</ele>
        <time>2017-05-25T12:58:58.000Z</time>
      </trkpt>
      <trkpt lat="44.09052" lon="7.10545">
        <ele>585</ele>
        <time>2017-05-25T12:58:59.000Z</time>
      </trkpt>
      <trkpt lat="44.0905" lon="7.10549">
        <ele>585</ele>
        <time>2017-05-25T12:59:02.000Z</time>
      </trkpt>
      <trkpt lat="44.09051" lon="7.10549">
        <ele>584</ele>
        <time>2017-05-25T12:59:03.000Z</time>
      </trkpt>
      <trkpt lat="44.09053" lon="7.10549">
        <ele>584</ele>
        <time>2017-05-25T12:59:04.000Z</time>
      </trkpt>
      <trkpt lat="44.09056" lon="7.10549">
        <ele>584</ele>
        <time>2017-05-25T12:59:05.000Z</time>
      </trkpt>
      <trkpt lat="44.0906" lon="7.1055">
        <ele>583</ele>
        <time>2017-05-25T12:59:06.000Z</time>
      </trkpt>
      <trkpt lat="44.09064" lon="7.10552">
        <ele>581</ele>
        <time>2017-05-25T12:59:07.000Z</time>
      </trkpt>
      <trkpt lat="44.09069" lon="7.10554">
        <ele>580</ele>
        <time>2017-05-25T12:59:08.000Z</time>
      </trkpt>
      <trkpt lat="44.09072" lon="7.10554">
        <ele>580</ele>
        <time>2017-05-25T12:59:09.000Z</time>
      </trkpt>
      <trkpt lat="44.09074" lon="7.10553">
        <ele>580</ele>
        <time>2017-05-25T12:59:11.000Z</time>
      </trkpt>
      <trkpt lat="44.09073" lon="7.10557">
        <ele>578</ele>
        <time>2017-05-25T12:59:14.000Z</time>
      </trkpt>
      <trkpt lat="44.09072" lon="7.1056">
        <ele>577</ele>
        <time>2017-05-25T12:59:15.000Z</time>
      </trkpt>
      <trkpt lat="44.0907" lon="7.10562">
        <ele>577</ele>
        <time>2017-05-25T12:59:17.000Z</time>
      </trkpt>
      <trkpt lat="44.09066" lon="7.10563">
        <ele>577</ele>
        <time>2017-05-25T12:59:19.000Z</time>
      </trkpt>
      <trkpt lat="44.09062" lon="7.10565">
        <ele>577</ele>
        <time>2017-05-25T12:59:21.000Z</time>
      </trkpt>
      <trkpt lat="44.09063" lon="7.10565">
        <ele>577</ele>
        <time>2017-05-25T12:59:22.000Z</time>
      </trkpt>
      <trkpt lat="44.09061" lon="7.10567">
        <ele>577</ele>
        <time>2017-05-25T12:59:23.000Z</time>
      </trkpt>
      <trkpt lat="44.09062" lon="7.10568">
        <ele>576</ele>
        <time>2017-05-25T12:59:24.000Z</time>
      </trkpt>
      <trkpt lat="44.09064" lon="7.10569">
        <ele>576</ele>
        <time>2017-05-25T12:59:25.000Z</time>
      </trkpt>
      <trkpt lat="44.09068" lon="7.10569">
        <ele>574</ele>
        <time>2017-05-25T12:59:27.000Z</time>
      </trkpt>
      <trkpt lat="44.0907" lon="7.10571">
        <ele>573</ele>
        <time>2017-05-25T12:59:29.000Z</time>
      </trkpt>
      <trkpt lat="44.09069" lon="7.10572">
        <ele>573</ele>
        <time>2017-05-25T12:59:30.000Z</time>
      </trkpt>
      <trkpt lat="44.09068" lon="7.10573">
        <ele>572</ele>
        <time>2017-05-25T12:59:31.000Z</time>
      </trkpt>
      <trkpt lat="44.0907" lon="7.10575">
        <ele>571</ele>
        <time>2017-05-25T12:59:33.000Z</time>
      </trkpt>
      <trkpt lat="44.0907" lon="7.10574">
        <ele>571</ele>
        <time>2017-05-25T12:59:34.000Z</time>
      </trkpt>
      <trkpt lat="44.09072" lon="7.10573">
        <ele>571</ele>
        <time>2017-05-25T12:59:35.000Z</time>
      </trkpt>
      <trkpt lat="44.0908" lon="7.10572">
        <ele>568</ele>
        <time>2017-05-25T12:59:37.000Z</time>
      </trkpt>
      <trkpt lat="44.09088" lon="7.10572">
        <ele>560</ele>
        <time>2017-05-25T12:59:39.000Z</time>
      </trkpt>
      <trkpt lat="44.09095" lon="7.1057">
        <ele>561</ele>
        <time>2017-05-25T12:59:41.000Z</time>
      </trkpt>
      <trkpt lat="44.09097" lon="7.10569">
        <ele>561</ele>
        <time>2017-05-25T12:59:42.000Z</time>
      </trkpt>
      <trkpt lat="44.09099" lon="7.10569">
        <ele>561</ele>
        <time>2017-05-25T12:59:43.000Z</time>
      </trkpt>
      <trkpt lat="44.09108" lon="7.1057">
        <ele>561</ele>
        <time>2017-05-25T12:59:45.000Z</time>
      </trkpt>
      <trkpt lat="44.09115" lon="7.1057">
        <ele>560</ele>
        <time>2017-05-25T12:59:47.000Z</time>
      </trkpt>
      <trkpt lat="44.09117" lon="7.10571">
        <ele>560</ele>
        <time>2017-05-25T12:59:48.000Z</time>
      </trkpt>
      <trkpt lat="44.0912" lon="7.10572">
        <ele>559</ele>
        <time>2017-05-25T12:59:49.000Z</time>
      </trkpt>
      <trkpt lat="44.0912" lon="7.10573">
        <ele>559</ele>
        <time>2017-05-25T12:59:50.000Z</time>
      </trkpt>
      <trkpt lat="44.0912" lon="7.10572">
        <ele>559</ele>
        <time>2017-05-25T12:59:51.000Z</time>
      </trkpt>
      <trkpt lat="44.09119" lon="7.10574">
        <ele>559</ele>
        <time>2017-05-25T12:59:53.000Z</time>
      </trkpt>
      <trkpt lat="44.09122" lon="7.10577">
        <ele>558</ele>
        <time>2017-05-25T12:59:57.000Z</time>
      </trkpt>
      <trkpt lat="44.09124" lon="7.10577">
        <ele>558</ele>
        <time>2017-05-25T12:59:58.000Z</time>
      </trkpt>
      <trkpt lat="44.09127" lon="7.10578">
        <ele>557</ele>
        <time>2017-05-25T12:59:59.000Z</time>
      </trkpt>
      <trkpt lat="44.09126" lon="7.10581">
        <ele>557</ele>
        <time>2017-05-25T13:00:01.000Z</time>
      </trkpt>
      <trkpt lat="44.08933" lon="7.10617">
        <ele>548</ele>
        <time>2017-05-25T13:01:25.000Z</time>
      </trkpt>
      <trkpt lat="44.0893" lon="7.1062">
        <ele>548</ele>
        <time>2017-05-25T13:01:27.000Z</time>
      </trkpt>
      <trkpt lat="44.08931" lon="7.10623">
        <ele>547</ele>
        <time>2017-05-25T13:01:28.000Z</time>
      </trkpt>
      <trkpt lat="44.08927" lon="7.10632">
        <ele>543</ele>
        <time>2017-05-25T13:01:30.000Z</time>
      </trkpt>
      <trkpt lat="44.08924" lon="7.10644">
        <ele>539</ele>
        <time>2017-05-25T13:01:32.000Z</time>
      </trkpt>
      <trkpt lat="44.08921" lon="7.10654">
        <ele>533</ele>
        <time>2017-05-25T13:01:34.000Z</time>
      </trkpt>
      <trkpt lat="44.08911" lon="7.10676">
        <ele>524</ele>
        <time>2017-05-25T13:01:40.000Z</time>
      </trkpt>
      <trkpt lat="44.08899" lon="7.10686">
        <ele>524</ele>
        <time>2017-05-25T13:01:45.000Z</time>
      </trkpt>
      <trkpt lat="44.08891" lon="7.10673">
        <ele>523</ele>
        <time>2017-05-25T13:01:48.000Z</time>
      </trkpt>
      <trkpt lat="44.08879" lon="7.10661">
        <ele>524</ele>
        <time>2017-05-25T13:01:51.000Z</time>
      </trkpt>
      <trkpt lat="44.08874" lon="7.10657">
        <ele>524</ele>
        <time>2017-05-25T13:01:52.000Z</time>
      </trkpt>
      <trkpt lat="44.08869" lon="7.10652">
        <ele>523</ele>
        <time>2017-05-25T13:01:53.000Z</time>
      </trkpt>
      <trkpt lat="44.08863" lon="7.10648">
        <ele>522</ele>
        <time>2017-05-25T13:01:54.000Z</time>
      </trkpt>
      <trkpt lat="44.08853" lon="7.10642">
        <ele>522</ele>
        <time>2017-05-25T13:01:56.000Z</time>
      </trkpt>
      <trkpt lat="44.08848" lon="7.10638">
        <ele>522</ele>
        <time>2017-05-25T13:01:57.000Z</time>
      </trkpt>
      <trkpt lat="44.08842" lon="7.10632">
        <ele>522</ele>
        <time>2017-05-25T13:01:59.000Z</time>
      </trkpt>
      <trkpt lat="44.08838" lon="7.10624">
        <ele>523</ele>
        <time>2017-05-25T13:02:01.000Z</time>
      </trkpt>
      <trkpt lat="44.08836" lon="7.10618">
        <ele>523</ele>
        <time>2017-05-25T13:02:03.000Z</time>
      </trkpt>
      <trkpt lat="44.08836" lon="7.10617">
        <ele>524</ele>
        <time>2017-05-25T13:02:04.000Z</time>
      </trkpt>
      <trkpt lat="44.08837" lon="7.10617">
        <ele>524</ele>
        <time>2017-05-25T13:02:05.000Z</time>
      </trkpt>
      <trkpt lat="44.0884" lon="7.10621">
        <ele>523</ele>
        <time>2017-05-25T13:02:09.000Z</time>
      </trkpt>
      <trkpt lat="44.0884" lon="7.10625">
        <ele>523</ele>
        <time>2017-05-25T13:02:11.000Z</time>
      </trkpt>
      <trkpt lat="44.08836" lon="7.10626">
        <ele>523</ele>
        <time>2017-05-25T13:02:15.000Z</time>
      </trkpt>
      <trkpt lat="44.08835" lon="7.10626">
        <ele>522</ele>
        <time>2017-05-25T13:02:17.000Z</time>
      </trkpt>
      <trkpt lat="44.08832" lon="7.10628">
        <ele>512</ele>
        <time>2017-05-25T13:02:21.000Z</time>
      </trkpt>
      <trkpt lat="44.08828" lon="7.10628">
        <ele>512</ele>
        <time>2017-05-25T13:02:25.000Z</time>
      </trkpt>
      <trkpt lat="44.08826" lon="7.10628">
        <ele>512</ele>
        <time>2017-05-25T13:02:32.000Z</time>
      </trkpt>
      <trkpt lat="44.08824" lon="7.10628">
        <ele>512</ele>
        <time>2017-05-25T13:02:41.000Z</time>
      </trkpt>
      <trkpt lat="44.08822" lon="7.10629">
        <ele>512</ele>
        <time>2017-05-25T13:02:51.000Z</time>
      </trkpt>
      <trkpt lat="44.08819" lon="7.1063">
        <ele>512</ele>
        <time>2017-05-25T13:02:57.000Z</time>
      </trkpt>
      <trkpt lat="44.08819" lon="7.10629">
        <ele>512</ele>
        <time>2017-05-25T13:03:03.000Z</time>
      </trkpt>
      <trkpt lat="44.08817" lon="7.10628">
        <ele>512</ele>
        <time>2017-05-25T13:03:15.000Z</time>
      </trkpt>
      <trkpt lat="44.08815" lon="7.10629">
        <ele>512</ele>
        <time>2017-05-25T13:03:27.000Z</time>
      </trkpt>
      <trkpt lat="44.08814" lon="7.10632">
        <ele>512</ele>
        <time>2017-05-25T13:03:39.000Z</time>
      </trkpt>
      <trkpt lat="44.08814" lon="7.10634">
        <ele>511</ele>
        <time>2017-05-25T13:03:46.000Z</time>
      </trkpt>
      <trkpt lat="44.08814" lon="7.10635">
        <ele>511</ele>
        <time>2017-05-25T13:03:48.000Z</time>
      </trkpt>
      <trkpt lat="44.08816" lon="7.10634">
        <ele>511</ele>
        <time>2017-05-25T13:03:52.000Z</time>
      </trkpt>
      <trkpt lat="44.08815" lon="7.10634">
        <ele>511</ele>
        <time>2017-05-25T13:03:53.000Z</time>
      </trkpt>
      <trkpt lat="44.08817" lon="7.10634">
        <ele>511</ele>
        <time>2017-05-25T13:03:59.000Z</time>
      </trkpt>
      <trkpt lat="44.08815" lon="7.10628">
        <ele>512</ele>
        <time>2017-05-25T13:04:13.000Z</time>
      </trkpt>
      <trkpt lat="44.08816" lon="7.10631">
        <ele>512</ele>
        <time>2017-05-25T13:04:22.000Z</time>
      </trkpt>
      <trkpt lat="44.08817" lon="7.10633">
        <ele>512</ele>
        <time>2017-05-25T13:04:27.000Z</time>
      </trkpt>
      <trkpt lat="44.08817" lon="7.10632">
        <ele>512</ele>
        <time>2017-05-25T13:04:31.000Z</time>
      </trkpt>
      <trkpt lat="44.08816" lon="7.10631">
        <ele>512</ele>
        <time>2017-05-25T13:04:32.000Z</time>
      </trkpt>
      <trkpt lat="44.087" lon="7.10678">
        <ele>551</ele>
        <time>2017-05-25T13:42:41.000Z</time>
      </trkpt>
      <trkpt lat="44.08701" lon="7.10677">
        <ele>551</ele>
        <time>2017-05-25T13:42:44.000Z</time>
      </trkpt>
      <trkpt lat="44.08702" lon="7.10676">
        <ele>550</ele>
        <time>2017-05-25T13:42:53.000Z</time>
      </trkpt>
      <trkpt lat="44.08704" lon="7.10677">
        <ele>550</ele>
        <time>2017-05-25T13:42:59.000Z</time>
      </trkpt>
      <trkpt lat="44.08706" lon="7.10677">
        <ele>549</ele>
        <time>2017-05-25T13:43:00.000Z</time>
      </trkpt>
      <trkpt lat="44.08707" lon="7.10677">
        <ele>549</ele>
        <time>2017-05-25T13:43:05.000Z</time>
      </trkpt>
      <trkpt lat="44.08707" lon="7.10676">
        <ele>549</ele>
        <time>2017-05-25T13:43:12.000Z</time>
      </trkpt>
      <trkpt lat="44.08707" lon="7.10675">
        <ele>549</ele>
        <time>2017-05-25T13:43:19.000Z</time>
      </trkpt>
      <trkpt lat="44.08707" lon="7.10675">
        <ele>549</ele>
        <time>2017-05-25T13:43:25.000Z</time>
      </trkpt>
      <trkpt lat="44.08706" lon="7.10674">
        <ele>549</ele>
        <time>2017-05-25T13:43:32.000Z</time>
      </trkpt>
      <trkpt lat="44.08707" lon="7.10674">
        <ele>549</ele>
        <time>2017-05-25T13:43:44.000Z</time>
      </trkpt>
      <trkpt lat="44.08706" lon="7.10673">
        <ele>549</ele>
        <time>2017-05-25T13:43:52.000Z</time>
      </trkpt>
      <trkpt lat="44.08705" lon="7.10672">
        <ele>549</ele>
        <time>2017-05-25T13:43:53.000Z</time>
      </trkpt>
      <trkpt lat="44.08705" lon="7.10671">
        <ele>549</ele>
        <time>2017-05-25T13:43:54.000Z</time>
      </trkpt>
      <trkpt lat="44.08705" lon="7.10672">
        <ele>549</ele>
        <time>2017-05-25T13:43:57.000Z</time>
      </trkpt>
      <trkpt lat="44.08706" lon="7.10672">
        <ele>549</ele>
        <time>2017-05-25T13:44:04.000Z</time>
      </trkpt>
      <trkpt lat="44.08707" lon="7.10671">
        <ele>548</ele>
        <time>2017-05-25T13:44:14.000Z</time>
      </trkpt>
      <trkpt lat="44.08707" lon="7.10671">
        <ele>548</ele>
        <time>2017-05-25T13:44:21.000Z</time>
      </trkpt>
      <trkpt lat="44.08705" lon="7.10671">
        <ele>549</ele>
        <time>2017-05-25T13:44:24.000Z</time>
      </trkpt>
      <trkpt lat="44.08702" lon="7.1067">
        <ele>550</ele>
        <time>2017-05-25T13:44:27.000Z</time>
      </trkpt>
      <trkpt lat="44.087" lon="7.10669">
        <ele>550</ele>
        <time>2017-05-25T13:44:32.000Z</time>
      </trkpt>
      <trkpt lat="44.08701" lon="7.10669">
        <ele>550</ele>
        <time>2017-05-25T13:44:39.000Z</time>
      </trkpt>
      <trkpt lat="44.08705" lon="7.10669">
        <ele>549</ele>
        <time>2017-05-25T13:44:55.000Z</time>
      </trkpt>
      <trkpt lat="44.08705" lon="7.10666">
        <ele>526</ele>
        <time>2017-05-25T13:45:08.000Z</time>
      </trkpt>
      <trkpt lat="44.08704" lon="7.10661">
        <ele>526</ele>
        <time>2017-05-25T13:45:21.000Z</time>
      </trkpt>
      <trkpt lat="44.08705" lon="7.10663">
        <ele>526</ele>
        <time>2017-05-25T13:45:32.000Z</time>
      </trkpt>
      <trkpt lat="44.08706" lon="7.10664">
        <ele>526</ele>
        <time>2017-05-25T13:45:39.000Z</time>
      </trkpt>
      <trkpt lat="44.08707" lon="7.10665">
        <ele>526</ele>
        <time>2017-05-25T13:45:54.000Z</time>
      </trkpt>
      <trkpt lat="44.08707" lon="7.10665">
        <ele>526</ele>
        <time>2017-05-25T13:46:05.000Z</time>
      </trkpt>
      <trkpt lat="44.08708" lon="7.10666">
        <ele>525</ele>
        <time>2017-05-25T13:46:17.000Z</time>
      </trkpt>
      <trkpt lat="44.08709" lon="7.10668">
        <ele>547</ele>
        <time>2017-05-25T13:46:24.000Z</time>
      </trkpt>
      <trkpt lat="44.0871" lon="7.10669">
        <ele>547</ele>
        <time>2017-05-25T13:46:31.000Z</time>
      </trkpt>
      <trkpt lat="44.08711" lon="7.10671">
        <ele>547</ele>
        <time>2017-05-25T13:46:43.000Z</time>
      </trkpt>
      <trkpt lat="44.08712" lon="7.10671">
        <ele>547</ele>
        <time>2017-05-25T13:46:51.000Z</time>
      </trkpt>
      <trkpt lat="44.08713" lon="7.10673">
        <ele>547</ele>
        <time>2017-05-25T13:46:56.000Z</time>
      </trkpt>
      <trkpt lat="44.08715" lon="7.10674">
        <ele>546</ele>
        <time>2017-05-25T13:47:08.000Z</time>
      </trkpt>
      <trkpt lat="44.08715" lon="7.10674">
        <ele>546</ele>
        <time>2017-05-25T13:47:17.000Z</time>
      </trkpt>
      <trkpt lat="44.08717" lon="7.10675">
        <ele>546</ele>
        <time>2017-05-25T13:47:23.000Z</time>
      </trkpt>
      <trkpt lat="44.08717" lon="7.10676">
        <ele>546</ele>
        <time>2017-05-25T13:47:31.000Z</time>
      </trkpt>
      <trkpt lat="44.08717" lon="7.10677">
        <ele>546</ele>
        <time>2017-05-25T13:47:38.000Z</time>
      </trkpt>
      <trkpt lat="44.08715" lon="7.10678">
        <ele>547</ele>
        <time>2017-05-25T13:47:47.000Z</time>
      </trkpt>
      <trkpt lat="44.08715" lon="7.10677">
        <ele>547</ele>
        <time>2017-05-25T13:47:48.000Z</time>
      </trkpt>
      <trkpt lat="44.08714" lon="7.10678">
        <ele>547</ele>
        <time>2017-05-25T13:47:53.000Z</time>
      </trkpt>
      <trkpt lat="44.08714" lon="7.10678">
        <ele>547</ele>
        <time>2017-05-25T13:47:59.000Z</time>
      </trkpt>
      <trkpt lat="44.08715" lon="7.10679">
        <ele>547</ele>
        <time>2017-05-25T13:48:04.000Z</time>
      </trkpt>
      <trkpt lat="44.08715" lon="7.10679">
        <ele>547</ele>
        <time>2017-05-25T13:48:13.000Z</time>
      </trkpt>
      <trkpt lat="44.08715" lon="7.10679">
        <ele>547</ele>
        <time>2017-05-25T13:48:14.000Z</time>
      </trkpt>
      <trkpt lat="44.08715" lon="7.10679">
        <ele>547</ele>
        <time>2017-05-25T13:48:23.000Z</time>
      </trkpt>
      <trkpt lat="44.08716" lon="7.10678">
        <ele>546</ele>
        <time>2017-05-25T13:48:31.000Z</time>
      </trkpt>
      <trkpt lat="44.08716" lon="7.10678">
        <ele>546</ele>
        <time>2017-05-25T13:48:38.000Z</time>
      </trkpt>
      <trkpt lat="44.08716" lon="7.10678">
        <ele>546</ele>
        <time>2017-05-25T13:48:45.000Z</time>
      </trkpt>
      <trkpt lat="44.08716" lon="7.10682">
        <ele>547</ele>
        <time>2017-05-25T13:48:55.000Z</time>
      </trkpt>
      <trkpt lat="44.08717" lon="7.10684">
        <ele>547</ele>
        <time>2017-05-25T13:49:03.000Z</time>
      </trkpt>
      <trkpt lat="44.08717" lon="7.10684">
        <ele>547</ele>
        <time>2017-05-25T13:49:07.000Z</time>
      </trkpt>
      <trkpt lat="44.08717" lon="7.10685">
        <ele>547</ele>
        <time>2017-05-25T13:49:09.000Z</time>
      </trkpt>
      <trkpt lat="44.08716" lon="7.10685">
        <ele>548</ele>
        <time>2017-05-25T13:49:24.000Z</time>
      </trkpt>
      <trkpt lat="44.08716" lon="7.10686">
        <ele>548</ele>
        <time>2017-05-25T13:49:30.000Z</time>
      </trkpt>
      <trkpt lat="44.08716" lon="7.10687">
        <ele>548</ele>
        <time>2017-05-25T13:49:36.000Z</time>
      </trkpt>
      <trkpt lat="44.08715" lon="7.10687">
        <ele>549</ele>
        <time>2017-05-25T13:49:45.000Z</time>
      </trkpt>
      <trkpt lat="44.08715" lon="7.10688">
        <ele>549</ele>
        <time>2017-05-25T13:49:52.000Z</time>
      </trkpt>
      <trkpt lat="44.08715" lon="7.10688">
        <ele>549</ele>
        <time>2017-05-25T13:50:01.000Z</time>
      </trkpt>
      <trkpt lat="44.08716" lon="7.10688">
        <ele>549</ele>
        <time>2017-05-25T13:50:08.000Z</time>
      </trkpt>
      <trkpt lat="44.08716" lon="7.10688">
        <ele>549</ele>
        <time>2017-05-25T13:50:09.000Z</time>
      </trkpt>
      <trkpt lat="44.08716" lon="7.10689">
        <ele>549</ele>
        <time>2017-05-25T13:50:15.000Z</time>
      </trkpt>
      <trkpt lat="44.08716" lon="7.1069">
        <ele>549</ele>
        <time>2017-05-25T13:50:29.000Z</time>
      </trkpt>
      <trkpt lat="44.08716" lon="7.1069">
        <ele>549</ele>
        <time>2017-05-25T13:50:30.000Z</time>
      </trkpt>
      <trkpt lat="44.08717" lon="7.10692">
        <ele>549</ele>
        <time>2017-05-25T13:50:45.000Z</time>
      </trkpt>
      <trkpt lat="44.08717" lon="7.10692">
        <ele>549</ele>
        <time>2017-05-25T13:50:56.000Z</time>
      </trkpt>
      <trkpt lat="44.08716" lon="7.10692">
        <ele>550</ele>
        <time>2017-05-25T13:50:58.000Z</time>
      </trkpt>
      <trkpt lat="44.08714" lon="7.10691">
        <ele>550</ele>
        <time>2017-05-25T13:51:01.000Z</time>
      </trkpt>
      <trkpt lat="44.08714" lon="7.1069">
        <ele>549</ele>
        <time>2017-05-25T13:51:05.000Z</time>
      </trkpt>
      <trkpt lat="44.08715" lon="7.1069">
        <ele>549</ele>
        <time>2017-05-25T13:51:17.000Z</time>
      </trkpt>
      <trkpt lat="44.08709" lon="7.10688">
        <ele>550</ele>
        <time>2017-05-25T13:51:22.000Z</time>
      </trkpt>
      <trkpt lat="44.08707" lon="7.10688">
        <ele>551</ele>
        <time>2017-05-25T13:51:23.000Z</time>
      </trkpt>
      <trkpt lat="44.08704" lon="7.10691">
        <ele>552</ele>
        <time>2017-05-25T13:51:25.000Z</time>
      </trkpt>
      <trkpt lat="44.08706" lon="7.1069">
        <ele>552</ele>
        <time>2017-05-25T13:51:28.000Z</time>
      </trkpt>
      <trkpt lat="44.08708" lon="7.10688">
        <ele>551</ele>
        <time>2017-05-25T13:51:33.000Z</time>
      </trkpt>
      <trkpt lat="44.08709" lon="7.10691">
        <ele>551</ele>
        <time>2017-05-25T13:51:34.000Z</time>
      </trkpt>
      <trkpt lat="44.08713" lon="7.10693">
        <ele>551</ele>
        <time>2017-05-25T13:51:36.000Z</time>
      </trkpt>
      <trkpt lat="44.08726" lon="7.10699">
        <ele>549</ele>
        <time>2017-05-25T13:51:39.000Z</time>
      </trkpt>
      <trkpt lat="44.08737" lon="7.10706">
        <ele>548</ele>
        <time>2017-05-25T13:51:41.000Z</time>
      </trkpt>
      <trkpt lat="44.08744" lon="7.10708">
        <ele>549</ele>
        <time>2017-05-25T13:51:42.000Z</time>
      </trkpt>
      <trkpt lat="44.08753" lon="7.10714">
        <ele>533</ele>
        <time>2017-05-25T13:51:44.000Z</time>
      </trkpt>
      <trkpt lat="44.08758" lon="7.10719">
        <ele>534</ele>
        <time>2017-05-25T13:51:46.000Z</time>
      </trkpt>
      <trkpt lat="44.08761" lon="7.10725">
        <ele>536</ele>
        <time>2017-05-25T13:51:49.000Z</time>
      </trkpt>
      <trkpt lat="44.08761" lon="7.10726">
        <ele>537</ele>
        <time>2017-05-25T13:51:50.000Z</time>
      </trkpt>
      <trkpt lat="44.08749" lon="7.1073">
        <ele>553</ele>
        <time>2017-05-25T13:51:54.000Z</time>
      </trkpt>
      <trkpt lat="44.08744" lon="7.10729">
        <ele>553</ele>
        <time>2017-05-25T13:51:55.000Z</time>
      </trkpt>
      <trkpt lat="44.08738" lon="7.10728">
        <ele>554</ele>
        <time>2017-05-25T13:51:56.000Z</time>
      </trkpt>
      <trkpt lat="44.08713" lon="7.1072">
        <ele>557</ele>
        <time>2017-05-25T13:51:59.000Z</time>
      </trkpt>
      <trkpt lat="44.08704" lon="7.10716">
        <ele>558</ele>
        <time>2017-05-25T13:52:00.000Z</time>
      </trkpt>
      <trkpt lat="44.08675" lon="7.10699">
        <ele>558</ele>
        <time>2017-05-25T13:52:03.000Z</time>
      </trkpt>
      <trkpt lat="44.08659" lon="7.10688">
        <ele>566</ele>
        <time>2017-05-25T13:52:05.000Z</time>
      </trkpt>
      <trkpt lat="44.08649" lon="7.10682">
        <ele>565</ele>
        <time>2017-05-25T13:52:06.000Z</time>
      </trkpt>
      <trkpt lat="44.08642" lon="7.10676">
        <ele>565</ele>
        <time>2017-05-25T13:52:07.000Z</time>
      </trkpt>
      <trkpt lat="44.08636" lon="7.10669">
        <ele>564</ele>
        <time>2017-05-25T13:52:08.000Z</time>
      </trkpt>
      <trkpt lat="44.08576" lon="7.10615">
        <ele>513</ele>
        <time>2017-05-25T13:52:18.000Z</time>
      </trkpt>
      <trkpt lat="44.08545" lon="7.10614">
        <ele>512</ele>
        <time>2017-05-25T13:52:22.000Z</time>
      </trkpt>
      <trkpt lat="44.08538" lon="7.10616">
        <ele>512</ele>
        <time>2017-05-25T13:52:23.000Z</time>
      </trkpt>
      <trkpt lat="44.08528" lon="7.10617">
        <ele>511</ele>
        <time>2017-05-25T13:52:25.000Z</time>
      </trkpt>
      <trkpt lat="44.08524" lon="7.10618">
        <ele>511</ele>
        <time>2017-05-25T13:52:26.000Z</time>
      </trkpt>
      <trkpt lat="44.08514" lon="7.10621">
        <ele>511</ele>
        <time>2017-05-25T13:52:29.000Z</time>
      </trkpt>
      <trkpt lat="44.08511" lon="7.10623">
        <ele>511</ele>
        <time>2017-05-25T13:52:30.000Z</time>
      </trkpt>
      <trkpt lat="44.08505" lon="7.10624">
        <ele>512</ele>
        <time>2017-05-25T13:52:31.000Z</time>
      </trkpt>
      <trkpt lat="44.08491" lon="7.10627">
        <ele>517</ele>
        <time>2017-05-25T13:52:33.000Z</time>
      </trkpt>
      <trkpt lat="44.08482" lon="7.1063">
        <ele>518</ele>
        <time>2017-05-25T13:52:34.000Z</time>
      </trkpt>
      <trkpt lat="44.08462" lon="7.10636">
        <ele>522</ele>
        <time>2017-05-25T13:52:36.000Z</time>
      </trkpt>
      <trkpt lat="44.08415" lon="7.10641">
        <ele>534</ele>
        <time>2017-05-25T13:52:40.000Z</time>
      </trkpt>
      <trkpt lat="44.08401" lon="7.10641">
        <ele>532</ele>
        <time>2017-05-25T13:52:41.000Z</time>
      </trkpt>
      <trkpt lat="44.08388" lon="7.1064">
        <ele>530</ele>
        <time>2017-05-25T13:52:42.000Z</time>
      </trkpt>
      <trkpt lat="44.08364" lon="7.10638">
        <ele>526</ele>
        <time>2017-05-25T13:52:44.000Z</time>
      </trkpt>
      <trkpt lat="44.08276" lon="7.10495">
        <ele>486</ele>
        <time>2017-05-25T13:52:58.000Z</time>
      </trkpt>
      <trkpt lat="44.08272" lon="7.10499">
        <ele>486</ele>
        <time>2017-05-25T13:52:59.000Z</time>
      </trkpt>
      <trkpt lat="44.08268" lon="7.10501">
        <ele>488</ele>
        <time>2017-05-25T13:53:00.000Z</time>
      </trkpt>
      <trkpt lat="44.08262" lon="7.10506">
        <ele>487</ele>
        <time>2017-05-25T13:53:01.000Z</time>
      </trkpt>
      <trkpt lat="44.08252" lon="7.10518">
        <ele>488</ele>
        <time>2017-05-25T13:53:03.000Z</time>
      </trkpt>
      <trkpt lat="44.08244" lon="7.10528">
        <ele>486</ele>
        <time>2017-05-25T13:53:06.000Z</time>
      </trkpt>
      <trkpt lat="44.0824" lon="7.10532">
        <ele>487</ele>
        <time>2017-05-25T13:53:07.000Z</time>
      </trkpt>
      <trkpt lat="44.08233" lon="7.10539">
        <ele>487</ele>
        <time>2017-05-25T13:53:10.000Z</time>
      </trkpt>
      <trkpt lat="44.08233" lon="7.1054">
        <ele>487</ele>
        <time>2017-05-25T13:53:11.000Z</time>
      </trkpt>
      <trkpt lat="44.08234" lon="7.10548">
        <ele>488</ele>
        <time>2017-05-25T13:53:15.000Z</time>
      </trkpt>
      <trkpt lat="44.08237" lon="7.10553">
        <ele>488</ele>
        <time>2017-05-25T13:53:17.000Z</time>
      </trkpt>
      <trkpt lat="44.08239" lon="7.10555">
        <ele>489</ele>
        <time>2017-05-25T13:53:18.000Z</time>
      </trkpt>
      <trkpt lat="44.0824" lon="7.1056">
        <ele>489</ele>
        <time>2017-05-25T13:53:20.000Z</time>
      </trkpt>
      <trkpt lat="44.0824" lon="7.10562">
        <ele>489</ele>
        <time>2017-05-25T13:53:21.000Z</time>
      </trkpt>
      <trkpt lat="44.08233" lon="7.10573">
        <ele>490</ele>
        <time>2017-05-25T13:53:26.000Z</time>
      </trkpt>
      <trkpt lat="44.08227" lon="7.10567">
        <ele>489</ele>
        <time>2017-05-25T13:53:30.000Z</time>
      </trkpt>
      <trkpt lat="44.08225" lon="7.10562">
        <ele>489</ele>
        <time>2017-05-25T13:53:33.000Z</time>
      </trkpt>
      <trkpt lat="44.08224" lon="7.10561">
        <ele>488</ele>
        <time>2017-05-25T13:53:36.000Z</time>
      </trkpt>
      <trkpt lat="44.08223" lon="7.10561">
        <ele>488</ele>
        <time>2017-05-25T13:53:42.000Z</time>
      </trkpt>
      <trkpt lat="44.08225" lon="7.10561">
        <ele>488</ele>
        <time>2017-05-25T13:53:47.000Z</time>
      </trkpt>
      <trkpt lat="44.08227" lon="7.10563">
        <ele>489</ele>
        <time>2017-05-25T13:53:53.000Z</time>
      </trkpt>
      <trkpt lat="44.0823" lon="7.10564">
        <ele>489</ele>
        <time>2017-05-25T13:54:01.000Z</time>
      </trkpt>
      <trkpt lat="44.08232" lon="7.10563">
        <ele>489</ele>
        <time>2017-05-25T13:54:04.000Z</time>
      </trkpt>
      <trkpt lat="44.08233" lon="7.1056">
        <ele>489</ele>
        <time>2017-05-25T13:54:08.000Z</time>
      </trkpt>
      <trkpt lat="44.08242" lon="7.10556">
        <ele>489</ele>
        <time>2017-05-25T13:54:19.000Z</time>
      </trkpt>
      <trkpt lat="44.08246" lon="7.10552">
        <ele>488</ele>
        <time>2017-05-25T13:54:28.000Z</time>
      </trkpt>
      <trkpt lat="44.08247" lon="7.10545">
        <ele>488</ele>
        <time>2017-05-25T13:54:32.000Z</time>
      </trkpt>
      <trkpt lat="44.08247" lon="7.1054">
        <ele>487</ele>
        <time>2017-05-25T13:54:34.000Z</time>
      </trkpt>
      <trkpt lat="44.08253" lon="7.10534">
        <ele>491</ele>
        <time>2017-05-25T13:54:39.000Z</time>
      </trkpt>
      <trkpt lat="44.08258" lon="7.10526">
        <ele>490</ele>
        <time>2017-05-25T13:54:43.000Z</time>
      </trkpt>
      <trkpt lat="44.08257" lon="7.10515">
        <ele>488</ele>
        <time>2017-05-25T13:54:49.000Z</time>
      </trkpt>
      <trkpt lat="44.08254" lon="7.10509">
        <ele>486</ele>
        <time>2017-05-25T13:54:53.000Z</time>
      </trkpt>
      <trkpt lat="44.08253" lon="7.10507">
        <ele>486</ele>
        <time>2017-05-25T13:54:54.000Z</time>
      </trkpt>
      <trkpt lat="44.0825" lon="7.10492">
        <ele>484</ele>
        <time>2017-05-25T13:55:00.000Z</time>
      </trkpt>
      <trkpt lat="44.08251" lon="7.10491">
        <ele>484</ele>
        <time>2017-05-25T13:55:01.000Z</time>
      </trkpt>
      <trkpt lat="44.08252" lon="7.10485">
        <ele>485</ele>
        <time>2017-05-25T13:55:03.000Z</time>
      </trkpt>
      <trkpt lat="44.08252" lon="7.10481">
        <ele>485</ele>
        <time>2017-05-25T13:55:04.000Z</time>
      </trkpt>
      <trkpt lat="44.08256" lon="7.10476">
        <ele>486</ele>
        <time>2017-05-25T13:55:06.000Z</time>
      </trkpt>
      <trkpt lat="44.08255" lon="7.10477">
        <ele>485</ele>
        <time>2017-05-25T13:55:07.000Z</time>
      </trkpt>
      <trkpt lat="44.08259" lon="7.10477">
        <ele>486</ele>
        <time>2017-05-25T13:55:11.000Z</time>
      </trkpt>
      <trkpt lat="44.0826" lon="7.10478">
        <ele>486</ele>
        <time>2017-05-25T13:55:18.000Z</time>
      </trkpt>
      <trkpt lat="44.08261" lon="7.10483">
        <ele>485</ele>
        <time>2017-05-25T13:55:21.000Z</time>
      </trkpt>
      <trkpt lat="44.08261" lon="7.10484">
        <ele>485</ele>
        <time>2017-05-25T13:55:22.000Z</time>
      </trkpt>
      <trkpt lat="44.08267" lon="7.10483">
        <ele>486</ele>
        <time>2017-05-25T13:55:27.000Z</time>
      </trkpt>
      <trkpt lat="44.08273" lon="7.10482">
        <ele>486</ele>
        <time>2017-05-25T13:55:36.000Z</time>
      </trkpt>
      <trkpt lat="44.0828" lon="7.10478">
        <ele>487</ele>
        <time>2017-05-25T13:55:45.000Z</time>
      </trkpt>
      <trkpt lat="44.0828" lon="7.1048">
        <ele>487</ele>
        <time>2017-05-25T13:55:50.000Z</time>
      </trkpt>
      <trkpt lat="44.08281" lon="7.10483">
        <ele>487</ele>
        <time>2017-05-25T13:55:52.000Z</time>
      </trkpt>
      <trkpt lat="44.08281" lon="7.10485">
        <ele>487</ele>
        <time>2017-05-25T13:55:54.000Z</time>
      </trkpt>
      <trkpt lat="44.08284" lon="7.10487">
        <ele>487</ele>
        <time>2017-05-25T13:55:57.000Z</time>
      </trkpt>
      <trkpt lat="44.08286" lon="7.10489">
        <ele>487</ele>
        <time>2017-05-25T13:55:59.000Z</time>
      </trkpt>
      <trkpt lat="44.0829" lon="7.10498">
        <ele>487</ele>
        <time>2017-05-25T13:56:05.000Z</time>
      </trkpt>
      <trkpt lat="44.0829" lon="7.105">
        <ele>487</ele>
        <time>2017-05-25T13:56:06.000Z</time>
      </trkpt>
      <trkpt lat="44.08291" lon="7.10503">
        <ele>491</ele>
        <time>2017-05-25T13:56:10.000Z</time>
      </trkpt>
      <trkpt lat="44.08293" lon="7.10505">
        <ele>492</ele>
        <time>2017-05-25T13:56:12.000Z</time>
      </trkpt>
      <trkpt lat="44.08296" lon="7.10508">
        <ele>492</ele>
        <time>2017-05-25T13:56:15.000Z</time>
      </trkpt>
      <trkpt lat="44.08298" lon="7.10509">
        <ele>492</ele>
        <time>2017-05-25T13:56:16.000Z</time>
      </trkpt>
      <trkpt lat="44.08306" lon="7.10513">
        <ele>493</ele>
        <time>2017-05-25T13:56:20.000Z</time>
      </trkpt>
      <trkpt lat="44.08318" lon="7.10519">
        <ele>493</ele>
        <time>2017-05-25T13:56:25.000Z</time>
      </trkpt>
      <trkpt lat="44.08318" lon="7.1052">
        <ele>494</ele>
        <time>2017-05-25T13:56:27.000Z</time>
      </trkpt>
      <trkpt lat="44.08317" lon="7.1052">
        <ele>494</ele>
        <time>2017-05-25T13:56:28.000Z</time>
      </trkpt>
      <trkpt lat="44.08317" lon="7.1052">
        <ele>494</ele>
        <time>2017-05-25T13:56:32.000Z</time>
      </trkpt>
      <trkpt lat="44.08322" lon="7.10521">
        <ele>494</ele>
        <time>2017-05-25T13:56:39.000Z</time>
      </trkpt>
      <trkpt lat="44.08324" lon="7.10523">
        <ele>494</ele>
        <time>2017-05-25T13:56:42.000Z</time>
      </trkpt>
      <trkpt lat="44.08326" lon="7.10525">
        <ele>494</ele>
        <time>2017-05-25T13:56:44.000Z</time>
      </trkpt>
      <trkpt lat="44.08334" lon="7.10528">
        <ele>498</ele>
        <time>2017-05-25T13:56:50.000Z</time>
      </trkpt>
      <trkpt lat="44.08336" lon="7.10526">
        <ele>498</ele>
        <time>2017-05-25T13:56:56.000Z</time>
      </trkpt>
      <trkpt lat="44.08337" lon="7.10527">
        <ele>498</ele>
        <time>2017-05-25T13:56:57.000Z</time>
      </trkpt>
      <trkpt lat="44.08341" lon="7.10527">
        <ele>498</ele>
        <time>2017-05-25T13:57:02.000Z</time>
      </trkpt>
      <trkpt lat="44.08341" lon="7.10528">
        <ele>498</ele>
        <time>2017-05-25T13:57:08.000Z</time>
      </trkpt>
      <trkpt lat="44.08338" lon="7.10525">
        <ele>498</ele>
        <time>2017-05-25T13:57:15.000Z</time>
      </trkpt>
      <trkpt lat="44.08341" lon="7.10522">
        <ele>498</ele>
        <time>2017-05-25T13:57:24.000Z</time>
      </trkpt>
      <trkpt lat="44.08341" lon="7.10523">
        <ele>498</ele>
        <time>2017-05-25T13:57:27.000Z</time>
      </trkpt>
      <trkpt lat="44.08341" lon="7.10522">
        <ele>498</ele>
        <time>2017-05-25T13:57:30.000Z</time>
      </trkpt>
      <trkpt lat="44.08343" lon="7.10521">
        <ele>498</ele>
        <time>2017-05-25T13:57:35.000Z</time>
      </trkpt>
      <trkpt lat="44.08342" lon="7.10519">
        <ele>497</ele>
        <time>2017-05-25T13:57:41.000Z</time>
      </trkpt>
      <trkpt lat="44.08343" lon="7.10519">
        <ele>497</ele>
        <time>2017-05-25T13:57:47.000Z</time>
      </trkpt>
      <trkpt lat="44.08344" lon="7.10519">
        <ele>497</ele>
        <time>2017-05-25T13:57:53.000Z</time>
      </trkpt>
      <trkpt lat="44.08346" lon="7.10521">
        <ele>498</ele>
        <time>2017-05-25T13:58:01.000Z</time>
      </trkpt>
      <trkpt lat="44.08349" lon="7.10524">
        <ele>498</ele>
        <time>2017-05-25T13:58:09.000Z</time>
      </trkpt>
      <trkpt lat="44.08349" lon="7.10525">
        <ele>498</ele>
        <time>2017-05-25T13:58:19.000Z</time>
      </trkpt>
      <trkpt lat="44.0835" lon="7.10525">
        <ele>498</ele>
        <time>2017-05-25T13:58:22.000Z</time>
      </trkpt>
      <trkpt lat="44.08351" lon="7.10526">
        <ele>498</ele>
        <time>2017-05-25T13:58:27.000Z</time>
      </trkpt>
      <trkpt lat="44.08351" lon="7.10527">
        <ele>499</ele>
        <time>2017-05-25T13:58:33.000Z</time>
      </trkpt>
      <trkpt lat="44.08352" lon="7.10528">
        <ele>499</ele>
        <time>2017-05-25T13:58:34.000Z</time>
      </trkpt>
      <trkpt lat="44.0835" lon="7.10526">
        <ele>498</ele>
        <time>2017-05-25T13:58:38.000Z</time>
      </trkpt>
      <trkpt lat="44.08346" lon="7.10522">
        <ele>498</ele>
        <time>2017-05-25T13:58:43.000Z</time>
      </trkpt>
      <trkpt lat="44.08343" lon="7.10522">
        <ele>498</ele>
        <time>2017-05-25T13:58:49.000Z</time>
      </trkpt>
      <trkpt lat="44.08344" lon="7.10522">
        <ele>498</ele>
        <time>2017-05-25T13:58:50.000Z</time>
      </trkpt>
      <trkpt lat="44.08343" lon="7.10522">
        <ele>498</ele>
        <time>2017-05-25T13:58:57.000Z</time>
      </trkpt>
      <trkpt lat="44.08344" lon="7.10519">
        <ele>497</ele>
        <time>2017-05-25T13:59:09.000Z</time>
      </trkpt>
      <trkpt lat="44.08342" lon="7.10519">
        <ele>497</ele>
        <time>2017-05-25T13:59:16.000Z</time>
      </trkpt>
      <trkpt lat="44.08341" lon="7.1052">
        <ele>497</ele>
        <time>2017-05-25T13:59:25.000Z</time>
      </trkpt>
      <trkpt lat="44.08337" lon="7.10517">
        <ele>497</ele>
        <time>2017-05-25T13:59:30.000Z</time>
      </trkpt>
      <trkpt lat="44.08337" lon="7.10516">
        <ele>497</ele>
        <time>2017-05-25T13:59:32.000Z</time>
      </trkpt>
      <trkpt lat="44.08336" lon="7.10517">
        <ele>497</ele>
        <time>2017-05-25T13:59:34.000Z</time>
      </trkpt>
      <trkpt lat="44.08328" lon="7.10522">
        <ele>494</ele>
        <time>2017-05-25T13:59:42.000Z</time>
      </trkpt>
      <trkpt lat="44.08315" lon="7.10524">
        <ele>494</ele>
        <time>2017-05-25T13:59:47.000Z</time>
      </trkpt>
      <trkpt lat="44.08306" lon="7.1053">
        <ele>494</ele>
        <time>2017-05-25T13:59:51.000Z</time>
      </trkpt>
      <trkpt lat="44.08301" lon="7.10534">
        <ele>494</ele>
        <time>2017-05-25T13:59:55.000Z</time>
      </trkpt>
      <trkpt lat="44.08302" lon="7.10536">
        <ele>494</ele>
        <time>2017-05-25T13:59:56.000Z</time>
      </trkpt>
      <trkpt lat="44.08304" lon="7.10539">
        <ele>494</ele>
        <time>2017-05-25T13:59:59.000Z</time>
      </trkpt>
      <trkpt lat="44.08306" lon="7.10541">
        <ele>494</ele>
        <time>2017-05-25T14:00:00.000Z</time>
      </trkpt>
      <trkpt lat="44.08307" lon="7.1054">
        <ele>494</ele>
        <time>2017-05-25T14:00:03.000Z</time>
      </trkpt>
      <trkpt lat="44.08344" lon="7.10533">
        <ele>499</ele>
        <time>2017-05-25T14:01:20.000Z</time>
      </trkpt>
      <trkpt lat="44.08341" lon="7.10532">
        <ele>499</ele>
        <time>2017-05-25T14:01:21.000Z</time>
      </trkpt>
      <trkpt lat="44.08346" lon="7.10535">
        <ele>499</ele>
        <time>2017-05-25T14:01:30.000Z</time>
      </trkpt>
      <trkpt lat="44.08346" lon="7.10535">
        <ele>499</ele>
        <time>2017-05-25T14:01:41.000Z</time>
      </trkpt>
      <trkpt lat="44.08344" lon="7.10534">
        <ele>499</ele>
        <time>2017-05-25T14:01:42.000Z</time>
      </trkpt>
      <trkpt lat="44.08341" lon="7.10532">
        <ele>499</ele>
        <time>2017-05-25T14:01:46.000Z</time>
      </trkpt>
      <trkpt lat="44.08335" lon="7.10529">
        <ele>498</ele>
        <time>2017-05-25T14:01:51.000Z</time>
      </trkpt>
      <trkpt lat="44.08335" lon="7.10528">
        <ele>498</ele>
        <time>2017-05-25T14:01:52.000Z</time>
      </trkpt>
      <trkpt lat="44.08334" lon="7.10528">
        <ele>498</ele>
        <time>2017-05-25T14:01:57.000Z</time>
      </trkpt>
      <trkpt lat="44.08338" lon="7.10528">
        <ele>498</ele>
        <time>2017-05-25T14:02:06.000Z</time>
      </trkpt>
      <trkpt lat="44.08341" lon="7.10528">
        <ele>498</ele>
        <time>2017-05-25T14:02:16.000Z</time>
      </trkpt>
      <trkpt lat="44.08341" lon="7.10529">
        <ele>498</ele>
        <time>2017-05-25T14:02:20.000Z</time>
      </trkpt>
      <trkpt lat="44.08341" lon="7.10529">
        <ele>498</ele>
        <time>2017-05-25T14:02:23.000Z</time>
      </trkpt>
      <trkpt lat="44.08343" lon="7.1053">
        <ele>499</ele>
        <time>2017-05-25T14:02:34.000Z</time>
      </trkpt>
      <trkpt lat="44.08345" lon="7.1053">
        <ele>499</ele>
        <time>2017-05-25T14:02:46.000Z</time>
      </trkpt>
      <trkpt lat="44.08345" lon="7.10531">
        <ele>499</ele>
        <time>2017-05-25T14:02:55.000Z</time>
      </trkpt>
      <trkpt lat="44.08346" lon="7.1053">
        <ele>499</ele>
        <time>2017-05-25T14:03:05.000Z</time>
      </trkpt>
      <trkpt lat="44.08345" lon="7.1053">
        <ele>499</ele>
        <time>2017-05-25T14:03:13.000Z</time>
      </trkpt>
      <trkpt lat="44.08343" lon="7.10528">
        <ele>498</ele>
        <time>2017-05-25T14:03:24.000Z</time>
      </trkpt>
      <trkpt lat="44.08343" lon="7.10529">
        <ele>499</ele>
        <time>2017-05-25T14:03:28.000Z</time>
      </trkpt>
      <trkpt lat="44.08344" lon="7.10529">
        <ele>499</ele>
        <time>2017-05-25T14:03:39.000Z</time>
      </trkpt>
      <trkpt lat="44.08343" lon="7.10528">
        <ele>498</ele>
        <time>2017-05-25T14:03:49.000Z</time>
      </trkpt>
      <trkpt lat="44.08342" lon="7.10528">
        <ele>498</ele>
        <time>2017-05-25T14:03:59.000Z</time>
      </trkpt>
      <trkpt lat="44.08344" lon="7.10528">
        <ele>499</ele>
        <time>2017-05-25T14:04:06.000Z</time>
      </trkpt>
      <trkpt lat="44.08346" lon="7.1053">
        <ele>499</ele>
        <time>2017-05-25T14:04:15.000Z</time>
      </trkpt>
      <trkpt lat="44.08348" lon="7.10532">
        <ele>499</ele>
        <time>2017-05-25T14:04:23.000Z</time>
      </trkpt>
      <trkpt lat="44.08347" lon="7.10531">
        <ele>499</ele>
        <time>2017-05-25T14:04:24.000Z</time>
      </trkpt>
      <trkpt lat="44.08347" lon="7.10531">
        <ele>499</ele>
        <time>2017-05-25T14:04:32.000Z</time>
      </trkpt>
      <trkpt lat="44.08349" lon="7.10533">
        <ele>499</ele>
        <time>2017-05-25T14:04:37.000Z</time>
      </trkpt>
      <trkpt lat="44.08352" lon="7.10534">
        <ele>499</ele>
        <time>2017-05-25T14:04:48.000Z</time>
      </trkpt>
      <trkpt lat="44.08354" lon="7.10534">
        <ele>499</ele>
        <time>2017-05-25T14:04:56.000Z</time>
      </trkpt>
      <trkpt lat="44.08355" lon="7.10534">
        <ele>499</ele>
        <time>2017-05-25T14:05:03.000Z</time>
      </trkpt>
      <trkpt lat="44.08359" lon="7.10537">
        <ele>500</ele>
        <time>2017-05-25T14:05:13.000Z</time>
      </trkpt>
      <trkpt lat="44.0836" lon="7.10538">
        <ele>500</ele>
        <time>2017-05-25T14:05:21.000Z</time>
      </trkpt>
      <trkpt lat="44.0836" lon="7.10539">
        <ele>500</ele>
        <time>2017-05-25T14:05:30.000Z</time>
      </trkpt>
      <trkpt lat="44.08361" lon="7.1054">
        <ele>500</ele>
        <time>2017-05-25T14:05:40.000Z</time>
      </trkpt>
      <trkpt lat="44.08361" lon="7.10541">
        <ele>500</ele>
        <time>2017-05-25T14:05:48.000Z</time>
      </trkpt>
      <trkpt lat="44.08362" lon="7.10542">
        <ele>500</ele>
        <time>2017-05-25T14:05:55.000Z</time>
      </trkpt>
      <trkpt lat="44.0836" lon="7.1054">
        <ele>500</ele>
        <time>2017-05-25T14:06:04.000Z</time>
      </trkpt>
      <trkpt lat="44.08359" lon="7.1054">
        <ele>500</ele>
        <time>2017-05-25T14:06:12.000Z</time>
      </trkpt>
      <trkpt lat="44.08359" lon="7.10539">
        <ele>500</ele>
        <time>2017-05-25T14:06:17.000Z</time>
      </trkpt>
      <trkpt lat="44.0836" lon="7.1054">
        <ele>500</ele>
        <time>2017-05-25T14:06:24.000Z</time>
      </trkpt>
      <trkpt lat="44.08361" lon="7.10541">
        <ele>500</ele>
        <time>2017-05-25T14:06:31.000Z</time>
      </trkpt>
      <trkpt lat="44.08359" lon="7.10539">
        <ele>500</ele>
        <time>2017-05-25T14:06:38.000Z</time>
      </trkpt>
      <trkpt lat="44.08357" lon="7.10538">
        <ele>500</ele>
        <time>2017-05-25T14:06:47.000Z</time>
      </trkpt>
      <trkpt lat="44.08362" lon="7.10542">
        <ele>500</ele>
        <time>2017-05-25T14:06:57.000Z</time>
      </trkpt>
      <trkpt lat="44.08361" lon="7.10543">
        <ele>500</ele>
        <time>2017-05-25T14:07:03.000Z</time>
      </trkpt>
      <trkpt lat="44.08362" lon="7.10543">
        <ele>500</ele>
        <time>2017-05-25T14:07:10.000Z</time>
      </trkpt>
      <trkpt lat="44.08361" lon="7.10543">
        <ele>500</ele>
        <time>2017-05-25T14:07:17.000Z</time>
      </trkpt>
      <trkpt lat="44.0836" lon="7.10542">
        <ele>500</ele>
        <time>2017-05-25T14:07:18.000Z</time>
      </trkpt>
      <trkpt lat="44.0836" lon="7.10541">
        <ele>500</ele>
        <time>2017-05-25T14:07:22.000Z</time>
      </trkpt>
      <trkpt lat="44.08358" lon="7.10539">
        <ele>500</ele>
        <time>2017-05-25T14:07:30.000Z</time>
      </trkpt>
      <trkpt lat="44.08357" lon="7.10537">
        <ele>500</ele>
        <time>2017-05-25T14:07:37.000Z</time>
      </trkpt>
      <trkpt lat="44.08357" lon="7.10537">
        <ele>500</ele>
        <time>2017-05-25T14:07:47.000Z</time>
      </trkpt>
      <trkpt lat="44.08358" lon="7.10538">
        <ele>500</ele>
        <time>2017-05-25T14:07:54.000Z</time>
      </trkpt>
      <trkpt lat="44.08361" lon="7.1054">
        <ele>500</ele>
        <time>2017-05-25T14:08:00.000Z</time>
      </trkpt>
      <trkpt lat="44.0836" lon="7.1054">
        <ele>500</ele>
        <time>2017-05-25T14:08:08.000Z</time>
      </trkpt>
      <trkpt lat="44.08361" lon="7.10542">
        <ele>500</ele>
        <time>2017-05-25T14:08:18.000Z</time>
      </trkpt>
      <trkpt lat="44.08361" lon="7.10542">
        <ele>500</ele>
        <time>2017-05-25T14:08:29.000Z</time>
      </trkpt>
      <trkpt lat="44.08362" lon="7.10543">
        <ele>500</ele>
        <time>2017-05-25T14:08:35.000Z</time>
      </trkpt>
      <trkpt lat="44.08361" lon="7.10543">
        <ele>500</ele>
        <time>2017-05-25T14:08:41.000Z</time>
      </trkpt>
      <trkpt lat="44.0836" lon="7.10541">
        <ele>500</ele>
        <time>2017-05-25T14:08:42.000Z</time>
      </trkpt>
      <trkpt lat="44.08357" lon="7.10536">
        <ele>500</ele>
        <time>2017-05-25T14:08:49.000Z</time>
      </trkpt>
      <trkpt lat="44.08357" lon="7.10537">
        <ele>500</ele>
        <time>2017-05-25T14:08:53.000Z</time>
      </trkpt>
      <trkpt lat="44.08358" lon="7.10539">
        <ele>500</ele>
        <time>2017-05-25T14:08:55.000Z</time>
      </trkpt>
      <trkpt lat="44.08357" lon="7.10538">
        <ele>500</ele>
        <time>2017-05-25T14:09:00.000Z</time>
      </trkpt>
      <trkpt lat="44.08351" lon="7.10531">
        <ele>499</ele>
        <time>2017-05-25T14:09:08.000Z</time>
      </trkpt>
      <trkpt lat="44.08356" lon="7.10537">
        <ele>500</ele>
        <time>2017-05-25T14:09:17.000Z</time>
      </trkpt>
      <trkpt lat="44.08357" lon="7.10539">
        <ele>500</ele>
        <time>2017-05-25T14:09:25.000Z</time>
      </trkpt>
      <trkpt lat="44.08355" lon="7.10536">
        <ele>500</ele>
        <time>2017-05-25T14:09:31.000Z</time>
      </trkpt>
      <trkpt lat="44.08357" lon="7.10537">
        <ele>500</ele>
        <time>2017-05-25T14:09:36.000Z</time>
      </trkpt>
      <trkpt lat="44.08357" lon="7.10538">
        <ele>500</ele>
        <time>2017-05-25T14:09:42.000Z</time>
      </trkpt>
      <trkpt lat="44.08355" lon="7.10538">
        <ele>500</ele>
        <time>2017-05-25T14:09:57.000Z</time>
      </trkpt>
      <trkpt lat="44.08356" lon="7.1054">
        <ele>500</ele>
        <time>2017-05-25T14:10:04.000Z</time>
      </trkpt>
      <trkpt lat="44.08356" lon="7.1054">
        <ele>500</ele>
        <time>2017-05-25T14:10:11.000Z</time>
      </trkpt>
      <trkpt lat="44.08355" lon="7.10538">
        <ele>500</ele>
        <time>2017-05-25T14:10:22.000Z</time>
      </trkpt>
      <trkpt lat="44.08354" lon="7.10537">
        <ele>500</ele>
        <time>2017-05-25T14:10:34.000Z</time>
      </trkpt>
      <trkpt lat="44.08358" lon="7.10539">
        <ele>500</ele>
        <time>2017-05-25T14:10:44.000Z</time>
      </trkpt>
      <trkpt lat="44.08358" lon="7.10538">
        <ele>500</ele>
        <time>2017-05-25T14:10:50.000Z</time>
      </trkpt>
      <trkpt lat="44.08358" lon="7.10539">
        <ele>500</ele>
        <time>2017-05-25T14:10:56.000Z</time>
      </trkpt>
      <trkpt lat="44.08359" lon="7.1054">
        <ele>500</ele>
        <time>2017-05-25T14:11:03.000Z</time>
      </trkpt>
      <trkpt lat="44.0836" lon="7.10542">
        <ele>500</ele>
        <time>2017-05-25T14:11:12.000Z</time>
      </trkpt>
      <trkpt lat="44.08359" lon="7.10541">
        <ele>500</ele>
        <time>2017-05-25T14:11:23.000Z</time>
      </trkpt>
      <trkpt lat="44.08359" lon="7.1054">
        <ele>500</ele>
        <time>2017-05-25T14:11:31.000Z</time>
      </trkpt>
      <trkpt lat="44.08356" lon="7.10538">
        <ele>500</ele>
        <time>2017-05-25T14:11:40.000Z</time>
      </trkpt>
      <trkpt lat="44.08354" lon="7.10537">
        <ele>500</ele>
        <time>2017-05-25T14:11:50.000Z</time>
      </trkpt>
      <trkpt lat="44.08352" lon="7.10535">
        <ele>499</ele>
        <time>2017-05-25T14:12:00.000Z</time>
      </trkpt>
      <trkpt lat="44.08353" lon="7.10535">
        <ele>500</ele>
        <time>2017-05-25T14:12:12.000Z</time>
      </trkpt>
      <trkpt lat="44.08353" lon="7.10536">
        <ele>500</ele>
        <time>2017-05-25T14:12:30.000Z</time>
      </trkpt>
      <trkpt lat="44.08354" lon="7.10536">
        <ele>500</ele>
        <time>2017-05-25T14:12:47.000Z</time>
      </trkpt>
      <trkpt lat="44.08353" lon="7.10535">
        <ele>500</ele>
        <time>2017-05-25T14:12:57.000Z</time>
      </trkpt>
      <trkpt lat="44.08356" lon="7.10536">
        <ele>500</ele>
        <time>2017-05-25T14:13:05.000Z</time>
      </trkpt>
      <trkpt lat="44.08361" lon="7.1054">
        <ele>500</ele>
        <time>2017-05-25T14:13:13.000Z</time>
      </trkpt>
      <trkpt lat="44.08364" lon="7.10543">
        <ele>500</ele>
        <time>2017-05-25T14:13:21.000Z</time>
      </trkpt>
      <trkpt lat="44.08368" lon="7.10546">
        <ele>501</ele>
        <time>2017-05-25T14:13:30.000Z</time>
      </trkpt>
      <trkpt lat="44.08369" lon="7.10547">
        <ele>501</ele>
        <time>2017-05-25T14:13:36.000Z</time>
      </trkpt>
      <trkpt lat="44.08368" lon="7.10546">
        <ele>501</ele>
        <time>2017-05-25T14:13:41.000Z</time>
      </trkpt>
      <trkpt lat="44.08367" lon="7.10545">
        <ele>501</ele>
        <time>2017-05-25T14:13:51.000Z</time>
      </trkpt>
      <trkpt lat="44.08367" lon="7.10544">
        <ele>501</ele>
        <time>2017-05-25T14:14:05.000Z</time>
      </trkpt>
      <trkpt lat="44.08367" lon="7.10542">
        <ele>500</ele>
        <time>2017-05-25T14:14:12.000Z</time>
      </trkpt>
      <trkpt lat="44.08371" lon="7.10546">
        <ele>501</ele>
        <time>2017-05-25T14:14:20.000Z</time>
      </trkpt>
      <trkpt lat="44.08368" lon="7.10545">
        <ele>501</ele>
        <time>2017-05-25T14:14:28.000Z</time>
      </trkpt>
      <trkpt lat="44.0837" lon="7.10546">
        <ele>501</ele>
        <time>2017-05-25T14:14:36.000Z</time>
      </trkpt>
      <trkpt lat="44.0837" lon="7.10547">
        <ele>501</ele>
        <time>2017-05-25T14:14:44.000Z</time>
      </trkpt>
      <trkpt lat="44.0837" lon="7.10546">
        <ele>501</ele>
        <time>2017-05-25T14:14:55.000Z</time>
      </trkpt>
      <trkpt lat="44.08373" lon="7.10548">
        <ele>501</ele>
        <time>2017-05-25T14:15:04.000Z</time>
      </trkpt>
      <trkpt lat="44.0837" lon="7.10545">
        <ele>501</ele>
        <time>2017-05-25T14:15:10.000Z</time>
      </trkpt>
      <trkpt lat="44.08371" lon="7.10546">
        <ele>501</ele>
        <time>2017-05-25T14:15:12.000Z</time>
      </trkpt>
      <trkpt lat="44.0837" lon="7.10546">
        <ele>501</ele>
        <time>2017-05-25T14:15:14.000Z</time>
      </trkpt>
      <trkpt lat="44.0837" lon="7.10546">
        <ele>501</ele>
        <time>2017-05-25T14:15:18.000Z</time>
      </trkpt>
      <trkpt lat="44.08371" lon="7.10547">
        <ele>501</ele>
        <time>2017-05-25T14:15:20.000Z</time>
      </trkpt>
      <trkpt lat="44.08372" lon="7.10547">
        <ele>501</ele>
        <time>2017-05-25T14:15:25.000Z</time>
      </trkpt>
      <trkpt lat="44.08375" lon="7.10545">
        <ele>501</ele>
        <time>2017-05-25T14:15:28.000Z</time>
      </trkpt>
      <trkpt lat="44.08375" lon="7.10545">
        <ele>501</ele>
        <time>2017-05-25T14:15:33.000Z</time>
      </trkpt>
      <trkpt lat="44.08368" lon="7.1054">
        <ele>500</ele>
        <time>2017-05-25T14:15:50.000Z</time>
      </trkpt>
      <trkpt lat="44.08365" lon="7.10538">
        <ele>500</ele>
        <time>2017-05-25T14:15:57.000Z</time>
      </trkpt>
      <trkpt lat="44.08363" lon="7.10538">
        <ele>500</ele>
        <time>2017-05-25T14:16:07.000Z</time>
      </trkpt>
      <trkpt lat="44.0836" lon="7.10538">
        <ele>500</ele>
        <time>2017-05-25T14:16:24.000Z</time>
      </trkpt>
      <trkpt lat="44.08358" lon="7.10537">
        <ele>500</ele>
        <time>2017-05-25T14:16:33.000Z</time>
      </trkpt>
      <trkpt lat="44.08357" lon="7.10539">
        <ele>500</ele>
        <time>2017-05-25T14:16:46.000Z</time>
      </trkpt>
      <trkpt lat="44.08358" lon="7.10542">
        <ele>500</ele>
        <time>2017-05-25T14:16:52.000Z</time>
      </trkpt>
      <trkpt lat="44.08361" lon="7.10546">
        <ele>501</ele>
        <time>2017-05-25T14:17:00.000Z</time>
      </trkpt>
      <trkpt lat="44.08361" lon="7.10546">
        <ele>501</ele>
        <time>2017-05-25T14:17:07.000Z</time>
      </trkpt>
      <trkpt lat="44.08363" lon="7.10545">
        <ele>501</ele>
        <time>2017-05-25T14:17:14.000Z</time>
      </trkpt>
      <trkpt lat="44.08367" lon="7.10546">
        <ele>501</ele>
        <time>2017-05-25T14:17:21.000Z</time>
      </trkpt>
      <trkpt lat="44.08367" lon="7.10548">
        <ele>501</ele>
        <time>2017-05-25T14:17:29.000Z</time>
      </trkpt>
      <trkpt lat="44.08367" lon="7.1055">
        <ele>501</ele>
        <time>2017-05-25T14:17:34.000Z</time>
      </trkpt>
      <trkpt lat="44.08364" lon="7.10544">
        <ele>501</ele>
        <time>2017-05-25T14:17:45.000Z</time>
      </trkpt>
      <trkpt lat="44.0836" lon="7.10539">
        <ele>500</ele>
        <time>2017-05-25T14:17:55.000Z</time>
      </trkpt>
      <trkpt lat="44.08357" lon="7.10536">
        <ele>500</ele>
        <time>2017-05-25T14:18:08.000Z</time>
      </trkpt>
      <trkpt lat="44.08356" lon="7.10535">
        <ele>500</ele>
        <time>2017-05-25T14:18:23.000Z</time>
      </trkpt>
      <trkpt lat="44.08356" lon="7.10534">
        <ele>499</ele>
        <time>2017-05-25T14:18:43.000Z</time>
      </trkpt>
      <trkpt lat="44.08357" lon="7.10535">
        <ele>500</ele>
        <time>2017-05-25T14:18:53.000Z</time>
      </trkpt>
      <trkpt lat="44.08361" lon="7.10539">
        <ele>500</ele>
        <time>2017-05-25T14:19:09.000Z</time>
      </trkpt>
      <trkpt lat="44.08361" lon="7.1054">
        <ele>500</ele>
        <time>2017-05-25T14:19:23.000Z</time>
      </trkpt>
      <trkpt lat="44.0836" lon="7.1054">
        <ele>500</ele>
        <time>2017-05-25T14:19:34.000Z</time>
      </trkpt>
      <trkpt lat="44.08361" lon="7.10541">
        <ele>500</ele>
        <time>2017-05-25T14:19:36.000Z</time>
      </trkpt>
      <trkpt lat="44.08362" lon="7.10542">
        <ele>500</ele>
        <time>2017-05-25T14:19:47.000Z</time>
      </trkpt>
      <trkpt lat="44.08363" lon="7.10543">
        <ele>500</ele>
        <time>2017-05-25T14:19:59.000Z</time>
      </trkpt>
      <trkpt lat="44.08361" lon="7.10542">
        <ele>500</ele>
        <time>2017-05-25T14:20:09.000Z</time>
      </trkpt>
      <trkpt lat="44.08359" lon="7.1054">
        <ele>500</ele>
        <time>2017-05-25T14:20:18.000Z</time>
      </trkpt>
      <trkpt lat="44.08355" lon="7.10537">
        <ele>500</ele>
        <time>2017-05-25T14:20:31.000Z</time>
      </trkpt>
      <trkpt lat="44.08357" lon="7.10539">
        <ele>500</ele>
        <time>2017-05-25T14:20:44.000Z</time>
      </trkpt>
      <trkpt lat="44.08358" lon="7.1054">
        <ele>500</ele>
        <time>2017-05-25T14:20:55.000Z</time>
      </trkpt>
      <trkpt lat="44.08358" lon="7.1054">
        <ele>500</ele>
        <time>2017-05-25T14:21:07.000Z</time>
      </trkpt>
      <trkpt lat="44.08357" lon="7.10539">
        <ele>500</ele>
        <time>2017-05-25T14:21:15.000Z</time>
      </trkpt>
      <trkpt lat="44.08356" lon="7.10538">
        <ele>500</ele>
        <time>2017-05-25T14:21:24.000Z</time>
      </trkpt>
      <trkpt lat="44.08355" lon="7.10538">
        <ele>500</ele>
        <time>2017-05-25T14:21:33.000Z</time>
      </trkpt>
      <trkpt lat="44.08355" lon="7.10539">
        <ele>500</ele>
        <time>2017-05-25T14:21:40.000Z</time>
      </trkpt>
      <trkpt lat="44.08355" lon="7.10539">
        <ele>500</ele>
        <time>2017-05-25T14:21:41.000Z</time>
      </trkpt>
      <trkpt lat="44.08354" lon="7.10539">
        <ele>500</ele>
        <time>2017-05-25T14:21:43.000Z</time>
      </trkpt>
      <trkpt lat="44.08354" lon="7.10538">
        <ele>500</ele>
        <time>2017-05-25T14:21:45.000Z</time>
      </trkpt>
      <trkpt lat="44.08355" lon="7.10538">
        <ele>500</ele>
        <time>2017-05-25T14:21:54.000Z</time>
      </trkpt>
      <trkpt lat="44.08357" lon="7.10539">
        <ele>500</ele>
        <time>2017-05-25T14:22:05.000Z</time>
      </trkpt>
      <trkpt lat="44.08359" lon="7.10541">
        <ele>500</ele>
        <time>2017-05-25T14:22:18.000Z</time>
      </trkpt>
      <trkpt lat="44.0836" lon="7.10542">
        <ele>500</ele>
        <time>2017-05-25T14:22:33.000Z</time>
      </trkpt>
      <trkpt lat="44.08361" lon="7.10543">
        <ele>500</ele>
        <time>2017-05-25T14:22:41.000Z</time>
      </trkpt>
      <trkpt lat="44.08362" lon="7.10544">
        <ele>500</ele>
        <time>2017-05-25T14:22:52.000Z</time>
      </trkpt>
      <trkpt lat="44.08359" lon="7.10543">
        <ele>500</ele>
        <time>2017-05-25T14:23:02.000Z</time>
      </trkpt>
      <trkpt lat="44.08357" lon="7.10541">
        <ele>500</ele>
        <time>2017-05-25T14:23:10.000Z</time>
      </trkpt>
      <trkpt lat="44.08354" lon="7.10539">
        <ele>500</ele>
        <time>2017-05-25T14:23:18.000Z</time>
      </trkpt>
      <trkpt lat="44.08352" lon="7.10537">
        <ele>500</ele>
        <time>2017-05-25T14:23:26.000Z</time>
      </trkpt>
      <trkpt lat="44.08353" lon="7.10538">
        <ele>500</ele>
        <time>2017-05-25T14:23:35.000Z</time>
      </trkpt>
      <trkpt lat="44.08352" lon="7.10537">
        <ele>500</ele>
        <time>2017-05-25T14:23:44.000Z</time>
      </trkpt>
      <trkpt lat="44.08352" lon="7.10536">
        <ele>500</ele>
        <time>2017-05-25T14:23:52.000Z</time>
      </trkpt>
      <trkpt lat="44.08355" lon="7.10538">
        <ele>500</ele>
        <time>2017-05-25T14:24:05.000Z</time>
      </trkpt>
      <trkpt lat="44.08355" lon="7.10538">
        <ele>500</ele>
        <time>2017-05-25T14:24:15.000Z</time>
      </trkpt>
      <trkpt lat="44.08355" lon="7.10539">
        <ele>500</ele>
        <time>2017-05-25T14:24:27.000Z</time>
      </trkpt>
      <trkpt lat="44.08354" lon="7.10538">
        <ele>500</ele>
        <time>2017-05-25T14:24:40.000Z</time>
      </trkpt>
      <trkpt lat="44.08351" lon="7.10537">
        <ele>500</ele>
        <time>2017-05-25T14:24:53.000Z</time>
      </trkpt>
      <trkpt lat="44.08354" lon="7.10538">
        <ele>500</ele>
        <time>2017-05-25T14:25:03.000Z</time>
      </trkpt>
      <trkpt lat="44.08352" lon="7.10537">
        <ele>500</ele>
        <time>2017-05-25T14:25:11.000Z</time>
      </trkpt>
      <trkpt lat="44.08353" lon="7.10537">
        <ele>500</ele>
        <time>2017-05-25T14:25:20.000Z</time>
      </trkpt>
      <trkpt lat="44.08352" lon="7.10537">
        <ele>500</ele>
        <time>2017-05-25T14:25:31.000Z</time>
      </trkpt>
      <trkpt lat="44.08353" lon="7.10537">
        <ele>500</ele>
        <time>2017-05-25T14:25:42.000Z</time>
      </trkpt>
      <trkpt lat="44.08355" lon="7.10539">
        <ele>500</ele>
        <time>2017-05-25T14:25:53.000Z</time>
      </trkpt>
      <trkpt lat="44.08355" lon="7.10539">
        <ele>500</ele>
        <time>2017-05-25T14:25:59.000Z</time>
      </trkpt>
      <trkpt lat="44.08355" lon="7.10539">
        <ele>500</ele>
        <time>2017-05-25T14:26:06.000Z</time>
      </trkpt>
      <trkpt lat="44.08355" lon="7.10539">
        <ele>500</ele>
        <time>2017-05-25T14:26:19.000Z</time>
      </trkpt>
      <trkpt lat="44.08358" lon="7.10541">
        <ele>500</ele>
        <time>2017-05-25T14:26:37.000Z</time>
      </trkpt>
      <trkpt lat="44.08362" lon="7.10544">
        <ele>500</ele>
        <time>2017-05-25T14:26:49.000Z</time>
      </trkpt>
      <trkpt lat="44.08364" lon="7.10546">
        <ele>501</ele>
        <time>2017-05-25T14:26:56.000Z</time>
      </trkpt>
      <trkpt lat="44.08364" lon="7.10547">
        <ele>501</ele>
        <time>2017-05-25T14:26:57.000Z</time>
      </trkpt>
      <trkpt lat="44.08364" lon="7.10546">
        <ele>501</ele>
        <time>2017-05-25T14:27:03.000Z</time>
      </trkpt>
      <trkpt lat="44.08362" lon="7.10543">
        <ele>500</ele>
        <time>2017-05-25T14:27:08.000Z</time>
      </trkpt>
      <trkpt lat="44.08358" lon="7.10539">
        <ele>500</ele>
        <time>2017-05-25T14:27:21.000Z</time>
      </trkpt>
      <trkpt lat="44.08359" lon="7.10539">
        <ele>500</ele>
        <time>2017-05-25T14:27:36.000Z</time>
      </trkpt>
      <trkpt lat="44.08359" lon="7.10539">
        <ele>500</ele>
        <time>2017-05-25T14:27:46.000Z</time>
      </trkpt>
      <trkpt lat="44.0836" lon="7.10539">
        <ele>500</ele>
        <time>2017-05-25T14:27:47.000Z</time>
      </trkpt>
      <trkpt lat="44.0836" lon="7.10539">
        <ele>500</ele>
        <time>2017-05-25T14:27:56.000Z</time>
      </trkpt>
      <trkpt lat="44.08362" lon="7.10541">
        <ele>500</ele>
        <time>2017-05-25T14:28:10.000Z</time>
      </trkpt>
      <trkpt lat="44.0836" lon="7.10537">
        <ele>500</ele>
        <time>2017-05-25T14:28:20.000Z</time>
      </trkpt>
      <trkpt lat="44.08359" lon="7.10537">
        <ele>500</ele>
        <time>2017-05-25T14:28:25.000Z</time>
      </trkpt>
      <trkpt lat="44.08361" lon="7.10539">
        <ele>500</ele>
        <time>2017-05-25T14:28:37.000Z</time>
      </trkpt>
      <trkpt lat="44.08361" lon="7.1054">
        <ele>500</ele>
        <time>2017-05-25T14:28:45.000Z</time>
      </trkpt>
      <trkpt lat="44.08363" lon="7.10541">
        <ele>500</ele>
        <time>2017-05-25T14:28:51.000Z</time>
      </trkpt>
      <trkpt lat="44.08362" lon="7.10541">
        <ele>500</ele>
        <time>2017-05-25T14:28:59.000Z</time>
      </trkpt>
      <trkpt lat="44.0836" lon="7.10541">
        <ele>500</ele>
        <time>2017-05-25T14:29:08.000Z</time>
      </trkpt>
      <trkpt lat="44.08361" lon="7.10541">
        <ele>500</ele>
        <time>2017-05-25T14:29:21.000Z</time>
      </trkpt>
      <trkpt lat="44.08362" lon="7.10542">
        <ele>500</ele>
        <time>2017-05-25T14:29:31.000Z</time>
      </trkpt>
      <trkpt lat="44.08364" lon="7.10544">
        <ele>500</ele>
        <time>2017-05-25T14:29:45.000Z</time>
      </trkpt>
      <trkpt lat="44.08362" lon="7.10542">
        <ele>500</ele>
        <time>2017-05-25T14:29:58.000Z</time>
      </trkpt>
      <trkpt lat="44.08362" lon="7.10542">
        <ele>500</ele>
        <time>2017-05-25T14:30:11.000Z</time>
      </trkpt>
      <trkpt lat="44.08361" lon="7.10541">
        <ele>500</ele>
        <time>2017-05-25T14:30:24.000Z</time>
      </trkpt>
      <trkpt lat="44.08364" lon="7.10542">
        <ele>500</ele>
        <time>2017-05-25T14:30:33.000Z</time>
      </trkpt>
      <trkpt lat="44.08364" lon="7.1054">
        <ele>500</ele>
        <time>2017-05-25T14:30:44.000Z</time>
      </trkpt>
      <trkpt lat="44.08364" lon="7.10539">
        <ele>500</ele>
        <time>2017-05-25T14:30:49.000Z</time>
      </trkpt>
      <trkpt lat="44.08363" lon="7.10537">
        <ele>500</ele>
        <time>2017-05-25T14:30:55.000Z</time>
      </trkpt>
      <trkpt lat="44.08361" lon="7.10537">
        <ele>500</ele>
        <time>2017-05-25T14:31:01.000Z</time>
      </trkpt>
      <trkpt lat="44.0836" lon="7.10537">
        <ele>500</ele>
        <time>2017-05-25T14:31:12.000Z</time>
      </trkpt>
      <trkpt lat="44.08359" lon="7.10536">
        <ele>500</ele>
        <time>2017-05-25T14:31:25.000Z</time>
      </trkpt>
      <trkpt lat="44.08358" lon="7.10536">
        <ele>500</ele>
        <time>2017-05-25T14:31:34.000Z</time>
      </trkpt>
      <trkpt lat="44.08358" lon="7.10537">
        <ele>500</ele>
        <time>2017-05-25T14:31:52.000Z</time>
      </trkpt>
      <trkpt lat="44.08358" lon="7.10536">
        <ele>500</ele>
        <time>2017-05-25T14:31:55.000Z</time>
      </trkpt>
      <trkpt lat="44.08358" lon="7.10536">
        <ele>500</ele>
        <time>2017-05-25T14:31:57.000Z</time>
      </trkpt>
      <trkpt lat="44.08363" lon="7.1054">
        <ele>500</ele>
        <time>2017-05-25T14:32:11.000Z</time>
      </trkpt>
      <trkpt lat="44.0836" lon="7.10539">
        <ele>500</ele>
        <time>2017-05-25T14:32:22.000Z</time>
      </trkpt>
      <trkpt lat="44.0836" lon="7.10538">
        <ele>500</ele>
        <time>2017-05-25T14:32:29.000Z</time>
      </trkpt>
      <trkpt lat="44.08359" lon="7.10538">
        <ele>500</ele>
        <time>2017-05-25T14:32:35.000Z</time>
      </trkpt>
      <trkpt lat="44.08356" lon="7.10538">
        <ele>500</ele>
        <time>2017-05-25T14:32:45.000Z</time>
      </trkpt>
      <trkpt lat="44.08355" lon="7.10533">
        <ele>499</ele>
        <time>2017-05-25T14:32:55.000Z</time>
      </trkpt>
      <trkpt lat="44.08353" lon="7.10532">
        <ele>499</ele>
        <time>2017-05-25T14:33:04.000Z</time>
      </trkpt>
      <trkpt lat="44.08353" lon="7.10532">
        <ele>499</ele>
        <time>2017-05-25T14:33:09.000Z</time>
      </trkpt>
      <trkpt lat="44.08355" lon="7.10533">
        <ele>499</ele>
        <time>2017-05-25T14:33:15.000Z</time>
      </trkpt>
      <trkpt lat="44.08356" lon="7.10534">
        <ele>499</ele>
        <time>2017-05-25T14:33:27.000Z</time>
      </trkpt>
      <trkpt lat="44.08357" lon="7.10536">
        <ele>500</ele>
        <time>2017-05-25T14:33:47.000Z</time>
      </trkpt>
      <trkpt lat="44.08358" lon="7.10537">
        <ele>500</ele>
        <time>2017-05-25T14:33:57.000Z</time>
      </trkpt>
      <trkpt lat="44.08358" lon="7.10535">
        <ele>500</ele>
        <time>2017-05-25T14:34:07.000Z</time>
      </trkpt>
      <trkpt lat="44.08357" lon="7.1053">
        <ele>499</ele>
        <time>2017-05-25T14:34:30.000Z</time>
      </trkpt>
      <trkpt lat="44.08361" lon="7.10533">
        <ele>499</ele>
        <time>2017-05-25T14:34:40.000Z</time>
      </trkpt>
      <trkpt lat="44.08362" lon="7.10534">
        <ele>500</ele>
        <time>2017-05-25T14:34:51.000Z</time>
      </trkpt>
      <trkpt lat="44.08361" lon="7.10534">
        <ele>500</ele>
        <time>2017-05-25T14:34:56.000Z</time>
      </trkpt>
      <trkpt lat="44.08357" lon="7.10533">
        <ele>499</ele>
        <time>2017-05-25T14:35:01.000Z</time>
      </trkpt>
      <trkpt lat="44.08356" lon="7.10534">
        <ele>499</ele>
        <time>2017-05-25T14:35:02.000Z</time>
      </trkpt>
      <trkpt lat="44.08356" lon="7.10539">
        <ele>500</ele>
        <time>2017-05-25T14:35:04.000Z</time>
      </trkpt>
    </trkseg>
  </trk>
</gpx>